<?xml version="1.0" encoding="UTF-8" standalone="no" ?>
<gpx xmlns="http://www.topografix.com/GPX/1/1" xmlns:xsi="http://www.w3.org/2001/XMLSchema-instance" xsi:schemaLocation="http://www.topografix.com/GPX/1/1 http://www.topografix.com/GPX/1/1/gpx.xsd" version="1.1" creator="VisuGPX - https://www.visugpx.com">
  <metadata>
    <name>ski Tour du Roignais Combe Neuve 2961m</name>
    <desc><![CDATA[
]]></desc>
  </metadata>
  <trk>
    <name><![CDATA[La Plagne Tarentaise Cyclisme]]></name>
    <trkseg>
      <trkpt lat="45.59192" lon="6.67097">
        <ele>1392.8000488281</ele>
        <time>2020-01-15T07:30:49.000Z</time>
      </trkpt>
      <trkpt lat="45.59192" lon="6.67097">
        <ele>1392.5999755859</ele>
        <time>2020-01-15T07:31:00.000Z</time>
      </trkpt>
      <trkpt lat="45.59192" lon="6.67097">
        <ele>1392.1999511719</ele>
        <time>2020-01-15T07:31:08.000Z</time>
      </trkpt>
      <trkpt lat="45.59192" lon="6.67097">
        <ele>1392.1999511719</ele>
        <time>2020-01-15T07:31:22.000Z</time>
      </trkpt>
      <trkpt lat="45.59192" lon="6.67097">
        <ele>1392.1999511719</ele>
        <time>2020-01-15T07:31:30.000Z</time>
      </trkpt>
      <trkpt lat="45.59192" lon="6.67097">
        <ele>1392</ele>
        <time>2020-01-15T07:31:41.000Z</time>
      </trkpt>
      <trkpt lat="45.59192" lon="6.67097">
        <ele>1391.8000488281</ele>
        <time>2020-01-15T07:31:43.000Z</time>
      </trkpt>
      <trkpt lat="45.59192" lon="6.67096">
        <ele>1392.1999511719</ele>
        <time>2020-01-15T07:31:49.000Z</time>
      </trkpt>
      <trkpt lat="45.59193" lon="6.67096">
        <ele>1392</ele>
        <time>2020-01-15T07:31:57.000Z</time>
      </trkpt>
      <trkpt lat="45.59196" lon="6.67091">
        <ele>1392</ele>
        <time>2020-01-15T07:32:02.000Z</time>
      </trkpt>
      <trkpt lat="45.59203" lon="6.67089">
        <ele>1392.1999511719</ele>
        <time>2020-01-15T07:32:08.000Z</time>
      </trkpt>
      <trkpt lat="45.59207" lon="6.67087">
        <ele>1392.1999511719</ele>
        <time>2020-01-15T07:32:13.000Z</time>
      </trkpt>
      <trkpt lat="45.5921" lon="6.67087">
        <ele>1392.1999511719</ele>
        <time>2020-01-15T07:32:20.000Z</time>
      </trkpt>
      <trkpt lat="45.5921" lon="6.67087">
        <ele>1391.5999755859</ele>
        <time>2020-01-15T07:32:31.000Z</time>
      </trkpt>
      <trkpt lat="45.5921" lon="6.67087">
        <ele>1392.4000244141</ele>
        <time>2020-01-15T07:32:49.000Z</time>
      </trkpt>
      <trkpt lat="45.5921" lon="6.67087">
        <ele>1393</ele>
        <time>2020-01-15T07:32:50.000Z</time>
      </trkpt>
      <trkpt lat="45.5921" lon="6.67087">
        <ele>1391.8000488281</ele>
        <time>2020-01-15T07:32:55.000Z</time>
      </trkpt>
      <trkpt lat="45.59211" lon="6.67087">
        <ele>1392</ele>
        <time>2020-01-15T07:33:04.000Z</time>
      </trkpt>
      <trkpt lat="45.59211" lon="6.67087">
        <ele>1391.8000488281</ele>
        <time>2020-01-15T07:33:17.000Z</time>
      </trkpt>
      <trkpt lat="45.59212" lon="6.67087">
        <ele>1392</ele>
        <time>2020-01-15T07:33:25.000Z</time>
      </trkpt>
      <trkpt lat="45.59219" lon="6.67086">
        <ele>1392.1999511719</ele>
        <time>2020-01-15T07:33:32.000Z</time>
      </trkpt>
      <trkpt lat="45.59226" lon="6.67085">
        <ele>1392.1999511719</ele>
        <time>2020-01-15T07:33:40.000Z</time>
      </trkpt>
      <trkpt lat="45.59233" lon="6.67085">
        <ele>1392.4000244141</ele>
        <time>2020-01-15T07:33:46.000Z</time>
      </trkpt>
      <trkpt lat="45.59239" lon="6.67085">
        <ele>1392.4000244141</ele>
        <time>2020-01-15T07:33:51.000Z</time>
      </trkpt>
      <trkpt lat="45.59243" lon="6.67086">
        <ele>1392.5999755859</ele>
        <time>2020-01-15T07:33:57.000Z</time>
      </trkpt>
      <trkpt lat="45.59253" lon="6.67086">
        <ele>1392.1999511719</ele>
        <time>2020-01-15T07:34:05.000Z</time>
      </trkpt>
      <trkpt lat="45.59261" lon="6.67088">
        <ele>1392.4000244141</ele>
        <time>2020-01-15T07:34:13.000Z</time>
      </trkpt>
      <trkpt lat="45.5927" lon="6.67088">
        <ele>1392.4000244141</ele>
        <time>2020-01-15T07:34:20.000Z</time>
      </trkpt>
      <trkpt lat="45.59277" lon="6.67088">
        <ele>1392.5999755859</ele>
        <time>2020-01-15T07:34:28.000Z</time>
      </trkpt>
      <trkpt lat="45.5928" lon="6.67089">
        <ele>1392.5999755859</ele>
        <time>2020-01-15T07:34:40.000Z</time>
      </trkpt>
      <trkpt lat="45.59289" lon="6.67088">
        <ele>1392.5999755859</ele>
        <time>2020-01-15T07:34:48.000Z</time>
      </trkpt>
      <trkpt lat="45.593" lon="6.67088">
        <ele>1392.5999755859</ele>
        <time>2020-01-15T07:34:56.000Z</time>
      </trkpt>
      <trkpt lat="45.5931" lon="6.67088">
        <ele>1392.5999755859</ele>
        <time>2020-01-15T07:35:04.000Z</time>
      </trkpt>
      <trkpt lat="45.59313" lon="6.6709">
        <ele>1393</ele>
        <time>2020-01-15T07:35:07.000Z</time>
      </trkpt>
      <trkpt lat="45.59323" lon="6.67095">
        <ele>1393</ele>
        <time>2020-01-15T07:35:14.000Z</time>
      </trkpt>
      <trkpt lat="45.59332" lon="6.67099">
        <ele>1393</ele>
        <time>2020-01-15T07:35:20.000Z</time>
      </trkpt>
      <trkpt lat="45.59343" lon="6.67099">
        <ele>1393</ele>
        <time>2020-01-15T07:35:29.000Z</time>
      </trkpt>
      <trkpt lat="45.59354" lon="6.67097">
        <ele>1393.1999511719</ele>
        <time>2020-01-15T07:35:37.000Z</time>
      </trkpt>
      <trkpt lat="45.59355" lon="6.67096">
        <ele>1393.1999511719</ele>
        <time>2020-01-15T07:35:38.000Z</time>
      </trkpt>
      <trkpt lat="45.59363" lon="6.67094">
        <ele>1393.4000244141</ele>
        <time>2020-01-15T07:35:45.000Z</time>
      </trkpt>
      <trkpt lat="45.59366" lon="6.67093">
        <ele>1393.4000244141</ele>
        <time>2020-01-15T07:35:47.000Z</time>
      </trkpt>
      <trkpt lat="45.59371" lon="6.67091">
        <ele>1393.4000244141</ele>
        <time>2020-01-15T07:35:51.000Z</time>
      </trkpt>
      <trkpt lat="45.59379" lon="6.67089">
        <ele>1393.8000488281</ele>
        <time>2020-01-15T07:35:58.000Z</time>
      </trkpt>
      <trkpt lat="45.59381" lon="6.67087">
        <ele>1394</ele>
        <time>2020-01-15T07:36:00.000Z</time>
      </trkpt>
      <trkpt lat="45.59387" lon="6.67082">
        <ele>1394</ele>
        <time>2020-01-15T07:36:04.000Z</time>
      </trkpt>
      <trkpt lat="45.59396" lon="6.67077">
        <ele>1394.5999755859</ele>
        <time>2020-01-15T07:36:10.000Z</time>
      </trkpt>
      <trkpt lat="45.59401" lon="6.67073">
        <ele>1395</ele>
        <time>2020-01-15T07:36:14.000Z</time>
      </trkpt>
      <trkpt lat="45.59405" lon="6.6707">
        <ele>1395.1999511719</ele>
        <time>2020-01-15T07:36:17.000Z</time>
      </trkpt>
      <trkpt lat="45.59412" lon="6.67066">
        <ele>1395.4000244141</ele>
        <time>2020-01-15T07:36:23.000Z</time>
      </trkpt>
      <trkpt lat="45.59417" lon="6.67061">
        <ele>1396</ele>
        <time>2020-01-15T07:36:28.000Z</time>
      </trkpt>
      <trkpt lat="45.59418" lon="6.67061">
        <ele>1396.1999511719</ele>
        <time>2020-01-15T07:36:29.000Z</time>
      </trkpt>
      <trkpt lat="45.59421" lon="6.67058">
        <ele>1396.4000244141</ele>
        <time>2020-01-15T07:36:32.000Z</time>
      </trkpt>
      <trkpt lat="45.59428" lon="6.67054">
        <ele>1397</ele>
        <time>2020-01-15T07:36:38.000Z</time>
      </trkpt>
      <trkpt lat="45.59433" lon="6.67051">
        <ele>1397.4000244141</ele>
        <time>2020-01-15T07:36:43.000Z</time>
      </trkpt>
      <trkpt lat="45.59439" lon="6.67049">
        <ele>1397.8000488281</ele>
        <time>2020-01-15T07:36:49.000Z</time>
      </trkpt>
      <trkpt lat="45.59443" lon="6.67049">
        <ele>1398.1999511719</ele>
        <time>2020-01-15T07:36:54.000Z</time>
      </trkpt>
      <trkpt lat="45.59447" lon="6.67049">
        <ele>1398.4000244141</ele>
        <time>2020-01-15T07:36:57.000Z</time>
      </trkpt>
      <trkpt lat="45.59451" lon="6.67048">
        <ele>1398.8000488281</ele>
        <time>2020-01-15T07:37:01.000Z</time>
      </trkpt>
      <trkpt lat="45.59456" lon="6.67045">
        <ele>1399</ele>
        <time>2020-01-15T07:37:05.000Z</time>
      </trkpt>
      <trkpt lat="45.59458" lon="6.67044">
        <ele>1399.1999511719</ele>
        <time>2020-01-15T07:37:07.000Z</time>
      </trkpt>
      <trkpt lat="45.59461" lon="6.6704">
        <ele>1399.5999755859</ele>
        <time>2020-01-15T07:37:10.000Z</time>
      </trkpt>
      <trkpt lat="45.59464" lon="6.67038">
        <ele>1399.8000488281</ele>
        <time>2020-01-15T07:37:13.000Z</time>
      </trkpt>
      <trkpt lat="45.5947" lon="6.67036">
        <ele>1400.1999511719</ele>
        <time>2020-01-15T07:37:18.000Z</time>
      </trkpt>
      <trkpt lat="45.59476" lon="6.67032">
        <ele>1400.4000244141</ele>
        <time>2020-01-15T07:37:24.000Z</time>
      </trkpt>
      <trkpt lat="45.59478" lon="6.67028">
        <ele>1400.5999755859</ele>
        <time>2020-01-15T07:37:27.000Z</time>
      </trkpt>
      <trkpt lat="45.5948" lon="6.67026">
        <ele>1401</ele>
        <time>2020-01-15T07:37:30.000Z</time>
      </trkpt>
      <trkpt lat="45.59487" lon="6.67023">
        <ele>1401.1999511719</ele>
        <time>2020-01-15T07:37:35.000Z</time>
      </trkpt>
      <trkpt lat="45.59491" lon="6.6702">
        <ele>1401.5999755859</ele>
        <time>2020-01-15T07:37:39.000Z</time>
      </trkpt>
      <trkpt lat="45.59495" lon="6.67018">
        <ele>1401.8000488281</ele>
        <time>2020-01-15T07:37:43.000Z</time>
      </trkpt>
      <trkpt lat="45.59501" lon="6.67014">
        <ele>1402.1999511719</ele>
        <time>2020-01-15T07:37:48.000Z</time>
      </trkpt>
      <trkpt lat="45.59507" lon="6.67011">
        <ele>1402.4000244141</ele>
        <time>2020-01-15T07:37:54.000Z</time>
      </trkpt>
      <trkpt lat="45.5951" lon="6.67009">
        <ele>1402.8000488281</ele>
        <time>2020-01-15T07:37:57.000Z</time>
      </trkpt>
      <trkpt lat="45.59513" lon="6.67009">
        <ele>1402.8000488281</ele>
        <time>2020-01-15T07:37:59.000Z</time>
      </trkpt>
      <trkpt lat="45.59521" lon="6.67008">
        <ele>1403.4000244141</ele>
        <time>2020-01-15T07:38:06.000Z</time>
      </trkpt>
      <trkpt lat="45.59526" lon="6.67009">
        <ele>1403.8000488281</ele>
        <time>2020-01-15T07:38:11.000Z</time>
      </trkpt>
      <trkpt lat="45.59533" lon="6.67012">
        <ele>1404.5999755859</ele>
        <time>2020-01-15T07:38:18.000Z</time>
      </trkpt>
      <trkpt lat="45.59537" lon="6.67013">
        <ele>1404.8000488281</ele>
        <time>2020-01-15T07:38:22.000Z</time>
      </trkpt>
      <trkpt lat="45.5954" lon="6.67014">
        <ele>1404.8000488281</ele>
        <time>2020-01-15T07:38:24.000Z</time>
      </trkpt>
      <trkpt lat="45.59543" lon="6.67014">
        <ele>1404.8000488281</ele>
        <time>2020-01-15T07:38:27.000Z</time>
      </trkpt>
      <trkpt lat="45.59552" lon="6.67015">
        <ele>1405.5999755859</ele>
        <time>2020-01-15T07:38:34.000Z</time>
      </trkpt>
      <trkpt lat="45.59555" lon="6.67014">
        <ele>1405.8000488281</ele>
        <time>2020-01-15T07:38:36.000Z</time>
      </trkpt>
      <trkpt lat="45.5956" lon="6.67014">
        <ele>1406.1999511719</ele>
        <time>2020-01-15T07:38:41.000Z</time>
      </trkpt>
      <trkpt lat="45.59567" lon="6.67013">
        <ele>1406.5999755859</ele>
        <time>2020-01-15T07:38:48.000Z</time>
      </trkpt>
      <trkpt lat="45.5957" lon="6.67012">
        <ele>1407</ele>
        <time>2020-01-15T07:38:51.000Z</time>
      </trkpt>
      <trkpt lat="45.59573" lon="6.67011">
        <ele>1407.4000244141</ele>
        <time>2020-01-15T07:38:54.000Z</time>
      </trkpt>
      <trkpt lat="45.59574" lon="6.67011">
        <ele>1407.4000244141</ele>
        <time>2020-01-15T07:38:55.000Z</time>
      </trkpt>
      <trkpt lat="45.59578" lon="6.67012">
        <ele>1407.5999755859</ele>
        <time>2020-01-15T07:38:59.000Z</time>
      </trkpt>
      <trkpt lat="45.59582" lon="6.67013">
        <ele>1408</ele>
        <time>2020-01-15T07:39:03.000Z</time>
      </trkpt>
      <trkpt lat="45.59583" lon="6.67013">
        <ele>1408</ele>
        <time>2020-01-15T07:39:04.000Z</time>
      </trkpt>
      <trkpt lat="45.59588" lon="6.67015">
        <ele>1408.1999511719</ele>
        <time>2020-01-15T07:39:08.000Z</time>
      </trkpt>
      <trkpt lat="45.59592" lon="6.67019">
        <ele>1408.5999755859</ele>
        <time>2020-01-15T07:39:13.000Z</time>
      </trkpt>
      <trkpt lat="45.59596" lon="6.67021">
        <ele>1409</ele>
        <time>2020-01-15T07:39:18.000Z</time>
      </trkpt>
      <trkpt lat="45.59597" lon="6.67022">
        <ele>1409.1999511719</ele>
        <time>2020-01-15T07:39:20.000Z</time>
      </trkpt>
      <trkpt lat="45.59603" lon="6.67026">
        <ele>1409.8000488281</ele>
        <time>2020-01-15T07:39:28.000Z</time>
      </trkpt>
      <trkpt lat="45.59605" lon="6.67026">
        <ele>1410</ele>
        <time>2020-01-15T07:39:30.000Z</time>
      </trkpt>
      <trkpt lat="45.59609" lon="6.67028">
        <ele>1410.5999755859</ele>
        <time>2020-01-15T07:39:35.000Z</time>
      </trkpt>
      <trkpt lat="45.59614" lon="6.67029">
        <ele>1411.1999511719</ele>
        <time>2020-01-15T07:39:40.000Z</time>
      </trkpt>
      <trkpt lat="45.59615" lon="6.67028">
        <ele>1411.4000244141</ele>
        <time>2020-01-15T07:39:41.000Z</time>
      </trkpt>
      <trkpt lat="45.59621" lon="6.6702">
        <ele>1411.5999755859</ele>
        <time>2020-01-15T07:39:46.000Z</time>
      </trkpt>
      <trkpt lat="45.59624" lon="6.67015">
        <ele>1411.8000488281</ele>
        <time>2020-01-15T07:39:49.000Z</time>
      </trkpt>
      <trkpt lat="45.59625" lon="6.67012">
        <ele>1411.8000488281</ele>
        <time>2020-01-15T07:39:51.000Z</time>
      </trkpt>
      <trkpt lat="45.59626" lon="6.67006">
        <ele>1412.1999511719</ele>
        <time>2020-01-15T07:39:54.000Z</time>
      </trkpt>
      <trkpt lat="45.59626" lon="6.67002">
        <ele>1412.4000244141</ele>
        <time>2020-01-15T07:39:56.000Z</time>
      </trkpt>
      <trkpt lat="45.59625" lon="6.66993">
        <ele>1412.8000488281</ele>
        <time>2020-01-15T07:40:01.000Z</time>
      </trkpt>
      <trkpt lat="45.59625" lon="6.66989">
        <ele>1413.1999511719</ele>
        <time>2020-01-15T07:40:04.000Z</time>
      </trkpt>
      <trkpt lat="45.59625" lon="6.66983">
        <ele>1414</ele>
        <time>2020-01-15T07:40:07.000Z</time>
      </trkpt>
      <trkpt lat="45.59625" lon="6.66977">
        <ele>1414.1999511719</ele>
        <time>2020-01-15T07:40:11.000Z</time>
      </trkpt>
      <trkpt lat="45.59624" lon="6.66974">
        <ele>1414.4000244141</ele>
        <time>2020-01-15T07:40:13.000Z</time>
      </trkpt>
      <trkpt lat="45.59624" lon="6.66963">
        <ele>1415.1999511719</ele>
        <time>2020-01-15T07:40:18.000Z</time>
      </trkpt>
      <trkpt lat="45.59624" lon="6.66962">
        <ele>1415.4000244141</ele>
        <time>2020-01-15T07:40:19.000Z</time>
      </trkpt>
      <trkpt lat="45.59625" lon="6.6695">
        <ele>1415.5999755859</ele>
        <time>2020-01-15T07:40:24.000Z</time>
      </trkpt>
      <trkpt lat="45.59628" lon="6.66938">
        <ele>1416.4000244141</ele>
        <time>2020-01-15T07:40:30.000Z</time>
      </trkpt>
      <trkpt lat="45.59628" lon="6.66927">
        <ele>1416.8000488281</ele>
        <time>2020-01-15T07:40:35.000Z</time>
      </trkpt>
      <trkpt lat="45.59629" lon="6.6692">
        <ele>1417.4000244141</ele>
        <time>2020-01-15T07:40:40.000Z</time>
      </trkpt>
      <trkpt lat="45.5963" lon="6.66911">
        <ele>1418.1999511719</ele>
        <time>2020-01-15T07:40:45.000Z</time>
      </trkpt>
      <trkpt lat="45.59631" lon="6.66905">
        <ele>1418.5999755859</ele>
        <time>2020-01-15T07:40:49.000Z</time>
      </trkpt>
      <trkpt lat="45.59631" lon="6.66901">
        <ele>1418.8000488281</ele>
        <time>2020-01-15T07:40:51.000Z</time>
      </trkpt>
      <trkpt lat="45.59631" lon="6.6689">
        <ele>1419.4000244141</ele>
        <time>2020-01-15T07:40:57.000Z</time>
      </trkpt>
      <trkpt lat="45.59631" lon="6.66886">
        <ele>1419.5999755859</ele>
        <time>2020-01-15T07:40:59.000Z</time>
      </trkpt>
      <trkpt lat="45.59628" lon="6.66879">
        <ele>1420.4000244141</ele>
        <time>2020-01-15T07:41:04.000Z</time>
      </trkpt>
      <trkpt lat="45.59627" lon="6.66874">
        <ele>1420.8000488281</ele>
        <time>2020-01-15T07:41:07.000Z</time>
      </trkpt>
      <trkpt lat="45.59627" lon="6.66869">
        <ele>1421.1999511719</ele>
        <time>2020-01-15T07:41:10.000Z</time>
      </trkpt>
      <trkpt lat="45.59626" lon="6.66863">
        <ele>1421.5999755859</ele>
        <time>2020-01-15T07:41:15.000Z</time>
      </trkpt>
      <trkpt lat="45.59626" lon="6.66862">
        <ele>1421.8000488281</ele>
        <time>2020-01-15T07:41:16.000Z</time>
      </trkpt>
      <trkpt lat="45.59627" lon="6.66854">
        <ele>1422.4000244141</ele>
        <time>2020-01-15T07:41:21.000Z</time>
      </trkpt>
      <trkpt lat="45.59627" lon="6.6685">
        <ele>1422.8000488281</ele>
        <time>2020-01-15T07:41:24.000Z</time>
      </trkpt>
      <trkpt lat="45.59627" lon="6.66846">
        <ele>1423</ele>
        <time>2020-01-15T07:41:27.000Z</time>
      </trkpt>
      <trkpt lat="45.59628" lon="6.6684">
        <ele>1423.4000244141</ele>
        <time>2020-01-15T07:41:33.000Z</time>
      </trkpt>
      <trkpt lat="45.59628" lon="6.66837">
        <ele>1423.8000488281</ele>
        <time>2020-01-15T07:41:36.000Z</time>
      </trkpt>
      <trkpt lat="45.59628" lon="6.66832">
        <ele>1424.1999511719</ele>
        <time>2020-01-15T07:41:40.000Z</time>
      </trkpt>
      <trkpt lat="45.59629" lon="6.66828">
        <ele>1424.8000488281</ele>
        <time>2020-01-15T07:41:43.000Z</time>
      </trkpt>
      <trkpt lat="45.5963" lon="6.66825">
        <ele>1425</ele>
        <time>2020-01-15T07:41:45.000Z</time>
      </trkpt>
      <trkpt lat="45.59634" lon="6.6682">
        <ele>1426</ele>
        <time>2020-01-15T07:41:51.000Z</time>
      </trkpt>
      <trkpt lat="45.59635" lon="6.66815">
        <ele>1427.1999511719</ele>
        <time>2020-01-15T07:41:55.000Z</time>
      </trkpt>
      <trkpt lat="45.59636" lon="6.66813">
        <ele>1427.4000244141</ele>
        <time>2020-01-15T07:41:56.000Z</time>
      </trkpt>
      <trkpt lat="45.59639" lon="6.66806">
        <ele>1428.1999511719</ele>
        <time>2020-01-15T07:42:02.000Z</time>
      </trkpt>
      <trkpt lat="45.59644" lon="6.668">
        <ele>1429.1999511719</ele>
        <time>2020-01-15T07:42:08.000Z</time>
      </trkpt>
      <trkpt lat="45.59648" lon="6.66795">
        <ele>1430.4000244141</ele>
        <time>2020-01-15T07:42:13.000Z</time>
      </trkpt>
      <trkpt lat="45.59651" lon="6.66791">
        <ele>1430.5999755859</ele>
        <time>2020-01-15T07:42:15.000Z</time>
      </trkpt>
      <trkpt lat="45.59652" lon="6.66789">
        <ele>1431.1999511719</ele>
        <time>2020-01-15T07:42:18.000Z</time>
      </trkpt>
      <trkpt lat="45.59652" lon="6.66788">
        <ele>1431.4000244141</ele>
        <time>2020-01-15T07:42:20.000Z</time>
      </trkpt>
      <trkpt lat="45.59649" lon="6.66781">
        <ele>1432.5999755859</ele>
        <time>2020-01-15T07:42:27.000Z</time>
      </trkpt>
      <trkpt lat="45.59648" lon="6.66779">
        <ele>1433</ele>
        <time>2020-01-15T07:42:29.000Z</time>
      </trkpt>
      <trkpt lat="45.59647" lon="6.66778">
        <ele>1433.5999755859</ele>
        <time>2020-01-15T07:42:30.000Z</time>
      </trkpt>
      <trkpt lat="45.59646" lon="6.66778">
        <ele>1434.5999755859</ele>
        <time>2020-01-15T07:42:35.000Z</time>
      </trkpt>
      <trkpt lat="45.59646" lon="6.66778">
        <ele>1434.8000488281</ele>
        <time>2020-01-15T07:42:36.000Z</time>
      </trkpt>
      <trkpt lat="45.59647" lon="6.66777">
        <ele>1436</ele>
        <time>2020-01-15T07:42:41.000Z</time>
      </trkpt>
      <trkpt lat="45.59647" lon="6.66776">
        <ele>1436.1999511719</ele>
        <time>2020-01-15T07:42:42.000Z</time>
      </trkpt>
      <trkpt lat="45.59654" lon="6.66769">
        <ele>1436.4000244141</ele>
        <time>2020-01-15T07:42:48.000Z</time>
      </trkpt>
      <trkpt lat="45.59657" lon="6.66765">
        <ele>1437.1999511719</ele>
        <time>2020-01-15T07:42:54.000Z</time>
      </trkpt>
      <trkpt lat="45.59658" lon="6.66764">
        <ele>1437.4000244141</ele>
        <time>2020-01-15T07:42:55.000Z</time>
      </trkpt>
      <trkpt lat="45.59665" lon="6.66758">
        <ele>1437.8000488281</ele>
        <time>2020-01-15T07:43:02.000Z</time>
      </trkpt>
      <trkpt lat="45.59667" lon="6.66757">
        <ele>1437.8000488281</ele>
        <time>2020-01-15T07:43:03.000Z</time>
      </trkpt>
      <trkpt lat="45.59671" lon="6.66758">
        <ele>1438.1999511719</ele>
        <time>2020-01-15T07:43:07.000Z</time>
      </trkpt>
      <trkpt lat="45.59673" lon="6.66758">
        <ele>1438.5999755859</ele>
        <time>2020-01-15T07:43:09.000Z</time>
      </trkpt>
      <trkpt lat="45.59675" lon="6.66759">
        <ele>1438.8000488281</ele>
        <time>2020-01-15T07:43:11.000Z</time>
      </trkpt>
      <trkpt lat="45.59676" lon="6.66759">
        <ele>1439</ele>
        <time>2020-01-15T07:43:13.000Z</time>
      </trkpt>
      <trkpt lat="45.59678" lon="6.66761">
        <ele>1439.1999511719</ele>
        <time>2020-01-15T07:43:15.000Z</time>
      </trkpt>
      <trkpt lat="45.59679" lon="6.66763">
        <ele>1439.4000244141</ele>
        <time>2020-01-15T07:43:17.000Z</time>
      </trkpt>
      <trkpt lat="45.59682" lon="6.66765">
        <ele>1440</ele>
        <time>2020-01-15T07:43:22.000Z</time>
      </trkpt>
      <trkpt lat="45.59684" lon="6.66765">
        <ele>1440.1999511719</ele>
        <time>2020-01-15T07:43:23.000Z</time>
      </trkpt>
      <trkpt lat="45.59686" lon="6.66765">
        <ele>1440.4000244141</ele>
        <time>2020-01-15T07:43:25.000Z</time>
      </trkpt>
      <trkpt lat="45.59687" lon="6.66765">
        <ele>1440.5999755859</ele>
        <time>2020-01-15T07:43:26.000Z</time>
      </trkpt>
      <trkpt lat="45.5969" lon="6.66769">
        <ele>1441.1999511719</ele>
        <time>2020-01-15T07:43:31.000Z</time>
      </trkpt>
      <trkpt lat="45.59692" lon="6.66769">
        <ele>1441.4000244141</ele>
        <time>2020-01-15T07:43:34.000Z</time>
      </trkpt>
      <trkpt lat="45.59693" lon="6.6677">
        <ele>1441.4000244141</ele>
        <time>2020-01-15T07:43:36.000Z</time>
      </trkpt>
      <trkpt lat="45.59699" lon="6.66772">
        <ele>1441.8000488281</ele>
        <time>2020-01-15T07:43:41.000Z</time>
      </trkpt>
      <trkpt lat="45.59702" lon="6.66774">
        <ele>1442.4000244141</ele>
        <time>2020-01-15T07:43:45.000Z</time>
      </trkpt>
      <trkpt lat="45.59703" lon="6.66775">
        <ele>1442.4000244141</ele>
        <time>2020-01-15T07:43:46.000Z</time>
      </trkpt>
      <trkpt lat="45.59708" lon="6.6678">
        <ele>1442.8000488281</ele>
        <time>2020-01-15T07:43:50.000Z</time>
      </trkpt>
      <trkpt lat="45.5971" lon="6.66786">
        <ele>1443.1999511719</ele>
        <time>2020-01-15T07:43:53.000Z</time>
      </trkpt>
      <trkpt lat="45.59711" lon="6.66787">
        <ele>1443.1999511719</ele>
        <time>2020-01-15T07:43:54.000Z</time>
      </trkpt>
      <trkpt lat="45.59711" lon="6.66789">
        <ele>1443.4000244141</ele>
        <time>2020-01-15T07:43:55.000Z</time>
      </trkpt>
      <trkpt lat="45.59714" lon="6.66795">
        <ele>1443.8000488281</ele>
        <time>2020-01-15T07:43:59.000Z</time>
      </trkpt>
      <trkpt lat="45.59716" lon="6.66801">
        <ele>1444.1999511719</ele>
        <time>2020-01-15T07:44:03.000Z</time>
      </trkpt>
      <trkpt lat="45.59719" lon="6.66803">
        <ele>1444.5999755859</ele>
        <time>2020-01-15T07:44:06.000Z</time>
      </trkpt>
      <trkpt lat="45.5972" lon="6.66804">
        <ele>1444.8000488281</ele>
        <time>2020-01-15T07:44:07.000Z</time>
      </trkpt>
      <trkpt lat="45.59723" lon="6.66806">
        <ele>1445.1999511719</ele>
        <time>2020-01-15T07:44:11.000Z</time>
      </trkpt>
      <trkpt lat="45.5973" lon="6.66801">
        <ele>1445.5999755859</ele>
        <time>2020-01-15T07:44:16.000Z</time>
      </trkpt>
      <trkpt lat="45.59731" lon="6.66802">
        <ele>1446.1999511719</ele>
        <time>2020-01-15T07:44:20.000Z</time>
      </trkpt>
      <trkpt lat="45.59738" lon="6.6683">
        <ele>1446.5999755859</ele>
        <time>2020-01-15T07:44:25.000Z</time>
      </trkpt>
      <trkpt lat="45.59739" lon="6.66832">
        <ele>1446.8000488281</ele>
        <time>2020-01-15T07:44:26.000Z</time>
      </trkpt>
      <trkpt lat="45.59741" lon="6.66843">
        <ele>1447.4000244141</ele>
        <time>2020-01-15T07:44:32.000Z</time>
      </trkpt>
      <trkpt lat="45.5974" lon="6.66848">
        <ele>1447.5999755859</ele>
        <time>2020-01-15T07:44:35.000Z</time>
      </trkpt>
      <trkpt lat="45.59738" lon="6.66856">
        <ele>1448.1999511719</ele>
        <time>2020-01-15T07:44:39.000Z</time>
      </trkpt>
      <trkpt lat="45.59738" lon="6.66858">
        <ele>1448.4000244141</ele>
        <time>2020-01-15T07:44:40.000Z</time>
      </trkpt>
      <trkpt lat="45.59737" lon="6.66863">
        <ele>1448.8000488281</ele>
        <time>2020-01-15T07:44:44.000Z</time>
      </trkpt>
      <trkpt lat="45.59735" lon="6.66873">
        <ele>1449.1999511719</ele>
        <time>2020-01-15T07:44:50.000Z</time>
      </trkpt>
      <trkpt lat="45.59733" lon="6.66878">
        <ele>1449.8000488281</ele>
        <time>2020-01-15T07:44:54.000Z</time>
      </trkpt>
      <trkpt lat="45.59733" lon="6.6688">
        <ele>1450</ele>
        <time>2020-01-15T07:44:55.000Z</time>
      </trkpt>
      <trkpt lat="45.59733" lon="6.66889">
        <ele>1450.4000244141</ele>
        <time>2020-01-15T07:45:01.000Z</time>
      </trkpt>
      <trkpt lat="45.59732" lon="6.66891">
        <ele>1450.5999755859</ele>
        <time>2020-01-15T07:45:02.000Z</time>
      </trkpt>
      <trkpt lat="45.59733" lon="6.66891">
        <ele>1450.8000488281</ele>
        <time>2020-01-15T07:45:03.000Z</time>
      </trkpt>
      <trkpt lat="45.59733" lon="6.66894">
        <ele>1451</ele>
        <time>2020-01-15T07:45:05.000Z</time>
      </trkpt>
      <trkpt lat="45.59733" lon="6.66904">
        <ele>1451.5999755859</ele>
        <time>2020-01-15T07:45:11.000Z</time>
      </trkpt>
      <trkpt lat="45.59732" lon="6.66907">
        <ele>1452</ele>
        <time>2020-01-15T07:45:13.000Z</time>
      </trkpt>
      <trkpt lat="45.59732" lon="6.66912">
        <ele>1452.4000244141</ele>
        <time>2020-01-15T07:45:17.000Z</time>
      </trkpt>
      <trkpt lat="45.59733" lon="6.66919">
        <ele>1453</ele>
        <time>2020-01-15T07:45:22.000Z</time>
      </trkpt>
      <trkpt lat="45.59733" lon="6.66921">
        <ele>1453.4000244141</ele>
        <time>2020-01-15T07:45:24.000Z</time>
      </trkpt>
      <trkpt lat="45.59735" lon="6.66929">
        <ele>1453.5999755859</ele>
        <time>2020-01-15T07:45:29.000Z</time>
      </trkpt>
      <trkpt lat="45.59736" lon="6.66934">
        <ele>1454.1999511719</ele>
        <time>2020-01-15T07:45:33.000Z</time>
      </trkpt>
      <trkpt lat="45.59737" lon="6.66936">
        <ele>1454.1999511719</ele>
        <time>2020-01-15T07:45:34.000Z</time>
      </trkpt>
      <trkpt lat="45.59739" lon="6.6694">
        <ele>1454.4000244141</ele>
        <time>2020-01-15T07:45:37.000Z</time>
      </trkpt>
      <trkpt lat="45.59741" lon="6.66942">
        <ele>1454.8000488281</ele>
        <time>2020-01-15T07:45:39.000Z</time>
      </trkpt>
      <trkpt lat="45.59742" lon="6.66946">
        <ele>1455.1999511719</ele>
        <time>2020-01-15T07:45:42.000Z</time>
      </trkpt>
      <trkpt lat="45.59746" lon="6.66949">
        <ele>1455.4000244141</ele>
        <time>2020-01-15T07:45:46.000Z</time>
      </trkpt>
      <trkpt lat="45.59747" lon="6.66949">
        <ele>1455.5999755859</ele>
        <time>2020-01-15T07:45:47.000Z</time>
      </trkpt>
      <trkpt lat="45.5975" lon="6.66951">
        <ele>1456</ele>
        <time>2020-01-15T07:45:51.000Z</time>
      </trkpt>
      <trkpt lat="45.59755" lon="6.6695">
        <ele>1456.4000244141</ele>
        <time>2020-01-15T07:45:56.000Z</time>
      </trkpt>
      <trkpt lat="45.59762" lon="6.6695">
        <ele>1457</ele>
        <time>2020-01-15T07:46:02.000Z</time>
      </trkpt>
      <trkpt lat="45.59766" lon="6.6695">
        <ele>1457.4000244141</ele>
        <time>2020-01-15T07:46:06.000Z</time>
      </trkpt>
      <trkpt lat="45.59768" lon="6.6695">
        <ele>1457.5999755859</ele>
        <time>2020-01-15T07:46:08.000Z</time>
      </trkpt>
      <trkpt lat="45.59772" lon="6.66951">
        <ele>1458.1999511719</ele>
        <time>2020-01-15T07:46:13.000Z</time>
      </trkpt>
      <trkpt lat="45.59778" lon="6.66951">
        <ele>1458.4000244141</ele>
        <time>2020-01-15T07:46:19.000Z</time>
      </trkpt>
      <trkpt lat="45.5978" lon="6.66951">
        <ele>1458.8000488281</ele>
        <time>2020-01-15T07:46:21.000Z</time>
      </trkpt>
      <trkpt lat="45.59786" lon="6.6695">
        <ele>1459.4000244141</ele>
        <time>2020-01-15T07:46:27.000Z</time>
      </trkpt>
      <trkpt lat="45.59786" lon="6.6695">
        <ele>1459.5999755859</ele>
        <time>2020-01-15T07:46:28.000Z</time>
      </trkpt>
      <trkpt lat="45.59792" lon="6.66949">
        <ele>1460.1999511719</ele>
        <time>2020-01-15T07:46:33.000Z</time>
      </trkpt>
      <trkpt lat="45.59797" lon="6.66948">
        <ele>1460.5999755859</ele>
        <time>2020-01-15T07:46:39.000Z</time>
      </trkpt>
      <trkpt lat="45.59804" lon="6.66947">
        <ele>1461.4000244141</ele>
        <time>2020-01-15T07:46:45.000Z</time>
      </trkpt>
      <trkpt lat="45.59807" lon="6.66946">
        <ele>1461.5999755859</ele>
        <time>2020-01-15T07:46:48.000Z</time>
      </trkpt>
      <trkpt lat="45.59811" lon="6.66944">
        <ele>1461.8000488281</ele>
        <time>2020-01-15T07:46:52.000Z</time>
      </trkpt>
      <trkpt lat="45.59818" lon="6.66943">
        <ele>1462.8000488281</ele>
        <time>2020-01-15T07:46:58.000Z</time>
      </trkpt>
      <trkpt lat="45.59824" lon="6.66943">
        <ele>1463</ele>
        <time>2020-01-15T07:47:04.000Z</time>
      </trkpt>
      <trkpt lat="45.59829" lon="6.66943">
        <ele>1463.8000488281</ele>
        <time>2020-01-15T07:47:10.000Z</time>
      </trkpt>
      <trkpt lat="45.5983" lon="6.66943">
        <ele>1463.8000488281</ele>
        <time>2020-01-15T07:47:11.000Z</time>
      </trkpt>
      <trkpt lat="45.59835" lon="6.66943">
        <ele>1464.4000244141</ele>
        <time>2020-01-15T07:47:17.000Z</time>
      </trkpt>
      <trkpt lat="45.59838" lon="6.66943">
        <ele>1464.5999755859</ele>
        <time>2020-01-15T07:47:20.000Z</time>
      </trkpt>
      <trkpt lat="45.59841" lon="6.66944">
        <ele>1464.8000488281</ele>
        <time>2020-01-15T07:47:22.000Z</time>
      </trkpt>
      <trkpt lat="45.59844" lon="6.66943">
        <ele>1465.4000244141</ele>
        <time>2020-01-15T07:47:25.000Z</time>
      </trkpt>
      <trkpt lat="45.59849" lon="6.66943">
        <ele>1466</ele>
        <time>2020-01-15T07:47:30.000Z</time>
      </trkpt>
      <trkpt lat="45.59851" lon="6.66942">
        <ele>1466</ele>
        <time>2020-01-15T07:47:32.000Z</time>
      </trkpt>
      <trkpt lat="45.59857" lon="6.66944">
        <ele>1466.8000488281</ele>
        <time>2020-01-15T07:47:38.000Z</time>
      </trkpt>
      <trkpt lat="45.59858" lon="6.66944">
        <ele>1467</ele>
        <time>2020-01-15T07:47:40.000Z</time>
      </trkpt>
      <trkpt lat="45.59862" lon="6.66945">
        <ele>1467.4000244141</ele>
        <time>2020-01-15T07:47:43.000Z</time>
      </trkpt>
      <trkpt lat="45.59864" lon="6.66945">
        <ele>1467.4000244141</ele>
        <time>2020-01-15T07:47:44.000Z</time>
      </trkpt>
      <trkpt lat="45.59869" lon="6.66948">
        <ele>1468.1999511719</ele>
        <time>2020-01-15T07:47:49.000Z</time>
      </trkpt>
      <trkpt lat="45.5987" lon="6.66948">
        <ele>1468.1999511719</ele>
        <time>2020-01-15T07:47:50.000Z</time>
      </trkpt>
      <trkpt lat="45.59876" lon="6.66953">
        <ele>1468.5999755859</ele>
        <time>2020-01-15T07:47:56.000Z</time>
      </trkpt>
      <trkpt lat="45.5988" lon="6.66955">
        <ele>1469.1999511719</ele>
        <time>2020-01-15T07:48:01.000Z</time>
      </trkpt>
      <trkpt lat="45.59883" lon="6.66961">
        <ele>1469.8000488281</ele>
        <time>2020-01-15T07:48:06.000Z</time>
      </trkpt>
      <trkpt lat="45.59886" lon="6.66966">
        <ele>1470.1999511719</ele>
        <time>2020-01-15T07:48:10.000Z</time>
      </trkpt>
      <trkpt lat="45.59887" lon="6.66967">
        <ele>1470.4000244141</ele>
        <time>2020-01-15T07:48:12.000Z</time>
      </trkpt>
      <trkpt lat="45.5989" lon="6.66975">
        <ele>1471.1999511719</ele>
        <time>2020-01-15T07:48:19.000Z</time>
      </trkpt>
      <trkpt lat="45.5989" lon="6.66975">
        <ele>1471.4000244141</ele>
        <time>2020-01-15T07:48:20.000Z</time>
      </trkpt>
      <trkpt lat="45.59894" lon="6.66979">
        <ele>1471.8000488281</ele>
        <time>2020-01-15T07:48:26.000Z</time>
      </trkpt>
      <trkpt lat="45.59895" lon="6.66981">
        <ele>1472.1999511719</ele>
        <time>2020-01-15T07:48:30.000Z</time>
      </trkpt>
      <trkpt lat="45.59895" lon="6.66981">
        <ele>1472.4000244141</ele>
        <time>2020-01-15T07:48:33.000Z</time>
      </trkpt>
      <trkpt lat="45.59898" lon="6.66985">
        <ele>1473.4000244141</ele>
        <time>2020-01-15T07:48:40.000Z</time>
      </trkpt>
      <trkpt lat="45.59898" lon="6.66985">
        <ele>1473.4000244141</ele>
        <time>2020-01-15T07:48:41.000Z</time>
      </trkpt>
      <trkpt lat="45.59903" lon="6.66995">
        <ele>1474.1999511719</ele>
        <time>2020-01-15T07:48:48.000Z</time>
      </trkpt>
      <trkpt lat="45.59904" lon="6.66996">
        <ele>1474.4000244141</ele>
        <time>2020-01-15T07:48:49.000Z</time>
      </trkpt>
      <trkpt lat="45.59909" lon="6.66999">
        <ele>1475</ele>
        <time>2020-01-15T07:48:55.000Z</time>
      </trkpt>
      <trkpt lat="45.59914" lon="6.67002">
        <ele>1475.4000244141</ele>
        <time>2020-01-15T07:49:00.000Z</time>
      </trkpt>
      <trkpt lat="45.59922" lon="6.67005">
        <ele>1476.1999511719</ele>
        <time>2020-01-15T07:49:08.000Z</time>
      </trkpt>
      <trkpt lat="45.59924" lon="6.67006">
        <ele>1476.5999755859</ele>
        <time>2020-01-15T07:49:10.000Z</time>
      </trkpt>
      <trkpt lat="45.59929" lon="6.67009">
        <ele>1477</ele>
        <time>2020-01-15T07:49:14.000Z</time>
      </trkpt>
      <trkpt lat="45.59936" lon="6.6701">
        <ele>1477.8000488281</ele>
        <time>2020-01-15T07:49:18.000Z</time>
      </trkpt>
      <trkpt lat="45.59937" lon="6.6701">
        <ele>1477.8000488281</ele>
        <time>2020-01-15T07:49:19.000Z</time>
      </trkpt>
      <trkpt lat="45.59945" lon="6.6701">
        <ele>1478.1999511719</ele>
        <time>2020-01-15T07:49:25.000Z</time>
      </trkpt>
      <trkpt lat="45.59951" lon="6.67009">
        <ele>1478.8000488281</ele>
        <time>2020-01-15T07:49:30.000Z</time>
      </trkpt>
      <trkpt lat="45.59952" lon="6.6701">
        <ele>1479</ele>
        <time>2020-01-15T07:49:32.000Z</time>
      </trkpt>
      <trkpt lat="45.59958" lon="6.67012">
        <ele>1479.5999755859</ele>
        <time>2020-01-15T07:49:37.000Z</time>
      </trkpt>
      <trkpt lat="45.59959" lon="6.67013">
        <ele>1479.8000488281</ele>
        <time>2020-01-15T07:49:38.000Z</time>
      </trkpt>
      <trkpt lat="45.59962" lon="6.67012">
        <ele>1480.4000244141</ele>
        <time>2020-01-15T07:49:44.000Z</time>
      </trkpt>
      <trkpt lat="45.59966" lon="6.67013">
        <ele>1480.8000488281</ele>
        <time>2020-01-15T07:49:48.000Z</time>
      </trkpt>
      <trkpt lat="45.5997" lon="6.67014">
        <ele>1481</ele>
        <time>2020-01-15T07:49:51.000Z</time>
      </trkpt>
      <trkpt lat="45.59975" lon="6.67014">
        <ele>1481.5999755859</ele>
        <time>2020-01-15T07:49:57.000Z</time>
      </trkpt>
      <trkpt lat="45.59977" lon="6.67015">
        <ele>1482</ele>
        <time>2020-01-15T07:49:59.000Z</time>
      </trkpt>
      <trkpt lat="45.59983" lon="6.67017">
        <ele>1482.4000244141</ele>
        <time>2020-01-15T07:50:05.000Z</time>
      </trkpt>
      <trkpt lat="45.59987" lon="6.67018">
        <ele>1483</ele>
        <time>2020-01-15T07:50:08.000Z</time>
      </trkpt>
      <trkpt lat="45.5999" lon="6.6702">
        <ele>1483.1999511719</ele>
        <time>2020-01-15T07:50:11.000Z</time>
      </trkpt>
      <trkpt lat="45.59998" lon="6.6702">
        <ele>1484</ele>
        <time>2020-01-15T07:50:17.000Z</time>
      </trkpt>
      <trkpt lat="45.59999" lon="6.6702">
        <ele>1484.1999511719</ele>
        <time>2020-01-15T07:50:18.000Z</time>
      </trkpt>
      <trkpt lat="45.60005" lon="6.67022">
        <ele>1484.8000488281</ele>
        <time>2020-01-15T07:50:23.000Z</time>
      </trkpt>
      <trkpt lat="45.60011" lon="6.67025">
        <ele>1485.1999511719</ele>
        <time>2020-01-15T07:50:28.000Z</time>
      </trkpt>
      <trkpt lat="45.60012" lon="6.67025">
        <ele>1485.4000244141</ele>
        <time>2020-01-15T07:50:29.000Z</time>
      </trkpt>
      <trkpt lat="45.6002" lon="6.67033">
        <ele>1486.1999511719</ele>
        <time>2020-01-15T07:50:36.000Z</time>
      </trkpt>
      <trkpt lat="45.60026" lon="6.67039">
        <ele>1487</ele>
        <time>2020-01-15T07:50:42.000Z</time>
      </trkpt>
      <trkpt lat="45.6003" lon="6.67043">
        <ele>1487.1999511719</ele>
        <time>2020-01-15T07:50:45.000Z</time>
      </trkpt>
      <trkpt lat="45.60032" lon="6.67047">
        <ele>1487.5999755859</ele>
        <time>2020-01-15T07:50:48.000Z</time>
      </trkpt>
      <trkpt lat="45.60035" lon="6.67054">
        <ele>1487.8000488281</ele>
        <time>2020-01-15T07:50:53.000Z</time>
      </trkpt>
      <trkpt lat="45.60038" lon="6.67059">
        <ele>1488.4000244141</ele>
        <time>2020-01-15T07:50:56.000Z</time>
      </trkpt>
      <trkpt lat="45.60039" lon="6.67062">
        <ele>1488.5999755859</ele>
        <time>2020-01-15T07:50:58.000Z</time>
      </trkpt>
      <trkpt lat="45.60043" lon="6.67072">
        <ele>1489.4000244141</ele>
        <time>2020-01-15T07:51:04.000Z</time>
      </trkpt>
      <trkpt lat="45.60045" lon="6.67076">
        <ele>1489.4000244141</ele>
        <time>2020-01-15T07:51:06.000Z</time>
      </trkpt>
      <trkpt lat="45.60049" lon="6.67081">
        <ele>1489.8000488281</ele>
        <time>2020-01-15T07:51:10.000Z</time>
      </trkpt>
      <trkpt lat="45.60052" lon="6.67089">
        <ele>1490.4000244141</ele>
        <time>2020-01-15T07:51:16.000Z</time>
      </trkpt>
      <trkpt lat="45.60052" lon="6.67093">
        <ele>1490.8000488281</ele>
        <time>2020-01-15T07:51:18.000Z</time>
      </trkpt>
      <trkpt lat="45.60052" lon="6.67096">
        <ele>1491.1999511719</ele>
        <time>2020-01-15T07:51:20.000Z</time>
      </trkpt>
      <trkpt lat="45.60053" lon="6.67102">
        <ele>1491.4000244141</ele>
        <time>2020-01-15T07:51:24.000Z</time>
      </trkpt>
      <trkpt lat="45.60055" lon="6.67105">
        <ele>1491.8000488281</ele>
        <time>2020-01-15T07:51:27.000Z</time>
      </trkpt>
      <trkpt lat="45.60058" lon="6.67114">
        <ele>1492.5999755859</ele>
        <time>2020-01-15T07:51:33.000Z</time>
      </trkpt>
      <trkpt lat="45.60058" lon="6.67114">
        <ele>1492.8000488281</ele>
        <time>2020-01-15T07:51:34.000Z</time>
      </trkpt>
      <trkpt lat="45.60061" lon="6.6712">
        <ele>1493.1999511719</ele>
        <time>2020-01-15T07:51:40.000Z</time>
      </trkpt>
      <trkpt lat="45.60063" lon="6.67123">
        <ele>1493.8000488281</ele>
        <time>2020-01-15T07:51:42.000Z</time>
      </trkpt>
      <trkpt lat="45.60064" lon="6.67126">
        <ele>1494</ele>
        <time>2020-01-15T07:51:44.000Z</time>
      </trkpt>
      <trkpt lat="45.60064" lon="6.67127">
        <ele>1494</ele>
        <time>2020-01-15T07:51:45.000Z</time>
      </trkpt>
      <trkpt lat="45.60066" lon="6.67134">
        <ele>1494.4000244141</ele>
        <time>2020-01-15T07:51:50.000Z</time>
      </trkpt>
      <trkpt lat="45.60068" lon="6.67135">
        <ele>1494.8000488281</ele>
        <time>2020-01-15T07:51:53.000Z</time>
      </trkpt>
      <trkpt lat="45.60068" lon="6.67136">
        <ele>1494.8000488281</ele>
        <time>2020-01-15T07:51:54.000Z</time>
      </trkpt>
      <trkpt lat="45.6007" lon="6.67135">
        <ele>1495</ele>
        <time>2020-01-15T07:51:58.000Z</time>
      </trkpt>
      <trkpt lat="45.60072" lon="6.6713">
        <ele>1495.5999755859</ele>
        <time>2020-01-15T07:52:03.000Z</time>
      </trkpt>
      <trkpt lat="45.60072" lon="6.67131">
        <ele>1496</ele>
        <time>2020-01-15T07:52:04.000Z</time>
      </trkpt>
      <trkpt lat="45.60074" lon="6.67126">
        <ele>1497</ele>
        <time>2020-01-15T07:52:08.000Z</time>
      </trkpt>
      <trkpt lat="45.60076" lon="6.67126">
        <ele>1497.8000488281</ele>
        <time>2020-01-15T07:52:13.000Z</time>
      </trkpt>
      <trkpt lat="45.60076" lon="6.67125">
        <ele>1498</ele>
        <time>2020-01-15T07:52:15.000Z</time>
      </trkpt>
      <trkpt lat="45.60077" lon="6.67125">
        <ele>1498.8000488281</ele>
        <time>2020-01-15T07:52:19.000Z</time>
      </trkpt>
      <trkpt lat="45.60079" lon="6.67125">
        <ele>1499</ele>
        <time>2020-01-15T07:52:20.000Z</time>
      </trkpt>
      <trkpt lat="45.6008" lon="6.67125">
        <ele>1499</ele>
        <time>2020-01-15T07:52:22.000Z</time>
      </trkpt>
      <trkpt lat="45.6008" lon="6.67126">
        <ele>1499.1999511719</ele>
        <time>2020-01-15T07:52:23.000Z</time>
      </trkpt>
      <trkpt lat="45.60083" lon="6.67125">
        <ele>1499.5999755859</ele>
        <time>2020-01-15T07:52:27.000Z</time>
      </trkpt>
      <trkpt lat="45.60084" lon="6.67124">
        <ele>1500.4000244141</ele>
        <time>2020-01-15T07:52:30.000Z</time>
      </trkpt>
      <trkpt lat="45.60085" lon="6.67123">
        <ele>1501.8000488281</ele>
        <time>2020-01-15T07:52:34.000Z</time>
      </trkpt>
      <trkpt lat="45.60085" lon="6.67123">
        <ele>1502</ele>
        <time>2020-01-15T07:52:35.000Z</time>
      </trkpt>
      <trkpt lat="45.60085" lon="6.67123">
        <ele>1502.8000488281</ele>
        <time>2020-01-15T07:52:40.000Z</time>
      </trkpt>
      <trkpt lat="45.60085" lon="6.67123">
        <ele>1503.1999511719</ele>
        <time>2020-01-15T07:52:43.000Z</time>
      </trkpt>
      <trkpt lat="45.60088" lon="6.67122">
        <ele>1503.8000488281</ele>
        <time>2020-01-15T07:52:46.000Z</time>
      </trkpt>
      <trkpt lat="45.60088" lon="6.67122">
        <ele>1504.1999511719</ele>
        <time>2020-01-15T07:52:49.000Z</time>
      </trkpt>
      <trkpt lat="45.60089" lon="6.67122">
        <ele>1505</ele>
        <time>2020-01-15T07:52:52.000Z</time>
      </trkpt>
      <trkpt lat="45.60089" lon="6.67122">
        <ele>1505.5999755859</ele>
        <time>2020-01-15T07:52:55.000Z</time>
      </trkpt>
      <trkpt lat="45.60089" lon="6.67123">
        <ele>1505.8000488281</ele>
        <time>2020-01-15T07:52:58.000Z</time>
      </trkpt>
      <trkpt lat="45.60091" lon="6.67124">
        <ele>1505.8000488281</ele>
        <time>2020-01-15T07:53:00.000Z</time>
      </trkpt>
      <trkpt lat="45.60096" lon="6.67128">
        <ele>1506</ele>
        <time>2020-01-15T07:53:04.000Z</time>
      </trkpt>
      <trkpt lat="45.60096" lon="6.67127">
        <ele>1506</ele>
        <time>2020-01-15T07:53:05.000Z</time>
      </trkpt>
      <trkpt lat="45.60098" lon="6.67128">
        <ele>1506.1999511719</ele>
        <time>2020-01-15T07:53:06.000Z</time>
      </trkpt>
      <trkpt lat="45.60101" lon="6.67129">
        <ele>1506.8000488281</ele>
        <time>2020-01-15T07:53:09.000Z</time>
      </trkpt>
      <trkpt lat="45.60104" lon="6.6713">
        <ele>1507.1999511719</ele>
        <time>2020-01-15T07:53:11.000Z</time>
      </trkpt>
      <trkpt lat="45.60106" lon="6.67132">
        <ele>1508</ele>
        <time>2020-01-15T07:53:14.000Z</time>
      </trkpt>
      <trkpt lat="45.60108" lon="6.67133">
        <ele>1508.4000244141</ele>
        <time>2020-01-15T07:53:17.000Z</time>
      </trkpt>
      <trkpt lat="45.60108" lon="6.67133">
        <ele>1509</ele>
        <time>2020-01-15T07:53:18.000Z</time>
      </trkpt>
      <trkpt lat="45.60108" lon="6.67133">
        <ele>1509.5999755859</ele>
        <time>2020-01-15T07:53:21.000Z</time>
      </trkpt>
      <trkpt lat="45.60108" lon="6.67133">
        <ele>1510</ele>
        <time>2020-01-15T07:53:30.000Z</time>
      </trkpt>
      <trkpt lat="45.60108" lon="6.67133">
        <ele>1510.1999511719</ele>
        <time>2020-01-15T07:53:45.000Z</time>
      </trkpt>
      <trkpt lat="45.60109" lon="6.67134">
        <ele>1510.1999511719</ele>
        <time>2020-01-15T07:53:59.000Z</time>
      </trkpt>
      <trkpt lat="45.60109" lon="6.67134">
        <ele>1510.1999511719</ele>
        <time>2020-01-15T07:54:18.000Z</time>
      </trkpt>
      <trkpt lat="45.6011" lon="6.67134">
        <ele>1510.1999511719</ele>
        <time>2020-01-15T07:54:25.000Z</time>
      </trkpt>
      <trkpt lat="45.60113" lon="6.67134">
        <ele>1510.8000488281</ele>
        <time>2020-01-15T07:54:30.000Z</time>
      </trkpt>
      <trkpt lat="45.60113" lon="6.67134">
        <ele>1509.8000488281</ele>
        <time>2020-01-15T07:54:38.000Z</time>
      </trkpt>
      <trkpt lat="45.60113" lon="6.67134">
        <ele>1510.8000488281</ele>
        <time>2020-01-15T07:54:41.000Z</time>
      </trkpt>
      <trkpt lat="45.60113" lon="6.67134">
        <ele>1511.8000488281</ele>
        <time>2020-01-15T07:54:51.000Z</time>
      </trkpt>
      <trkpt lat="45.60113" lon="6.67134">
        <ele>1511.8000488281</ele>
        <time>2020-01-15T07:54:55.000Z</time>
      </trkpt>
      <trkpt lat="45.60114" lon="6.67133">
        <ele>1511.4000244141</ele>
        <time>2020-01-15T07:55:12.000Z</time>
      </trkpt>
      <trkpt lat="45.60114" lon="6.67133">
        <ele>1511.4000244141</ele>
        <time>2020-01-15T07:55:27.000Z</time>
      </trkpt>
      <trkpt lat="45.60114" lon="6.67133">
        <ele>1511.4000244141</ele>
        <time>2020-01-15T07:55:37.000Z</time>
      </trkpt>
      <trkpt lat="45.60114" lon="6.67133">
        <ele>1511.4000244141</ele>
        <time>2020-01-15T07:55:47.000Z</time>
      </trkpt>
      <trkpt lat="45.60114" lon="6.67132">
        <ele>1511.5999755859</ele>
        <time>2020-01-15T07:56:00.000Z</time>
      </trkpt>
      <trkpt lat="45.60114" lon="6.67132">
        <ele>1511.1999511719</ele>
        <time>2020-01-15T07:56:14.000Z</time>
      </trkpt>
      <trkpt lat="45.60114" lon="6.67132">
        <ele>1511.4000244141</ele>
        <time>2020-01-15T07:56:24.000Z</time>
      </trkpt>
      <trkpt lat="45.60117" lon="6.67132">
        <ele>1511.4000244141</ele>
        <time>2020-01-15T07:56:43.000Z</time>
      </trkpt>
      <trkpt lat="45.60117" lon="6.67132">
        <ele>1511.1999511719</ele>
        <time>2020-01-15T07:57:00.000Z</time>
      </trkpt>
      <trkpt lat="45.60119" lon="6.67133">
        <ele>1511.1999511719</ele>
        <time>2020-01-15T07:57:22.000Z</time>
      </trkpt>
      <trkpt lat="45.60119" lon="6.67133">
        <ele>1511.1999511719</ele>
        <time>2020-01-15T07:57:31.000Z</time>
      </trkpt>
      <trkpt lat="45.60119" lon="6.67133">
        <ele>1511.1999511719</ele>
        <time>2020-01-15T07:57:44.000Z</time>
      </trkpt>
      <trkpt lat="45.60123" lon="6.67131">
        <ele>1511.1999511719</ele>
        <time>2020-01-15T07:57:50.000Z</time>
      </trkpt>
      <trkpt lat="45.60128" lon="6.67125">
        <ele>1511.5999755859</ele>
        <time>2020-01-15T07:57:55.000Z</time>
      </trkpt>
      <trkpt lat="45.60131" lon="6.67123">
        <ele>1512.1999511719</ele>
        <time>2020-01-15T07:57:59.000Z</time>
      </trkpt>
      <trkpt lat="45.60135" lon="6.67121">
        <ele>1513</ele>
        <time>2020-01-15T07:58:03.000Z</time>
      </trkpt>
      <trkpt lat="45.6014" lon="6.67119">
        <ele>1514</ele>
        <time>2020-01-15T07:58:10.000Z</time>
      </trkpt>
      <trkpt lat="45.60141" lon="6.67119">
        <ele>1514.1999511719</ele>
        <time>2020-01-15T07:58:11.000Z</time>
      </trkpt>
      <trkpt lat="45.60145" lon="6.67119">
        <ele>1515.1999511719</ele>
        <time>2020-01-15T07:58:16.000Z</time>
      </trkpt>
      <trkpt lat="45.60145" lon="6.6712">
        <ele>1515.1999511719</ele>
        <time>2020-01-15T07:58:17.000Z</time>
      </trkpt>
      <trkpt lat="45.60149" lon="6.67119">
        <ele>1516.1999511719</ele>
        <time>2020-01-15T07:58:22.000Z</time>
      </trkpt>
      <trkpt lat="45.6015" lon="6.67117">
        <ele>1516.4000244141</ele>
        <time>2020-01-15T07:58:23.000Z</time>
      </trkpt>
      <trkpt lat="45.60154" lon="6.67114">
        <ele>1517.4000244141</ele>
        <time>2020-01-15T07:58:28.000Z</time>
      </trkpt>
      <trkpt lat="45.60157" lon="6.67112">
        <ele>1518.1999511719</ele>
        <time>2020-01-15T07:58:33.000Z</time>
      </trkpt>
      <trkpt lat="45.60158" lon="6.67111">
        <ele>1518.5999755859</ele>
        <time>2020-01-15T07:58:35.000Z</time>
      </trkpt>
      <trkpt lat="45.6016" lon="6.67108">
        <ele>1519.1999511719</ele>
        <time>2020-01-15T07:58:38.000Z</time>
      </trkpt>
      <trkpt lat="45.60161" lon="6.67108">
        <ele>1519.5999755859</ele>
        <time>2020-01-15T07:58:41.000Z</time>
      </trkpt>
      <trkpt lat="45.60163" lon="6.67108">
        <ele>1520</ele>
        <time>2020-01-15T07:58:43.000Z</time>
      </trkpt>
      <trkpt lat="45.60165" lon="6.67108">
        <ele>1520.5999755859</ele>
        <time>2020-01-15T07:58:47.000Z</time>
      </trkpt>
      <trkpt lat="45.60169" lon="6.67106">
        <ele>1521.5999755859</ele>
        <time>2020-01-15T07:58:51.000Z</time>
      </trkpt>
      <trkpt lat="45.60169" lon="6.67107">
        <ele>1521.8000488281</ele>
        <time>2020-01-15T07:58:52.000Z</time>
      </trkpt>
      <trkpt lat="45.60173" lon="6.67109">
        <ele>1522.8000488281</ele>
        <time>2020-01-15T07:58:56.000Z</time>
      </trkpt>
      <trkpt lat="45.60175" lon="6.67112">
        <ele>1523.5999755859</ele>
        <time>2020-01-15T07:59:00.000Z</time>
      </trkpt>
      <trkpt lat="45.60176" lon="6.67115">
        <ele>1524</ele>
        <time>2020-01-15T07:59:03.000Z</time>
      </trkpt>
      <trkpt lat="45.60176" lon="6.67117">
        <ele>1524.1999511719</ele>
        <time>2020-01-15T07:59:05.000Z</time>
      </trkpt>
      <trkpt lat="45.60177" lon="6.67121">
        <ele>1524.4000244141</ele>
        <time>2020-01-15T07:59:08.000Z</time>
      </trkpt>
      <trkpt lat="45.60178" lon="6.67123">
        <ele>1524.5999755859</ele>
        <time>2020-01-15T07:59:09.000Z</time>
      </trkpt>
      <trkpt lat="45.60179" lon="6.67129">
        <ele>1524.8000488281</ele>
        <time>2020-01-15T07:59:14.000Z</time>
      </trkpt>
      <trkpt lat="45.60181" lon="6.67133">
        <ele>1525</ele>
        <time>2020-01-15T07:59:17.000Z</time>
      </trkpt>
      <trkpt lat="45.60181" lon="6.67135">
        <ele>1525.4000244141</ele>
        <time>2020-01-15T07:59:19.000Z</time>
      </trkpt>
      <trkpt lat="45.60185" lon="6.67138">
        <ele>1525.8000488281</ele>
        <time>2020-01-15T07:59:23.000Z</time>
      </trkpt>
      <trkpt lat="45.60186" lon="6.67137">
        <ele>1526</ele>
        <time>2020-01-15T07:59:25.000Z</time>
      </trkpt>
      <trkpt lat="45.60187" lon="6.67136">
        <ele>1526.1999511719</ele>
        <time>2020-01-15T07:59:27.000Z</time>
      </trkpt>
      <trkpt lat="45.60193" lon="6.6713">
        <ele>1527</ele>
        <time>2020-01-15T07:59:32.000Z</time>
      </trkpt>
      <trkpt lat="45.60194" lon="6.67128">
        <ele>1527.1999511719</ele>
        <time>2020-01-15T07:59:33.000Z</time>
      </trkpt>
      <trkpt lat="45.60195" lon="6.67127">
        <ele>1527.5999755859</ele>
        <time>2020-01-15T07:59:35.000Z</time>
      </trkpt>
      <trkpt lat="45.60196" lon="6.67126">
        <ele>1527.8000488281</ele>
        <time>2020-01-15T07:59:36.000Z</time>
      </trkpt>
      <trkpt lat="45.60199" lon="6.67124">
        <ele>1528.4000244141</ele>
        <time>2020-01-15T07:59:41.000Z</time>
      </trkpt>
      <trkpt lat="45.60199" lon="6.67124">
        <ele>1528.5999755859</ele>
        <time>2020-01-15T07:59:42.000Z</time>
      </trkpt>
      <trkpt lat="45.60201" lon="6.67127">
        <ele>1529.5999755859</ele>
        <time>2020-01-15T07:59:45.000Z</time>
      </trkpt>
      <trkpt lat="45.60202" lon="6.67128">
        <ele>1529.8000488281</ele>
        <time>2020-01-15T07:59:46.000Z</time>
      </trkpt>
      <trkpt lat="45.60203" lon="6.6713">
        <ele>1530.1999511719</ele>
        <time>2020-01-15T07:59:48.000Z</time>
      </trkpt>
      <trkpt lat="45.60203" lon="6.67131">
        <ele>1530.5999755859</ele>
        <time>2020-01-15T07:59:49.000Z</time>
      </trkpt>
      <trkpt lat="45.60207" lon="6.67132">
        <ele>1531.4000244141</ele>
        <time>2020-01-15T07:59:54.000Z</time>
      </trkpt>
      <trkpt lat="45.60207" lon="6.67132">
        <ele>1531.5999755859</ele>
        <time>2020-01-15T07:59:55.000Z</time>
      </trkpt>
      <trkpt lat="45.6021" lon="6.67134">
        <ele>1532.5999755859</ele>
        <time>2020-01-15T07:59:59.000Z</time>
      </trkpt>
      <trkpt lat="45.6021" lon="6.67134">
        <ele>1532.8000488281</ele>
        <time>2020-01-15T08:00:00.000Z</time>
      </trkpt>
      <trkpt lat="45.60214" lon="6.67132">
        <ele>1533.8000488281</ele>
        <time>2020-01-15T08:00:05.000Z</time>
      </trkpt>
      <trkpt lat="45.60215" lon="6.67132">
        <ele>1533.8000488281</ele>
        <time>2020-01-15T08:00:06.000Z</time>
      </trkpt>
      <trkpt lat="45.60218" lon="6.67131">
        <ele>1534.8000488281</ele>
        <time>2020-01-15T08:00:10.000Z</time>
      </trkpt>
      <trkpt lat="45.6022" lon="6.6713">
        <ele>1535</ele>
        <time>2020-01-15T08:00:11.000Z</time>
      </trkpt>
      <trkpt lat="45.60224" lon="6.67127">
        <ele>1535.8000488281</ele>
        <time>2020-01-15T08:00:16.000Z</time>
      </trkpt>
      <trkpt lat="45.60226" lon="6.67126">
        <ele>1536</ele>
        <time>2020-01-15T08:00:18.000Z</time>
      </trkpt>
      <trkpt lat="45.60227" lon="6.67125">
        <ele>1536.4000244141</ele>
        <time>2020-01-15T08:00:21.000Z</time>
      </trkpt>
      <trkpt lat="45.60229" lon="6.67122">
        <ele>1537.1999511719</ele>
        <time>2020-01-15T08:00:24.000Z</time>
      </trkpt>
      <trkpt lat="45.60231" lon="6.67121">
        <ele>1537.5999755859</ele>
        <time>2020-01-15T08:00:26.000Z</time>
      </trkpt>
      <trkpt lat="45.60232" lon="6.67119">
        <ele>1538.1999511719</ele>
        <time>2020-01-15T08:00:29.000Z</time>
      </trkpt>
      <trkpt lat="45.60235" lon="6.67118">
        <ele>1539</ele>
        <time>2020-01-15T08:00:32.000Z</time>
      </trkpt>
      <trkpt lat="45.60236" lon="6.67117">
        <ele>1539.1999511719</ele>
        <time>2020-01-15T08:00:34.000Z</time>
      </trkpt>
      <trkpt lat="45.60239" lon="6.6712">
        <ele>1540.4000244141</ele>
        <time>2020-01-15T08:00:39.000Z</time>
      </trkpt>
      <trkpt lat="45.60241" lon="6.67122">
        <ele>1541.1999511719</ele>
        <time>2020-01-15T08:00:42.000Z</time>
      </trkpt>
      <trkpt lat="45.60242" lon="6.67123">
        <ele>1541.8000488281</ele>
        <time>2020-01-15T08:00:44.000Z</time>
      </trkpt>
      <trkpt lat="45.60242" lon="6.67123">
        <ele>1542</ele>
        <time>2020-01-15T08:00:45.000Z</time>
      </trkpt>
      <trkpt lat="45.60245" lon="6.67124">
        <ele>1542.8000488281</ele>
        <time>2020-01-15T08:00:50.000Z</time>
      </trkpt>
      <trkpt lat="45.60247" lon="6.67124">
        <ele>1543</ele>
        <time>2020-01-15T08:00:51.000Z</time>
      </trkpt>
      <trkpt lat="45.60248" lon="6.67126">
        <ele>1544</ele>
        <time>2020-01-15T08:00:55.000Z</time>
      </trkpt>
      <trkpt lat="45.60252" lon="6.67128">
        <ele>1545</ele>
        <time>2020-01-15T08:01:00.000Z</time>
      </trkpt>
      <trkpt lat="45.60253" lon="6.67128">
        <ele>1545.1999511719</ele>
        <time>2020-01-15T08:01:01.000Z</time>
      </trkpt>
      <trkpt lat="45.60256" lon="6.6713">
        <ele>1545.8000488281</ele>
        <time>2020-01-15T08:01:05.000Z</time>
      </trkpt>
      <trkpt lat="45.60258" lon="6.67133">
        <ele>1546.4000244141</ele>
        <time>2020-01-15T08:01:08.000Z</time>
      </trkpt>
      <trkpt lat="45.60259" lon="6.67134">
        <ele>1546.8000488281</ele>
        <time>2020-01-15T08:01:11.000Z</time>
      </trkpt>
      <trkpt lat="45.60261" lon="6.67138">
        <ele>1547.1999511719</ele>
        <time>2020-01-15T08:01:14.000Z</time>
      </trkpt>
      <trkpt lat="45.60262" lon="6.67138">
        <ele>1547.4000244141</ele>
        <time>2020-01-15T08:01:15.000Z</time>
      </trkpt>
      <trkpt lat="45.60262" lon="6.67141">
        <ele>1548.1999511719</ele>
        <time>2020-01-15T08:01:20.000Z</time>
      </trkpt>
      <trkpt lat="45.60263" lon="6.67143">
        <ele>1548.4000244141</ele>
        <time>2020-01-15T08:01:21.000Z</time>
      </trkpt>
      <trkpt lat="45.60265" lon="6.67147">
        <ele>1549</ele>
        <time>2020-01-15T08:01:25.000Z</time>
      </trkpt>
      <trkpt lat="45.60267" lon="6.67151">
        <ele>1549.5999755859</ele>
        <time>2020-01-15T08:01:29.000Z</time>
      </trkpt>
      <trkpt lat="45.60268" lon="6.67152">
        <ele>1550</ele>
        <time>2020-01-15T08:01:30.000Z</time>
      </trkpt>
      <trkpt lat="45.60269" lon="6.67153">
        <ele>1550.8000488281</ele>
        <time>2020-01-15T08:01:32.000Z</time>
      </trkpt>
      <trkpt lat="45.6027" lon="6.67157">
        <ele>1551.4000244141</ele>
        <time>2020-01-15T08:01:35.000Z</time>
      </trkpt>
      <trkpt lat="45.6027" lon="6.67157">
        <ele>1551.8000488281</ele>
        <time>2020-01-15T08:01:36.000Z</time>
      </trkpt>
      <trkpt lat="45.60271" lon="6.67161">
        <ele>1552.5999755859</ele>
        <time>2020-01-15T08:01:40.000Z</time>
      </trkpt>
      <trkpt lat="45.60274" lon="6.67164">
        <ele>1552.5999755859</ele>
        <time>2020-01-15T08:01:42.000Z</time>
      </trkpt>
      <trkpt lat="45.60274" lon="6.67167">
        <ele>1552.8000488281</ele>
        <time>2020-01-15T08:01:44.000Z</time>
      </trkpt>
      <trkpt lat="45.60277" lon="6.67172">
        <ele>1553</ele>
        <time>2020-01-15T08:01:49.000Z</time>
      </trkpt>
      <trkpt lat="45.60279" lon="6.67178">
        <ele>1553.4000244141</ele>
        <time>2020-01-15T08:01:53.000Z</time>
      </trkpt>
      <trkpt lat="45.6028" lon="6.67179">
        <ele>1553.1999511719</ele>
        <time>2020-01-15T08:01:54.000Z</time>
      </trkpt>
      <trkpt lat="45.60284" lon="6.67185">
        <ele>1553</ele>
        <time>2020-01-15T08:01:59.000Z</time>
      </trkpt>
      <trkpt lat="45.60288" lon="6.67191">
        <ele>1553.4000244141</ele>
        <time>2020-01-15T08:02:05.000Z</time>
      </trkpt>
      <trkpt lat="45.60291" lon="6.67194">
        <ele>1553.8000488281</ele>
        <time>2020-01-15T08:02:08.000Z</time>
      </trkpt>
      <trkpt lat="45.60291" lon="6.67195">
        <ele>1553.8000488281</ele>
        <time>2020-01-15T08:02:09.000Z</time>
      </trkpt>
      <trkpt lat="45.60294" lon="6.672">
        <ele>1554.1999511719</ele>
        <time>2020-01-15T08:02:14.000Z</time>
      </trkpt>
      <trkpt lat="45.60296" lon="6.67205">
        <ele>1554.8000488281</ele>
        <time>2020-01-15T08:02:19.000Z</time>
      </trkpt>
      <trkpt lat="45.60298" lon="6.67208">
        <ele>1555.1999511719</ele>
        <time>2020-01-15T08:02:22.000Z</time>
      </trkpt>
      <trkpt lat="45.60298" lon="6.67208">
        <ele>1555.1999511719</ele>
        <time>2020-01-15T08:02:24.000Z</time>
      </trkpt>
      <trkpt lat="45.60302" lon="6.67212">
        <ele>1555.1999511719</ele>
        <time>2020-01-15T08:02:28.000Z</time>
      </trkpt>
      <trkpt lat="45.60305" lon="6.67216">
        <ele>1555.5999755859</ele>
        <time>2020-01-15T08:02:33.000Z</time>
      </trkpt>
      <trkpt lat="45.60307" lon="6.67221">
        <ele>1555.8000488281</ele>
        <time>2020-01-15T08:02:36.000Z</time>
      </trkpt>
      <trkpt lat="45.60309" lon="6.67223">
        <ele>1556</ele>
        <time>2020-01-15T08:02:38.000Z</time>
      </trkpt>
      <trkpt lat="45.60313" lon="6.67228">
        <ele>1556.8000488281</ele>
        <time>2020-01-15T08:02:43.000Z</time>
      </trkpt>
      <trkpt lat="45.60317" lon="6.6723">
        <ele>1557</ele>
        <time>2020-01-15T08:02:48.000Z</time>
      </trkpt>
      <trkpt lat="45.6032" lon="6.67235">
        <ele>1557</ele>
        <time>2020-01-15T08:02:53.000Z</time>
      </trkpt>
      <trkpt lat="45.60323" lon="6.67237">
        <ele>1557.4000244141</ele>
        <time>2020-01-15T08:02:57.000Z</time>
      </trkpt>
      <trkpt lat="45.60327" lon="6.6724">
        <ele>1558</ele>
        <time>2020-01-15T08:03:02.000Z</time>
      </trkpt>
      <trkpt lat="45.60328" lon="6.67241">
        <ele>1558</ele>
        <time>2020-01-15T08:03:03.000Z</time>
      </trkpt>
      <trkpt lat="45.60332" lon="6.67245">
        <ele>1558.5999755859</ele>
        <time>2020-01-15T08:03:07.000Z</time>
      </trkpt>
      <trkpt lat="45.60336" lon="6.67249">
        <ele>1558.5999755859</ele>
        <time>2020-01-15T08:03:12.000Z</time>
      </trkpt>
      <trkpt lat="45.6034" lon="6.67252">
        <ele>1558.5999755859</ele>
        <time>2020-01-15T08:03:16.000Z</time>
      </trkpt>
      <trkpt lat="45.6034" lon="6.67253">
        <ele>1558.5999755859</ele>
        <time>2020-01-15T08:03:17.000Z</time>
      </trkpt>
      <trkpt lat="45.60346" lon="6.67256">
        <ele>1558.8000488281</ele>
        <time>2020-01-15T08:03:22.000Z</time>
      </trkpt>
      <trkpt lat="45.60347" lon="6.67257">
        <ele>1559</ele>
        <time>2020-01-15T08:03:24.000Z</time>
      </trkpt>
      <trkpt lat="45.6035" lon="6.67258">
        <ele>1559.1999511719</ele>
        <time>2020-01-15T08:03:27.000Z</time>
      </trkpt>
      <trkpt lat="45.60356" lon="6.6726">
        <ele>1560</ele>
        <time>2020-01-15T08:03:33.000Z</time>
      </trkpt>
      <trkpt lat="45.60357" lon="6.6726">
        <ele>1560.1999511719</ele>
        <time>2020-01-15T08:03:34.000Z</time>
      </trkpt>
      <trkpt lat="45.6036" lon="6.67261">
        <ele>1560.4000244141</ele>
        <time>2020-01-15T08:03:36.000Z</time>
      </trkpt>
      <trkpt lat="45.60365" lon="6.67264">
        <ele>1560.4000244141</ele>
        <time>2020-01-15T08:03:40.000Z</time>
      </trkpt>
      <trkpt lat="45.60368" lon="6.67266">
        <ele>1560.5999755859</ele>
        <time>2020-01-15T08:03:45.000Z</time>
      </trkpt>
      <trkpt lat="45.60371" lon="6.67269">
        <ele>1561</ele>
        <time>2020-01-15T08:03:48.000Z</time>
      </trkpt>
      <trkpt lat="45.60374" lon="6.67271">
        <ele>1561.4000244141</ele>
        <time>2020-01-15T08:03:51.000Z</time>
      </trkpt>
      <trkpt lat="45.60379" lon="6.67274">
        <ele>1562</ele>
        <time>2020-01-15T08:03:56.000Z</time>
      </trkpt>
      <trkpt lat="45.60381" lon="6.67274">
        <ele>1562.1999511719</ele>
        <time>2020-01-15T08:03:59.000Z</time>
      </trkpt>
      <trkpt lat="45.60382" lon="6.67275">
        <ele>1562.4000244141</ele>
        <time>2020-01-15T08:04:00.000Z</time>
      </trkpt>
      <trkpt lat="45.60383" lon="6.67275">
        <ele>1562.5999755859</ele>
        <time>2020-01-15T08:04:01.000Z</time>
      </trkpt>
      <trkpt lat="45.60388" lon="6.67276">
        <ele>1563.1999511719</ele>
        <time>2020-01-15T08:04:06.000Z</time>
      </trkpt>
      <trkpt lat="45.60388" lon="6.67276">
        <ele>1563.4000244141</ele>
        <time>2020-01-15T08:04:07.000Z</time>
      </trkpt>
      <trkpt lat="45.60395" lon="6.67279">
        <ele>1563.8000488281</ele>
        <time>2020-01-15T08:04:13.000Z</time>
      </trkpt>
      <trkpt lat="45.60399" lon="6.67279">
        <ele>1564.1999511719</ele>
        <time>2020-01-15T08:04:18.000Z</time>
      </trkpt>
      <trkpt lat="45.60406" lon="6.6728">
        <ele>1564.5999755859</ele>
        <time>2020-01-15T08:04:25.000Z</time>
      </trkpt>
      <trkpt lat="45.60408" lon="6.6728">
        <ele>1564.8000488281</ele>
        <time>2020-01-15T08:04:27.000Z</time>
      </trkpt>
      <trkpt lat="45.60414" lon="6.67281">
        <ele>1565.1999511719</ele>
        <time>2020-01-15T08:04:31.000Z</time>
      </trkpt>
      <trkpt lat="45.60415" lon="6.67282">
        <ele>1565.1999511719</ele>
        <time>2020-01-15T08:04:32.000Z</time>
      </trkpt>
      <trkpt lat="45.60423" lon="6.67282">
        <ele>1566.1999511719</ele>
        <time>2020-01-15T08:04:39.000Z</time>
      </trkpt>
      <trkpt lat="45.60427" lon="6.67281">
        <ele>1566.1999511719</ele>
        <time>2020-01-15T08:04:43.000Z</time>
      </trkpt>
      <trkpt lat="45.60429" lon="6.67281">
        <ele>1566.4000244141</ele>
        <time>2020-01-15T08:04:45.000Z</time>
      </trkpt>
      <trkpt lat="45.60434" lon="6.67281">
        <ele>1567.4000244141</ele>
        <time>2020-01-15T08:04:51.000Z</time>
      </trkpt>
      <trkpt lat="45.60442" lon="6.67283">
        <ele>1567.8000488281</ele>
        <time>2020-01-15T08:04:58.000Z</time>
      </trkpt>
      <trkpt lat="45.60447" lon="6.67284">
        <ele>1568.1999511719</ele>
        <time>2020-01-15T08:05:03.000Z</time>
      </trkpt>
      <trkpt lat="45.6045" lon="6.67285">
        <ele>1568.4000244141</ele>
        <time>2020-01-15T08:05:05.000Z</time>
      </trkpt>
      <trkpt lat="45.60455" lon="6.67287">
        <ele>1569</ele>
        <time>2020-01-15T08:05:10.000Z</time>
      </trkpt>
      <trkpt lat="45.60458" lon="6.67289">
        <ele>1569.4000244141</ele>
        <time>2020-01-15T08:05:14.000Z</time>
      </trkpt>
      <trkpt lat="45.60459" lon="6.6729">
        <ele>1569.5999755859</ele>
        <time>2020-01-15T08:05:15.000Z</time>
      </trkpt>
      <trkpt lat="45.60463" lon="6.67292">
        <ele>1570</ele>
        <time>2020-01-15T08:05:21.000Z</time>
      </trkpt>
      <trkpt lat="45.60469" lon="6.67295">
        <ele>1570.5999755859</ele>
        <time>2020-01-15T08:05:28.000Z</time>
      </trkpt>
      <trkpt lat="45.60471" lon="6.67296">
        <ele>1570.5999755859</ele>
        <time>2020-01-15T08:05:30.000Z</time>
      </trkpt>
      <trkpt lat="45.60476" lon="6.673">
        <ele>1571.1999511719</ele>
        <time>2020-01-15T08:05:35.000Z</time>
      </trkpt>
      <trkpt lat="45.6048" lon="6.67303">
        <ele>1571.5999755859</ele>
        <time>2020-01-15T08:05:39.000Z</time>
      </trkpt>
      <trkpt lat="45.60485" lon="6.67307">
        <ele>1571.8000488281</ele>
        <time>2020-01-15T08:05:44.000Z</time>
      </trkpt>
      <trkpt lat="45.6049" lon="6.67313">
        <ele>1572.1999511719</ele>
        <time>2020-01-15T08:05:49.000Z</time>
      </trkpt>
      <trkpt lat="45.60492" lon="6.67316">
        <ele>1572.8000488281</ele>
        <time>2020-01-15T08:05:52.000Z</time>
      </trkpt>
      <trkpt lat="45.60492" lon="6.67317">
        <ele>1573</ele>
        <time>2020-01-15T08:05:53.000Z</time>
      </trkpt>
      <trkpt lat="45.60492" lon="6.67318">
        <ele>1573</ele>
        <time>2020-01-15T08:05:54.000Z</time>
      </trkpt>
      <trkpt lat="45.60494" lon="6.67322">
        <ele>1573.1999511719</ele>
        <time>2020-01-15T08:05:57.000Z</time>
      </trkpt>
      <trkpt lat="45.60498" lon="6.67326">
        <ele>1573.4000244141</ele>
        <time>2020-01-15T08:06:03.000Z</time>
      </trkpt>
      <trkpt lat="45.60501" lon="6.67329">
        <ele>1574</ele>
        <time>2020-01-15T08:06:06.000Z</time>
      </trkpt>
      <trkpt lat="45.60503" lon="6.67331">
        <ele>1574.1999511719</ele>
        <time>2020-01-15T08:06:08.000Z</time>
      </trkpt>
      <trkpt lat="45.60506" lon="6.67335">
        <ele>1574.5999755859</ele>
        <time>2020-01-15T08:06:12.000Z</time>
      </trkpt>
      <trkpt lat="45.6051" lon="6.67338">
        <ele>1574.8000488281</ele>
        <time>2020-01-15T08:06:16.000Z</time>
      </trkpt>
      <trkpt lat="45.60514" lon="6.67343">
        <ele>1575</ele>
        <time>2020-01-15T08:06:21.000Z</time>
      </trkpt>
      <trkpt lat="45.60518" lon="6.67346">
        <ele>1575.4000244141</ele>
        <time>2020-01-15T08:06:26.000Z</time>
      </trkpt>
      <trkpt lat="45.60523" lon="6.6735">
        <ele>1575.8000488281</ele>
        <time>2020-01-15T08:06:31.000Z</time>
      </trkpt>
      <trkpt lat="45.60524" lon="6.67351">
        <ele>1576</ele>
        <time>2020-01-15T08:06:33.000Z</time>
      </trkpt>
      <trkpt lat="45.60527" lon="6.67354">
        <ele>1576.5999755859</ele>
        <time>2020-01-15T08:06:37.000Z</time>
      </trkpt>
      <trkpt lat="45.6053" lon="6.67357">
        <ele>1577.1999511719</ele>
        <time>2020-01-15T08:06:42.000Z</time>
      </trkpt>
      <trkpt lat="45.60534" lon="6.67361">
        <ele>1577.5999755859</ele>
        <time>2020-01-15T08:06:47.000Z</time>
      </trkpt>
      <trkpt lat="45.60539" lon="6.67365">
        <ele>1578.1999511719</ele>
        <time>2020-01-15T08:06:52.000Z</time>
      </trkpt>
      <trkpt lat="45.6054" lon="6.67366">
        <ele>1578.1999511719</ele>
        <time>2020-01-15T08:06:53.000Z</time>
      </trkpt>
      <trkpt lat="45.60543" lon="6.67369">
        <ele>1578.5999755859</ele>
        <time>2020-01-15T08:06:57.000Z</time>
      </trkpt>
      <trkpt lat="45.60548" lon="6.67372">
        <ele>1579</ele>
        <time>2020-01-15T08:07:02.000Z</time>
      </trkpt>
      <trkpt lat="45.60549" lon="6.67373">
        <ele>1579.1999511719</ele>
        <time>2020-01-15T08:07:04.000Z</time>
      </trkpt>
      <trkpt lat="45.60552" lon="6.67375">
        <ele>1579.8000488281</ele>
        <time>2020-01-15T08:07:07.000Z</time>
      </trkpt>
      <trkpt lat="45.60557" lon="6.67377">
        <ele>1580</ele>
        <time>2020-01-15T08:07:12.000Z</time>
      </trkpt>
      <trkpt lat="45.60562" lon="6.6738">
        <ele>1580.1999511719</ele>
        <time>2020-01-15T08:07:18.000Z</time>
      </trkpt>
      <trkpt lat="45.60563" lon="6.67381">
        <ele>1580.4000244141</ele>
        <time>2020-01-15T08:07:19.000Z</time>
      </trkpt>
      <trkpt lat="45.60566" lon="6.67384">
        <ele>1580.4000244141</ele>
        <time>2020-01-15T08:07:22.000Z</time>
      </trkpt>
      <trkpt lat="45.60571" lon="6.67386">
        <ele>1580.8000488281</ele>
        <time>2020-01-15T08:07:26.000Z</time>
      </trkpt>
      <trkpt lat="45.60575" lon="6.67387">
        <ele>1581</ele>
        <time>2020-01-15T08:07:31.000Z</time>
      </trkpt>
      <trkpt lat="45.60576" lon="6.67387">
        <ele>1581.4000244141</ele>
        <time>2020-01-15T08:07:34.000Z</time>
      </trkpt>
      <trkpt lat="45.60577" lon="6.67387">
        <ele>1581.4000244141</ele>
        <time>2020-01-15T08:07:36.000Z</time>
      </trkpt>
      <trkpt lat="45.60582" lon="6.67389">
        <ele>1581.8000488281</ele>
        <time>2020-01-15T08:07:42.000Z</time>
      </trkpt>
      <trkpt lat="45.60588" lon="6.67392">
        <ele>1582.4000244141</ele>
        <time>2020-01-15T08:07:48.000Z</time>
      </trkpt>
      <trkpt lat="45.60589" lon="6.67393">
        <ele>1582.5999755859</ele>
        <time>2020-01-15T08:07:49.000Z</time>
      </trkpt>
      <trkpt lat="45.60594" lon="6.67395">
        <ele>1583.1999511719</ele>
        <time>2020-01-15T08:07:55.000Z</time>
      </trkpt>
      <trkpt lat="45.606" lon="6.67397">
        <ele>1583.4000244141</ele>
        <time>2020-01-15T08:08:00.000Z</time>
      </trkpt>
      <trkpt lat="45.60605" lon="6.67398">
        <ele>1584</ele>
        <time>2020-01-15T08:08:05.000Z</time>
      </trkpt>
      <trkpt lat="45.60609" lon="6.67398">
        <ele>1584.1999511719</ele>
        <time>2020-01-15T08:08:10.000Z</time>
      </trkpt>
      <trkpt lat="45.60611" lon="6.67399">
        <ele>1584.4000244141</ele>
        <time>2020-01-15T08:08:12.000Z</time>
      </trkpt>
      <trkpt lat="45.60614" lon="6.67399">
        <ele>1584.5999755859</ele>
        <time>2020-01-15T08:08:15.000Z</time>
      </trkpt>
      <trkpt lat="45.60615" lon="6.674">
        <ele>1584.5999755859</ele>
        <time>2020-01-15T08:08:16.000Z</time>
      </trkpt>
      <trkpt lat="45.60623" lon="6.67403">
        <ele>1584.4000244141</ele>
        <time>2020-01-15T08:08:23.000Z</time>
      </trkpt>
      <trkpt lat="45.60629" lon="6.67405">
        <ele>1584.1999511719</ele>
        <time>2020-01-15T08:08:28.000Z</time>
      </trkpt>
      <trkpt lat="45.60635" lon="6.67409">
        <ele>1584.4000244141</ele>
        <time>2020-01-15T08:08:34.000Z</time>
      </trkpt>
      <trkpt lat="45.60639" lon="6.67413">
        <ele>1584.5999755859</ele>
        <time>2020-01-15T08:08:39.000Z</time>
      </trkpt>
      <trkpt lat="45.60643" lon="6.67417">
        <ele>1585</ele>
        <time>2020-01-15T08:08:44.000Z</time>
      </trkpt>
      <trkpt lat="45.60647" lon="6.6742">
        <ele>1585</ele>
        <time>2020-01-15T08:08:48.000Z</time>
      </trkpt>
      <trkpt lat="45.60651" lon="6.67425">
        <ele>1585.1999511719</ele>
        <time>2020-01-15T08:08:54.000Z</time>
      </trkpt>
      <trkpt lat="45.60652" lon="6.67425">
        <ele>1585.5999755859</ele>
        <time>2020-01-15T08:08:55.000Z</time>
      </trkpt>
      <trkpt lat="45.60655" lon="6.6743">
        <ele>1585.8000488281</ele>
        <time>2020-01-15T08:08:59.000Z</time>
      </trkpt>
      <trkpt lat="45.60657" lon="6.67433">
        <ele>1586.1999511719</ele>
        <time>2020-01-15T08:09:03.000Z</time>
      </trkpt>
      <trkpt lat="45.60662" lon="6.67437">
        <ele>1586.4000244141</ele>
        <time>2020-01-15T08:09:08.000Z</time>
      </trkpt>
      <trkpt lat="45.60664" lon="6.67439">
        <ele>1586.5999755859</ele>
        <time>2020-01-15T08:09:11.000Z</time>
      </trkpt>
      <trkpt lat="45.60665" lon="6.6744">
        <ele>1586.5999755859</ele>
        <time>2020-01-15T08:09:12.000Z</time>
      </trkpt>
      <trkpt lat="45.60668" lon="6.67444">
        <ele>1587</ele>
        <time>2020-01-15T08:09:16.000Z</time>
      </trkpt>
      <trkpt lat="45.60672" lon="6.67447">
        <ele>1587.5999755859</ele>
        <time>2020-01-15T08:09:20.000Z</time>
      </trkpt>
      <trkpt lat="45.60673" lon="6.67448">
        <ele>1587.5999755859</ele>
        <time>2020-01-15T08:09:21.000Z</time>
      </trkpt>
      <trkpt lat="45.60678" lon="6.67454">
        <ele>1587.8000488281</ele>
        <time>2020-01-15T08:09:26.000Z</time>
      </trkpt>
      <trkpt lat="45.60682" lon="6.67457">
        <ele>1588.1999511719</ele>
        <time>2020-01-15T08:09:30.000Z</time>
      </trkpt>
      <trkpt lat="45.60687" lon="6.6746">
        <ele>1588.5999755859</ele>
        <time>2020-01-15T08:09:36.000Z</time>
      </trkpt>
      <trkpt lat="45.60691" lon="6.67461">
        <ele>1589.5999755859</ele>
        <time>2020-01-15T08:09:42.000Z</time>
      </trkpt>
      <trkpt lat="45.60691" lon="6.67461">
        <ele>1589.8000488281</ele>
        <time>2020-01-15T08:09:43.000Z</time>
      </trkpt>
      <trkpt lat="45.60694" lon="6.67462">
        <ele>1590.1999511719</ele>
        <time>2020-01-15T08:09:48.000Z</time>
      </trkpt>
      <trkpt lat="45.60694" lon="6.67461">
        <ele>1590.8000488281</ele>
        <time>2020-01-15T08:09:56.000Z</time>
      </trkpt>
      <trkpt lat="45.60695" lon="6.67461">
        <ele>1590.8000488281</ele>
        <time>2020-01-15T08:10:05.000Z</time>
      </trkpt>
      <trkpt lat="45.60698" lon="6.67462">
        <ele>1591</ele>
        <time>2020-01-15T08:10:08.000Z</time>
      </trkpt>
      <trkpt lat="45.607" lon="6.67463">
        <ele>1591</ele>
        <time>2020-01-15T08:10:10.000Z</time>
      </trkpt>
      <trkpt lat="45.60702" lon="6.67464">
        <ele>1591.8000488281</ele>
        <time>2020-01-15T08:10:16.000Z</time>
      </trkpt>
      <trkpt lat="45.60702" lon="6.67464">
        <ele>1592</ele>
        <time>2020-01-15T08:10:19.000Z</time>
      </trkpt>
      <trkpt lat="45.60701" lon="6.67464">
        <ele>1592</ele>
        <time>2020-01-15T08:10:26.000Z</time>
      </trkpt>
      <trkpt lat="45.60701" lon="6.67464">
        <ele>1591.4000244141</ele>
        <time>2020-01-15T08:10:38.000Z</time>
      </trkpt>
      <trkpt lat="45.60701" lon="6.67464">
        <ele>1592.1999511719</ele>
        <time>2020-01-15T08:10:52.000Z</time>
      </trkpt>
      <trkpt lat="45.60701" lon="6.67464">
        <ele>1592</ele>
        <time>2020-01-15T08:11:05.000Z</time>
      </trkpt>
      <trkpt lat="45.60701" lon="6.67464">
        <ele>1591.5999755859</ele>
        <time>2020-01-15T08:11:15.000Z</time>
      </trkpt>
      <trkpt lat="45.60701" lon="6.67464">
        <ele>1591.5999755859</ele>
        <time>2020-01-15T08:11:30.000Z</time>
      </trkpt>
      <trkpt lat="45.60701" lon="6.67464">
        <ele>1592</ele>
        <time>2020-01-15T08:11:41.000Z</time>
      </trkpt>
      <trkpt lat="45.60702" lon="6.67464">
        <ele>1592</ele>
        <time>2020-01-15T08:11:55.000Z</time>
      </trkpt>
      <trkpt lat="45.60702" lon="6.67464">
        <ele>1592</ele>
        <time>2020-01-15T08:12:04.000Z</time>
      </trkpt>
      <trkpt lat="45.60702" lon="6.67464">
        <ele>1592</ele>
        <time>2020-01-15T08:12:16.000Z</time>
      </trkpt>
      <trkpt lat="45.60702" lon="6.67464">
        <ele>1592</ele>
        <time>2020-01-15T08:12:31.000Z</time>
      </trkpt>
      <trkpt lat="45.60702" lon="6.67464">
        <ele>1592</ele>
        <time>2020-01-15T08:12:41.000Z</time>
      </trkpt>
      <trkpt lat="45.60703" lon="6.67465">
        <ele>1592</ele>
        <time>2020-01-15T08:12:42.000Z</time>
      </trkpt>
      <trkpt lat="45.60709" lon="6.67468">
        <ele>1592</ele>
        <time>2020-01-15T08:12:46.000Z</time>
      </trkpt>
      <trkpt lat="45.60715" lon="6.6747">
        <ele>1592.4000244141</ele>
        <time>2020-01-15T08:12:52.000Z</time>
      </trkpt>
      <trkpt lat="45.60718" lon="6.67472">
        <ele>1593</ele>
        <time>2020-01-15T08:12:55.000Z</time>
      </trkpt>
      <trkpt lat="45.6072" lon="6.67472">
        <ele>1593.4000244141</ele>
        <time>2020-01-15T08:12:57.000Z</time>
      </trkpt>
      <trkpt lat="45.60726" lon="6.67475">
        <ele>1594.1999511719</ele>
        <time>2020-01-15T08:13:02.000Z</time>
      </trkpt>
      <trkpt lat="45.60727" lon="6.67476">
        <ele>1594.4000244141</ele>
        <time>2020-01-15T08:13:03.000Z</time>
      </trkpt>
      <trkpt lat="45.60732" lon="6.6748">
        <ele>1595.1999511719</ele>
        <time>2020-01-15T08:13:08.000Z</time>
      </trkpt>
      <trkpt lat="45.60733" lon="6.67481">
        <ele>1595.4000244141</ele>
        <time>2020-01-15T08:13:09.000Z</time>
      </trkpt>
      <trkpt lat="45.60736" lon="6.67483">
        <ele>1595.8000488281</ele>
        <time>2020-01-15T08:13:13.000Z</time>
      </trkpt>
      <trkpt lat="45.6074" lon="6.67484">
        <ele>1596.1999511719</ele>
        <time>2020-01-15T08:13:18.000Z</time>
      </trkpt>
      <trkpt lat="45.60741" lon="6.67485">
        <ele>1596.4000244141</ele>
        <time>2020-01-15T08:13:19.000Z</time>
      </trkpt>
      <trkpt lat="45.60744" lon="6.67485">
        <ele>1596.5999755859</ele>
        <time>2020-01-15T08:13:22.000Z</time>
      </trkpt>
      <trkpt lat="45.60747" lon="6.67485">
        <ele>1596.8000488281</ele>
        <time>2020-01-15T08:13:24.000Z</time>
      </trkpt>
      <trkpt lat="45.60751" lon="6.67486">
        <ele>1597.4000244141</ele>
        <time>2020-01-15T08:13:30.000Z</time>
      </trkpt>
      <trkpt lat="45.60752" lon="6.67485">
        <ele>1597.5999755859</ele>
        <time>2020-01-15T08:13:31.000Z</time>
      </trkpt>
      <trkpt lat="45.60757" lon="6.67487">
        <ele>1598</ele>
        <time>2020-01-15T08:13:36.000Z</time>
      </trkpt>
      <trkpt lat="45.60761" lon="6.67491">
        <ele>1598.4000244141</ele>
        <time>2020-01-15T08:13:41.000Z</time>
      </trkpt>
      <trkpt lat="45.60762" lon="6.67492">
        <ele>1598.4000244141</ele>
        <time>2020-01-15T08:13:42.000Z</time>
      </trkpt>
      <trkpt lat="45.60766" lon="6.67494">
        <ele>1598.8000488281</ele>
        <time>2020-01-15T08:13:46.000Z</time>
      </trkpt>
      <trkpt lat="45.60772" lon="6.67495">
        <ele>1599.4000244141</ele>
        <time>2020-01-15T08:13:52.000Z</time>
      </trkpt>
      <trkpt lat="45.60775" lon="6.67495">
        <ele>1599.4000244141</ele>
        <time>2020-01-15T08:13:55.000Z</time>
      </trkpt>
      <trkpt lat="45.60777" lon="6.67495">
        <ele>1599.5999755859</ele>
        <time>2020-01-15T08:13:57.000Z</time>
      </trkpt>
      <trkpt lat="45.60781" lon="6.67495">
        <ele>1599.8000488281</ele>
        <time>2020-01-15T08:14:02.000Z</time>
      </trkpt>
      <trkpt lat="45.60788" lon="6.67497">
        <ele>1600</ele>
        <time>2020-01-15T08:14:09.000Z</time>
      </trkpt>
      <trkpt lat="45.60795" lon="6.67498">
        <ele>1600.1999511719</ele>
        <time>2020-01-15T08:14:15.000Z</time>
      </trkpt>
      <trkpt lat="45.60802" lon="6.67501">
        <ele>1600.1999511719</ele>
        <time>2020-01-15T08:14:21.000Z</time>
      </trkpt>
      <trkpt lat="45.60811" lon="6.67503">
        <ele>1600.4000244141</ele>
        <time>2020-01-15T08:14:28.000Z</time>
      </trkpt>
      <trkpt lat="45.60814" lon="6.67504">
        <ele>1600.4000244141</ele>
        <time>2020-01-15T08:14:31.000Z</time>
      </trkpt>
      <trkpt lat="45.60819" lon="6.67503">
        <ele>1600.8000488281</ele>
        <time>2020-01-15T08:14:35.000Z</time>
      </trkpt>
      <trkpt lat="45.60826" lon="6.67507">
        <ele>1601</ele>
        <time>2020-01-15T08:14:41.000Z</time>
      </trkpt>
      <trkpt lat="45.60831" lon="6.67509">
        <ele>1601</ele>
        <time>2020-01-15T08:14:46.000Z</time>
      </trkpt>
      <trkpt lat="45.60838" lon="6.67511">
        <ele>1601</ele>
        <time>2020-01-15T08:14:53.000Z</time>
      </trkpt>
      <trkpt lat="45.60846" lon="6.67512">
        <ele>1601.4000244141</ele>
        <time>2020-01-15T08:14:59.000Z</time>
      </trkpt>
      <trkpt lat="45.60847" lon="6.67513">
        <ele>1601.5999755859</ele>
        <time>2020-01-15T08:15:00.000Z</time>
      </trkpt>
      <trkpt lat="45.60851" lon="6.67515">
        <ele>1601.8000488281</ele>
        <time>2020-01-15T08:15:03.000Z</time>
      </trkpt>
      <trkpt lat="45.60858" lon="6.67518">
        <ele>1602</ele>
        <time>2020-01-15T08:15:08.000Z</time>
      </trkpt>
      <trkpt lat="45.60863" lon="6.67522">
        <ele>1602.1999511719</ele>
        <time>2020-01-15T08:15:13.000Z</time>
      </trkpt>
      <trkpt lat="45.6087" lon="6.67526">
        <ele>1602.4000244141</ele>
        <time>2020-01-15T08:15:18.000Z</time>
      </trkpt>
      <trkpt lat="45.60874" lon="6.67529">
        <ele>1602.4000244141</ele>
        <time>2020-01-15T08:15:22.000Z</time>
      </trkpt>
      <trkpt lat="45.60878" lon="6.67532">
        <ele>1602.5999755859</ele>
        <time>2020-01-15T08:15:27.000Z</time>
      </trkpt>
      <trkpt lat="45.60884" lon="6.67535">
        <ele>1603</ele>
        <time>2020-01-15T08:15:32.000Z</time>
      </trkpt>
      <trkpt lat="45.60889" lon="6.67541">
        <ele>1603.1999511719</ele>
        <time>2020-01-15T08:15:37.000Z</time>
      </trkpt>
      <trkpt lat="45.60896" lon="6.67542">
        <ele>1603.4000244141</ele>
        <time>2020-01-15T08:15:43.000Z</time>
      </trkpt>
      <trkpt lat="45.60901" lon="6.67545">
        <ele>1603.4000244141</ele>
        <time>2020-01-15T08:15:48.000Z</time>
      </trkpt>
      <trkpt lat="45.60907" lon="6.67547">
        <ele>1603.1999511719</ele>
        <time>2020-01-15T08:15:53.000Z</time>
      </trkpt>
      <trkpt lat="45.60911" lon="6.67549">
        <ele>1603.4000244141</ele>
        <time>2020-01-15T08:15:57.000Z</time>
      </trkpt>
      <trkpt lat="45.60916" lon="6.67553">
        <ele>1603.4000244141</ele>
        <time>2020-01-15T08:16:02.000Z</time>
      </trkpt>
      <trkpt lat="45.6092" lon="6.67557">
        <ele>1603.5999755859</ele>
        <time>2020-01-15T08:16:07.000Z</time>
      </trkpt>
      <trkpt lat="45.60921" lon="6.67558">
        <ele>1603.8000488281</ele>
        <time>2020-01-15T08:16:08.000Z</time>
      </trkpt>
      <trkpt lat="45.60925" lon="6.67561">
        <ele>1603.8000488281</ele>
        <time>2020-01-15T08:16:12.000Z</time>
      </trkpt>
      <trkpt lat="45.60932" lon="6.67568">
        <ele>1604</ele>
        <time>2020-01-15T08:16:18.000Z</time>
      </trkpt>
      <trkpt lat="45.60936" lon="6.67572">
        <ele>1604</ele>
        <time>2020-01-15T08:16:23.000Z</time>
      </trkpt>
      <trkpt lat="45.60943" lon="6.67575">
        <ele>1604.1999511719</ele>
        <time>2020-01-15T08:16:29.000Z</time>
      </trkpt>
      <trkpt lat="45.60949" lon="6.67579">
        <ele>1604.1999511719</ele>
        <time>2020-01-15T08:16:34.000Z</time>
      </trkpt>
      <trkpt lat="45.60952" lon="6.6758">
        <ele>1604.1999511719</ele>
        <time>2020-01-15T08:16:36.000Z</time>
      </trkpt>
      <trkpt lat="45.60954" lon="6.67582">
        <ele>1604.1999511719</ele>
        <time>2020-01-15T08:16:38.000Z</time>
      </trkpt>
      <trkpt lat="45.60959" lon="6.67586">
        <ele>1604.4000244141</ele>
        <time>2020-01-15T08:16:42.000Z</time>
      </trkpt>
      <trkpt lat="45.60962" lon="6.67588">
        <ele>1604.4000244141</ele>
        <time>2020-01-15T08:16:46.000Z</time>
      </trkpt>
      <trkpt lat="45.60967" lon="6.67593">
        <ele>1604.4000244141</ele>
        <time>2020-01-15T08:16:51.000Z</time>
      </trkpt>
      <trkpt lat="45.60969" lon="6.67594">
        <ele>1604.4000244141</ele>
        <time>2020-01-15T08:16:53.000Z</time>
      </trkpt>
      <trkpt lat="45.60971" lon="6.67596">
        <ele>1604.4000244141</ele>
        <time>2020-01-15T08:16:55.000Z</time>
      </trkpt>
      <trkpt lat="45.60974" lon="6.676">
        <ele>1604.8000488281</ele>
        <time>2020-01-15T08:16:58.000Z</time>
      </trkpt>
      <trkpt lat="45.60976" lon="6.67602">
        <ele>1605</ele>
        <time>2020-01-15T08:17:01.000Z</time>
      </trkpt>
      <trkpt lat="45.60979" lon="6.67607">
        <ele>1605.1999511719</ele>
        <time>2020-01-15T08:17:05.000Z</time>
      </trkpt>
      <trkpt lat="45.60982" lon="6.67612">
        <ele>1605.1999511719</ele>
        <time>2020-01-15T08:17:10.000Z</time>
      </trkpt>
      <trkpt lat="45.60986" lon="6.67617">
        <ele>1605.1999511719</ele>
        <time>2020-01-15T08:17:14.000Z</time>
      </trkpt>
      <trkpt lat="45.60989" lon="6.67622">
        <ele>1604.8000488281</ele>
        <time>2020-01-15T08:17:18.000Z</time>
      </trkpt>
      <trkpt lat="45.60992" lon="6.67629">
        <ele>1605</ele>
        <time>2020-01-15T08:17:22.000Z</time>
      </trkpt>
      <trkpt lat="45.60996" lon="6.67634">
        <ele>1605.4000244141</ele>
        <time>2020-01-15T08:17:26.000Z</time>
      </trkpt>
      <trkpt lat="45.60998" lon="6.67638">
        <ele>1605.5999755859</ele>
        <time>2020-01-15T08:17:31.000Z</time>
      </trkpt>
      <trkpt lat="45.61001" lon="6.67644">
        <ele>1605.4000244141</ele>
        <time>2020-01-15T08:17:35.000Z</time>
      </trkpt>
      <trkpt lat="45.61002" lon="6.67645">
        <ele>1605.4000244141</ele>
        <time>2020-01-15T08:17:36.000Z</time>
      </trkpt>
      <trkpt lat="45.61003" lon="6.67646">
        <ele>1605.4000244141</ele>
        <time>2020-01-15T08:17:38.000Z</time>
      </trkpt>
      <trkpt lat="45.61006" lon="6.67651">
        <ele>1605.4000244141</ele>
        <time>2020-01-15T08:17:41.000Z</time>
      </trkpt>
      <trkpt lat="45.61008" lon="6.67654">
        <ele>1605.5999755859</ele>
        <time>2020-01-15T08:17:43.000Z</time>
      </trkpt>
      <trkpt lat="45.6101" lon="6.67658">
        <ele>1605.5999755859</ele>
        <time>2020-01-15T08:17:46.000Z</time>
      </trkpt>
      <trkpt lat="45.61014" lon="6.67662">
        <ele>1605.8000488281</ele>
        <time>2020-01-15T08:17:50.000Z</time>
      </trkpt>
      <trkpt lat="45.61015" lon="6.67663">
        <ele>1606</ele>
        <time>2020-01-15T08:17:51.000Z</time>
      </trkpt>
      <trkpt lat="45.6102" lon="6.67666">
        <ele>1606</ele>
        <time>2020-01-15T08:17:55.000Z</time>
      </trkpt>
      <trkpt lat="45.61025" lon="6.67669">
        <ele>1606.1999511719</ele>
        <time>2020-01-15T08:18:00.000Z</time>
      </trkpt>
      <trkpt lat="45.61031" lon="6.67673">
        <ele>1606.4000244141</ele>
        <time>2020-01-15T08:18:06.000Z</time>
      </trkpt>
      <trkpt lat="45.61037" lon="6.67675">
        <ele>1606.5999755859</ele>
        <time>2020-01-15T08:18:11.000Z</time>
      </trkpt>
      <trkpt lat="45.61045" lon="6.6768">
        <ele>1606.5999755859</ele>
        <time>2020-01-15T08:18:17.000Z</time>
      </trkpt>
      <trkpt lat="45.61048" lon="6.67683">
        <ele>1606.5999755859</ele>
        <time>2020-01-15T08:18:21.000Z</time>
      </trkpt>
      <trkpt lat="45.61052" lon="6.67685">
        <ele>1606.5999755859</ele>
        <time>2020-01-15T08:18:25.000Z</time>
      </trkpt>
      <trkpt lat="45.61053" lon="6.67686">
        <ele>1606.5999755859</ele>
        <time>2020-01-15T08:18:26.000Z</time>
      </trkpt>
      <trkpt lat="45.6106" lon="6.67686">
        <ele>1606.8000488281</ele>
        <time>2020-01-15T08:18:32.000Z</time>
      </trkpt>
      <trkpt lat="45.61063" lon="6.67686">
        <ele>1606.8000488281</ele>
        <time>2020-01-15T08:18:34.000Z</time>
      </trkpt>
      <trkpt lat="45.61067" lon="6.67689">
        <ele>1606.5999755859</ele>
        <time>2020-01-15T08:18:38.000Z</time>
      </trkpt>
      <trkpt lat="45.61069" lon="6.67689">
        <ele>1606.5999755859</ele>
        <time>2020-01-15T08:18:40.000Z</time>
      </trkpt>
      <trkpt lat="45.61073" lon="6.6769">
        <ele>1606.8000488281</ele>
        <time>2020-01-15T08:18:43.000Z</time>
      </trkpt>
      <trkpt lat="45.61079" lon="6.67692">
        <ele>1607</ele>
        <time>2020-01-15T08:18:48.000Z</time>
      </trkpt>
      <trkpt lat="45.61085" lon="6.67696">
        <ele>1607</ele>
        <time>2020-01-15T08:18:52.000Z</time>
      </trkpt>
      <trkpt lat="45.61086" lon="6.67696">
        <ele>1607</ele>
        <time>2020-01-15T08:18:53.000Z</time>
      </trkpt>
      <trkpt lat="45.61091" lon="6.67698">
        <ele>1607.4000244141</ele>
        <time>2020-01-15T08:18:58.000Z</time>
      </trkpt>
      <trkpt lat="45.61096" lon="6.67701">
        <ele>1607.5999755859</ele>
        <time>2020-01-15T08:19:03.000Z</time>
      </trkpt>
      <trkpt lat="45.61101" lon="6.67704">
        <ele>1607.8000488281</ele>
        <time>2020-01-15T08:19:08.000Z</time>
      </trkpt>
      <trkpt lat="45.61105" lon="6.67706">
        <ele>1607.8000488281</ele>
        <time>2020-01-15T08:19:12.000Z</time>
      </trkpt>
      <trkpt lat="45.61109" lon="6.67708">
        <ele>1608</ele>
        <time>2020-01-15T08:19:15.000Z</time>
      </trkpt>
      <trkpt lat="45.6111" lon="6.67709">
        <ele>1608</ele>
        <time>2020-01-15T08:19:16.000Z</time>
      </trkpt>
      <trkpt lat="45.61111" lon="6.6771">
        <ele>1608</ele>
        <time>2020-01-15T08:19:17.000Z</time>
      </trkpt>
      <trkpt lat="45.61115" lon="6.67711">
        <ele>1608.1999511719</ele>
        <time>2020-01-15T08:19:20.000Z</time>
      </trkpt>
      <trkpt lat="45.61118" lon="6.67712">
        <ele>1608.1999511719</ele>
        <time>2020-01-15T08:19:23.000Z</time>
      </trkpt>
      <trkpt lat="45.6112" lon="6.67713">
        <ele>1608.4000244141</ele>
        <time>2020-01-15T08:19:25.000Z</time>
      </trkpt>
      <trkpt lat="45.61125" lon="6.67718">
        <ele>1608.4000244141</ele>
        <time>2020-01-15T08:19:30.000Z</time>
      </trkpt>
      <trkpt lat="45.6113" lon="6.67723">
        <ele>1608.5999755859</ele>
        <time>2020-01-15T08:19:35.000Z</time>
      </trkpt>
      <trkpt lat="45.61133" lon="6.67725">
        <ele>1608.5999755859</ele>
        <time>2020-01-15T08:19:39.000Z</time>
      </trkpt>
      <trkpt lat="45.61134" lon="6.67725">
        <ele>1608.5999755859</ele>
        <time>2020-01-15T08:19:40.000Z</time>
      </trkpt>
      <trkpt lat="45.6114" lon="6.67727">
        <ele>1608.8000488281</ele>
        <time>2020-01-15T08:19:45.000Z</time>
      </trkpt>
      <trkpt lat="45.61145" lon="6.67729">
        <ele>1608.8000488281</ele>
        <time>2020-01-15T08:19:50.000Z</time>
      </trkpt>
      <trkpt lat="45.61152" lon="6.67733">
        <ele>1609</ele>
        <time>2020-01-15T08:19:56.000Z</time>
      </trkpt>
      <trkpt lat="45.61154" lon="6.67735">
        <ele>1609</ele>
        <time>2020-01-15T08:19:58.000Z</time>
      </trkpt>
      <trkpt lat="45.61157" lon="6.67736">
        <ele>1609</ele>
        <time>2020-01-15T08:20:01.000Z</time>
      </trkpt>
      <trkpt lat="45.61163" lon="6.67737">
        <ele>1609.4000244141</ele>
        <time>2020-01-15T08:20:06.000Z</time>
      </trkpt>
      <trkpt lat="45.61169" lon="6.67737">
        <ele>1609.5999755859</ele>
        <time>2020-01-15T08:20:11.000Z</time>
      </trkpt>
      <trkpt lat="45.61177" lon="6.67738">
        <ele>1610</ele>
        <time>2020-01-15T08:20:17.000Z</time>
      </trkpt>
      <trkpt lat="45.6118" lon="6.67738">
        <ele>1610</ele>
        <time>2020-01-15T08:20:20.000Z</time>
      </trkpt>
      <trkpt lat="45.61183" lon="6.67738">
        <ele>1610</ele>
        <time>2020-01-15T08:20:22.000Z</time>
      </trkpt>
      <trkpt lat="45.61189" lon="6.67738">
        <ele>1610.1999511719</ele>
        <time>2020-01-15T08:20:28.000Z</time>
      </trkpt>
      <trkpt lat="45.61194" lon="6.6774">
        <ele>1610.4000244141</ele>
        <time>2020-01-15T08:20:33.000Z</time>
      </trkpt>
      <trkpt lat="45.61197" lon="6.67741">
        <ele>1611</ele>
        <time>2020-01-15T08:20:37.000Z</time>
      </trkpt>
      <trkpt lat="45.612" lon="6.67741">
        <ele>1611</ele>
        <time>2020-01-15T08:20:39.000Z</time>
      </trkpt>
      <trkpt lat="45.61207" lon="6.67742">
        <ele>1611.5999755859</ele>
        <time>2020-01-15T08:20:45.000Z</time>
      </trkpt>
      <trkpt lat="45.61211" lon="6.67743">
        <ele>1612</ele>
        <time>2020-01-15T08:20:49.000Z</time>
      </trkpt>
      <trkpt lat="45.61213" lon="6.67743">
        <ele>1612</ele>
        <time>2020-01-15T08:20:50.000Z</time>
      </trkpt>
      <trkpt lat="45.61219" lon="6.67743">
        <ele>1612.5999755859</ele>
        <time>2020-01-15T08:20:56.000Z</time>
      </trkpt>
      <trkpt lat="45.61225" lon="6.67746">
        <ele>1612.8000488281</ele>
        <time>2020-01-15T08:21:01.000Z</time>
      </trkpt>
      <trkpt lat="45.61232" lon="6.67745">
        <ele>1613</ele>
        <time>2020-01-15T08:21:06.000Z</time>
      </trkpt>
      <trkpt lat="45.61234" lon="6.67745">
        <ele>1613</ele>
        <time>2020-01-15T08:21:07.000Z</time>
      </trkpt>
      <trkpt lat="45.61238" lon="6.67745">
        <ele>1613.1999511719</ele>
        <time>2020-01-15T08:21:12.000Z</time>
      </trkpt>
      <trkpt lat="45.61242" lon="6.67743">
        <ele>1613.5999755859</ele>
        <time>2020-01-15T08:21:16.000Z</time>
      </trkpt>
      <trkpt lat="45.61242" lon="6.67743">
        <ele>1613.8000488281</ele>
        <time>2020-01-15T08:21:17.000Z</time>
      </trkpt>
      <trkpt lat="45.61249" lon="6.67741">
        <ele>1614</ele>
        <time>2020-01-15T08:21:23.000Z</time>
      </trkpt>
      <trkpt lat="45.61255" lon="6.67741">
        <ele>1614.4000244141</ele>
        <time>2020-01-15T08:21:28.000Z</time>
      </trkpt>
      <trkpt lat="45.61259" lon="6.67739">
        <ele>1614.8000488281</ele>
        <time>2020-01-15T08:21:33.000Z</time>
      </trkpt>
      <trkpt lat="45.61262" lon="6.67739">
        <ele>1615.1999511719</ele>
        <time>2020-01-15T08:21:37.000Z</time>
      </trkpt>
      <trkpt lat="45.61265" lon="6.67739">
        <ele>1615.4000244141</ele>
        <time>2020-01-15T08:21:41.000Z</time>
      </trkpt>
      <trkpt lat="45.61269" lon="6.67738">
        <ele>1615.8000488281</ele>
        <time>2020-01-15T08:21:46.000Z</time>
      </trkpt>
      <trkpt lat="45.61276" lon="6.67739">
        <ele>1616</ele>
        <time>2020-01-15T08:21:52.000Z</time>
      </trkpt>
      <trkpt lat="45.61283" lon="6.67738">
        <ele>1616.1999511719</ele>
        <time>2020-01-15T08:21:57.000Z</time>
      </trkpt>
      <trkpt lat="45.61284" lon="6.67738">
        <ele>1616.4000244141</ele>
        <time>2020-01-15T08:21:58.000Z</time>
      </trkpt>
      <trkpt lat="45.61289" lon="6.67738">
        <ele>1616.8000488281</ele>
        <time>2020-01-15T08:22:05.000Z</time>
      </trkpt>
      <trkpt lat="45.61291" lon="6.67738">
        <ele>1617</ele>
        <time>2020-01-15T08:22:07.000Z</time>
      </trkpt>
      <trkpt lat="45.61293" lon="6.67738">
        <ele>1617.1999511719</ele>
        <time>2020-01-15T08:22:09.000Z</time>
      </trkpt>
      <trkpt lat="45.61294" lon="6.67738">
        <ele>1617.4000244141</ele>
        <time>2020-01-15T08:22:11.000Z</time>
      </trkpt>
      <trkpt lat="45.61296" lon="6.67739">
        <ele>1617.5999755859</ele>
        <time>2020-01-15T08:22:12.000Z</time>
      </trkpt>
      <trkpt lat="45.613" lon="6.67738">
        <ele>1617.8000488281</ele>
        <time>2020-01-15T08:22:16.000Z</time>
      </trkpt>
      <trkpt lat="45.61303" lon="6.67737">
        <ele>1617.8000488281</ele>
        <time>2020-01-15T08:22:19.000Z</time>
      </trkpt>
      <trkpt lat="45.61305" lon="6.67736">
        <ele>1618</ele>
        <time>2020-01-15T08:22:21.000Z</time>
      </trkpt>
      <trkpt lat="45.61306" lon="6.67736">
        <ele>1618.1999511719</ele>
        <time>2020-01-15T08:22:22.000Z</time>
      </trkpt>
      <trkpt lat="45.61311" lon="6.67735">
        <ele>1618.5999755859</ele>
        <time>2020-01-15T08:22:27.000Z</time>
      </trkpt>
      <trkpt lat="45.61316" lon="6.67734">
        <ele>1619</ele>
        <time>2020-01-15T08:22:33.000Z</time>
      </trkpt>
      <trkpt lat="45.61318" lon="6.67735">
        <ele>1619.1999511719</ele>
        <time>2020-01-15T08:22:36.000Z</time>
      </trkpt>
      <trkpt lat="45.6132" lon="6.67735">
        <ele>1619.5999755859</ele>
        <time>2020-01-15T08:22:38.000Z</time>
      </trkpt>
      <trkpt lat="45.61324" lon="6.67735">
        <ele>1620</ele>
        <time>2020-01-15T08:22:43.000Z</time>
      </trkpt>
      <trkpt lat="45.61328" lon="6.67736">
        <ele>1620.4000244141</ele>
        <time>2020-01-15T08:22:48.000Z</time>
      </trkpt>
      <trkpt lat="45.61329" lon="6.67736">
        <ele>1620.4000244141</ele>
        <time>2020-01-15T08:22:49.000Z</time>
      </trkpt>
      <trkpt lat="45.61334" lon="6.67737">
        <ele>1620.8000488281</ele>
        <time>2020-01-15T08:22:54.000Z</time>
      </trkpt>
      <trkpt lat="45.61339" lon="6.67737">
        <ele>1621</ele>
        <time>2020-01-15T08:22:59.000Z</time>
      </trkpt>
      <trkpt lat="45.61344" lon="6.67738">
        <ele>1621.4000244141</ele>
        <time>2020-01-15T08:23:04.000Z</time>
      </trkpt>
      <trkpt lat="45.61344" lon="6.67739">
        <ele>1621.5999755859</ele>
        <time>2020-01-15T08:23:05.000Z</time>
      </trkpt>
      <trkpt lat="45.61353" lon="6.67739">
        <ele>1622</ele>
        <time>2020-01-15T08:23:12.000Z</time>
      </trkpt>
      <trkpt lat="45.61357" lon="6.6774">
        <ele>1622.1999511719</ele>
        <time>2020-01-15T08:23:17.000Z</time>
      </trkpt>
      <trkpt lat="45.6136" lon="6.6774">
        <ele>1622.4000244141</ele>
        <time>2020-01-15T08:23:19.000Z</time>
      </trkpt>
      <trkpt lat="45.61363" lon="6.67739">
        <ele>1622.8000488281</ele>
        <time>2020-01-15T08:23:22.000Z</time>
      </trkpt>
      <trkpt lat="45.61367" lon="6.67739">
        <ele>1623.4000244141</ele>
        <time>2020-01-15T08:23:28.000Z</time>
      </trkpt>
      <trkpt lat="45.61368" lon="6.67739">
        <ele>1623.4000244141</ele>
        <time>2020-01-15T08:23:29.000Z</time>
      </trkpt>
      <trkpt lat="45.61372" lon="6.67738">
        <ele>1623.8000488281</ele>
        <time>2020-01-15T08:23:33.000Z</time>
      </trkpt>
      <trkpt lat="45.61376" lon="6.67738">
        <ele>1624.1999511719</ele>
        <time>2020-01-15T08:23:38.000Z</time>
      </trkpt>
      <trkpt lat="45.6138" lon="6.67739">
        <ele>1624.5999755859</ele>
        <time>2020-01-15T08:23:43.000Z</time>
      </trkpt>
      <trkpt lat="45.61381" lon="6.67739">
        <ele>1624.5999755859</ele>
        <time>2020-01-15T08:23:44.000Z</time>
      </trkpt>
      <trkpt lat="45.61389" lon="6.67742">
        <ele>1624.8000488281</ele>
        <time>2020-01-15T08:23:50.000Z</time>
      </trkpt>
      <trkpt lat="45.61397" lon="6.67742">
        <ele>1625</ele>
        <time>2020-01-15T08:23:57.000Z</time>
      </trkpt>
      <trkpt lat="45.61401" lon="6.67744">
        <ele>1625.4000244141</ele>
        <time>2020-01-15T08:24:02.000Z</time>
      </trkpt>
      <trkpt lat="45.61404" lon="6.67744">
        <ele>1625.5999755859</ele>
        <time>2020-01-15T08:24:05.000Z</time>
      </trkpt>
      <trkpt lat="45.61409" lon="6.67744">
        <ele>1626</ele>
        <time>2020-01-15T08:24:08.000Z</time>
      </trkpt>
      <trkpt lat="45.61413" lon="6.67744">
        <ele>1626.1999511719</ele>
        <time>2020-01-15T08:24:13.000Z</time>
      </trkpt>
      <trkpt lat="45.61419" lon="6.67743">
        <ele>1626.5999755859</ele>
        <time>2020-01-15T08:24:18.000Z</time>
      </trkpt>
      <trkpt lat="45.61423" lon="6.67743">
        <ele>1627</ele>
        <time>2020-01-15T08:24:22.000Z</time>
      </trkpt>
      <trkpt lat="45.61427" lon="6.67744">
        <ele>1627.4000244141</ele>
        <time>2020-01-15T08:24:28.000Z</time>
      </trkpt>
      <trkpt lat="45.61429" lon="6.67744">
        <ele>1627.5999755859</ele>
        <time>2020-01-15T08:24:31.000Z</time>
      </trkpt>
      <trkpt lat="45.61434" lon="6.67744">
        <ele>1627.8000488281</ele>
        <time>2020-01-15T08:24:35.000Z</time>
      </trkpt>
      <trkpt lat="45.61439" lon="6.67744">
        <ele>1628.4000244141</ele>
        <time>2020-01-15T08:24:41.000Z</time>
      </trkpt>
      <trkpt lat="45.61444" lon="6.67744">
        <ele>1628.8000488281</ele>
        <time>2020-01-15T08:24:45.000Z</time>
      </trkpt>
      <trkpt lat="45.61446" lon="6.67744">
        <ele>1628.8000488281</ele>
        <time>2020-01-15T08:24:47.000Z</time>
      </trkpt>
      <trkpt lat="45.61451" lon="6.67743">
        <ele>1629.4000244141</ele>
        <time>2020-01-15T08:24:52.000Z</time>
      </trkpt>
      <trkpt lat="45.61455" lon="6.67743">
        <ele>1629.8000488281</ele>
        <time>2020-01-15T08:24:57.000Z</time>
      </trkpt>
      <trkpt lat="45.61455" lon="6.67743">
        <ele>1630</ele>
        <time>2020-01-15T08:24:58.000Z</time>
      </trkpt>
      <trkpt lat="45.61457" lon="6.67741">
        <ele>1630.8000488281</ele>
        <time>2020-01-15T08:25:03.000Z</time>
      </trkpt>
      <trkpt lat="45.61457" lon="6.67741">
        <ele>1630.8000488281</ele>
        <time>2020-01-15T08:25:05.000Z</time>
      </trkpt>
      <trkpt lat="45.61461" lon="6.67742">
        <ele>1630.8000488281</ele>
        <time>2020-01-15T08:25:10.000Z</time>
      </trkpt>
      <trkpt lat="45.61462" lon="6.67743">
        <ele>1630.8000488281</ele>
        <time>2020-01-15T08:25:11.000Z</time>
      </trkpt>
      <trkpt lat="45.61469" lon="6.67744">
        <ele>1630.8000488281</ele>
        <time>2020-01-15T08:25:16.000Z</time>
      </trkpt>
      <trkpt lat="45.6147" lon="6.67745">
        <ele>1630.8000488281</ele>
        <time>2020-01-15T08:25:17.000Z</time>
      </trkpt>
      <trkpt lat="45.61475" lon="6.67743">
        <ele>1630.5999755859</ele>
        <time>2020-01-15T08:25:22.000Z</time>
      </trkpt>
      <trkpt lat="45.61481" lon="6.67745">
        <ele>1631</ele>
        <time>2020-01-15T08:25:29.000Z</time>
      </trkpt>
      <trkpt lat="45.61484" lon="6.67748">
        <ele>1631.5999755859</ele>
        <time>2020-01-15T08:25:34.000Z</time>
      </trkpt>
      <trkpt lat="45.61489" lon="6.67749">
        <ele>1631.8000488281</ele>
        <time>2020-01-15T08:25:39.000Z</time>
      </trkpt>
      <trkpt lat="45.6149" lon="6.67749">
        <ele>1632</ele>
        <time>2020-01-15T08:25:40.000Z</time>
      </trkpt>
      <trkpt lat="45.61496" lon="6.6775">
        <ele>1632.5999755859</ele>
        <time>2020-01-15T08:25:46.000Z</time>
      </trkpt>
      <trkpt lat="45.61497" lon="6.67751">
        <ele>1632.8000488281</ele>
        <time>2020-01-15T08:25:47.000Z</time>
      </trkpt>
      <trkpt lat="45.61503" lon="6.6775">
        <ele>1633.1999511719</ele>
        <time>2020-01-15T08:25:53.000Z</time>
      </trkpt>
      <trkpt lat="45.61509" lon="6.67751">
        <ele>1633.5999755859</ele>
        <time>2020-01-15T08:25:58.000Z</time>
      </trkpt>
      <trkpt lat="45.6151" lon="6.67752">
        <ele>1633.8000488281</ele>
        <time>2020-01-15T08:25:59.000Z</time>
      </trkpt>
      <trkpt lat="45.61517" lon="6.67753">
        <ele>1634.8000488281</ele>
        <time>2020-01-15T08:26:08.000Z</time>
      </trkpt>
      <trkpt lat="45.61518" lon="6.67754">
        <ele>1635</ele>
        <time>2020-01-15T08:26:09.000Z</time>
      </trkpt>
      <trkpt lat="45.61524" lon="6.67755">
        <ele>1635.4000244141</ele>
        <time>2020-01-15T08:26:15.000Z</time>
      </trkpt>
      <trkpt lat="45.61529" lon="6.67755">
        <ele>1635.5999755859</ele>
        <time>2020-01-15T08:26:21.000Z</time>
      </trkpt>
      <trkpt lat="45.61535" lon="6.67755">
        <ele>1636</ele>
        <time>2020-01-15T08:26:27.000Z</time>
      </trkpt>
      <trkpt lat="45.61536" lon="6.67756">
        <ele>1636.1999511719</ele>
        <time>2020-01-15T08:26:28.000Z</time>
      </trkpt>
      <trkpt lat="45.61541" lon="6.67762">
        <ele>1636.8000488281</ele>
        <time>2020-01-15T08:26:33.000Z</time>
      </trkpt>
      <trkpt lat="45.61542" lon="6.67762">
        <ele>1636.8000488281</ele>
        <time>2020-01-15T08:26:34.000Z</time>
      </trkpt>
      <trkpt lat="45.61548" lon="6.67764">
        <ele>1637</ele>
        <time>2020-01-15T08:26:39.000Z</time>
      </trkpt>
      <trkpt lat="45.61548" lon="6.67763">
        <ele>1637.1999511719</ele>
        <time>2020-01-15T08:26:40.000Z</time>
      </trkpt>
      <trkpt lat="45.61555" lon="6.67764">
        <ele>1638</ele>
        <time>2020-01-15T08:26:47.000Z</time>
      </trkpt>
      <trkpt lat="45.61557" lon="6.67765">
        <ele>1638.4000244141</ele>
        <time>2020-01-15T08:26:49.000Z</time>
      </trkpt>
      <trkpt lat="45.61561" lon="6.67766">
        <ele>1638.8000488281</ele>
        <time>2020-01-15T08:26:51.000Z</time>
      </trkpt>
      <trkpt lat="45.61563" lon="6.67767">
        <ele>1639</ele>
        <time>2020-01-15T08:26:55.000Z</time>
      </trkpt>
      <trkpt lat="45.61568" lon="6.67767">
        <ele>1639.4000244141</ele>
        <time>2020-01-15T08:26:59.000Z</time>
      </trkpt>
      <trkpt lat="45.6157" lon="6.67768">
        <ele>1639.5999755859</ele>
        <time>2020-01-15T08:27:01.000Z</time>
      </trkpt>
      <trkpt lat="45.61575" lon="6.67768">
        <ele>1640</ele>
        <time>2020-01-15T08:27:07.000Z</time>
      </trkpt>
      <trkpt lat="45.61578" lon="6.67768">
        <ele>1640.4000244141</ele>
        <time>2020-01-15T08:27:10.000Z</time>
      </trkpt>
      <trkpt lat="45.61581" lon="6.67769">
        <ele>1640.5999755859</ele>
        <time>2020-01-15T08:27:12.000Z</time>
      </trkpt>
      <trkpt lat="45.61588" lon="6.67768">
        <ele>1641.1999511719</ele>
        <time>2020-01-15T08:27:18.000Z</time>
      </trkpt>
      <trkpt lat="45.6159" lon="6.67769">
        <ele>1641.4000244141</ele>
        <time>2020-01-15T08:27:20.000Z</time>
      </trkpt>
      <trkpt lat="45.61592" lon="6.67769">
        <ele>1641.8000488281</ele>
        <time>2020-01-15T08:27:24.000Z</time>
      </trkpt>
      <trkpt lat="45.61596" lon="6.67769">
        <ele>1642.1999511719</ele>
        <time>2020-01-15T08:27:29.000Z</time>
      </trkpt>
      <trkpt lat="45.61597" lon="6.67769">
        <ele>1642.5999755859</ele>
        <time>2020-01-15T08:27:31.000Z</time>
      </trkpt>
      <trkpt lat="45.61599" lon="6.67769">
        <ele>1642.8000488281</ele>
        <time>2020-01-15T08:27:34.000Z</time>
      </trkpt>
      <trkpt lat="45.61606" lon="6.67771">
        <ele>1643.1999511719</ele>
        <time>2020-01-15T08:27:40.000Z</time>
      </trkpt>
      <trkpt lat="45.61609" lon="6.67771">
        <ele>1643.5999755859</ele>
        <time>2020-01-15T08:27:43.000Z</time>
      </trkpt>
      <trkpt lat="45.61613" lon="6.67771">
        <ele>1643.8000488281</ele>
        <time>2020-01-15T08:27:46.000Z</time>
      </trkpt>
      <trkpt lat="45.61617" lon="6.67772">
        <ele>1644.4000244141</ele>
        <time>2020-01-15T08:27:52.000Z</time>
      </trkpt>
      <trkpt lat="45.61617" lon="6.67772">
        <ele>1644.5999755859</ele>
        <time>2020-01-15T08:27:53.000Z</time>
      </trkpt>
      <trkpt lat="45.61622" lon="6.67771">
        <ele>1645</ele>
        <time>2020-01-15T08:27:59.000Z</time>
      </trkpt>
      <trkpt lat="45.61627" lon="6.67769">
        <ele>1645.8000488281</ele>
        <time>2020-01-15T08:28:03.000Z</time>
      </trkpt>
      <trkpt lat="45.61629" lon="6.67768">
        <ele>1646</ele>
        <time>2020-01-15T08:28:06.000Z</time>
      </trkpt>
      <trkpt lat="45.6163" lon="6.67768">
        <ele>1646</ele>
        <time>2020-01-15T08:28:07.000Z</time>
      </trkpt>
      <trkpt lat="45.61634" lon="6.67768">
        <ele>1646.4000244141</ele>
        <time>2020-01-15T08:28:11.000Z</time>
      </trkpt>
      <trkpt lat="45.61636" lon="6.67767">
        <ele>1646.8000488281</ele>
        <time>2020-01-15T08:28:14.000Z</time>
      </trkpt>
      <trkpt lat="45.6164" lon="6.67766">
        <ele>1647</ele>
        <time>2020-01-15T08:28:17.000Z</time>
      </trkpt>
      <trkpt lat="45.61644" lon="6.67764">
        <ele>1647.5999755859</ele>
        <time>2020-01-15T08:28:22.000Z</time>
      </trkpt>
      <trkpt lat="45.61646" lon="6.67763">
        <ele>1647.8000488281</ele>
        <time>2020-01-15T08:28:24.000Z</time>
      </trkpt>
      <trkpt lat="45.61648" lon="6.67764">
        <ele>1648</ele>
        <time>2020-01-15T08:28:27.000Z</time>
      </trkpt>
      <trkpt lat="45.61649" lon="6.67763">
        <ele>1648</ele>
        <time>2020-01-15T08:28:33.000Z</time>
      </trkpt>
      <trkpt lat="45.61656" lon="6.67761">
        <ele>1648.5999755859</ele>
        <time>2020-01-15T08:28:39.000Z</time>
      </trkpt>
      <trkpt lat="45.61662" lon="6.67759">
        <ele>1648.8000488281</ele>
        <time>2020-01-15T08:28:45.000Z</time>
      </trkpt>
      <trkpt lat="45.61669" lon="6.67757">
        <ele>1649.1999511719</ele>
        <time>2020-01-15T08:28:51.000Z</time>
      </trkpt>
      <trkpt lat="45.61673" lon="6.67754">
        <ele>1649.4000244141</ele>
        <time>2020-01-15T08:28:56.000Z</time>
      </trkpt>
      <trkpt lat="45.61675" lon="6.67753">
        <ele>1649.8000488281</ele>
        <time>2020-01-15T08:28:58.000Z</time>
      </trkpt>
      <trkpt lat="45.61679" lon="6.67752">
        <ele>1650.1999511719</ele>
        <time>2020-01-15T08:29:01.000Z</time>
      </trkpt>
      <trkpt lat="45.61686" lon="6.67751">
        <ele>1650.8000488281</ele>
        <time>2020-01-15T08:29:08.000Z</time>
      </trkpt>
      <trkpt lat="45.61686" lon="6.67751">
        <ele>1650.8000488281</ele>
        <time>2020-01-15T08:29:09.000Z</time>
      </trkpt>
      <trkpt lat="45.61692" lon="6.67751">
        <ele>1650.5999755859</ele>
        <time>2020-01-15T08:29:15.000Z</time>
      </trkpt>
      <trkpt lat="45.61699" lon="6.67749">
        <ele>1650.5999755859</ele>
        <time>2020-01-15T08:29:21.000Z</time>
      </trkpt>
      <trkpt lat="45.61704" lon="6.67748">
        <ele>1651.5999755859</ele>
        <time>2020-01-15T08:29:28.000Z</time>
      </trkpt>
      <trkpt lat="45.61705" lon="6.67748">
        <ele>1651.8000488281</ele>
        <time>2020-01-15T08:29:30.000Z</time>
      </trkpt>
      <trkpt lat="45.61708" lon="6.67748">
        <ele>1652.4000244141</ele>
        <time>2020-01-15T08:29:34.000Z</time>
      </trkpt>
      <trkpt lat="45.61712" lon="6.67747">
        <ele>1653</ele>
        <time>2020-01-15T08:29:39.000Z</time>
      </trkpt>
      <trkpt lat="45.61714" lon="6.67746">
        <ele>1653.1999511719</ele>
        <time>2020-01-15T08:29:40.000Z</time>
      </trkpt>
      <trkpt lat="45.6172" lon="6.67747">
        <ele>1653.5999755859</ele>
        <time>2020-01-15T08:29:46.000Z</time>
      </trkpt>
      <trkpt lat="45.61727" lon="6.67748">
        <ele>1654</ele>
        <time>2020-01-15T08:29:53.000Z</time>
      </trkpt>
      <trkpt lat="45.61728" lon="6.67748">
        <ele>1654</ele>
        <time>2020-01-15T08:29:54.000Z</time>
      </trkpt>
      <trkpt lat="45.61733" lon="6.67749">
        <ele>1654.1999511719</ele>
        <time>2020-01-15T08:29:59.000Z</time>
      </trkpt>
      <trkpt lat="45.61738" lon="6.6775">
        <ele>1654.5999755859</ele>
        <time>2020-01-15T08:30:05.000Z</time>
      </trkpt>
      <trkpt lat="45.6174" lon="6.67752">
        <ele>1655</ele>
        <time>2020-01-15T08:30:09.000Z</time>
      </trkpt>
      <trkpt lat="45.61741" lon="6.67752">
        <ele>1655.1999511719</ele>
        <time>2020-01-15T08:30:10.000Z</time>
      </trkpt>
      <trkpt lat="45.61746" lon="6.67755">
        <ele>1655.8000488281</ele>
        <time>2020-01-15T08:30:16.000Z</time>
      </trkpt>
      <trkpt lat="45.6175" lon="6.67757">
        <ele>1656</ele>
        <time>2020-01-15T08:30:21.000Z</time>
      </trkpt>
      <trkpt lat="45.61752" lon="6.67759">
        <ele>1656.1999511719</ele>
        <time>2020-01-15T08:30:23.000Z</time>
      </trkpt>
      <trkpt lat="45.61758" lon="6.67758">
        <ele>1656.5999755859</ele>
        <time>2020-01-15T08:30:28.000Z</time>
      </trkpt>
      <trkpt lat="45.6176" lon="6.67759">
        <ele>1657</ele>
        <time>2020-01-15T08:30:34.000Z</time>
      </trkpt>
      <trkpt lat="45.61762" lon="6.6776">
        <ele>1657</ele>
        <time>2020-01-15T08:30:37.000Z</time>
      </trkpt>
      <trkpt lat="45.61765" lon="6.6776">
        <ele>1657</ele>
        <time>2020-01-15T08:30:39.000Z</time>
      </trkpt>
      <trkpt lat="45.61771" lon="6.67761">
        <ele>1657.8000488281</ele>
        <time>2020-01-15T08:30:45.000Z</time>
      </trkpt>
      <trkpt lat="45.61775" lon="6.67762">
        <ele>1658</ele>
        <time>2020-01-15T08:30:50.000Z</time>
      </trkpt>
      <trkpt lat="45.61777" lon="6.67763">
        <ele>1658.1999511719</ele>
        <time>2020-01-15T08:30:51.000Z</time>
      </trkpt>
      <trkpt lat="45.61782" lon="6.67764">
        <ele>1658.1999511719</ele>
        <time>2020-01-15T08:30:56.000Z</time>
      </trkpt>
      <trkpt lat="45.61786" lon="6.67766">
        <ele>1658.8000488281</ele>
        <time>2020-01-15T08:31:01.000Z</time>
      </trkpt>
      <trkpt lat="45.61788" lon="6.67767">
        <ele>1659</ele>
        <time>2020-01-15T08:31:04.000Z</time>
      </trkpt>
      <trkpt lat="45.61791" lon="6.67768">
        <ele>1659.5999755859</ele>
        <time>2020-01-15T08:31:08.000Z</time>
      </trkpt>
      <trkpt lat="45.61794" lon="6.6777">
        <ele>1659.5999755859</ele>
        <time>2020-01-15T08:31:13.000Z</time>
      </trkpt>
      <trkpt lat="45.61801" lon="6.67769">
        <ele>1659.8000488281</ele>
        <time>2020-01-15T08:31:19.000Z</time>
      </trkpt>
      <trkpt lat="45.61806" lon="6.67768">
        <ele>1660</ele>
        <time>2020-01-15T08:31:23.000Z</time>
      </trkpt>
      <trkpt lat="45.61808" lon="6.67768">
        <ele>1660.4000244141</ele>
        <time>2020-01-15T08:31:25.000Z</time>
      </trkpt>
      <trkpt lat="45.61814" lon="6.67767">
        <ele>1660.5999755859</ele>
        <time>2020-01-15T08:31:29.000Z</time>
      </trkpt>
      <trkpt lat="45.61816" lon="6.67766">
        <ele>1660.8000488281</ele>
        <time>2020-01-15T08:31:31.000Z</time>
      </trkpt>
      <trkpt lat="45.61823" lon="6.67765">
        <ele>1661.1999511719</ele>
        <time>2020-01-15T08:31:37.000Z</time>
      </trkpt>
      <trkpt lat="45.61824" lon="6.67764">
        <ele>1661.4000244141</ele>
        <time>2020-01-15T08:31:38.000Z</time>
      </trkpt>
      <trkpt lat="45.61828" lon="6.67763">
        <ele>1661.8000488281</ele>
        <time>2020-01-15T08:31:44.000Z</time>
      </trkpt>
      <trkpt lat="45.61831" lon="6.67762">
        <ele>1662.1999511719</ele>
        <time>2020-01-15T08:31:47.000Z</time>
      </trkpt>
      <trkpt lat="45.61835" lon="6.67761">
        <ele>1662.8000488281</ele>
        <time>2020-01-15T08:31:50.000Z</time>
      </trkpt>
      <trkpt lat="45.6184" lon="6.67761">
        <ele>1663.1999511719</ele>
        <time>2020-01-15T08:31:55.000Z</time>
      </trkpt>
      <trkpt lat="45.6184" lon="6.67761">
        <ele>1663.4000244141</ele>
        <time>2020-01-15T08:31:56.000Z</time>
      </trkpt>
      <trkpt lat="45.61843" lon="6.67759">
        <ele>1663.4000244141</ele>
        <time>2020-01-15T08:32:00.000Z</time>
      </trkpt>
      <trkpt lat="45.61849" lon="6.67758">
        <ele>1664</ele>
        <time>2020-01-15T08:32:07.000Z</time>
      </trkpt>
      <trkpt lat="45.61851" lon="6.67756">
        <ele>1664</ele>
        <time>2020-01-15T08:32:08.000Z</time>
      </trkpt>
      <trkpt lat="45.61853" lon="6.67753">
        <ele>1664.1999511719</ele>
        <time>2020-01-15T08:32:11.000Z</time>
      </trkpt>
      <trkpt lat="45.61853" lon="6.67754">
        <ele>1664.4000244141</ele>
        <time>2020-01-15T08:32:12.000Z</time>
      </trkpt>
      <trkpt lat="45.61857" lon="6.67753">
        <ele>1664.5999755859</ele>
        <time>2020-01-15T08:32:16.000Z</time>
      </trkpt>
      <trkpt lat="45.61863" lon="6.67752">
        <ele>1665</ele>
        <time>2020-01-15T08:32:22.000Z</time>
      </trkpt>
      <trkpt lat="45.61865" lon="6.67751">
        <ele>1665.4000244141</ele>
        <time>2020-01-15T08:32:25.000Z</time>
      </trkpt>
      <trkpt lat="45.61866" lon="6.67751">
        <ele>1665.5999755859</ele>
        <time>2020-01-15T08:32:27.000Z</time>
      </trkpt>
      <trkpt lat="45.61871" lon="6.67751">
        <ele>1666.4000244141</ele>
        <time>2020-01-15T08:32:34.000Z</time>
      </trkpt>
      <trkpt lat="45.61873" lon="6.6775">
        <ele>1666.4000244141</ele>
        <time>2020-01-15T08:32:36.000Z</time>
      </trkpt>
      <trkpt lat="45.61876" lon="6.6775">
        <ele>1666.5999755859</ele>
        <time>2020-01-15T08:32:39.000Z</time>
      </trkpt>
      <trkpt lat="45.61881" lon="6.67748">
        <ele>1667.1999511719</ele>
        <time>2020-01-15T08:32:45.000Z</time>
      </trkpt>
      <trkpt lat="45.61883" lon="6.67747">
        <ele>1667.4000244141</ele>
        <time>2020-01-15T08:32:48.000Z</time>
      </trkpt>
      <trkpt lat="45.61886" lon="6.67748">
        <ele>1667.8000488281</ele>
        <time>2020-01-15T08:32:53.000Z</time>
      </trkpt>
      <trkpt lat="45.61894" lon="6.67748">
        <ele>1668.5999755859</ele>
        <time>2020-01-15T08:33:00.000Z</time>
      </trkpt>
      <trkpt lat="45.61899" lon="6.67749">
        <ele>1668.8000488281</ele>
        <time>2020-01-15T08:33:05.000Z</time>
      </trkpt>
      <trkpt lat="45.61906" lon="6.67748">
        <ele>1669.1999511719</ele>
        <time>2020-01-15T08:33:11.000Z</time>
      </trkpt>
      <trkpt lat="45.61909" lon="6.67748">
        <ele>1669.5999755859</ele>
        <time>2020-01-15T08:33:15.000Z</time>
      </trkpt>
      <trkpt lat="45.6191" lon="6.67748">
        <ele>1669.8000488281</ele>
        <time>2020-01-15T08:33:16.000Z</time>
      </trkpt>
      <trkpt lat="45.61914" lon="6.67747">
        <ele>1670</ele>
        <time>2020-01-15T08:33:21.000Z</time>
      </trkpt>
      <trkpt lat="45.61918" lon="6.67747">
        <ele>1670.8000488281</ele>
        <time>2020-01-15T08:33:27.000Z</time>
      </trkpt>
      <trkpt lat="45.61923" lon="6.67748">
        <ele>1671.4000244141</ele>
        <time>2020-01-15T08:33:33.000Z</time>
      </trkpt>
      <trkpt lat="45.61924" lon="6.67747">
        <ele>1671.5999755859</ele>
        <time>2020-01-15T08:33:38.000Z</time>
      </trkpt>
      <trkpt lat="45.61925" lon="6.67747">
        <ele>1671.8000488281</ele>
        <time>2020-01-15T08:33:40.000Z</time>
      </trkpt>
      <trkpt lat="45.61928" lon="6.67747">
        <ele>1671.8000488281</ele>
        <time>2020-01-15T08:33:43.000Z</time>
      </trkpt>
      <trkpt lat="45.61932" lon="6.67748">
        <ele>1672.1999511719</ele>
        <time>2020-01-15T08:33:47.000Z</time>
      </trkpt>
      <trkpt lat="45.61938" lon="6.67749">
        <ele>1672.8000488281</ele>
        <time>2020-01-15T08:33:53.000Z</time>
      </trkpt>
      <trkpt lat="45.61939" lon="6.67749">
        <ele>1672.8000488281</ele>
        <time>2020-01-15T08:33:54.000Z</time>
      </trkpt>
      <trkpt lat="45.61944" lon="6.6775">
        <ele>1673.5999755859</ele>
        <time>2020-01-15T08:34:00.000Z</time>
      </trkpt>
      <trkpt lat="45.61951" lon="6.67752">
        <ele>1673.8000488281</ele>
        <time>2020-01-15T08:34:07.000Z</time>
      </trkpt>
      <trkpt lat="45.61955" lon="6.67754">
        <ele>1674.4000244141</ele>
        <time>2020-01-15T08:34:12.000Z</time>
      </trkpt>
      <trkpt lat="45.61958" lon="6.67754">
        <ele>1674.8000488281</ele>
        <time>2020-01-15T08:34:16.000Z</time>
      </trkpt>
      <trkpt lat="45.61959" lon="6.67754">
        <ele>1675</ele>
        <time>2020-01-15T08:34:17.000Z</time>
      </trkpt>
      <trkpt lat="45.61962" lon="6.67756">
        <ele>1675.1999511719</ele>
        <time>2020-01-15T08:34:21.000Z</time>
      </trkpt>
      <trkpt lat="45.61969" lon="6.67758">
        <ele>1675.5999755859</ele>
        <time>2020-01-15T08:34:28.000Z</time>
      </trkpt>
      <trkpt lat="45.61973" lon="6.67758">
        <ele>1676</ele>
        <time>2020-01-15T08:34:33.000Z</time>
      </trkpt>
      <trkpt lat="45.61978" lon="6.67759">
        <ele>1676.8000488281</ele>
        <time>2020-01-15T08:34:38.000Z</time>
      </trkpt>
      <trkpt lat="45.61983" lon="6.67758">
        <ele>1677</ele>
        <time>2020-01-15T08:34:44.000Z</time>
      </trkpt>
      <trkpt lat="45.61984" lon="6.67758">
        <ele>1677</ele>
        <time>2020-01-15T08:34:45.000Z</time>
      </trkpt>
      <trkpt lat="45.61987" lon="6.6776">
        <ele>1677.8000488281</ele>
        <time>2020-01-15T08:34:49.000Z</time>
      </trkpt>
      <trkpt lat="45.6199" lon="6.6776">
        <ele>1678</ele>
        <time>2020-01-15T08:34:52.000Z</time>
      </trkpt>
      <trkpt lat="45.61991" lon="6.6776">
        <ele>1678.1999511719</ele>
        <time>2020-01-15T08:34:53.000Z</time>
      </trkpt>
      <trkpt lat="45.61996" lon="6.67759">
        <ele>1678.8000488281</ele>
        <time>2020-01-15T08:34:59.000Z</time>
      </trkpt>
      <trkpt lat="45.61998" lon="6.67758">
        <ele>1679.1999511719</ele>
        <time>2020-01-15T08:35:01.000Z</time>
      </trkpt>
      <trkpt lat="45.62003" lon="6.67757">
        <ele>1679.5999755859</ele>
        <time>2020-01-15T08:35:06.000Z</time>
      </trkpt>
      <trkpt lat="45.62007" lon="6.67756">
        <ele>1680</ele>
        <time>2020-01-15T08:35:11.000Z</time>
      </trkpt>
      <trkpt lat="45.62007" lon="6.67757">
        <ele>1680.1999511719</ele>
        <time>2020-01-15T08:35:12.000Z</time>
      </trkpt>
      <trkpt lat="45.62012" lon="6.67757">
        <ele>1680.8000488281</ele>
        <time>2020-01-15T08:35:18.000Z</time>
      </trkpt>
      <trkpt lat="45.62016" lon="6.67758">
        <ele>1681.4000244141</ele>
        <time>2020-01-15T08:35:22.000Z</time>
      </trkpt>
      <trkpt lat="45.62017" lon="6.67758">
        <ele>1681.5999755859</ele>
        <time>2020-01-15T08:35:24.000Z</time>
      </trkpt>
      <trkpt lat="45.62022" lon="6.67758">
        <ele>1682.4000244141</ele>
        <time>2020-01-15T08:35:30.000Z</time>
      </trkpt>
      <trkpt lat="45.62024" lon="6.67758">
        <ele>1682.5999755859</ele>
        <time>2020-01-15T08:35:31.000Z</time>
      </trkpt>
      <trkpt lat="45.62027" lon="6.67759">
        <ele>1683.1999511719</ele>
        <time>2020-01-15T08:35:35.000Z</time>
      </trkpt>
      <trkpt lat="45.6203" lon="6.6776">
        <ele>1683.5999755859</ele>
        <time>2020-01-15T08:35:39.000Z</time>
      </trkpt>
      <trkpt lat="45.62032" lon="6.6776">
        <ele>1683.8000488281</ele>
        <time>2020-01-15T08:35:41.000Z</time>
      </trkpt>
      <trkpt lat="45.62037" lon="6.6776">
        <ele>1684.4000244141</ele>
        <time>2020-01-15T08:35:48.000Z</time>
      </trkpt>
      <trkpt lat="45.62038" lon="6.67761">
        <ele>1684.5999755859</ele>
        <time>2020-01-15T08:35:51.000Z</time>
      </trkpt>
      <trkpt lat="45.6204" lon="6.67761">
        <ele>1685.1999511719</ele>
        <time>2020-01-15T08:35:54.000Z</time>
      </trkpt>
      <trkpt lat="45.62045" lon="6.67761">
        <ele>1685.5999755859</ele>
        <time>2020-01-15T08:35:58.000Z</time>
      </trkpt>
      <trkpt lat="45.6205" lon="6.67762">
        <ele>1685.8000488281</ele>
        <time>2020-01-15T08:36:02.000Z</time>
      </trkpt>
      <trkpt lat="45.62051" lon="6.67762">
        <ele>1685.8000488281</ele>
        <time>2020-01-15T08:36:03.000Z</time>
      </trkpt>
      <trkpt lat="45.62056" lon="6.67762">
        <ele>1686</ele>
        <time>2020-01-15T08:36:08.000Z</time>
      </trkpt>
      <trkpt lat="45.62058" lon="6.67763">
        <ele>1686.1999511719</ele>
        <time>2020-01-15T08:36:12.000Z</time>
      </trkpt>
      <trkpt lat="45.62061" lon="6.67764">
        <ele>1686.8000488281</ele>
        <time>2020-01-15T08:36:19.000Z</time>
      </trkpt>
      <trkpt lat="45.62066" lon="6.67765">
        <ele>1687.1999511719</ele>
        <time>2020-01-15T08:36:25.000Z</time>
      </trkpt>
      <trkpt lat="45.62071" lon="6.67765">
        <ele>1687.4000244141</ele>
        <time>2020-01-15T08:36:30.000Z</time>
      </trkpt>
      <trkpt lat="45.62076" lon="6.67765">
        <ele>1687.8000488281</ele>
        <time>2020-01-15T08:36:35.000Z</time>
      </trkpt>
      <trkpt lat="45.62077" lon="6.67766">
        <ele>1688</ele>
        <time>2020-01-15T08:36:36.000Z</time>
      </trkpt>
      <trkpt lat="45.62082" lon="6.67767">
        <ele>1688.5999755859</ele>
        <time>2020-01-15T08:36:42.000Z</time>
      </trkpt>
      <trkpt lat="45.62086" lon="6.67767">
        <ele>1688.8000488281</ele>
        <time>2020-01-15T08:36:48.000Z</time>
      </trkpt>
      <trkpt lat="45.62089" lon="6.67768">
        <ele>1689</ele>
        <time>2020-01-15T08:36:51.000Z</time>
      </trkpt>
      <trkpt lat="45.62093" lon="6.67767">
        <ele>1689.5999755859</ele>
        <time>2020-01-15T08:36:55.000Z</time>
      </trkpt>
      <trkpt lat="45.62099" lon="6.67767">
        <ele>1690</ele>
        <time>2020-01-15T08:37:02.000Z</time>
      </trkpt>
      <trkpt lat="45.62102" lon="6.6777">
        <ele>1690.4000244141</ele>
        <time>2020-01-15T08:37:06.000Z</time>
      </trkpt>
      <trkpt lat="45.62108" lon="6.67771">
        <ele>1691</ele>
        <time>2020-01-15T08:37:12.000Z</time>
      </trkpt>
      <trkpt lat="45.62108" lon="6.67771">
        <ele>1691.1999511719</ele>
        <time>2020-01-15T08:37:13.000Z</time>
      </trkpt>
      <trkpt lat="45.62111" lon="6.67772">
        <ele>1691.8000488281</ele>
        <time>2020-01-15T08:37:17.000Z</time>
      </trkpt>
      <trkpt lat="45.62115" lon="6.67773">
        <ele>1692.1999511719</ele>
        <time>2020-01-15T08:37:20.000Z</time>
      </trkpt>
      <trkpt lat="45.62118" lon="6.67773">
        <ele>1692.5999755859</ele>
        <time>2020-01-15T08:37:23.000Z</time>
      </trkpt>
      <trkpt lat="45.62122" lon="6.67773">
        <ele>1693</ele>
        <time>2020-01-15T08:37:28.000Z</time>
      </trkpt>
      <trkpt lat="45.62123" lon="6.67772">
        <ele>1693.4000244141</ele>
        <time>2020-01-15T08:37:31.000Z</time>
      </trkpt>
      <trkpt lat="45.62125" lon="6.67771">
        <ele>1693.5999755859</ele>
        <time>2020-01-15T08:37:33.000Z</time>
      </trkpt>
      <trkpt lat="45.62128" lon="6.67774">
        <ele>1693.8000488281</ele>
        <time>2020-01-15T08:37:38.000Z</time>
      </trkpt>
      <trkpt lat="45.62131" lon="6.67775">
        <ele>1694.1999511719</ele>
        <time>2020-01-15T08:37:41.000Z</time>
      </trkpt>
      <trkpt lat="45.62133" lon="6.67776">
        <ele>1694.4000244141</ele>
        <time>2020-01-15T08:37:43.000Z</time>
      </trkpt>
      <trkpt lat="45.62133" lon="6.67776">
        <ele>1694.4000244141</ele>
        <time>2020-01-15T08:37:44.000Z</time>
      </trkpt>
      <trkpt lat="45.62136" lon="6.67779">
        <ele>1695</ele>
        <time>2020-01-15T08:37:48.000Z</time>
      </trkpt>
      <trkpt lat="45.6214" lon="6.67781">
        <ele>1695.4000244141</ele>
        <time>2020-01-15T08:37:52.000Z</time>
      </trkpt>
      <trkpt lat="45.62141" lon="6.67781">
        <ele>1695.5999755859</ele>
        <time>2020-01-15T08:37:53.000Z</time>
      </trkpt>
      <trkpt lat="45.62146" lon="6.67783">
        <ele>1696</ele>
        <time>2020-01-15T08:37:59.000Z</time>
      </trkpt>
      <trkpt lat="45.62151" lon="6.67784">
        <ele>1696.5999755859</ele>
        <time>2020-01-15T08:38:04.000Z</time>
      </trkpt>
      <trkpt lat="45.6215" lon="6.67784">
        <ele>1696.5999755859</ele>
        <time>2020-01-15T08:38:05.000Z</time>
      </trkpt>
      <trkpt lat="45.62155" lon="6.67785">
        <ele>1697.4000244141</ele>
        <time>2020-01-15T08:38:10.000Z</time>
      </trkpt>
      <trkpt lat="45.62156" lon="6.67785">
        <ele>1697.5999755859</ele>
        <time>2020-01-15T08:38:11.000Z</time>
      </trkpt>
      <trkpt lat="45.62159" lon="6.67785">
        <ele>1697.8000488281</ele>
        <time>2020-01-15T08:38:14.000Z</time>
      </trkpt>
      <trkpt lat="45.6216" lon="6.67785">
        <ele>1698</ele>
        <time>2020-01-15T08:38:16.000Z</time>
      </trkpt>
      <trkpt lat="45.62163" lon="6.67786">
        <ele>1698.1999511719</ele>
        <time>2020-01-15T08:38:21.000Z</time>
      </trkpt>
      <trkpt lat="45.62166" lon="6.67786">
        <ele>1698.5999755859</ele>
        <time>2020-01-15T08:38:24.000Z</time>
      </trkpt>
      <trkpt lat="45.62169" lon="6.67786">
        <ele>1698.8000488281</ele>
        <time>2020-01-15T08:38:27.000Z</time>
      </trkpt>
      <trkpt lat="45.62174" lon="6.67789">
        <ele>1699.5999755859</ele>
        <time>2020-01-15T08:38:33.000Z</time>
      </trkpt>
      <trkpt lat="45.62179" lon="6.67789">
        <ele>1700.1999511719</ele>
        <time>2020-01-15T08:38:38.000Z</time>
      </trkpt>
      <trkpt lat="45.62182" lon="6.67791">
        <ele>1700.5999755859</ele>
        <time>2020-01-15T08:38:43.000Z</time>
      </trkpt>
      <trkpt lat="45.62183" lon="6.67793">
        <ele>1701</ele>
        <time>2020-01-15T08:38:45.000Z</time>
      </trkpt>
      <trkpt lat="45.62187" lon="6.67792">
        <ele>1701.5999755859</ele>
        <time>2020-01-15T08:38:51.000Z</time>
      </trkpt>
      <trkpt lat="45.62189" lon="6.67792">
        <ele>1701.8000488281</ele>
        <time>2020-01-15T08:38:52.000Z</time>
      </trkpt>
      <trkpt lat="45.62194" lon="6.67793">
        <ele>1702.5999755859</ele>
        <time>2020-01-15T08:38:58.000Z</time>
      </trkpt>
      <trkpt lat="45.62197" lon="6.67792">
        <ele>1702.8000488281</ele>
        <time>2020-01-15T08:39:01.000Z</time>
      </trkpt>
      <trkpt lat="45.62198" lon="6.67792">
        <ele>1703.1999511719</ele>
        <time>2020-01-15T08:39:03.000Z</time>
      </trkpt>
      <trkpt lat="45.62203" lon="6.67793">
        <ele>1703.8000488281</ele>
        <time>2020-01-15T08:39:08.000Z</time>
      </trkpt>
      <trkpt lat="45.62204" lon="6.67793">
        <ele>1704</ele>
        <time>2020-01-15T08:39:10.000Z</time>
      </trkpt>
      <trkpt lat="45.62209" lon="6.67794">
        <ele>1705</ele>
        <time>2020-01-15T08:39:15.000Z</time>
      </trkpt>
      <trkpt lat="45.62214" lon="6.67796">
        <ele>1705.8000488281</ele>
        <time>2020-01-15T08:39:21.000Z</time>
      </trkpt>
      <trkpt lat="45.62215" lon="6.67796">
        <ele>1706.1999511719</ele>
        <time>2020-01-15T08:39:23.000Z</time>
      </trkpt>
      <trkpt lat="45.62218" lon="6.67796">
        <ele>1706.4000244141</ele>
        <time>2020-01-15T08:39:27.000Z</time>
      </trkpt>
      <trkpt lat="45.62222" lon="6.67797">
        <ele>1707.1999511719</ele>
        <time>2020-01-15T08:39:32.000Z</time>
      </trkpt>
      <trkpt lat="45.62223" lon="6.67797">
        <ele>1707.1999511719</ele>
        <time>2020-01-15T08:39:33.000Z</time>
      </trkpt>
      <trkpt lat="45.62227" lon="6.678">
        <ele>1708</ele>
        <time>2020-01-15T08:39:40.000Z</time>
      </trkpt>
      <trkpt lat="45.62229" lon="6.678">
        <ele>1708.1999511719</ele>
        <time>2020-01-15T08:39:42.000Z</time>
      </trkpt>
      <trkpt lat="45.62231" lon="6.678">
        <ele>1708.8000488281</ele>
        <time>2020-01-15T08:39:46.000Z</time>
      </trkpt>
      <trkpt lat="45.62237" lon="6.67803">
        <ele>1709</ele>
        <time>2020-01-15T08:39:50.000Z</time>
      </trkpt>
      <trkpt lat="45.62237" lon="6.67803">
        <ele>1709.1999511719</ele>
        <time>2020-01-15T08:39:51.000Z</time>
      </trkpt>
      <trkpt lat="45.62241" lon="6.67803">
        <ele>1709.8000488281</ele>
        <time>2020-01-15T08:39:55.000Z</time>
      </trkpt>
      <trkpt lat="45.62248" lon="6.67803">
        <ele>1710.1999511719</ele>
        <time>2020-01-15T08:40:01.000Z</time>
      </trkpt>
      <trkpt lat="45.62249" lon="6.67803">
        <ele>1710.4000244141</ele>
        <time>2020-01-15T08:40:03.000Z</time>
      </trkpt>
      <trkpt lat="45.62255" lon="6.678">
        <ele>1710.8000488281</ele>
        <time>2020-01-15T08:40:08.000Z</time>
      </trkpt>
      <trkpt lat="45.62258" lon="6.678">
        <ele>1711.4000244141</ele>
        <time>2020-01-15T08:40:12.000Z</time>
      </trkpt>
      <trkpt lat="45.6226" lon="6.67801">
        <ele>1711.4000244141</ele>
        <time>2020-01-15T08:40:14.000Z</time>
      </trkpt>
      <trkpt lat="45.62265" lon="6.67799">
        <ele>1712.1999511719</ele>
        <time>2020-01-15T08:40:21.000Z</time>
      </trkpt>
      <trkpt lat="45.62265" lon="6.678">
        <ele>1712.4000244141</ele>
        <time>2020-01-15T08:40:22.000Z</time>
      </trkpt>
      <trkpt lat="45.6227" lon="6.678">
        <ele>1713</ele>
        <time>2020-01-15T08:40:27.000Z</time>
      </trkpt>
      <trkpt lat="45.62274" lon="6.67799">
        <ele>1713.5999755859</ele>
        <time>2020-01-15T08:40:32.000Z</time>
      </trkpt>
      <trkpt lat="45.62275" lon="6.67799">
        <ele>1713.5999755859</ele>
        <time>2020-01-15T08:40:33.000Z</time>
      </trkpt>
      <trkpt lat="45.62277" lon="6.67799">
        <ele>1714.5999755859</ele>
        <time>2020-01-15T08:40:38.000Z</time>
      </trkpt>
      <trkpt lat="45.62278" lon="6.67799">
        <ele>1714.8000488281</ele>
        <time>2020-01-15T08:40:39.000Z</time>
      </trkpt>
      <trkpt lat="45.62283" lon="6.67798">
        <ele>1715.1999511719</ele>
        <time>2020-01-15T08:40:45.000Z</time>
      </trkpt>
      <trkpt lat="45.62286" lon="6.67799">
        <ele>1715.5999755859</ele>
        <time>2020-01-15T08:40:49.000Z</time>
      </trkpt>
      <trkpt lat="45.62286" lon="6.678">
        <ele>1715.5999755859</ele>
        <time>2020-01-15T08:40:50.000Z</time>
      </trkpt>
      <trkpt lat="45.62291" lon="6.67797">
        <ele>1716.4000244141</ele>
        <time>2020-01-15T08:40:56.000Z</time>
      </trkpt>
      <trkpt lat="45.62293" lon="6.67797">
        <ele>1716.8000488281</ele>
        <time>2020-01-15T08:40:58.000Z</time>
      </trkpt>
      <trkpt lat="45.62296" lon="6.67798">
        <ele>1717</ele>
        <time>2020-01-15T08:41:02.000Z</time>
      </trkpt>
      <trkpt lat="45.62304" lon="6.67798">
        <ele>1717.8000488281</ele>
        <time>2020-01-15T08:41:09.000Z</time>
      </trkpt>
      <trkpt lat="45.62304" lon="6.67799">
        <ele>1717.8000488281</ele>
        <time>2020-01-15T08:41:10.000Z</time>
      </trkpt>
      <trkpt lat="45.62309" lon="6.67799">
        <ele>1718.4000244141</ele>
        <time>2020-01-15T08:41:15.000Z</time>
      </trkpt>
      <trkpt lat="45.62312" lon="6.67798">
        <ele>1719</ele>
        <time>2020-01-15T08:41:19.000Z</time>
      </trkpt>
      <trkpt lat="45.62313" lon="6.67798">
        <ele>1719</ele>
        <time>2020-01-15T08:41:20.000Z</time>
      </trkpt>
      <trkpt lat="45.62317" lon="6.67797">
        <ele>1720</ele>
        <time>2020-01-15T08:41:25.000Z</time>
      </trkpt>
      <trkpt lat="45.62319" lon="6.67798">
        <ele>1720.1999511719</ele>
        <time>2020-01-15T08:41:27.000Z</time>
      </trkpt>
      <trkpt lat="45.62323" lon="6.67795">
        <ele>1720.5999755859</ele>
        <time>2020-01-15T08:41:32.000Z</time>
      </trkpt>
      <trkpt lat="45.62329" lon="6.67794">
        <ele>1720.5999755859</ele>
        <time>2020-01-15T08:41:38.000Z</time>
      </trkpt>
      <trkpt lat="45.62335" lon="6.67793">
        <ele>1721</ele>
        <time>2020-01-15T08:41:44.000Z</time>
      </trkpt>
      <trkpt lat="45.62335" lon="6.67792">
        <ele>1721.1999511719</ele>
        <time>2020-01-15T08:41:45.000Z</time>
      </trkpt>
      <trkpt lat="45.62338" lon="6.67793">
        <ele>1722</ele>
        <time>2020-01-15T08:41:48.000Z</time>
      </trkpt>
      <trkpt lat="45.62342" lon="6.6779">
        <ele>1722.5999755859</ele>
        <time>2020-01-15T08:41:53.000Z</time>
      </trkpt>
      <trkpt lat="45.62343" lon="6.67789">
        <ele>1723</ele>
        <time>2020-01-15T08:41:56.000Z</time>
      </trkpt>
      <trkpt lat="45.62348" lon="6.67787">
        <ele>1723.5999755859</ele>
        <time>2020-01-15T08:42:00.000Z</time>
      </trkpt>
      <trkpt lat="45.62355" lon="6.67785">
        <ele>1724.1999511719</ele>
        <time>2020-01-15T08:42:07.000Z</time>
      </trkpt>
      <trkpt lat="45.62357" lon="6.67784">
        <ele>1724.1999511719</ele>
        <time>2020-01-15T08:42:09.000Z</time>
      </trkpt>
      <trkpt lat="45.62363" lon="6.67782">
        <ele>1724.8000488281</ele>
        <time>2020-01-15T08:42:15.000Z</time>
      </trkpt>
      <trkpt lat="45.62369" lon="6.67779">
        <ele>1725.1999511719</ele>
        <time>2020-01-15T08:42:20.000Z</time>
      </trkpt>
      <trkpt lat="45.62372" lon="6.67777">
        <ele>1725.1999511719</ele>
        <time>2020-01-15T08:42:23.000Z</time>
      </trkpt>
      <trkpt lat="45.62376" lon="6.67776">
        <ele>1725.1999511719</ele>
        <time>2020-01-15T08:42:29.000Z</time>
      </trkpt>
      <trkpt lat="45.6238" lon="6.67774">
        <ele>1725.8000488281</ele>
        <time>2020-01-15T08:42:35.000Z</time>
      </trkpt>
      <trkpt lat="45.62383" lon="6.67773">
        <ele>1726.1999511719</ele>
        <time>2020-01-15T08:42:39.000Z</time>
      </trkpt>
      <trkpt lat="45.62384" lon="6.67772">
        <ele>1726.5999755859</ele>
        <time>2020-01-15T08:42:41.000Z</time>
      </trkpt>
      <trkpt lat="45.62386" lon="6.67772">
        <ele>1727.4000244141</ele>
        <time>2020-01-15T08:42:44.000Z</time>
      </trkpt>
      <trkpt lat="45.6239" lon="6.6777">
        <ele>1727.8000488281</ele>
        <time>2020-01-15T08:42:47.000Z</time>
      </trkpt>
      <trkpt lat="45.62395" lon="6.6777">
        <ele>1728.4000244141</ele>
        <time>2020-01-15T08:42:53.000Z</time>
      </trkpt>
      <trkpt lat="45.62396" lon="6.6777">
        <ele>1728.5999755859</ele>
        <time>2020-01-15T08:42:54.000Z</time>
      </trkpt>
      <trkpt lat="45.624" lon="6.67769">
        <ele>1729</ele>
        <time>2020-01-15T08:42:59.000Z</time>
      </trkpt>
      <trkpt lat="45.62405" lon="6.6777">
        <ele>1729.1999511719</ele>
        <time>2020-01-15T08:43:05.000Z</time>
      </trkpt>
      <trkpt lat="45.62407" lon="6.6777">
        <ele>1729.5999755859</ele>
        <time>2020-01-15T08:43:07.000Z</time>
      </trkpt>
      <trkpt lat="45.62411" lon="6.67768">
        <ele>1729.8000488281</ele>
        <time>2020-01-15T08:43:11.000Z</time>
      </trkpt>
      <trkpt lat="45.62413" lon="6.67768">
        <ele>1729.8000488281</ele>
        <time>2020-01-15T08:43:16.000Z</time>
      </trkpt>
      <trkpt lat="45.62419" lon="6.67763">
        <ele>1730.5999755859</ele>
        <time>2020-01-15T08:43:22.000Z</time>
      </trkpt>
      <trkpt lat="45.62422" lon="6.67764">
        <ele>1731</ele>
        <time>2020-01-15T08:43:27.000Z</time>
      </trkpt>
      <trkpt lat="45.62426" lon="6.67764">
        <ele>1731.5999755859</ele>
        <time>2020-01-15T08:43:33.000Z</time>
      </trkpt>
      <trkpt lat="45.62426" lon="6.67764">
        <ele>1731.8000488281</ele>
        <time>2020-01-15T08:43:34.000Z</time>
      </trkpt>
      <trkpt lat="45.62431" lon="6.67766">
        <ele>1732.8000488281</ele>
        <time>2020-01-15T08:43:41.000Z</time>
      </trkpt>
      <trkpt lat="45.62431" lon="6.67766">
        <ele>1732.8000488281</ele>
        <time>2020-01-15T08:43:42.000Z</time>
      </trkpt>
      <trkpt lat="45.62435" lon="6.67769">
        <ele>1734</ele>
        <time>2020-01-15T08:43:47.000Z</time>
      </trkpt>
      <trkpt lat="45.62437" lon="6.67769">
        <ele>1734.4000244141</ele>
        <time>2020-01-15T08:43:49.000Z</time>
      </trkpt>
      <trkpt lat="45.6244" lon="6.67767">
        <ele>1735</ele>
        <time>2020-01-15T08:43:53.000Z</time>
      </trkpt>
      <trkpt lat="45.62441" lon="6.67767">
        <ele>1735.1999511719</ele>
        <time>2020-01-15T08:43:54.000Z</time>
      </trkpt>
      <trkpt lat="45.62445" lon="6.67768">
        <ele>1735.8000488281</ele>
        <time>2020-01-15T08:44:00.000Z</time>
      </trkpt>
      <trkpt lat="45.62446" lon="6.67769">
        <ele>1736</ele>
        <time>2020-01-15T08:44:01.000Z</time>
      </trkpt>
      <trkpt lat="45.62447" lon="6.6777">
        <ele>1736.1999511719</ele>
        <time>2020-01-15T08:44:02.000Z</time>
      </trkpt>
      <trkpt lat="45.62449" lon="6.67771">
        <ele>1736.8000488281</ele>
        <time>2020-01-15T08:44:05.000Z</time>
      </trkpt>
      <trkpt lat="45.6245" lon="6.67771">
        <ele>1737.1999511719</ele>
        <time>2020-01-15T08:44:08.000Z</time>
      </trkpt>
      <trkpt lat="45.62453" lon="6.67773">
        <ele>1737.8000488281</ele>
        <time>2020-01-15T08:44:11.000Z</time>
      </trkpt>
      <trkpt lat="45.62458" lon="6.67774">
        <ele>1738</ele>
        <time>2020-01-15T08:44:16.000Z</time>
      </trkpt>
      <trkpt lat="45.62461" lon="6.67774">
        <ele>1738.1999511719</ele>
        <time>2020-01-15T08:44:20.000Z</time>
      </trkpt>
      <trkpt lat="45.62464" lon="6.67774">
        <ele>1738.5999755859</ele>
        <time>2020-01-15T08:44:22.000Z</time>
      </trkpt>
      <trkpt lat="45.62468" lon="6.67773">
        <ele>1739.4000244141</ele>
        <time>2020-01-15T08:44:27.000Z</time>
      </trkpt>
      <trkpt lat="45.62472" lon="6.67772">
        <ele>1740</ele>
        <time>2020-01-15T08:44:33.000Z</time>
      </trkpt>
      <trkpt lat="45.62473" lon="6.67771">
        <ele>1741</ele>
        <time>2020-01-15T08:44:35.000Z</time>
      </trkpt>
      <trkpt lat="45.62473" lon="6.67771">
        <ele>1741.5999755859</ele>
        <time>2020-01-15T08:44:40.000Z</time>
      </trkpt>
      <trkpt lat="45.62478" lon="6.6777">
        <ele>1742</ele>
        <time>2020-01-15T08:44:45.000Z</time>
      </trkpt>
      <trkpt lat="45.62479" lon="6.67769">
        <ele>1742.1999511719</ele>
        <time>2020-01-15T08:44:46.000Z</time>
      </trkpt>
      <trkpt lat="45.62486" lon="6.67767">
        <ele>1742.8000488281</ele>
        <time>2020-01-15T08:44:52.000Z</time>
      </trkpt>
      <trkpt lat="45.62486" lon="6.67767">
        <ele>1743</ele>
        <time>2020-01-15T08:44:54.000Z</time>
      </trkpt>
      <trkpt lat="45.62488" lon="6.67767">
        <ele>1743.1999511719</ele>
        <time>2020-01-15T08:44:55.000Z</time>
      </trkpt>
      <trkpt lat="45.62488" lon="6.67767">
        <ele>1743.4000244141</ele>
        <time>2020-01-15T08:44:56.000Z</time>
      </trkpt>
      <trkpt lat="45.62491" lon="6.67765">
        <ele>1744.4000244141</ele>
        <time>2020-01-15T08:45:01.000Z</time>
      </trkpt>
      <trkpt lat="45.62494" lon="6.67764">
        <ele>1744.8000488281</ele>
        <time>2020-01-15T08:45:03.000Z</time>
      </trkpt>
      <trkpt lat="45.62496" lon="6.67763">
        <ele>1745.4000244141</ele>
        <time>2020-01-15T08:45:05.000Z</time>
      </trkpt>
      <trkpt lat="45.62499" lon="6.67761">
        <ele>1745.8000488281</ele>
        <time>2020-01-15T08:45:08.000Z</time>
      </trkpt>
      <trkpt lat="45.62502" lon="6.67759">
        <ele>1746.4000244141</ele>
        <time>2020-01-15T08:45:13.000Z</time>
      </trkpt>
      <trkpt lat="45.62508" lon="6.67754">
        <ele>1747.4000244141</ele>
        <time>2020-01-15T08:45:19.000Z</time>
      </trkpt>
      <trkpt lat="45.62508" lon="6.67754">
        <ele>1747.5999755859</ele>
        <time>2020-01-15T08:45:20.000Z</time>
      </trkpt>
      <trkpt lat="45.62511" lon="6.6775">
        <ele>1748.1999511719</ele>
        <time>2020-01-15T08:45:25.000Z</time>
      </trkpt>
      <trkpt lat="45.62517" lon="6.67746">
        <ele>1748.5999755859</ele>
        <time>2020-01-15T08:45:31.000Z</time>
      </trkpt>
      <trkpt lat="45.62523" lon="6.67743">
        <ele>1749</ele>
        <time>2020-01-15T08:45:37.000Z</time>
      </trkpt>
      <trkpt lat="45.62526" lon="6.67739">
        <ele>1749.5999755859</ele>
        <time>2020-01-15T08:45:43.000Z</time>
      </trkpt>
      <trkpt lat="45.6253" lon="6.67737">
        <ele>1750.5999755859</ele>
        <time>2020-01-15T08:45:49.000Z</time>
      </trkpt>
      <trkpt lat="45.62536" lon="6.67733">
        <ele>1751</ele>
        <time>2020-01-15T08:45:54.000Z</time>
      </trkpt>
      <trkpt lat="45.6254" lon="6.67729">
        <ele>1751.5999755859</ele>
        <time>2020-01-15T08:45:58.000Z</time>
      </trkpt>
      <trkpt lat="45.62541" lon="6.67728">
        <ele>1751.8000488281</ele>
        <time>2020-01-15T08:45:59.000Z</time>
      </trkpt>
      <trkpt lat="45.62545" lon="6.67727">
        <ele>1752.4000244141</ele>
        <time>2020-01-15T08:46:04.000Z</time>
      </trkpt>
      <trkpt lat="45.62548" lon="6.67727">
        <ele>1752.8000488281</ele>
        <time>2020-01-15T08:46:07.000Z</time>
      </trkpt>
      <trkpt lat="45.62549" lon="6.67726">
        <ele>1753</ele>
        <time>2020-01-15T08:46:10.000Z</time>
      </trkpt>
      <trkpt lat="45.62552" lon="6.67726">
        <ele>1753.5999755859</ele>
        <time>2020-01-15T08:46:12.000Z</time>
      </trkpt>
      <trkpt lat="45.62553" lon="6.67725">
        <ele>1754</ele>
        <time>2020-01-15T08:46:14.000Z</time>
      </trkpt>
      <trkpt lat="45.62553" lon="6.67725">
        <ele>1754.4000244141</ele>
        <time>2020-01-15T08:46:16.000Z</time>
      </trkpt>
      <trkpt lat="45.62558" lon="6.67723">
        <ele>1754.8000488281</ele>
        <time>2020-01-15T08:46:21.000Z</time>
      </trkpt>
      <trkpt lat="45.6256" lon="6.67721">
        <ele>1755</ele>
        <time>2020-01-15T08:46:25.000Z</time>
      </trkpt>
      <trkpt lat="45.62562" lon="6.67719">
        <ele>1755</ele>
        <time>2020-01-15T08:46:26.000Z</time>
      </trkpt>
      <trkpt lat="45.62563" lon="6.67717">
        <ele>1755.1999511719</ele>
        <time>2020-01-15T08:46:27.000Z</time>
      </trkpt>
      <trkpt lat="45.62568" lon="6.67713">
        <ele>1755.5999755859</ele>
        <time>2020-01-15T08:46:32.000Z</time>
      </trkpt>
      <trkpt lat="45.6257" lon="6.67714">
        <ele>1756</ele>
        <time>2020-01-15T08:46:36.000Z</time>
      </trkpt>
      <trkpt lat="45.6257" lon="6.67714">
        <ele>1756.1999511719</ele>
        <time>2020-01-15T08:46:37.000Z</time>
      </trkpt>
      <trkpt lat="45.62576" lon="6.67715">
        <ele>1757.1999511719</ele>
        <time>2020-01-15T08:46:44.000Z</time>
      </trkpt>
      <trkpt lat="45.62581" lon="6.67715">
        <ele>1758</ele>
        <time>2020-01-15T08:46:48.000Z</time>
      </trkpt>
      <trkpt lat="45.62581" lon="6.67715">
        <ele>1758.1999511719</ele>
        <time>2020-01-15T08:46:49.000Z</time>
      </trkpt>
      <trkpt lat="45.62581" lon="6.67715">
        <ele>1758.4000244141</ele>
        <time>2020-01-15T08:46:50.000Z</time>
      </trkpt>
      <trkpt lat="45.62585" lon="6.67713">
        <ele>1759.4000244141</ele>
        <time>2020-01-15T08:46:54.000Z</time>
      </trkpt>
      <trkpt lat="45.62585" lon="6.67713">
        <ele>1759.8000488281</ele>
        <time>2020-01-15T08:46:55.000Z</time>
      </trkpt>
      <trkpt lat="45.62588" lon="6.67712">
        <ele>1761</ele>
        <time>2020-01-15T08:46:59.000Z</time>
      </trkpt>
      <trkpt lat="45.6259" lon="6.67711">
        <ele>1761.4000244141</ele>
        <time>2020-01-15T08:47:01.000Z</time>
      </trkpt>
      <trkpt lat="45.62594" lon="6.67711">
        <ele>1762.1999511719</ele>
        <time>2020-01-15T08:47:07.000Z</time>
      </trkpt>
      <trkpt lat="45.626" lon="6.67712">
        <ele>1763.4000244141</ele>
        <time>2020-01-15T08:47:13.000Z</time>
      </trkpt>
      <trkpt lat="45.62605" lon="6.6771">
        <ele>1764.1999511719</ele>
        <time>2020-01-15T08:47:18.000Z</time>
      </trkpt>
      <trkpt lat="45.62607" lon="6.6771">
        <ele>1764.5999755859</ele>
        <time>2020-01-15T08:47:21.000Z</time>
      </trkpt>
      <trkpt lat="45.62611" lon="6.6771">
        <ele>1765</ele>
        <time>2020-01-15T08:47:24.000Z</time>
      </trkpt>
      <trkpt lat="45.62613" lon="6.67708">
        <ele>1765.5999755859</ele>
        <time>2020-01-15T08:47:28.000Z</time>
      </trkpt>
      <trkpt lat="45.62616" lon="6.67707">
        <ele>1765.5999755859</ele>
        <time>2020-01-15T08:47:30.000Z</time>
      </trkpt>
      <trkpt lat="45.62619" lon="6.67705">
        <ele>1766.4000244141</ele>
        <time>2020-01-15T08:47:35.000Z</time>
      </trkpt>
      <trkpt lat="45.62623" lon="6.67702">
        <ele>1766.5999755859</ele>
        <time>2020-01-15T08:47:39.000Z</time>
      </trkpt>
      <trkpt lat="45.62624" lon="6.67702">
        <ele>1766.5999755859</ele>
        <time>2020-01-15T08:47:40.000Z</time>
      </trkpt>
      <trkpt lat="45.62627" lon="6.67701">
        <ele>1767.1999511719</ele>
        <time>2020-01-15T08:47:45.000Z</time>
      </trkpt>
      <trkpt lat="45.6263" lon="6.67701">
        <ele>1767.5999755859</ele>
        <time>2020-01-15T08:47:48.000Z</time>
      </trkpt>
      <trkpt lat="45.62631" lon="6.67699">
        <ele>1767.8000488281</ele>
        <time>2020-01-15T08:47:51.000Z</time>
      </trkpt>
      <trkpt lat="45.62635" lon="6.67698">
        <ele>1768.8000488281</ele>
        <time>2020-01-15T08:47:56.000Z</time>
      </trkpt>
      <trkpt lat="45.6264" lon="6.67695">
        <ele>1769.8000488281</ele>
        <time>2020-01-15T08:48:03.000Z</time>
      </trkpt>
      <trkpt lat="45.62645" lon="6.67691">
        <ele>1770.8000488281</ele>
        <time>2020-01-15T08:48:09.000Z</time>
      </trkpt>
      <trkpt lat="45.62646" lon="6.67691">
        <ele>1771</ele>
        <time>2020-01-15T08:48:10.000Z</time>
      </trkpt>
      <trkpt lat="45.62649" lon="6.67689">
        <ele>1772</ele>
        <time>2020-01-15T08:48:15.000Z</time>
      </trkpt>
      <trkpt lat="45.62651" lon="6.67688">
        <ele>1772.1999511719</ele>
        <time>2020-01-15T08:48:16.000Z</time>
      </trkpt>
      <trkpt lat="45.62655" lon="6.67686">
        <ele>1772.8000488281</ele>
        <time>2020-01-15T08:48:21.000Z</time>
      </trkpt>
      <trkpt lat="45.62658" lon="6.67683">
        <ele>1773</ele>
        <time>2020-01-15T08:48:24.000Z</time>
      </trkpt>
      <trkpt lat="45.62658" lon="6.67683">
        <ele>1773</ele>
        <time>2020-01-15T08:48:25.000Z</time>
      </trkpt>
      <trkpt lat="45.6266" lon="6.67683">
        <ele>1773.1999511719</ele>
        <time>2020-01-15T08:48:28.000Z</time>
      </trkpt>
      <trkpt lat="45.62663" lon="6.67681">
        <ele>1774.1999511719</ele>
        <time>2020-01-15T08:48:34.000Z</time>
      </trkpt>
      <trkpt lat="45.62667" lon="6.67676">
        <ele>1774.8000488281</ele>
        <time>2020-01-15T08:48:39.000Z</time>
      </trkpt>
      <trkpt lat="45.6267" lon="6.67676">
        <ele>1775.1999511719</ele>
        <time>2020-01-15T08:48:42.000Z</time>
      </trkpt>
      <trkpt lat="45.62672" lon="6.67674">
        <ele>1775.5999755859</ele>
        <time>2020-01-15T08:48:45.000Z</time>
      </trkpt>
      <trkpt lat="45.62676" lon="6.67672">
        <ele>1776.1999511719</ele>
        <time>2020-01-15T08:48:51.000Z</time>
      </trkpt>
      <trkpt lat="45.62676" lon="6.67671">
        <ele>1776.1999511719</ele>
        <time>2020-01-15T08:48:52.000Z</time>
      </trkpt>
      <trkpt lat="45.62679" lon="6.67668">
        <ele>1777</ele>
        <time>2020-01-15T08:48:57.000Z</time>
      </trkpt>
      <trkpt lat="45.62682" lon="6.67667">
        <ele>1777.5999755859</ele>
        <time>2020-01-15T08:48:59.000Z</time>
      </trkpt>
      <trkpt lat="45.62686" lon="6.67667">
        <ele>1778.1999511719</ele>
        <time>2020-01-15T08:49:03.000Z</time>
      </trkpt>
      <trkpt lat="45.62687" lon="6.67666">
        <ele>1778.5999755859</ele>
        <time>2020-01-15T08:49:05.000Z</time>
      </trkpt>
      <trkpt lat="45.62691" lon="6.67665">
        <ele>1779.1999511719</ele>
        <time>2020-01-15T08:49:09.000Z</time>
      </trkpt>
      <trkpt lat="45.62694" lon="6.67663">
        <ele>1779.5999755859</ele>
        <time>2020-01-15T08:49:12.000Z</time>
      </trkpt>
      <trkpt lat="45.62696" lon="6.67662">
        <ele>1780.1999511719</ele>
        <time>2020-01-15T08:49:16.000Z</time>
      </trkpt>
      <trkpt lat="45.627" lon="6.67659">
        <ele>1780.5999755859</ele>
        <time>2020-01-15T08:49:21.000Z</time>
      </trkpt>
      <trkpt lat="45.62702" lon="6.67658">
        <ele>1780.8000488281</ele>
        <time>2020-01-15T08:49:23.000Z</time>
      </trkpt>
      <trkpt lat="45.62703" lon="6.67656">
        <ele>1781</ele>
        <time>2020-01-15T08:49:26.000Z</time>
      </trkpt>
      <trkpt lat="45.62707" lon="6.67658">
        <ele>1781.8000488281</ele>
        <time>2020-01-15T08:49:31.000Z</time>
      </trkpt>
      <trkpt lat="45.62707" lon="6.67659">
        <ele>1781.8000488281</ele>
        <time>2020-01-15T08:49:32.000Z</time>
      </trkpt>
      <trkpt lat="45.6271" lon="6.67659">
        <ele>1782.8000488281</ele>
        <time>2020-01-15T08:49:36.000Z</time>
      </trkpt>
      <trkpt lat="45.62712" lon="6.6766">
        <ele>1783</ele>
        <time>2020-01-15T08:49:37.000Z</time>
      </trkpt>
      <trkpt lat="45.62716" lon="6.67659">
        <ele>1783.4000244141</ele>
        <time>2020-01-15T08:49:42.000Z</time>
      </trkpt>
      <trkpt lat="45.62719" lon="6.67657">
        <ele>1784</ele>
        <time>2020-01-15T08:49:45.000Z</time>
      </trkpt>
      <trkpt lat="45.6272" lon="6.67657">
        <ele>1784.5999755859</ele>
        <time>2020-01-15T08:49:47.000Z</time>
      </trkpt>
      <trkpt lat="45.62724" lon="6.67655">
        <ele>1785.1999511719</ele>
        <time>2020-01-15T08:49:51.000Z</time>
      </trkpt>
      <trkpt lat="45.62726" lon="6.67653">
        <ele>1785.5999755859</ele>
        <time>2020-01-15T08:49:54.000Z</time>
      </trkpt>
      <trkpt lat="45.62728" lon="6.67651">
        <ele>1786.1999511719</ele>
        <time>2020-01-15T08:49:59.000Z</time>
      </trkpt>
      <trkpt lat="45.62729" lon="6.67651">
        <ele>1786.4000244141</ele>
        <time>2020-01-15T08:50:00.000Z</time>
      </trkpt>
      <trkpt lat="45.62733" lon="6.67647">
        <ele>1787</ele>
        <time>2020-01-15T08:50:05.000Z</time>
      </trkpt>
      <trkpt lat="45.62735" lon="6.67645">
        <ele>1787.4000244141</ele>
        <time>2020-01-15T08:50:08.000Z</time>
      </trkpt>
      <trkpt lat="45.62737" lon="6.67645">
        <ele>1787.4000244141</ele>
        <time>2020-01-15T08:50:09.000Z</time>
      </trkpt>
      <trkpt lat="45.62742" lon="6.67643">
        <ele>1788.1999511719</ele>
        <time>2020-01-15T08:50:14.000Z</time>
      </trkpt>
      <trkpt lat="45.62744" lon="6.67642">
        <ele>1788.4000244141</ele>
        <time>2020-01-15T08:50:16.000Z</time>
      </trkpt>
      <trkpt lat="45.62746" lon="6.67641">
        <ele>1788.8000488281</ele>
        <time>2020-01-15T08:50:19.000Z</time>
      </trkpt>
      <trkpt lat="45.62752" lon="6.6764">
        <ele>1789.4000244141</ele>
        <time>2020-01-15T08:50:26.000Z</time>
      </trkpt>
      <trkpt lat="45.62758" lon="6.67639">
        <ele>1790</ele>
        <time>2020-01-15T08:50:32.000Z</time>
      </trkpt>
      <trkpt lat="45.62762" lon="6.67638">
        <ele>1790.4000244141</ele>
        <time>2020-01-15T08:50:37.000Z</time>
      </trkpt>
      <trkpt lat="45.62764" lon="6.67637">
        <ele>1790.5999755859</ele>
        <time>2020-01-15T08:50:39.000Z</time>
      </trkpt>
      <trkpt lat="45.62767" lon="6.67635">
        <ele>1791.4000244141</ele>
        <time>2020-01-15T08:50:44.000Z</time>
      </trkpt>
      <trkpt lat="45.62768" lon="6.67635">
        <ele>1791.5999755859</ele>
        <time>2020-01-15T08:50:45.000Z</time>
      </trkpt>
      <trkpt lat="45.62773" lon="6.67634">
        <ele>1792.5999755859</ele>
        <time>2020-01-15T08:50:50.000Z</time>
      </trkpt>
      <trkpt lat="45.62775" lon="6.67633">
        <ele>1792.8000488281</ele>
        <time>2020-01-15T08:50:51.000Z</time>
      </trkpt>
      <trkpt lat="45.62778" lon="6.67632">
        <ele>1793.5999755859</ele>
        <time>2020-01-15T08:50:57.000Z</time>
      </trkpt>
      <trkpt lat="45.62779" lon="6.67631">
        <ele>1793.8000488281</ele>
        <time>2020-01-15T08:50:58.000Z</time>
      </trkpt>
      <trkpt lat="45.62782" lon="6.67631">
        <ele>1794.5999755859</ele>
        <time>2020-01-15T08:51:02.000Z</time>
      </trkpt>
      <trkpt lat="45.62784" lon="6.6763">
        <ele>1795</ele>
        <time>2020-01-15T08:51:04.000Z</time>
      </trkpt>
      <trkpt lat="45.62789" lon="6.67628">
        <ele>1795.5999755859</ele>
        <time>2020-01-15T08:51:10.000Z</time>
      </trkpt>
      <trkpt lat="45.62792" lon="6.67629">
        <ele>1796.1999511719</ele>
        <time>2020-01-15T08:51:14.000Z</time>
      </trkpt>
      <trkpt lat="45.62793" lon="6.67628">
        <ele>1796.5999755859</ele>
        <time>2020-01-15T08:51:17.000Z</time>
      </trkpt>
      <trkpt lat="45.62796" lon="6.67628">
        <ele>1796.8000488281</ele>
        <time>2020-01-15T08:51:19.000Z</time>
      </trkpt>
      <trkpt lat="45.62798" lon="6.67629">
        <ele>1797.1999511719</ele>
        <time>2020-01-15T08:51:22.000Z</time>
      </trkpt>
      <trkpt lat="45.62801" lon="6.6763">
        <ele>1798.4000244141</ele>
        <time>2020-01-15T08:51:27.000Z</time>
      </trkpt>
      <trkpt lat="45.62802" lon="6.6763">
        <ele>1798.4000244141</ele>
        <time>2020-01-15T08:51:28.000Z</time>
      </trkpt>
      <trkpt lat="45.62807" lon="6.6763">
        <ele>1799.4000244141</ele>
        <time>2020-01-15T08:51:35.000Z</time>
      </trkpt>
      <trkpt lat="45.62812" lon="6.67628">
        <ele>1800.4000244141</ele>
        <time>2020-01-15T08:51:42.000Z</time>
      </trkpt>
      <trkpt lat="45.62816" lon="6.67627">
        <ele>1801.1999511719</ele>
        <time>2020-01-15T08:51:48.000Z</time>
      </trkpt>
      <trkpt lat="45.62817" lon="6.67626">
        <ele>1801.5999755859</ele>
        <time>2020-01-15T08:51:50.000Z</time>
      </trkpt>
      <trkpt lat="45.62818" lon="6.67626">
        <ele>1802.4000244141</ele>
        <time>2020-01-15T08:51:54.000Z</time>
      </trkpt>
      <trkpt lat="45.62818" lon="6.67626">
        <ele>1802.8000488281</ele>
        <time>2020-01-15T08:51:55.000Z</time>
      </trkpt>
      <trkpt lat="45.62821" lon="6.67625">
        <ele>1803.4000244141</ele>
        <time>2020-01-15T08:51:59.000Z</time>
      </trkpt>
      <trkpt lat="45.62823" lon="6.67624">
        <ele>1803.8000488281</ele>
        <time>2020-01-15T08:52:01.000Z</time>
      </trkpt>
      <trkpt lat="45.62826" lon="6.67623">
        <ele>1804.4000244141</ele>
        <time>2020-01-15T08:52:04.000Z</time>
      </trkpt>
      <trkpt lat="45.62826" lon="6.67623">
        <ele>1804.5999755859</ele>
        <time>2020-01-15T08:52:05.000Z</time>
      </trkpt>
      <trkpt lat="45.62826" lon="6.67623">
        <ele>1804.8000488281</ele>
        <time>2020-01-15T08:52:07.000Z</time>
      </trkpt>
      <trkpt lat="45.62827" lon="6.67623">
        <ele>1805.4000244141</ele>
        <time>2020-01-15T08:52:10.000Z</time>
      </trkpt>
      <trkpt lat="45.62828" lon="6.67623">
        <ele>1805.8000488281</ele>
        <time>2020-01-15T08:52:11.000Z</time>
      </trkpt>
      <trkpt lat="45.62833" lon="6.67623">
        <ele>1806.5999755859</ele>
        <time>2020-01-15T08:52:16.000Z</time>
      </trkpt>
      <trkpt lat="45.62833" lon="6.67624">
        <ele>1807</ele>
        <time>2020-01-15T08:52:18.000Z</time>
      </trkpt>
      <trkpt lat="45.62839" lon="6.67624">
        <ele>1808</ele>
        <time>2020-01-15T08:52:24.000Z</time>
      </trkpt>
      <trkpt lat="45.62841" lon="6.67624">
        <ele>1809</ele>
        <time>2020-01-15T08:52:29.000Z</time>
      </trkpt>
      <trkpt lat="45.62842" lon="6.67624">
        <ele>1809.1999511719</ele>
        <time>2020-01-15T08:52:30.000Z</time>
      </trkpt>
      <trkpt lat="45.62847" lon="6.67623">
        <ele>1809.8000488281</ele>
        <time>2020-01-15T08:52:35.000Z</time>
      </trkpt>
      <trkpt lat="45.62849" lon="6.67623">
        <ele>1810.4000244141</ele>
        <time>2020-01-15T08:52:37.000Z</time>
      </trkpt>
      <trkpt lat="45.62852" lon="6.67623">
        <ele>1810.8000488281</ele>
        <time>2020-01-15T08:52:41.000Z</time>
      </trkpt>
      <trkpt lat="45.62852" lon="6.67623">
        <ele>1811.5999755859</ele>
        <time>2020-01-15T08:52:44.000Z</time>
      </trkpt>
      <trkpt lat="45.62854" lon="6.67623">
        <ele>1812</ele>
        <time>2020-01-15T08:52:47.000Z</time>
      </trkpt>
      <trkpt lat="45.62854" lon="6.67623">
        <ele>1812.5999755859</ele>
        <time>2020-01-15T08:52:50.000Z</time>
      </trkpt>
      <trkpt lat="45.62854" lon="6.67623">
        <ele>1813.4000244141</ele>
        <time>2020-01-15T08:52:53.000Z</time>
      </trkpt>
      <trkpt lat="45.62855" lon="6.67624">
        <ele>1813.8000488281</ele>
        <time>2020-01-15T08:52:55.000Z</time>
      </trkpt>
      <trkpt lat="45.62855" lon="6.67624">
        <ele>1814.1999511719</ele>
        <time>2020-01-15T08:52:58.000Z</time>
      </trkpt>
      <trkpt lat="45.62855" lon="6.67624">
        <ele>1814.8000488281</ele>
        <time>2020-01-15T08:53:00.000Z</time>
      </trkpt>
      <trkpt lat="45.62858" lon="6.67625">
        <ele>1815.4000244141</ele>
        <time>2020-01-15T08:53:03.000Z</time>
      </trkpt>
      <trkpt lat="45.62858" lon="6.67625">
        <ele>1816</ele>
        <time>2020-01-15T08:53:10.000Z</time>
      </trkpt>
      <trkpt lat="45.62858" lon="6.67625">
        <ele>1816.1999511719</ele>
        <time>2020-01-15T08:53:11.000Z</time>
      </trkpt>
      <trkpt lat="45.62874" lon="6.67636">
        <ele>1817</ele>
        <time>2020-01-15T08:53:26.000Z</time>
      </trkpt>
      <trkpt lat="45.62873" lon="6.67624">
        <ele>1816.5999755859</ele>
        <time>2020-01-15T08:53:41.000Z</time>
      </trkpt>
      <trkpt lat="45.62873" lon="6.67624">
        <ele>1817</ele>
        <time>2020-01-15T08:53:50.000Z</time>
      </trkpt>
      <trkpt lat="45.62874" lon="6.67626">
        <ele>1816.8000488281</ele>
        <time>2020-01-15T08:53:58.000Z</time>
      </trkpt>
      <trkpt lat="45.62875" lon="6.67626">
        <ele>1816</ele>
        <time>2020-01-15T08:54:13.000Z</time>
      </trkpt>
      <trkpt lat="45.62875" lon="6.67626">
        <ele>1815.4000244141</ele>
        <time>2020-01-15T08:54:14.000Z</time>
      </trkpt>
      <trkpt lat="45.62874" lon="6.67624">
        <ele>1816.4000244141</ele>
        <time>2020-01-15T08:54:24.000Z</time>
      </trkpt>
      <trkpt lat="45.62873" lon="6.67625">
        <ele>1816.4000244141</ele>
        <time>2020-01-15T08:54:26.000Z</time>
      </trkpt>
      <trkpt lat="45.62873" lon="6.67628">
        <ele>1817.8000488281</ele>
        <time>2020-01-15T08:54:30.000Z</time>
      </trkpt>
      <trkpt lat="45.62877" lon="6.6763">
        <ele>1817.1999511719</ele>
        <time>2020-01-15T08:54:34.000Z</time>
      </trkpt>
      <trkpt lat="45.62878" lon="6.67629">
        <ele>1817.5999755859</ele>
        <time>2020-01-15T08:54:39.000Z</time>
      </trkpt>
      <trkpt lat="45.62881" lon="6.67629">
        <ele>1817.5999755859</ele>
        <time>2020-01-15T08:54:53.000Z</time>
      </trkpt>
      <trkpt lat="45.62882" lon="6.67635">
        <ele>1818</ele>
        <time>2020-01-15T08:54:58.000Z</time>
      </trkpt>
      <trkpt lat="45.62882" lon="6.67636">
        <ele>1819</ele>
        <time>2020-01-15T08:55:01.000Z</time>
      </trkpt>
      <trkpt lat="45.62882" lon="6.67634">
        <ele>1819.4000244141</ele>
        <time>2020-01-15T08:55:04.000Z</time>
      </trkpt>
      <trkpt lat="45.62882" lon="6.67635">
        <ele>1819.8000488281</ele>
        <time>2020-01-15T08:55:23.000Z</time>
      </trkpt>
      <trkpt lat="45.62882" lon="6.67634">
        <ele>1819.8000488281</ele>
        <time>2020-01-15T08:55:43.000Z</time>
      </trkpt>
      <trkpt lat="45.62887" lon="6.67633">
        <ele>1819.8000488281</ele>
        <time>2020-01-15T08:55:48.000Z</time>
      </trkpt>
      <trkpt lat="45.62889" lon="6.67633">
        <ele>1820</ele>
        <time>2020-01-15T08:55:50.000Z</time>
      </trkpt>
      <trkpt lat="45.62893" lon="6.67631">
        <ele>1820.4000244141</ele>
        <time>2020-01-15T08:55:54.000Z</time>
      </trkpt>
      <trkpt lat="45.629" lon="6.67631">
        <ele>1821.1999511719</ele>
        <time>2020-01-15T08:56:00.000Z</time>
      </trkpt>
      <trkpt lat="45.62902" lon="6.67629">
        <ele>1821.8000488281</ele>
        <time>2020-01-15T08:56:03.000Z</time>
      </trkpt>
      <trkpt lat="45.62904" lon="6.6763">
        <ele>1822</ele>
        <time>2020-01-15T08:56:05.000Z</time>
      </trkpt>
      <trkpt lat="45.62905" lon="6.6763">
        <ele>1822.1999511719</ele>
        <time>2020-01-15T08:56:06.000Z</time>
      </trkpt>
      <trkpt lat="45.62907" lon="6.67632">
        <ele>1822.8000488281</ele>
        <time>2020-01-15T08:56:10.000Z</time>
      </trkpt>
      <trkpt lat="45.62908" lon="6.67632">
        <ele>1823.1999511719</ele>
        <time>2020-01-15T08:56:11.000Z</time>
      </trkpt>
      <trkpt lat="45.62913" lon="6.67631">
        <ele>1823.8000488281</ele>
        <time>2020-01-15T08:56:16.000Z</time>
      </trkpt>
      <trkpt lat="45.62915" lon="6.67631">
        <ele>1824.5999755859</ele>
        <time>2020-01-15T08:56:19.000Z</time>
      </trkpt>
      <trkpt lat="45.62915" lon="6.67628">
        <ele>1825</ele>
        <time>2020-01-15T08:56:21.000Z</time>
      </trkpt>
      <trkpt lat="45.62918" lon="6.67626">
        <ele>1825.5999755859</ele>
        <time>2020-01-15T08:56:25.000Z</time>
      </trkpt>
      <trkpt lat="45.6292" lon="6.67626">
        <ele>1825.8000488281</ele>
        <time>2020-01-15T08:56:27.000Z</time>
      </trkpt>
      <trkpt lat="45.62924" lon="6.67626">
        <ele>1826.8000488281</ele>
        <time>2020-01-15T08:56:31.000Z</time>
      </trkpt>
      <trkpt lat="45.62925" lon="6.67627">
        <ele>1827</ele>
        <time>2020-01-15T08:56:32.000Z</time>
      </trkpt>
      <trkpt lat="45.62929" lon="6.67626">
        <ele>1827.5999755859</ele>
        <time>2020-01-15T08:56:37.000Z</time>
      </trkpt>
      <trkpt lat="45.62929" lon="6.67625">
        <ele>1827.8000488281</ele>
        <time>2020-01-15T08:56:38.000Z</time>
      </trkpt>
      <trkpt lat="45.62935" lon="6.67625">
        <ele>1828.8000488281</ele>
        <time>2020-01-15T08:56:43.000Z</time>
      </trkpt>
      <trkpt lat="45.62936" lon="6.67625">
        <ele>1829</ele>
        <time>2020-01-15T08:56:44.000Z</time>
      </trkpt>
      <trkpt lat="45.62942" lon="6.67625">
        <ele>1829</ele>
        <time>2020-01-15T08:56:50.000Z</time>
      </trkpt>
      <trkpt lat="45.62947" lon="6.67626">
        <ele>1830.1999511719</ele>
        <time>2020-01-15T08:56:56.000Z</time>
      </trkpt>
      <trkpt lat="45.62948" lon="6.67625">
        <ele>1830.4000244141</ele>
        <time>2020-01-15T08:56:57.000Z</time>
      </trkpt>
      <trkpt lat="45.62952" lon="6.67626">
        <ele>1830.5999755859</ele>
        <time>2020-01-15T08:57:01.000Z</time>
      </trkpt>
      <trkpt lat="45.62956" lon="6.67626">
        <ele>1831.1999511719</ele>
        <time>2020-01-15T08:57:06.000Z</time>
      </trkpt>
      <trkpt lat="45.62959" lon="6.67627">
        <ele>1831.8000488281</ele>
        <time>2020-01-15T08:57:11.000Z</time>
      </trkpt>
      <trkpt lat="45.6296" lon="6.67628">
        <ele>1832.1999511719</ele>
        <time>2020-01-15T08:57:13.000Z</time>
      </trkpt>
      <trkpt lat="45.62961" lon="6.67628">
        <ele>1832.5999755859</ele>
        <time>2020-01-15T08:57:14.000Z</time>
      </trkpt>
      <trkpt lat="45.62964" lon="6.67629">
        <ele>1833</ele>
        <time>2020-01-15T08:57:17.000Z</time>
      </trkpt>
      <trkpt lat="45.62965" lon="6.67628">
        <ele>1833.4000244141</ele>
        <time>2020-01-15T08:57:19.000Z</time>
      </trkpt>
      <trkpt lat="45.62967" lon="6.67628">
        <ele>1834</ele>
        <time>2020-01-15T08:57:23.000Z</time>
      </trkpt>
      <trkpt lat="45.6297" lon="6.67628">
        <ele>1834.4000244141</ele>
        <time>2020-01-15T08:57:27.000Z</time>
      </trkpt>
      <trkpt lat="45.6297" lon="6.67628">
        <ele>1834.5999755859</ele>
        <time>2020-01-15T08:57:28.000Z</time>
      </trkpt>
      <trkpt lat="45.62975" lon="6.67628">
        <ele>1835.5999755859</ele>
        <time>2020-01-15T08:57:34.000Z</time>
      </trkpt>
      <trkpt lat="45.62977" lon="6.67628">
        <ele>1836</ele>
        <time>2020-01-15T08:57:36.000Z</time>
      </trkpt>
      <trkpt lat="45.62979" lon="6.67628">
        <ele>1836.4000244141</ele>
        <time>2020-01-15T08:57:38.000Z</time>
      </trkpt>
      <trkpt lat="45.62981" lon="6.67627">
        <ele>1836.5999755859</ele>
        <time>2020-01-15T08:57:40.000Z</time>
      </trkpt>
      <trkpt lat="45.62982" lon="6.67625">
        <ele>1837.1999511719</ele>
        <time>2020-01-15T08:57:43.000Z</time>
      </trkpt>
      <trkpt lat="45.62985" lon="6.67623">
        <ele>1837.8000488281</ele>
        <time>2020-01-15T08:57:47.000Z</time>
      </trkpt>
      <trkpt lat="45.62985" lon="6.67623">
        <ele>1838</ele>
        <time>2020-01-15T08:57:48.000Z</time>
      </trkpt>
      <trkpt lat="45.62987" lon="6.67623">
        <ele>1838.4000244141</ele>
        <time>2020-01-15T08:57:57.000Z</time>
      </trkpt>
      <trkpt lat="45.62992" lon="6.67622">
        <ele>1838.4000244141</ele>
        <time>2020-01-15T08:58:02.000Z</time>
      </trkpt>
      <trkpt lat="45.62996" lon="6.67621">
        <ele>1838.8000488281</ele>
        <time>2020-01-15T08:58:06.000Z</time>
      </trkpt>
      <trkpt lat="45.63" lon="6.67619">
        <ele>1839.8000488281</ele>
        <time>2020-01-15T08:58:11.000Z</time>
      </trkpt>
      <trkpt lat="45.63003" lon="6.67619">
        <ele>1840</ele>
        <time>2020-01-15T08:58:14.000Z</time>
      </trkpt>
      <trkpt lat="45.63005" lon="6.6762">
        <ele>1840.1999511719</ele>
        <time>2020-01-15T08:58:16.000Z</time>
      </trkpt>
      <trkpt lat="45.63008" lon="6.67618">
        <ele>1841.1999511719</ele>
        <time>2020-01-15T08:58:21.000Z</time>
      </trkpt>
      <trkpt lat="45.63009" lon="6.67618">
        <ele>1841.4000244141</ele>
        <time>2020-01-15T08:58:23.000Z</time>
      </trkpt>
      <trkpt lat="45.6301" lon="6.67619">
        <ele>1842.1999511719</ele>
        <time>2020-01-15T08:58:28.000Z</time>
      </trkpt>
      <trkpt lat="45.6301" lon="6.67619">
        <ele>1842.4000244141</ele>
        <time>2020-01-15T08:58:31.000Z</time>
      </trkpt>
      <trkpt lat="45.6301" lon="6.67619">
        <ele>1842.4000244141</ele>
        <time>2020-01-15T08:58:50.000Z</time>
      </trkpt>
      <trkpt lat="45.63012" lon="6.67618">
        <ele>1842.4000244141</ele>
        <time>2020-01-15T08:58:57.000Z</time>
      </trkpt>
      <trkpt lat="45.63016" lon="6.67616">
        <ele>1842.8000488281</ele>
        <time>2020-01-15T08:59:02.000Z</time>
      </trkpt>
      <trkpt lat="45.6302" lon="6.67612">
        <ele>1843</ele>
        <time>2020-01-15T08:59:06.000Z</time>
      </trkpt>
      <trkpt lat="45.63023" lon="6.67612">
        <ele>1843.1999511719</ele>
        <time>2020-01-15T08:59:08.000Z</time>
      </trkpt>
      <trkpt lat="45.63025" lon="6.67611">
        <ele>1843.8000488281</ele>
        <time>2020-01-15T08:59:11.000Z</time>
      </trkpt>
      <trkpt lat="45.63026" lon="6.67611">
        <ele>1844.4000244141</ele>
        <time>2020-01-15T08:59:13.000Z</time>
      </trkpt>
      <trkpt lat="45.63027" lon="6.67609">
        <ele>1844.8000488281</ele>
        <time>2020-01-15T08:59:15.000Z</time>
      </trkpt>
      <trkpt lat="45.63029" lon="6.67608">
        <ele>1845</ele>
        <time>2020-01-15T08:59:20.000Z</time>
      </trkpt>
      <trkpt lat="45.6303" lon="6.67608">
        <ele>1845.4000244141</ele>
        <time>2020-01-15T08:59:22.000Z</time>
      </trkpt>
      <trkpt lat="45.63032" lon="6.67607">
        <ele>1846</ele>
        <time>2020-01-15T08:59:24.000Z</time>
      </trkpt>
      <trkpt lat="45.63035" lon="6.67605">
        <ele>1846.4000244141</ele>
        <time>2020-01-15T08:59:28.000Z</time>
      </trkpt>
      <trkpt lat="45.63036" lon="6.67605">
        <ele>1846.4000244141</ele>
        <time>2020-01-15T08:59:29.000Z</time>
      </trkpt>
      <trkpt lat="45.63038" lon="6.67605">
        <ele>1846.4000244141</ele>
        <time>2020-01-15T08:59:31.000Z</time>
      </trkpt>
      <trkpt lat="45.6304" lon="6.67605">
        <ele>1846.8000488281</ele>
        <time>2020-01-15T08:59:34.000Z</time>
      </trkpt>
      <trkpt lat="45.63045" lon="6.67602">
        <ele>1847.1999511719</ele>
        <time>2020-01-15T08:59:39.000Z</time>
      </trkpt>
      <trkpt lat="45.63048" lon="6.676">
        <ele>1847.4000244141</ele>
        <time>2020-01-15T08:59:42.000Z</time>
      </trkpt>
      <trkpt lat="45.6305" lon="6.67598">
        <ele>1847.4000244141</ele>
        <time>2020-01-15T08:59:44.000Z</time>
      </trkpt>
      <trkpt lat="45.63054" lon="6.67596">
        <ele>1848.4000244141</ele>
        <time>2020-01-15T08:59:49.000Z</time>
      </trkpt>
      <trkpt lat="45.63057" lon="6.67593">
        <ele>1849.1999511719</ele>
        <time>2020-01-15T08:59:54.000Z</time>
      </trkpt>
      <trkpt lat="45.63059" lon="6.67592">
        <ele>1849.4000244141</ele>
        <time>2020-01-15T08:59:57.000Z</time>
      </trkpt>
      <trkpt lat="45.63061" lon="6.6759">
        <ele>1849.8000488281</ele>
        <time>2020-01-15T09:00:00.000Z</time>
      </trkpt>
      <trkpt lat="45.63065" lon="6.67589">
        <ele>1850.4000244141</ele>
        <time>2020-01-15T09:00:05.000Z</time>
      </trkpt>
      <trkpt lat="45.6307" lon="6.67588">
        <ele>1850.8000488281</ele>
        <time>2020-01-15T09:00:10.000Z</time>
      </trkpt>
      <trkpt lat="45.63072" lon="6.67587">
        <ele>1851.4000244141</ele>
        <time>2020-01-15T09:00:13.000Z</time>
      </trkpt>
      <trkpt lat="45.63075" lon="6.67585">
        <ele>1852</ele>
        <time>2020-01-15T09:00:16.000Z</time>
      </trkpt>
      <trkpt lat="45.63077" lon="6.67583">
        <ele>1852.1999511719</ele>
        <time>2020-01-15T09:00:18.000Z</time>
      </trkpt>
      <trkpt lat="45.63079" lon="6.67583">
        <ele>1852.5999755859</ele>
        <time>2020-01-15T09:00:20.000Z</time>
      </trkpt>
      <trkpt lat="45.6308" lon="6.67582">
        <ele>1852.8000488281</ele>
        <time>2020-01-15T09:00:21.000Z</time>
      </trkpt>
      <trkpt lat="45.63083" lon="6.67581">
        <ele>1853.5999755859</ele>
        <time>2020-01-15T09:00:26.000Z</time>
      </trkpt>
      <trkpt lat="45.63085" lon="6.67579">
        <ele>1854</ele>
        <time>2020-01-15T09:00:30.000Z</time>
      </trkpt>
      <trkpt lat="45.63088" lon="6.67578">
        <ele>1854.8000488281</ele>
        <time>2020-01-15T09:00:34.000Z</time>
      </trkpt>
      <trkpt lat="45.63093" lon="6.67574">
        <ele>1856</ele>
        <time>2020-01-15T09:00:39.000Z</time>
      </trkpt>
      <trkpt lat="45.63097" lon="6.67572">
        <ele>1856.4000244141</ele>
        <time>2020-01-15T09:00:44.000Z</time>
      </trkpt>
      <trkpt lat="45.63102" lon="6.67569">
        <ele>1857</ele>
        <time>2020-01-15T09:00:50.000Z</time>
      </trkpt>
      <trkpt lat="45.63106" lon="6.67565">
        <ele>1857.5999755859</ele>
        <time>2020-01-15T09:00:55.000Z</time>
      </trkpt>
      <trkpt lat="45.63108" lon="6.67563">
        <ele>1858.1999511719</ele>
        <time>2020-01-15T09:00:59.000Z</time>
      </trkpt>
      <trkpt lat="45.63109" lon="6.67564">
        <ele>1858.1999511719</ele>
        <time>2020-01-15T09:01:01.000Z</time>
      </trkpt>
      <trkpt lat="45.63115" lon="6.67563">
        <ele>1859</ele>
        <time>2020-01-15T09:01:07.000Z</time>
      </trkpt>
      <trkpt lat="45.63116" lon="6.67564">
        <ele>1859.4000244141</ele>
        <time>2020-01-15T09:01:08.000Z</time>
      </trkpt>
      <trkpt lat="45.63119" lon="6.67566">
        <ele>1860.1999511719</ele>
        <time>2020-01-15T09:01:12.000Z</time>
      </trkpt>
      <trkpt lat="45.6312" lon="6.67566">
        <ele>1860.5999755859</ele>
        <time>2020-01-15T09:01:13.000Z</time>
      </trkpt>
      <trkpt lat="45.63121" lon="6.67566">
        <ele>1861</ele>
        <time>2020-01-15T09:01:16.000Z</time>
      </trkpt>
      <trkpt lat="45.63122" lon="6.67564">
        <ele>1861.4000244141</ele>
        <time>2020-01-15T09:01:18.000Z</time>
      </trkpt>
      <trkpt lat="45.63123" lon="6.67563">
        <ele>1861.5999755859</ele>
        <time>2020-01-15T09:01:19.000Z</time>
      </trkpt>
      <trkpt lat="45.63127" lon="6.67563">
        <ele>1862.5999755859</ele>
        <time>2020-01-15T09:01:24.000Z</time>
      </trkpt>
      <trkpt lat="45.63128" lon="6.67563">
        <ele>1862.8000488281</ele>
        <time>2020-01-15T09:01:26.000Z</time>
      </trkpt>
      <trkpt lat="45.63131" lon="6.67562">
        <ele>1863.4000244141</ele>
        <time>2020-01-15T09:01:29.000Z</time>
      </trkpt>
      <trkpt lat="45.63132" lon="6.67562">
        <ele>1863.8000488281</ele>
        <time>2020-01-15T09:01:31.000Z</time>
      </trkpt>
      <trkpt lat="45.63135" lon="6.67562">
        <ele>1864.4000244141</ele>
        <time>2020-01-15T09:01:34.000Z</time>
      </trkpt>
      <trkpt lat="45.63138" lon="6.67561">
        <ele>1865</ele>
        <time>2020-01-15T09:01:37.000Z</time>
      </trkpt>
      <trkpt lat="45.6314" lon="6.67558">
        <ele>1865.1999511719</ele>
        <time>2020-01-15T09:01:40.000Z</time>
      </trkpt>
      <trkpt lat="45.63143" lon="6.67558">
        <ele>1865.8000488281</ele>
        <time>2020-01-15T09:01:46.000Z</time>
      </trkpt>
      <trkpt lat="45.63144" lon="6.67557">
        <ele>1866.1999511719</ele>
        <time>2020-01-15T09:01:47.000Z</time>
      </trkpt>
      <trkpt lat="45.63147" lon="6.67555">
        <ele>1867.1999511719</ele>
        <time>2020-01-15T09:01:51.000Z</time>
      </trkpt>
      <trkpt lat="45.63148" lon="6.67554">
        <ele>1867.4000244141</ele>
        <time>2020-01-15T09:01:52.000Z</time>
      </trkpt>
      <trkpt lat="45.63151" lon="6.67553">
        <ele>1867.5999755859</ele>
        <time>2020-01-15T09:01:55.000Z</time>
      </trkpt>
      <trkpt lat="45.63154" lon="6.67552">
        <ele>1868.1999511719</ele>
        <time>2020-01-15T09:02:00.000Z</time>
      </trkpt>
      <trkpt lat="45.63155" lon="6.67551">
        <ele>1868.4000244141</ele>
        <time>2020-01-15T09:02:01.000Z</time>
      </trkpt>
      <trkpt lat="45.63159" lon="6.67548">
        <ele>1869</ele>
        <time>2020-01-15T09:02:06.000Z</time>
      </trkpt>
      <trkpt lat="45.63163" lon="6.67546">
        <ele>1869.4000244141</ele>
        <time>2020-01-15T09:02:10.000Z</time>
      </trkpt>
      <trkpt lat="45.63165" lon="6.67545">
        <ele>1869.5999755859</ele>
        <time>2020-01-15T09:02:11.000Z</time>
      </trkpt>
      <trkpt lat="45.63169" lon="6.67544">
        <ele>1870</ele>
        <time>2020-01-15T09:02:16.000Z</time>
      </trkpt>
      <trkpt lat="45.63173" lon="6.67542">
        <ele>1870.1999511719</ele>
        <time>2020-01-15T09:02:21.000Z</time>
      </trkpt>
      <trkpt lat="45.63175" lon="6.67541">
        <ele>1870.5999755859</ele>
        <time>2020-01-15T09:02:24.000Z</time>
      </trkpt>
      <trkpt lat="45.63177" lon="6.67541">
        <ele>1870.5999755859</ele>
        <time>2020-01-15T09:02:26.000Z</time>
      </trkpt>
      <trkpt lat="45.63179" lon="6.67539">
        <ele>1871.1999511719</ele>
        <time>2020-01-15T09:02:32.000Z</time>
      </trkpt>
      <trkpt lat="45.63179" lon="6.67539">
        <ele>1871.5999755859</ele>
        <time>2020-01-15T09:02:35.000Z</time>
      </trkpt>
      <trkpt lat="45.63183" lon="6.67538">
        <ele>1872</ele>
        <time>2020-01-15T09:02:39.000Z</time>
      </trkpt>
      <trkpt lat="45.63188" lon="6.67537">
        <ele>1872.1999511719</ele>
        <time>2020-01-15T09:02:44.000Z</time>
      </trkpt>
      <trkpt lat="45.6319" lon="6.67536">
        <ele>1872.5999755859</ele>
        <time>2020-01-15T09:02:48.000Z</time>
      </trkpt>
      <trkpt lat="45.63191" lon="6.67535">
        <ele>1873</ele>
        <time>2020-01-15T09:02:50.000Z</time>
      </trkpt>
      <trkpt lat="45.63196" lon="6.67536">
        <ele>1873.8000488281</ele>
        <time>2020-01-15T09:02:55.000Z</time>
      </trkpt>
      <trkpt lat="45.632" lon="6.67535">
        <ele>1875</ele>
        <time>2020-01-15T09:03:00.000Z</time>
      </trkpt>
      <trkpt lat="45.63205" lon="6.67533">
        <ele>1875.1999511719</ele>
        <time>2020-01-15T09:03:05.000Z</time>
      </trkpt>
      <trkpt lat="45.6321" lon="6.67534">
        <ele>1876</ele>
        <time>2020-01-15T09:03:11.000Z</time>
      </trkpt>
      <trkpt lat="45.6321" lon="6.67534">
        <ele>1876</ele>
        <time>2020-01-15T09:03:12.000Z</time>
      </trkpt>
      <trkpt lat="45.63211" lon="6.67533">
        <ele>1877.1999511719</ele>
        <time>2020-01-15T09:03:19.000Z</time>
      </trkpt>
      <trkpt lat="45.63212" lon="6.67533">
        <ele>1877</ele>
        <time>2020-01-15T09:03:30.000Z</time>
      </trkpt>
      <trkpt lat="45.63212" lon="6.67533">
        <ele>1878.4000244141</ele>
        <time>2020-01-15T09:03:37.000Z</time>
      </trkpt>
      <trkpt lat="45.63212" lon="6.67533">
        <ele>1878.4000244141</ele>
        <time>2020-01-15T09:03:40.000Z</time>
      </trkpt>
      <trkpt lat="45.63212" lon="6.67533">
        <ele>1878.4000244141</ele>
        <time>2020-01-15T09:03:59.000Z</time>
      </trkpt>
      <trkpt lat="45.63215" lon="6.67533">
        <ele>1878.5999755859</ele>
        <time>2020-01-15T09:04:06.000Z</time>
      </trkpt>
      <trkpt lat="45.63219" lon="6.67532">
        <ele>1879</ele>
        <time>2020-01-15T09:04:19.000Z</time>
      </trkpt>
      <trkpt lat="45.63224" lon="6.67532">
        <ele>1879</ele>
        <time>2020-01-15T09:04:24.000Z</time>
      </trkpt>
      <trkpt lat="45.63227" lon="6.67531">
        <ele>1879.4000244141</ele>
        <time>2020-01-15T09:04:29.000Z</time>
      </trkpt>
      <trkpt lat="45.6323" lon="6.6753">
        <ele>1879.8000488281</ele>
        <time>2020-01-15T09:04:34.000Z</time>
      </trkpt>
      <trkpt lat="45.63235" lon="6.67529">
        <ele>1880</ele>
        <time>2020-01-15T09:04:39.000Z</time>
      </trkpt>
      <trkpt lat="45.63237" lon="6.67527">
        <ele>1880.1999511719</ele>
        <time>2020-01-15T09:04:42.000Z</time>
      </trkpt>
      <trkpt lat="45.63239" lon="6.67527">
        <ele>1880.4000244141</ele>
        <time>2020-01-15T09:04:44.000Z</time>
      </trkpt>
      <trkpt lat="45.63245" lon="6.67526">
        <ele>1881</ele>
        <time>2020-01-15T09:04:50.000Z</time>
      </trkpt>
      <trkpt lat="45.63248" lon="6.67527">
        <ele>1881.1999511719</ele>
        <time>2020-01-15T09:04:55.000Z</time>
      </trkpt>
      <trkpt lat="45.63251" lon="6.67527">
        <ele>1881.5999755859</ele>
        <time>2020-01-15T09:04:59.000Z</time>
      </trkpt>
      <trkpt lat="45.63252" lon="6.67527">
        <ele>1881.8000488281</ele>
        <time>2020-01-15T09:05:00.000Z</time>
      </trkpt>
      <trkpt lat="45.63258" lon="6.6753">
        <ele>1882.5999755859</ele>
        <time>2020-01-15T09:05:07.000Z</time>
      </trkpt>
      <trkpt lat="45.63261" lon="6.6753">
        <ele>1883.5999755859</ele>
        <time>2020-01-15T09:05:12.000Z</time>
      </trkpt>
      <trkpt lat="45.63262" lon="6.6753">
        <ele>1883.8000488281</ele>
        <time>2020-01-15T09:05:13.000Z</time>
      </trkpt>
      <trkpt lat="45.63266" lon="6.67531">
        <ele>1884.5999755859</ele>
        <time>2020-01-15T09:05:18.000Z</time>
      </trkpt>
      <trkpt lat="45.63267" lon="6.67531">
        <ele>1884.8000488281</ele>
        <time>2020-01-15T09:05:19.000Z</time>
      </trkpt>
      <trkpt lat="45.63269" lon="6.67533">
        <ele>1885.1999511719</ele>
        <time>2020-01-15T09:05:23.000Z</time>
      </trkpt>
      <trkpt lat="45.6327" lon="6.67533">
        <ele>1885.8000488281</ele>
        <time>2020-01-15T09:05:27.000Z</time>
      </trkpt>
      <trkpt lat="45.63272" lon="6.67535">
        <ele>1886.1999511719</ele>
        <time>2020-01-15T09:05:29.000Z</time>
      </trkpt>
      <trkpt lat="45.63276" lon="6.67536">
        <ele>1886.8000488281</ele>
        <time>2020-01-15T09:05:33.000Z</time>
      </trkpt>
      <trkpt lat="45.63276" lon="6.67536">
        <ele>1887</ele>
        <time>2020-01-15T09:05:34.000Z</time>
      </trkpt>
      <trkpt lat="45.6328" lon="6.67539">
        <ele>1887.8000488281</ele>
        <time>2020-01-15T09:05:40.000Z</time>
      </trkpt>
      <trkpt lat="45.6328" lon="6.67539">
        <ele>1888</ele>
        <time>2020-01-15T09:05:42.000Z</time>
      </trkpt>
      <trkpt lat="45.63282" lon="6.6754">
        <ele>1888.5999755859</ele>
        <time>2020-01-15T09:05:47.000Z</time>
      </trkpt>
      <trkpt lat="45.63283" lon="6.6754">
        <ele>1889</ele>
        <time>2020-01-15T09:05:48.000Z</time>
      </trkpt>
      <trkpt lat="45.63288" lon="6.67541">
        <ele>1889.5999755859</ele>
        <time>2020-01-15T09:05:53.000Z</time>
      </trkpt>
      <trkpt lat="45.6329" lon="6.67541">
        <ele>1890</ele>
        <time>2020-01-15T09:05:56.000Z</time>
      </trkpt>
      <trkpt lat="45.63291" lon="6.67542">
        <ele>1890.4000244141</ele>
        <time>2020-01-15T09:05:58.000Z</time>
      </trkpt>
      <trkpt lat="45.63293" lon="6.67544">
        <ele>1891</ele>
        <time>2020-01-15T09:06:02.000Z</time>
      </trkpt>
      <trkpt lat="45.63294" lon="6.67544">
        <ele>1891.4000244141</ele>
        <time>2020-01-15T09:06:04.000Z</time>
      </trkpt>
      <trkpt lat="45.63296" lon="6.67545">
        <ele>1892.1999511719</ele>
        <time>2020-01-15T09:06:07.000Z</time>
      </trkpt>
      <trkpt lat="45.63298" lon="6.67546">
        <ele>1892.8000488281</ele>
        <time>2020-01-15T09:06:10.000Z</time>
      </trkpt>
      <trkpt lat="45.63299" lon="6.67547">
        <ele>1893.4000244141</ele>
        <time>2020-01-15T09:06:12.000Z</time>
      </trkpt>
      <trkpt lat="45.63301" lon="6.67548">
        <ele>1894.4000244141</ele>
        <time>2020-01-15T09:06:17.000Z</time>
      </trkpt>
      <trkpt lat="45.63302" lon="6.67548">
        <ele>1894.5999755859</ele>
        <time>2020-01-15T09:06:18.000Z</time>
      </trkpt>
      <trkpt lat="45.63305" lon="6.67546">
        <ele>1895.5999755859</ele>
        <time>2020-01-15T09:06:24.000Z</time>
      </trkpt>
      <trkpt lat="45.63305" lon="6.67546">
        <ele>1896</ele>
        <time>2020-01-15T09:06:25.000Z</time>
      </trkpt>
      <trkpt lat="45.63305" lon="6.67546">
        <ele>1896.1999511719</ele>
        <time>2020-01-15T09:06:41.000Z</time>
      </trkpt>
      <trkpt lat="45.63305" lon="6.67546">
        <ele>1896.4000244141</ele>
        <time>2020-01-15T09:06:56.000Z</time>
      </trkpt>
      <trkpt lat="45.63305" lon="6.67545">
        <ele>1896.4000244141</ele>
        <time>2020-01-15T09:07:09.000Z</time>
      </trkpt>
      <trkpt lat="45.63305" lon="6.67545">
        <ele>1896.5999755859</ele>
        <time>2020-01-15T09:07:17.000Z</time>
      </trkpt>
      <trkpt lat="45.63305" lon="6.67545">
        <ele>1896.5999755859</ele>
        <time>2020-01-15T09:07:25.000Z</time>
      </trkpt>
      <trkpt lat="45.63305" lon="6.67545">
        <ele>1896.5999755859</ele>
        <time>2020-01-15T09:07:38.000Z</time>
      </trkpt>
      <trkpt lat="45.63305" lon="6.67545">
        <ele>1896.5999755859</ele>
        <time>2020-01-15T09:07:53.000Z</time>
      </trkpt>
      <trkpt lat="45.63305" lon="6.67545">
        <ele>1896.5999755859</ele>
        <time>2020-01-15T09:08:10.000Z</time>
      </trkpt>
      <trkpt lat="45.63305" lon="6.67544">
        <ele>1896.5999755859</ele>
        <time>2020-01-15T09:08:27.000Z</time>
      </trkpt>
      <trkpt lat="45.63306" lon="6.67544">
        <ele>1897.1999511719</ele>
        <time>2020-01-15T09:08:35.000Z</time>
      </trkpt>
      <trkpt lat="45.63308" lon="6.67545">
        <ele>1897.8000488281</ele>
        <time>2020-01-15T09:08:38.000Z</time>
      </trkpt>
      <trkpt lat="45.63311" lon="6.67546">
        <ele>1898.4000244141</ele>
        <time>2020-01-15T09:08:42.000Z</time>
      </trkpt>
      <trkpt lat="45.63312" lon="6.67546">
        <ele>1898.8000488281</ele>
        <time>2020-01-15T09:08:44.000Z</time>
      </trkpt>
      <trkpt lat="45.63316" lon="6.67545">
        <ele>1899.8000488281</ele>
        <time>2020-01-15T09:08:49.000Z</time>
      </trkpt>
      <trkpt lat="45.63321" lon="6.67546">
        <ele>1901</ele>
        <time>2020-01-15T09:08:56.000Z</time>
      </trkpt>
      <trkpt lat="45.63326" lon="6.67548">
        <ele>1902</ele>
        <time>2020-01-15T09:09:02.000Z</time>
      </trkpt>
      <trkpt lat="45.63327" lon="6.67548">
        <ele>1902</ele>
        <time>2020-01-15T09:09:03.000Z</time>
      </trkpt>
      <trkpt lat="45.63332" lon="6.67547">
        <ele>1902.8000488281</ele>
        <time>2020-01-15T09:09:08.000Z</time>
      </trkpt>
      <trkpt lat="45.63333" lon="6.67547">
        <ele>1903.1999511719</ele>
        <time>2020-01-15T09:09:10.000Z</time>
      </trkpt>
      <trkpt lat="45.63336" lon="6.67547">
        <ele>1903.5999755859</ele>
        <time>2020-01-15T09:09:13.000Z</time>
      </trkpt>
      <trkpt lat="45.63337" lon="6.67546">
        <ele>1904</ele>
        <time>2020-01-15T09:09:15.000Z</time>
      </trkpt>
      <trkpt lat="45.63337" lon="6.67547">
        <ele>1904.4000244141</ele>
        <time>2020-01-15T09:09:17.000Z</time>
      </trkpt>
      <trkpt lat="45.6334" lon="6.67546">
        <ele>1905.5999755859</ele>
        <time>2020-01-15T09:09:23.000Z</time>
      </trkpt>
      <trkpt lat="45.63345" lon="6.67545">
        <ele>1906.5999755859</ele>
        <time>2020-01-15T09:09:29.000Z</time>
      </trkpt>
      <trkpt lat="45.63349" lon="6.67544">
        <ele>1907.5999755859</ele>
        <time>2020-01-15T09:09:33.000Z</time>
      </trkpt>
      <trkpt lat="45.63349" lon="6.67544">
        <ele>1907.5999755859</ele>
        <time>2020-01-15T09:09:34.000Z</time>
      </trkpt>
      <trkpt lat="45.63353" lon="6.67545">
        <ele>1908.4000244141</ele>
        <time>2020-01-15T09:09:39.000Z</time>
      </trkpt>
      <trkpt lat="45.63355" lon="6.67544">
        <ele>1908.8000488281</ele>
        <time>2020-01-15T09:09:41.000Z</time>
      </trkpt>
      <trkpt lat="45.63357" lon="6.67543">
        <ele>1909.1999511719</ele>
        <time>2020-01-15T09:09:44.000Z</time>
      </trkpt>
      <trkpt lat="45.63357" lon="6.67543">
        <ele>1910</ele>
        <time>2020-01-15T09:09:49.000Z</time>
      </trkpt>
      <trkpt lat="45.63357" lon="6.67543">
        <ele>1910.5999755859</ele>
        <time>2020-01-15T09:09:56.000Z</time>
      </trkpt>
      <trkpt lat="45.63361" lon="6.67543">
        <ele>1910.1999511719</ele>
        <time>2020-01-15T09:10:03.000Z</time>
      </trkpt>
      <trkpt lat="45.63364" lon="6.67545">
        <ele>1911.1999511719</ele>
        <time>2020-01-15T09:10:08.000Z</time>
      </trkpt>
      <trkpt lat="45.63365" lon="6.67545">
        <ele>1911.1999511719</ele>
        <time>2020-01-15T09:10:09.000Z</time>
      </trkpt>
      <trkpt lat="45.63368" lon="6.67546">
        <ele>1912.1999511719</ele>
        <time>2020-01-15T09:10:14.000Z</time>
      </trkpt>
      <trkpt lat="45.63372" lon="6.67547">
        <ele>1913</ele>
        <time>2020-01-15T09:10:20.000Z</time>
      </trkpt>
      <trkpt lat="45.63373" lon="6.67547">
        <ele>1913.4000244141</ele>
        <time>2020-01-15T09:10:22.000Z</time>
      </trkpt>
      <trkpt lat="45.63376" lon="6.67548">
        <ele>1914.1999511719</ele>
        <time>2020-01-15T09:10:27.000Z</time>
      </trkpt>
      <trkpt lat="45.63377" lon="6.67548">
        <ele>1914.4000244141</ele>
        <time>2020-01-15T09:10:28.000Z</time>
      </trkpt>
      <trkpt lat="45.63381" lon="6.67549">
        <ele>1915</ele>
        <time>2020-01-15T09:10:32.000Z</time>
      </trkpt>
      <trkpt lat="45.63381" lon="6.67549">
        <ele>1915.5999755859</ele>
        <time>2020-01-15T09:10:34.000Z</time>
      </trkpt>
      <trkpt lat="45.63384" lon="6.67549">
        <ele>1916.1999511719</ele>
        <time>2020-01-15T09:10:38.000Z</time>
      </trkpt>
      <trkpt lat="45.63385" lon="6.67548">
        <ele>1916.5999755859</ele>
        <time>2020-01-15T09:10:40.000Z</time>
      </trkpt>
      <trkpt lat="45.63387" lon="6.67547">
        <ele>1917.1999511719</ele>
        <time>2020-01-15T09:10:43.000Z</time>
      </trkpt>
      <trkpt lat="45.63388" lon="6.67548">
        <ele>1917.8000488281</ele>
        <time>2020-01-15T09:10:46.000Z</time>
      </trkpt>
      <trkpt lat="45.63391" lon="6.6755">
        <ele>1918.8000488281</ele>
        <time>2020-01-15T09:10:51.000Z</time>
      </trkpt>
      <trkpt lat="45.63394" lon="6.67551">
        <ele>1920</ele>
        <time>2020-01-15T09:10:57.000Z</time>
      </trkpt>
      <trkpt lat="45.63399" lon="6.67551">
        <ele>1921</ele>
        <time>2020-01-15T09:11:01.000Z</time>
      </trkpt>
      <trkpt lat="45.63399" lon="6.67551">
        <ele>1921.4000244141</ele>
        <time>2020-01-15T09:11:02.000Z</time>
      </trkpt>
      <trkpt lat="45.63402" lon="6.67552">
        <ele>1922</ele>
        <time>2020-01-15T09:11:05.000Z</time>
      </trkpt>
      <trkpt lat="45.63404" lon="6.67552">
        <ele>1922.4000244141</ele>
        <time>2020-01-15T09:11:08.000Z</time>
      </trkpt>
      <trkpt lat="45.63406" lon="6.67554">
        <ele>1923.1999511719</ele>
        <time>2020-01-15T09:11:11.000Z</time>
      </trkpt>
      <trkpt lat="45.63408" lon="6.67556">
        <ele>1924.1999511719</ele>
        <time>2020-01-15T09:11:16.000Z</time>
      </trkpt>
      <trkpt lat="45.63409" lon="6.67556">
        <ele>1924.1999511719</ele>
        <time>2020-01-15T09:11:17.000Z</time>
      </trkpt>
      <trkpt lat="45.63411" lon="6.67557">
        <ele>1925</ele>
        <time>2020-01-15T09:11:22.000Z</time>
      </trkpt>
      <trkpt lat="45.63412" lon="6.67557">
        <ele>1925.4000244141</ele>
        <time>2020-01-15T09:11:24.000Z</time>
      </trkpt>
      <trkpt lat="45.63415" lon="6.67559">
        <ele>1925.8000488281</ele>
        <time>2020-01-15T09:11:27.000Z</time>
      </trkpt>
      <trkpt lat="45.63415" lon="6.67559">
        <ele>1926.4000244141</ele>
        <time>2020-01-15T09:11:31.000Z</time>
      </trkpt>
      <trkpt lat="45.63415" lon="6.67559">
        <ele>1926.4000244141</ele>
        <time>2020-01-15T09:11:40.000Z</time>
      </trkpt>
      <trkpt lat="45.63415" lon="6.67559">
        <ele>1926.8000488281</ele>
        <time>2020-01-15T09:11:54.000Z</time>
      </trkpt>
      <trkpt lat="45.63414" lon="6.67561">
        <ele>1926.5999755859</ele>
        <time>2020-01-15T09:12:09.000Z</time>
      </trkpt>
      <trkpt lat="45.63414" lon="6.67561">
        <ele>1926.8000488281</ele>
        <time>2020-01-15T09:12:20.000Z</time>
      </trkpt>
      <trkpt lat="45.63414" lon="6.67561">
        <ele>1926.8000488281</ele>
        <time>2020-01-15T09:12:21.000Z</time>
      </trkpt>
      <trkpt lat="45.63417" lon="6.67564">
        <ele>1926.5999755859</ele>
        <time>2020-01-15T09:12:33.000Z</time>
      </trkpt>
      <trkpt lat="45.63418" lon="6.67565">
        <ele>1927.4000244141</ele>
        <time>2020-01-15T09:12:36.000Z</time>
      </trkpt>
      <trkpt lat="45.63421" lon="6.67566">
        <ele>1928</ele>
        <time>2020-01-15T09:12:39.000Z</time>
      </trkpt>
      <trkpt lat="45.63423" lon="6.67567">
        <ele>1928.5999755859</ele>
        <time>2020-01-15T09:12:42.000Z</time>
      </trkpt>
      <trkpt lat="45.63427" lon="6.67567">
        <ele>1929.4000244141</ele>
        <time>2020-01-15T09:12:46.000Z</time>
      </trkpt>
      <trkpt lat="45.63431" lon="6.67566">
        <ele>1929.5999755859</ele>
        <time>2020-01-15T09:12:49.000Z</time>
      </trkpt>
      <trkpt lat="45.63436" lon="6.67564">
        <ele>1930.5999755859</ele>
        <time>2020-01-15T09:12:53.000Z</time>
      </trkpt>
      <trkpt lat="45.63437" lon="6.67565">
        <ele>1930.8000488281</ele>
        <time>2020-01-15T09:12:54.000Z</time>
      </trkpt>
      <trkpt lat="45.63442" lon="6.67567">
        <ele>1932.1999511719</ele>
        <time>2020-01-15T09:13:00.000Z</time>
      </trkpt>
      <trkpt lat="45.63444" lon="6.67568">
        <ele>1932.8000488281</ele>
        <time>2020-01-15T09:13:04.000Z</time>
      </trkpt>
      <trkpt lat="45.63445" lon="6.67568">
        <ele>1933.1999511719</ele>
        <time>2020-01-15T09:13:06.000Z</time>
      </trkpt>
      <trkpt lat="45.63447" lon="6.67569">
        <ele>1934</ele>
        <time>2020-01-15T09:13:09.000Z</time>
      </trkpt>
      <trkpt lat="45.63447" lon="6.67569">
        <ele>1934.4000244141</ele>
        <time>2020-01-15T09:13:11.000Z</time>
      </trkpt>
      <trkpt lat="45.63449" lon="6.67571">
        <ele>1935</ele>
        <time>2020-01-15T09:13:15.000Z</time>
      </trkpt>
      <trkpt lat="45.6345" lon="6.67572">
        <ele>1935.8000488281</ele>
        <time>2020-01-15T09:13:18.000Z</time>
      </trkpt>
      <trkpt lat="45.63451" lon="6.67572">
        <ele>1936.4000244141</ele>
        <time>2020-01-15T09:13:21.000Z</time>
      </trkpt>
      <trkpt lat="45.63454" lon="6.67571">
        <ele>1936.8000488281</ele>
        <time>2020-01-15T09:13:25.000Z</time>
      </trkpt>
      <trkpt lat="45.63455" lon="6.67571">
        <ele>1936.8000488281</ele>
        <time>2020-01-15T09:13:26.000Z</time>
      </trkpt>
      <trkpt lat="45.63458" lon="6.67573">
        <ele>1937.8000488281</ele>
        <time>2020-01-15T09:13:32.000Z</time>
      </trkpt>
      <trkpt lat="45.63458" lon="6.67573">
        <ele>1938.1999511719</ele>
        <time>2020-01-15T09:13:34.000Z</time>
      </trkpt>
      <trkpt lat="45.63462" lon="6.67575">
        <ele>1938.8000488281</ele>
        <time>2020-01-15T09:13:38.000Z</time>
      </trkpt>
      <trkpt lat="45.63463" lon="6.67576">
        <ele>1939.1999511719</ele>
        <time>2020-01-15T09:13:40.000Z</time>
      </trkpt>
      <trkpt lat="45.63467" lon="6.67578">
        <ele>1939.8000488281</ele>
        <time>2020-01-15T09:13:46.000Z</time>
      </trkpt>
      <trkpt lat="45.63467" lon="6.67578">
        <ele>1940</ele>
        <time>2020-01-15T09:13:47.000Z</time>
      </trkpt>
      <trkpt lat="45.63471" lon="6.6758">
        <ele>1941</ele>
        <time>2020-01-15T09:13:52.000Z</time>
      </trkpt>
      <trkpt lat="45.63473" lon="6.67581">
        <ele>1942</ele>
        <time>2020-01-15T09:13:59.000Z</time>
      </trkpt>
      <trkpt lat="45.63473" lon="6.67582">
        <ele>1942.1999511719</ele>
        <time>2020-01-15T09:14:00.000Z</time>
      </trkpt>
      <trkpt lat="45.63477" lon="6.67584">
        <ele>1943.1999511719</ele>
        <time>2020-01-15T09:14:04.000Z</time>
      </trkpt>
      <trkpt lat="45.63478" lon="6.67584">
        <ele>1943.4000244141</ele>
        <time>2020-01-15T09:14:05.000Z</time>
      </trkpt>
      <trkpt lat="45.63481" lon="6.67584">
        <ele>1944.4000244141</ele>
        <time>2020-01-15T09:14:09.000Z</time>
      </trkpt>
      <trkpt lat="45.63481" lon="6.67584">
        <ele>1944.5999755859</ele>
        <time>2020-01-15T09:14:10.000Z</time>
      </trkpt>
      <trkpt lat="45.63484" lon="6.67586">
        <ele>1945.4000244141</ele>
        <time>2020-01-15T09:14:14.000Z</time>
      </trkpt>
      <trkpt lat="45.63484" lon="6.67586">
        <ele>1945.4000244141</ele>
        <time>2020-01-15T09:14:15.000Z</time>
      </trkpt>
      <trkpt lat="45.63487" lon="6.67586">
        <ele>1946.5999755859</ele>
        <time>2020-01-15T09:14:20.000Z</time>
      </trkpt>
      <trkpt lat="45.63488" lon="6.67586">
        <ele>1946.8000488281</ele>
        <time>2020-01-15T09:14:21.000Z</time>
      </trkpt>
      <trkpt lat="45.63491" lon="6.67586">
        <ele>1947.5999755859</ele>
        <time>2020-01-15T09:14:25.000Z</time>
      </trkpt>
      <trkpt lat="45.63493" lon="6.67586">
        <ele>1948</ele>
        <time>2020-01-15T09:14:28.000Z</time>
      </trkpt>
      <trkpt lat="45.63497" lon="6.67585">
        <ele>1948.8000488281</ele>
        <time>2020-01-15T09:14:32.000Z</time>
      </trkpt>
      <trkpt lat="45.63497" lon="6.67585">
        <ele>1949</ele>
        <time>2020-01-15T09:14:33.000Z</time>
      </trkpt>
      <trkpt lat="45.63499" lon="6.67588">
        <ele>1950</ele>
        <time>2020-01-15T09:14:38.000Z</time>
      </trkpt>
      <trkpt lat="45.63501" lon="6.67589">
        <ele>1950.4000244141</ele>
        <time>2020-01-15T09:14:40.000Z</time>
      </trkpt>
      <trkpt lat="45.63502" lon="6.67589">
        <ele>1951</ele>
        <time>2020-01-15T09:14:43.000Z</time>
      </trkpt>
      <trkpt lat="45.63504" lon="6.67589">
        <ele>1952</ele>
        <time>2020-01-15T09:14:47.000Z</time>
      </trkpt>
      <trkpt lat="45.63505" lon="6.67589">
        <ele>1952.1999511719</ele>
        <time>2020-01-15T09:14:48.000Z</time>
      </trkpt>
      <trkpt lat="45.63509" lon="6.67589">
        <ele>1952.8000488281</ele>
        <time>2020-01-15T09:14:52.000Z</time>
      </trkpt>
      <trkpt lat="45.63511" lon="6.67589">
        <ele>1953.1999511719</ele>
        <time>2020-01-15T09:14:55.000Z</time>
      </trkpt>
      <trkpt lat="45.63514" lon="6.67589">
        <ele>1953.8000488281</ele>
        <time>2020-01-15T09:14:58.000Z</time>
      </trkpt>
      <trkpt lat="45.63515" lon="6.67589">
        <ele>1954.4000244141</ele>
        <time>2020-01-15T09:15:01.000Z</time>
      </trkpt>
      <trkpt lat="45.63516" lon="6.67589">
        <ele>1955</ele>
        <time>2020-01-15T09:15:04.000Z</time>
      </trkpt>
      <trkpt lat="45.63518" lon="6.67589">
        <ele>1955.4000244141</ele>
        <time>2020-01-15T09:15:06.000Z</time>
      </trkpt>
      <trkpt lat="45.63522" lon="6.67588">
        <ele>1955.8000488281</ele>
        <time>2020-01-15T09:15:10.000Z</time>
      </trkpt>
      <trkpt lat="45.63524" lon="6.67589">
        <ele>1956.5999755859</ele>
        <time>2020-01-15T09:15:15.000Z</time>
      </trkpt>
      <trkpt lat="45.63525" lon="6.67589">
        <ele>1957</ele>
        <time>2020-01-15T09:15:17.000Z</time>
      </trkpt>
      <trkpt lat="45.63527" lon="6.6759">
        <ele>1957.8000488281</ele>
        <time>2020-01-15T09:15:22.000Z</time>
      </trkpt>
      <trkpt lat="45.63529" lon="6.67591">
        <ele>1958.1999511719</ele>
        <time>2020-01-15T09:15:24.000Z</time>
      </trkpt>
      <trkpt lat="45.6353" lon="6.67592">
        <ele>1958.8000488281</ele>
        <time>2020-01-15T09:15:27.000Z</time>
      </trkpt>
      <trkpt lat="45.63531" lon="6.67593">
        <ele>1959.1999511719</ele>
        <time>2020-01-15T09:15:29.000Z</time>
      </trkpt>
      <trkpt lat="45.63535" lon="6.67595">
        <ele>1960</ele>
        <time>2020-01-15T09:15:34.000Z</time>
      </trkpt>
      <trkpt lat="45.63537" lon="6.67596">
        <ele>1960.4000244141</ele>
        <time>2020-01-15T09:15:36.000Z</time>
      </trkpt>
      <trkpt lat="45.63538" lon="6.67596">
        <ele>1961.1999511719</ele>
        <time>2020-01-15T09:15:40.000Z</time>
      </trkpt>
      <trkpt lat="45.63538" lon="6.67597">
        <ele>1961.4000244141</ele>
        <time>2020-01-15T09:15:41.000Z</time>
      </trkpt>
      <trkpt lat="45.63542" lon="6.67596">
        <ele>1962.1999511719</ele>
        <time>2020-01-15T09:15:46.000Z</time>
      </trkpt>
      <trkpt lat="45.63542" lon="6.67596">
        <ele>1962.4000244141</ele>
        <time>2020-01-15T09:15:47.000Z</time>
      </trkpt>
      <trkpt lat="45.63546" lon="6.67596">
        <ele>1963.1999511719</ele>
        <time>2020-01-15T09:15:52.000Z</time>
      </trkpt>
      <trkpt lat="45.63546" lon="6.67596">
        <ele>1963.1999511719</ele>
        <time>2020-01-15T09:15:53.000Z</time>
      </trkpt>
      <trkpt lat="45.6355" lon="6.67595">
        <ele>1964.1999511719</ele>
        <time>2020-01-15T09:15:59.000Z</time>
      </trkpt>
      <trkpt lat="45.63551" lon="6.67595">
        <ele>1964.4000244141</ele>
        <time>2020-01-15T09:16:00.000Z</time>
      </trkpt>
      <trkpt lat="45.63553" lon="6.67596">
        <ele>1965.4000244141</ele>
        <time>2020-01-15T09:16:05.000Z</time>
      </trkpt>
      <trkpt lat="45.63553" lon="6.67596">
        <ele>1965.5999755859</ele>
        <time>2020-01-15T09:16:06.000Z</time>
      </trkpt>
      <trkpt lat="45.63556" lon="6.67595">
        <ele>1966.5999755859</ele>
        <time>2020-01-15T09:16:12.000Z</time>
      </trkpt>
      <trkpt lat="45.63557" lon="6.67595">
        <ele>1966.5999755859</ele>
        <time>2020-01-15T09:16:13.000Z</time>
      </trkpt>
      <trkpt lat="45.6356" lon="6.67594">
        <ele>1967.5999755859</ele>
        <time>2020-01-15T09:16:17.000Z</time>
      </trkpt>
      <trkpt lat="45.63562" lon="6.67593">
        <ele>1968.1999511719</ele>
        <time>2020-01-15T09:16:20.000Z</time>
      </trkpt>
      <trkpt lat="45.63564" lon="6.67593">
        <ele>1968.8000488281</ele>
        <time>2020-01-15T09:16:24.000Z</time>
      </trkpt>
      <trkpt lat="45.63564" lon="6.67593">
        <ele>1968.8000488281</ele>
        <time>2020-01-15T09:16:25.000Z</time>
      </trkpt>
      <trkpt lat="45.63565" lon="6.67593">
        <ele>1969.8000488281</ele>
        <time>2020-01-15T09:16:29.000Z</time>
      </trkpt>
      <trkpt lat="45.63567" lon="6.67595">
        <ele>1970.4000244141</ele>
        <time>2020-01-15T09:16:32.000Z</time>
      </trkpt>
      <trkpt lat="45.63568" lon="6.67595">
        <ele>1970.8000488281</ele>
        <time>2020-01-15T09:16:34.000Z</time>
      </trkpt>
      <trkpt lat="45.63571" lon="6.67594">
        <ele>1971.5999755859</ele>
        <time>2020-01-15T09:16:38.000Z</time>
      </trkpt>
      <trkpt lat="45.63571" lon="6.67594">
        <ele>1971.8000488281</ele>
        <time>2020-01-15T09:16:40.000Z</time>
      </trkpt>
      <trkpt lat="45.63573" lon="6.67594">
        <ele>1972.8000488281</ele>
        <time>2020-01-15T09:16:44.000Z</time>
      </trkpt>
      <trkpt lat="45.63574" lon="6.67594">
        <ele>1973</ele>
        <time>2020-01-15T09:16:45.000Z</time>
      </trkpt>
      <trkpt lat="45.63579" lon="6.67592">
        <ele>1974</ele>
        <time>2020-01-15T09:16:51.000Z</time>
      </trkpt>
      <trkpt lat="45.63579" lon="6.67592">
        <ele>1974.1999511719</ele>
        <time>2020-01-15T09:16:52.000Z</time>
      </trkpt>
      <trkpt lat="45.63583" lon="6.67591">
        <ele>1975.1999511719</ele>
        <time>2020-01-15T09:16:58.000Z</time>
      </trkpt>
      <trkpt lat="45.63583" lon="6.67591">
        <ele>1976.1999511719</ele>
        <time>2020-01-15T09:17:02.000Z</time>
      </trkpt>
      <trkpt lat="45.63586" lon="6.67589">
        <ele>1977</ele>
        <time>2020-01-15T09:17:07.000Z</time>
      </trkpt>
      <trkpt lat="45.63587" lon="6.67589">
        <ele>1977.1999511719</ele>
        <time>2020-01-15T09:17:08.000Z</time>
      </trkpt>
      <trkpt lat="45.63593" lon="6.67587">
        <ele>1978.1999511719</ele>
        <time>2020-01-15T09:17:14.000Z</time>
      </trkpt>
      <trkpt lat="45.63596" lon="6.67586">
        <ele>1979.1999511719</ele>
        <time>2020-01-15T09:17:21.000Z</time>
      </trkpt>
      <trkpt lat="45.63596" lon="6.67586">
        <ele>1979.4000244141</ele>
        <time>2020-01-15T09:17:22.000Z</time>
      </trkpt>
      <trkpt lat="45.63599" lon="6.67586">
        <ele>1980.4000244141</ele>
        <time>2020-01-15T09:17:27.000Z</time>
      </trkpt>
      <trkpt lat="45.636" lon="6.67586">
        <ele>1981.4000244141</ele>
        <time>2020-01-15T09:17:33.000Z</time>
      </trkpt>
      <trkpt lat="45.63602" lon="6.67586">
        <ele>1981.5999755859</ele>
        <time>2020-01-15T09:17:34.000Z</time>
      </trkpt>
      <trkpt lat="45.63608" lon="6.67585">
        <ele>1982.5999755859</ele>
        <time>2020-01-15T09:17:41.000Z</time>
      </trkpt>
      <trkpt lat="45.63609" lon="6.67586">
        <ele>1982.5999755859</ele>
        <time>2020-01-15T09:17:42.000Z</time>
      </trkpt>
      <trkpt lat="45.63617" lon="6.67585">
        <ele>1983.5999755859</ele>
        <time>2020-01-15T09:17:48.000Z</time>
      </trkpt>
      <trkpt lat="45.63619" lon="6.67585">
        <ele>1984.5999755859</ele>
        <time>2020-01-15T09:17:54.000Z</time>
      </trkpt>
      <trkpt lat="45.63621" lon="6.67585">
        <ele>1985</ele>
        <time>2020-01-15T09:17:56.000Z</time>
      </trkpt>
      <trkpt lat="45.63625" lon="6.67584">
        <ele>1985.8000488281</ele>
        <time>2020-01-15T09:18:01.000Z</time>
      </trkpt>
      <trkpt lat="45.63626" lon="6.67584">
        <ele>1986.1999511719</ele>
        <time>2020-01-15T09:18:03.000Z</time>
      </trkpt>
      <trkpt lat="45.63628" lon="6.67584">
        <ele>1986.8000488281</ele>
        <time>2020-01-15T09:18:07.000Z</time>
      </trkpt>
      <trkpt lat="45.63632" lon="6.67584">
        <ele>1987.1999511719</ele>
        <time>2020-01-15T09:18:10.000Z</time>
      </trkpt>
      <trkpt lat="45.63635" lon="6.67583">
        <ele>1987.8000488281</ele>
        <time>2020-01-15T09:18:15.000Z</time>
      </trkpt>
      <trkpt lat="45.63635" lon="6.67583">
        <ele>1988</ele>
        <time>2020-01-15T09:18:16.000Z</time>
      </trkpt>
      <trkpt lat="45.63637" lon="6.67581">
        <ele>1989</ele>
        <time>2020-01-15T09:18:20.000Z</time>
      </trkpt>
      <trkpt lat="45.63637" lon="6.67581">
        <ele>1989.5999755859</ele>
        <time>2020-01-15T09:18:24.000Z</time>
      </trkpt>
      <trkpt lat="45.63638" lon="6.67581">
        <ele>1989.5999755859</ele>
        <time>2020-01-15T09:18:30.000Z</time>
      </trkpt>
      <trkpt lat="45.63638" lon="6.67581">
        <ele>1989.5999755859</ele>
        <time>2020-01-15T09:18:46.000Z</time>
      </trkpt>
      <trkpt lat="45.63639" lon="6.67581">
        <ele>1989.5999755859</ele>
        <time>2020-01-15T09:18:57.000Z</time>
      </trkpt>
      <trkpt lat="45.63641" lon="6.67582">
        <ele>1989.8000488281</ele>
        <time>2020-01-15T09:19:03.000Z</time>
      </trkpt>
      <trkpt lat="45.63642" lon="6.67583">
        <ele>1990.1999511719</ele>
        <time>2020-01-15T09:19:05.000Z</time>
      </trkpt>
      <trkpt lat="45.63646" lon="6.67583">
        <ele>1991.1999511719</ele>
        <time>2020-01-15T09:19:09.000Z</time>
      </trkpt>
      <trkpt lat="45.6365" lon="6.67583">
        <ele>1992.4000244141</ele>
        <time>2020-01-15T09:19:15.000Z</time>
      </trkpt>
      <trkpt lat="45.63651" lon="6.67586">
        <ele>1993.4000244141</ele>
        <time>2020-01-15T09:19:22.000Z</time>
      </trkpt>
      <trkpt lat="45.63654" lon="6.67587">
        <ele>1994.4000244141</ele>
        <time>2020-01-15T09:19:26.000Z</time>
      </trkpt>
      <trkpt lat="45.63654" lon="6.67588">
        <ele>1995</ele>
        <time>2020-01-15T09:19:28.000Z</time>
      </trkpt>
      <trkpt lat="45.63656" lon="6.67588">
        <ele>1995.5999755859</ele>
        <time>2020-01-15T09:19:31.000Z</time>
      </trkpt>
      <trkpt lat="45.63658" lon="6.67589">
        <ele>1996.4000244141</ele>
        <time>2020-01-15T09:19:36.000Z</time>
      </trkpt>
      <trkpt lat="45.63659" lon="6.67589">
        <ele>1996.5999755859</ele>
        <time>2020-01-15T09:19:38.000Z</time>
      </trkpt>
      <trkpt lat="45.6366" lon="6.6759">
        <ele>1997.5999755859</ele>
        <time>2020-01-15T09:19:42.000Z</time>
      </trkpt>
      <trkpt lat="45.63661" lon="6.67591">
        <ele>1997.8000488281</ele>
        <time>2020-01-15T09:19:43.000Z</time>
      </trkpt>
      <trkpt lat="45.63664" lon="6.67594">
        <ele>1998.5999755859</ele>
        <time>2020-01-15T09:19:47.000Z</time>
      </trkpt>
      <trkpt lat="45.63667" lon="6.67595">
        <ele>1999</ele>
        <time>2020-01-15T09:19:49.000Z</time>
      </trkpt>
      <trkpt lat="45.63668" lon="6.67595">
        <ele>1999.4000244141</ele>
        <time>2020-01-15T09:19:52.000Z</time>
      </trkpt>
      <trkpt lat="45.6367" lon="6.67595">
        <ele>2000</ele>
        <time>2020-01-15T09:19:55.000Z</time>
      </trkpt>
      <trkpt lat="45.63672" lon="6.67594">
        <ele>2000.5999755859</ele>
        <time>2020-01-15T09:19:58.000Z</time>
      </trkpt>
      <trkpt lat="45.63672" lon="6.67594">
        <ele>2001</ele>
        <time>2020-01-15T09:20:00.000Z</time>
      </trkpt>
      <trkpt lat="45.63675" lon="6.67594">
        <ele>2001.8000488281</ele>
        <time>2020-01-15T09:20:05.000Z</time>
      </trkpt>
      <trkpt lat="45.63676" lon="6.67595">
        <ele>2002.1999511719</ele>
        <time>2020-01-15T09:20:07.000Z</time>
      </trkpt>
      <trkpt lat="45.63677" lon="6.67596">
        <ele>2002.8000488281</ele>
        <time>2020-01-15T09:20:10.000Z</time>
      </trkpt>
      <trkpt lat="45.63677" lon="6.67597">
        <ele>2003.1999511719</ele>
        <time>2020-01-15T09:20:12.000Z</time>
      </trkpt>
      <trkpt lat="45.6368" lon="6.67601">
        <ele>2004.1999511719</ele>
        <time>2020-01-15T09:20:15.000Z</time>
      </trkpt>
      <trkpt lat="45.63679" lon="6.67601">
        <ele>2004.1999511719</ele>
        <time>2020-01-15T09:20:16.000Z</time>
      </trkpt>
      <trkpt lat="45.6368" lon="6.67602">
        <ele>2004.8000488281</ele>
        <time>2020-01-15T09:20:19.000Z</time>
      </trkpt>
      <trkpt lat="45.6368" lon="6.67602">
        <ele>2005.5999755859</ele>
        <time>2020-01-15T09:20:22.000Z</time>
      </trkpt>
      <trkpt lat="45.63683" lon="6.67603">
        <ele>2005.8000488281</ele>
        <time>2020-01-15T09:20:24.000Z</time>
      </trkpt>
      <trkpt lat="45.63685" lon="6.67604">
        <ele>2006.5999755859</ele>
        <time>2020-01-15T09:20:29.000Z</time>
      </trkpt>
      <trkpt lat="45.63686" lon="6.67604">
        <ele>2006.8000488281</ele>
        <time>2020-01-15T09:20:30.000Z</time>
      </trkpt>
      <trkpt lat="45.63688" lon="6.67607">
        <ele>2007.8000488281</ele>
        <time>2020-01-15T09:20:37.000Z</time>
      </trkpt>
      <trkpt lat="45.63691" lon="6.67609">
        <ele>2008.8000488281</ele>
        <time>2020-01-15T09:20:41.000Z</time>
      </trkpt>
      <trkpt lat="45.63692" lon="6.6761">
        <ele>2009</ele>
        <time>2020-01-15T09:20:42.000Z</time>
      </trkpt>
      <trkpt lat="45.63693" lon="6.67613">
        <ele>2009.8000488281</ele>
        <time>2020-01-15T09:20:47.000Z</time>
      </trkpt>
      <trkpt lat="45.63697" lon="6.67614">
        <ele>2010.8000488281</ele>
        <time>2020-01-15T09:20:52.000Z</time>
      </trkpt>
      <trkpt lat="45.63698" lon="6.67613">
        <ele>2011</ele>
        <time>2020-01-15T09:20:53.000Z</time>
      </trkpt>
      <trkpt lat="45.63701" lon="6.67611">
        <ele>2012</ele>
        <time>2020-01-15T09:20:59.000Z</time>
      </trkpt>
      <trkpt lat="45.63704" lon="6.67608">
        <ele>2013</ele>
        <time>2020-01-15T09:21:06.000Z</time>
      </trkpt>
      <trkpt lat="45.63708" lon="6.67606">
        <ele>2014.1999511719</ele>
        <time>2020-01-15T09:21:13.000Z</time>
      </trkpt>
      <trkpt lat="45.6371" lon="6.67605">
        <ele>2014.4000244141</ele>
        <time>2020-01-15T09:21:15.000Z</time>
      </trkpt>
      <trkpt lat="45.6371" lon="6.67605">
        <ele>2015.1999511719</ele>
        <time>2020-01-15T09:21:19.000Z</time>
      </trkpt>
      <trkpt lat="45.6371" lon="6.67605">
        <ele>2016</ele>
        <time>2020-01-15T09:21:22.000Z</time>
      </trkpt>
      <trkpt lat="45.63712" lon="6.67608">
        <ele>2016.4000244141</ele>
        <time>2020-01-15T09:21:25.000Z</time>
      </trkpt>
      <trkpt lat="45.63713" lon="6.67609">
        <ele>2017</ele>
        <time>2020-01-15T09:21:27.000Z</time>
      </trkpt>
      <trkpt lat="45.63713" lon="6.67609">
        <ele>2017.5999755859</ele>
        <time>2020-01-15T09:21:30.000Z</time>
      </trkpt>
      <trkpt lat="45.63714" lon="6.6761">
        <ele>2018</ele>
        <time>2020-01-15T09:21:33.000Z</time>
      </trkpt>
      <trkpt lat="45.63714" lon="6.6761">
        <ele>2018.5999755859</ele>
        <time>2020-01-15T09:21:36.000Z</time>
      </trkpt>
      <trkpt lat="45.63715" lon="6.6761">
        <ele>2019</ele>
        <time>2020-01-15T09:21:38.000Z</time>
      </trkpt>
      <trkpt lat="45.63717" lon="6.67612">
        <ele>2019.4000244141</ele>
        <time>2020-01-15T09:21:42.000Z</time>
      </trkpt>
      <trkpt lat="45.63719" lon="6.67616">
        <ele>2019.8000488281</ele>
        <time>2020-01-15T09:21:45.000Z</time>
      </trkpt>
      <trkpt lat="45.63722" lon="6.67619">
        <ele>2020.1999511719</ele>
        <time>2020-01-15T09:21:48.000Z</time>
      </trkpt>
      <trkpt lat="45.63723" lon="6.6762">
        <ele>2020.8000488281</ele>
        <time>2020-01-15T09:21:52.000Z</time>
      </trkpt>
      <trkpt lat="45.63723" lon="6.6762">
        <ele>2022</ele>
        <time>2020-01-15T09:21:57.000Z</time>
      </trkpt>
      <trkpt lat="45.63723" lon="6.6762">
        <ele>2022.1999511719</ele>
        <time>2020-01-15T09:21:59.000Z</time>
      </trkpt>
      <trkpt lat="45.63723" lon="6.6762">
        <ele>2023</ele>
        <time>2020-01-15T09:22:05.000Z</time>
      </trkpt>
      <trkpt lat="45.63723" lon="6.6762">
        <ele>2023</ele>
        <time>2020-01-15T09:22:06.000Z</time>
      </trkpt>
      <trkpt lat="45.63723" lon="6.6762">
        <ele>2023</ele>
        <time>2020-01-15T09:22:23.000Z</time>
      </trkpt>
      <trkpt lat="45.63725" lon="6.67618">
        <ele>2022.8000488281</ele>
        <time>2020-01-15T09:22:39.000Z</time>
      </trkpt>
      <trkpt lat="45.63726" lon="6.67618">
        <ele>2022.8000488281</ele>
        <time>2020-01-15T09:22:51.000Z</time>
      </trkpt>
      <trkpt lat="45.63733" lon="6.67622">
        <ele>2022.8000488281</ele>
        <time>2020-01-15T09:22:57.000Z</time>
      </trkpt>
      <trkpt lat="45.6374" lon="6.67619">
        <ele>2024</ele>
        <time>2020-01-15T09:23:03.000Z</time>
      </trkpt>
      <trkpt lat="45.63743" lon="6.67617">
        <ele>2025.1999511719</ele>
        <time>2020-01-15T09:23:08.000Z</time>
      </trkpt>
      <trkpt lat="45.63746" lon="6.67615">
        <ele>2025.5999755859</ele>
        <time>2020-01-15T09:23:10.000Z</time>
      </trkpt>
      <trkpt lat="45.63749" lon="6.67612">
        <ele>2026.1999511719</ele>
        <time>2020-01-15T09:23:13.000Z</time>
      </trkpt>
      <trkpt lat="45.63752" lon="6.67611">
        <ele>2027</ele>
        <time>2020-01-15T09:23:17.000Z</time>
      </trkpt>
      <trkpt lat="45.63753" lon="6.67609">
        <ele>2027.4000244141</ele>
        <time>2020-01-15T09:23:19.000Z</time>
      </trkpt>
      <trkpt lat="45.63754" lon="6.67608">
        <ele>2028.4000244141</ele>
        <time>2020-01-15T09:23:24.000Z</time>
      </trkpt>
      <trkpt lat="45.63754" lon="6.67608">
        <ele>2028.5999755859</ele>
        <time>2020-01-15T09:23:25.000Z</time>
      </trkpt>
      <trkpt lat="45.63756" lon="6.67611">
        <ele>2029.8000488281</ele>
        <time>2020-01-15T09:23:29.000Z</time>
      </trkpt>
      <trkpt lat="45.63756" lon="6.67612">
        <ele>2030</ele>
        <time>2020-01-15T09:23:30.000Z</time>
      </trkpt>
      <trkpt lat="45.63757" lon="6.67615">
        <ele>2030.8000488281</ele>
        <time>2020-01-15T09:23:34.000Z</time>
      </trkpt>
      <trkpt lat="45.63757" lon="6.67615">
        <ele>2031</ele>
        <time>2020-01-15T09:23:35.000Z</time>
      </trkpt>
      <trkpt lat="45.6376" lon="6.67619">
        <ele>2031.8000488281</ele>
        <time>2020-01-15T09:23:39.000Z</time>
      </trkpt>
      <trkpt lat="45.6376" lon="6.67619">
        <ele>2032</ele>
        <time>2020-01-15T09:23:40.000Z</time>
      </trkpt>
      <trkpt lat="45.63761" lon="6.67624">
        <ele>2032.8000488281</ele>
        <time>2020-01-15T09:23:45.000Z</time>
      </trkpt>
      <trkpt lat="45.63762" lon="6.67629">
        <ele>2034</ele>
        <time>2020-01-15T09:23:50.000Z</time>
      </trkpt>
      <trkpt lat="45.63762" lon="6.6763">
        <ele>2034.1999511719</ele>
        <time>2020-01-15T09:23:51.000Z</time>
      </trkpt>
      <trkpt lat="45.63764" lon="6.67636">
        <ele>2035.1999511719</ele>
        <time>2020-01-15T09:23:58.000Z</time>
      </trkpt>
      <trkpt lat="45.63767" lon="6.6764">
        <ele>2036</ele>
        <time>2020-01-15T09:24:04.000Z</time>
      </trkpt>
      <trkpt lat="45.63766" lon="6.67641">
        <ele>2036.1999511719</ele>
        <time>2020-01-15T09:24:06.000Z</time>
      </trkpt>
      <trkpt lat="45.63766" lon="6.67641">
        <ele>2036.4000244141</ele>
        <time>2020-01-15T09:24:09.000Z</time>
      </trkpt>
      <trkpt lat="45.63769" lon="6.67643">
        <ele>2037.5999755859</ele>
        <time>2020-01-15T09:24:14.000Z</time>
      </trkpt>
      <trkpt lat="45.6377" lon="6.67643">
        <ele>2037.8000488281</ele>
        <time>2020-01-15T09:24:15.000Z</time>
      </trkpt>
      <trkpt lat="45.63775" lon="6.67644">
        <ele>2038.5999755859</ele>
        <time>2020-01-15T09:24:21.000Z</time>
      </trkpt>
      <trkpt lat="45.63775" lon="6.67644">
        <ele>2038.8000488281</ele>
        <time>2020-01-15T09:24:22.000Z</time>
      </trkpt>
      <trkpt lat="45.63777" lon="6.67649">
        <ele>2039.8000488281</ele>
        <time>2020-01-15T09:24:26.000Z</time>
      </trkpt>
      <trkpt lat="45.63778" lon="6.67652">
        <ele>2040.5999755859</ele>
        <time>2020-01-15T09:24:29.000Z</time>
      </trkpt>
      <trkpt lat="45.63778" lon="6.67654">
        <ele>2040.8000488281</ele>
        <time>2020-01-15T09:24:31.000Z</time>
      </trkpt>
      <trkpt lat="45.6378" lon="6.67659">
        <ele>2041.5999755859</ele>
        <time>2020-01-15T09:24:36.000Z</time>
      </trkpt>
      <trkpt lat="45.63781" lon="6.67659">
        <ele>2042.1999511719</ele>
        <time>2020-01-15T09:24:38.000Z</time>
      </trkpt>
      <trkpt lat="45.63782" lon="6.6766">
        <ele>2043</ele>
        <time>2020-01-15T09:24:41.000Z</time>
      </trkpt>
      <trkpt lat="45.63783" lon="6.67661">
        <ele>2043.4000244141</ele>
        <time>2020-01-15T09:24:42.000Z</time>
      </trkpt>
      <trkpt lat="45.63784" lon="6.67664">
        <ele>2043.8000488281</ele>
        <time>2020-01-15T09:24:47.000Z</time>
      </trkpt>
      <trkpt lat="45.63785" lon="6.67665">
        <ele>2044.4000244141</ele>
        <time>2020-01-15T09:24:50.000Z</time>
      </trkpt>
      <trkpt lat="45.63785" lon="6.67665">
        <ele>2044.5999755859</ele>
        <time>2020-01-15T09:24:52.000Z</time>
      </trkpt>
      <trkpt lat="45.63785" lon="6.67665">
        <ele>2045.4000244141</ele>
        <time>2020-01-15T09:24:57.000Z</time>
      </trkpt>
      <trkpt lat="45.63785" lon="6.67665">
        <ele>2045.5999755859</ele>
        <time>2020-01-15T09:24:58.000Z</time>
      </trkpt>
      <trkpt lat="45.63785" lon="6.67665">
        <ele>2046.5999755859</ele>
        <time>2020-01-15T09:25:02.000Z</time>
      </trkpt>
      <trkpt lat="45.63785" lon="6.67665">
        <ele>2047.4000244141</ele>
        <time>2020-01-15T09:25:06.000Z</time>
      </trkpt>
      <trkpt lat="45.63785" lon="6.67665">
        <ele>2047.5999755859</ele>
        <time>2020-01-15T09:25:07.000Z</time>
      </trkpt>
      <trkpt lat="45.63785" lon="6.67665">
        <ele>2048.8000488281</ele>
        <time>2020-01-15T09:25:13.000Z</time>
      </trkpt>
      <trkpt lat="45.63785" lon="6.67665">
        <ele>2048.8000488281</ele>
        <time>2020-01-15T09:25:14.000Z</time>
      </trkpt>
      <trkpt lat="45.63792" lon="6.67661">
        <ele>2049.3999023438</ele>
        <time>2020-01-15T09:25:18.000Z</time>
      </trkpt>
      <trkpt lat="45.63792" lon="6.67661">
        <ele>2049.6000976562</ele>
        <time>2020-01-15T09:25:20.000Z</time>
      </trkpt>
      <trkpt lat="45.63792" lon="6.67661">
        <ele>2050</ele>
        <time>2020-01-15T09:25:21.000Z</time>
      </trkpt>
      <trkpt lat="45.63794" lon="6.6766">
        <ele>2051</ele>
        <time>2020-01-15T09:25:27.000Z</time>
      </trkpt>
      <trkpt lat="45.63795" lon="6.6766">
        <ele>2051.1999511719</ele>
        <time>2020-01-15T09:25:28.000Z</time>
      </trkpt>
      <trkpt lat="45.63799" lon="6.67661">
        <ele>2052</ele>
        <time>2020-01-15T09:25:31.000Z</time>
      </trkpt>
      <trkpt lat="45.63804" lon="6.67664">
        <ele>2053.1999511719</ele>
        <time>2020-01-15T09:25:34.000Z</time>
      </trkpt>
      <trkpt lat="45.63804" lon="6.67665">
        <ele>2053.6000976562</ele>
        <time>2020-01-15T09:25:36.000Z</time>
      </trkpt>
      <trkpt lat="45.63805" lon="6.67665">
        <ele>2054.1999511719</ele>
        <time>2020-01-15T09:25:39.000Z</time>
      </trkpt>
      <trkpt lat="45.63805" lon="6.67665">
        <ele>2054.6000976562</ele>
        <time>2020-01-15T09:25:41.000Z</time>
      </trkpt>
      <trkpt lat="45.63805" lon="6.67665">
        <ele>2055.3999023438</ele>
        <time>2020-01-15T09:25:45.000Z</time>
      </trkpt>
      <trkpt lat="45.63808" lon="6.67668">
        <ele>2055.8000488281</ele>
        <time>2020-01-15T09:25:48.000Z</time>
      </trkpt>
      <trkpt lat="45.63809" lon="6.67669">
        <ele>2056.6000976562</ele>
        <time>2020-01-15T09:25:50.000Z</time>
      </trkpt>
      <trkpt lat="45.6381" lon="6.6767">
        <ele>2057.3999023438</ele>
        <time>2020-01-15T09:25:54.000Z</time>
      </trkpt>
      <trkpt lat="45.6381" lon="6.6767">
        <ele>2057.6000976562</ele>
        <time>2020-01-15T09:25:55.000Z</time>
      </trkpt>
      <trkpt lat="45.63813" lon="6.67673">
        <ele>2058.3999023438</ele>
        <time>2020-01-15T09:25:59.000Z</time>
      </trkpt>
      <trkpt lat="45.63813" lon="6.67673">
        <ele>2058.8000488281</ele>
        <time>2020-01-15T09:26:01.000Z</time>
      </trkpt>
      <trkpt lat="45.63814" lon="6.67674">
        <ele>2059.3999023438</ele>
        <time>2020-01-15T09:26:05.000Z</time>
      </trkpt>
      <trkpt lat="45.63817" lon="6.67675">
        <ele>2059.8000488281</ele>
        <time>2020-01-15T09:26:07.000Z</time>
      </trkpt>
      <trkpt lat="45.63821" lon="6.67673">
        <ele>2060.8000488281</ele>
        <time>2020-01-15T09:26:11.000Z</time>
      </trkpt>
      <trkpt lat="45.63821" lon="6.67673">
        <ele>2061</ele>
        <time>2020-01-15T09:26:12.000Z</time>
      </trkpt>
      <trkpt lat="45.63821" lon="6.67673">
        <ele>2061.3999023438</ele>
        <time>2020-01-15T09:26:24.000Z</time>
      </trkpt>
      <trkpt lat="45.63821" lon="6.67673">
        <ele>2061.6000976562</ele>
        <time>2020-01-15T09:26:33.000Z</time>
      </trkpt>
      <trkpt lat="45.63827" lon="6.67672">
        <ele>2062</ele>
        <time>2020-01-15T09:26:38.000Z</time>
      </trkpt>
      <trkpt lat="45.6383" lon="6.67672">
        <ele>2062.3999023438</ele>
        <time>2020-01-15T09:26:40.000Z</time>
      </trkpt>
      <trkpt lat="45.63833" lon="6.67672">
        <ele>2063</ele>
        <time>2020-01-15T09:26:44.000Z</time>
      </trkpt>
      <trkpt lat="45.63835" lon="6.67673">
        <ele>2063.6000976562</ele>
        <time>2020-01-15T09:26:46.000Z</time>
      </trkpt>
      <trkpt lat="45.63836" lon="6.67676">
        <ele>2064.1999511719</ele>
        <time>2020-01-15T09:26:49.000Z</time>
      </trkpt>
      <trkpt lat="45.63839" lon="6.67677">
        <ele>2064.8000488281</ele>
        <time>2020-01-15T09:26:52.000Z</time>
      </trkpt>
      <trkpt lat="45.63841" lon="6.67677">
        <ele>2065.3999023438</ele>
        <time>2020-01-15T09:26:54.000Z</time>
      </trkpt>
      <trkpt lat="45.63844" lon="6.67679">
        <ele>2066.1999511719</ele>
        <time>2020-01-15T09:26:58.000Z</time>
      </trkpt>
      <trkpt lat="45.63844" lon="6.6768">
        <ele>2066.3999023438</ele>
        <time>2020-01-15T09:26:59.000Z</time>
      </trkpt>
      <trkpt lat="45.63846" lon="6.67683">
        <ele>2067.3999023438</ele>
        <time>2020-01-15T09:27:03.000Z</time>
      </trkpt>
      <trkpt lat="45.63847" lon="6.67684">
        <ele>2067.6000976562</ele>
        <time>2020-01-15T09:27:05.000Z</time>
      </trkpt>
      <trkpt lat="45.63852" lon="6.67688">
        <ele>2068.6000976562</ele>
        <time>2020-01-15T09:27:12.000Z</time>
      </trkpt>
      <trkpt lat="45.63852" lon="6.67688">
        <ele>2068.6000976562</ele>
        <time>2020-01-15T09:27:13.000Z</time>
      </trkpt>
      <trkpt lat="45.63853" lon="6.6769">
        <ele>2069.6000976562</ele>
        <time>2020-01-15T09:27:18.000Z</time>
      </trkpt>
      <trkpt lat="45.63854" lon="6.67691">
        <ele>2070.8000488281</ele>
        <time>2020-01-15T09:27:23.000Z</time>
      </trkpt>
      <trkpt lat="45.63856" lon="6.67693">
        <ele>2071</ele>
        <time>2020-01-15T09:27:24.000Z</time>
      </trkpt>
      <trkpt lat="45.63856" lon="6.67693">
        <ele>2072</ele>
        <time>2020-01-15T09:27:27.000Z</time>
      </trkpt>
      <trkpt lat="45.63856" lon="6.67693">
        <ele>2072.3999023438</ele>
        <time>2020-01-15T09:27:29.000Z</time>
      </trkpt>
      <trkpt lat="45.63856" lon="6.67693">
        <ele>2073</ele>
        <time>2020-01-15T09:27:34.000Z</time>
      </trkpt>
      <trkpt lat="45.63856" lon="6.67693">
        <ele>2073.6000976562</ele>
        <time>2020-01-15T09:27:37.000Z</time>
      </trkpt>
      <trkpt lat="45.63856" lon="6.67693">
        <ele>2074.1999511719</ele>
        <time>2020-01-15T09:27:39.000Z</time>
      </trkpt>
      <trkpt lat="45.63856" lon="6.67693">
        <ele>2074.8000488281</ele>
        <time>2020-01-15T09:27:44.000Z</time>
      </trkpt>
      <trkpt lat="45.63858" lon="6.67689">
        <ele>2075.1999511719</ele>
        <time>2020-01-15T09:27:47.000Z</time>
      </trkpt>
      <trkpt lat="45.63861" lon="6.67686">
        <ele>2075.8000488281</ele>
        <time>2020-01-15T09:27:50.000Z</time>
      </trkpt>
      <trkpt lat="45.63865" lon="6.67683">
        <ele>2076.1999511719</ele>
        <time>2020-01-15T09:27:55.000Z</time>
      </trkpt>
      <trkpt lat="45.63869" lon="6.6768">
        <ele>2076.6000976562</ele>
        <time>2020-01-15T09:27:58.000Z</time>
      </trkpt>
      <trkpt lat="45.63872" lon="6.67677">
        <ele>2077.3999023438</ele>
        <time>2020-01-15T09:28:02.000Z</time>
      </trkpt>
      <trkpt lat="45.63875" lon="6.67676">
        <ele>2077.8000488281</ele>
        <time>2020-01-15T09:28:06.000Z</time>
      </trkpt>
      <trkpt lat="45.63878" lon="6.67677">
        <ele>2078.3999023438</ele>
        <time>2020-01-15T09:28:09.000Z</time>
      </trkpt>
      <trkpt lat="45.63881" lon="6.67682">
        <ele>2079.6000976562</ele>
        <time>2020-01-15T09:28:14.000Z</time>
      </trkpt>
      <trkpt lat="45.6388" lon="6.67683">
        <ele>2079.8000488281</ele>
        <time>2020-01-15T09:28:15.000Z</time>
      </trkpt>
      <trkpt lat="45.63883" lon="6.67686">
        <ele>2080.6000976562</ele>
        <time>2020-01-15T09:28:21.000Z</time>
      </trkpt>
      <trkpt lat="45.63883" lon="6.67687">
        <ele>2080.8000488281</ele>
        <time>2020-01-15T09:28:22.000Z</time>
      </trkpt>
      <trkpt lat="45.63885" lon="6.67689">
        <ele>2081.6000976562</ele>
        <time>2020-01-15T09:28:27.000Z</time>
      </trkpt>
      <trkpt lat="45.63886" lon="6.6769">
        <ele>2081.8000488281</ele>
        <time>2020-01-15T09:28:28.000Z</time>
      </trkpt>
      <trkpt lat="45.63886" lon="6.6769">
        <ele>2082.3999023438</ele>
        <time>2020-01-15T09:28:32.000Z</time>
      </trkpt>
      <trkpt lat="45.63886" lon="6.6769">
        <ele>2082.8000488281</ele>
        <time>2020-01-15T09:28:35.000Z</time>
      </trkpt>
      <trkpt lat="45.63886" lon="6.67691">
        <ele>2083.1999511719</ele>
        <time>2020-01-15T09:28:38.000Z</time>
      </trkpt>
      <trkpt lat="45.63889" lon="6.67694">
        <ele>2083.8000488281</ele>
        <time>2020-01-15T09:28:42.000Z</time>
      </trkpt>
      <trkpt lat="45.63889" lon="6.67696">
        <ele>2084.6000976562</ele>
        <time>2020-01-15T09:28:46.000Z</time>
      </trkpt>
      <trkpt lat="45.63889" lon="6.67696">
        <ele>2085</ele>
        <time>2020-01-15T09:28:48.000Z</time>
      </trkpt>
      <trkpt lat="45.63889" lon="6.67696">
        <ele>2086.1999511719</ele>
        <time>2020-01-15T09:28:53.000Z</time>
      </trkpt>
      <trkpt lat="45.63891" lon="6.677">
        <ele>2086.8000488281</ele>
        <time>2020-01-15T09:28:57.000Z</time>
      </trkpt>
      <trkpt lat="45.63891" lon="6.677">
        <ele>2087.1999511719</ele>
        <time>2020-01-15T09:28:59.000Z</time>
      </trkpt>
      <trkpt lat="45.63891" lon="6.677">
        <ele>2088.1999511719</ele>
        <time>2020-01-15T09:29:03.000Z</time>
      </trkpt>
      <trkpt lat="45.63891" lon="6.677">
        <ele>2088.3999023438</ele>
        <time>2020-01-15T09:29:04.000Z</time>
      </trkpt>
      <trkpt lat="45.63894" lon="6.67701">
        <ele>2089.3999023438</ele>
        <time>2020-01-15T09:29:13.000Z</time>
      </trkpt>
      <trkpt lat="45.63896" lon="6.67702">
        <ele>2089.3999023438</ele>
        <time>2020-01-15T09:29:14.000Z</time>
      </trkpt>
      <trkpt lat="45.63903" lon="6.67701">
        <ele>2090</ele>
        <time>2020-01-15T09:29:19.000Z</time>
      </trkpt>
      <trkpt lat="45.63908" lon="6.67697">
        <ele>2090.6000976562</ele>
        <time>2020-01-15T09:29:24.000Z</time>
      </trkpt>
      <trkpt lat="45.63911" lon="6.67695">
        <ele>2091.6000976562</ele>
        <time>2020-01-15T09:29:28.000Z</time>
      </trkpt>
      <trkpt lat="45.63915" lon="6.67692">
        <ele>2092.8000488281</ele>
        <time>2020-01-15T09:29:36.000Z</time>
      </trkpt>
      <trkpt lat="45.63915" lon="6.67692">
        <ele>2093</ele>
        <time>2020-01-15T09:29:37.000Z</time>
      </trkpt>
      <trkpt lat="45.63916" lon="6.67691">
        <ele>2092.6000976562</ele>
        <time>2020-01-15T09:29:49.000Z</time>
      </trkpt>
      <trkpt lat="45.63919" lon="6.67687">
        <ele>2093.1999511719</ele>
        <time>2020-01-15T09:30:01.000Z</time>
      </trkpt>
      <trkpt lat="45.63922" lon="6.67683">
        <ele>2093.6000976562</ele>
        <time>2020-01-15T09:30:06.000Z</time>
      </trkpt>
      <trkpt lat="45.63923" lon="6.67681">
        <ele>2093.8000488281</ele>
        <time>2020-01-15T09:30:09.000Z</time>
      </trkpt>
      <trkpt lat="45.63926" lon="6.67676">
        <ele>2094.6000976562</ele>
        <time>2020-01-15T09:30:12.000Z</time>
      </trkpt>
      <trkpt lat="45.63926" lon="6.67676">
        <ele>2094.8000488281</ele>
        <time>2020-01-15T09:30:13.000Z</time>
      </trkpt>
      <trkpt lat="45.63927" lon="6.67674">
        <ele>2096</ele>
        <time>2020-01-15T09:30:16.000Z</time>
      </trkpt>
      <trkpt lat="45.63927" lon="6.67673">
        <ele>2096</ele>
        <time>2020-01-15T09:30:17.000Z</time>
      </trkpt>
      <trkpt lat="45.63927" lon="6.6767">
        <ele>2096.8000488281</ele>
        <time>2020-01-15T09:30:23.000Z</time>
      </trkpt>
      <trkpt lat="45.63928" lon="6.67671">
        <ele>2097.1999511719</ele>
        <time>2020-01-15T09:30:24.000Z</time>
      </trkpt>
      <trkpt lat="45.6393" lon="6.67673">
        <ele>2098</ele>
        <time>2020-01-15T09:30:28.000Z</time>
      </trkpt>
      <trkpt lat="45.63931" lon="6.67675">
        <ele>2098.1999511719</ele>
        <time>2020-01-15T09:30:30.000Z</time>
      </trkpt>
      <trkpt lat="45.63932" lon="6.67678">
        <ele>2098.6000976562</ele>
        <time>2020-01-15T09:30:34.000Z</time>
      </trkpt>
      <trkpt lat="45.63933" lon="6.67682">
        <ele>2099.1999511719</ele>
        <time>2020-01-15T09:30:38.000Z</time>
      </trkpt>
      <trkpt lat="45.63935" lon="6.67685">
        <ele>2100</ele>
        <time>2020-01-15T09:30:40.000Z</time>
      </trkpt>
      <trkpt lat="45.63935" lon="6.67685">
        <ele>2100.1999511719</ele>
        <time>2020-01-15T09:30:41.000Z</time>
      </trkpt>
      <trkpt lat="45.63935" lon="6.67689">
        <ele>2101</ele>
        <time>2020-01-15T09:30:46.000Z</time>
      </trkpt>
      <trkpt lat="45.63936" lon="6.67691">
        <ele>2101.3999023438</ele>
        <time>2020-01-15T09:30:48.000Z</time>
      </trkpt>
      <trkpt lat="45.63936" lon="6.67691">
        <ele>2101.8000488281</ele>
        <time>2020-01-15T09:30:51.000Z</time>
      </trkpt>
      <trkpt lat="45.63936" lon="6.67691">
        <ele>2102.3999023438</ele>
        <time>2020-01-15T09:30:56.000Z</time>
      </trkpt>
      <trkpt lat="45.63936" lon="6.67691">
        <ele>2102.3999023438</ele>
        <time>2020-01-15T09:30:57.000Z</time>
      </trkpt>
      <trkpt lat="45.63937" lon="6.67692">
        <ele>2103</ele>
        <time>2020-01-15T09:31:02.000Z</time>
      </trkpt>
      <trkpt lat="45.63937" lon="6.67692">
        <ele>2103.6000976562</ele>
        <time>2020-01-15T09:31:03.000Z</time>
      </trkpt>
      <trkpt lat="45.63937" lon="6.67692">
        <ele>2104.6000976562</ele>
        <time>2020-01-15T09:31:11.000Z</time>
      </trkpt>
      <trkpt lat="45.63937" lon="6.67692">
        <ele>2104.8000488281</ele>
        <time>2020-01-15T09:31:12.000Z</time>
      </trkpt>
      <trkpt lat="45.6394" lon="6.67693">
        <ele>2105.6000976562</ele>
        <time>2020-01-15T09:31:20.000Z</time>
      </trkpt>
      <trkpt lat="45.6394" lon="6.67693">
        <ele>2105.8000488281</ele>
        <time>2020-01-15T09:31:21.000Z</time>
      </trkpt>
      <trkpt lat="45.63946" lon="6.67691">
        <ele>2107.1999511719</ele>
        <time>2020-01-15T09:31:27.000Z</time>
      </trkpt>
      <trkpt lat="45.63951" lon="6.67687">
        <ele>2108.3999023438</ele>
        <time>2020-01-15T09:31:34.000Z</time>
      </trkpt>
      <trkpt lat="45.63952" lon="6.67684">
        <ele>2109.3999023438</ele>
        <time>2020-01-15T09:31:40.000Z</time>
      </trkpt>
      <trkpt lat="45.63953" lon="6.67683">
        <ele>2109.6000976562</ele>
        <time>2020-01-15T09:31:41.000Z</time>
      </trkpt>
      <trkpt lat="45.63953" lon="6.67683">
        <ele>2110.6000976562</ele>
        <time>2020-01-15T09:31:46.000Z</time>
      </trkpt>
      <trkpt lat="45.63954" lon="6.67683">
        <ele>2110.8000488281</ele>
        <time>2020-01-15T09:31:47.000Z</time>
      </trkpt>
      <trkpt lat="45.63955" lon="6.67683">
        <ele>2111.6000976562</ele>
        <time>2020-01-15T09:31:51.000Z</time>
      </trkpt>
      <trkpt lat="45.63955" lon="6.67683">
        <ele>2112.1999511719</ele>
        <time>2020-01-15T09:31:55.000Z</time>
      </trkpt>
      <trkpt lat="45.63955" lon="6.67683">
        <ele>2112.3999023438</ele>
        <time>2020-01-15T09:32:13.000Z</time>
      </trkpt>
      <trkpt lat="45.63957" lon="6.67686">
        <ele>2112.3999023438</ele>
        <time>2020-01-15T09:32:20.000Z</time>
      </trkpt>
      <trkpt lat="45.63959" lon="6.67687">
        <ele>2112.6000976562</ele>
        <time>2020-01-15T09:32:22.000Z</time>
      </trkpt>
      <trkpt lat="45.63961" lon="6.6769">
        <ele>2113.3999023438</ele>
        <time>2020-01-15T09:32:26.000Z</time>
      </trkpt>
      <trkpt lat="45.63962" lon="6.67691">
        <ele>2113.8000488281</ele>
        <time>2020-01-15T09:32:27.000Z</time>
      </trkpt>
      <trkpt lat="45.63964" lon="6.67694">
        <ele>2115</ele>
        <time>2020-01-15T09:32:32.000Z</time>
      </trkpt>
      <trkpt lat="45.63964" lon="6.67697">
        <ele>2116</ele>
        <time>2020-01-15T09:32:36.000Z</time>
      </trkpt>
      <trkpt lat="45.63964" lon="6.67699">
        <ele>2117.1999511719</ele>
        <time>2020-01-15T09:32:39.000Z</time>
      </trkpt>
      <trkpt lat="45.63964" lon="6.677">
        <ele>2118.1999511719</ele>
        <time>2020-01-15T09:32:45.000Z</time>
      </trkpt>
      <trkpt lat="45.63964" lon="6.677">
        <ele>2118.6000976562</ele>
        <time>2020-01-15T09:32:47.000Z</time>
      </trkpt>
      <trkpt lat="45.63971" lon="6.677">
        <ele>2118.8000488281</ele>
        <time>2020-01-15T09:32:56.000Z</time>
      </trkpt>
      <trkpt lat="45.63972" lon="6.67699">
        <ele>2119.1999511719</ele>
        <time>2020-01-15T09:33:00.000Z</time>
      </trkpt>
      <trkpt lat="45.63974" lon="6.67697">
        <ele>2119.8000488281</ele>
        <time>2020-01-15T09:33:03.000Z</time>
      </trkpt>
      <trkpt lat="45.63976" lon="6.67694">
        <ele>2120.3999023438</ele>
        <time>2020-01-15T09:33:07.000Z</time>
      </trkpt>
      <trkpt lat="45.63977" lon="6.67693">
        <ele>2120.6000976562</ele>
        <time>2020-01-15T09:33:08.000Z</time>
      </trkpt>
      <trkpt lat="45.63978" lon="6.6769">
        <ele>2121.3999023438</ele>
        <time>2020-01-15T09:33:12.000Z</time>
      </trkpt>
      <trkpt lat="45.63979" lon="6.67686">
        <ele>2122.6000976562</ele>
        <time>2020-01-15T09:33:19.000Z</time>
      </trkpt>
      <trkpt lat="45.63984" lon="6.67677">
        <ele>2123.6000976562</ele>
        <time>2020-01-15T09:33:26.000Z</time>
      </trkpt>
      <trkpt lat="45.63985" lon="6.67677">
        <ele>2123.6000976562</ele>
        <time>2020-01-15T09:33:27.000Z</time>
      </trkpt>
      <trkpt lat="45.63987" lon="6.67674">
        <ele>2123.6000976562</ele>
        <time>2020-01-15T09:33:28.000Z</time>
      </trkpt>
      <trkpt lat="45.63988" lon="6.67672">
        <ele>2124</ele>
        <time>2020-01-15T09:33:30.000Z</time>
      </trkpt>
      <trkpt lat="45.6399" lon="6.67671">
        <ele>2124.6000976562</ele>
        <time>2020-01-15T09:33:33.000Z</time>
      </trkpt>
      <trkpt lat="45.6399" lon="6.6767">
        <ele>2125</ele>
        <time>2020-01-15T09:33:35.000Z</time>
      </trkpt>
      <trkpt lat="45.63991" lon="6.67669">
        <ele>2125.6000976562</ele>
        <time>2020-01-15T09:33:40.000Z</time>
      </trkpt>
      <trkpt lat="45.63995" lon="6.67668">
        <ele>2126.6000976562</ele>
        <time>2020-01-15T09:33:44.000Z</time>
      </trkpt>
      <trkpt lat="45.63996" lon="6.67669">
        <ele>2127</ele>
        <time>2020-01-15T09:33:45.000Z</time>
      </trkpt>
      <trkpt lat="45.63996" lon="6.67669">
        <ele>2127.8000488281</ele>
        <time>2020-01-15T09:33:55.000Z</time>
      </trkpt>
      <trkpt lat="45.63996" lon="6.67669">
        <ele>2127.6000976562</ele>
        <time>2020-01-15T09:34:10.000Z</time>
      </trkpt>
      <trkpt lat="45.63996" lon="6.67669">
        <ele>2127.3999023438</ele>
        <time>2020-01-15T09:34:26.000Z</time>
      </trkpt>
      <trkpt lat="45.63995" lon="6.67669">
        <ele>2127.1999511719</ele>
        <time>2020-01-15T09:34:42.000Z</time>
      </trkpt>
      <trkpt lat="45.63995" lon="6.67669">
        <ele>2127</ele>
        <time>2020-01-15T09:35:01.000Z</time>
      </trkpt>
      <trkpt lat="45.63997" lon="6.67669">
        <ele>2126.8000488281</ele>
        <time>2020-01-15T09:35:16.000Z</time>
      </trkpt>
      <trkpt lat="45.63997" lon="6.67669">
        <ele>2126.8000488281</ele>
        <time>2020-01-15T09:35:27.000Z</time>
      </trkpt>
      <trkpt lat="45.64" lon="6.6767">
        <ele>2128</ele>
        <time>2020-01-15T09:35:36.000Z</time>
      </trkpt>
      <trkpt lat="45.64001" lon="6.67671">
        <ele>2128.1999511719</ele>
        <time>2020-01-15T09:35:37.000Z</time>
      </trkpt>
      <trkpt lat="45.64002" lon="6.67671">
        <ele>2129.1999511719</ele>
        <time>2020-01-15T09:35:42.000Z</time>
      </trkpt>
      <trkpt lat="45.64002" lon="6.67671">
        <ele>2129.3999023438</ele>
        <time>2020-01-15T09:35:44.000Z</time>
      </trkpt>
      <trkpt lat="45.64002" lon="6.67671">
        <ele>2130.3999023438</ele>
        <time>2020-01-15T09:35:51.000Z</time>
      </trkpt>
      <trkpt lat="45.64002" lon="6.67671">
        <ele>2130.6000976562</ele>
        <time>2020-01-15T09:35:53.000Z</time>
      </trkpt>
      <trkpt lat="45.64004" lon="6.67672">
        <ele>2131.6000976562</ele>
        <time>2020-01-15T09:35:58.000Z</time>
      </trkpt>
      <trkpt lat="45.64006" lon="6.67669">
        <ele>2132.3999023438</ele>
        <time>2020-01-15T09:36:02.000Z</time>
      </trkpt>
      <trkpt lat="45.64006" lon="6.67668">
        <ele>2132.6000976562</ele>
        <time>2020-01-15T09:36:04.000Z</time>
      </trkpt>
      <trkpt lat="45.64007" lon="6.67665">
        <ele>2133.1999511719</ele>
        <time>2020-01-15T09:36:07.000Z</time>
      </trkpt>
      <trkpt lat="45.64008" lon="6.67665">
        <ele>2133.8000488281</ele>
        <time>2020-01-15T09:36:10.000Z</time>
      </trkpt>
      <trkpt lat="45.64009" lon="6.67662">
        <ele>2134</ele>
        <time>2020-01-15T09:36:11.000Z</time>
      </trkpt>
      <trkpt lat="45.6401" lon="6.67661">
        <ele>2134.8000488281</ele>
        <time>2020-01-15T09:36:15.000Z</time>
      </trkpt>
      <trkpt lat="45.6401" lon="6.67661">
        <ele>2135.1999511719</ele>
        <time>2020-01-15T09:36:17.000Z</time>
      </trkpt>
      <trkpt lat="45.6401" lon="6.67661">
        <ele>2135.8000488281</ele>
        <time>2020-01-15T09:36:20.000Z</time>
      </trkpt>
      <trkpt lat="45.64012" lon="6.67663">
        <ele>2137</ele>
        <time>2020-01-15T09:36:26.000Z</time>
      </trkpt>
      <trkpt lat="45.64014" lon="6.67664">
        <ele>2137.8000488281</ele>
        <time>2020-01-15T09:36:33.000Z</time>
      </trkpt>
      <trkpt lat="45.64014" lon="6.67664">
        <ele>2138</ele>
        <time>2020-01-15T09:36:35.000Z</time>
      </trkpt>
      <trkpt lat="45.64017" lon="6.6766">
        <ele>2138.6000976562</ele>
        <time>2020-01-15T09:36:38.000Z</time>
      </trkpt>
      <trkpt lat="45.64017" lon="6.6766">
        <ele>2139.1999511719</ele>
        <time>2020-01-15T09:36:39.000Z</time>
      </trkpt>
      <trkpt lat="45.64018" lon="6.67659">
        <ele>2139.8000488281</ele>
        <time>2020-01-15T09:36:45.000Z</time>
      </trkpt>
      <trkpt lat="45.64018" lon="6.67659">
        <ele>2140.3999023438</ele>
        <time>2020-01-15T09:36:48.000Z</time>
      </trkpt>
      <trkpt lat="45.64018" lon="6.67659">
        <ele>2140.3999023438</ele>
        <time>2020-01-15T09:36:55.000Z</time>
      </trkpt>
      <trkpt lat="45.64018" lon="6.67659">
        <ele>2140.8000488281</ele>
        <time>2020-01-15T09:36:57.000Z</time>
      </trkpt>
      <trkpt lat="45.64018" lon="6.67659">
        <ele>2141.6000976562</ele>
        <time>2020-01-15T09:37:00.000Z</time>
      </trkpt>
      <trkpt lat="45.64022" lon="6.6766">
        <ele>2142</ele>
        <time>2020-01-15T09:37:02.000Z</time>
      </trkpt>
      <trkpt lat="45.64022" lon="6.6766">
        <ele>2142.6000976562</ele>
        <time>2020-01-15T09:37:03.000Z</time>
      </trkpt>
      <trkpt lat="45.64026" lon="6.6766">
        <ele>2143.1999511719</ele>
        <time>2020-01-15T09:37:07.000Z</time>
      </trkpt>
      <trkpt lat="45.64028" lon="6.67661">
        <ele>2143.8000488281</ele>
        <time>2020-01-15T09:37:10.000Z</time>
      </trkpt>
      <trkpt lat="45.6403" lon="6.67663">
        <ele>2144.1999511719</ele>
        <time>2020-01-15T09:37:14.000Z</time>
      </trkpt>
      <trkpt lat="45.64032" lon="6.67662">
        <ele>2145</ele>
        <time>2020-01-15T09:37:19.000Z</time>
      </trkpt>
      <trkpt lat="45.64032" lon="6.67662">
        <ele>2145</ele>
        <time>2020-01-15T09:37:21.000Z</time>
      </trkpt>
      <trkpt lat="45.64033" lon="6.67662">
        <ele>2146.3999023438</ele>
        <time>2020-01-15T09:37:27.000Z</time>
      </trkpt>
      <trkpt lat="45.64033" lon="6.67661">
        <ele>2146.8000488281</ele>
        <time>2020-01-15T09:37:29.000Z</time>
      </trkpt>
      <trkpt lat="45.64033" lon="6.67661">
        <ele>2146.1999511719</ele>
        <time>2020-01-15T09:37:40.000Z</time>
      </trkpt>
      <trkpt lat="45.64035" lon="6.67662">
        <ele>2147.6000976562</ele>
        <time>2020-01-15T09:37:46.000Z</time>
      </trkpt>
      <trkpt lat="45.64036" lon="6.67662">
        <ele>2148.1999511719</ele>
        <time>2020-01-15T09:37:50.000Z</time>
      </trkpt>
      <trkpt lat="45.64036" lon="6.67662">
        <ele>2148.3999023438</ele>
        <time>2020-01-15T09:37:59.000Z</time>
      </trkpt>
      <trkpt lat="45.64036" lon="6.67661">
        <ele>2148.8000488281</ele>
        <time>2020-01-15T09:38:01.000Z</time>
      </trkpt>
      <trkpt lat="45.64037" lon="6.6766">
        <ele>2149.6000976562</ele>
        <time>2020-01-15T09:38:06.000Z</time>
      </trkpt>
      <trkpt lat="45.64037" lon="6.6766">
        <ele>2149.8000488281</ele>
        <time>2020-01-15T09:38:15.000Z</time>
      </trkpt>
      <trkpt lat="45.64037" lon="6.6766">
        <ele>2149.8000488281</ele>
        <time>2020-01-15T09:38:26.000Z</time>
      </trkpt>
      <trkpt lat="45.64037" lon="6.6766">
        <ele>2148.8000488281</ele>
        <time>2020-01-15T09:38:36.000Z</time>
      </trkpt>
      <trkpt lat="45.64037" lon="6.6766">
        <ele>2148.6000976562</ele>
        <time>2020-01-15T09:38:38.000Z</time>
      </trkpt>
      <trkpt lat="45.64037" lon="6.6766">
        <ele>2150</ele>
        <time>2020-01-15T09:38:39.000Z</time>
      </trkpt>
      <trkpt lat="45.64038" lon="6.6766">
        <ele>2150</ele>
        <time>2020-01-15T09:38:47.000Z</time>
      </trkpt>
      <trkpt lat="45.64042" lon="6.6766">
        <ele>2151</ele>
        <time>2020-01-15T09:38:55.000Z</time>
      </trkpt>
      <trkpt lat="45.64043" lon="6.6766">
        <ele>2152</ele>
        <time>2020-01-15T09:39:01.000Z</time>
      </trkpt>
      <trkpt lat="45.64044" lon="6.67659">
        <ele>2152.1999511719</ele>
        <time>2020-01-15T09:39:04.000Z</time>
      </trkpt>
      <trkpt lat="45.64044" lon="6.67659">
        <ele>2153</ele>
        <time>2020-01-15T09:39:12.000Z</time>
      </trkpt>
      <trkpt lat="45.64044" lon="6.67659">
        <ele>2153.3999023438</ele>
        <time>2020-01-15T09:39:13.000Z</time>
      </trkpt>
      <trkpt lat="45.64044" lon="6.67659">
        <ele>2154</ele>
        <time>2020-01-15T09:39:18.000Z</time>
      </trkpt>
      <trkpt lat="45.64044" lon="6.67659">
        <ele>2154.3999023438</ele>
        <time>2020-01-15T09:39:24.000Z</time>
      </trkpt>
      <trkpt lat="45.64046" lon="6.67659">
        <ele>2155.3999023438</ele>
        <time>2020-01-15T09:39:27.000Z</time>
      </trkpt>
      <trkpt lat="45.64048" lon="6.67659">
        <ele>2156.1999511719</ele>
        <time>2020-01-15T09:39:33.000Z</time>
      </trkpt>
      <trkpt lat="45.64049" lon="6.67659">
        <ele>2156.6000976562</ele>
        <time>2020-01-15T09:39:38.000Z</time>
      </trkpt>
      <trkpt lat="45.64049" lon="6.67659">
        <ele>2157.3999023438</ele>
        <time>2020-01-15T09:39:41.000Z</time>
      </trkpt>
      <trkpt lat="45.6405" lon="6.67659">
        <ele>2157.8000488281</ele>
        <time>2020-01-15T09:39:44.000Z</time>
      </trkpt>
      <trkpt lat="45.6405" lon="6.67659">
        <ele>2159</ele>
        <time>2020-01-15T09:39:49.000Z</time>
      </trkpt>
      <trkpt lat="45.64051" lon="6.6766">
        <ele>2159.3999023438</ele>
        <time>2020-01-15T09:39:51.000Z</time>
      </trkpt>
      <trkpt lat="45.64053" lon="6.67659">
        <ele>2160.1999511719</ele>
        <time>2020-01-15T09:39:56.000Z</time>
      </trkpt>
      <trkpt lat="45.64053" lon="6.67659">
        <ele>2160.3999023438</ele>
        <time>2020-01-15T09:39:57.000Z</time>
      </trkpt>
      <trkpt lat="45.64053" lon="6.67659">
        <ele>2161.3999023438</ele>
        <time>2020-01-15T09:40:03.000Z</time>
      </trkpt>
      <trkpt lat="45.64053" lon="6.67659">
        <ele>2161.8000488281</ele>
        <time>2020-01-15T09:40:06.000Z</time>
      </trkpt>
      <trkpt lat="45.64053" lon="6.67659">
        <ele>2162</ele>
        <time>2020-01-15T09:40:11.000Z</time>
      </trkpt>
      <trkpt lat="45.64054" lon="6.67661">
        <ele>2162.6000976562</ele>
        <time>2020-01-15T09:40:14.000Z</time>
      </trkpt>
      <trkpt lat="45.64055" lon="6.67661">
        <ele>2162.8000488281</ele>
        <time>2020-01-15T09:40:15.000Z</time>
      </trkpt>
      <trkpt lat="45.64056" lon="6.67662">
        <ele>2163.6000976562</ele>
        <time>2020-01-15T09:40:20.000Z</time>
      </trkpt>
      <trkpt lat="45.64057" lon="6.67663">
        <ele>2164.1999511719</ele>
        <time>2020-01-15T09:40:23.000Z</time>
      </trkpt>
      <trkpt lat="45.64058" lon="6.67663">
        <ele>2164.8000488281</ele>
        <time>2020-01-15T09:40:25.000Z</time>
      </trkpt>
      <trkpt lat="45.6406" lon="6.67663">
        <ele>2165.6000976562</ele>
        <time>2020-01-15T09:40:31.000Z</time>
      </trkpt>
      <trkpt lat="45.6406" lon="6.67663">
        <ele>2165.8000488281</ele>
        <time>2020-01-15T09:40:32.000Z</time>
      </trkpt>
      <trkpt lat="45.64061" lon="6.67663">
        <ele>2167</ele>
        <time>2020-01-15T09:40:36.000Z</time>
      </trkpt>
      <trkpt lat="45.64064" lon="6.67662">
        <ele>2167.6000976562</ele>
        <time>2020-01-15T09:40:39.000Z</time>
      </trkpt>
      <trkpt lat="45.64066" lon="6.67662">
        <ele>2168</ele>
        <time>2020-01-15T09:40:41.000Z</time>
      </trkpt>
      <trkpt lat="45.64073" lon="6.67663">
        <ele>2169.1999511719</ele>
        <time>2020-01-15T09:40:47.000Z</time>
      </trkpt>
      <trkpt lat="45.64075" lon="6.67662">
        <ele>2170.3999023438</ele>
        <time>2020-01-15T09:40:54.000Z</time>
      </trkpt>
      <trkpt lat="45.64076" lon="6.67663">
        <ele>2170.8000488281</ele>
        <time>2020-01-15T09:40:55.000Z</time>
      </trkpt>
      <trkpt lat="45.64078" lon="6.67663">
        <ele>2171.6000976562</ele>
        <time>2020-01-15T09:40:58.000Z</time>
      </trkpt>
      <trkpt lat="45.64079" lon="6.67663">
        <ele>2172.6000976562</ele>
        <time>2020-01-15T09:41:03.000Z</time>
      </trkpt>
      <trkpt lat="45.64079" lon="6.67663">
        <ele>2172.8000488281</ele>
        <time>2020-01-15T09:41:04.000Z</time>
      </trkpt>
      <trkpt lat="45.64079" lon="6.67663">
        <ele>2173</ele>
        <time>2020-01-15T09:41:12.000Z</time>
      </trkpt>
      <trkpt lat="45.64081" lon="6.67663">
        <ele>2174</ele>
        <time>2020-01-15T09:41:18.000Z</time>
      </trkpt>
      <trkpt lat="45.64082" lon="6.67663">
        <ele>2174.3999023438</ele>
        <time>2020-01-15T09:41:20.000Z</time>
      </trkpt>
      <trkpt lat="45.64084" lon="6.67663">
        <ele>2175</ele>
        <time>2020-01-15T09:41:23.000Z</time>
      </trkpt>
      <trkpt lat="45.64085" lon="6.67663">
        <ele>2176</ele>
        <time>2020-01-15T09:41:28.000Z</time>
      </trkpt>
      <trkpt lat="45.64085" lon="6.67663">
        <ele>2176.1999511719</ele>
        <time>2020-01-15T09:41:29.000Z</time>
      </trkpt>
      <trkpt lat="45.64087" lon="6.67665">
        <ele>2177.3999023438</ele>
        <time>2020-01-15T09:41:35.000Z</time>
      </trkpt>
      <trkpt lat="45.6409" lon="6.67666">
        <ele>2178.6000976562</ele>
        <time>2020-01-15T09:41:40.000Z</time>
      </trkpt>
      <trkpt lat="45.64091" lon="6.67667">
        <ele>2179.3999023438</ele>
        <time>2020-01-15T09:41:43.000Z</time>
      </trkpt>
      <trkpt lat="45.64091" lon="6.67667">
        <ele>2179.8000488281</ele>
        <time>2020-01-15T09:41:45.000Z</time>
      </trkpt>
      <trkpt lat="45.64092" lon="6.67668">
        <ele>2181.1999511719</ele>
        <time>2020-01-15T09:41:51.000Z</time>
      </trkpt>
      <trkpt lat="45.64094" lon="6.67668">
        <ele>2182.1999511719</ele>
        <time>2020-01-15T09:41:56.000Z</time>
      </trkpt>
      <trkpt lat="45.64098" lon="6.67668">
        <ele>2182.8000488281</ele>
        <time>2020-01-15T09:42:00.000Z</time>
      </trkpt>
      <trkpt lat="45.64099" lon="6.67667">
        <ele>2183.3999023438</ele>
        <time>2020-01-15T09:42:03.000Z</time>
      </trkpt>
      <trkpt lat="45.64099" lon="6.67662">
        <ele>2184</ele>
        <time>2020-01-15T09:42:07.000Z</time>
      </trkpt>
      <trkpt lat="45.64099" lon="6.67662">
        <ele>2184.3999023438</ele>
        <time>2020-01-15T09:42:10.000Z</time>
      </trkpt>
      <trkpt lat="45.64099" lon="6.67662">
        <ele>2184.8000488281</ele>
        <time>2020-01-15T09:42:20.000Z</time>
      </trkpt>
      <trkpt lat="45.64099" lon="6.67662">
        <ele>2185.3999023438</ele>
        <time>2020-01-15T09:42:23.000Z</time>
      </trkpt>
      <trkpt lat="45.64099" lon="6.67662">
        <ele>2185</ele>
        <time>2020-01-15T09:42:29.000Z</time>
      </trkpt>
      <trkpt lat="45.64099" lon="6.67662">
        <ele>2185.3999023438</ele>
        <time>2020-01-15T09:42:45.000Z</time>
      </trkpt>
      <trkpt lat="45.641" lon="6.6766">
        <ele>2185.3999023438</ele>
        <time>2020-01-15T09:42:55.000Z</time>
      </trkpt>
      <trkpt lat="45.641" lon="6.6766">
        <ele>2185.3999023438</ele>
        <time>2020-01-15T09:43:05.000Z</time>
      </trkpt>
      <trkpt lat="45.641" lon="6.6766">
        <ele>2185.3999023438</ele>
        <time>2020-01-15T09:43:12.000Z</time>
      </trkpt>
      <trkpt lat="45.641" lon="6.6766">
        <ele>2185.6000976562</ele>
        <time>2020-01-15T09:43:17.000Z</time>
      </trkpt>
      <trkpt lat="45.64103" lon="6.67653">
        <ele>2186.8000488281</ele>
        <time>2020-01-15T09:43:22.000Z</time>
      </trkpt>
      <trkpt lat="45.64107" lon="6.6765">
        <ele>2187.8000488281</ele>
        <time>2020-01-15T09:43:27.000Z</time>
      </trkpt>
      <trkpt lat="45.64107" lon="6.6765">
        <ele>2188</ele>
        <time>2020-01-15T09:43:28.000Z</time>
      </trkpt>
      <trkpt lat="45.64107" lon="6.6765">
        <ele>2188</ele>
        <time>2020-01-15T09:43:34.000Z</time>
      </trkpt>
      <trkpt lat="45.64107" lon="6.6765">
        <ele>2188</ele>
        <time>2020-01-15T09:43:45.000Z</time>
      </trkpt>
      <trkpt lat="45.64107" lon="6.6765">
        <ele>2188.1999511719</ele>
        <time>2020-01-15T09:44:01.000Z</time>
      </trkpt>
      <trkpt lat="45.64107" lon="6.6765">
        <ele>2188.1999511719</ele>
        <time>2020-01-15T09:44:12.000Z</time>
      </trkpt>
      <trkpt lat="45.64107" lon="6.6765">
        <ele>2188.1999511719</ele>
        <time>2020-01-15T09:44:27.000Z</time>
      </trkpt>
      <trkpt lat="45.6411" lon="6.67647">
        <ele>2188.6000976562</ele>
        <time>2020-01-15T09:44:33.000Z</time>
      </trkpt>
      <trkpt lat="45.64112" lon="6.67646">
        <ele>2189</ele>
        <time>2020-01-15T09:44:35.000Z</time>
      </trkpt>
      <trkpt lat="45.64113" lon="6.67646">
        <ele>2189.3999023438</ele>
        <time>2020-01-15T09:44:37.000Z</time>
      </trkpt>
      <trkpt lat="45.64114" lon="6.67647">
        <ele>2190.1999511719</ele>
        <time>2020-01-15T09:44:40.000Z</time>
      </trkpt>
      <trkpt lat="45.64115" lon="6.67647">
        <ele>2191</ele>
        <time>2020-01-15T09:44:44.000Z</time>
      </trkpt>
      <trkpt lat="45.64116" lon="6.67648">
        <ele>2191.1999511719</ele>
        <time>2020-01-15T09:44:46.000Z</time>
      </trkpt>
      <trkpt lat="45.64118" lon="6.67652">
        <ele>2192</ele>
        <time>2020-01-15T09:44:51.000Z</time>
      </trkpt>
      <trkpt lat="45.64119" lon="6.67653">
        <ele>2192.3999023438</ele>
        <time>2020-01-15T09:44:53.000Z</time>
      </trkpt>
      <trkpt lat="45.64119" lon="6.67654">
        <ele>2193</ele>
        <time>2020-01-15T09:44:57.000Z</time>
      </trkpt>
      <trkpt lat="45.64119" lon="6.67654">
        <ele>2193.6000976562</ele>
        <time>2020-01-15T09:45:00.000Z</time>
      </trkpt>
      <trkpt lat="45.64119" lon="6.67654">
        <ele>2194.1999511719</ele>
        <time>2020-01-15T09:45:08.000Z</time>
      </trkpt>
      <trkpt lat="45.64119" lon="6.67654">
        <ele>2194</ele>
        <time>2020-01-15T09:45:26.000Z</time>
      </trkpt>
      <trkpt lat="45.64118" lon="6.67651">
        <ele>2194</ele>
        <time>2020-01-15T09:45:43.000Z</time>
      </trkpt>
      <trkpt lat="45.64121" lon="6.67654">
        <ele>2194</ele>
        <time>2020-01-15T09:45:51.000Z</time>
      </trkpt>
      <trkpt lat="45.64122" lon="6.67654">
        <ele>2194.6000976562</ele>
        <time>2020-01-15T09:45:53.000Z</time>
      </trkpt>
      <trkpt lat="45.64124" lon="6.67653">
        <ele>2195</ele>
        <time>2020-01-15T09:45:56.000Z</time>
      </trkpt>
      <trkpt lat="45.64127" lon="6.67653">
        <ele>2195.6000976562</ele>
        <time>2020-01-15T09:46:00.000Z</time>
      </trkpt>
      <trkpt lat="45.6413" lon="6.67653">
        <ele>2196.6000976562</ele>
        <time>2020-01-15T09:46:04.000Z</time>
      </trkpt>
      <trkpt lat="45.64131" lon="6.67653">
        <ele>2196.8000488281</ele>
        <time>2020-01-15T09:46:05.000Z</time>
      </trkpt>
      <trkpt lat="45.64134" lon="6.6765">
        <ele>2197.3999023438</ele>
        <time>2020-01-15T09:46:09.000Z</time>
      </trkpt>
      <trkpt lat="45.64135" lon="6.67652">
        <ele>2197.8000488281</ele>
        <time>2020-01-15T09:46:12.000Z</time>
      </trkpt>
      <trkpt lat="45.64136" lon="6.67654">
        <ele>2198.1999511719</ele>
        <time>2020-01-15T09:46:15.000Z</time>
      </trkpt>
      <trkpt lat="45.64137" lon="6.67655">
        <ele>2198.8000488281</ele>
        <time>2020-01-15T09:46:17.000Z</time>
      </trkpt>
      <trkpt lat="45.6414" lon="6.67656">
        <ele>2199.8000488281</ele>
        <time>2020-01-15T09:46:22.000Z</time>
      </trkpt>
      <trkpt lat="45.64144" lon="6.67656">
        <ele>2200.8000488281</ele>
        <time>2020-01-15T09:46:27.000Z</time>
      </trkpt>
      <trkpt lat="45.64144" lon="6.67656">
        <ele>2201</ele>
        <time>2020-01-15T09:46:28.000Z</time>
      </trkpt>
      <trkpt lat="45.64147" lon="6.67655">
        <ele>2202</ele>
        <time>2020-01-15T09:46:33.000Z</time>
      </trkpt>
      <trkpt lat="45.64147" lon="6.67655">
        <ele>2202.1999511719</ele>
        <time>2020-01-15T09:46:34.000Z</time>
      </trkpt>
      <trkpt lat="45.64149" lon="6.67654">
        <ele>2202.8000488281</ele>
        <time>2020-01-15T09:46:38.000Z</time>
      </trkpt>
      <trkpt lat="45.6415" lon="6.67654">
        <ele>2203</ele>
        <time>2020-01-15T09:46:39.000Z</time>
      </trkpt>
      <trkpt lat="45.64152" lon="6.67656">
        <ele>2204.1999511719</ele>
        <time>2020-01-15T09:46:43.000Z</time>
      </trkpt>
      <trkpt lat="45.64152" lon="6.67655">
        <ele>2204.8000488281</ele>
        <time>2020-01-15T09:46:54.000Z</time>
      </trkpt>
      <trkpt lat="45.64152" lon="6.67655">
        <ele>2205</ele>
        <time>2020-01-15T09:47:12.000Z</time>
      </trkpt>
      <trkpt lat="45.64152" lon="6.67655">
        <ele>2204.8000488281</ele>
        <time>2020-01-15T09:47:22.000Z</time>
      </trkpt>
      <trkpt lat="45.64152" lon="6.67655">
        <ele>2204.8000488281</ele>
        <time>2020-01-15T09:47:41.000Z</time>
      </trkpt>
      <trkpt lat="45.64152" lon="6.67655">
        <ele>2205</ele>
        <time>2020-01-15T09:47:54.000Z</time>
      </trkpt>
      <trkpt lat="45.64152" lon="6.67655">
        <ele>2205</ele>
        <time>2020-01-15T09:48:10.000Z</time>
      </trkpt>
      <trkpt lat="45.64152" lon="6.67655">
        <ele>2204.8000488281</ele>
        <time>2020-01-15T09:48:27.000Z</time>
      </trkpt>
      <trkpt lat="45.64152" lon="6.67655">
        <ele>2205.1999511719</ele>
        <time>2020-01-15T09:48:38.000Z</time>
      </trkpt>
      <trkpt lat="45.64152" lon="6.67656">
        <ele>2205.1999511719</ele>
        <time>2020-01-15T09:48:53.000Z</time>
      </trkpt>
      <trkpt lat="45.64152" lon="6.67656">
        <ele>2205.1999511719</ele>
        <time>2020-01-15T09:49:04.000Z</time>
      </trkpt>
      <trkpt lat="45.64152" lon="6.67656">
        <ele>2205.1999511719</ele>
        <time>2020-01-15T09:49:15.000Z</time>
      </trkpt>
      <trkpt lat="45.64153" lon="6.67656">
        <ele>2205.1999511719</ele>
        <time>2020-01-15T09:49:29.000Z</time>
      </trkpt>
      <trkpt lat="45.64154" lon="6.67657">
        <ele>2205.1999511719</ele>
        <time>2020-01-15T09:49:32.000Z</time>
      </trkpt>
      <trkpt lat="45.64155" lon="6.67657">
        <ele>2205.6000976562</ele>
        <time>2020-01-15T09:49:35.000Z</time>
      </trkpt>
      <trkpt lat="45.64158" lon="6.67656">
        <ele>2206.1999511719</ele>
        <time>2020-01-15T09:49:41.000Z</time>
      </trkpt>
      <trkpt lat="45.64158" lon="6.67656">
        <ele>2206.3999023438</ele>
        <time>2020-01-15T09:49:42.000Z</time>
      </trkpt>
      <trkpt lat="45.64159" lon="6.67656">
        <ele>2207.1999511719</ele>
        <time>2020-01-15T09:49:46.000Z</time>
      </trkpt>
      <trkpt lat="45.64159" lon="6.67656">
        <ele>2207.6000976562</ele>
        <time>2020-01-15T09:49:48.000Z</time>
      </trkpt>
      <trkpt lat="45.64162" lon="6.67655">
        <ele>2208.1999511719</ele>
        <time>2020-01-15T09:49:53.000Z</time>
      </trkpt>
      <trkpt lat="45.64164" lon="6.67653">
        <ele>2208.6000976562</ele>
        <time>2020-01-15T09:49:56.000Z</time>
      </trkpt>
      <trkpt lat="45.64165" lon="6.67651">
        <ele>2208.8000488281</ele>
        <time>2020-01-15T09:49:59.000Z</time>
      </trkpt>
      <trkpt lat="45.64167" lon="6.67651">
        <ele>2209.6000976562</ele>
        <time>2020-01-15T09:50:03.000Z</time>
      </trkpt>
      <trkpt lat="45.64167" lon="6.67651">
        <ele>2209.8000488281</ele>
        <time>2020-01-15T09:50:04.000Z</time>
      </trkpt>
      <trkpt lat="45.64167" lon="6.67651">
        <ele>2210.6000976562</ele>
        <time>2020-01-15T09:50:08.000Z</time>
      </trkpt>
      <trkpt lat="45.64167" lon="6.67651">
        <ele>2211.6000976562</ele>
        <time>2020-01-15T09:50:12.000Z</time>
      </trkpt>
      <trkpt lat="45.64167" lon="6.67651">
        <ele>2211.8000488281</ele>
        <time>2020-01-15T09:50:13.000Z</time>
      </trkpt>
      <trkpt lat="45.64169" lon="6.67653">
        <ele>2211.8000488281</ele>
        <time>2020-01-15T09:50:22.000Z</time>
      </trkpt>
      <trkpt lat="45.64169" lon="6.67654">
        <ele>2212.3999023438</ele>
        <time>2020-01-15T09:50:28.000Z</time>
      </trkpt>
      <trkpt lat="45.6417" lon="6.67655">
        <ele>2212.6000976562</ele>
        <time>2020-01-15T09:50:37.000Z</time>
      </trkpt>
      <trkpt lat="45.6417" lon="6.67655">
        <ele>2212.8000488281</ele>
        <time>2020-01-15T09:50:39.000Z</time>
      </trkpt>
      <trkpt lat="45.64173" lon="6.67658">
        <ele>2213.3999023438</ele>
        <time>2020-01-15T09:50:44.000Z</time>
      </trkpt>
      <trkpt lat="45.64174" lon="6.6766">
        <ele>2213.8000488281</ele>
        <time>2020-01-15T09:50:47.000Z</time>
      </trkpt>
      <trkpt lat="45.64175" lon="6.67661">
        <ele>2214.1999511719</ele>
        <time>2020-01-15T09:50:50.000Z</time>
      </trkpt>
      <trkpt lat="45.64177" lon="6.67663">
        <ele>2214.8000488281</ele>
        <time>2020-01-15T09:50:55.000Z</time>
      </trkpt>
      <trkpt lat="45.64177" lon="6.67663">
        <ele>2215</ele>
        <time>2020-01-15T09:50:56.000Z</time>
      </trkpt>
      <trkpt lat="45.64179" lon="6.67665">
        <ele>2216</ele>
        <time>2020-01-15T09:51:02.000Z</time>
      </trkpt>
      <trkpt lat="45.64181" lon="6.67667">
        <ele>2216.8000488281</ele>
        <time>2020-01-15T09:51:08.000Z</time>
      </trkpt>
      <trkpt lat="45.64181" lon="6.67667">
        <ele>2217</ele>
        <time>2020-01-15T09:51:10.000Z</time>
      </trkpt>
      <trkpt lat="45.64182" lon="6.67668">
        <ele>2217.3999023438</ele>
        <time>2020-01-15T09:51:13.000Z</time>
      </trkpt>
      <trkpt lat="45.64185" lon="6.67668">
        <ele>2218</ele>
        <time>2020-01-15T09:51:18.000Z</time>
      </trkpt>
      <trkpt lat="45.64185" lon="6.67668">
        <ele>2218.1999511719</ele>
        <time>2020-01-15T09:51:20.000Z</time>
      </trkpt>
      <trkpt lat="45.64188" lon="6.67668">
        <ele>2219.1999511719</ele>
        <time>2020-01-15T09:51:26.000Z</time>
      </trkpt>
      <trkpt lat="45.64189" lon="6.67668">
        <ele>2219.1999511719</ele>
        <time>2020-01-15T09:51:27.000Z</time>
      </trkpt>
      <trkpt lat="45.64193" lon="6.67672">
        <ele>2219.8000488281</ele>
        <time>2020-01-15T09:51:33.000Z</time>
      </trkpt>
      <trkpt lat="45.64195" lon="6.67673">
        <ele>2220.1999511719</ele>
        <time>2020-01-15T09:51:36.000Z</time>
      </trkpt>
      <trkpt lat="45.64195" lon="6.67674">
        <ele>2220.3999023438</ele>
        <time>2020-01-15T09:51:38.000Z</time>
      </trkpt>
      <trkpt lat="45.64197" lon="6.67677">
        <ele>2221.3999023438</ele>
        <time>2020-01-15T09:51:44.000Z</time>
      </trkpt>
      <trkpt lat="45.642" lon="6.67676">
        <ele>2221.8000488281</ele>
        <time>2020-01-15T09:51:47.000Z</time>
      </trkpt>
      <trkpt lat="45.642" lon="6.67676">
        <ele>2222.3999023438</ele>
        <time>2020-01-15T09:51:51.000Z</time>
      </trkpt>
      <trkpt lat="45.64201" lon="6.67675">
        <ele>2223</ele>
        <time>2020-01-15T09:51:53.000Z</time>
      </trkpt>
      <trkpt lat="45.64204" lon="6.67676">
        <ele>2223.6000976562</ele>
        <time>2020-01-15T09:51:57.000Z</time>
      </trkpt>
      <trkpt lat="45.64205" lon="6.67676">
        <ele>2223.8000488281</ele>
        <time>2020-01-15T09:51:58.000Z</time>
      </trkpt>
      <trkpt lat="45.64209" lon="6.67674">
        <ele>2224.6000976562</ele>
        <time>2020-01-15T09:52:02.000Z</time>
      </trkpt>
      <trkpt lat="45.64209" lon="6.67673">
        <ele>2224.8000488281</ele>
        <time>2020-01-15T09:52:03.000Z</time>
      </trkpt>
      <trkpt lat="45.64212" lon="6.6767">
        <ele>2225.1999511719</ele>
        <time>2020-01-15T09:52:06.000Z</time>
      </trkpt>
      <trkpt lat="45.64214" lon="6.67666">
        <ele>2225.8000488281</ele>
        <time>2020-01-15T09:52:11.000Z</time>
      </trkpt>
      <trkpt lat="45.64215" lon="6.67665">
        <ele>2226</ele>
        <time>2020-01-15T09:52:12.000Z</time>
      </trkpt>
      <trkpt lat="45.64214" lon="6.67665">
        <ele>2226.8000488281</ele>
        <time>2020-01-15T09:52:15.000Z</time>
      </trkpt>
      <trkpt lat="45.64214" lon="6.67663">
        <ele>2227.3999023438</ele>
        <time>2020-01-15T09:52:17.000Z</time>
      </trkpt>
      <trkpt lat="45.64214" lon="6.67661">
        <ele>2227.8000488281</ele>
        <time>2020-01-15T09:52:19.000Z</time>
      </trkpt>
      <trkpt lat="45.64214" lon="6.6766">
        <ele>2228.1999511719</ele>
        <time>2020-01-15T09:52:21.000Z</time>
      </trkpt>
      <trkpt lat="45.64215" lon="6.67658">
        <ele>2228.6000976562</ele>
        <time>2020-01-15T09:52:23.000Z</time>
      </trkpt>
      <trkpt lat="45.64215" lon="6.67657">
        <ele>2229</ele>
        <time>2020-01-15T09:52:24.000Z</time>
      </trkpt>
      <trkpt lat="45.64215" lon="6.67656">
        <ele>2229.1999511719</ele>
        <time>2020-01-15T09:52:25.000Z</time>
      </trkpt>
      <trkpt lat="45.64215" lon="6.67655">
        <ele>2229.6000976562</ele>
        <time>2020-01-15T09:52:27.000Z</time>
      </trkpt>
      <trkpt lat="45.64215" lon="6.67653">
        <ele>2229.8000488281</ele>
        <time>2020-01-15T09:52:29.000Z</time>
      </trkpt>
      <trkpt lat="45.64215" lon="6.67652">
        <ele>2230</ele>
        <time>2020-01-15T09:52:30.000Z</time>
      </trkpt>
      <trkpt lat="45.64215" lon="6.6765">
        <ele>2230.8000488281</ele>
        <time>2020-01-15T09:52:34.000Z</time>
      </trkpt>
      <trkpt lat="45.64215" lon="6.6765">
        <ele>2231</ele>
        <time>2020-01-15T09:52:35.000Z</time>
      </trkpt>
      <trkpt lat="45.64216" lon="6.67649">
        <ele>2232</ele>
        <time>2020-01-15T09:52:40.000Z</time>
      </trkpt>
      <trkpt lat="45.64216" lon="6.67649">
        <ele>2232.1999511719</ele>
        <time>2020-01-15T09:52:41.000Z</time>
      </trkpt>
      <trkpt lat="45.64216" lon="6.67649">
        <ele>2232.8000488281</ele>
        <time>2020-01-15T09:52:54.000Z</time>
      </trkpt>
      <trkpt lat="45.64216" lon="6.67648">
        <ele>2232.8000488281</ele>
        <time>2020-01-15T09:53:12.000Z</time>
      </trkpt>
      <trkpt lat="45.64218" lon="6.67647">
        <ele>2233.3999023438</ele>
        <time>2020-01-15T09:53:18.000Z</time>
      </trkpt>
      <trkpt lat="45.64218" lon="6.67647">
        <ele>2233.6000976562</ele>
        <time>2020-01-15T09:53:20.000Z</time>
      </trkpt>
      <trkpt lat="45.64218" lon="6.67647">
        <ele>2233.3999023438</ele>
        <time>2020-01-15T09:53:25.000Z</time>
      </trkpt>
      <trkpt lat="45.64221" lon="6.67647">
        <ele>2234.3999023438</ele>
        <time>2020-01-15T09:53:31.000Z</time>
      </trkpt>
      <trkpt lat="45.64222" lon="6.67647">
        <ele>2234.6000976562</ele>
        <time>2020-01-15T09:53:32.000Z</time>
      </trkpt>
      <trkpt lat="45.64226" lon="6.67644">
        <ele>2235.3999023438</ele>
        <time>2020-01-15T09:53:36.000Z</time>
      </trkpt>
      <trkpt lat="45.64227" lon="6.67644">
        <ele>2235.6000976562</ele>
        <time>2020-01-15T09:53:37.000Z</time>
      </trkpt>
      <trkpt lat="45.6423" lon="6.6764">
        <ele>2236.3999023438</ele>
        <time>2020-01-15T09:53:42.000Z</time>
      </trkpt>
      <trkpt lat="45.6423" lon="6.6764">
        <ele>2236.8000488281</ele>
        <time>2020-01-15T09:53:44.000Z</time>
      </trkpt>
      <trkpt lat="45.64232" lon="6.67639">
        <ele>2237.6000976562</ele>
        <time>2020-01-15T09:53:55.000Z</time>
      </trkpt>
      <trkpt lat="45.64236" lon="6.67639">
        <ele>2237.8000488281</ele>
        <time>2020-01-15T09:54:00.000Z</time>
      </trkpt>
      <trkpt lat="45.64237" lon="6.67638">
        <ele>2238</ele>
        <time>2020-01-15T09:54:01.000Z</time>
      </trkpt>
      <trkpt lat="45.64239" lon="6.67637">
        <ele>2239</ele>
        <time>2020-01-15T09:54:05.000Z</time>
      </trkpt>
      <trkpt lat="45.64242" lon="6.67638">
        <ele>2239.8000488281</ele>
        <time>2020-01-15T09:54:10.000Z</time>
      </trkpt>
      <trkpt lat="45.64243" lon="6.67638">
        <ele>2240</ele>
        <time>2020-01-15T09:54:11.000Z</time>
      </trkpt>
      <trkpt lat="45.64245" lon="6.67638">
        <ele>2240.8000488281</ele>
        <time>2020-01-15T09:54:14.000Z</time>
      </trkpt>
      <trkpt lat="45.64247" lon="6.67638">
        <ele>2241.1999511719</ele>
        <time>2020-01-15T09:54:16.000Z</time>
      </trkpt>
      <trkpt lat="45.64249" lon="6.67638">
        <ele>2242</ele>
        <time>2020-01-15T09:54:20.000Z</time>
      </trkpt>
      <trkpt lat="45.6425" lon="6.67638">
        <ele>2242.1999511719</ele>
        <time>2020-01-15T09:54:21.000Z</time>
      </trkpt>
      <trkpt lat="45.64249" lon="6.67638">
        <ele>2243.3999023438</ele>
        <time>2020-01-15T09:54:26.000Z</time>
      </trkpt>
      <trkpt lat="45.64249" lon="6.67638">
        <ele>2243.6000976562</ele>
        <time>2020-01-15T09:54:28.000Z</time>
      </trkpt>
      <trkpt lat="45.64251" lon="6.67638">
        <ele>2243.3999023438</ele>
        <time>2020-01-15T09:54:38.000Z</time>
      </trkpt>
      <trkpt lat="45.64255" lon="6.67643">
        <ele>2244.3999023438</ele>
        <time>2020-01-15T09:54:44.000Z</time>
      </trkpt>
      <trkpt lat="45.64255" lon="6.67644">
        <ele>2244.3999023438</ele>
        <time>2020-01-15T09:54:45.000Z</time>
      </trkpt>
      <trkpt lat="45.64259" lon="6.67644">
        <ele>2245.3999023438</ele>
        <time>2020-01-15T09:54:51.000Z</time>
      </trkpt>
      <trkpt lat="45.6426" lon="6.67644">
        <ele>2245.6000976562</ele>
        <time>2020-01-15T09:54:52.000Z</time>
      </trkpt>
      <trkpt lat="45.64263" lon="6.67643">
        <ele>2246.3999023438</ele>
        <time>2020-01-15T09:54:56.000Z</time>
      </trkpt>
      <trkpt lat="45.64264" lon="6.67643">
        <ele>2246.8000488281</ele>
        <time>2020-01-15T09:54:58.000Z</time>
      </trkpt>
      <trkpt lat="45.64268" lon="6.67644">
        <ele>2247.8000488281</ele>
        <time>2020-01-15T09:55:02.000Z</time>
      </trkpt>
      <trkpt lat="45.64268" lon="6.67644">
        <ele>2248</ele>
        <time>2020-01-15T09:55:03.000Z</time>
      </trkpt>
      <trkpt lat="45.6427" lon="6.67647">
        <ele>2248.3999023438</ele>
        <time>2020-01-15T09:55:07.000Z</time>
      </trkpt>
      <trkpt lat="45.64274" lon="6.6765">
        <ele>2249.1999511719</ele>
        <time>2020-01-15T09:55:11.000Z</time>
      </trkpt>
      <trkpt lat="45.64274" lon="6.67651">
        <ele>2249.3999023438</ele>
        <time>2020-01-15T09:55:13.000Z</time>
      </trkpt>
      <trkpt lat="45.64278" lon="6.67654">
        <ele>2250.1999511719</ele>
        <time>2020-01-15T09:55:19.000Z</time>
      </trkpt>
      <trkpt lat="45.64278" lon="6.67654">
        <ele>2251.1999511719</ele>
        <time>2020-01-15T09:55:25.000Z</time>
      </trkpt>
      <trkpt lat="45.6428" lon="6.67653">
        <ele>2252.3999023438</ele>
        <time>2020-01-15T09:55:30.000Z</time>
      </trkpt>
      <trkpt lat="45.64281" lon="6.67653">
        <ele>2252.3999023438</ele>
        <time>2020-01-15T09:55:31.000Z</time>
      </trkpt>
      <trkpt lat="45.64282" lon="6.67654">
        <ele>2253</ele>
        <time>2020-01-15T09:55:35.000Z</time>
      </trkpt>
      <trkpt lat="45.64283" lon="6.67655">
        <ele>2253.3999023438</ele>
        <time>2020-01-15T09:55:37.000Z</time>
      </trkpt>
      <trkpt lat="45.64285" lon="6.67656">
        <ele>2254</ele>
        <time>2020-01-15T09:55:41.000Z</time>
      </trkpt>
      <trkpt lat="45.64285" lon="6.67656">
        <ele>2254.3999023438</ele>
        <time>2020-01-15T09:55:43.000Z</time>
      </trkpt>
      <trkpt lat="45.64286" lon="6.67658">
        <ele>2255.1999511719</ele>
        <time>2020-01-15T09:55:47.000Z</time>
      </trkpt>
      <trkpt lat="45.64287" lon="6.67659">
        <ele>2255.6000976562</ele>
        <time>2020-01-15T09:55:49.000Z</time>
      </trkpt>
      <trkpt lat="45.64288" lon="6.67659">
        <ele>2256</ele>
        <time>2020-01-15T09:55:51.000Z</time>
      </trkpt>
      <trkpt lat="45.64289" lon="6.6766">
        <ele>2256.6000976562</ele>
        <time>2020-01-15T09:55:53.000Z</time>
      </trkpt>
      <trkpt lat="45.6429" lon="6.6766">
        <ele>2257</ele>
        <time>2020-01-15T09:55:55.000Z</time>
      </trkpt>
      <trkpt lat="45.64293" lon="6.67662">
        <ele>2257.6000976562</ele>
        <time>2020-01-15T09:56:00.000Z</time>
      </trkpt>
      <trkpt lat="45.64294" lon="6.67663">
        <ele>2258.1999511719</ele>
        <time>2020-01-15T09:56:02.000Z</time>
      </trkpt>
      <trkpt lat="45.64296" lon="6.67665">
        <ele>2258.6000976562</ele>
        <time>2020-01-15T09:56:05.000Z</time>
      </trkpt>
      <trkpt lat="45.64296" lon="6.67665">
        <ele>2259</ele>
        <time>2020-01-15T09:56:07.000Z</time>
      </trkpt>
      <trkpt lat="45.64297" lon="6.67665">
        <ele>2259.3999023438</ele>
        <time>2020-01-15T09:56:13.000Z</time>
      </trkpt>
      <trkpt lat="45.64298" lon="6.67666">
        <ele>2259.8000488281</ele>
        <time>2020-01-15T09:56:16.000Z</time>
      </trkpt>
      <trkpt lat="45.64298" lon="6.67666">
        <ele>2260</ele>
        <time>2020-01-15T09:56:17.000Z</time>
      </trkpt>
      <trkpt lat="45.643" lon="6.67667">
        <ele>2260.8000488281</ele>
        <time>2020-01-15T09:56:21.000Z</time>
      </trkpt>
      <trkpt lat="45.64302" lon="6.67669">
        <ele>2261.3999023438</ele>
        <time>2020-01-15T09:56:24.000Z</time>
      </trkpt>
      <trkpt lat="45.64303" lon="6.6767">
        <ele>2262</ele>
        <time>2020-01-15T09:56:29.000Z</time>
      </trkpt>
      <trkpt lat="45.64303" lon="6.6767">
        <ele>2262.6000976562</ele>
        <time>2020-01-15T09:56:43.000Z</time>
      </trkpt>
      <trkpt lat="45.64303" lon="6.6767">
        <ele>2262.3999023438</ele>
        <time>2020-01-15T09:56:59.000Z</time>
      </trkpt>
      <trkpt lat="45.64308" lon="6.67673">
        <ele>2262.1999511719</ele>
        <time>2020-01-15T09:57:05.000Z</time>
      </trkpt>
      <trkpt lat="45.64311" lon="6.67679">
        <ele>2262.3999023438</ele>
        <time>2020-01-15T09:57:09.000Z</time>
      </trkpt>
      <trkpt lat="45.64316" lon="6.6768">
        <ele>2263</ele>
        <time>2020-01-15T09:57:14.000Z</time>
      </trkpt>
      <trkpt lat="45.64318" lon="6.67681">
        <ele>2263.6000976562</ele>
        <time>2020-01-15T09:57:16.000Z</time>
      </trkpt>
      <trkpt lat="45.64319" lon="6.67684">
        <ele>2264.1999511719</ele>
        <time>2020-01-15T09:57:18.000Z</time>
      </trkpt>
      <trkpt lat="45.64319" lon="6.67684">
        <ele>2265.1999511719</ele>
        <time>2020-01-15T09:57:22.000Z</time>
      </trkpt>
      <trkpt lat="45.64322" lon="6.67684">
        <ele>2265.6000976562</ele>
        <time>2020-01-15T09:57:28.000Z</time>
      </trkpt>
      <trkpt lat="45.64324" lon="6.67686">
        <ele>2266.3999023438</ele>
        <time>2020-01-15T09:57:31.000Z</time>
      </trkpt>
      <trkpt lat="45.64324" lon="6.67687">
        <ele>2266.3999023438</ele>
        <time>2020-01-15T09:57:32.000Z</time>
      </trkpt>
      <trkpt lat="45.64324" lon="6.67688">
        <ele>2266.6000976562</ele>
        <time>2020-01-15T09:57:33.000Z</time>
      </trkpt>
      <trkpt lat="45.64328" lon="6.6769">
        <ele>2267.3999023438</ele>
        <time>2020-01-15T09:57:38.000Z</time>
      </trkpt>
      <trkpt lat="45.6433" lon="6.67692">
        <ele>2268</ele>
        <time>2020-01-15T09:57:43.000Z</time>
      </trkpt>
      <trkpt lat="45.64331" lon="6.67692">
        <ele>2268.3999023438</ele>
        <time>2020-01-15T09:57:45.000Z</time>
      </trkpt>
      <trkpt lat="45.64333" lon="6.67691">
        <ele>2269.1999511719</ele>
        <time>2020-01-15T09:57:49.000Z</time>
      </trkpt>
      <trkpt lat="45.64334" lon="6.67691">
        <ele>2269.6000976562</ele>
        <time>2020-01-15T09:57:51.000Z</time>
      </trkpt>
      <trkpt lat="45.64335" lon="6.67692">
        <ele>2270</ele>
        <time>2020-01-15T09:57:53.000Z</time>
      </trkpt>
      <trkpt lat="45.64335" lon="6.67692">
        <ele>2270</ele>
        <time>2020-01-15T09:57:54.000Z</time>
      </trkpt>
      <trkpt lat="45.64335" lon="6.67692">
        <ele>2270.6000976562</ele>
        <time>2020-01-15T09:57:57.000Z</time>
      </trkpt>
      <trkpt lat="45.64335" lon="6.67692">
        <ele>2271</ele>
        <time>2020-01-15T09:58:02.000Z</time>
      </trkpt>
      <trkpt lat="45.64337" lon="6.67694">
        <ele>2271.1999511719</ele>
        <time>2020-01-15T09:58:07.000Z</time>
      </trkpt>
      <trkpt lat="45.64339" lon="6.67695">
        <ele>2271.6000976562</ele>
        <time>2020-01-15T09:58:12.000Z</time>
      </trkpt>
      <trkpt lat="45.64339" lon="6.67695">
        <ele>2271.8000488281</ele>
        <time>2020-01-15T09:58:13.000Z</time>
      </trkpt>
      <trkpt lat="45.64343" lon="6.677">
        <ele>2272.3999023438</ele>
        <time>2020-01-15T09:58:17.000Z</time>
      </trkpt>
      <trkpt lat="45.64345" lon="6.67701">
        <ele>2272.8000488281</ele>
        <time>2020-01-15T09:58:19.000Z</time>
      </trkpt>
      <trkpt lat="45.64348" lon="6.67702">
        <ele>2273.6000976562</ele>
        <time>2020-01-15T09:58:22.000Z</time>
      </trkpt>
      <trkpt lat="45.64348" lon="6.67702">
        <ele>2273.8000488281</ele>
        <time>2020-01-15T09:58:24.000Z</time>
      </trkpt>
      <trkpt lat="45.6435" lon="6.67702">
        <ele>2274.1999511719</ele>
        <time>2020-01-15T09:58:27.000Z</time>
      </trkpt>
      <trkpt lat="45.64353" lon="6.67704">
        <ele>2275</ele>
        <time>2020-01-15T09:58:32.000Z</time>
      </trkpt>
      <trkpt lat="45.64356" lon="6.67704">
        <ele>2276</ele>
        <time>2020-01-15T09:58:38.000Z</time>
      </trkpt>
      <trkpt lat="45.64359" lon="6.67707">
        <ele>2277.1999511719</ele>
        <time>2020-01-15T09:58:43.000Z</time>
      </trkpt>
      <trkpt lat="45.64363" lon="6.67709">
        <ele>2278.1999511719</ele>
        <time>2020-01-15T09:58:49.000Z</time>
      </trkpt>
      <trkpt lat="45.64366" lon="6.67711">
        <ele>2278.8000488281</ele>
        <time>2020-01-15T09:58:54.000Z</time>
      </trkpt>
      <trkpt lat="45.64369" lon="6.67714">
        <ele>2279.3999023438</ele>
        <time>2020-01-15T09:58:58.000Z</time>
      </trkpt>
      <trkpt lat="45.6437" lon="6.67716">
        <ele>2280</ele>
        <time>2020-01-15T09:59:01.000Z</time>
      </trkpt>
      <trkpt lat="45.64371" lon="6.67718">
        <ele>2280.6000976562</ele>
        <time>2020-01-15T09:59:04.000Z</time>
      </trkpt>
      <trkpt lat="45.64372" lon="6.67721">
        <ele>2281.1999511719</ele>
        <time>2020-01-15T09:59:06.000Z</time>
      </trkpt>
      <trkpt lat="45.64373" lon="6.67721">
        <ele>2281.3999023438</ele>
        <time>2020-01-15T09:59:07.000Z</time>
      </trkpt>
      <trkpt lat="45.64373" lon="6.67721">
        <ele>2281.6000976562</ele>
        <time>2020-01-15T09:59:08.000Z</time>
      </trkpt>
      <trkpt lat="45.64375" lon="6.6772">
        <ele>2282</ele>
        <time>2020-01-15T09:59:12.000Z</time>
      </trkpt>
      <trkpt lat="45.64377" lon="6.67722">
        <ele>2282.6000976562</ele>
        <time>2020-01-15T09:59:16.000Z</time>
      </trkpt>
      <trkpt lat="45.64378" lon="6.67722">
        <ele>2283</ele>
        <time>2020-01-15T09:59:17.000Z</time>
      </trkpt>
      <trkpt lat="45.6438" lon="6.67725">
        <ele>2283.8000488281</ele>
        <time>2020-01-15T09:59:22.000Z</time>
      </trkpt>
      <trkpt lat="45.6438" lon="6.67726">
        <ele>2284</ele>
        <time>2020-01-15T09:59:23.000Z</time>
      </trkpt>
      <trkpt lat="45.64382" lon="6.67727">
        <ele>2284.8000488281</ele>
        <time>2020-01-15T09:59:27.000Z</time>
      </trkpt>
      <trkpt lat="45.64382" lon="6.67728">
        <ele>2285</ele>
        <time>2020-01-15T09:59:28.000Z</time>
      </trkpt>
      <trkpt lat="45.64382" lon="6.67728">
        <ele>2285.8000488281</ele>
        <time>2020-01-15T09:59:31.000Z</time>
      </trkpt>
      <trkpt lat="45.64383" lon="6.67728">
        <ele>2286</ele>
        <time>2020-01-15T09:59:32.000Z</time>
      </trkpt>
      <trkpt lat="45.64386" lon="6.6773">
        <ele>2286.6000976562</ele>
        <time>2020-01-15T09:59:37.000Z</time>
      </trkpt>
      <trkpt lat="45.64386" lon="6.6773">
        <ele>2287</ele>
        <time>2020-01-15T09:59:38.000Z</time>
      </trkpt>
      <trkpt lat="45.6439" lon="6.67734">
        <ele>2287.8000488281</ele>
        <time>2020-01-15T09:59:43.000Z</time>
      </trkpt>
      <trkpt lat="45.64391" lon="6.67734">
        <ele>2288</ele>
        <time>2020-01-15T09:59:44.000Z</time>
      </trkpt>
      <trkpt lat="45.64393" lon="6.67735">
        <ele>2288.6000976562</ele>
        <time>2020-01-15T09:59:47.000Z</time>
      </trkpt>
      <trkpt lat="45.64395" lon="6.67738">
        <ele>2289.1999511719</ele>
        <time>2020-01-15T09:59:50.000Z</time>
      </trkpt>
      <trkpt lat="45.64396" lon="6.67739">
        <ele>2289.8000488281</ele>
        <time>2020-01-15T09:59:53.000Z</time>
      </trkpt>
      <trkpt lat="45.64397" lon="6.67741">
        <ele>2290.1999511719</ele>
        <time>2020-01-15T09:59:55.000Z</time>
      </trkpt>
      <trkpt lat="45.64399" lon="6.67745">
        <ele>2291</ele>
        <time>2020-01-15T09:59:59.000Z</time>
      </trkpt>
      <trkpt lat="45.644" lon="6.67745">
        <ele>2291.3999023438</ele>
        <time>2020-01-15T10:00:01.000Z</time>
      </trkpt>
      <trkpt lat="45.64402" lon="6.67748">
        <ele>2292</ele>
        <time>2020-01-15T10:00:05.000Z</time>
      </trkpt>
      <trkpt lat="45.64402" lon="6.67749">
        <ele>2292.3999023438</ele>
        <time>2020-01-15T10:00:08.000Z</time>
      </trkpt>
      <trkpt lat="45.64403" lon="6.67749">
        <ele>2292.8000488281</ele>
        <time>2020-01-15T10:00:10.000Z</time>
      </trkpt>
      <trkpt lat="45.64405" lon="6.67751">
        <ele>2293.6000976562</ele>
        <time>2020-01-15T10:00:15.000Z</time>
      </trkpt>
      <trkpt lat="45.64407" lon="6.67752">
        <ele>2294.3999023438</ele>
        <time>2020-01-15T10:00:20.000Z</time>
      </trkpt>
      <trkpt lat="45.64408" lon="6.67753">
        <ele>2294.8000488281</ele>
        <time>2020-01-15T10:00:22.000Z</time>
      </trkpt>
      <trkpt lat="45.64409" lon="6.67754">
        <ele>2295.1999511719</ele>
        <time>2020-01-15T10:00:25.000Z</time>
      </trkpt>
      <trkpt lat="45.64409" lon="6.67755">
        <ele>2295.8000488281</ele>
        <time>2020-01-15T10:00:29.000Z</time>
      </trkpt>
      <trkpt lat="45.6441" lon="6.67755">
        <ele>2296.1999511719</ele>
        <time>2020-01-15T10:00:31.000Z</time>
      </trkpt>
      <trkpt lat="45.64414" lon="6.67758">
        <ele>2297</ele>
        <time>2020-01-15T10:00:36.000Z</time>
      </trkpt>
      <trkpt lat="45.64414" lon="6.67759">
        <ele>2297.1999511719</ele>
        <time>2020-01-15T10:00:37.000Z</time>
      </trkpt>
      <trkpt lat="45.64416" lon="6.67764">
        <ele>2298.1999511719</ele>
        <time>2020-01-15T10:00:42.000Z</time>
      </trkpt>
      <trkpt lat="45.64418" lon="6.67765">
        <ele>2298.8000488281</ele>
        <time>2020-01-15T10:00:47.000Z</time>
      </trkpt>
      <trkpt lat="45.6442" lon="6.67766">
        <ele>2299</ele>
        <time>2020-01-15T10:00:49.000Z</time>
      </trkpt>
      <trkpt lat="45.6442" lon="6.67766">
        <ele>2299.1999511719</ele>
        <time>2020-01-15T10:00:50.000Z</time>
      </trkpt>
      <trkpt lat="45.64421" lon="6.67767">
        <ele>2299.6000976562</ele>
        <time>2020-01-15T10:00:52.000Z</time>
      </trkpt>
      <trkpt lat="45.64422" lon="6.67767">
        <ele>2300.1999511719</ele>
        <time>2020-01-15T10:00:56.000Z</time>
      </trkpt>
      <trkpt lat="45.64422" lon="6.67767">
        <ele>2300.1999511719</ele>
        <time>2020-01-15T10:00:57.000Z</time>
      </trkpt>
      <trkpt lat="45.64426" lon="6.67769">
        <ele>2300.8000488281</ele>
        <time>2020-01-15T10:01:02.000Z</time>
      </trkpt>
      <trkpt lat="45.64427" lon="6.67769">
        <ele>2301.3999023438</ele>
        <time>2020-01-15T10:01:05.000Z</time>
      </trkpt>
      <trkpt lat="45.64427" lon="6.67769">
        <ele>2301.6000976562</ele>
        <time>2020-01-15T10:01:06.000Z</time>
      </trkpt>
      <trkpt lat="45.64429" lon="6.67773">
        <ele>2302.1999511719</ele>
        <time>2020-01-15T10:01:12.000Z</time>
      </trkpt>
      <trkpt lat="45.6443" lon="6.67775">
        <ele>2302.3999023438</ele>
        <time>2020-01-15T10:01:14.000Z</time>
      </trkpt>
      <trkpt lat="45.64432" lon="6.67777">
        <ele>2303</ele>
        <time>2020-01-15T10:01:17.000Z</time>
      </trkpt>
      <trkpt lat="45.64434" lon="6.67778">
        <ele>2303.6000976562</ele>
        <time>2020-01-15T10:01:20.000Z</time>
      </trkpt>
      <trkpt lat="45.64435" lon="6.67777">
        <ele>2303.8000488281</ele>
        <time>2020-01-15T10:01:22.000Z</time>
      </trkpt>
      <trkpt lat="45.64437" lon="6.67777">
        <ele>2304.1999511719</ele>
        <time>2020-01-15T10:01:29.000Z</time>
      </trkpt>
      <trkpt lat="45.64437" lon="6.67777">
        <ele>2304.6000976562</ele>
        <time>2020-01-15T10:01:32.000Z</time>
      </trkpt>
      <trkpt lat="45.64437" lon="6.67777">
        <ele>2304.8000488281</ele>
        <time>2020-01-15T10:01:46.000Z</time>
      </trkpt>
      <trkpt lat="45.64437" lon="6.67777">
        <ele>2305</ele>
        <time>2020-01-15T10:02:03.000Z</time>
      </trkpt>
      <trkpt lat="45.6444" lon="6.67778">
        <ele>2305.1999511719</ele>
        <time>2020-01-15T10:02:08.000Z</time>
      </trkpt>
      <trkpt lat="45.6444" lon="6.67778">
        <ele>2305.6000976562</ele>
        <time>2020-01-15T10:02:13.000Z</time>
      </trkpt>
      <trkpt lat="45.6444" lon="6.67778">
        <ele>2305.8000488281</ele>
        <time>2020-01-15T10:02:18.000Z</time>
      </trkpt>
      <trkpt lat="45.6444" lon="6.67778">
        <ele>2305.8000488281</ele>
        <time>2020-01-15T10:02:33.000Z</time>
      </trkpt>
      <trkpt lat="45.6444" lon="6.67778">
        <ele>2306</ele>
        <time>2020-01-15T10:02:39.000Z</time>
      </trkpt>
      <trkpt lat="45.6444" lon="6.67778">
        <ele>2306.8000488281</ele>
        <time>2020-01-15T10:02:42.000Z</time>
      </trkpt>
      <trkpt lat="45.6444" lon="6.67778">
        <ele>2307.3999023438</ele>
        <time>2020-01-15T10:02:46.000Z</time>
      </trkpt>
      <trkpt lat="45.64442" lon="6.67782">
        <ele>2307.3999023438</ele>
        <time>2020-01-15T10:02:53.000Z</time>
      </trkpt>
      <trkpt lat="45.64444" lon="6.67782">
        <ele>2307.3999023438</ele>
        <time>2020-01-15T10:02:57.000Z</time>
      </trkpt>
      <trkpt lat="45.64448" lon="6.6778">
        <ele>2308</ele>
        <time>2020-01-15T10:03:00.000Z</time>
      </trkpt>
      <trkpt lat="45.64449" lon="6.6778">
        <ele>2308.3999023438</ele>
        <time>2020-01-15T10:03:02.000Z</time>
      </trkpt>
      <trkpt lat="45.64451" lon="6.6778">
        <ele>2308.8000488281</ele>
        <time>2020-01-15T10:03:05.000Z</time>
      </trkpt>
      <trkpt lat="45.64452" lon="6.67781">
        <ele>2309</ele>
        <time>2020-01-15T10:03:06.000Z</time>
      </trkpt>
      <trkpt lat="45.64454" lon="6.67782">
        <ele>2309.1999511719</ele>
        <time>2020-01-15T10:03:07.000Z</time>
      </trkpt>
      <trkpt lat="45.64458" lon="6.67783">
        <ele>2310</ele>
        <time>2020-01-15T10:03:11.000Z</time>
      </trkpt>
      <trkpt lat="45.64459" lon="6.67784">
        <ele>2310.1999511719</ele>
        <time>2020-01-15T10:03:12.000Z</time>
      </trkpt>
      <trkpt lat="45.64461" lon="6.67785">
        <ele>2310.8000488281</ele>
        <time>2020-01-15T10:03:16.000Z</time>
      </trkpt>
      <trkpt lat="45.64463" lon="6.67786">
        <ele>2311.1999511719</ele>
        <time>2020-01-15T10:03:18.000Z</time>
      </trkpt>
      <trkpt lat="45.64465" lon="6.67786">
        <ele>2311.8000488281</ele>
        <time>2020-01-15T10:03:22.000Z</time>
      </trkpt>
      <trkpt lat="45.64466" lon="6.67786">
        <ele>2312.1999511719</ele>
        <time>2020-01-15T10:03:24.000Z</time>
      </trkpt>
      <trkpt lat="45.64466" lon="6.67786">
        <ele>2313.3999023438</ele>
        <time>2020-01-15T10:03:31.000Z</time>
      </trkpt>
      <trkpt lat="45.64466" lon="6.67786">
        <ele>2313.3999023438</ele>
        <time>2020-01-15T10:03:32.000Z</time>
      </trkpt>
      <trkpt lat="45.64466" lon="6.67786">
        <ele>2313.1999511719</ele>
        <time>2020-01-15T10:03:47.000Z</time>
      </trkpt>
      <trkpt lat="45.64468" lon="6.67786">
        <ele>2313.1999511719</ele>
        <time>2020-01-15T10:03:58.000Z</time>
      </trkpt>
      <trkpt lat="45.6447" lon="6.67786">
        <ele>2313.3999023438</ele>
        <time>2020-01-15T10:04:02.000Z</time>
      </trkpt>
      <trkpt lat="45.64473" lon="6.67786">
        <ele>2314.3999023438</ele>
        <time>2020-01-15T10:04:07.000Z</time>
      </trkpt>
      <trkpt lat="45.64476" lon="6.67787">
        <ele>2315.1999511719</ele>
        <time>2020-01-15T10:04:13.000Z</time>
      </trkpt>
      <trkpt lat="45.64478" lon="6.67787">
        <ele>2315.3999023438</ele>
        <time>2020-01-15T10:04:14.000Z</time>
      </trkpt>
      <trkpt lat="45.64483" lon="6.67788">
        <ele>2316.1999511719</ele>
        <time>2020-01-15T10:04:19.000Z</time>
      </trkpt>
      <trkpt lat="45.64484" lon="6.67789">
        <ele>2316.3999023438</ele>
        <time>2020-01-15T10:04:23.000Z</time>
      </trkpt>
      <trkpt lat="45.64485" lon="6.6779">
        <ele>2316.6000976562</ele>
        <time>2020-01-15T10:04:24.000Z</time>
      </trkpt>
      <trkpt lat="45.64491" lon="6.67791">
        <ele>2317.3999023438</ele>
        <time>2020-01-15T10:04:29.000Z</time>
      </trkpt>
      <trkpt lat="45.64491" lon="6.67791">
        <ele>2317.6000976562</ele>
        <time>2020-01-15T10:04:30.000Z</time>
      </trkpt>
      <trkpt lat="45.64494" lon="6.67792">
        <ele>2318</ele>
        <time>2020-01-15T10:04:36.000Z</time>
      </trkpt>
      <trkpt lat="45.64499" lon="6.67793">
        <ele>2318.3999023438</ele>
        <time>2020-01-15T10:04:41.000Z</time>
      </trkpt>
      <trkpt lat="45.645" lon="6.67793">
        <ele>2318.6000976562</ele>
        <time>2020-01-15T10:04:42.000Z</time>
      </trkpt>
      <trkpt lat="45.64502" lon="6.67794">
        <ele>2319</ele>
        <time>2020-01-15T10:04:46.000Z</time>
      </trkpt>
      <trkpt lat="45.64506" lon="6.67795">
        <ele>2319.6000976562</ele>
        <time>2020-01-15T10:04:49.000Z</time>
      </trkpt>
      <trkpt lat="45.64507" lon="6.67794">
        <ele>2319.8000488281</ele>
        <time>2020-01-15T10:04:51.000Z</time>
      </trkpt>
      <trkpt lat="45.6451" lon="6.67796">
        <ele>2320.3999023438</ele>
        <time>2020-01-15T10:04:56.000Z</time>
      </trkpt>
      <trkpt lat="45.64511" lon="6.67796">
        <ele>2320.8000488281</ele>
        <time>2020-01-15T10:04:58.000Z</time>
      </trkpt>
      <trkpt lat="45.64512" lon="6.67796">
        <ele>2321</ele>
        <time>2020-01-15T10:05:00.000Z</time>
      </trkpt>
      <trkpt lat="45.64515" lon="6.67796">
        <ele>2321.8000488281</ele>
        <time>2020-01-15T10:05:04.000Z</time>
      </trkpt>
      <trkpt lat="45.64516" lon="6.67797">
        <ele>2322.1999511719</ele>
        <time>2020-01-15T10:05:06.000Z</time>
      </trkpt>
      <trkpt lat="45.64519" lon="6.67799">
        <ele>2322.8000488281</ele>
        <time>2020-01-15T10:05:11.000Z</time>
      </trkpt>
      <trkpt lat="45.64522" lon="6.678">
        <ele>2323.3999023438</ele>
        <time>2020-01-15T10:05:15.000Z</time>
      </trkpt>
      <trkpt lat="45.64523" lon="6.67802">
        <ele>2323.8000488281</ele>
        <time>2020-01-15T10:05:17.000Z</time>
      </trkpt>
      <trkpt lat="45.64527" lon="6.67802">
        <ele>2324.6000976562</ele>
        <time>2020-01-15T10:05:21.000Z</time>
      </trkpt>
      <trkpt lat="45.64528" lon="6.67802">
        <ele>2325</ele>
        <time>2020-01-15T10:05:24.000Z</time>
      </trkpt>
      <trkpt lat="45.64529" lon="6.67802">
        <ele>2325.1999511719</ele>
        <time>2020-01-15T10:05:26.000Z</time>
      </trkpt>
      <trkpt lat="45.6453" lon="6.67802">
        <ele>2326.1999511719</ele>
        <time>2020-01-15T10:05:30.000Z</time>
      </trkpt>
      <trkpt lat="45.64532" lon="6.67803">
        <ele>2326.3999023438</ele>
        <time>2020-01-15T10:05:33.000Z</time>
      </trkpt>
      <trkpt lat="45.64535" lon="6.67804">
        <ele>2327.1999511719</ele>
        <time>2020-01-15T10:05:38.000Z</time>
      </trkpt>
      <trkpt lat="45.64535" lon="6.67804">
        <ele>2327.1999511719</ele>
        <time>2020-01-15T10:05:39.000Z</time>
      </trkpt>
      <trkpt lat="45.64537" lon="6.67805">
        <ele>2327.6000976562</ele>
        <time>2020-01-15T10:05:45.000Z</time>
      </trkpt>
      <trkpt lat="45.64542" lon="6.67808">
        <ele>2328.1999511719</ele>
        <time>2020-01-15T10:05:52.000Z</time>
      </trkpt>
      <trkpt lat="45.64543" lon="6.67809">
        <ele>2328.8000488281</ele>
        <time>2020-01-15T10:05:56.000Z</time>
      </trkpt>
      <trkpt lat="45.64545" lon="6.67809">
        <ele>2329.3999023438</ele>
        <time>2020-01-15T10:05:59.000Z</time>
      </trkpt>
      <trkpt lat="45.64546" lon="6.67809">
        <ele>2330</ele>
        <time>2020-01-15T10:06:02.000Z</time>
      </trkpt>
      <trkpt lat="45.64547" lon="6.67812">
        <ele>2330.3999023438</ele>
        <time>2020-01-15T10:06:05.000Z</time>
      </trkpt>
      <trkpt lat="45.64549" lon="6.67814">
        <ele>2331</ele>
        <time>2020-01-15T10:06:09.000Z</time>
      </trkpt>
      <trkpt lat="45.64551" lon="6.67813">
        <ele>2331.6000976562</ele>
        <time>2020-01-15T10:06:12.000Z</time>
      </trkpt>
      <trkpt lat="45.64554" lon="6.67814">
        <ele>2331.8000488281</ele>
        <time>2020-01-15T10:06:14.000Z</time>
      </trkpt>
      <trkpt lat="45.64557" lon="6.67812">
        <ele>2332.3999023438</ele>
        <time>2020-01-15T10:06:19.000Z</time>
      </trkpt>
      <trkpt lat="45.6456" lon="6.67812">
        <ele>2332.6000976562</ele>
        <time>2020-01-15T10:06:22.000Z</time>
      </trkpt>
      <trkpt lat="45.64562" lon="6.67813">
        <ele>2332.8000488281</ele>
        <time>2020-01-15T10:06:24.000Z</time>
      </trkpt>
      <trkpt lat="45.64566" lon="6.67815">
        <ele>2333.6000976562</ele>
        <time>2020-01-15T10:06:30.000Z</time>
      </trkpt>
      <trkpt lat="45.64569" lon="6.67816">
        <ele>2334.6000976562</ele>
        <time>2020-01-15T10:06:37.000Z</time>
      </trkpt>
      <trkpt lat="45.64571" lon="6.67817">
        <ele>2335.6000976562</ele>
        <time>2020-01-15T10:06:42.000Z</time>
      </trkpt>
      <trkpt lat="45.64574" lon="6.67819">
        <ele>2336.3999023438</ele>
        <time>2020-01-15T10:06:46.000Z</time>
      </trkpt>
      <trkpt lat="45.64574" lon="6.6782">
        <ele>2336.8000488281</ele>
        <time>2020-01-15T10:06:49.000Z</time>
      </trkpt>
      <trkpt lat="45.64575" lon="6.6782">
        <ele>2336.8000488281</ele>
        <time>2020-01-15T10:06:50.000Z</time>
      </trkpt>
      <trkpt lat="45.64576" lon="6.67821">
        <ele>2337.1999511719</ele>
        <time>2020-01-15T10:06:55.000Z</time>
      </trkpt>
      <trkpt lat="45.64577" lon="6.67822">
        <ele>2337.8000488281</ele>
        <time>2020-01-15T10:07:00.000Z</time>
      </trkpt>
      <trkpt lat="45.6458" lon="6.67821">
        <ele>2338.3999023438</ele>
        <time>2020-01-15T10:07:04.000Z</time>
      </trkpt>
      <trkpt lat="45.64582" lon="6.67823">
        <ele>2339</ele>
        <time>2020-01-15T10:07:07.000Z</time>
      </trkpt>
      <trkpt lat="45.64584" lon="6.67823">
        <ele>2339.3999023438</ele>
        <time>2020-01-15T10:07:09.000Z</time>
      </trkpt>
      <trkpt lat="45.64587" lon="6.67823">
        <ele>2340</ele>
        <time>2020-01-15T10:07:13.000Z</time>
      </trkpt>
      <trkpt lat="45.64587" lon="6.67824">
        <ele>2340</ele>
        <time>2020-01-15T10:07:14.000Z</time>
      </trkpt>
      <trkpt lat="45.64589" lon="6.67825">
        <ele>2341</ele>
        <time>2020-01-15T10:07:20.000Z</time>
      </trkpt>
      <trkpt lat="45.64589" lon="6.67825">
        <ele>2341.1999511719</ele>
        <time>2020-01-15T10:07:22.000Z</time>
      </trkpt>
      <trkpt lat="45.6459" lon="6.67826">
        <ele>2342</ele>
        <time>2020-01-15T10:07:33.000Z</time>
      </trkpt>
      <trkpt lat="45.64591" lon="6.67826">
        <ele>2342.1999511719</ele>
        <time>2020-01-15T10:07:35.000Z</time>
      </trkpt>
      <trkpt lat="45.64595" lon="6.67826">
        <ele>2342.6000976562</ele>
        <time>2020-01-15T10:07:38.000Z</time>
      </trkpt>
      <trkpt lat="45.64598" lon="6.67826">
        <ele>2343.1999511719</ele>
        <time>2020-01-15T10:07:41.000Z</time>
      </trkpt>
      <trkpt lat="45.64599" lon="6.67827">
        <ele>2343.6000976562</ele>
        <time>2020-01-15T10:07:43.000Z</time>
      </trkpt>
      <trkpt lat="45.64604" lon="6.67825">
        <ele>2344.1999511719</ele>
        <time>2020-01-15T10:07:48.000Z</time>
      </trkpt>
      <trkpt lat="45.64604" lon="6.67825">
        <ele>2344.1999511719</ele>
        <time>2020-01-15T10:07:49.000Z</time>
      </trkpt>
      <trkpt lat="45.64607" lon="6.67827">
        <ele>2344.8000488281</ele>
        <time>2020-01-15T10:07:53.000Z</time>
      </trkpt>
      <trkpt lat="45.64608" lon="6.67827">
        <ele>2345.3999023438</ele>
        <time>2020-01-15T10:07:55.000Z</time>
      </trkpt>
      <trkpt lat="45.64609" lon="6.67827">
        <ele>2345.8000488281</ele>
        <time>2020-01-15T10:07:58.000Z</time>
      </trkpt>
      <trkpt lat="45.64613" lon="6.67828">
        <ele>2346.3999023438</ele>
        <time>2020-01-15T10:08:02.000Z</time>
      </trkpt>
      <trkpt lat="45.64613" lon="6.67828">
        <ele>2346.6000976562</ele>
        <time>2020-01-15T10:08:03.000Z</time>
      </trkpt>
      <trkpt lat="45.64618" lon="6.67827">
        <ele>2347.6000976562</ele>
        <time>2020-01-15T10:08:09.000Z</time>
      </trkpt>
      <trkpt lat="45.64618" lon="6.67827">
        <ele>2347.8000488281</ele>
        <time>2020-01-15T10:08:10.000Z</time>
      </trkpt>
      <trkpt lat="45.64621" lon="6.67829">
        <ele>2348.6000976562</ele>
        <time>2020-01-15T10:08:15.000Z</time>
      </trkpt>
      <trkpt lat="45.64626" lon="6.67828">
        <ele>2349.3999023438</ele>
        <time>2020-01-15T10:08:22.000Z</time>
      </trkpt>
      <trkpt lat="45.64625" lon="6.67828">
        <ele>2349.6000976562</ele>
        <time>2020-01-15T10:08:23.000Z</time>
      </trkpt>
      <trkpt lat="45.64627" lon="6.67829">
        <ele>2350.1999511719</ele>
        <time>2020-01-15T10:08:27.000Z</time>
      </trkpt>
      <trkpt lat="45.64628" lon="6.67829">
        <ele>2350.6000976562</ele>
        <time>2020-01-15T10:08:30.000Z</time>
      </trkpt>
      <trkpt lat="45.64631" lon="6.67832">
        <ele>2351.1999511719</ele>
        <time>2020-01-15T10:08:34.000Z</time>
      </trkpt>
      <trkpt lat="45.64632" lon="6.67833">
        <ele>2351.8000488281</ele>
        <time>2020-01-15T10:08:37.000Z</time>
      </trkpt>
      <trkpt lat="45.64632" lon="6.67833">
        <ele>2352.1999511719</ele>
        <time>2020-01-15T10:08:39.000Z</time>
      </trkpt>
      <trkpt lat="45.64635" lon="6.67837">
        <ele>2352.8000488281</ele>
        <time>2020-01-15T10:08:44.000Z</time>
      </trkpt>
      <trkpt lat="45.64635" lon="6.67838">
        <ele>2353</ele>
        <time>2020-01-15T10:08:45.000Z</time>
      </trkpt>
      <trkpt lat="45.64636" lon="6.67839">
        <ele>2353.8000488281</ele>
        <time>2020-01-15T10:08:49.000Z</time>
      </trkpt>
      <trkpt lat="45.64637" lon="6.67839">
        <ele>2354</ele>
        <time>2020-01-15T10:08:50.000Z</time>
      </trkpt>
      <trkpt lat="45.64641" lon="6.67841">
        <ele>2354.6000976562</ele>
        <time>2020-01-15T10:08:54.000Z</time>
      </trkpt>
      <trkpt lat="45.64643" lon="6.67843">
        <ele>2355</ele>
        <time>2020-01-15T10:08:57.000Z</time>
      </trkpt>
      <trkpt lat="45.64643" lon="6.67844">
        <ele>2355.1999511719</ele>
        <time>2020-01-15T10:08:58.000Z</time>
      </trkpt>
      <trkpt lat="45.64645" lon="6.67844">
        <ele>2356</ele>
        <time>2020-01-15T10:09:04.000Z</time>
      </trkpt>
      <trkpt lat="45.64645" lon="6.67844">
        <ele>2356.1999511719</ele>
        <time>2020-01-15T10:09:05.000Z</time>
      </trkpt>
      <trkpt lat="45.64646" lon="6.67846">
        <ele>2356.8000488281</ele>
        <time>2020-01-15T10:09:08.000Z</time>
      </trkpt>
      <trkpt lat="45.64646" lon="6.67848">
        <ele>2357.3999023438</ele>
        <time>2020-01-15T10:09:12.000Z</time>
      </trkpt>
      <trkpt lat="45.6465" lon="6.67851">
        <ele>2358.3999023438</ele>
        <time>2020-01-15T10:09:18.000Z</time>
      </trkpt>
      <trkpt lat="45.64651" lon="6.67853">
        <ele>2359.1999511719</ele>
        <time>2020-01-15T10:09:22.000Z</time>
      </trkpt>
      <trkpt lat="45.64652" lon="6.67854">
        <ele>2359.3999023438</ele>
        <time>2020-01-15T10:09:24.000Z</time>
      </trkpt>
      <trkpt lat="45.64654" lon="6.67855">
        <ele>2360</ele>
        <time>2020-01-15T10:09:27.000Z</time>
      </trkpt>
      <trkpt lat="45.64656" lon="6.67857">
        <ele>2360.6000976562</ele>
        <time>2020-01-15T10:09:31.000Z</time>
      </trkpt>
      <trkpt lat="45.64657" lon="6.67857">
        <ele>2361</ele>
        <time>2020-01-15T10:09:34.000Z</time>
      </trkpt>
      <trkpt lat="45.6466" lon="6.67859">
        <ele>2361.3999023438</ele>
        <time>2020-01-15T10:09:38.000Z</time>
      </trkpt>
      <trkpt lat="45.6466" lon="6.67859">
        <ele>2361.6000976562</ele>
        <time>2020-01-15T10:09:39.000Z</time>
      </trkpt>
      <trkpt lat="45.64662" lon="6.67861">
        <ele>2362.1999511719</ele>
        <time>2020-01-15T10:09:43.000Z</time>
      </trkpt>
      <trkpt lat="45.64663" lon="6.67863">
        <ele>2362.8000488281</ele>
        <time>2020-01-15T10:09:48.000Z</time>
      </trkpt>
      <trkpt lat="45.64664" lon="6.67865">
        <ele>2363</ele>
        <time>2020-01-15T10:09:50.000Z</time>
      </trkpt>
      <trkpt lat="45.64666" lon="6.67865">
        <ele>2364</ele>
        <time>2020-01-15T10:09:55.000Z</time>
      </trkpt>
      <trkpt lat="45.64667" lon="6.67865">
        <ele>2364.3999023438</ele>
        <time>2020-01-15T10:09:58.000Z</time>
      </trkpt>
      <trkpt lat="45.64669" lon="6.67867">
        <ele>2365</ele>
        <time>2020-01-15T10:10:03.000Z</time>
      </trkpt>
      <trkpt lat="45.6467" lon="6.67868">
        <ele>2365.6000976562</ele>
        <time>2020-01-15T10:10:07.000Z</time>
      </trkpt>
      <trkpt lat="45.64673" lon="6.6787">
        <ele>2366.1999511719</ele>
        <time>2020-01-15T10:10:13.000Z</time>
      </trkpt>
      <trkpt lat="45.64674" lon="6.6787">
        <ele>2366.3999023438</ele>
        <time>2020-01-15T10:10:14.000Z</time>
      </trkpt>
      <trkpt lat="45.64676" lon="6.67871">
        <ele>2367.1999511719</ele>
        <time>2020-01-15T10:10:18.000Z</time>
      </trkpt>
      <trkpt lat="45.64676" lon="6.67871">
        <ele>2367.6000976562</ele>
        <time>2020-01-15T10:10:19.000Z</time>
      </trkpt>
      <trkpt lat="45.64678" lon="6.67872">
        <ele>2368.1999511719</ele>
        <time>2020-01-15T10:10:24.000Z</time>
      </trkpt>
      <trkpt lat="45.64678" lon="6.67872">
        <ele>2368.6000976562</ele>
        <time>2020-01-15T10:10:26.000Z</time>
      </trkpt>
      <trkpt lat="45.64679" lon="6.67872">
        <ele>2369.3999023438</ele>
        <time>2020-01-15T10:10:30.000Z</time>
      </trkpt>
      <trkpt lat="45.6468" lon="6.67873">
        <ele>2369.8000488281</ele>
        <time>2020-01-15T10:10:32.000Z</time>
      </trkpt>
      <trkpt lat="45.64683" lon="6.67875">
        <ele>2370.1999511719</ele>
        <time>2020-01-15T10:10:35.000Z</time>
      </trkpt>
      <trkpt lat="45.64686" lon="6.67876">
        <ele>2370.8000488281</ele>
        <time>2020-01-15T10:10:40.000Z</time>
      </trkpt>
      <trkpt lat="45.64687" lon="6.67876">
        <ele>2372</ele>
        <time>2020-01-15T10:10:45.000Z</time>
      </trkpt>
      <trkpt lat="45.64687" lon="6.67877">
        <ele>2372</ele>
        <time>2020-01-15T10:10:48.000Z</time>
      </trkpt>
      <trkpt lat="45.64689" lon="6.67877">
        <ele>2372.6000976562</ele>
        <time>2020-01-15T10:10:55.000Z</time>
      </trkpt>
      <trkpt lat="45.64689" lon="6.67877">
        <ele>2372.8000488281</ele>
        <time>2020-01-15T10:11:06.000Z</time>
      </trkpt>
      <trkpt lat="45.64689" lon="6.67877">
        <ele>2373</ele>
        <time>2020-01-15T10:11:07.000Z</time>
      </trkpt>
      <trkpt lat="45.64689" lon="6.67877">
        <ele>2373.3999023438</ele>
        <time>2020-01-15T10:11:17.000Z</time>
      </trkpt>
      <trkpt lat="45.64689" lon="6.67877">
        <ele>2372</ele>
        <time>2020-01-15T10:11:26.000Z</time>
      </trkpt>
      <trkpt lat="45.64689" lon="6.67877">
        <ele>2372</ele>
        <time>2020-01-15T10:11:28.000Z</time>
      </trkpt>
      <trkpt lat="45.64689" lon="6.67877">
        <ele>2373.1999511719</ele>
        <time>2020-01-15T10:11:30.000Z</time>
      </trkpt>
      <trkpt lat="45.64689" lon="6.67877">
        <ele>2372.8000488281</ele>
        <time>2020-01-15T10:11:43.000Z</time>
      </trkpt>
      <trkpt lat="45.6469" lon="6.67877">
        <ele>2373</ele>
        <time>2020-01-15T10:11:54.000Z</time>
      </trkpt>
      <trkpt lat="45.64693" lon="6.67876">
        <ele>2372</ele>
        <time>2020-01-15T10:12:02.000Z</time>
      </trkpt>
      <trkpt lat="45.64693" lon="6.67876">
        <ele>2371.3999023438</ele>
        <time>2020-01-15T10:12:03.000Z</time>
      </trkpt>
      <trkpt lat="45.64695" lon="6.67874">
        <ele>2373</ele>
        <time>2020-01-15T10:12:15.000Z</time>
      </trkpt>
      <trkpt lat="45.64695" lon="6.67874">
        <ele>2373.3999023438</ele>
        <time>2020-01-15T10:12:18.000Z</time>
      </trkpt>
      <trkpt lat="45.64696" lon="6.67873">
        <ele>2373.1999511719</ele>
        <time>2020-01-15T10:12:30.000Z</time>
      </trkpt>
      <trkpt lat="45.64702" lon="6.67874">
        <ele>2373.1999511719</ele>
        <time>2020-01-15T10:12:40.000Z</time>
      </trkpt>
      <trkpt lat="45.64706" lon="6.67876">
        <ele>2372.6000976562</ele>
        <time>2020-01-15T10:12:52.000Z</time>
      </trkpt>
      <trkpt lat="45.64703" lon="6.67872">
        <ele>2372.8000488281</ele>
        <time>2020-01-15T10:13:03.000Z</time>
      </trkpt>
      <trkpt lat="45.64703" lon="6.67872">
        <ele>2373</ele>
        <time>2020-01-15T10:13:09.000Z</time>
      </trkpt>
      <trkpt lat="45.64703" lon="6.67872">
        <ele>2373</ele>
        <time>2020-01-15T10:13:17.000Z</time>
      </trkpt>
      <trkpt lat="45.64703" lon="6.67872">
        <ele>2373</ele>
        <time>2020-01-15T10:13:30.000Z</time>
      </trkpt>
      <trkpt lat="45.64702" lon="6.67873">
        <ele>2373.3999023438</ele>
        <time>2020-01-15T10:13:45.000Z</time>
      </trkpt>
      <trkpt lat="45.64701" lon="6.67873">
        <ele>2373</ele>
        <time>2020-01-15T10:13:54.000Z</time>
      </trkpt>
      <trkpt lat="45.64701" lon="6.67873">
        <ele>2372.8000488281</ele>
        <time>2020-01-15T10:14:07.000Z</time>
      </trkpt>
      <trkpt lat="45.64701" lon="6.67873">
        <ele>2373</ele>
        <time>2020-01-15T10:14:17.000Z</time>
      </trkpt>
      <trkpt lat="45.64701" lon="6.67873">
        <ele>2373</ele>
        <time>2020-01-15T10:14:29.000Z</time>
      </trkpt>
      <trkpt lat="45.647" lon="6.67874">
        <ele>2373</ele>
        <time>2020-01-15T10:14:35.000Z</time>
      </trkpt>
      <trkpt lat="45.64699" lon="6.67874">
        <ele>2373</ele>
        <time>2020-01-15T10:14:38.000Z</time>
      </trkpt>
      <trkpt lat="45.64696" lon="6.67878">
        <ele>2373.3999023438</ele>
        <time>2020-01-15T10:14:50.000Z</time>
      </trkpt>
      <trkpt lat="45.64696" lon="6.67878">
        <ele>2374.1999511719</ele>
        <time>2020-01-15T10:14:52.000Z</time>
      </trkpt>
      <trkpt lat="45.64696" lon="6.67878">
        <ele>2373.1999511719</ele>
        <time>2020-01-15T10:15:00.000Z</time>
      </trkpt>
      <trkpt lat="45.64696" lon="6.67878">
        <ele>2373.1999511719</ele>
        <time>2020-01-15T10:15:03.000Z</time>
      </trkpt>
      <trkpt lat="45.64696" lon="6.67878">
        <ele>2373.3999023438</ele>
        <time>2020-01-15T10:15:20.000Z</time>
      </trkpt>
      <trkpt lat="45.64689" lon="6.67884">
        <ele>2373.3999023438</ele>
        <time>2020-01-15T10:15:31.000Z</time>
      </trkpt>
      <trkpt lat="45.64689" lon="6.67884">
        <ele>2373.6000976562</ele>
        <time>2020-01-15T10:15:43.000Z</time>
      </trkpt>
      <trkpt lat="45.64689" lon="6.67884">
        <ele>2373.6000976562</ele>
        <time>2020-01-15T10:16:03.000Z</time>
      </trkpt>
      <trkpt lat="45.64689" lon="6.67884">
        <ele>2373.6000976562</ele>
        <time>2020-01-15T10:16:20.000Z</time>
      </trkpt>
      <trkpt lat="45.64689" lon="6.67884">
        <ele>2373.6000976562</ele>
        <time>2020-01-15T10:16:37.000Z</time>
      </trkpt>
      <trkpt lat="45.6469" lon="6.67888">
        <ele>2373.8000488281</ele>
        <time>2020-01-15T10:16:55.000Z</time>
      </trkpt>
      <trkpt lat="45.6469" lon="6.67888">
        <ele>2373.8000488281</ele>
        <time>2020-01-15T10:17:10.000Z</time>
      </trkpt>
      <trkpt lat="45.64694" lon="6.67887">
        <ele>2374</ele>
        <time>2020-01-15T10:17:28.000Z</time>
      </trkpt>
      <trkpt lat="45.64694" lon="6.67887">
        <ele>2374</ele>
        <time>2020-01-15T10:17:43.000Z</time>
      </trkpt>
      <trkpt lat="45.64694" lon="6.67887">
        <ele>2374.1999511719</ele>
        <time>2020-01-15T10:17:59.000Z</time>
      </trkpt>
      <trkpt lat="45.64694" lon="6.67885">
        <ele>2374.1999511719</ele>
        <time>2020-01-15T10:18:07.000Z</time>
      </trkpt>
      <trkpt lat="45.64696" lon="6.67886">
        <ele>2374.1999511719</ele>
        <time>2020-01-15T10:18:08.000Z</time>
      </trkpt>
      <trkpt lat="45.647" lon="6.67887">
        <ele>2374.8000488281</ele>
        <time>2020-01-15T10:18:12.000Z</time>
      </trkpt>
      <trkpt lat="45.64702" lon="6.67886">
        <ele>2375.3999023438</ele>
        <time>2020-01-15T10:18:15.000Z</time>
      </trkpt>
      <trkpt lat="45.64704" lon="6.67886">
        <ele>2375.3999023438</ele>
        <time>2020-01-15T10:18:16.000Z</time>
      </trkpt>
      <trkpt lat="45.64707" lon="6.67886">
        <ele>2376.3999023438</ele>
        <time>2020-01-15T10:18:20.000Z</time>
      </trkpt>
      <trkpt lat="45.64708" lon="6.67886">
        <ele>2376.6000976562</ele>
        <time>2020-01-15T10:18:21.000Z</time>
      </trkpt>
      <trkpt lat="45.64711" lon="6.67887">
        <ele>2377.1999511719</ele>
        <time>2020-01-15T10:18:26.000Z</time>
      </trkpt>
      <trkpt lat="45.64712" lon="6.67887">
        <ele>2377.6000976562</ele>
        <time>2020-01-15T10:18:28.000Z</time>
      </trkpt>
      <trkpt lat="45.64714" lon="6.67887">
        <ele>2378</ele>
        <time>2020-01-15T10:18:31.000Z</time>
      </trkpt>
      <trkpt lat="45.64719" lon="6.6789">
        <ele>2378.6000976562</ele>
        <time>2020-01-15T10:18:36.000Z</time>
      </trkpt>
      <trkpt lat="45.64719" lon="6.6789">
        <ele>2378.8000488281</ele>
        <time>2020-01-15T10:18:37.000Z</time>
      </trkpt>
      <trkpt lat="45.6472" lon="6.67889">
        <ele>2379.3999023438</ele>
        <time>2020-01-15T10:18:41.000Z</time>
      </trkpt>
      <trkpt lat="45.64721" lon="6.67889">
        <ele>2379.8000488281</ele>
        <time>2020-01-15T10:18:43.000Z</time>
      </trkpt>
      <trkpt lat="45.64723" lon="6.67889">
        <ele>2380.1999511719</ele>
        <time>2020-01-15T10:18:46.000Z</time>
      </trkpt>
      <trkpt lat="45.64725" lon="6.6789">
        <ele>2380.8000488281</ele>
        <time>2020-01-15T10:18:51.000Z</time>
      </trkpt>
      <trkpt lat="45.64726" lon="6.6789">
        <ele>2381</ele>
        <time>2020-01-15T10:18:52.000Z</time>
      </trkpt>
      <trkpt lat="45.64727" lon="6.6789">
        <ele>2381.6000976562</ele>
        <time>2020-01-15T10:18:55.000Z</time>
      </trkpt>
      <trkpt lat="45.64729" lon="6.67891">
        <ele>2382</ele>
        <time>2020-01-15T10:18:58.000Z</time>
      </trkpt>
      <trkpt lat="45.6473" lon="6.67891">
        <ele>2382.3999023438</ele>
        <time>2020-01-15T10:19:00.000Z</time>
      </trkpt>
      <trkpt lat="45.64732" lon="6.67892">
        <ele>2383</ele>
        <time>2020-01-15T10:19:04.000Z</time>
      </trkpt>
      <trkpt lat="45.64732" lon="6.67892">
        <ele>2383</ele>
        <time>2020-01-15T10:19:05.000Z</time>
      </trkpt>
      <trkpt lat="45.64737" lon="6.67893">
        <ele>2383.8000488281</ele>
        <time>2020-01-15T10:19:10.000Z</time>
      </trkpt>
      <trkpt lat="45.6474" lon="6.67894">
        <ele>2384.1999511719</ele>
        <time>2020-01-15T10:19:14.000Z</time>
      </trkpt>
      <trkpt lat="45.64741" lon="6.67894">
        <ele>2384.3999023438</ele>
        <time>2020-01-15T10:19:15.000Z</time>
      </trkpt>
      <trkpt lat="45.64745" lon="6.67893">
        <ele>2385.3999023438</ele>
        <time>2020-01-15T10:19:20.000Z</time>
      </trkpt>
      <trkpt lat="45.64748" lon="6.67892">
        <ele>2386.3999023438</ele>
        <time>2020-01-15T10:19:26.000Z</time>
      </trkpt>
      <trkpt lat="45.64748" lon="6.6789">
        <ele>2387</ele>
        <time>2020-01-15T10:19:30.000Z</time>
      </trkpt>
      <trkpt lat="45.64752" lon="6.67889">
        <ele>2387.6000976562</ele>
        <time>2020-01-15T10:19:33.000Z</time>
      </trkpt>
      <trkpt lat="45.64753" lon="6.67886">
        <ele>2388</ele>
        <time>2020-01-15T10:19:36.000Z</time>
      </trkpt>
      <trkpt lat="45.64754" lon="6.67885">
        <ele>2388.6000976562</ele>
        <time>2020-01-15T10:19:39.000Z</time>
      </trkpt>
      <trkpt lat="45.64755" lon="6.67884">
        <ele>2389</ele>
        <time>2020-01-15T10:19:41.000Z</time>
      </trkpt>
      <trkpt lat="45.64757" lon="6.67883">
        <ele>2389.6000976562</ele>
        <time>2020-01-15T10:19:45.000Z</time>
      </trkpt>
      <trkpt lat="45.64761" lon="6.67881">
        <ele>2390.6000976562</ele>
        <time>2020-01-15T10:19:51.000Z</time>
      </trkpt>
      <trkpt lat="45.64761" lon="6.67881">
        <ele>2390.6000976562</ele>
        <time>2020-01-15T10:19:52.000Z</time>
      </trkpt>
      <trkpt lat="45.64762" lon="6.67881">
        <ele>2391.6000976562</ele>
        <time>2020-01-15T10:19:56.000Z</time>
      </trkpt>
      <trkpt lat="45.64763" lon="6.67881">
        <ele>2391.6000976562</ele>
        <time>2020-01-15T10:19:57.000Z</time>
      </trkpt>
      <trkpt lat="45.64764" lon="6.67881">
        <ele>2392.3999023438</ele>
        <time>2020-01-15T10:20:02.000Z</time>
      </trkpt>
      <trkpt lat="45.64766" lon="6.67885">
        <ele>2392.8000488281</ele>
        <time>2020-01-15T10:20:05.000Z</time>
      </trkpt>
      <trkpt lat="45.64767" lon="6.67887">
        <ele>2393.1999511719</ele>
        <time>2020-01-15T10:20:07.000Z</time>
      </trkpt>
      <trkpt lat="45.64771" lon="6.67893">
        <ele>2394</ele>
        <time>2020-01-15T10:20:12.000Z</time>
      </trkpt>
      <trkpt lat="45.64771" lon="6.67893">
        <ele>2394.3999023438</ele>
        <time>2020-01-15T10:20:14.000Z</time>
      </trkpt>
      <trkpt lat="45.64772" lon="6.67895">
        <ele>2394.8000488281</ele>
        <time>2020-01-15T10:20:18.000Z</time>
      </trkpt>
      <trkpt lat="45.64772" lon="6.67895">
        <ele>2395</ele>
        <time>2020-01-15T10:20:19.000Z</time>
      </trkpt>
      <trkpt lat="45.64772" lon="6.67898">
        <ele>2395.8000488281</ele>
        <time>2020-01-15T10:20:24.000Z</time>
      </trkpt>
      <trkpt lat="45.64772" lon="6.67902">
        <ele>2396</ele>
        <time>2020-01-15T10:20:26.000Z</time>
      </trkpt>
      <trkpt lat="45.64773" lon="6.67903">
        <ele>2396.6000976562</ele>
        <time>2020-01-15T10:20:29.000Z</time>
      </trkpt>
      <trkpt lat="45.64774" lon="6.67908">
        <ele>2397.1999511719</ele>
        <time>2020-01-15T10:20:35.000Z</time>
      </trkpt>
      <trkpt lat="45.64776" lon="6.67913">
        <ele>2398</ele>
        <time>2020-01-15T10:20:40.000Z</time>
      </trkpt>
      <trkpt lat="45.64777" lon="6.67913">
        <ele>2398.1999511719</ele>
        <time>2020-01-15T10:20:41.000Z</time>
      </trkpt>
      <trkpt lat="45.64778" lon="6.67913">
        <ele>2398.1999511719</ele>
        <time>2020-01-15T10:20:42.000Z</time>
      </trkpt>
      <trkpt lat="45.6478" lon="6.67912">
        <ele>2398.8000488281</ele>
        <time>2020-01-15T10:20:44.000Z</time>
      </trkpt>
      <trkpt lat="45.64782" lon="6.6791">
        <ele>2399.3999023438</ele>
        <time>2020-01-15T10:20:47.000Z</time>
      </trkpt>
      <trkpt lat="45.64785" lon="6.67909">
        <ele>2399.6000976562</ele>
        <time>2020-01-15T10:20:49.000Z</time>
      </trkpt>
      <trkpt lat="45.64788" lon="6.67908">
        <ele>2400.3999023438</ele>
        <time>2020-01-15T10:20:54.000Z</time>
      </trkpt>
      <trkpt lat="45.64789" lon="6.67908">
        <ele>2400.6000976562</ele>
        <time>2020-01-15T10:20:56.000Z</time>
      </trkpt>
      <trkpt lat="45.64791" lon="6.67906">
        <ele>2401.1999511719</ele>
        <time>2020-01-15T10:20:59.000Z</time>
      </trkpt>
      <trkpt lat="45.64794" lon="6.67904">
        <ele>2401.3999023438</ele>
        <time>2020-01-15T10:21:03.000Z</time>
      </trkpt>
      <trkpt lat="45.64794" lon="6.67904">
        <ele>2401.6000976562</ele>
        <time>2020-01-15T10:21:04.000Z</time>
      </trkpt>
      <trkpt lat="45.64794" lon="6.67903">
        <ele>2402.3999023438</ele>
        <time>2020-01-15T10:21:10.000Z</time>
      </trkpt>
      <trkpt lat="45.64794" lon="6.67903">
        <ele>2402.6000976562</ele>
        <time>2020-01-15T10:21:11.000Z</time>
      </trkpt>
      <trkpt lat="45.64795" lon="6.67906">
        <ele>2403.6000976562</ele>
        <time>2020-01-15T10:21:15.000Z</time>
      </trkpt>
      <trkpt lat="45.64795" lon="6.67907">
        <ele>2403.8000488281</ele>
        <time>2020-01-15T10:21:16.000Z</time>
      </trkpt>
      <trkpt lat="45.64795" lon="6.67914">
        <ele>2404.8000488281</ele>
        <time>2020-01-15T10:21:23.000Z</time>
      </trkpt>
      <trkpt lat="45.64796" lon="6.67917">
        <ele>2405.1999511719</ele>
        <time>2020-01-15T10:21:26.000Z</time>
      </trkpt>
      <trkpt lat="45.64796" lon="6.67921">
        <ele>2405.8000488281</ele>
        <time>2020-01-15T10:21:31.000Z</time>
      </trkpt>
      <trkpt lat="45.64796" lon="6.67924">
        <ele>2406.8000488281</ele>
        <time>2020-01-15T10:21:36.000Z</time>
      </trkpt>
      <trkpt lat="45.64796" lon="6.67925">
        <ele>2407</ele>
        <time>2020-01-15T10:21:37.000Z</time>
      </trkpt>
      <trkpt lat="45.64796" lon="6.67928">
        <ele>2407.6000976562</ele>
        <time>2020-01-15T10:21:41.000Z</time>
      </trkpt>
      <trkpt lat="45.64799" lon="6.67928">
        <ele>2408</ele>
        <time>2020-01-15T10:21:45.000Z</time>
      </trkpt>
      <trkpt lat="45.64803" lon="6.67928">
        <ele>2408.6000976562</ele>
        <time>2020-01-15T10:21:47.000Z</time>
      </trkpt>
      <trkpt lat="45.64805" lon="6.67928">
        <ele>2409</ele>
        <time>2020-01-15T10:21:49.000Z</time>
      </trkpt>
      <trkpt lat="45.64807" lon="6.67927">
        <ele>2409.6000976562</ele>
        <time>2020-01-15T10:21:53.000Z</time>
      </trkpt>
      <trkpt lat="45.6481" lon="6.67926">
        <ele>2410.1999511719</ele>
        <time>2020-01-15T10:21:58.000Z</time>
      </trkpt>
      <trkpt lat="45.64811" lon="6.67926">
        <ele>2410.3999023438</ele>
        <time>2020-01-15T10:21:59.000Z</time>
      </trkpt>
      <trkpt lat="45.64812" lon="6.67924">
        <ele>2411.3999023438</ele>
        <time>2020-01-15T10:22:05.000Z</time>
      </trkpt>
      <trkpt lat="45.64812" lon="6.67925">
        <ele>2412.6000976562</ele>
        <time>2020-01-15T10:22:10.000Z</time>
      </trkpt>
      <trkpt lat="45.64812" lon="6.67925">
        <ele>2413.1999511719</ele>
        <time>2020-01-15T10:22:12.000Z</time>
      </trkpt>
      <trkpt lat="45.64812" lon="6.67925">
        <ele>2413.3999023438</ele>
        <time>2020-01-15T10:22:20.000Z</time>
      </trkpt>
      <trkpt lat="45.64812" lon="6.67925">
        <ele>2413.6000976562</ele>
        <time>2020-01-15T10:22:25.000Z</time>
      </trkpt>
      <trkpt lat="45.64813" lon="6.67926">
        <ele>2414</ele>
        <time>2020-01-15T10:22:27.000Z</time>
      </trkpt>
      <trkpt lat="45.64813" lon="6.67932">
        <ele>2414.8000488281</ele>
        <time>2020-01-15T10:22:31.000Z</time>
      </trkpt>
      <trkpt lat="45.64814" lon="6.67935">
        <ele>2415.1999511719</ele>
        <time>2020-01-15T10:22:33.000Z</time>
      </trkpt>
      <trkpt lat="45.64814" lon="6.67941">
        <ele>2415.8000488281</ele>
        <time>2020-01-15T10:22:38.000Z</time>
      </trkpt>
      <trkpt lat="45.64813" lon="6.67947">
        <ele>2416.8000488281</ele>
        <time>2020-01-15T10:22:43.000Z</time>
      </trkpt>
      <trkpt lat="45.64813" lon="6.67948">
        <ele>2417.1999511719</ele>
        <time>2020-01-15T10:22:44.000Z</time>
      </trkpt>
      <trkpt lat="45.64812" lon="6.67952">
        <ele>2418.1999511719</ele>
        <time>2020-01-15T10:22:50.000Z</time>
      </trkpt>
      <trkpt lat="45.64812" lon="6.67952">
        <ele>2418.3999023438</ele>
        <time>2020-01-15T10:22:51.000Z</time>
      </trkpt>
      <trkpt lat="45.64811" lon="6.67958">
        <ele>2418.8000488281</ele>
        <time>2020-01-15T10:22:55.000Z</time>
      </trkpt>
      <trkpt lat="45.6481" lon="6.67963">
        <ele>2419.6000976562</ele>
        <time>2020-01-15T10:23:00.000Z</time>
      </trkpt>
      <trkpt lat="45.64809" lon="6.67966">
        <ele>2420.3999023438</ele>
        <time>2020-01-15T10:23:05.000Z</time>
      </trkpt>
      <trkpt lat="45.64809" lon="6.67967">
        <ele>2420.6000976562</ele>
        <time>2020-01-15T10:23:06.000Z</time>
      </trkpt>
      <trkpt lat="45.64808" lon="6.67969">
        <ele>2421.6000976562</ele>
        <time>2020-01-15T10:23:10.000Z</time>
      </trkpt>
      <trkpt lat="45.64808" lon="6.67969">
        <ele>2421.8000488281</ele>
        <time>2020-01-15T10:23:11.000Z</time>
      </trkpt>
      <trkpt lat="45.64805" lon="6.67973">
        <ele>2422.6000976562</ele>
        <time>2020-01-15T10:23:17.000Z</time>
      </trkpt>
      <trkpt lat="45.64805" lon="6.67974">
        <ele>2422.8000488281</ele>
        <time>2020-01-15T10:23:18.000Z</time>
      </trkpt>
      <trkpt lat="45.64805" lon="6.67976">
        <ele>2423</ele>
        <time>2020-01-15T10:23:21.000Z</time>
      </trkpt>
      <trkpt lat="45.64806" lon="6.67977">
        <ele>2423.6000976562</ele>
        <time>2020-01-15T10:23:25.000Z</time>
      </trkpt>
      <trkpt lat="45.64806" lon="6.67977">
        <ele>2423.8000488281</ele>
        <time>2020-01-15T10:23:26.000Z</time>
      </trkpt>
      <trkpt lat="45.64806" lon="6.67978">
        <ele>2424.8000488281</ele>
        <time>2020-01-15T10:23:32.000Z</time>
      </trkpt>
      <trkpt lat="45.64806" lon="6.67978">
        <ele>2424.8000488281</ele>
        <time>2020-01-15T10:23:44.000Z</time>
      </trkpt>
      <trkpt lat="45.64811" lon="6.6798">
        <ele>2424.8000488281</ele>
        <time>2020-01-15T10:23:49.000Z</time>
      </trkpt>
      <trkpt lat="45.64813" lon="6.67981">
        <ele>2425.3999023438</ele>
        <time>2020-01-15T10:23:54.000Z</time>
      </trkpt>
      <trkpt lat="45.64814" lon="6.67981">
        <ele>2425.8000488281</ele>
        <time>2020-01-15T10:23:57.000Z</time>
      </trkpt>
      <trkpt lat="45.64816" lon="6.67981">
        <ele>2426.3999023438</ele>
        <time>2020-01-15T10:24:01.000Z</time>
      </trkpt>
      <trkpt lat="45.64819" lon="6.6798">
        <ele>2427</ele>
        <time>2020-01-15T10:24:05.000Z</time>
      </trkpt>
      <trkpt lat="45.64819" lon="6.6798">
        <ele>2427.1999511719</ele>
        <time>2020-01-15T10:24:07.000Z</time>
      </trkpt>
      <trkpt lat="45.64825" lon="6.67978">
        <ele>2428</ele>
        <time>2020-01-15T10:24:12.000Z</time>
      </trkpt>
      <trkpt lat="45.64826" lon="6.67978">
        <ele>2428.1999511719</ele>
        <time>2020-01-15T10:24:13.000Z</time>
      </trkpt>
      <trkpt lat="45.64832" lon="6.67974">
        <ele>2429</ele>
        <time>2020-01-15T10:24:19.000Z</time>
      </trkpt>
      <trkpt lat="45.64836" lon="6.67971">
        <ele>2429.8000488281</ele>
        <time>2020-01-15T10:24:24.000Z</time>
      </trkpt>
      <trkpt lat="45.64838" lon="6.6797">
        <ele>2430</ele>
        <time>2020-01-15T10:24:26.000Z</time>
      </trkpt>
      <trkpt lat="45.64839" lon="6.67972">
        <ele>2430.8000488281</ele>
        <time>2020-01-15T10:24:30.000Z</time>
      </trkpt>
      <trkpt lat="45.64838" lon="6.67975">
        <ele>2431.1999511719</ele>
        <time>2020-01-15T10:24:32.000Z</time>
      </trkpt>
      <trkpt lat="45.64838" lon="6.67976">
        <ele>2431.6000976562</ele>
        <time>2020-01-15T10:24:35.000Z</time>
      </trkpt>
      <trkpt lat="45.64839" lon="6.67981">
        <ele>2432.1999511719</ele>
        <time>2020-01-15T10:24:38.000Z</time>
      </trkpt>
      <trkpt lat="45.64838" lon="6.67982">
        <ele>2433</ele>
        <time>2020-01-15T10:24:41.000Z</time>
      </trkpt>
      <trkpt lat="45.64838" lon="6.67984">
        <ele>2433.1999511719</ele>
        <time>2020-01-15T10:24:43.000Z</time>
      </trkpt>
      <trkpt lat="45.64837" lon="6.67987">
        <ele>2433.8000488281</ele>
        <time>2020-01-15T10:24:47.000Z</time>
      </trkpt>
      <trkpt lat="45.64837" lon="6.67988">
        <ele>2434.1999511719</ele>
        <time>2020-01-15T10:24:51.000Z</time>
      </trkpt>
      <trkpt lat="45.64837" lon="6.67988">
        <ele>2434.6000976562</ele>
        <time>2020-01-15T10:24:53.000Z</time>
      </trkpt>
      <trkpt lat="45.64836" lon="6.67991">
        <ele>2434.6000976562</ele>
        <time>2020-01-15T10:25:02.000Z</time>
      </trkpt>
      <trkpt lat="45.64834" lon="6.67998">
        <ele>2435.3999023438</ele>
        <time>2020-01-15T10:25:07.000Z</time>
      </trkpt>
      <trkpt lat="45.64832" lon="6.68002">
        <ele>2436.1999511719</ele>
        <time>2020-01-15T10:25:13.000Z</time>
      </trkpt>
      <trkpt lat="45.64832" lon="6.68003">
        <ele>2436.3999023438</ele>
        <time>2020-01-15T10:25:14.000Z</time>
      </trkpt>
      <trkpt lat="45.64831" lon="6.68007">
        <ele>2437.1999511719</ele>
        <time>2020-01-15T10:25:19.000Z</time>
      </trkpt>
      <trkpt lat="45.64831" lon="6.68009">
        <ele>2437.6000976562</ele>
        <time>2020-01-15T10:25:21.000Z</time>
      </trkpt>
      <trkpt lat="45.64831" lon="6.68012">
        <ele>2438</ele>
        <time>2020-01-15T10:25:23.000Z</time>
      </trkpt>
      <trkpt lat="45.64829" lon="6.68017">
        <ele>2438.6000976562</ele>
        <time>2020-01-15T10:25:28.000Z</time>
      </trkpt>
      <trkpt lat="45.6483" lon="6.68018">
        <ele>2438.8000488281</ele>
        <time>2020-01-15T10:25:29.000Z</time>
      </trkpt>
      <trkpt lat="45.64829" lon="6.68022">
        <ele>2439.8000488281</ele>
        <time>2020-01-15T10:25:33.000Z</time>
      </trkpt>
      <trkpt lat="45.6483" lon="6.68025">
        <ele>2439.8000488281</ele>
        <time>2020-01-15T10:25:34.000Z</time>
      </trkpt>
      <trkpt lat="45.6483" lon="6.68028">
        <ele>2440.6000976562</ele>
        <time>2020-01-15T10:25:39.000Z</time>
      </trkpt>
      <trkpt lat="45.64829" lon="6.68029">
        <ele>2440.8000488281</ele>
        <time>2020-01-15T10:25:40.000Z</time>
      </trkpt>
      <trkpt lat="45.6483" lon="6.68033">
        <ele>2441.1999511719</ele>
        <time>2020-01-15T10:25:44.000Z</time>
      </trkpt>
      <trkpt lat="45.64831" lon="6.68039">
        <ele>2441.8000488281</ele>
        <time>2020-01-15T10:25:49.000Z</time>
      </trkpt>
      <trkpt lat="45.6483" lon="6.68039">
        <ele>2442</ele>
        <time>2020-01-15T10:25:50.000Z</time>
      </trkpt>
      <trkpt lat="45.64831" lon="6.68042">
        <ele>2442.8000488281</ele>
        <time>2020-01-15T10:25:55.000Z</time>
      </trkpt>
      <trkpt lat="45.64831" lon="6.68043">
        <ele>2443</ele>
        <time>2020-01-15T10:25:56.000Z</time>
      </trkpt>
      <trkpt lat="45.64831" lon="6.68046">
        <ele>2443.8000488281</ele>
        <time>2020-01-15T10:26:02.000Z</time>
      </trkpt>
      <trkpt lat="45.64831" lon="6.68048">
        <ele>2444.1999511719</ele>
        <time>2020-01-15T10:26:04.000Z</time>
      </trkpt>
      <trkpt lat="45.6483" lon="6.68049">
        <ele>2444.3999023438</ele>
        <time>2020-01-15T10:26:06.000Z</time>
      </trkpt>
      <trkpt lat="45.64831" lon="6.68049">
        <ele>2445</ele>
        <time>2020-01-15T10:26:11.000Z</time>
      </trkpt>
      <trkpt lat="45.64832" lon="6.68048">
        <ele>2445.1999511719</ele>
        <time>2020-01-15T10:26:13.000Z</time>
      </trkpt>
      <trkpt lat="45.64833" lon="6.68048">
        <ele>2446.3999023438</ele>
        <time>2020-01-15T10:26:18.000Z</time>
      </trkpt>
      <trkpt lat="45.64834" lon="6.68047">
        <ele>2446.3999023438</ele>
        <time>2020-01-15T10:26:19.000Z</time>
      </trkpt>
      <trkpt lat="45.64835" lon="6.68047">
        <ele>2447.3999023438</ele>
        <time>2020-01-15T10:26:26.000Z</time>
      </trkpt>
      <trkpt lat="45.64835" lon="6.68047">
        <ele>2447.3999023438</ele>
        <time>2020-01-15T10:26:30.000Z</time>
      </trkpt>
      <trkpt lat="45.64835" lon="6.68047">
        <ele>2447.1999511719</ele>
        <time>2020-01-15T10:26:44.000Z</time>
      </trkpt>
      <trkpt lat="45.64835" lon="6.68047">
        <ele>2447.1999511719</ele>
        <time>2020-01-15T10:26:53.000Z</time>
      </trkpt>
      <trkpt lat="45.64835" lon="6.68047">
        <ele>2447.1999511719</ele>
        <time>2020-01-15T10:26:56.000Z</time>
      </trkpt>
      <trkpt lat="45.64835" lon="6.68047">
        <ele>2447.3999023438</ele>
        <time>2020-01-15T10:27:12.000Z</time>
      </trkpt>
      <trkpt lat="45.64835" lon="6.68046">
        <ele>2447.1999511719</ele>
        <time>2020-01-15T10:27:21.000Z</time>
      </trkpt>
      <trkpt lat="45.64839" lon="6.68043">
        <ele>2447.3999023438</ele>
        <time>2020-01-15T10:27:26.000Z</time>
      </trkpt>
      <trkpt lat="45.64844" lon="6.6804">
        <ele>2448.1999511719</ele>
        <time>2020-01-15T10:27:31.000Z</time>
      </trkpt>
      <trkpt lat="45.64845" lon="6.6804">
        <ele>2448.6000976562</ele>
        <time>2020-01-15T10:27:32.000Z</time>
      </trkpt>
      <trkpt lat="45.64846" lon="6.68039">
        <ele>2449.1999511719</ele>
        <time>2020-01-15T10:27:36.000Z</time>
      </trkpt>
      <trkpt lat="45.64847" lon="6.68037">
        <ele>2449.6000976562</ele>
        <time>2020-01-15T10:27:38.000Z</time>
      </trkpt>
      <trkpt lat="45.64851" lon="6.68035">
        <ele>2450.1999511719</ele>
        <time>2020-01-15T10:27:41.000Z</time>
      </trkpt>
      <trkpt lat="45.64853" lon="6.68035">
        <ele>2450.8000488281</ele>
        <time>2020-01-15T10:27:44.000Z</time>
      </trkpt>
      <trkpt lat="45.64854" lon="6.68035">
        <ele>2450.8000488281</ele>
        <time>2020-01-15T10:27:45.000Z</time>
      </trkpt>
      <trkpt lat="45.64857" lon="6.68034">
        <ele>2451.8000488281</ele>
        <time>2020-01-15T10:27:50.000Z</time>
      </trkpt>
      <trkpt lat="45.64858" lon="6.68033">
        <ele>2452</ele>
        <time>2020-01-15T10:27:51.000Z</time>
      </trkpt>
      <trkpt lat="45.64862" lon="6.68034">
        <ele>2452.8000488281</ele>
        <time>2020-01-15T10:27:55.000Z</time>
      </trkpt>
      <trkpt lat="45.64863" lon="6.68034">
        <ele>2453.1999511719</ele>
        <time>2020-01-15T10:27:56.000Z</time>
      </trkpt>
      <trkpt lat="45.64866" lon="6.68035">
        <ele>2453.8000488281</ele>
        <time>2020-01-15T10:28:00.000Z</time>
      </trkpt>
      <trkpt lat="45.64867" lon="6.68035">
        <ele>2454.1999511719</ele>
        <time>2020-01-15T10:28:02.000Z</time>
      </trkpt>
      <trkpt lat="45.6487" lon="6.68035">
        <ele>2455</ele>
        <time>2020-01-15T10:28:07.000Z</time>
      </trkpt>
      <trkpt lat="45.64872" lon="6.68036">
        <ele>2455.1999511719</ele>
        <time>2020-01-15T10:28:09.000Z</time>
      </trkpt>
      <trkpt lat="45.64874" lon="6.68033">
        <ele>2456</ele>
        <time>2020-01-15T10:28:15.000Z</time>
      </trkpt>
      <trkpt lat="45.64878" lon="6.68031">
        <ele>2457</ele>
        <time>2020-01-15T10:28:20.000Z</time>
      </trkpt>
      <trkpt lat="45.64878" lon="6.68031">
        <ele>2457.1999511719</ele>
        <time>2020-01-15T10:28:21.000Z</time>
      </trkpt>
      <trkpt lat="45.64881" lon="6.6803">
        <ele>2458</ele>
        <time>2020-01-15T10:28:26.000Z</time>
      </trkpt>
      <trkpt lat="45.64883" lon="6.68031">
        <ele>2458.3999023438</ele>
        <time>2020-01-15T10:28:28.000Z</time>
      </trkpt>
      <trkpt lat="45.64884" lon="6.68029">
        <ele>2458.8000488281</ele>
        <time>2020-01-15T10:28:31.000Z</time>
      </trkpt>
      <trkpt lat="45.64886" lon="6.68029">
        <ele>2459.3999023438</ele>
        <time>2020-01-15T10:28:34.000Z</time>
      </trkpt>
      <trkpt lat="45.64888" lon="6.68028">
        <ele>2459.8000488281</ele>
        <time>2020-01-15T10:28:37.000Z</time>
      </trkpt>
      <trkpt lat="45.6489" lon="6.68027">
        <ele>2460.3999023438</ele>
        <time>2020-01-15T10:28:41.000Z</time>
      </trkpt>
      <trkpt lat="45.6489" lon="6.68025">
        <ele>2461.1999511719</ele>
        <time>2020-01-15T10:28:44.000Z</time>
      </trkpt>
      <trkpt lat="45.64891" lon="6.68024">
        <ele>2461.6000976562</ele>
        <time>2020-01-15T10:28:48.000Z</time>
      </trkpt>
      <trkpt lat="45.64891" lon="6.68024">
        <ele>2461.3999023438</ele>
        <time>2020-01-15T10:28:50.000Z</time>
      </trkpt>
      <trkpt lat="45.64891" lon="6.68027">
        <ele>2462.1999511719</ele>
        <time>2020-01-15T10:28:55.000Z</time>
      </trkpt>
      <trkpt lat="45.64892" lon="6.6803">
        <ele>2462.6000976562</ele>
        <time>2020-01-15T10:28:57.000Z</time>
      </trkpt>
      <trkpt lat="45.64893" lon="6.68034">
        <ele>2463</ele>
        <time>2020-01-15T10:29:00.000Z</time>
      </trkpt>
      <trkpt lat="45.64891" lon="6.68039">
        <ele>2463.6000976562</ele>
        <time>2020-01-15T10:29:05.000Z</time>
      </trkpt>
      <trkpt lat="45.64891" lon="6.6804">
        <ele>2463.8000488281</ele>
        <time>2020-01-15T10:29:06.000Z</time>
      </trkpt>
      <trkpt lat="45.64891" lon="6.68046">
        <ele>2464.8000488281</ele>
        <time>2020-01-15T10:29:11.000Z</time>
      </trkpt>
      <trkpt lat="45.6489" lon="6.68047">
        <ele>2465</ele>
        <time>2020-01-15T10:29:12.000Z</time>
      </trkpt>
      <trkpt lat="45.64889" lon="6.68051">
        <ele>2465.6000976562</ele>
        <time>2020-01-15T10:29:17.000Z</time>
      </trkpt>
      <trkpt lat="45.64889" lon="6.68053">
        <ele>2466</ele>
        <time>2020-01-15T10:29:19.000Z</time>
      </trkpt>
      <trkpt lat="45.64889" lon="6.68057">
        <ele>2466.6000976562</ele>
        <time>2020-01-15T10:29:23.000Z</time>
      </trkpt>
      <trkpt lat="45.64889" lon="6.68059">
        <ele>2467</ele>
        <time>2020-01-15T10:29:26.000Z</time>
      </trkpt>
      <trkpt lat="45.64888" lon="6.68062">
        <ele>2467.3999023438</ele>
        <time>2020-01-15T10:29:29.000Z</time>
      </trkpt>
      <trkpt lat="45.64888" lon="6.68067">
        <ele>2468</ele>
        <time>2020-01-15T10:29:34.000Z</time>
      </trkpt>
      <trkpt lat="45.64888" lon="6.68071">
        <ele>2469</ele>
        <time>2020-01-15T10:29:40.000Z</time>
      </trkpt>
      <trkpt lat="45.64889" lon="6.68072">
        <ele>2469.1999511719</ele>
        <time>2020-01-15T10:29:42.000Z</time>
      </trkpt>
      <trkpt lat="45.64889" lon="6.68077">
        <ele>2470.1999511719</ele>
        <time>2020-01-15T10:29:47.000Z</time>
      </trkpt>
      <trkpt lat="45.64889" lon="6.68077">
        <ele>2470.3999023438</ele>
        <time>2020-01-15T10:29:48.000Z</time>
      </trkpt>
      <trkpt lat="45.6489" lon="6.68084">
        <ele>2471</ele>
        <time>2020-01-15T10:29:53.000Z</time>
      </trkpt>
      <trkpt lat="45.6489" lon="6.68088">
        <ele>2471.6000976562</ele>
        <time>2020-01-15T10:29:56.000Z</time>
      </trkpt>
      <trkpt lat="45.6489" lon="6.68091">
        <ele>2472</ele>
        <time>2020-01-15T10:29:59.000Z</time>
      </trkpt>
      <trkpt lat="45.6489" lon="6.68092">
        <ele>2472.6000976562</ele>
        <time>2020-01-15T10:30:02.000Z</time>
      </trkpt>
      <trkpt lat="45.6489" lon="6.68092">
        <ele>2472.8000488281</ele>
        <time>2020-01-15T10:30:04.000Z</time>
      </trkpt>
      <trkpt lat="45.6489" lon="6.68095">
        <ele>2473.8000488281</ele>
        <time>2020-01-15T10:30:09.000Z</time>
      </trkpt>
      <trkpt lat="45.64889" lon="6.68097">
        <ele>2474</ele>
        <time>2020-01-15T10:30:10.000Z</time>
      </trkpt>
      <trkpt lat="45.64889" lon="6.68103">
        <ele>2474.6000976562</ele>
        <time>2020-01-15T10:30:15.000Z</time>
      </trkpt>
      <trkpt lat="45.64889" lon="6.68103">
        <ele>2474.8000488281</ele>
        <time>2020-01-15T10:30:16.000Z</time>
      </trkpt>
      <trkpt lat="45.64889" lon="6.68103">
        <ele>2475.1999511719</ele>
        <time>2020-01-15T10:30:24.000Z</time>
      </trkpt>
      <trkpt lat="45.64889" lon="6.68105">
        <ele>2475.8000488281</ele>
        <time>2020-01-15T10:30:31.000Z</time>
      </trkpt>
      <trkpt lat="45.64891" lon="6.68103">
        <ele>2476.1999511719</ele>
        <time>2020-01-15T10:30:35.000Z</time>
      </trkpt>
      <trkpt lat="45.64894" lon="6.68101">
        <ele>2476.8000488281</ele>
        <time>2020-01-15T10:30:38.000Z</time>
      </trkpt>
      <trkpt lat="45.64897" lon="6.68099">
        <ele>2477.3999023438</ele>
        <time>2020-01-15T10:30:41.000Z</time>
      </trkpt>
      <trkpt lat="45.64899" lon="6.681">
        <ele>2478</ele>
        <time>2020-01-15T10:30:44.000Z</time>
      </trkpt>
      <trkpt lat="45.649" lon="6.681">
        <ele>2478.6000976562</ele>
        <time>2020-01-15T10:30:47.000Z</time>
      </trkpt>
      <trkpt lat="45.649" lon="6.681">
        <ele>2479</ele>
        <time>2020-01-15T10:30:49.000Z</time>
      </trkpt>
      <trkpt lat="45.64903" lon="6.68098">
        <ele>2479.3999023438</ele>
        <time>2020-01-15T10:30:51.000Z</time>
      </trkpt>
      <trkpt lat="45.64911" lon="6.68095">
        <ele>2480.1999511719</ele>
        <time>2020-01-15T10:30:57.000Z</time>
      </trkpt>
      <trkpt lat="45.64914" lon="6.68096">
        <ele>2481</ele>
        <time>2020-01-15T10:31:02.000Z</time>
      </trkpt>
      <trkpt lat="45.64915" lon="6.68096">
        <ele>2481.3999023438</ele>
        <time>2020-01-15T10:31:04.000Z</time>
      </trkpt>
      <trkpt lat="45.64917" lon="6.68096">
        <ele>2482.3999023438</ele>
        <time>2020-01-15T10:31:09.000Z</time>
      </trkpt>
      <trkpt lat="45.64917" lon="6.68096">
        <ele>2482.3999023438</ele>
        <time>2020-01-15T10:31:10.000Z</time>
      </trkpt>
      <trkpt lat="45.64919" lon="6.68096">
        <ele>2483</ele>
        <time>2020-01-15T10:31:14.000Z</time>
      </trkpt>
      <trkpt lat="45.64919" lon="6.68096">
        <ele>2483.6000976562</ele>
        <time>2020-01-15T10:31:17.000Z</time>
      </trkpt>
      <trkpt lat="45.64921" lon="6.68094">
        <ele>2484.1999511719</ele>
        <time>2020-01-15T10:31:22.000Z</time>
      </trkpt>
      <trkpt lat="45.64923" lon="6.68094">
        <ele>2484.6000976562</ele>
        <time>2020-01-15T10:31:25.000Z</time>
      </trkpt>
      <trkpt lat="45.64924" lon="6.68093">
        <ele>2485.1999511719</ele>
        <time>2020-01-15T10:31:28.000Z</time>
      </trkpt>
      <trkpt lat="45.64928" lon="6.68094">
        <ele>2485.8000488281</ele>
        <time>2020-01-15T10:31:32.000Z</time>
      </trkpt>
      <trkpt lat="45.6493" lon="6.68093">
        <ele>2486.1999511719</ele>
        <time>2020-01-15T10:31:34.000Z</time>
      </trkpt>
      <trkpt lat="45.64933" lon="6.68093">
        <ele>2486.8000488281</ele>
        <time>2020-01-15T10:31:40.000Z</time>
      </trkpt>
      <trkpt lat="45.64933" lon="6.68093">
        <ele>2487</ele>
        <time>2020-01-15T10:31:42.000Z</time>
      </trkpt>
      <trkpt lat="45.64936" lon="6.68091">
        <ele>2488</ele>
        <time>2020-01-15T10:31:47.000Z</time>
      </trkpt>
      <trkpt lat="45.64941" lon="6.68088">
        <ele>2489</ele>
        <time>2020-01-15T10:31:53.000Z</time>
      </trkpt>
      <trkpt lat="45.64942" lon="6.68087">
        <ele>2489.1999511719</ele>
        <time>2020-01-15T10:31:55.000Z</time>
      </trkpt>
      <trkpt lat="45.64945" lon="6.68085">
        <ele>2490</ele>
        <time>2020-01-15T10:32:00.000Z</time>
      </trkpt>
      <trkpt lat="45.64946" lon="6.68084">
        <ele>2490.1999511719</ele>
        <time>2020-01-15T10:32:01.000Z</time>
      </trkpt>
      <trkpt lat="45.6495" lon="6.6808">
        <ele>2491.1999511719</ele>
        <time>2020-01-15T10:32:06.000Z</time>
      </trkpt>
      <trkpt lat="45.6495" lon="6.6808">
        <ele>2491.3999023438</ele>
        <time>2020-01-15T10:32:07.000Z</time>
      </trkpt>
      <trkpt lat="45.64952" lon="6.68077">
        <ele>2492.3999023438</ele>
        <time>2020-01-15T10:32:12.000Z</time>
      </trkpt>
      <trkpt lat="45.64955" lon="6.68072">
        <ele>2492.8000488281</ele>
        <time>2020-01-15T10:32:16.000Z</time>
      </trkpt>
      <trkpt lat="45.64955" lon="6.68071">
        <ele>2493.3999023438</ele>
        <time>2020-01-15T10:32:19.000Z</time>
      </trkpt>
      <trkpt lat="45.64956" lon="6.68071">
        <ele>2494</ele>
        <time>2020-01-15T10:32:23.000Z</time>
      </trkpt>
      <trkpt lat="45.64956" lon="6.68071">
        <ele>2494.3999023438</ele>
        <time>2020-01-15T10:32:26.000Z</time>
      </trkpt>
      <trkpt lat="45.64956" lon="6.68071">
        <ele>2494.8000488281</ele>
        <time>2020-01-15T10:32:31.000Z</time>
      </trkpt>
      <trkpt lat="45.64956" lon="6.68071">
        <ele>2494.8000488281</ele>
        <time>2020-01-15T10:32:40.000Z</time>
      </trkpt>
      <trkpt lat="45.64956" lon="6.68071">
        <ele>2494.6000976562</ele>
        <time>2020-01-15T10:32:57.000Z</time>
      </trkpt>
      <trkpt lat="45.64955" lon="6.6807">
        <ele>2495.1999511719</ele>
        <time>2020-01-15T10:33:04.000Z</time>
      </trkpt>
      <trkpt lat="45.64955" lon="6.68071">
        <ele>2495.3999023438</ele>
        <time>2020-01-15T10:33:06.000Z</time>
      </trkpt>
      <trkpt lat="45.64956" lon="6.68074">
        <ele>2496</ele>
        <time>2020-01-15T10:33:09.000Z</time>
      </trkpt>
      <trkpt lat="45.64957" lon="6.68076">
        <ele>2496.1999511719</ele>
        <time>2020-01-15T10:33:12.000Z</time>
      </trkpt>
      <trkpt lat="45.64955" lon="6.68076">
        <ele>2496.1999511719</ele>
        <time>2020-01-15T10:33:14.000Z</time>
      </trkpt>
      <trkpt lat="45.64956" lon="6.68078">
        <ele>2496.6000976562</ele>
        <time>2020-01-15T10:33:16.000Z</time>
      </trkpt>
      <trkpt lat="45.64958" lon="6.68082">
        <ele>2497.1999511719</ele>
        <time>2020-01-15T10:33:20.000Z</time>
      </trkpt>
      <trkpt lat="45.64958" lon="6.68083">
        <ele>2497.6000976562</ele>
        <time>2020-01-15T10:33:22.000Z</time>
      </trkpt>
      <trkpt lat="45.64961" lon="6.68087">
        <ele>2498.3999023438</ele>
        <time>2020-01-15T10:33:26.000Z</time>
      </trkpt>
      <trkpt lat="45.64961" lon="6.68089">
        <ele>2498.8000488281</ele>
        <time>2020-01-15T10:33:28.000Z</time>
      </trkpt>
      <trkpt lat="45.64963" lon="6.68093">
        <ele>2499.6000976562</ele>
        <time>2020-01-15T10:33:32.000Z</time>
      </trkpt>
      <trkpt lat="45.64963" lon="6.68094">
        <ele>2499.8000488281</ele>
        <time>2020-01-15T10:33:33.000Z</time>
      </trkpt>
      <trkpt lat="45.64964" lon="6.68099">
        <ele>2500.6000976562</ele>
        <time>2020-01-15T10:33:38.000Z</time>
      </trkpt>
      <trkpt lat="45.64965" lon="6.68101">
        <ele>2501</ele>
        <time>2020-01-15T10:33:40.000Z</time>
      </trkpt>
      <trkpt lat="45.64967" lon="6.68105">
        <ele>2501.6000976562</ele>
        <time>2020-01-15T10:33:44.000Z</time>
      </trkpt>
      <trkpt lat="45.64967" lon="6.68107">
        <ele>2502</ele>
        <time>2020-01-15T10:33:46.000Z</time>
      </trkpt>
      <trkpt lat="45.64968" lon="6.68111">
        <ele>2502.8000488281</ele>
        <time>2020-01-15T10:33:50.000Z</time>
      </trkpt>
      <trkpt lat="45.64969" lon="6.68114">
        <ele>2503.1999511719</ele>
        <time>2020-01-15T10:33:52.000Z</time>
      </trkpt>
      <trkpt lat="45.6497" lon="6.68118">
        <ele>2504.3999023438</ele>
        <time>2020-01-15T10:33:57.000Z</time>
      </trkpt>
      <trkpt lat="45.6497" lon="6.6812">
        <ele>2505.1999511719</ele>
        <time>2020-01-15T10:34:02.000Z</time>
      </trkpt>
      <trkpt lat="45.6497" lon="6.68121">
        <ele>2505.3999023438</ele>
        <time>2020-01-15T10:34:04.000Z</time>
      </trkpt>
      <trkpt lat="45.6497" lon="6.68121">
        <ele>2505.8000488281</ele>
        <time>2020-01-15T10:34:07.000Z</time>
      </trkpt>
      <trkpt lat="45.64972" lon="6.68126">
        <ele>2506.3999023438</ele>
        <time>2020-01-15T10:34:12.000Z</time>
      </trkpt>
      <trkpt lat="45.64972" lon="6.68129">
        <ele>2506.6000976562</ele>
        <time>2020-01-15T10:34:14.000Z</time>
      </trkpt>
      <trkpt lat="45.64972" lon="6.68129">
        <ele>2506.8000488281</ele>
        <time>2020-01-15T10:34:16.000Z</time>
      </trkpt>
      <trkpt lat="45.64972" lon="6.68129">
        <ele>2507.6000976562</ele>
        <time>2020-01-15T10:34:20.000Z</time>
      </trkpt>
      <trkpt lat="45.64972" lon="6.68129">
        <ele>2508</ele>
        <time>2020-01-15T10:34:21.000Z</time>
      </trkpt>
      <trkpt lat="45.64972" lon="6.68129">
        <ele>2508.8000488281</ele>
        <time>2020-01-15T10:34:25.000Z</time>
      </trkpt>
      <trkpt lat="45.64972" lon="6.68129">
        <ele>2509</ele>
        <time>2020-01-15T10:34:26.000Z</time>
      </trkpt>
      <trkpt lat="45.64972" lon="6.68129">
        <ele>2510</ele>
        <time>2020-01-15T10:34:30.000Z</time>
      </trkpt>
      <trkpt lat="45.64972" lon="6.68129">
        <ele>2510.3999023438</ele>
        <time>2020-01-15T10:34:32.000Z</time>
      </trkpt>
      <trkpt lat="45.64975" lon="6.68128">
        <ele>2510.8000488281</ele>
        <time>2020-01-15T10:34:37.000Z</time>
      </trkpt>
      <trkpt lat="45.64976" lon="6.68129">
        <ele>2511</ele>
        <time>2020-01-15T10:34:38.000Z</time>
      </trkpt>
      <trkpt lat="45.64981" lon="6.68129">
        <ele>2512.1999511719</ele>
        <time>2020-01-15T10:34:43.000Z</time>
      </trkpt>
      <trkpt lat="45.64981" lon="6.6813">
        <ele>2512.1999511719</ele>
        <time>2020-01-15T10:34:44.000Z</time>
      </trkpt>
      <trkpt lat="45.64984" lon="6.68133">
        <ele>2513.1999511719</ele>
        <time>2020-01-15T10:34:51.000Z</time>
      </trkpt>
      <trkpt lat="45.64984" lon="6.68133">
        <ele>2513.3999023438</ele>
        <time>2020-01-15T10:34:52.000Z</time>
      </trkpt>
      <trkpt lat="45.64984" lon="6.68133">
        <ele>2514.3999023438</ele>
        <time>2020-01-15T10:34:57.000Z</time>
      </trkpt>
      <trkpt lat="45.64984" lon="6.68133">
        <ele>2514.6000976562</ele>
        <time>2020-01-15T10:34:58.000Z</time>
      </trkpt>
      <trkpt lat="45.64985" lon="6.6813">
        <ele>2515.3999023438</ele>
        <time>2020-01-15T10:35:04.000Z</time>
      </trkpt>
      <trkpt lat="45.64987" lon="6.68131">
        <ele>2515.3999023438</ele>
        <time>2020-01-15T10:35:05.000Z</time>
      </trkpt>
      <trkpt lat="45.64989" lon="6.68134">
        <ele>2516.1999511719</ele>
        <time>2020-01-15T10:35:09.000Z</time>
      </trkpt>
      <trkpt lat="45.64989" lon="6.68134">
        <ele>2516.6000976562</ele>
        <time>2020-01-15T10:35:11.000Z</time>
      </trkpt>
      <trkpt lat="45.64991" lon="6.68134">
        <ele>2517.3999023438</ele>
        <time>2020-01-15T10:35:15.000Z</time>
      </trkpt>
      <trkpt lat="45.64992" lon="6.68134">
        <ele>2517.6000976562</ele>
        <time>2020-01-15T10:35:16.000Z</time>
      </trkpt>
      <trkpt lat="45.64994" lon="6.68134">
        <ele>2518.1999511719</ele>
        <time>2020-01-15T10:35:20.000Z</time>
      </trkpt>
      <trkpt lat="45.64995" lon="6.68134">
        <ele>2518.6000976562</ele>
        <time>2020-01-15T10:35:23.000Z</time>
      </trkpt>
      <trkpt lat="45.64996" lon="6.68134">
        <ele>2519.1999511719</ele>
        <time>2020-01-15T10:35:26.000Z</time>
      </trkpt>
      <trkpt lat="45.64998" lon="6.68135">
        <ele>2519.8000488281</ele>
        <time>2020-01-15T10:35:30.000Z</time>
      </trkpt>
      <trkpt lat="45.65002" lon="6.68138">
        <ele>2520.6000976562</ele>
        <time>2020-01-15T10:35:35.000Z</time>
      </trkpt>
      <trkpt lat="45.65004" lon="6.68139">
        <ele>2520.8000488281</ele>
        <time>2020-01-15T10:35:37.000Z</time>
      </trkpt>
      <trkpt lat="45.65007" lon="6.68141">
        <ele>2521.3999023438</ele>
        <time>2020-01-15T10:35:42.000Z</time>
      </trkpt>
      <trkpt lat="45.65009" lon="6.68143">
        <ele>2522</ele>
        <time>2020-01-15T10:35:45.000Z</time>
      </trkpt>
      <trkpt lat="45.6501" lon="6.68146">
        <ele>2522.6000976562</ele>
        <time>2020-01-15T10:35:49.000Z</time>
      </trkpt>
      <trkpt lat="45.65011" lon="6.68147">
        <ele>2523</ele>
        <time>2020-01-15T10:35:52.000Z</time>
      </trkpt>
      <trkpt lat="45.65012" lon="6.68148">
        <ele>2523.1999511719</ele>
        <time>2020-01-15T10:35:53.000Z</time>
      </trkpt>
      <trkpt lat="45.65013" lon="6.68149">
        <ele>2524</ele>
        <time>2020-01-15T10:35:57.000Z</time>
      </trkpt>
      <trkpt lat="45.65014" lon="6.6815">
        <ele>2524.8000488281</ele>
        <time>2020-01-15T10:36:01.000Z</time>
      </trkpt>
      <trkpt lat="45.65015" lon="6.68151">
        <ele>2525</ele>
        <time>2020-01-15T10:36:04.000Z</time>
      </trkpt>
      <trkpt lat="45.65016" lon="6.68152">
        <ele>2525.1999511719</ele>
        <time>2020-01-15T10:36:06.000Z</time>
      </trkpt>
      <trkpt lat="45.65016" lon="6.68152">
        <ele>2526</ele>
        <time>2020-01-15T10:36:11.000Z</time>
      </trkpt>
      <trkpt lat="45.65016" lon="6.68152">
        <ele>2526.1999511719</ele>
        <time>2020-01-15T10:36:12.000Z</time>
      </trkpt>
      <trkpt lat="45.65016" lon="6.68152">
        <ele>2527</ele>
        <time>2020-01-15T10:36:17.000Z</time>
      </trkpt>
      <trkpt lat="45.65016" lon="6.68152">
        <ele>2527.1999511719</ele>
        <time>2020-01-15T10:36:19.000Z</time>
      </trkpt>
      <trkpt lat="45.65016" lon="6.68152">
        <ele>2528.1999511719</ele>
        <time>2020-01-15T10:36:26.000Z</time>
      </trkpt>
      <trkpt lat="45.65016" lon="6.68152">
        <ele>2528.3999023438</ele>
        <time>2020-01-15T10:36:28.000Z</time>
      </trkpt>
      <trkpt lat="45.65016" lon="6.68152">
        <ele>2529.1999511719</ele>
        <time>2020-01-15T10:36:33.000Z</time>
      </trkpt>
      <trkpt lat="45.65016" lon="6.68152">
        <ele>2529.6000976562</ele>
        <time>2020-01-15T10:36:35.000Z</time>
      </trkpt>
      <trkpt lat="45.65016" lon="6.68152">
        <ele>2530</ele>
        <time>2020-01-15T10:36:38.000Z</time>
      </trkpt>
      <trkpt lat="45.65016" lon="6.68152">
        <ele>2530.6000976562</ele>
        <time>2020-01-15T10:36:41.000Z</time>
      </trkpt>
      <trkpt lat="45.65016" lon="6.68153">
        <ele>2530.8000488281</ele>
        <time>2020-01-15T10:36:49.000Z</time>
      </trkpt>
      <trkpt lat="45.65016" lon="6.68153">
        <ele>2531.3999023438</ele>
        <time>2020-01-15T10:36:57.000Z</time>
      </trkpt>
      <trkpt lat="45.65016" lon="6.68153">
        <ele>2531.6000976562</ele>
        <time>2020-01-15T10:36:59.000Z</time>
      </trkpt>
      <trkpt lat="45.65016" lon="6.68153">
        <ele>2531.8000488281</ele>
        <time>2020-01-15T10:37:11.000Z</time>
      </trkpt>
      <trkpt lat="45.65016" lon="6.68153">
        <ele>2531.8000488281</ele>
        <time>2020-01-15T10:37:28.000Z</time>
      </trkpt>
      <trkpt lat="45.65016" lon="6.68153">
        <ele>2532</ele>
        <time>2020-01-15T10:37:47.000Z</time>
      </trkpt>
      <trkpt lat="45.65016" lon="6.68153">
        <ele>2532.1999511719</ele>
        <time>2020-01-15T10:37:55.000Z</time>
      </trkpt>
      <trkpt lat="45.65016" lon="6.68153">
        <ele>2532.3999023438</ele>
        <time>2020-01-15T10:38:05.000Z</time>
      </trkpt>
      <trkpt lat="45.65016" lon="6.68153">
        <ele>2532.3999023438</ele>
        <time>2020-01-15T10:38:21.000Z</time>
      </trkpt>
      <trkpt lat="45.65016" lon="6.68153">
        <ele>2532.3999023438</ele>
        <time>2020-01-15T10:38:41.000Z</time>
      </trkpt>
      <trkpt lat="45.65017" lon="6.68154">
        <ele>2532.6000976562</ele>
        <time>2020-01-15T10:38:59.000Z</time>
      </trkpt>
      <trkpt lat="45.65017" lon="6.68154">
        <ele>2532.3999023438</ele>
        <time>2020-01-15T10:39:16.000Z</time>
      </trkpt>
      <trkpt lat="45.65017" lon="6.68155">
        <ele>2532.3999023438</ele>
        <time>2020-01-15T10:39:32.000Z</time>
      </trkpt>
      <trkpt lat="45.65017" lon="6.68155">
        <ele>2532.1999511719</ele>
        <time>2020-01-15T10:39:50.000Z</time>
      </trkpt>
      <trkpt lat="45.65018" lon="6.68156">
        <ele>2532.1999511719</ele>
        <time>2020-01-15T10:40:14.000Z</time>
      </trkpt>
      <trkpt lat="45.65018" lon="6.68156">
        <ele>2532.1999511719</ele>
        <time>2020-01-15T10:40:28.000Z</time>
      </trkpt>
      <trkpt lat="45.65019" lon="6.68157">
        <ele>2532.1999511719</ele>
        <time>2020-01-15T10:40:47.000Z</time>
      </trkpt>
      <trkpt lat="45.65019" lon="6.68157">
        <ele>2532.1999511719</ele>
        <time>2020-01-15T10:41:00.000Z</time>
      </trkpt>
      <trkpt lat="45.65019" lon="6.68157">
        <ele>2532.1999511719</ele>
        <time>2020-01-15T10:41:15.000Z</time>
      </trkpt>
      <trkpt lat="45.65019" lon="6.68158">
        <ele>2532.1999511719</ele>
        <time>2020-01-15T10:41:29.000Z</time>
      </trkpt>
      <trkpt lat="45.65019" lon="6.68158">
        <ele>2532.1999511719</ele>
        <time>2020-01-15T10:41:45.000Z</time>
      </trkpt>
      <trkpt lat="45.65021" lon="6.6816">
        <ele>2532.1999511719</ele>
        <time>2020-01-15T10:42:00.000Z</time>
      </trkpt>
      <trkpt lat="45.65029" lon="6.6817">
        <ele>2532.1999511719</ele>
        <time>2020-01-15T10:42:05.000Z</time>
      </trkpt>
      <trkpt lat="45.65034" lon="6.68176">
        <ele>2532.6000976562</ele>
        <time>2020-01-15T10:42:08.000Z</time>
      </trkpt>
      <trkpt lat="45.65036" lon="6.6818">
        <ele>2533</ele>
        <time>2020-01-15T10:42:11.000Z</time>
      </trkpt>
      <trkpt lat="45.65038" lon="6.68181">
        <ele>2533.3999023438</ele>
        <time>2020-01-15T10:42:15.000Z</time>
      </trkpt>
      <trkpt lat="45.6504" lon="6.68181">
        <ele>2533.8000488281</ele>
        <time>2020-01-15T10:42:17.000Z</time>
      </trkpt>
      <trkpt lat="45.65044" lon="6.68181">
        <ele>2534.6000976562</ele>
        <time>2020-01-15T10:42:21.000Z</time>
      </trkpt>
      <trkpt lat="45.65045" lon="6.6818">
        <ele>2535</ele>
        <time>2020-01-15T10:42:23.000Z</time>
      </trkpt>
      <trkpt lat="45.65048" lon="6.68181">
        <ele>2535.6000976562</ele>
        <time>2020-01-15T10:42:27.000Z</time>
      </trkpt>
      <trkpt lat="45.6505" lon="6.68182">
        <ele>2536</ele>
        <time>2020-01-15T10:42:31.000Z</time>
      </trkpt>
      <trkpt lat="45.65056" lon="6.68182">
        <ele>2537</ele>
        <time>2020-01-15T10:42:37.000Z</time>
      </trkpt>
      <trkpt lat="45.65057" lon="6.68182">
        <ele>2537.1999511719</ele>
        <time>2020-01-15T10:42:38.000Z</time>
      </trkpt>
      <trkpt lat="45.6506" lon="6.68182">
        <ele>2538.1999511719</ele>
        <time>2020-01-15T10:42:43.000Z</time>
      </trkpt>
      <trkpt lat="45.6506" lon="6.68181">
        <ele>2538.1999511719</ele>
        <time>2020-01-15T10:42:44.000Z</time>
      </trkpt>
      <trkpt lat="45.65064" lon="6.68182">
        <ele>2539.1999511719</ele>
        <time>2020-01-15T10:42:50.000Z</time>
      </trkpt>
      <trkpt lat="45.65065" lon="6.68182">
        <ele>2539.3999023438</ele>
        <time>2020-01-15T10:42:51.000Z</time>
      </trkpt>
      <trkpt lat="45.65068" lon="6.68183">
        <ele>2540.3999023438</ele>
        <time>2020-01-15T10:42:57.000Z</time>
      </trkpt>
      <trkpt lat="45.65072" lon="6.68184">
        <ele>2541.3999023438</ele>
        <time>2020-01-15T10:43:04.000Z</time>
      </trkpt>
      <trkpt lat="45.65075" lon="6.68186">
        <ele>2542.6000976562</ele>
        <time>2020-01-15T10:43:10.000Z</time>
      </trkpt>
      <trkpt lat="45.65075" lon="6.68186">
        <ele>2542.6000976562</ele>
        <time>2020-01-15T10:43:11.000Z</time>
      </trkpt>
      <trkpt lat="45.65079" lon="6.68188">
        <ele>2543.6000976562</ele>
        <time>2020-01-15T10:43:17.000Z</time>
      </trkpt>
      <trkpt lat="45.6508" lon="6.68189">
        <ele>2543.8000488281</ele>
        <time>2020-01-15T10:43:19.000Z</time>
      </trkpt>
      <trkpt lat="45.65082" lon="6.68189">
        <ele>2544.6000976562</ele>
        <time>2020-01-15T10:43:25.000Z</time>
      </trkpt>
      <trkpt lat="45.65083" lon="6.6819">
        <ele>2545.3999023438</ele>
        <time>2020-01-15T10:43:31.000Z</time>
      </trkpt>
      <trkpt lat="45.65084" lon="6.6819">
        <ele>2545.8000488281</ele>
        <time>2020-01-15T10:43:33.000Z</time>
      </trkpt>
      <trkpt lat="45.65087" lon="6.68191">
        <ele>2546.1999511719</ele>
        <time>2020-01-15T10:43:35.000Z</time>
      </trkpt>
      <trkpt lat="45.65091" lon="6.68194">
        <ele>2546.8000488281</ele>
        <time>2020-01-15T10:43:40.000Z</time>
      </trkpt>
      <trkpt lat="45.65092" lon="6.68194">
        <ele>2547</ele>
        <time>2020-01-15T10:43:41.000Z</time>
      </trkpt>
      <trkpt lat="45.65096" lon="6.68195">
        <ele>2548</ele>
        <time>2020-01-15T10:43:49.000Z</time>
      </trkpt>
      <trkpt lat="45.65097" lon="6.68195">
        <ele>2548</ele>
        <time>2020-01-15T10:43:50.000Z</time>
      </trkpt>
      <trkpt lat="45.65097" lon="6.68195">
        <ele>2549.1999511719</ele>
        <time>2020-01-15T10:43:55.000Z</time>
      </trkpt>
      <trkpt lat="45.65097" lon="6.68195">
        <ele>2549.1999511719</ele>
        <time>2020-01-15T10:43:56.000Z</time>
      </trkpt>
      <trkpt lat="45.65097" lon="6.68195">
        <ele>2550.1999511719</ele>
        <time>2020-01-15T10:44:02.000Z</time>
      </trkpt>
      <trkpt lat="45.65103" lon="6.68196">
        <ele>2550.8000488281</ele>
        <time>2020-01-15T10:44:08.000Z</time>
      </trkpt>
      <trkpt lat="45.65106" lon="6.68197">
        <ele>2551.1999511719</ele>
        <time>2020-01-15T10:44:11.000Z</time>
      </trkpt>
      <trkpt lat="45.65108" lon="6.68199">
        <ele>2551.8000488281</ele>
        <time>2020-01-15T10:44:15.000Z</time>
      </trkpt>
      <trkpt lat="45.65108" lon="6.68199">
        <ele>2552.3999023438</ele>
        <time>2020-01-15T10:44:18.000Z</time>
      </trkpt>
      <trkpt lat="45.65109" lon="6.68202">
        <ele>2553.1999511719</ele>
        <time>2020-01-15T10:44:22.000Z</time>
      </trkpt>
      <trkpt lat="45.65109" lon="6.68204">
        <ele>2553.3999023438</ele>
        <time>2020-01-15T10:44:24.000Z</time>
      </trkpt>
      <trkpt lat="45.6511" lon="6.68208">
        <ele>2553.8000488281</ele>
        <time>2020-01-15T10:44:27.000Z</time>
      </trkpt>
      <trkpt lat="45.65111" lon="6.68214">
        <ele>2554.6000976562</ele>
        <time>2020-01-15T10:44:33.000Z</time>
      </trkpt>
      <trkpt lat="45.6511" lon="6.68215">
        <ele>2554.6000976562</ele>
        <time>2020-01-15T10:44:34.000Z</time>
      </trkpt>
      <trkpt lat="45.65108" lon="6.6822">
        <ele>2555.6000976562</ele>
        <time>2020-01-15T10:44:41.000Z</time>
      </trkpt>
      <trkpt lat="45.65107" lon="6.68226">
        <ele>2556.3999023438</ele>
        <time>2020-01-15T10:44:47.000Z</time>
      </trkpt>
      <trkpt lat="45.65107" lon="6.68227">
        <ele>2556.6000976562</ele>
        <time>2020-01-15T10:44:50.000Z</time>
      </trkpt>
      <trkpt lat="45.65106" lon="6.68229">
        <ele>2557.1999511719</ele>
        <time>2020-01-15T10:44:54.000Z</time>
      </trkpt>
      <trkpt lat="45.65104" lon="6.68231">
        <ele>2557.8000488281</ele>
        <time>2020-01-15T10:44:57.000Z</time>
      </trkpt>
      <trkpt lat="45.65103" lon="6.68234">
        <ele>2558.1999511719</ele>
        <time>2020-01-15T10:45:00.000Z</time>
      </trkpt>
      <trkpt lat="45.65103" lon="6.68235">
        <ele>2558.8000488281</ele>
        <time>2020-01-15T10:45:04.000Z</time>
      </trkpt>
      <trkpt lat="45.65103" lon="6.68236">
        <ele>2559</ele>
        <time>2020-01-15T10:45:05.000Z</time>
      </trkpt>
      <trkpt lat="45.65102" lon="6.68236">
        <ele>2559</ele>
        <time>2020-01-15T10:45:06.000Z</time>
      </trkpt>
      <trkpt lat="45.651" lon="6.68239">
        <ele>2559.8000488281</ele>
        <time>2020-01-15T10:45:09.000Z</time>
      </trkpt>
      <trkpt lat="45.65099" lon="6.68242">
        <ele>2560.3999023438</ele>
        <time>2020-01-15T10:45:13.000Z</time>
      </trkpt>
      <trkpt lat="45.65097" lon="6.68244">
        <ele>2560.8000488281</ele>
        <time>2020-01-15T10:45:17.000Z</time>
      </trkpt>
      <trkpt lat="45.65096" lon="6.68246">
        <ele>2561.1999511719</ele>
        <time>2020-01-15T10:45:20.000Z</time>
      </trkpt>
      <trkpt lat="45.65094" lon="6.6825">
        <ele>2562</ele>
        <time>2020-01-15T10:45:25.000Z</time>
      </trkpt>
      <trkpt lat="45.65094" lon="6.6825">
        <ele>2562</ele>
        <time>2020-01-15T10:45:26.000Z</time>
      </trkpt>
      <trkpt lat="45.65093" lon="6.68253">
        <ele>2562.8000488281</ele>
        <time>2020-01-15T10:45:32.000Z</time>
      </trkpt>
      <trkpt lat="45.65093" lon="6.68254">
        <ele>2563</ele>
        <time>2020-01-15T10:45:33.000Z</time>
      </trkpt>
      <trkpt lat="45.65091" lon="6.68257">
        <ele>2563.3999023438</ele>
        <time>2020-01-15T10:45:37.000Z</time>
      </trkpt>
      <trkpt lat="45.65089" lon="6.68259">
        <ele>2564</ele>
        <time>2020-01-15T10:45:41.000Z</time>
      </trkpt>
      <trkpt lat="45.65088" lon="6.68261">
        <ele>2564.3999023438</ele>
        <time>2020-01-15T10:45:44.000Z</time>
      </trkpt>
      <trkpt lat="45.65088" lon="6.68264">
        <ele>2564.8000488281</ele>
        <time>2020-01-15T10:45:49.000Z</time>
      </trkpt>
      <trkpt lat="45.65087" lon="6.68264">
        <ele>2565</ele>
        <time>2020-01-15T10:45:50.000Z</time>
      </trkpt>
      <trkpt lat="45.65086" lon="6.68269">
        <ele>2566.1999511719</ele>
        <time>2020-01-15T10:45:56.000Z</time>
      </trkpt>
      <trkpt lat="45.65086" lon="6.68269">
        <ele>2566.3999023438</ele>
        <time>2020-01-15T10:45:57.000Z</time>
      </trkpt>
      <trkpt lat="45.65084" lon="6.68272">
        <ele>2567.1999511719</ele>
        <time>2020-01-15T10:46:02.000Z</time>
      </trkpt>
      <trkpt lat="45.65084" lon="6.68273">
        <ele>2567.1999511719</ele>
        <time>2020-01-15T10:46:03.000Z</time>
      </trkpt>
      <trkpt lat="45.65083" lon="6.68274">
        <ele>2567.8000488281</ele>
        <time>2020-01-15T10:46:09.000Z</time>
      </trkpt>
      <trkpt lat="45.65082" lon="6.68274">
        <ele>2568.3999023438</ele>
        <time>2020-01-15T10:46:12.000Z</time>
      </trkpt>
      <trkpt lat="45.6508" lon="6.68278">
        <ele>2569</ele>
        <time>2020-01-15T10:46:16.000Z</time>
      </trkpt>
      <trkpt lat="45.65077" lon="6.68282">
        <ele>2569.3999023438</ele>
        <time>2020-01-15T10:46:20.000Z</time>
      </trkpt>
      <trkpt lat="45.65076" lon="6.68284">
        <ele>2570</ele>
        <time>2020-01-15T10:46:23.000Z</time>
      </trkpt>
      <trkpt lat="45.65074" lon="6.68286">
        <ele>2570.6000976562</ele>
        <time>2020-01-15T10:46:27.000Z</time>
      </trkpt>
      <trkpt lat="45.65072" lon="6.68288">
        <ele>2570.8000488281</ele>
        <time>2020-01-15T10:46:31.000Z</time>
      </trkpt>
      <trkpt lat="45.6507" lon="6.68291">
        <ele>2571.6000976562</ele>
        <time>2020-01-15T10:46:35.000Z</time>
      </trkpt>
      <trkpt lat="45.65067" lon="6.68294">
        <ele>2572.1999511719</ele>
        <time>2020-01-15T10:46:40.000Z</time>
      </trkpt>
      <trkpt lat="45.65065" lon="6.68297">
        <ele>2572.6000976562</ele>
        <time>2020-01-15T10:46:43.000Z</time>
      </trkpt>
      <trkpt lat="45.65064" lon="6.68299">
        <ele>2573.3999023438</ele>
        <time>2020-01-15T10:46:46.000Z</time>
      </trkpt>
      <trkpt lat="45.65063" lon="6.683">
        <ele>2573.6000976562</ele>
        <time>2020-01-15T10:46:48.000Z</time>
      </trkpt>
      <trkpt lat="45.6506" lon="6.68303">
        <ele>2574.3999023438</ele>
        <time>2020-01-15T10:46:52.000Z</time>
      </trkpt>
      <trkpt lat="45.65058" lon="6.68305">
        <ele>2574.8000488281</ele>
        <time>2020-01-15T10:46:55.000Z</time>
      </trkpt>
      <trkpt lat="45.65057" lon="6.68307">
        <ele>2575.1999511719</ele>
        <time>2020-01-15T10:46:59.000Z</time>
      </trkpt>
      <trkpt lat="45.65054" lon="6.6831">
        <ele>2575.8000488281</ele>
        <time>2020-01-15T10:47:04.000Z</time>
      </trkpt>
      <trkpt lat="45.65053" lon="6.68311">
        <ele>2576</ele>
        <time>2020-01-15T10:47:05.000Z</time>
      </trkpt>
      <trkpt lat="45.65052" lon="6.68312">
        <ele>2576.8000488281</ele>
        <time>2020-01-15T10:47:10.000Z</time>
      </trkpt>
      <trkpt lat="45.65052" lon="6.68312">
        <ele>2577.3999023438</ele>
        <time>2020-01-15T10:47:13.000Z</time>
      </trkpt>
      <trkpt lat="45.65052" lon="6.68312">
        <ele>2578</ele>
        <time>2020-01-15T10:47:18.000Z</time>
      </trkpt>
      <trkpt lat="45.6505" lon="6.68314">
        <ele>2578.3999023438</ele>
        <time>2020-01-15T10:47:21.000Z</time>
      </trkpt>
      <trkpt lat="45.65047" lon="6.68318">
        <ele>2579</ele>
        <time>2020-01-15T10:47:28.000Z</time>
      </trkpt>
      <trkpt lat="45.65046" lon="6.68319">
        <ele>2579.1999511719</ele>
        <time>2020-01-15T10:47:31.000Z</time>
      </trkpt>
      <trkpt lat="45.65043" lon="6.68322">
        <ele>2580.1999511719</ele>
        <time>2020-01-15T10:47:37.000Z</time>
      </trkpt>
      <trkpt lat="45.65041" lon="6.68325">
        <ele>2580.6000976562</ele>
        <time>2020-01-15T10:47:39.000Z</time>
      </trkpt>
      <trkpt lat="45.65041" lon="6.68325">
        <ele>2581.1999511719</ele>
        <time>2020-01-15T10:47:47.000Z</time>
      </trkpt>
      <trkpt lat="45.65041" lon="6.68325">
        <ele>2581</ele>
        <time>2020-01-15T10:48:01.000Z</time>
      </trkpt>
      <trkpt lat="45.65041" lon="6.68325">
        <ele>2581.3999023438</ele>
        <time>2020-01-15T10:48:03.000Z</time>
      </trkpt>
      <trkpt lat="45.65041" lon="6.68325">
        <ele>2581.3999023438</ele>
        <time>2020-01-15T10:48:06.000Z</time>
      </trkpt>
      <trkpt lat="45.65042" lon="6.68327">
        <ele>2582.1999511719</ele>
        <time>2020-01-15T10:48:12.000Z</time>
      </trkpt>
      <trkpt lat="45.65043" lon="6.68327">
        <ele>2582.3999023438</ele>
        <time>2020-01-15T10:48:14.000Z</time>
      </trkpt>
      <trkpt lat="45.65045" lon="6.68329">
        <ele>2582.8000488281</ele>
        <time>2020-01-15T10:48:17.000Z</time>
      </trkpt>
      <trkpt lat="45.65046" lon="6.68331">
        <ele>2583.3999023438</ele>
        <time>2020-01-15T10:48:22.000Z</time>
      </trkpt>
      <trkpt lat="45.65047" lon="6.68332">
        <ele>2583.6000976562</ele>
        <time>2020-01-15T10:48:23.000Z</time>
      </trkpt>
      <trkpt lat="45.6505" lon="6.68334">
        <ele>2584.6000976562</ele>
        <time>2020-01-15T10:48:29.000Z</time>
      </trkpt>
      <trkpt lat="45.65053" lon="6.68337">
        <ele>2585.3999023438</ele>
        <time>2020-01-15T10:48:35.000Z</time>
      </trkpt>
      <trkpt lat="45.65053" lon="6.68338">
        <ele>2585.6000976562</ele>
        <time>2020-01-15T10:48:37.000Z</time>
      </trkpt>
      <trkpt lat="45.65054" lon="6.68339">
        <ele>2586.1999511719</ele>
        <time>2020-01-15T10:48:41.000Z</time>
      </trkpt>
      <trkpt lat="45.65053" lon="6.68339">
        <ele>2586.8000488281</ele>
        <time>2020-01-15T10:48:46.000Z</time>
      </trkpt>
      <trkpt lat="45.65053" lon="6.68339">
        <ele>2587.3999023438</ele>
        <time>2020-01-15T10:48:51.000Z</time>
      </trkpt>
      <trkpt lat="45.65053" lon="6.68338">
        <ele>2587.3999023438</ele>
        <time>2020-01-15T10:48:59.000Z</time>
      </trkpt>
      <trkpt lat="45.65053" lon="6.68338">
        <ele>2587.3999023438</ele>
        <time>2020-01-15T10:49:10.000Z</time>
      </trkpt>
      <trkpt lat="45.65053" lon="6.68338">
        <ele>2587</ele>
        <time>2020-01-15T10:49:25.000Z</time>
      </trkpt>
      <trkpt lat="45.65053" lon="6.68338">
        <ele>2587.3999023438</ele>
        <time>2020-01-15T10:49:37.000Z</time>
      </trkpt>
      <trkpt lat="45.65053" lon="6.68339">
        <ele>2587.3999023438</ele>
        <time>2020-01-15T10:49:49.000Z</time>
      </trkpt>
      <trkpt lat="45.65053" lon="6.68339">
        <ele>2587.1999511719</ele>
        <time>2020-01-15T10:50:01.000Z</time>
      </trkpt>
      <trkpt lat="45.65053" lon="6.68339">
        <ele>2587</ele>
        <time>2020-01-15T10:50:13.000Z</time>
      </trkpt>
      <trkpt lat="45.65053" lon="6.68339">
        <ele>2586.8000488281</ele>
        <time>2020-01-15T10:50:22.000Z</time>
      </trkpt>
      <trkpt lat="45.65053" lon="6.68339">
        <ele>2586.3999023438</ele>
        <time>2020-01-15T10:50:27.000Z</time>
      </trkpt>
      <trkpt lat="45.65053" lon="6.6834">
        <ele>2586.6000976562</ele>
        <time>2020-01-15T10:50:35.000Z</time>
      </trkpt>
      <trkpt lat="45.65053" lon="6.68341">
        <ele>2586.6000976562</ele>
        <time>2020-01-15T10:50:47.000Z</time>
      </trkpt>
      <trkpt lat="45.65053" lon="6.68341">
        <ele>2587</ele>
        <time>2020-01-15T10:50:59.000Z</time>
      </trkpt>
      <trkpt lat="45.65053" lon="6.68341">
        <ele>2587.3999023438</ele>
        <time>2020-01-15T10:51:11.000Z</time>
      </trkpt>
      <trkpt lat="45.65053" lon="6.6834">
        <ele>2587</ele>
        <time>2020-01-15T10:51:22.000Z</time>
      </trkpt>
      <trkpt lat="45.65055" lon="6.68342">
        <ele>2587</ele>
        <time>2020-01-15T10:51:29.000Z</time>
      </trkpt>
      <trkpt lat="45.65058" lon="6.68343">
        <ele>2588.1999511719</ele>
        <time>2020-01-15T10:51:34.000Z</time>
      </trkpt>
      <trkpt lat="45.6506" lon="6.68343">
        <ele>2588.6000976562</ele>
        <time>2020-01-15T10:51:37.000Z</time>
      </trkpt>
      <trkpt lat="45.65061" lon="6.68344">
        <ele>2589.1999511719</ele>
        <time>2020-01-15T10:51:41.000Z</time>
      </trkpt>
      <trkpt lat="45.65062" lon="6.68344">
        <ele>2589.3999023438</ele>
        <time>2020-01-15T10:51:44.000Z</time>
      </trkpt>
      <trkpt lat="45.65067" lon="6.68346">
        <ele>2590.1999511719</ele>
        <time>2020-01-15T10:51:49.000Z</time>
      </trkpt>
      <trkpt lat="45.65068" lon="6.68346">
        <ele>2590.3999023438</ele>
        <time>2020-01-15T10:51:50.000Z</time>
      </trkpt>
      <trkpt lat="45.6507" lon="6.68349">
        <ele>2591.3999023438</ele>
        <time>2020-01-15T10:51:56.000Z</time>
      </trkpt>
      <trkpt lat="45.65075" lon="6.68353">
        <ele>2592.3999023438</ele>
        <time>2020-01-15T10:52:02.000Z</time>
      </trkpt>
      <trkpt lat="45.65075" lon="6.68353">
        <ele>2592.6000976562</ele>
        <time>2020-01-15T10:52:03.000Z</time>
      </trkpt>
      <trkpt lat="45.65077" lon="6.68354">
        <ele>2593.1999511719</ele>
        <time>2020-01-15T10:52:08.000Z</time>
      </trkpt>
      <trkpt lat="45.65078" lon="6.68355">
        <ele>2593.6000976562</ele>
        <time>2020-01-15T10:52:10.000Z</time>
      </trkpt>
      <trkpt lat="45.65079" lon="6.68356">
        <ele>2594.1999511719</ele>
        <time>2020-01-15T10:52:13.000Z</time>
      </trkpt>
      <trkpt lat="45.65079" lon="6.68356">
        <ele>2594.8000488281</ele>
        <time>2020-01-15T10:52:22.000Z</time>
      </trkpt>
      <trkpt lat="45.65079" lon="6.68356">
        <ele>2595.3999023438</ele>
        <time>2020-01-15T10:52:27.000Z</time>
      </trkpt>
      <trkpt lat="45.6508" lon="6.68355">
        <ele>2595.1999511719</ele>
        <time>2020-01-15T10:52:39.000Z</time>
      </trkpt>
      <trkpt lat="45.65085" lon="6.68358">
        <ele>2595.6000976562</ele>
        <time>2020-01-15T10:52:45.000Z</time>
      </trkpt>
      <trkpt lat="45.65085" lon="6.68358">
        <ele>2595.8000488281</ele>
        <time>2020-01-15T10:52:47.000Z</time>
      </trkpt>
      <trkpt lat="45.65089" lon="6.68358">
        <ele>2596.8000488281</ele>
        <time>2020-01-15T10:52:52.000Z</time>
      </trkpt>
      <trkpt lat="45.6509" lon="6.68357">
        <ele>2597</ele>
        <time>2020-01-15T10:52:53.000Z</time>
      </trkpt>
      <trkpt lat="45.65096" lon="6.68358">
        <ele>2597.8000488281</ele>
        <time>2020-01-15T10:52:59.000Z</time>
      </trkpt>
      <trkpt lat="45.65096" lon="6.68358">
        <ele>2598</ele>
        <time>2020-01-15T10:53:00.000Z</time>
      </trkpt>
      <trkpt lat="45.65099" lon="6.6836">
        <ele>2598.8000488281</ele>
        <time>2020-01-15T10:53:06.000Z</time>
      </trkpt>
      <trkpt lat="45.651" lon="6.68359">
        <ele>2599.1999511719</ele>
        <time>2020-01-15T10:53:08.000Z</time>
      </trkpt>
      <trkpt lat="45.65104" lon="6.6836">
        <ele>2600.1999511719</ele>
        <time>2020-01-15T10:53:13.000Z</time>
      </trkpt>
      <trkpt lat="45.65104" lon="6.6836">
        <ele>2600.1999511719</ele>
        <time>2020-01-15T10:53:14.000Z</time>
      </trkpt>
      <trkpt lat="45.65109" lon="6.68362">
        <ele>2600.8000488281</ele>
        <time>2020-01-15T10:53:18.000Z</time>
      </trkpt>
      <trkpt lat="45.6511" lon="6.68361">
        <ele>2601.3999023438</ele>
        <time>2020-01-15T10:53:21.000Z</time>
      </trkpt>
      <trkpt lat="45.65111" lon="6.68362">
        <ele>2601.8000488281</ele>
        <time>2020-01-15T10:53:24.000Z</time>
      </trkpt>
      <trkpt lat="45.65113" lon="6.68363">
        <ele>2602.3999023438</ele>
        <time>2020-01-15T10:53:29.000Z</time>
      </trkpt>
      <trkpt lat="45.65115" lon="6.68365">
        <ele>2603.8000488281</ele>
        <time>2020-01-15T10:53:35.000Z</time>
      </trkpt>
      <trkpt lat="45.65116" lon="6.68367">
        <ele>2604.8000488281</ele>
        <time>2020-01-15T10:53:42.000Z</time>
      </trkpt>
      <trkpt lat="45.6512" lon="6.68371">
        <ele>2605.6000976562</ele>
        <time>2020-01-15T10:53:48.000Z</time>
      </trkpt>
      <trkpt lat="45.6512" lon="6.6837">
        <ele>2605.8000488281</ele>
        <time>2020-01-15T10:53:49.000Z</time>
      </trkpt>
      <trkpt lat="45.65121" lon="6.6837">
        <ele>2606</ele>
        <time>2020-01-15T10:53:50.000Z</time>
      </trkpt>
      <trkpt lat="45.65123" lon="6.68371">
        <ele>2606.3999023438</ele>
        <time>2020-01-15T10:53:52.000Z</time>
      </trkpt>
      <trkpt lat="45.65124" lon="6.68372">
        <ele>2607.1999511719</ele>
        <time>2020-01-15T10:53:56.000Z</time>
      </trkpt>
      <trkpt lat="45.65125" lon="6.68372">
        <ele>2607.1999511719</ele>
        <time>2020-01-15T10:53:57.000Z</time>
      </trkpt>
      <trkpt lat="45.65128" lon="6.68375">
        <ele>2608.1999511719</ele>
        <time>2020-01-15T10:54:03.000Z</time>
      </trkpt>
      <trkpt lat="45.65128" lon="6.68375">
        <ele>2608.3999023438</ele>
        <time>2020-01-15T10:54:04.000Z</time>
      </trkpt>
      <trkpt lat="45.65132" lon="6.68376">
        <ele>2609</ele>
        <time>2020-01-15T10:54:10.000Z</time>
      </trkpt>
      <trkpt lat="45.65133" lon="6.68376">
        <ele>2609.1999511719</ele>
        <time>2020-01-15T10:54:12.000Z</time>
      </trkpt>
      <trkpt lat="45.65136" lon="6.68377">
        <ele>2610</ele>
        <time>2020-01-15T10:54:17.000Z</time>
      </trkpt>
      <trkpt lat="45.65137" lon="6.68378">
        <ele>2610.3999023438</ele>
        <time>2020-01-15T10:54:19.000Z</time>
      </trkpt>
      <trkpt lat="45.65138" lon="6.68377">
        <ele>2610.8000488281</ele>
        <time>2020-01-15T10:54:22.000Z</time>
      </trkpt>
      <trkpt lat="45.65138" lon="6.68377">
        <ele>2611.3999023438</ele>
        <time>2020-01-15T10:54:24.000Z</time>
      </trkpt>
      <trkpt lat="45.6514" lon="6.68379">
        <ele>2611.8000488281</ele>
        <time>2020-01-15T10:54:30.000Z</time>
      </trkpt>
      <trkpt lat="45.65143" lon="6.68382">
        <ele>2612.3999023438</ele>
        <time>2020-01-15T10:54:35.000Z</time>
      </trkpt>
      <trkpt lat="45.65143" lon="6.68382">
        <ele>2612.6000976562</ele>
        <time>2020-01-15T10:54:36.000Z</time>
      </trkpt>
      <trkpt lat="45.65144" lon="6.68383">
        <ele>2613.1999511719</ele>
        <time>2020-01-15T10:54:39.000Z</time>
      </trkpt>
      <trkpt lat="45.65145" lon="6.68386">
        <ele>2613.8000488281</ele>
        <time>2020-01-15T10:54:43.000Z</time>
      </trkpt>
      <trkpt lat="45.65145" lon="6.68386">
        <ele>2614</ele>
        <time>2020-01-15T10:54:44.000Z</time>
      </trkpt>
      <trkpt lat="45.65147" lon="6.68387">
        <ele>2614.8000488281</ele>
        <time>2020-01-15T10:54:49.000Z</time>
      </trkpt>
      <trkpt lat="45.65148" lon="6.68388">
        <ele>2615.6000976562</ele>
        <time>2020-01-15T10:54:53.000Z</time>
      </trkpt>
      <trkpt lat="45.65148" lon="6.68388">
        <ele>2615.8000488281</ele>
        <time>2020-01-15T10:54:54.000Z</time>
      </trkpt>
      <trkpt lat="45.6515" lon="6.68389">
        <ele>2616.6000976562</ele>
        <time>2020-01-15T10:54:58.000Z</time>
      </trkpt>
      <trkpt lat="45.65153" lon="6.6839">
        <ele>2616.8000488281</ele>
        <time>2020-01-15T10:55:01.000Z</time>
      </trkpt>
      <trkpt lat="45.65153" lon="6.6839">
        <ele>2617</ele>
        <time>2020-01-15T10:55:02.000Z</time>
      </trkpt>
      <trkpt lat="45.65157" lon="6.6839">
        <ele>2617.6000976562</ele>
        <time>2020-01-15T10:55:07.000Z</time>
      </trkpt>
      <trkpt lat="45.65158" lon="6.68391">
        <ele>2618</ele>
        <time>2020-01-15T10:55:09.000Z</time>
      </trkpt>
      <trkpt lat="45.65161" lon="6.68394">
        <ele>2619</ele>
        <time>2020-01-15T10:55:16.000Z</time>
      </trkpt>
      <trkpt lat="45.65166" lon="6.68393">
        <ele>2620.1999511719</ele>
        <time>2020-01-15T10:55:25.000Z</time>
      </trkpt>
      <trkpt lat="45.6517" lon="6.68393">
        <ele>2620.6000976562</ele>
        <time>2020-01-15T10:55:30.000Z</time>
      </trkpt>
      <trkpt lat="45.65171" lon="6.68394">
        <ele>2621.1999511719</ele>
        <time>2020-01-15T10:55:33.000Z</time>
      </trkpt>
      <trkpt lat="45.65172" lon="6.68394">
        <ele>2621.6000976562</ele>
        <time>2020-01-15T10:55:35.000Z</time>
      </trkpt>
      <trkpt lat="45.65176" lon="6.68393">
        <ele>2622.1999511719</ele>
        <time>2020-01-15T10:55:40.000Z</time>
      </trkpt>
      <trkpt lat="45.65176" lon="6.68393">
        <ele>2622.3999023438</ele>
        <time>2020-01-15T10:55:41.000Z</time>
      </trkpt>
      <trkpt lat="45.65178" lon="6.68394">
        <ele>2623.1999511719</ele>
        <time>2020-01-15T10:55:46.000Z</time>
      </trkpt>
      <trkpt lat="45.65179" lon="6.68394">
        <ele>2623.3999023438</ele>
        <time>2020-01-15T10:55:47.000Z</time>
      </trkpt>
      <trkpt lat="45.65181" lon="6.68395">
        <ele>2624</ele>
        <time>2020-01-15T10:55:54.000Z</time>
      </trkpt>
      <trkpt lat="45.65183" lon="6.68395">
        <ele>2624.6000976562</ele>
        <time>2020-01-15T10:55:56.000Z</time>
      </trkpt>
      <trkpt lat="45.65186" lon="6.68395">
        <ele>2625.3999023438</ele>
        <time>2020-01-15T10:56:00.000Z</time>
      </trkpt>
      <trkpt lat="45.65187" lon="6.68396">
        <ele>2625.3999023438</ele>
        <time>2020-01-15T10:56:01.000Z</time>
      </trkpt>
      <trkpt lat="45.65188" lon="6.68396">
        <ele>2625.6000976562</ele>
        <time>2020-01-15T10:56:03.000Z</time>
      </trkpt>
      <trkpt lat="45.6519" lon="6.68395">
        <ele>2625.8000488281</ele>
        <time>2020-01-15T10:56:05.000Z</time>
      </trkpt>
      <trkpt lat="45.6519" lon="6.68394">
        <ele>2626.1999511719</ele>
        <time>2020-01-15T10:56:11.000Z</time>
      </trkpt>
      <trkpt lat="45.6519" lon="6.68394">
        <ele>2626.8000488281</ele>
        <time>2020-01-15T10:56:15.000Z</time>
      </trkpt>
      <trkpt lat="45.6519" lon="6.68394">
        <ele>2627.1999511719</ele>
        <time>2020-01-15T10:56:27.000Z</time>
      </trkpt>
      <trkpt lat="45.65192" lon="6.68394">
        <ele>2627.6000976562</ele>
        <time>2020-01-15T10:56:36.000Z</time>
      </trkpt>
      <trkpt lat="45.65193" lon="6.68394">
        <ele>2627.8000488281</ele>
        <time>2020-01-15T10:56:38.000Z</time>
      </trkpt>
      <trkpt lat="45.65193" lon="6.68394">
        <ele>2627.8000488281</ele>
        <time>2020-01-15T10:56:41.000Z</time>
      </trkpt>
      <trkpt lat="45.65196" lon="6.68393">
        <ele>2628.8000488281</ele>
        <time>2020-01-15T10:56:48.000Z</time>
      </trkpt>
      <trkpt lat="45.65197" lon="6.68393">
        <ele>2628.8000488281</ele>
        <time>2020-01-15T10:56:49.000Z</time>
      </trkpt>
      <trkpt lat="45.652" lon="6.68391">
        <ele>2629.3999023438</ele>
        <time>2020-01-15T10:56:56.000Z</time>
      </trkpt>
      <trkpt lat="45.65202" lon="6.68391">
        <ele>2629.8000488281</ele>
        <time>2020-01-15T10:57:00.000Z</time>
      </trkpt>
      <trkpt lat="45.65202" lon="6.68391">
        <ele>2630</ele>
        <time>2020-01-15T10:57:02.000Z</time>
      </trkpt>
      <trkpt lat="45.65206" lon="6.68389">
        <ele>2631</ele>
        <time>2020-01-15T10:57:09.000Z</time>
      </trkpt>
      <trkpt lat="45.65209" lon="6.68387">
        <ele>2631.8000488281</ele>
        <time>2020-01-15T10:57:14.000Z</time>
      </trkpt>
      <trkpt lat="45.65209" lon="6.68387">
        <ele>2632</ele>
        <time>2020-01-15T10:57:16.000Z</time>
      </trkpt>
      <trkpt lat="45.65212" lon="6.68387">
        <ele>2632.8000488281</ele>
        <time>2020-01-15T10:57:20.000Z</time>
      </trkpt>
      <trkpt lat="45.65212" lon="6.68387">
        <ele>2633.1999511719</ele>
        <time>2020-01-15T10:57:22.000Z</time>
      </trkpt>
      <trkpt lat="45.65214" lon="6.68386">
        <ele>2633.6000976562</ele>
        <time>2020-01-15T10:57:26.000Z</time>
      </trkpt>
      <trkpt lat="45.65216" lon="6.68385">
        <ele>2634.1999511719</ele>
        <time>2020-01-15T10:57:30.000Z</time>
      </trkpt>
      <trkpt lat="45.65217" lon="6.68384">
        <ele>2634.3999023438</ele>
        <time>2020-01-15T10:57:32.000Z</time>
      </trkpt>
      <trkpt lat="45.65218" lon="6.68382">
        <ele>2635.3999023438</ele>
        <time>2020-01-15T10:57:36.000Z</time>
      </trkpt>
      <trkpt lat="45.65221" lon="6.68381">
        <ele>2636</ele>
        <time>2020-01-15T10:57:40.000Z</time>
      </trkpt>
      <trkpt lat="45.65221" lon="6.68381">
        <ele>2636.3999023438</ele>
        <time>2020-01-15T10:57:43.000Z</time>
      </trkpt>
      <trkpt lat="45.65224" lon="6.6838">
        <ele>2636.6000976562</ele>
        <time>2020-01-15T10:57:46.000Z</time>
      </trkpt>
      <trkpt lat="45.65226" lon="6.68379">
        <ele>2637.3999023438</ele>
        <time>2020-01-15T10:57:52.000Z</time>
      </trkpt>
      <trkpt lat="45.65228" lon="6.68379">
        <ele>2638.6000976562</ele>
        <time>2020-01-15T10:57:57.000Z</time>
      </trkpt>
      <trkpt lat="45.65228" lon="6.68379">
        <ele>2638.8000488281</ele>
        <time>2020-01-15T10:58:00.000Z</time>
      </trkpt>
      <trkpt lat="45.65228" lon="6.68378">
        <ele>2639.1999511719</ele>
        <time>2020-01-15T10:58:10.000Z</time>
      </trkpt>
      <trkpt lat="45.65229" lon="6.68379">
        <ele>2640</ele>
        <time>2020-01-15T10:58:18.000Z</time>
      </trkpt>
      <trkpt lat="45.65229" lon="6.6838">
        <ele>2640.3999023438</ele>
        <time>2020-01-15T10:58:25.000Z</time>
      </trkpt>
      <trkpt lat="45.65229" lon="6.6838">
        <ele>2640.6000976562</ele>
        <time>2020-01-15T10:58:40.000Z</time>
      </trkpt>
      <trkpt lat="45.65228" lon="6.68384">
        <ele>2640.6000976562</ele>
        <time>2020-01-15T10:58:45.000Z</time>
      </trkpt>
      <trkpt lat="45.65227" lon="6.68386">
        <ele>2641</ele>
        <time>2020-01-15T10:58:47.000Z</time>
      </trkpt>
      <trkpt lat="45.65226" lon="6.68391">
        <ele>2641.3999023438</ele>
        <time>2020-01-15T10:58:51.000Z</time>
      </trkpt>
      <trkpt lat="45.65226" lon="6.68392">
        <ele>2642</ele>
        <time>2020-01-15T10:58:56.000Z</time>
      </trkpt>
      <trkpt lat="45.65225" lon="6.68395">
        <ele>2642</ele>
        <time>2020-01-15T10:59:00.000Z</time>
      </trkpt>
      <trkpt lat="45.65224" lon="6.68397">
        <ele>2642.1999511719</ele>
        <time>2020-01-15T10:59:02.000Z</time>
      </trkpt>
      <trkpt lat="45.65222" lon="6.68402">
        <ele>2643</ele>
        <time>2020-01-15T10:59:08.000Z</time>
      </trkpt>
      <trkpt lat="45.65221" lon="6.68404">
        <ele>2643.1999511719</ele>
        <time>2020-01-15T10:59:10.000Z</time>
      </trkpt>
      <trkpt lat="45.65221" lon="6.68409">
        <ele>2644</ele>
        <time>2020-01-15T10:59:15.000Z</time>
      </trkpt>
      <trkpt lat="45.6522" lon="6.68411">
        <ele>2644.3999023438</ele>
        <time>2020-01-15T10:59:17.000Z</time>
      </trkpt>
      <trkpt lat="45.65218" lon="6.68413">
        <ele>2644.8000488281</ele>
        <time>2020-01-15T10:59:21.000Z</time>
      </trkpt>
      <trkpt lat="45.65217" lon="6.68414">
        <ele>2645.3999023438</ele>
        <time>2020-01-15T10:59:26.000Z</time>
      </trkpt>
      <trkpt lat="45.65217" lon="6.68414">
        <ele>2645.3999023438</ele>
        <time>2020-01-15T10:59:27.000Z</time>
      </trkpt>
      <trkpt lat="45.65216" lon="6.68413">
        <ele>2646</ele>
        <time>2020-01-15T10:59:34.000Z</time>
      </trkpt>
      <trkpt lat="45.65215" lon="6.68415">
        <ele>2645.8000488281</ele>
        <time>2020-01-15T10:59:43.000Z</time>
      </trkpt>
      <trkpt lat="45.65215" lon="6.68415">
        <ele>2645.8000488281</ele>
        <time>2020-01-15T10:59:44.000Z</time>
      </trkpt>
      <trkpt lat="45.65213" lon="6.68418">
        <ele>2646.3999023438</ele>
        <time>2020-01-15T10:59:48.000Z</time>
      </trkpt>
      <trkpt lat="45.65213" lon="6.68419">
        <ele>2646.3999023438</ele>
        <time>2020-01-15T10:59:49.000Z</time>
      </trkpt>
      <trkpt lat="45.65212" lon="6.6842">
        <ele>2647</ele>
        <time>2020-01-15T10:59:52.000Z</time>
      </trkpt>
      <trkpt lat="45.6521" lon="6.68423">
        <ele>2647.3999023438</ele>
        <time>2020-01-15T10:59:55.000Z</time>
      </trkpt>
      <trkpt lat="45.65209" lon="6.68425">
        <ele>2647.8000488281</ele>
        <time>2020-01-15T10:59:57.000Z</time>
      </trkpt>
      <trkpt lat="45.65207" lon="6.68429">
        <ele>2648.6000976562</ele>
        <time>2020-01-15T11:00:03.000Z</time>
      </trkpt>
      <trkpt lat="45.65205" lon="6.68432">
        <ele>2649</ele>
        <time>2020-01-15T11:00:06.000Z</time>
      </trkpt>
      <trkpt lat="45.65205" lon="6.68433">
        <ele>2649.1999511719</ele>
        <time>2020-01-15T11:00:08.000Z</time>
      </trkpt>
      <trkpt lat="45.65203" lon="6.68436">
        <ele>2649.3999023438</ele>
        <time>2020-01-15T11:00:13.000Z</time>
      </trkpt>
      <trkpt lat="45.65203" lon="6.68436">
        <ele>2649.6000976562</ele>
        <time>2020-01-15T11:00:14.000Z</time>
      </trkpt>
      <trkpt lat="45.65202" lon="6.68438">
        <ele>2650.6000976562</ele>
        <time>2020-01-15T11:00:20.000Z</time>
      </trkpt>
      <trkpt lat="45.65201" lon="6.68439">
        <ele>2650.8000488281</ele>
        <time>2020-01-15T11:00:21.000Z</time>
      </trkpt>
      <trkpt lat="45.65198" lon="6.68443">
        <ele>2651.1999511719</ele>
        <time>2020-01-15T11:00:25.000Z</time>
      </trkpt>
      <trkpt lat="45.65196" lon="6.68446">
        <ele>2651.8000488281</ele>
        <time>2020-01-15T11:00:30.000Z</time>
      </trkpt>
      <trkpt lat="45.65195" lon="6.68447">
        <ele>2651.8000488281</ele>
        <time>2020-01-15T11:00:31.000Z</time>
      </trkpt>
      <trkpt lat="45.65194" lon="6.68448">
        <ele>2652.6000976562</ele>
        <time>2020-01-15T11:00:36.000Z</time>
      </trkpt>
      <trkpt lat="45.65193" lon="6.6845">
        <ele>2652.8000488281</ele>
        <time>2020-01-15T11:00:38.000Z</time>
      </trkpt>
      <trkpt lat="45.65192" lon="6.68452">
        <ele>2653</ele>
        <time>2020-01-15T11:00:41.000Z</time>
      </trkpt>
      <trkpt lat="45.6519" lon="6.68455">
        <ele>2653.8000488281</ele>
        <time>2020-01-15T11:00:47.000Z</time>
      </trkpt>
      <trkpt lat="45.65187" lon="6.68458">
        <ele>2654.6000976562</ele>
        <time>2020-01-15T11:00:54.000Z</time>
      </trkpt>
      <trkpt lat="45.65186" lon="6.6846">
        <ele>2654.8000488281</ele>
        <time>2020-01-15T11:00:57.000Z</time>
      </trkpt>
      <trkpt lat="45.65185" lon="6.68462">
        <ele>2655.1999511719</ele>
        <time>2020-01-15T11:00:59.000Z</time>
      </trkpt>
      <trkpt lat="45.65181" lon="6.68467">
        <ele>2655.8000488281</ele>
        <time>2020-01-15T11:01:07.000Z</time>
      </trkpt>
      <trkpt lat="45.6518" lon="6.68468">
        <ele>2656</ele>
        <time>2020-01-15T11:01:08.000Z</time>
      </trkpt>
      <trkpt lat="45.65178" lon="6.68471">
        <ele>2656.3999023438</ele>
        <time>2020-01-15T11:01:12.000Z</time>
      </trkpt>
      <trkpt lat="45.65177" lon="6.68473">
        <ele>2657</ele>
        <time>2020-01-15T11:01:16.000Z</time>
      </trkpt>
      <trkpt lat="45.65176" lon="6.68474">
        <ele>2657.3999023438</ele>
        <time>2020-01-15T11:01:18.000Z</time>
      </trkpt>
      <trkpt lat="45.65173" lon="6.68477">
        <ele>2658</ele>
        <time>2020-01-15T11:01:23.000Z</time>
      </trkpt>
      <trkpt lat="45.65173" lon="6.68477">
        <ele>2658</ele>
        <time>2020-01-15T11:01:24.000Z</time>
      </trkpt>
      <trkpt lat="45.65173" lon="6.68477">
        <ele>2658.3999023438</ele>
        <time>2020-01-15T11:01:30.000Z</time>
      </trkpt>
      <trkpt lat="45.65172" lon="6.68478">
        <ele>2658.8000488281</ele>
        <time>2020-01-15T11:01:37.000Z</time>
      </trkpt>
      <trkpt lat="45.65171" lon="6.68479">
        <ele>2659</ele>
        <time>2020-01-15T11:01:39.000Z</time>
      </trkpt>
      <trkpt lat="45.65168" lon="6.6848">
        <ele>2659.6000976562</ele>
        <time>2020-01-15T11:01:43.000Z</time>
      </trkpt>
      <trkpt lat="45.65167" lon="6.68482">
        <ele>2660.1999511719</ele>
        <time>2020-01-15T11:01:46.000Z</time>
      </trkpt>
      <trkpt lat="45.65165" lon="6.68483">
        <ele>2660.8000488281</ele>
        <time>2020-01-15T11:01:49.000Z</time>
      </trkpt>
      <trkpt lat="45.65164" lon="6.68483">
        <ele>2661.1999511719</ele>
        <time>2020-01-15T11:01:52.000Z</time>
      </trkpt>
      <trkpt lat="45.65162" lon="6.68484">
        <ele>2661.6000976562</ele>
        <time>2020-01-15T11:01:55.000Z</time>
      </trkpt>
      <trkpt lat="45.6516" lon="6.68486">
        <ele>2662.3999023438</ele>
        <time>2020-01-15T11:01:59.000Z</time>
      </trkpt>
      <trkpt lat="45.65159" lon="6.68487">
        <ele>2662.8000488281</ele>
        <time>2020-01-15T11:02:01.000Z</time>
      </trkpt>
      <trkpt lat="45.65157" lon="6.68489">
        <ele>2663.3999023438</ele>
        <time>2020-01-15T11:02:05.000Z</time>
      </trkpt>
      <trkpt lat="45.65155" lon="6.6849">
        <ele>2664</ele>
        <time>2020-01-15T11:02:09.000Z</time>
      </trkpt>
      <trkpt lat="45.65151" lon="6.68491">
        <ele>2664.3999023438</ele>
        <time>2020-01-15T11:02:13.000Z</time>
      </trkpt>
      <trkpt lat="45.6515" lon="6.68492">
        <ele>2664.6000976562</ele>
        <time>2020-01-15T11:02:15.000Z</time>
      </trkpt>
      <trkpt lat="45.65146" lon="6.68494">
        <ele>2665.3999023438</ele>
        <time>2020-01-15T11:02:22.000Z</time>
      </trkpt>
      <trkpt lat="45.65146" lon="6.68494">
        <ele>2665.6000976562</ele>
        <time>2020-01-15T11:02:23.000Z</time>
      </trkpt>
      <trkpt lat="45.65145" lon="6.68495">
        <ele>2666.6000976562</ele>
        <time>2020-01-15T11:02:28.000Z</time>
      </trkpt>
      <trkpt lat="45.65145" lon="6.68495">
        <ele>2666.8000488281</ele>
        <time>2020-01-15T11:02:29.000Z</time>
      </trkpt>
      <trkpt lat="45.65145" lon="6.68495">
        <ele>2667.6000976562</ele>
        <time>2020-01-15T11:02:35.000Z</time>
      </trkpt>
      <trkpt lat="45.65145" lon="6.68495">
        <ele>2667.8000488281</ele>
        <time>2020-01-15T11:02:36.000Z</time>
      </trkpt>
      <trkpt lat="45.65141" lon="6.68496">
        <ele>2668.8000488281</ele>
        <time>2020-01-15T11:02:41.000Z</time>
      </trkpt>
      <trkpt lat="45.6514" lon="6.68497">
        <ele>2669</ele>
        <time>2020-01-15T11:02:43.000Z</time>
      </trkpt>
      <trkpt lat="45.65137" lon="6.68499">
        <ele>2669.6000976562</ele>
        <time>2020-01-15T11:02:49.000Z</time>
      </trkpt>
      <trkpt lat="45.65135" lon="6.685">
        <ele>2670</ele>
        <time>2020-01-15T11:02:51.000Z</time>
      </trkpt>
      <trkpt lat="45.65133" lon="6.68502">
        <ele>2671.1999511719</ele>
        <time>2020-01-15T11:02:55.000Z</time>
      </trkpt>
      <trkpt lat="45.65133" lon="6.68502">
        <ele>2671.6000976562</ele>
        <time>2020-01-15T11:02:58.000Z</time>
      </trkpt>
      <trkpt lat="45.65133" lon="6.68502">
        <ele>2671.6000976562</ele>
        <time>2020-01-15T11:03:14.000Z</time>
      </trkpt>
      <trkpt lat="45.65133" lon="6.68502">
        <ele>2671.6000976562</ele>
        <time>2020-01-15T11:03:20.000Z</time>
      </trkpt>
      <trkpt lat="45.65134" lon="6.68504">
        <ele>2671.8000488281</ele>
        <time>2020-01-15T11:03:28.000Z</time>
      </trkpt>
      <trkpt lat="45.65133" lon="6.68509">
        <ele>2672.1999511719</ele>
        <time>2020-01-15T11:03:32.000Z</time>
      </trkpt>
      <trkpt lat="45.65133" lon="6.68513">
        <ele>2673.1999511719</ele>
        <time>2020-01-15T11:03:36.000Z</time>
      </trkpt>
      <trkpt lat="45.65133" lon="6.68513">
        <ele>2673.1999511719</ele>
        <time>2020-01-15T11:03:37.000Z</time>
      </trkpt>
      <trkpt lat="45.65134" lon="6.68516">
        <ele>2673.6000976562</ele>
        <time>2020-01-15T11:03:41.000Z</time>
      </trkpt>
      <trkpt lat="45.65138" lon="6.68519">
        <ele>2674.3999023438</ele>
        <time>2020-01-15T11:03:46.000Z</time>
      </trkpt>
      <trkpt lat="45.65139" lon="6.68519">
        <ele>2674.8000488281</ele>
        <time>2020-01-15T11:03:48.000Z</time>
      </trkpt>
      <trkpt lat="45.65142" lon="6.68522">
        <ele>2675.6000976562</ele>
        <time>2020-01-15T11:03:53.000Z</time>
      </trkpt>
      <trkpt lat="45.65143" lon="6.68522">
        <ele>2675.8000488281</ele>
        <time>2020-01-15T11:03:55.000Z</time>
      </trkpt>
      <trkpt lat="45.65146" lon="6.68525">
        <ele>2676.6000976562</ele>
        <time>2020-01-15T11:04:01.000Z</time>
      </trkpt>
      <trkpt lat="45.65146" lon="6.68526">
        <ele>2677</ele>
        <time>2020-01-15T11:04:03.000Z</time>
      </trkpt>
      <trkpt lat="45.65147" lon="6.68526">
        <ele>2677.8000488281</ele>
        <time>2020-01-15T11:04:06.000Z</time>
      </trkpt>
      <trkpt lat="45.65149" lon="6.68527">
        <ele>2678.1999511719</ele>
        <time>2020-01-15T11:04:13.000Z</time>
      </trkpt>
      <trkpt lat="45.65151" lon="6.68526">
        <ele>2678.8000488281</ele>
        <time>2020-01-15T11:04:17.000Z</time>
      </trkpt>
      <trkpt lat="45.65154" lon="6.68526">
        <ele>2679.3999023438</ele>
        <time>2020-01-15T11:04:22.000Z</time>
      </trkpt>
      <trkpt lat="45.65155" lon="6.68527">
        <ele>2680</ele>
        <time>2020-01-15T11:04:24.000Z</time>
      </trkpt>
      <trkpt lat="45.65157" lon="6.68528">
        <ele>2680.8000488281</ele>
        <time>2020-01-15T11:04:29.000Z</time>
      </trkpt>
      <trkpt lat="45.65158" lon="6.68528">
        <ele>2681</ele>
        <time>2020-01-15T11:04:31.000Z</time>
      </trkpt>
      <trkpt lat="45.65158" lon="6.68528">
        <ele>2681.6000976562</ele>
        <time>2020-01-15T11:04:38.000Z</time>
      </trkpt>
      <trkpt lat="45.65159" lon="6.68529">
        <ele>2682</ele>
        <time>2020-01-15T11:04:48.000Z</time>
      </trkpt>
      <trkpt lat="45.6516" lon="6.68529">
        <ele>2682.1999511719</ele>
        <time>2020-01-15T11:04:50.000Z</time>
      </trkpt>
      <trkpt lat="45.65163" lon="6.68529">
        <ele>2682.6000976562</ele>
        <time>2020-01-15T11:04:56.000Z</time>
      </trkpt>
      <trkpt lat="45.65164" lon="6.6853">
        <ele>2683.1999511719</ele>
        <time>2020-01-15T11:04:59.000Z</time>
      </trkpt>
      <trkpt lat="45.65165" lon="6.68531">
        <ele>2683.3999023438</ele>
        <time>2020-01-15T11:05:03.000Z</time>
      </trkpt>
      <trkpt lat="45.65167" lon="6.68532">
        <ele>2684.1999511719</ele>
        <time>2020-01-15T11:05:10.000Z</time>
      </trkpt>
      <trkpt lat="45.65167" lon="6.68533">
        <ele>2684.3999023438</ele>
        <time>2020-01-15T11:05:11.000Z</time>
      </trkpt>
      <trkpt lat="45.65169" lon="6.68536">
        <ele>2684.6000976562</ele>
        <time>2020-01-15T11:05:15.000Z</time>
      </trkpt>
      <trkpt lat="45.65173" lon="6.68539">
        <ele>2685.1999511719</ele>
        <time>2020-01-15T11:05:20.000Z</time>
      </trkpt>
      <trkpt lat="45.65173" lon="6.68539">
        <ele>2685.3999023438</ele>
        <time>2020-01-15T11:05:21.000Z</time>
      </trkpt>
      <trkpt lat="45.65173" lon="6.68539">
        <ele>2686.6000976562</ele>
        <time>2020-01-15T11:05:27.000Z</time>
      </trkpt>
      <trkpt lat="45.65173" lon="6.68539">
        <ele>2686.6000976562</ele>
        <time>2020-01-15T11:05:30.000Z</time>
      </trkpt>
      <trkpt lat="45.65174" lon="6.6854">
        <ele>2686.6000976562</ele>
        <time>2020-01-15T11:05:37.000Z</time>
      </trkpt>
      <trkpt lat="45.65176" lon="6.6854">
        <ele>2687.6000976562</ele>
        <time>2020-01-15T11:05:43.000Z</time>
      </trkpt>
      <trkpt lat="45.65176" lon="6.6854">
        <ele>2687.6000976562</ele>
        <time>2020-01-15T11:05:44.000Z</time>
      </trkpt>
      <trkpt lat="45.65181" lon="6.68541">
        <ele>2688.8000488281</ele>
        <time>2020-01-15T11:05:50.000Z</time>
      </trkpt>
      <trkpt lat="45.65184" lon="6.68541">
        <ele>2689.6000976562</ele>
        <time>2020-01-15T11:05:59.000Z</time>
      </trkpt>
      <trkpt lat="45.65184" lon="6.68541">
        <ele>2690</ele>
        <time>2020-01-15T11:06:00.000Z</time>
      </trkpt>
      <trkpt lat="45.65184" lon="6.68541">
        <ele>2690.1999511719</ele>
        <time>2020-01-15T11:06:13.000Z</time>
      </trkpt>
      <trkpt lat="45.65185" lon="6.68541">
        <ele>2690.8000488281</ele>
        <time>2020-01-15T11:06:20.000Z</time>
      </trkpt>
      <trkpt lat="45.65188" lon="6.6854">
        <ele>2691.1999511719</ele>
        <time>2020-01-15T11:06:22.000Z</time>
      </trkpt>
      <trkpt lat="45.6519" lon="6.68539">
        <ele>2692</ele>
        <time>2020-01-15T11:06:26.000Z</time>
      </trkpt>
      <trkpt lat="45.65192" lon="6.6854">
        <ele>2692.1999511719</ele>
        <time>2020-01-15T11:06:28.000Z</time>
      </trkpt>
      <trkpt lat="45.65196" lon="6.6854">
        <ele>2693</ele>
        <time>2020-01-15T11:06:33.000Z</time>
      </trkpt>
      <trkpt lat="45.65197" lon="6.68539">
        <ele>2693.3999023438</ele>
        <time>2020-01-15T11:06:35.000Z</time>
      </trkpt>
      <trkpt lat="45.652" lon="6.68539">
        <ele>2694</ele>
        <time>2020-01-15T11:06:40.000Z</time>
      </trkpt>
      <trkpt lat="45.65201" lon="6.68539">
        <ele>2694.6000976562</ele>
        <time>2020-01-15T11:06:43.000Z</time>
      </trkpt>
      <trkpt lat="45.65201" lon="6.68539">
        <ele>2695.1999511719</ele>
        <time>2020-01-15T11:06:46.000Z</time>
      </trkpt>
      <trkpt lat="45.65202" lon="6.6854">
        <ele>2695.8000488281</ele>
        <time>2020-01-15T11:06:48.000Z</time>
      </trkpt>
      <trkpt lat="45.65203" lon="6.6854">
        <ele>2696.1999511719</ele>
        <time>2020-01-15T11:06:51.000Z</time>
      </trkpt>
      <trkpt lat="45.65207" lon="6.68539">
        <ele>2696.8000488281</ele>
        <time>2020-01-15T11:06:58.000Z</time>
      </trkpt>
      <trkpt lat="45.65207" lon="6.68539">
        <ele>2697</ele>
        <time>2020-01-15T11:06:59.000Z</time>
      </trkpt>
      <trkpt lat="45.65209" lon="6.68538">
        <ele>2697.3999023438</ele>
        <time>2020-01-15T11:07:07.000Z</time>
      </trkpt>
      <trkpt lat="45.65212" lon="6.68538">
        <ele>2697.6000976562</ele>
        <time>2020-01-15T11:07:14.000Z</time>
      </trkpt>
      <trkpt lat="45.65213" lon="6.68538">
        <ele>2698.1999511719</ele>
        <time>2020-01-15T11:07:16.000Z</time>
      </trkpt>
      <trkpt lat="45.65214" lon="6.68538">
        <ele>2698.8000488281</ele>
        <time>2020-01-15T11:07:21.000Z</time>
      </trkpt>
      <trkpt lat="45.65218" lon="6.68539">
        <ele>2699.3999023438</ele>
        <time>2020-01-15T11:07:26.000Z</time>
      </trkpt>
      <trkpt lat="45.65218" lon="6.68538">
        <ele>2699.3999023438</ele>
        <time>2020-01-15T11:07:28.000Z</time>
      </trkpt>
      <trkpt lat="45.65221" lon="6.68538">
        <ele>2700.3999023438</ele>
        <time>2020-01-15T11:07:34.000Z</time>
      </trkpt>
      <trkpt lat="45.65222" lon="6.68538">
        <ele>2700.6000976562</ele>
        <time>2020-01-15T11:07:35.000Z</time>
      </trkpt>
      <trkpt lat="45.65223" lon="6.68538">
        <ele>2701</ele>
        <time>2020-01-15T11:07:38.000Z</time>
      </trkpt>
      <trkpt lat="45.65223" lon="6.68538">
        <ele>2701.3999023438</ele>
        <time>2020-01-15T11:07:40.000Z</time>
      </trkpt>
      <trkpt lat="45.65224" lon="6.68537">
        <ele>2701.6000976562</ele>
        <time>2020-01-15T11:07:42.000Z</time>
      </trkpt>
      <trkpt lat="45.65224" lon="6.68537">
        <ele>2701.8000488281</ele>
        <time>2020-01-15T11:07:50.000Z</time>
      </trkpt>
      <trkpt lat="45.65225" lon="6.68537">
        <ele>2702.6000976562</ele>
        <time>2020-01-15T11:07:54.000Z</time>
      </trkpt>
      <trkpt lat="45.65227" lon="6.68537">
        <ele>2702.3999023438</ele>
        <time>2020-01-15T11:07:56.000Z</time>
      </trkpt>
      <trkpt lat="45.65229" lon="6.68535">
        <ele>2702.8000488281</ele>
        <time>2020-01-15T11:08:02.000Z</time>
      </trkpt>
      <trkpt lat="45.65231" lon="6.68534">
        <ele>2703.6000976562</ele>
        <time>2020-01-15T11:08:07.000Z</time>
      </trkpt>
      <trkpt lat="45.65232" lon="6.68534">
        <ele>2704</ele>
        <time>2020-01-15T11:08:10.000Z</time>
      </trkpt>
      <trkpt lat="45.65234" lon="6.68532">
        <ele>2704.6000976562</ele>
        <time>2020-01-15T11:08:15.000Z</time>
      </trkpt>
      <trkpt lat="45.65234" lon="6.68532">
        <ele>2704.8000488281</ele>
        <time>2020-01-15T11:08:16.000Z</time>
      </trkpt>
      <trkpt lat="45.65236" lon="6.68531">
        <ele>2705.1999511719</ele>
        <time>2020-01-15T11:08:23.000Z</time>
      </trkpt>
      <trkpt lat="45.65238" lon="6.68531">
        <ele>2705.8000488281</ele>
        <time>2020-01-15T11:08:28.000Z</time>
      </trkpt>
      <trkpt lat="45.6524" lon="6.68531">
        <ele>2706</ele>
        <time>2020-01-15T11:08:31.000Z</time>
      </trkpt>
      <trkpt lat="45.65242" lon="6.6853">
        <ele>2706.3999023438</ele>
        <time>2020-01-15T11:08:34.000Z</time>
      </trkpt>
      <trkpt lat="45.65244" lon="6.6853">
        <ele>2706.8000488281</ele>
        <time>2020-01-15T11:08:44.000Z</time>
      </trkpt>
      <trkpt lat="45.65246" lon="6.6853">
        <ele>2707</ele>
        <time>2020-01-15T11:08:45.000Z</time>
      </trkpt>
      <trkpt lat="45.65249" lon="6.6853">
        <ele>2707.8000488281</ele>
        <time>2020-01-15T11:08:50.000Z</time>
      </trkpt>
      <trkpt lat="45.6525" lon="6.68529">
        <ele>2708</ele>
        <time>2020-01-15T11:08:52.000Z</time>
      </trkpt>
      <trkpt lat="45.65252" lon="6.68528">
        <ele>2708.3999023438</ele>
        <time>2020-01-15T11:08:56.000Z</time>
      </trkpt>
      <trkpt lat="45.65252" lon="6.68528">
        <ele>2709</ele>
        <time>2020-01-15T11:09:02.000Z</time>
      </trkpt>
      <trkpt lat="45.65252" lon="6.68528">
        <ele>2709.1999511719</ele>
        <time>2020-01-15T11:09:08.000Z</time>
      </trkpt>
      <trkpt lat="45.65252" lon="6.68528">
        <ele>2709.1999511719</ele>
        <time>2020-01-15T11:09:30.000Z</time>
      </trkpt>
      <trkpt lat="45.65252" lon="6.68528">
        <ele>2709.1999511719</ele>
        <time>2020-01-15T11:09:46.000Z</time>
      </trkpt>
      <trkpt lat="45.65252" lon="6.68528">
        <ele>2709.1999511719</ele>
        <time>2020-01-15T11:10:05.000Z</time>
      </trkpt>
      <trkpt lat="45.65252" lon="6.68527">
        <ele>2709</ele>
        <time>2020-01-15T11:10:19.000Z</time>
      </trkpt>
      <trkpt lat="45.65252" lon="6.68527">
        <ele>2709.3999023438</ele>
        <time>2020-01-15T11:10:30.000Z</time>
      </trkpt>
      <trkpt lat="45.65252" lon="6.68527">
        <ele>2709.1999511719</ele>
        <time>2020-01-15T11:10:46.000Z</time>
      </trkpt>
      <trkpt lat="45.65252" lon="6.68527">
        <ele>2708</ele>
        <time>2020-01-15T11:10:49.000Z</time>
      </trkpt>
      <trkpt lat="45.65252" lon="6.68527">
        <ele>2709.6000976562</ele>
        <time>2020-01-15T11:10:54.000Z</time>
      </trkpt>
      <trkpt lat="45.65252" lon="6.68527">
        <ele>2709.3999023438</ele>
        <time>2020-01-15T11:11:00.000Z</time>
      </trkpt>
      <trkpt lat="45.65252" lon="6.68527">
        <ele>2708.8000488281</ele>
        <time>2020-01-15T11:11:12.000Z</time>
      </trkpt>
      <trkpt lat="45.65252" lon="6.68527">
        <ele>2709</ele>
        <time>2020-01-15T11:11:27.000Z</time>
      </trkpt>
      <trkpt lat="45.65252" lon="6.68527">
        <ele>2709</ele>
        <time>2020-01-15T11:11:38.000Z</time>
      </trkpt>
      <trkpt lat="45.65253" lon="6.68528">
        <ele>2709.6000976562</ele>
        <time>2020-01-15T11:11:45.000Z</time>
      </trkpt>
      <trkpt lat="45.65253" lon="6.68528">
        <ele>2709.3999023438</ele>
        <time>2020-01-15T11:11:59.000Z</time>
      </trkpt>
      <trkpt lat="45.65253" lon="6.68528">
        <ele>2709.1999511719</ele>
        <time>2020-01-15T11:12:14.000Z</time>
      </trkpt>
      <trkpt lat="45.65253" lon="6.68528">
        <ele>2709.3999023438</ele>
        <time>2020-01-15T11:12:29.000Z</time>
      </trkpt>
      <trkpt lat="45.65253" lon="6.68528">
        <ele>2709</ele>
        <time>2020-01-15T11:12:41.000Z</time>
      </trkpt>
      <trkpt lat="45.65253" lon="6.68528">
        <ele>2708.6000976562</ele>
        <time>2020-01-15T11:12:46.000Z</time>
      </trkpt>
      <trkpt lat="45.65253" lon="6.68528">
        <ele>2709</ele>
        <time>2020-01-15T11:12:52.000Z</time>
      </trkpt>
      <trkpt lat="45.65253" lon="6.68528">
        <ele>2709.8000488281</ele>
        <time>2020-01-15T11:12:59.000Z</time>
      </trkpt>
      <trkpt lat="45.65253" lon="6.68528">
        <ele>2710</ele>
        <time>2020-01-15T11:13:04.000Z</time>
      </trkpt>
      <trkpt lat="45.65253" lon="6.68528">
        <ele>2709.8000488281</ele>
        <time>2020-01-15T11:13:14.000Z</time>
      </trkpt>
      <trkpt lat="45.65253" lon="6.68528">
        <ele>2709</ele>
        <time>2020-01-15T11:13:30.000Z</time>
      </trkpt>
      <trkpt lat="45.65253" lon="6.68528">
        <ele>2709</ele>
        <time>2020-01-15T11:13:45.000Z</time>
      </trkpt>
      <trkpt lat="45.65253" lon="6.68528">
        <ele>2709.3999023438</ele>
        <time>2020-01-15T11:14:02.000Z</time>
      </trkpt>
      <trkpt lat="45.65253" lon="6.68528">
        <ele>2709.1999511719</ele>
        <time>2020-01-15T11:14:18.000Z</time>
      </trkpt>
      <trkpt lat="45.65253" lon="6.68528">
        <ele>2708.8000488281</ele>
        <time>2020-01-15T11:14:20.000Z</time>
      </trkpt>
      <trkpt lat="45.65253" lon="6.68528">
        <ele>2709</ele>
        <time>2020-01-15T11:14:27.000Z</time>
      </trkpt>
      <trkpt lat="45.65253" lon="6.68527">
        <ele>2709.1999511719</ele>
        <time>2020-01-15T11:14:39.000Z</time>
      </trkpt>
      <trkpt lat="45.65253" lon="6.68527">
        <ele>2709.1999511719</ele>
        <time>2020-01-15T11:14:51.000Z</time>
      </trkpt>
      <trkpt lat="45.65253" lon="6.68527">
        <ele>2709</ele>
        <time>2020-01-15T11:15:03.000Z</time>
      </trkpt>
      <trkpt lat="45.65253" lon="6.68527">
        <ele>2708.8000488281</ele>
        <time>2020-01-15T11:15:18.000Z</time>
      </trkpt>
      <trkpt lat="45.65253" lon="6.68527">
        <ele>2709.1999511719</ele>
        <time>2020-01-15T11:15:28.000Z</time>
      </trkpt>
      <trkpt lat="45.65253" lon="6.68527">
        <ele>2709.6000976562</ele>
        <time>2020-01-15T11:15:42.000Z</time>
      </trkpt>
      <trkpt lat="45.65253" lon="6.68527">
        <ele>2709.3999023438</ele>
        <time>2020-01-15T11:15:55.000Z</time>
      </trkpt>
      <trkpt lat="45.65253" lon="6.68527">
        <ele>2709.1999511719</ele>
        <time>2020-01-15T11:16:10.000Z</time>
      </trkpt>
      <trkpt lat="45.65253" lon="6.68527">
        <ele>2709.6000976562</ele>
        <time>2020-01-15T11:16:22.000Z</time>
      </trkpt>
      <trkpt lat="45.65253" lon="6.68528">
        <ele>2709.8000488281</ele>
        <time>2020-01-15T11:16:25.000Z</time>
      </trkpt>
      <trkpt lat="45.65254" lon="6.68528">
        <ele>2710.1999511719</ele>
        <time>2020-01-15T11:16:29.000Z</time>
      </trkpt>
      <trkpt lat="45.65255" lon="6.6853">
        <ele>2710.8000488281</ele>
        <time>2020-01-15T11:16:33.000Z</time>
      </trkpt>
      <trkpt lat="45.65256" lon="6.68531">
        <ele>2711</ele>
        <time>2020-01-15T11:16:34.000Z</time>
      </trkpt>
      <trkpt lat="45.65257" lon="6.68532">
        <ele>2711.8000488281</ele>
        <time>2020-01-15T11:16:39.000Z</time>
      </trkpt>
      <trkpt lat="45.65257" lon="6.68532">
        <ele>2712</ele>
        <time>2020-01-15T11:16:40.000Z</time>
      </trkpt>
      <trkpt lat="45.65259" lon="6.68533">
        <ele>2713</ele>
        <time>2020-01-15T11:16:44.000Z</time>
      </trkpt>
      <trkpt lat="45.65259" lon="6.68533">
        <ele>2713.1999511719</ele>
        <time>2020-01-15T11:16:45.000Z</time>
      </trkpt>
      <trkpt lat="45.6526" lon="6.68534">
        <ele>2714.1999511719</ele>
        <time>2020-01-15T11:16:50.000Z</time>
      </trkpt>
      <trkpt lat="45.6526" lon="6.68534">
        <ele>2715.1999511719</ele>
        <time>2020-01-15T11:16:57.000Z</time>
      </trkpt>
      <trkpt lat="45.6526" lon="6.68534">
        <ele>2715.3999023438</ele>
        <time>2020-01-15T11:16:59.000Z</time>
      </trkpt>
      <trkpt lat="45.6526" lon="6.68534">
        <ele>2716.3999023438</ele>
        <time>2020-01-15T11:17:07.000Z</time>
      </trkpt>
      <trkpt lat="45.6526" lon="6.68534">
        <ele>2716.6000976562</ele>
        <time>2020-01-15T11:17:14.000Z</time>
      </trkpt>
      <trkpt lat="45.65261" lon="6.68535">
        <ele>2717.1999511719</ele>
        <time>2020-01-15T11:17:20.000Z</time>
      </trkpt>
      <trkpt lat="45.65261" lon="6.68534">
        <ele>2717.6000976562</ele>
        <time>2020-01-15T11:17:26.000Z</time>
      </trkpt>
      <trkpt lat="45.65261" lon="6.68534">
        <ele>2718</ele>
        <time>2020-01-15T11:17:28.000Z</time>
      </trkpt>
      <trkpt lat="45.65263" lon="6.68533">
        <ele>2718.6000976562</ele>
        <time>2020-01-15T11:17:34.000Z</time>
      </trkpt>
      <trkpt lat="45.65263" lon="6.68533">
        <ele>2718.8000488281</ele>
        <time>2020-01-15T11:17:35.000Z</time>
      </trkpt>
      <trkpt lat="45.65264" lon="6.68533">
        <ele>2719.8000488281</ele>
        <time>2020-01-15T11:17:42.000Z</time>
      </trkpt>
      <trkpt lat="45.65264" lon="6.68533">
        <ele>2720</ele>
        <time>2020-01-15T11:17:43.000Z</time>
      </trkpt>
      <trkpt lat="45.65264" lon="6.68533">
        <ele>2720.8000488281</ele>
        <time>2020-01-15T11:17:49.000Z</time>
      </trkpt>
      <trkpt lat="45.65264" lon="6.68533">
        <ele>2721.6000976562</ele>
        <time>2020-01-15T11:17:54.000Z</time>
      </trkpt>
      <trkpt lat="45.65264" lon="6.68534">
        <ele>2722</ele>
        <time>2020-01-15T11:17:59.000Z</time>
      </trkpt>
      <trkpt lat="45.65265" lon="6.68534">
        <ele>2722.1999511719</ele>
        <time>2020-01-15T11:18:02.000Z</time>
      </trkpt>
      <trkpt lat="45.65267" lon="6.68535">
        <ele>2723.1999511719</ele>
        <time>2020-01-15T11:18:09.000Z</time>
      </trkpt>
      <trkpt lat="45.65268" lon="6.68535">
        <ele>2724</ele>
        <time>2020-01-15T11:18:12.000Z</time>
      </trkpt>
      <trkpt lat="45.6527" lon="6.68536">
        <ele>2724.1999511719</ele>
        <time>2020-01-15T11:18:16.000Z</time>
      </trkpt>
      <trkpt lat="45.65271" lon="6.68536">
        <ele>2724.8000488281</ele>
        <time>2020-01-15T11:18:20.000Z</time>
      </trkpt>
      <trkpt lat="45.65271" lon="6.68536">
        <ele>2725.3999023438</ele>
        <time>2020-01-15T11:18:22.000Z</time>
      </trkpt>
      <trkpt lat="45.65274" lon="6.68537">
        <ele>2726.3999023438</ele>
        <time>2020-01-15T11:18:26.000Z</time>
      </trkpt>
      <trkpt lat="45.65277" lon="6.68538">
        <ele>2727.1999511719</ele>
        <time>2020-01-15T11:18:33.000Z</time>
      </trkpt>
      <trkpt lat="45.65278" lon="6.68538">
        <ele>2727.3999023438</ele>
        <time>2020-01-15T11:18:35.000Z</time>
      </trkpt>
      <trkpt lat="45.6528" lon="6.68538">
        <ele>2728</ele>
        <time>2020-01-15T11:18:39.000Z</time>
      </trkpt>
      <trkpt lat="45.65281" lon="6.68538">
        <ele>2728.3999023438</ele>
        <time>2020-01-15T11:18:45.000Z</time>
      </trkpt>
      <trkpt lat="45.65281" lon="6.68538">
        <ele>2728.8000488281</ele>
        <time>2020-01-15T11:18:47.000Z</time>
      </trkpt>
      <trkpt lat="45.65285" lon="6.68538">
        <ele>2729.3999023438</ele>
        <time>2020-01-15T11:18:54.000Z</time>
      </trkpt>
      <trkpt lat="45.65285" lon="6.68538">
        <ele>2729.6000976562</ele>
        <time>2020-01-15T11:18:56.000Z</time>
      </trkpt>
      <trkpt lat="45.65287" lon="6.68537">
        <ele>2729.8000488281</ele>
        <time>2020-01-15T11:19:00.000Z</time>
      </trkpt>
      <trkpt lat="45.6529" lon="6.68537">
        <ele>2730.6000976562</ele>
        <time>2020-01-15T11:19:05.000Z</time>
      </trkpt>
      <trkpt lat="45.65291" lon="6.68538">
        <ele>2731.6000976562</ele>
        <time>2020-01-15T11:19:11.000Z</time>
      </trkpt>
      <trkpt lat="45.65291" lon="6.68538">
        <ele>2731.8000488281</ele>
        <time>2020-01-15T11:19:12.000Z</time>
      </trkpt>
      <trkpt lat="45.65292" lon="6.68538">
        <ele>2732.6000976562</ele>
        <time>2020-01-15T11:19:16.000Z</time>
      </trkpt>
      <trkpt lat="45.65292" lon="6.68538">
        <ele>2732.8000488281</ele>
        <time>2020-01-15T11:19:19.000Z</time>
      </trkpt>
      <trkpt lat="45.65292" lon="6.68538">
        <ele>2733.8000488281</ele>
        <time>2020-01-15T11:19:29.000Z</time>
      </trkpt>
      <trkpt lat="45.65293" lon="6.68539">
        <ele>2733.8000488281</ele>
        <time>2020-01-15T11:19:30.000Z</time>
      </trkpt>
      <trkpt lat="45.65293" lon="6.68539">
        <ele>2734.3999023438</ele>
        <time>2020-01-15T11:19:35.000Z</time>
      </trkpt>
      <trkpt lat="45.65295" lon="6.6854">
        <ele>2734.8000488281</ele>
        <time>2020-01-15T11:19:39.000Z</time>
      </trkpt>
      <trkpt lat="45.65295" lon="6.6854">
        <ele>2735.1999511719</ele>
        <time>2020-01-15T11:19:41.000Z</time>
      </trkpt>
      <trkpt lat="45.65296" lon="6.68541">
        <ele>2736</ele>
        <time>2020-01-15T11:19:45.000Z</time>
      </trkpt>
      <trkpt lat="45.65297" lon="6.68541">
        <ele>2736.1999511719</ele>
        <time>2020-01-15T11:19:46.000Z</time>
      </trkpt>
      <trkpt lat="45.65297" lon="6.68542">
        <ele>2737</ele>
        <time>2020-01-15T11:19:53.000Z</time>
      </trkpt>
      <trkpt lat="45.65297" lon="6.68542">
        <ele>2737.1999511719</ele>
        <time>2020-01-15T11:19:54.000Z</time>
      </trkpt>
      <trkpt lat="45.65298" lon="6.68542">
        <ele>2738</ele>
        <time>2020-01-15T11:20:00.000Z</time>
      </trkpt>
      <trkpt lat="45.65298" lon="6.68542">
        <ele>2738.1999511719</ele>
        <time>2020-01-15T11:20:01.000Z</time>
      </trkpt>
      <trkpt lat="45.65299" lon="6.68543">
        <ele>2739</ele>
        <time>2020-01-15T11:20:05.000Z</time>
      </trkpt>
      <trkpt lat="45.65299" lon="6.68544">
        <ele>2739.1999511719</ele>
        <time>2020-01-15T11:20:07.000Z</time>
      </trkpt>
      <trkpt lat="45.65299" lon="6.68544">
        <ele>2740.1999511719</ele>
        <time>2020-01-15T11:20:14.000Z</time>
      </trkpt>
      <trkpt lat="45.653" lon="6.68545">
        <ele>2740.3999023438</ele>
        <time>2020-01-15T11:20:15.000Z</time>
      </trkpt>
      <trkpt lat="45.65301" lon="6.68546">
        <ele>2740.8000488281</ele>
        <time>2020-01-15T11:20:19.000Z</time>
      </trkpt>
      <trkpt lat="45.65301" lon="6.68546">
        <ele>2741.1999511719</ele>
        <time>2020-01-15T11:20:22.000Z</time>
      </trkpt>
      <trkpt lat="45.65301" lon="6.68546">
        <ele>2742.1999511719</ele>
        <time>2020-01-15T11:20:27.000Z</time>
      </trkpt>
      <trkpt lat="45.65301" lon="6.68546">
        <ele>2742.1999511719</ele>
        <time>2020-01-15T11:20:32.000Z</time>
      </trkpt>
      <trkpt lat="45.65301" lon="6.68546">
        <ele>2742.6000976562</ele>
        <time>2020-01-15T11:20:38.000Z</time>
      </trkpt>
      <trkpt lat="45.65301" lon="6.68546">
        <ele>2743.3999023438</ele>
        <time>2020-01-15T11:20:42.000Z</time>
      </trkpt>
      <trkpt lat="45.65301" lon="6.68546">
        <ele>2744.1999511719</ele>
        <time>2020-01-15T11:20:50.000Z</time>
      </trkpt>
      <trkpt lat="45.65301" lon="6.68546">
        <ele>2744.6000976562</ele>
        <time>2020-01-15T11:20:55.000Z</time>
      </trkpt>
      <trkpt lat="45.65301" lon="6.68546">
        <ele>2745.1999511719</ele>
        <time>2020-01-15T11:20:58.000Z</time>
      </trkpt>
      <trkpt lat="45.65302" lon="6.68547">
        <ele>2745.6000976562</ele>
        <time>2020-01-15T11:21:04.000Z</time>
      </trkpt>
      <trkpt lat="45.65303" lon="6.68548">
        <ele>2746</ele>
        <time>2020-01-15T11:21:06.000Z</time>
      </trkpt>
      <trkpt lat="45.65304" lon="6.6855">
        <ele>2746.8000488281</ele>
        <time>2020-01-15T11:21:10.000Z</time>
      </trkpt>
      <trkpt lat="45.65304" lon="6.68551">
        <ele>2747</ele>
        <time>2020-01-15T11:21:11.000Z</time>
      </trkpt>
      <trkpt lat="45.65305" lon="6.68551">
        <ele>2747.8000488281</ele>
        <time>2020-01-15T11:21:17.000Z</time>
      </trkpt>
      <trkpt lat="45.65305" lon="6.68551">
        <ele>2748.1999511719</ele>
        <time>2020-01-15T11:21:20.000Z</time>
      </trkpt>
      <trkpt lat="45.65305" lon="6.68552">
        <ele>2749</ele>
        <time>2020-01-15T11:21:24.000Z</time>
      </trkpt>
      <trkpt lat="45.65305" lon="6.68552">
        <ele>2750.1999511719</ele>
        <time>2020-01-15T11:21:29.000Z</time>
      </trkpt>
      <trkpt lat="45.65308" lon="6.68554">
        <ele>2751.1999511719</ele>
        <time>2020-01-15T11:21:34.000Z</time>
      </trkpt>
      <trkpt lat="45.65308" lon="6.68554">
        <ele>2751.1999511719</ele>
        <time>2020-01-15T11:21:35.000Z</time>
      </trkpt>
      <trkpt lat="45.65308" lon="6.68554">
        <ele>2752</ele>
        <time>2020-01-15T11:21:52.000Z</time>
      </trkpt>
      <trkpt lat="45.65308" lon="6.68554">
        <ele>2752</ele>
        <time>2020-01-15T11:22:03.000Z</time>
      </trkpt>
      <trkpt lat="45.65308" lon="6.68553">
        <ele>2752.1999511719</ele>
        <time>2020-01-15T11:22:20.000Z</time>
      </trkpt>
      <trkpt lat="45.65308" lon="6.68554">
        <ele>2752.1999511719</ele>
        <time>2020-01-15T11:22:23.000Z</time>
      </trkpt>
      <trkpt lat="45.65309" lon="6.68554">
        <ele>2752.8000488281</ele>
        <time>2020-01-15T11:22:27.000Z</time>
      </trkpt>
      <trkpt lat="45.65309" lon="6.68555">
        <ele>2753.1999511719</ele>
        <time>2020-01-15T11:22:31.000Z</time>
      </trkpt>
      <trkpt lat="45.6531" lon="6.68555">
        <ele>2753.3999023438</ele>
        <time>2020-01-15T11:22:33.000Z</time>
      </trkpt>
      <trkpt lat="45.65312" lon="6.68556">
        <ele>2754.1999511719</ele>
        <time>2020-01-15T11:22:37.000Z</time>
      </trkpt>
      <trkpt lat="45.65312" lon="6.68556">
        <ele>2754.3999023438</ele>
        <time>2020-01-15T11:22:39.000Z</time>
      </trkpt>
      <trkpt lat="45.65313" lon="6.68557">
        <ele>2755.3999023438</ele>
        <time>2020-01-15T11:22:44.000Z</time>
      </trkpt>
      <trkpt lat="45.65313" lon="6.68557">
        <ele>2755.8000488281</ele>
        <time>2020-01-15T11:22:45.000Z</time>
      </trkpt>
      <trkpt lat="45.65313" lon="6.68557">
        <ele>2756.6000976562</ele>
        <time>2020-01-15T11:22:47.000Z</time>
      </trkpt>
      <trkpt lat="45.65313" lon="6.68558">
        <ele>2757.8000488281</ele>
        <time>2020-01-15T11:22:55.000Z</time>
      </trkpt>
      <trkpt lat="45.65314" lon="6.68558">
        <ele>2758.8000488281</ele>
        <time>2020-01-15T11:23:01.000Z</time>
      </trkpt>
      <trkpt lat="45.65314" lon="6.68558">
        <ele>2758.8000488281</ele>
        <time>2020-01-15T11:23:02.000Z</time>
      </trkpt>
      <trkpt lat="45.65314" lon="6.68559">
        <ele>2759.8000488281</ele>
        <time>2020-01-15T11:23:10.000Z</time>
      </trkpt>
      <trkpt lat="45.65315" lon="6.6856">
        <ele>2760.8000488281</ele>
        <time>2020-01-15T11:23:15.000Z</time>
      </trkpt>
      <trkpt lat="45.65315" lon="6.6856">
        <ele>2761</ele>
        <time>2020-01-15T11:23:17.000Z</time>
      </trkpt>
      <trkpt lat="45.65315" lon="6.6856">
        <ele>2762</ele>
        <time>2020-01-15T11:23:23.000Z</time>
      </trkpt>
      <trkpt lat="45.65317" lon="6.68561">
        <ele>2762.3999023438</ele>
        <time>2020-01-15T11:23:25.000Z</time>
      </trkpt>
      <trkpt lat="45.65319" lon="6.68563">
        <ele>2763</ele>
        <time>2020-01-15T11:23:30.000Z</time>
      </trkpt>
      <trkpt lat="45.6532" lon="6.68564">
        <ele>2763.1999511719</ele>
        <time>2020-01-15T11:23:32.000Z</time>
      </trkpt>
      <trkpt lat="45.6532" lon="6.68564">
        <ele>2764.1999511719</ele>
        <time>2020-01-15T11:23:37.000Z</time>
      </trkpt>
      <trkpt lat="45.6532" lon="6.68564">
        <ele>2765</ele>
        <time>2020-01-15T11:23:43.000Z</time>
      </trkpt>
      <trkpt lat="45.6532" lon="6.68564">
        <ele>2765.1999511719</ele>
        <time>2020-01-15T11:23:48.000Z</time>
      </trkpt>
      <trkpt lat="45.6532" lon="6.68564">
        <ele>2766.1999511719</ele>
        <time>2020-01-15T11:23:55.000Z</time>
      </trkpt>
      <trkpt lat="45.6532" lon="6.68564">
        <ele>2767</ele>
        <time>2020-01-15T11:24:03.000Z</time>
      </trkpt>
      <trkpt lat="45.6532" lon="6.68564">
        <ele>2767.1999511719</ele>
        <time>2020-01-15T11:24:05.000Z</time>
      </trkpt>
      <trkpt lat="45.65321" lon="6.68564">
        <ele>2768.3999023438</ele>
        <time>2020-01-15T11:24:12.000Z</time>
      </trkpt>
      <trkpt lat="45.65321" lon="6.68564">
        <ele>2768.3999023438</ele>
        <time>2020-01-15T11:24:13.000Z</time>
      </trkpt>
      <trkpt lat="45.65321" lon="6.68564">
        <ele>2769.3999023438</ele>
        <time>2020-01-15T11:24:20.000Z</time>
      </trkpt>
      <trkpt lat="45.65321" lon="6.68564">
        <ele>2769.6000976562</ele>
        <time>2020-01-15T11:24:23.000Z</time>
      </trkpt>
      <trkpt lat="45.65321" lon="6.68564">
        <ele>2770.3999023438</ele>
        <time>2020-01-15T11:24:30.000Z</time>
      </trkpt>
      <trkpt lat="45.65321" lon="6.68564">
        <ele>2770.3999023438</ele>
        <time>2020-01-15T11:24:31.000Z</time>
      </trkpt>
      <trkpt lat="45.65321" lon="6.68564">
        <ele>2771.3999023438</ele>
        <time>2020-01-15T11:24:38.000Z</time>
      </trkpt>
      <trkpt lat="45.65321" lon="6.68564">
        <ele>2771.6000976562</ele>
        <time>2020-01-15T11:24:40.000Z</time>
      </trkpt>
      <trkpt lat="45.65321" lon="6.68564">
        <ele>2772.3999023438</ele>
        <time>2020-01-15T11:24:45.000Z</time>
      </trkpt>
      <trkpt lat="45.65321" lon="6.68564">
        <ele>2772.8000488281</ele>
        <time>2020-01-15T11:24:49.000Z</time>
      </trkpt>
      <trkpt lat="45.65321" lon="6.68565">
        <ele>2773.6000976562</ele>
        <time>2020-01-15T11:24:53.000Z</time>
      </trkpt>
      <trkpt lat="45.65321" lon="6.68565">
        <ele>2773.8000488281</ele>
        <time>2020-01-15T11:24:58.000Z</time>
      </trkpt>
      <trkpt lat="45.65321" lon="6.68565">
        <ele>2774</ele>
        <time>2020-01-15T11:24:59.000Z</time>
      </trkpt>
      <trkpt lat="45.65321" lon="6.68565">
        <ele>2775</ele>
        <time>2020-01-15T11:25:05.000Z</time>
      </trkpt>
      <trkpt lat="45.65321" lon="6.68565">
        <ele>2775.1999511719</ele>
        <time>2020-01-15T11:25:06.000Z</time>
      </trkpt>
      <trkpt lat="45.65321" lon="6.68565">
        <ele>2775.3999023438</ele>
        <time>2020-01-15T11:25:12.000Z</time>
      </trkpt>
      <trkpt lat="45.65321" lon="6.68565">
        <ele>2776</ele>
        <time>2020-01-15T11:25:20.000Z</time>
      </trkpt>
      <trkpt lat="45.65321" lon="6.68565">
        <ele>2777.1999511719</ele>
        <time>2020-01-15T11:25:25.000Z</time>
      </trkpt>
      <trkpt lat="45.65321" lon="6.68565">
        <ele>2777.6000976562</ele>
        <time>2020-01-15T11:25:29.000Z</time>
      </trkpt>
      <trkpt lat="45.65322" lon="6.68567">
        <ele>2778.1999511719</ele>
        <time>2020-01-15T11:25:32.000Z</time>
      </trkpt>
      <trkpt lat="45.65322" lon="6.68567">
        <ele>2778.6000976562</ele>
        <time>2020-01-15T11:25:36.000Z</time>
      </trkpt>
      <trkpt lat="45.65322" lon="6.68567">
        <ele>2779.1999511719</ele>
        <time>2020-01-15T11:25:42.000Z</time>
      </trkpt>
      <trkpt lat="45.65323" lon="6.68569">
        <ele>2779.3999023438</ele>
        <time>2020-01-15T11:25:44.000Z</time>
      </trkpt>
      <trkpt lat="45.65323" lon="6.68569">
        <ele>2780.1999511719</ele>
        <time>2020-01-15T11:25:53.000Z</time>
      </trkpt>
      <trkpt lat="45.65323" lon="6.68569">
        <ele>2780.8000488281</ele>
        <time>2020-01-15T11:25:58.000Z</time>
      </trkpt>
      <trkpt lat="45.65327" lon="6.68576">
        <ele>2781.1999511719</ele>
        <time>2020-01-15T11:26:05.000Z</time>
      </trkpt>
      <trkpt lat="45.65328" lon="6.68578">
        <ele>2781.3999023438</ele>
        <time>2020-01-15T11:26:06.000Z</time>
      </trkpt>
      <trkpt lat="45.6533" lon="6.68582">
        <ele>2781.8000488281</ele>
        <time>2020-01-15T11:26:11.000Z</time>
      </trkpt>
      <trkpt lat="45.6533" lon="6.68582">
        <ele>2782.3999023438</ele>
        <time>2020-01-15T11:26:16.000Z</time>
      </trkpt>
      <trkpt lat="45.6533" lon="6.68582">
        <ele>2782.6000976562</ele>
        <time>2020-01-15T11:26:18.000Z</time>
      </trkpt>
      <trkpt lat="45.6533" lon="6.68582">
        <ele>2782.8000488281</ele>
        <time>2020-01-15T11:26:25.000Z</time>
      </trkpt>
      <trkpt lat="45.65331" lon="6.68583">
        <ele>2783.6000976562</ele>
        <time>2020-01-15T11:26:31.000Z</time>
      </trkpt>
      <trkpt lat="45.65331" lon="6.68583">
        <ele>2784</ele>
        <time>2020-01-15T11:26:32.000Z</time>
      </trkpt>
      <trkpt lat="45.65333" lon="6.68585">
        <ele>2784.1999511719</ele>
        <time>2020-01-15T11:26:41.000Z</time>
      </trkpt>
      <trkpt lat="45.65334" lon="6.68587">
        <ele>2784.8000488281</ele>
        <time>2020-01-15T11:26:47.000Z</time>
      </trkpt>
      <trkpt lat="45.65334" lon="6.68587">
        <ele>2785</ele>
        <time>2020-01-15T11:26:48.000Z</time>
      </trkpt>
      <trkpt lat="45.65336" lon="6.68593">
        <ele>2785.6000976562</ele>
        <time>2020-01-15T11:26:53.000Z</time>
      </trkpt>
      <trkpt lat="45.65336" lon="6.68593">
        <ele>2785.8000488281</ele>
        <time>2020-01-15T11:26:54.000Z</time>
      </trkpt>
      <trkpt lat="45.65336" lon="6.68595">
        <ele>2785.3999023438</ele>
        <time>2020-01-15T11:26:59.000Z</time>
      </trkpt>
      <trkpt lat="45.65336" lon="6.68595">
        <ele>2786.8000488281</ele>
        <time>2020-01-15T11:27:03.000Z</time>
      </trkpt>
      <trkpt lat="45.65336" lon="6.68595">
        <ele>2787.1999511719</ele>
        <time>2020-01-15T11:27:14.000Z</time>
      </trkpt>
      <trkpt lat="45.65336" lon="6.68595">
        <ele>2787.6000976562</ele>
        <time>2020-01-15T11:27:22.000Z</time>
      </trkpt>
      <trkpt lat="45.65336" lon="6.68596">
        <ele>2787.1999511719</ele>
        <time>2020-01-15T11:27:38.000Z</time>
      </trkpt>
      <trkpt lat="45.65336" lon="6.68596">
        <ele>2787.8000488281</ele>
        <time>2020-01-15T11:27:40.000Z</time>
      </trkpt>
      <trkpt lat="45.65336" lon="6.68596">
        <ele>2788.1999511719</ele>
        <time>2020-01-15T11:27:44.000Z</time>
      </trkpt>
      <trkpt lat="45.65336" lon="6.68596">
        <ele>2788.6000976562</ele>
        <time>2020-01-15T11:27:51.000Z</time>
      </trkpt>
      <trkpt lat="45.65336" lon="6.68596">
        <ele>2789</ele>
        <time>2020-01-15T11:27:53.000Z</time>
      </trkpt>
      <trkpt lat="45.65336" lon="6.68596">
        <ele>2790.1999511719</ele>
        <time>2020-01-15T11:27:57.000Z</time>
      </trkpt>
      <trkpt lat="45.65336" lon="6.68596">
        <ele>2791.6000976562</ele>
        <time>2020-01-15T11:28:01.000Z</time>
      </trkpt>
      <trkpt lat="45.65336" lon="6.68596">
        <ele>2792</ele>
        <time>2020-01-15T11:28:03.000Z</time>
      </trkpt>
      <trkpt lat="45.65336" lon="6.68596">
        <ele>2792.6000976562</ele>
        <time>2020-01-15T11:28:06.000Z</time>
      </trkpt>
      <trkpt lat="45.65336" lon="6.68596">
        <ele>2793.3999023438</ele>
        <time>2020-01-15T11:28:09.000Z</time>
      </trkpt>
      <trkpt lat="45.65336" lon="6.68596">
        <ele>2793.8000488281</ele>
        <time>2020-01-15T11:28:11.000Z</time>
      </trkpt>
      <trkpt lat="45.65336" lon="6.68597">
        <ele>2794.3999023438</ele>
        <time>2020-01-15T11:28:16.000Z</time>
      </trkpt>
      <trkpt lat="45.65336" lon="6.68597">
        <ele>2794.3999023438</ele>
        <time>2020-01-15T11:28:31.000Z</time>
      </trkpt>
      <trkpt lat="45.65336" lon="6.68597">
        <ele>2793.3999023438</ele>
        <time>2020-01-15T11:28:45.000Z</time>
      </trkpt>
      <trkpt lat="45.65336" lon="6.68597">
        <ele>2793.6000976562</ele>
        <time>2020-01-15T11:29:10.000Z</time>
      </trkpt>
      <trkpt lat="45.65336" lon="6.68597">
        <ele>2793.1999511719</ele>
        <time>2020-01-15T11:29:22.000Z</time>
      </trkpt>
      <trkpt lat="45.65336" lon="6.68597">
        <ele>2794.1999511719</ele>
        <time>2020-01-15T11:29:34.000Z</time>
      </trkpt>
      <trkpt lat="45.65337" lon="6.68598">
        <ele>2793.8000488281</ele>
        <time>2020-01-15T11:29:50.000Z</time>
      </trkpt>
      <trkpt lat="45.65337" lon="6.68598">
        <ele>2793.6000976562</ele>
        <time>2020-01-15T11:30:08.000Z</time>
      </trkpt>
      <trkpt lat="45.65336" lon="6.68599">
        <ele>2792.8000488281</ele>
        <time>2020-01-15T11:30:17.000Z</time>
      </trkpt>
      <trkpt lat="45.65336" lon="6.68599">
        <ele>2792.8000488281</ele>
        <time>2020-01-15T11:30:22.000Z</time>
      </trkpt>
      <trkpt lat="45.65336" lon="6.68599">
        <ele>2794</ele>
        <time>2020-01-15T11:30:26.000Z</time>
      </trkpt>
      <trkpt lat="45.65336" lon="6.68599">
        <ele>2794</ele>
        <time>2020-01-15T11:30:35.000Z</time>
      </trkpt>
      <trkpt lat="45.65336" lon="6.68599">
        <ele>2793.3999023438</ele>
        <time>2020-01-15T11:30:47.000Z</time>
      </trkpt>
      <trkpt lat="45.65336" lon="6.68601">
        <ele>2793.1999511719</ele>
        <time>2020-01-15T11:30:57.000Z</time>
      </trkpt>
      <trkpt lat="45.65336" lon="6.68601">
        <ele>2792.8000488281</ele>
        <time>2020-01-15T11:30:59.000Z</time>
      </trkpt>
      <trkpt lat="45.65336" lon="6.68601">
        <ele>2793.6000976562</ele>
        <time>2020-01-15T11:31:07.000Z</time>
      </trkpt>
      <trkpt lat="45.65336" lon="6.68601">
        <ele>2793.8000488281</ele>
        <time>2020-01-15T11:31:13.000Z</time>
      </trkpt>
      <trkpt lat="45.65336" lon="6.68601">
        <ele>2795</ele>
        <time>2020-01-15T11:31:14.000Z</time>
      </trkpt>
      <trkpt lat="45.65336" lon="6.68601">
        <ele>2795.1999511719</ele>
        <time>2020-01-15T11:31:15.000Z</time>
      </trkpt>
      <trkpt lat="45.65336" lon="6.68601">
        <ele>2793.1999511719</ele>
        <time>2020-01-15T11:31:18.000Z</time>
      </trkpt>
      <trkpt lat="45.65336" lon="6.68601">
        <ele>2792.3999023438</ele>
        <time>2020-01-15T11:31:27.000Z</time>
      </trkpt>
      <trkpt lat="45.65336" lon="6.68607">
        <ele>2794</ele>
        <time>2020-01-15T11:31:35.000Z</time>
      </trkpt>
      <trkpt lat="45.65339" lon="6.68613">
        <ele>2793</ele>
        <time>2020-01-15T11:31:45.000Z</time>
      </trkpt>
      <trkpt lat="45.65339" lon="6.68613">
        <ele>2793.1999511719</ele>
        <time>2020-01-15T11:32:01.000Z</time>
      </trkpt>
      <trkpt lat="45.65339" lon="6.68613">
        <ele>2792</ele>
        <time>2020-01-15T11:32:03.000Z</time>
      </trkpt>
      <trkpt lat="45.65339" lon="6.68613">
        <ele>2792.3999023438</ele>
        <time>2020-01-15T11:32:15.000Z</time>
      </trkpt>
      <trkpt lat="45.65339" lon="6.68613">
        <ele>2793.1999511719</ele>
        <time>2020-01-15T11:32:25.000Z</time>
      </trkpt>
      <trkpt lat="45.65339" lon="6.68613">
        <ele>2793.8000488281</ele>
        <time>2020-01-15T11:32:27.000Z</time>
      </trkpt>
      <trkpt lat="45.65339" lon="6.68613">
        <ele>2792.6000976562</ele>
        <time>2020-01-15T11:32:36.000Z</time>
      </trkpt>
      <trkpt lat="45.65339" lon="6.68613">
        <ele>2793.3999023438</ele>
        <time>2020-01-15T11:32:47.000Z</time>
      </trkpt>
      <trkpt lat="45.65339" lon="6.68613">
        <ele>2793.1999511719</ele>
        <time>2020-01-15T11:32:55.000Z</time>
      </trkpt>
      <trkpt lat="45.6534" lon="6.68614">
        <ele>2793.3999023438</ele>
        <time>2020-01-15T11:33:09.000Z</time>
      </trkpt>
      <trkpt lat="45.6534" lon="6.68614">
        <ele>2793.3999023438</ele>
        <time>2020-01-15T11:33:25.000Z</time>
      </trkpt>
      <trkpt lat="45.6534" lon="6.68614">
        <ele>2793.1999511719</ele>
        <time>2020-01-15T11:33:38.000Z</time>
      </trkpt>
      <trkpt lat="45.6534" lon="6.68614">
        <ele>2793.6000976562</ele>
        <time>2020-01-15T11:33:45.000Z</time>
      </trkpt>
      <trkpt lat="45.6534" lon="6.68614">
        <ele>2793.8000488281</ele>
        <time>2020-01-15T11:33:53.000Z</time>
      </trkpt>
      <trkpt lat="45.6534" lon="6.68614">
        <ele>2794</ele>
        <time>2020-01-15T11:34:02.000Z</time>
      </trkpt>
      <trkpt lat="45.6534" lon="6.68614">
        <ele>2794.1999511719</ele>
        <time>2020-01-15T11:34:04.000Z</time>
      </trkpt>
      <trkpt lat="45.6534" lon="6.68614">
        <ele>2795</ele>
        <time>2020-01-15T11:34:09.000Z</time>
      </trkpt>
      <trkpt lat="45.6534" lon="6.68614">
        <ele>2795.1999511719</ele>
        <time>2020-01-15T11:34:10.000Z</time>
      </trkpt>
      <trkpt lat="45.6534" lon="6.68614">
        <ele>2796.3999023438</ele>
        <time>2020-01-15T11:34:17.000Z</time>
      </trkpt>
      <trkpt lat="45.65341" lon="6.68615">
        <ele>2797.6000976562</ele>
        <time>2020-01-15T11:34:24.000Z</time>
      </trkpt>
      <trkpt lat="45.65341" lon="6.68615">
        <ele>2798</ele>
        <time>2020-01-15T11:34:25.000Z</time>
      </trkpt>
      <trkpt lat="45.65341" lon="6.68615">
        <ele>2798.6000976562</ele>
        <time>2020-01-15T11:34:27.000Z</time>
      </trkpt>
      <trkpt lat="45.65341" lon="6.68615">
        <ele>2799.3999023438</ele>
        <time>2020-01-15T11:34:31.000Z</time>
      </trkpt>
      <trkpt lat="45.65341" lon="6.68615">
        <ele>2799.3999023438</ele>
        <time>2020-01-15T11:34:32.000Z</time>
      </trkpt>
      <trkpt lat="45.65341" lon="6.68615">
        <ele>2799.6000976562</ele>
        <time>2020-01-15T11:34:35.000Z</time>
      </trkpt>
      <trkpt lat="45.65341" lon="6.68615">
        <ele>2800.1999511719</ele>
        <time>2020-01-15T11:34:38.000Z</time>
      </trkpt>
      <trkpt lat="45.65341" lon="6.68615">
        <ele>2800.8000488281</ele>
        <time>2020-01-15T11:34:42.000Z</time>
      </trkpt>
      <trkpt lat="45.65341" lon="6.68615">
        <ele>2801</ele>
        <time>2020-01-15T11:34:46.000Z</time>
      </trkpt>
      <trkpt lat="45.65341" lon="6.68615">
        <ele>2801.6000976562</ele>
        <time>2020-01-15T11:34:51.000Z</time>
      </trkpt>
      <trkpt lat="45.65341" lon="6.68615">
        <ele>2801.8000488281</ele>
        <time>2020-01-15T11:34:52.000Z</time>
      </trkpt>
      <trkpt lat="45.6534" lon="6.68616">
        <ele>2802.6000976562</ele>
        <time>2020-01-15T11:35:05.000Z</time>
      </trkpt>
      <trkpt lat="45.6534" lon="6.68616">
        <ele>2802.8000488281</ele>
        <time>2020-01-15T11:35:10.000Z</time>
      </trkpt>
      <trkpt lat="45.6534" lon="6.68616">
        <ele>2803.1999511719</ele>
        <time>2020-01-15T11:35:11.000Z</time>
      </trkpt>
      <trkpt lat="45.6534" lon="6.68616">
        <ele>2804</ele>
        <time>2020-01-15T11:35:14.000Z</time>
      </trkpt>
      <trkpt lat="45.6534" lon="6.68616">
        <ele>2804.6000976562</ele>
        <time>2020-01-15T11:35:17.000Z</time>
      </trkpt>
      <trkpt lat="45.6534" lon="6.68616">
        <ele>2805</ele>
        <time>2020-01-15T11:35:20.000Z</time>
      </trkpt>
      <trkpt lat="45.6534" lon="6.68616">
        <ele>2805.8000488281</ele>
        <time>2020-01-15T11:35:24.000Z</time>
      </trkpt>
      <trkpt lat="45.6534" lon="6.68616">
        <ele>2806.1999511719</ele>
        <time>2020-01-15T11:35:26.000Z</time>
      </trkpt>
      <trkpt lat="45.6534" lon="6.68616">
        <ele>2807</ele>
        <time>2020-01-15T11:35:31.000Z</time>
      </trkpt>
      <trkpt lat="45.6534" lon="6.68616">
        <ele>2807.1999511719</ele>
        <time>2020-01-15T11:35:33.000Z</time>
      </trkpt>
      <trkpt lat="45.6534" lon="6.68616">
        <ele>2807.8000488281</ele>
        <time>2020-01-15T11:35:37.000Z</time>
      </trkpt>
      <trkpt lat="45.6534" lon="6.68616">
        <ele>2808.3999023438</ele>
        <time>2020-01-15T11:35:39.000Z</time>
      </trkpt>
      <trkpt lat="45.6534" lon="6.68616">
        <ele>2809.1999511719</ele>
        <time>2020-01-15T11:35:43.000Z</time>
      </trkpt>
      <trkpt lat="45.6534" lon="6.68616">
        <ele>2809.6000976562</ele>
        <time>2020-01-15T11:35:45.000Z</time>
      </trkpt>
      <trkpt lat="45.6534" lon="6.68616">
        <ele>2810</ele>
        <time>2020-01-15T11:35:50.000Z</time>
      </trkpt>
      <trkpt lat="45.6534" lon="6.68616">
        <ele>2810.8000488281</ele>
        <time>2020-01-15T11:35:57.000Z</time>
      </trkpt>
      <trkpt lat="45.6534" lon="6.68616">
        <ele>2811.8000488281</ele>
        <time>2020-01-15T11:36:02.000Z</time>
      </trkpt>
      <trkpt lat="45.6534" lon="6.68616">
        <ele>2812.3999023438</ele>
        <time>2020-01-15T11:36:07.000Z</time>
      </trkpt>
      <trkpt lat="45.6534" lon="6.68616">
        <ele>2812.6000976562</ele>
        <time>2020-01-15T11:36:15.000Z</time>
      </trkpt>
      <trkpt lat="45.6534" lon="6.68616">
        <ele>2812.8000488281</ele>
        <time>2020-01-15T11:36:19.000Z</time>
      </trkpt>
      <trkpt lat="45.6534" lon="6.68616">
        <ele>2814</ele>
        <time>2020-01-15T11:36:24.000Z</time>
      </trkpt>
      <trkpt lat="45.65339" lon="6.68618">
        <ele>2815</ele>
        <time>2020-01-15T11:36:31.000Z</time>
      </trkpt>
      <trkpt lat="45.65339" lon="6.68618">
        <ele>2815</ele>
        <time>2020-01-15T11:36:32.000Z</time>
      </trkpt>
      <trkpt lat="45.65339" lon="6.68618">
        <ele>2816</ele>
        <time>2020-01-15T11:36:36.000Z</time>
      </trkpt>
      <trkpt lat="45.65339" lon="6.68618">
        <ele>2816.1999511719</ele>
        <time>2020-01-15T11:36:37.000Z</time>
      </trkpt>
      <trkpt lat="45.65339" lon="6.68618">
        <ele>2816.8000488281</ele>
        <time>2020-01-15T11:36:42.000Z</time>
      </trkpt>
      <trkpt lat="45.65339" lon="6.68618">
        <ele>2817.6000976562</ele>
        <time>2020-01-15T11:36:46.000Z</time>
      </trkpt>
      <trkpt lat="45.65339" lon="6.68618">
        <ele>2818.6000976562</ele>
        <time>2020-01-15T11:36:50.000Z</time>
      </trkpt>
      <trkpt lat="45.6534" lon="6.6862">
        <ele>2819</ele>
        <time>2020-01-15T11:37:06.000Z</time>
      </trkpt>
      <trkpt lat="45.6534" lon="6.6862">
        <ele>2818.3999023438</ele>
        <time>2020-01-15T11:37:18.000Z</time>
      </trkpt>
      <trkpt lat="45.6534" lon="6.6862">
        <ele>2818.3999023438</ele>
        <time>2020-01-15T11:37:25.000Z</time>
      </trkpt>
      <trkpt lat="45.65339" lon="6.68621">
        <ele>2818.1999511719</ele>
        <time>2020-01-15T11:37:27.000Z</time>
      </trkpt>
      <trkpt lat="45.65337" lon="6.68625">
        <ele>2818.3999023438</ele>
        <time>2020-01-15T11:37:30.000Z</time>
      </trkpt>
      <trkpt lat="45.65334" lon="6.68628">
        <ele>2818.8000488281</ele>
        <time>2020-01-15T11:37:35.000Z</time>
      </trkpt>
      <trkpt lat="45.65334" lon="6.68628">
        <ele>2819.6000976562</ele>
        <time>2020-01-15T11:37:40.000Z</time>
      </trkpt>
      <trkpt lat="45.65334" lon="6.68628">
        <ele>2820</ele>
        <time>2020-01-15T11:37:42.000Z</time>
      </trkpt>
      <trkpt lat="45.65334" lon="6.68628">
        <ele>2820.8000488281</ele>
        <time>2020-01-15T11:37:46.000Z</time>
      </trkpt>
      <trkpt lat="45.65334" lon="6.68628">
        <ele>2821.1999511719</ele>
        <time>2020-01-15T11:37:49.000Z</time>
      </trkpt>
      <trkpt lat="45.65334" lon="6.68628">
        <ele>2821.8000488281</ele>
        <time>2020-01-15T11:37:52.000Z</time>
      </trkpt>
      <trkpt lat="45.65334" lon="6.68628">
        <ele>2822.8000488281</ele>
        <time>2020-01-15T11:37:56.000Z</time>
      </trkpt>
      <trkpt lat="45.65334" lon="6.68628">
        <ele>2824</ele>
        <time>2020-01-15T11:38:00.000Z</time>
      </trkpt>
      <trkpt lat="45.65334" lon="6.68628">
        <ele>2824.6000976562</ele>
        <time>2020-01-15T11:38:04.000Z</time>
      </trkpt>
      <trkpt lat="45.65334" lon="6.68628">
        <ele>2825</ele>
        <time>2020-01-15T11:38:07.000Z</time>
      </trkpt>
      <trkpt lat="45.65334" lon="6.68628">
        <ele>2825.6000976562</ele>
        <time>2020-01-15T11:38:11.000Z</time>
      </trkpt>
      <trkpt lat="45.65334" lon="6.68628">
        <ele>2826.1999511719</ele>
        <time>2020-01-15T11:38:13.000Z</time>
      </trkpt>
      <trkpt lat="45.65334" lon="6.68629">
        <ele>2827.1999511719</ele>
        <time>2020-01-15T11:38:18.000Z</time>
      </trkpt>
      <trkpt lat="45.65334" lon="6.68629">
        <ele>2827.3999023438</ele>
        <time>2020-01-15T11:38:19.000Z</time>
      </trkpt>
      <trkpt lat="45.65334" lon="6.68629">
        <ele>2828.3999023438</ele>
        <time>2020-01-15T11:38:24.000Z</time>
      </trkpt>
      <trkpt lat="45.65334" lon="6.68629">
        <ele>2828.8000488281</ele>
        <time>2020-01-15T11:38:26.000Z</time>
      </trkpt>
      <trkpt lat="45.65334" lon="6.68629">
        <ele>2829.8000488281</ele>
        <time>2020-01-15T11:38:28.000Z</time>
      </trkpt>
      <trkpt lat="45.65334" lon="6.68629">
        <ele>2830.6000976562</ele>
        <time>2020-01-15T11:38:37.000Z</time>
      </trkpt>
      <trkpt lat="45.65334" lon="6.68629">
        <ele>2830.8000488281</ele>
        <time>2020-01-15T11:38:45.000Z</time>
      </trkpt>
      <trkpt lat="45.65334" lon="6.68629">
        <ele>2831</ele>
        <time>2020-01-15T11:38:46.000Z</time>
      </trkpt>
      <trkpt lat="45.65334" lon="6.68629">
        <ele>2832</ele>
        <time>2020-01-15T11:38:51.000Z</time>
      </trkpt>
      <trkpt lat="45.65334" lon="6.68629">
        <ele>2832.1999511719</ele>
        <time>2020-01-15T11:38:54.000Z</time>
      </trkpt>
      <trkpt lat="45.65334" lon="6.6863">
        <ele>2832.8000488281</ele>
        <time>2020-01-15T11:39:01.000Z</time>
      </trkpt>
      <trkpt lat="45.65334" lon="6.6863">
        <ele>2833</ele>
        <time>2020-01-15T11:39:02.000Z</time>
      </trkpt>
      <trkpt lat="45.65334" lon="6.6863">
        <ele>2833.8000488281</ele>
        <time>2020-01-15T11:39:07.000Z</time>
      </trkpt>
      <trkpt lat="45.65334" lon="6.6863">
        <ele>2834</ele>
        <time>2020-01-15T11:39:08.000Z</time>
      </trkpt>
      <trkpt lat="45.65334" lon="6.6863">
        <ele>2835</ele>
        <time>2020-01-15T11:39:14.000Z</time>
      </trkpt>
      <trkpt lat="45.65334" lon="6.6863">
        <ele>2835.1999511719</ele>
        <time>2020-01-15T11:39:15.000Z</time>
      </trkpt>
      <trkpt lat="45.65333" lon="6.68631">
        <ele>2836.1999511719</ele>
        <time>2020-01-15T11:39:24.000Z</time>
      </trkpt>
      <trkpt lat="45.65333" lon="6.68631">
        <ele>2836.1999511719</ele>
        <time>2020-01-15T11:39:25.000Z</time>
      </trkpt>
      <trkpt lat="45.65333" lon="6.68631">
        <ele>2836.8000488281</ele>
        <time>2020-01-15T11:39:33.000Z</time>
      </trkpt>
      <trkpt lat="45.65333" lon="6.68631">
        <ele>2837</ele>
        <time>2020-01-15T11:39:40.000Z</time>
      </trkpt>
      <trkpt lat="45.65333" lon="6.68631">
        <ele>2837.1999511719</ele>
        <time>2020-01-15T11:39:42.000Z</time>
      </trkpt>
      <trkpt lat="45.65333" lon="6.68631">
        <ele>2837</ele>
        <time>2020-01-15T11:39:56.000Z</time>
      </trkpt>
      <trkpt lat="45.65333" lon="6.68632">
        <ele>2837.6000976562</ele>
        <time>2020-01-15T11:40:04.000Z</time>
      </trkpt>
      <trkpt lat="45.65333" lon="6.68632">
        <ele>2838.1999511719</ele>
        <time>2020-01-15T11:40:14.000Z</time>
      </trkpt>
      <trkpt lat="45.65333" lon="6.68632">
        <ele>2838</ele>
        <time>2020-01-15T11:40:19.000Z</time>
      </trkpt>
      <trkpt lat="45.65333" lon="6.68632">
        <ele>2837.1999511719</ele>
        <time>2020-01-15T11:40:27.000Z</time>
      </trkpt>
      <trkpt lat="45.65333" lon="6.68632">
        <ele>2837</ele>
        <time>2020-01-15T11:40:29.000Z</time>
      </trkpt>
      <trkpt lat="45.65333" lon="6.68632">
        <ele>2837.3999023438</ele>
        <time>2020-01-15T11:40:38.000Z</time>
      </trkpt>
      <trkpt lat="45.65333" lon="6.68632">
        <ele>2837</ele>
        <time>2020-01-15T11:40:44.000Z</time>
      </trkpt>
      <trkpt lat="45.65333" lon="6.68632">
        <ele>2838.1999511719</ele>
        <time>2020-01-15T11:40:46.000Z</time>
      </trkpt>
      <trkpt lat="45.65333" lon="6.68632">
        <ele>2837.8000488281</ele>
        <time>2020-01-15T11:40:55.000Z</time>
      </trkpt>
      <trkpt lat="45.65333" lon="6.68632">
        <ele>2839</ele>
        <time>2020-01-15T11:41:02.000Z</time>
      </trkpt>
      <trkpt lat="45.65333" lon="6.68632">
        <ele>2839.1999511719</ele>
        <time>2020-01-15T11:41:03.000Z</time>
      </trkpt>
      <trkpt lat="45.65333" lon="6.68632">
        <ele>2838.1999511719</ele>
        <time>2020-01-15T11:41:11.000Z</time>
      </trkpt>
      <trkpt lat="45.65333" lon="6.68632">
        <ele>2839.1999511719</ele>
        <time>2020-01-15T11:41:15.000Z</time>
      </trkpt>
      <trkpt lat="45.65333" lon="6.68632">
        <ele>2840.3999023438</ele>
        <time>2020-01-15T11:41:18.000Z</time>
      </trkpt>
      <trkpt lat="45.65333" lon="6.68632">
        <ele>2840.1999511719</ele>
        <time>2020-01-15T11:41:21.000Z</time>
      </trkpt>
      <trkpt lat="45.65332" lon="6.68632">
        <ele>2839.1999511719</ele>
        <time>2020-01-15T11:41:25.000Z</time>
      </trkpt>
      <trkpt lat="45.65332" lon="6.68632">
        <ele>2840.1999511719</ele>
        <time>2020-01-15T11:41:30.000Z</time>
      </trkpt>
      <trkpt lat="45.65332" lon="6.68632">
        <ele>2841</ele>
        <time>2020-01-15T11:41:34.000Z</time>
      </trkpt>
      <trkpt lat="45.65332" lon="6.68632">
        <ele>2841.1999511719</ele>
        <time>2020-01-15T11:41:35.000Z</time>
      </trkpt>
      <trkpt lat="45.65332" lon="6.68632">
        <ele>2840</ele>
        <time>2020-01-15T11:41:45.000Z</time>
      </trkpt>
      <trkpt lat="45.65332" lon="6.68632">
        <ele>2839.1999511719</ele>
        <time>2020-01-15T11:41:46.000Z</time>
      </trkpt>
      <trkpt lat="45.65332" lon="6.68632">
        <ele>2839</ele>
        <time>2020-01-15T11:41:47.000Z</time>
      </trkpt>
      <trkpt lat="45.65332" lon="6.68632">
        <ele>2837.3999023438</ele>
        <time>2020-01-15T11:41:48.000Z</time>
      </trkpt>
      <trkpt lat="45.65332" lon="6.68632">
        <ele>2835.1999511719</ele>
        <time>2020-01-15T11:41:49.000Z</time>
      </trkpt>
      <trkpt lat="45.65332" lon="6.68632">
        <ele>2833.3999023438</ele>
        <time>2020-01-15T11:41:50.000Z</time>
      </trkpt>
      <trkpt lat="45.65332" lon="6.68632">
        <ele>2835.8000488281</ele>
        <time>2020-01-15T11:41:53.000Z</time>
      </trkpt>
      <trkpt lat="45.65332" lon="6.68632">
        <ele>2837.8000488281</ele>
        <time>2020-01-15T11:41:54.000Z</time>
      </trkpt>
      <trkpt lat="45.65332" lon="6.68632">
        <ele>2838.8000488281</ele>
        <time>2020-01-15T11:41:55.000Z</time>
      </trkpt>
      <trkpt lat="45.65332" lon="6.68632">
        <ele>2840.1999511719</ele>
        <time>2020-01-15T11:41:57.000Z</time>
      </trkpt>
      <trkpt lat="45.65332" lon="6.68632">
        <ele>2840.1999511719</ele>
        <time>2020-01-15T11:41:59.000Z</time>
      </trkpt>
      <trkpt lat="45.65332" lon="6.68632">
        <ele>2841.3999023438</ele>
        <time>2020-01-15T11:42:03.000Z</time>
      </trkpt>
      <trkpt lat="45.65332" lon="6.68634">
        <ele>2843.1999511719</ele>
        <time>2020-01-15T11:42:04.000Z</time>
      </trkpt>
      <trkpt lat="45.65332" lon="6.68634">
        <ele>2841.8000488281</ele>
        <time>2020-01-15T11:42:09.000Z</time>
      </trkpt>
      <trkpt lat="45.65332" lon="6.68634">
        <ele>2841.1999511719</ele>
        <time>2020-01-15T11:42:10.000Z</time>
      </trkpt>
      <trkpt lat="45.65332" lon="6.68634">
        <ele>2840.8000488281</ele>
        <time>2020-01-15T11:42:12.000Z</time>
      </trkpt>
      <trkpt lat="45.65332" lon="6.68634">
        <ele>2838.6000976562</ele>
        <time>2020-01-15T11:42:19.000Z</time>
      </trkpt>
      <trkpt lat="45.65332" lon="6.68634">
        <ele>2837.3999023438</ele>
        <time>2020-01-15T11:42:21.000Z</time>
      </trkpt>
      <trkpt lat="45.65332" lon="6.68634">
        <ele>2839</ele>
        <time>2020-01-15T11:42:24.000Z</time>
      </trkpt>
      <trkpt lat="45.65332" lon="6.68634">
        <ele>2840.8000488281</ele>
        <time>2020-01-15T11:42:26.000Z</time>
      </trkpt>
      <trkpt lat="45.65332" lon="6.68634">
        <ele>2841.8000488281</ele>
        <time>2020-01-15T11:42:29.000Z</time>
      </trkpt>
      <trkpt lat="45.65332" lon="6.68634">
        <ele>2842.8000488281</ele>
        <time>2020-01-15T11:42:34.000Z</time>
      </trkpt>
      <trkpt lat="45.65332" lon="6.68634">
        <ele>2842.8000488281</ele>
        <time>2020-01-15T11:42:39.000Z</time>
      </trkpt>
      <trkpt lat="45.65332" lon="6.68634">
        <ele>2841.6000976562</ele>
        <time>2020-01-15T11:42:42.000Z</time>
      </trkpt>
      <trkpt lat="45.65331" lon="6.68636">
        <ele>2840.6000976562</ele>
        <time>2020-01-15T11:42:44.000Z</time>
      </trkpt>
      <trkpt lat="45.65331" lon="6.68636">
        <ele>2839.6000976562</ele>
        <time>2020-01-15T11:42:49.000Z</time>
      </trkpt>
      <trkpt lat="45.65331" lon="6.68636">
        <ele>2840.8000488281</ele>
        <time>2020-01-15T11:42:52.000Z</time>
      </trkpt>
      <trkpt lat="45.65331" lon="6.68636">
        <ele>2841</ele>
        <time>2020-01-15T11:42:55.000Z</time>
      </trkpt>
      <trkpt lat="45.65331" lon="6.68636">
        <ele>2839.8000488281</ele>
        <time>2020-01-15T11:42:57.000Z</time>
      </trkpt>
      <trkpt lat="45.65331" lon="6.68636">
        <ele>2838.8000488281</ele>
        <time>2020-01-15T11:43:00.000Z</time>
      </trkpt>
      <trkpt lat="45.65331" lon="6.68636">
        <ele>2839</ele>
        <time>2020-01-15T11:43:07.000Z</time>
      </trkpt>
      <trkpt lat="45.65331" lon="6.68636">
        <ele>2840.3999023438</ele>
        <time>2020-01-15T11:43:08.000Z</time>
      </trkpt>
      <trkpt lat="45.65331" lon="6.68636">
        <ele>2841.6000976562</ele>
        <time>2020-01-15T11:43:09.000Z</time>
      </trkpt>
      <trkpt lat="45.65331" lon="6.68636">
        <ele>2839.6000976562</ele>
        <time>2020-01-15T11:43:14.000Z</time>
      </trkpt>
      <trkpt lat="45.65331" lon="6.68636">
        <ele>2838.6000976562</ele>
        <time>2020-01-15T11:43:15.000Z</time>
      </trkpt>
      <trkpt lat="45.65331" lon="6.68636">
        <ele>2836.3999023438</ele>
        <time>2020-01-15T11:43:17.000Z</time>
      </trkpt>
      <trkpt lat="45.65331" lon="6.68636">
        <ele>2838.6000976562</ele>
        <time>2020-01-15T11:43:18.000Z</time>
      </trkpt>
      <trkpt lat="45.65331" lon="6.68636">
        <ele>2840.8000488281</ele>
        <time>2020-01-15T11:43:19.000Z</time>
      </trkpt>
      <trkpt lat="45.65331" lon="6.68636">
        <ele>2842.6000976562</ele>
        <time>2020-01-15T11:43:20.000Z</time>
      </trkpt>
      <trkpt lat="45.65331" lon="6.68636">
        <ele>2842.8000488281</ele>
        <time>2020-01-15T11:43:21.000Z</time>
      </trkpt>
      <trkpt lat="45.65331" lon="6.68636">
        <ele>2841.3999023438</ele>
        <time>2020-01-15T11:43:23.000Z</time>
      </trkpt>
      <trkpt lat="45.65331" lon="6.68637">
        <ele>2842.3999023438</ele>
        <time>2020-01-15T11:43:25.000Z</time>
      </trkpt>
      <trkpt lat="45.65331" lon="6.68637">
        <ele>2843.6000976562</ele>
        <time>2020-01-15T11:43:28.000Z</time>
      </trkpt>
      <trkpt lat="45.65331" lon="6.68637">
        <ele>2841</ele>
        <time>2020-01-15T11:43:32.000Z</time>
      </trkpt>
      <trkpt lat="45.65331" lon="6.68637">
        <ele>2838.3999023438</ele>
        <time>2020-01-15T11:43:33.000Z</time>
      </trkpt>
      <trkpt lat="45.65331" lon="6.68637">
        <ele>2837</ele>
        <time>2020-01-15T11:43:34.000Z</time>
      </trkpt>
      <trkpt lat="45.65331" lon="6.68637">
        <ele>2836</ele>
        <time>2020-01-15T11:43:36.000Z</time>
      </trkpt>
      <trkpt lat="45.65331" lon="6.68637">
        <ele>2836</ele>
        <time>2020-01-15T11:43:37.000Z</time>
      </trkpt>
      <trkpt lat="45.65331" lon="6.68637">
        <ele>2837.3999023438</ele>
        <time>2020-01-15T11:43:38.000Z</time>
      </trkpt>
      <trkpt lat="45.65331" lon="6.68637">
        <ele>2840.1999511719</ele>
        <time>2020-01-15T11:43:39.000Z</time>
      </trkpt>
      <trkpt lat="45.65331" lon="6.68637">
        <ele>2843.6000976562</ele>
        <time>2020-01-15T11:43:40.000Z</time>
      </trkpt>
      <trkpt lat="45.65331" lon="6.68637">
        <ele>2844.8000488281</ele>
        <time>2020-01-15T11:43:42.000Z</time>
      </trkpt>
      <trkpt lat="45.65331" lon="6.68637">
        <ele>2843.6000976562</ele>
        <time>2020-01-15T11:43:44.000Z</time>
      </trkpt>
      <trkpt lat="45.65331" lon="6.68637">
        <ele>2842.3999023438</ele>
        <time>2020-01-15T11:43:46.000Z</time>
      </trkpt>
      <trkpt lat="45.65331" lon="6.68637">
        <ele>2842</ele>
        <time>2020-01-15T11:43:47.000Z</time>
      </trkpt>
      <trkpt lat="45.65331" lon="6.68637">
        <ele>2841.1999511719</ele>
        <time>2020-01-15T11:43:51.000Z</time>
      </trkpt>
      <trkpt lat="45.65331" lon="6.68637">
        <ele>2841.1999511719</ele>
        <time>2020-01-15T11:44:07.000Z</time>
      </trkpt>
      <trkpt lat="45.65331" lon="6.68637">
        <ele>2841.1999511719</ele>
        <time>2020-01-15T11:44:15.000Z</time>
      </trkpt>
      <trkpt lat="45.65331" lon="6.68637">
        <ele>2842</ele>
        <time>2020-01-15T11:44:27.000Z</time>
      </trkpt>
      <trkpt lat="45.65331" lon="6.68637">
        <ele>2842.3999023438</ele>
        <time>2020-01-15T11:44:28.000Z</time>
      </trkpt>
      <trkpt lat="45.65331" lon="6.68637">
        <ele>2842.6000976562</ele>
        <time>2020-01-15T11:44:34.000Z</time>
      </trkpt>
      <trkpt lat="45.65331" lon="6.68637">
        <ele>2843.3999023438</ele>
        <time>2020-01-15T11:44:37.000Z</time>
      </trkpt>
      <trkpt lat="45.65331" lon="6.68637">
        <ele>2843.8000488281</ele>
        <time>2020-01-15T11:44:40.000Z</time>
      </trkpt>
      <trkpt lat="45.65326" lon="6.68642">
        <ele>2844</ele>
        <time>2020-01-15T11:44:47.000Z</time>
      </trkpt>
      <trkpt lat="45.65326" lon="6.68643">
        <ele>2844.6000976562</ele>
        <time>2020-01-15T11:44:51.000Z</time>
      </trkpt>
      <trkpt lat="45.65326" lon="6.68643">
        <ele>2845.6000976562</ele>
        <time>2020-01-15T11:44:56.000Z</time>
      </trkpt>
      <trkpt lat="45.65326" lon="6.68643">
        <ele>2846.8000488281</ele>
        <time>2020-01-15T11:45:00.000Z</time>
      </trkpt>
      <trkpt lat="45.65326" lon="6.68643">
        <ele>2847.3999023438</ele>
        <time>2020-01-15T11:45:07.000Z</time>
      </trkpt>
      <trkpt lat="45.65326" lon="6.68643">
        <ele>2847.3999023438</ele>
        <time>2020-01-15T11:45:22.000Z</time>
      </trkpt>
      <trkpt lat="45.65321" lon="6.68652">
        <ele>2847.6000976562</ele>
        <time>2020-01-15T11:45:33.000Z</time>
      </trkpt>
      <trkpt lat="45.65309" lon="6.68669">
        <ele>2847.6000976562</ele>
        <time>2020-01-15T11:45:39.000Z</time>
      </trkpt>
      <trkpt lat="45.65294" lon="6.68686">
        <ele>2847.8000488281</ele>
        <time>2020-01-15T11:45:43.000Z</time>
      </trkpt>
      <trkpt lat="45.6529" lon="6.68691">
        <ele>2848.3999023438</ele>
        <time>2020-01-15T11:45:45.000Z</time>
      </trkpt>
      <trkpt lat="45.65284" lon="6.68699">
        <ele>2849</ele>
        <time>2020-01-15T11:45:48.000Z</time>
      </trkpt>
      <trkpt lat="45.65282" lon="6.68705">
        <ele>2850</ele>
        <time>2020-01-15T11:45:52.000Z</time>
      </trkpt>
      <trkpt lat="45.65282" lon="6.68705">
        <ele>2850.1999511719</ele>
        <time>2020-01-15T11:45:53.000Z</time>
      </trkpt>
      <trkpt lat="45.65281" lon="6.68706">
        <ele>2850.8000488281</ele>
        <time>2020-01-15T11:45:57.000Z</time>
      </trkpt>
      <trkpt lat="45.65281" lon="6.68706">
        <ele>2851.3999023438</ele>
        <time>2020-01-15T11:45:59.000Z</time>
      </trkpt>
      <trkpt lat="45.65281" lon="6.68706">
        <ele>2852.3999023438</ele>
        <time>2020-01-15T11:46:05.000Z</time>
      </trkpt>
      <trkpt lat="45.65281" lon="6.68706">
        <ele>2852.6000976562</ele>
        <time>2020-01-15T11:46:07.000Z</time>
      </trkpt>
      <trkpt lat="45.65279" lon="6.68713">
        <ele>2853</ele>
        <time>2020-01-15T11:46:14.000Z</time>
      </trkpt>
      <trkpt lat="45.65276" lon="6.68716">
        <ele>2853.6000976562</ele>
        <time>2020-01-15T11:46:17.000Z</time>
      </trkpt>
      <trkpt lat="45.65276" lon="6.68716">
        <ele>2853.6000976562</ele>
        <time>2020-01-15T11:46:18.000Z</time>
      </trkpt>
      <trkpt lat="45.65273" lon="6.68724">
        <ele>2854</ele>
        <time>2020-01-15T11:46:29.000Z</time>
      </trkpt>
      <trkpt lat="45.65267" lon="6.68734">
        <ele>2853.6000976562</ele>
        <time>2020-01-15T11:46:34.000Z</time>
      </trkpt>
      <trkpt lat="45.65265" lon="6.68738">
        <ele>2853</ele>
        <time>2020-01-15T11:46:39.000Z</time>
      </trkpt>
      <trkpt lat="45.65264" lon="6.68741">
        <ele>2853.3999023438</ele>
        <time>2020-01-15T11:46:47.000Z</time>
      </trkpt>
      <trkpt lat="45.65263" lon="6.68744">
        <ele>2854</ele>
        <time>2020-01-15T11:46:52.000Z</time>
      </trkpt>
      <trkpt lat="45.65263" lon="6.68744">
        <ele>2854.6000976562</ele>
        <time>2020-01-15T11:46:55.000Z</time>
      </trkpt>
      <trkpt lat="45.65262" lon="6.68746">
        <ele>2855</ele>
        <time>2020-01-15T11:46:56.000Z</time>
      </trkpt>
      <trkpt lat="45.65262" lon="6.68746">
        <ele>2855.3999023438</ele>
        <time>2020-01-15T11:47:00.000Z</time>
      </trkpt>
      <trkpt lat="45.65261" lon="6.68747">
        <ele>2855.8000488281</ele>
        <time>2020-01-15T11:47:04.000Z</time>
      </trkpt>
      <trkpt lat="45.6526" lon="6.68747">
        <ele>2856</ele>
        <time>2020-01-15T11:47:05.000Z</time>
      </trkpt>
      <trkpt lat="45.65259" lon="6.68748">
        <ele>2856.8000488281</ele>
        <time>2020-01-15T11:47:08.000Z</time>
      </trkpt>
      <trkpt lat="45.65259" lon="6.68748">
        <ele>2856.8000488281</ele>
        <time>2020-01-15T11:47:11.000Z</time>
      </trkpt>
      <trkpt lat="45.65259" lon="6.68748">
        <ele>2857.8000488281</ele>
        <time>2020-01-15T11:47:16.000Z</time>
      </trkpt>
      <trkpt lat="45.65259" lon="6.68748">
        <ele>2858.1999511719</ele>
        <time>2020-01-15T11:47:23.000Z</time>
      </trkpt>
      <trkpt lat="45.65259" lon="6.68748">
        <ele>2858.3999023438</ele>
        <time>2020-01-15T11:47:38.000Z</time>
      </trkpt>
      <trkpt lat="45.65259" lon="6.68748">
        <ele>2858.8000488281</ele>
        <time>2020-01-15T11:47:45.000Z</time>
      </trkpt>
      <trkpt lat="45.65258" lon="6.68749">
        <ele>2859</ele>
        <time>2020-01-15T11:47:49.000Z</time>
      </trkpt>
      <trkpt lat="45.65256" lon="6.6875">
        <ele>2859</ele>
        <time>2020-01-15T11:47:52.000Z</time>
      </trkpt>
      <trkpt lat="45.65255" lon="6.6875">
        <ele>2859</ele>
        <time>2020-01-15T11:47:54.000Z</time>
      </trkpt>
      <trkpt lat="45.65253" lon="6.68752">
        <ele>2859.1999511719</ele>
        <time>2020-01-15T11:47:58.000Z</time>
      </trkpt>
      <trkpt lat="45.65251" lon="6.68754">
        <ele>2859.8000488281</ele>
        <time>2020-01-15T11:48:03.000Z</time>
      </trkpt>
      <trkpt lat="45.65251" lon="6.68755">
        <ele>2860</ele>
        <time>2020-01-15T11:48:04.000Z</time>
      </trkpt>
      <trkpt lat="45.65249" lon="6.68756">
        <ele>2860.6000976562</ele>
        <time>2020-01-15T11:48:08.000Z</time>
      </trkpt>
      <trkpt lat="45.65248" lon="6.68756">
        <ele>2861</ele>
        <time>2020-01-15T11:48:12.000Z</time>
      </trkpt>
      <trkpt lat="45.65246" lon="6.68759">
        <ele>2862.1999511719</ele>
        <time>2020-01-15T11:48:17.000Z</time>
      </trkpt>
      <trkpt lat="45.65243" lon="6.68762">
        <ele>2862.8000488281</ele>
        <time>2020-01-15T11:48:22.000Z</time>
      </trkpt>
      <trkpt lat="45.65243" lon="6.68763">
        <ele>2863.1999511719</ele>
        <time>2020-01-15T11:48:23.000Z</time>
      </trkpt>
      <trkpt lat="45.6524" lon="6.68765">
        <ele>2863.8000488281</ele>
        <time>2020-01-15T11:48:27.000Z</time>
      </trkpt>
      <trkpt lat="45.65239" lon="6.68766">
        <ele>2864</ele>
        <time>2020-01-15T11:48:31.000Z</time>
      </trkpt>
      <trkpt lat="45.65239" lon="6.68767">
        <ele>2864.1999511719</ele>
        <time>2020-01-15T11:48:33.000Z</time>
      </trkpt>
      <trkpt lat="45.65237" lon="6.68768">
        <ele>2864.1999511719</ele>
        <time>2020-01-15T11:48:35.000Z</time>
      </trkpt>
      <trkpt lat="45.65237" lon="6.68769">
        <ele>2864.8000488281</ele>
        <time>2020-01-15T11:48:39.000Z</time>
      </trkpt>
      <trkpt lat="45.65236" lon="6.6877">
        <ele>2865.3999023438</ele>
        <time>2020-01-15T11:48:42.000Z</time>
      </trkpt>
      <trkpt lat="45.65235" lon="6.6877">
        <ele>2865.6000976562</ele>
        <time>2020-01-15T11:48:43.000Z</time>
      </trkpt>
      <trkpt lat="45.65233" lon="6.68772">
        <ele>2866.1999511719</ele>
        <time>2020-01-15T11:48:48.000Z</time>
      </trkpt>
      <trkpt lat="45.65233" lon="6.68773">
        <ele>2866.6000976562</ele>
        <time>2020-01-15T11:48:50.000Z</time>
      </trkpt>
      <trkpt lat="45.65232" lon="6.68774">
        <ele>2867.3999023438</ele>
        <time>2020-01-15T11:48:53.000Z</time>
      </trkpt>
      <trkpt lat="45.65232" lon="6.68774">
        <ele>2867.8000488281</ele>
        <time>2020-01-15T11:48:54.000Z</time>
      </trkpt>
      <trkpt lat="45.65231" lon="6.68774">
        <ele>2868.6000976562</ele>
        <time>2020-01-15T11:48:59.000Z</time>
      </trkpt>
      <trkpt lat="45.6523" lon="6.68775">
        <ele>2869</ele>
        <time>2020-01-15T11:49:01.000Z</time>
      </trkpt>
      <trkpt lat="45.65229" lon="6.68774">
        <ele>2869.3999023438</ele>
        <time>2020-01-15T11:49:03.000Z</time>
      </trkpt>
      <trkpt lat="45.65228" lon="6.68775">
        <ele>2869.8000488281</ele>
        <time>2020-01-15T11:49:05.000Z</time>
      </trkpt>
      <trkpt lat="45.65227" lon="6.68776">
        <ele>2870.1999511719</ele>
        <time>2020-01-15T11:49:08.000Z</time>
      </trkpt>
      <trkpt lat="45.65227" lon="6.68776">
        <ele>2870.6000976562</ele>
        <time>2020-01-15T11:49:10.000Z</time>
      </trkpt>
      <trkpt lat="45.65226" lon="6.68777">
        <ele>2871.1999511719</ele>
        <time>2020-01-15T11:49:13.000Z</time>
      </trkpt>
      <trkpt lat="45.65226" lon="6.68777">
        <ele>2871.1999511719</ele>
        <time>2020-01-15T11:49:16.000Z</time>
      </trkpt>
      <trkpt lat="45.65226" lon="6.68777">
        <ele>2872.1999511719</ele>
        <time>2020-01-15T11:49:25.000Z</time>
      </trkpt>
      <trkpt lat="45.65225" lon="6.68779">
        <ele>2872.6000976562</ele>
        <time>2020-01-15T11:49:33.000Z</time>
      </trkpt>
      <trkpt lat="45.65223" lon="6.68782">
        <ele>2873.1999511719</ele>
        <time>2020-01-15T11:49:39.000Z</time>
      </trkpt>
      <trkpt lat="45.65222" lon="6.68784">
        <ele>2874.1999511719</ele>
        <time>2020-01-15T11:49:43.000Z</time>
      </trkpt>
      <trkpt lat="45.65222" lon="6.68785">
        <ele>2875</ele>
        <time>2020-01-15T11:49:47.000Z</time>
      </trkpt>
      <trkpt lat="45.65221" lon="6.68785">
        <ele>2875.1999511719</ele>
        <time>2020-01-15T11:49:48.000Z</time>
      </trkpt>
      <trkpt lat="45.6522" lon="6.68786">
        <ele>2876</ele>
        <time>2020-01-15T11:49:52.000Z</time>
      </trkpt>
      <trkpt lat="45.6522" lon="6.68787">
        <ele>2876.1999511719</ele>
        <time>2020-01-15T11:49:57.000Z</time>
      </trkpt>
      <trkpt lat="45.6522" lon="6.68788">
        <ele>2876.8000488281</ele>
        <time>2020-01-15T11:50:00.000Z</time>
      </trkpt>
      <trkpt lat="45.65218" lon="6.68789">
        <ele>2877.8000488281</ele>
        <time>2020-01-15T11:50:04.000Z</time>
      </trkpt>
      <trkpt lat="45.65218" lon="6.6879">
        <ele>2878</ele>
        <time>2020-01-15T11:50:05.000Z</time>
      </trkpt>
      <trkpt lat="45.65217" lon="6.68791">
        <ele>2878.6000976562</ele>
        <time>2020-01-15T11:50:10.000Z</time>
      </trkpt>
      <trkpt lat="45.65217" lon="6.68792">
        <ele>2878.8000488281</ele>
        <time>2020-01-15T11:50:12.000Z</time>
      </trkpt>
      <trkpt lat="45.65216" lon="6.68793">
        <ele>2879.6000976562</ele>
        <time>2020-01-15T11:50:15.000Z</time>
      </trkpt>
      <trkpt lat="45.65216" lon="6.68793">
        <ele>2879.8000488281</ele>
        <time>2020-01-15T11:50:16.000Z</time>
      </trkpt>
      <trkpt lat="45.65215" lon="6.68795">
        <ele>2880</ele>
        <time>2020-01-15T11:50:22.000Z</time>
      </trkpt>
      <trkpt lat="45.65212" lon="6.68799">
        <ele>2880.3999023438</ele>
        <time>2020-01-15T11:50:27.000Z</time>
      </trkpt>
      <trkpt lat="45.65213" lon="6.688">
        <ele>2881</ele>
        <time>2020-01-15T11:50:29.000Z</time>
      </trkpt>
      <trkpt lat="45.65213" lon="6.688">
        <ele>2881.3999023438</ele>
        <time>2020-01-15T11:50:32.000Z</time>
      </trkpt>
      <trkpt lat="45.65213" lon="6.688">
        <ele>2882</ele>
        <time>2020-01-15T11:50:38.000Z</time>
      </trkpt>
      <trkpt lat="45.65213" lon="6.688">
        <ele>2883.1999511719</ele>
        <time>2020-01-15T11:50:44.000Z</time>
      </trkpt>
      <trkpt lat="45.65213" lon="6.688">
        <ele>2882.6000976562</ele>
        <time>2020-01-15T11:50:55.000Z</time>
      </trkpt>
      <trkpt lat="45.65213" lon="6.688">
        <ele>2882.1999511719</ele>
        <time>2020-01-15T11:51:11.000Z</time>
      </trkpt>
      <trkpt lat="45.65213" lon="6.688">
        <ele>2882</ele>
        <time>2020-01-15T11:51:12.000Z</time>
      </trkpt>
      <trkpt lat="45.65212" lon="6.68801">
        <ele>2881</ele>
        <time>2020-01-15T11:51:16.000Z</time>
      </trkpt>
      <trkpt lat="45.65212" lon="6.68802">
        <ele>2880.6000976562</ele>
        <time>2020-01-15T11:51:18.000Z</time>
      </trkpt>
      <trkpt lat="45.65212" lon="6.68802">
        <ele>2882</ele>
        <time>2020-01-15T11:51:28.000Z</time>
      </trkpt>
      <trkpt lat="45.65212" lon="6.68805">
        <ele>2881.6000976562</ele>
        <time>2020-01-15T11:51:34.000Z</time>
      </trkpt>
      <trkpt lat="45.65212" lon="6.68805">
        <ele>2882.1999511719</ele>
        <time>2020-01-15T11:51:35.000Z</time>
      </trkpt>
      <trkpt lat="45.65212" lon="6.68805">
        <ele>2883</ele>
        <time>2020-01-15T11:51:40.000Z</time>
      </trkpt>
      <trkpt lat="45.65212" lon="6.68806">
        <ele>2883.6000976562</ele>
        <time>2020-01-15T11:51:45.000Z</time>
      </trkpt>
      <trkpt lat="45.65212" lon="6.68806">
        <ele>2884</ele>
        <time>2020-01-15T11:51:47.000Z</time>
      </trkpt>
      <trkpt lat="45.65212" lon="6.68807">
        <ele>2884.8000488281</ele>
        <time>2020-01-15T11:51:50.000Z</time>
      </trkpt>
      <trkpt lat="45.65212" lon="6.68807">
        <ele>2885.8000488281</ele>
        <time>2020-01-15T11:51:53.000Z</time>
      </trkpt>
      <trkpt lat="45.65212" lon="6.68809">
        <ele>2887</ele>
        <time>2020-01-15T11:51:57.000Z</time>
      </trkpt>
      <trkpt lat="45.65212" lon="6.68809">
        <ele>2887.3999023438</ele>
        <time>2020-01-15T11:52:00.000Z</time>
      </trkpt>
      <trkpt lat="45.65212" lon="6.6881">
        <ele>2888.1999511719</ele>
        <time>2020-01-15T11:52:03.000Z</time>
      </trkpt>
      <trkpt lat="45.65212" lon="6.6881">
        <ele>2889.1999511719</ele>
        <time>2020-01-15T11:52:05.000Z</time>
      </trkpt>
      <trkpt lat="45.65211" lon="6.68811">
        <ele>2889.6000976562</ele>
        <time>2020-01-15T11:52:11.000Z</time>
      </trkpt>
      <trkpt lat="45.6521" lon="6.68811">
        <ele>2890.3999023438</ele>
        <time>2020-01-15T11:52:15.000Z</time>
      </trkpt>
      <trkpt lat="45.6521" lon="6.68811">
        <ele>2891</ele>
        <time>2020-01-15T11:52:18.000Z</time>
      </trkpt>
      <trkpt lat="45.65209" lon="6.68812">
        <ele>2891</ele>
        <time>2020-01-15T11:52:29.000Z</time>
      </trkpt>
      <trkpt lat="45.65208" lon="6.68813">
        <ele>2891</ele>
        <time>2020-01-15T11:52:37.000Z</time>
      </trkpt>
      <trkpt lat="45.65207" lon="6.68814">
        <ele>2891.3999023438</ele>
        <time>2020-01-15T11:52:41.000Z</time>
      </trkpt>
      <trkpt lat="45.65205" lon="6.68816">
        <ele>2892.3999023438</ele>
        <time>2020-01-15T11:52:49.000Z</time>
      </trkpt>
      <trkpt lat="45.65203" lon="6.68817">
        <ele>2893.3999023438</ele>
        <time>2020-01-15T11:52:55.000Z</time>
      </trkpt>
      <trkpt lat="45.65202" lon="6.68818">
        <ele>2894.1999511719</ele>
        <time>2020-01-15T11:53:01.000Z</time>
      </trkpt>
      <trkpt lat="45.65201" lon="6.68818">
        <ele>2894.1999511719</ele>
        <time>2020-01-15T11:53:06.000Z</time>
      </trkpt>
      <trkpt lat="45.65201" lon="6.68818">
        <ele>2894.6000976562</ele>
        <time>2020-01-15T11:53:14.000Z</time>
      </trkpt>
      <trkpt lat="45.65201" lon="6.68818">
        <ele>2895</ele>
        <time>2020-01-15T11:53:17.000Z</time>
      </trkpt>
      <trkpt lat="45.652" lon="6.68819">
        <ele>2895.6000976562</ele>
        <time>2020-01-15T11:53:22.000Z</time>
      </trkpt>
      <trkpt lat="45.65199" lon="6.68819">
        <ele>2896.8000488281</ele>
        <time>2020-01-15T11:53:32.000Z</time>
      </trkpt>
      <trkpt lat="45.65198" lon="6.6882">
        <ele>2897</ele>
        <time>2020-01-15T11:53:33.000Z</time>
      </trkpt>
      <trkpt lat="45.65199" lon="6.6882">
        <ele>2897</ele>
        <time>2020-01-15T11:53:40.000Z</time>
      </trkpt>
      <trkpt lat="45.65198" lon="6.6882">
        <ele>2897.1999511719</ele>
        <time>2020-01-15T11:53:46.000Z</time>
      </trkpt>
      <trkpt lat="45.65198" lon="6.6882">
        <ele>2896.3999023438</ele>
        <time>2020-01-15T11:53:57.000Z</time>
      </trkpt>
      <trkpt lat="45.65198" lon="6.6882">
        <ele>2898.3999023438</ele>
        <time>2020-01-15T11:54:02.000Z</time>
      </trkpt>
      <trkpt lat="45.65197" lon="6.68821">
        <ele>2899.3999023438</ele>
        <time>2020-01-15T11:54:04.000Z</time>
      </trkpt>
      <trkpt lat="45.65197" lon="6.68821">
        <ele>2898.3999023438</ele>
        <time>2020-01-15T11:54:12.000Z</time>
      </trkpt>
      <trkpt lat="45.65196" lon="6.68822">
        <ele>2899.8000488281</ele>
        <time>2020-01-15T11:54:30.000Z</time>
      </trkpt>
      <trkpt lat="45.65195" lon="6.68822">
        <ele>2900.6000976562</ele>
        <time>2020-01-15T11:54:35.000Z</time>
      </trkpt>
      <trkpt lat="45.65195" lon="6.68822">
        <ele>2900.8000488281</ele>
        <time>2020-01-15T11:54:38.000Z</time>
      </trkpt>
      <trkpt lat="45.65195" lon="6.68823">
        <ele>2901</ele>
        <time>2020-01-15T11:54:46.000Z</time>
      </trkpt>
      <trkpt lat="45.65194" lon="6.68824">
        <ele>2901.8000488281</ele>
        <time>2020-01-15T11:54:51.000Z</time>
      </trkpt>
      <trkpt lat="45.65192" lon="6.68825">
        <ele>2902.8000488281</ele>
        <time>2020-01-15T11:54:56.000Z</time>
      </trkpt>
      <trkpt lat="45.6519" lon="6.68827">
        <ele>2904</ele>
        <time>2020-01-15T11:55:02.000Z</time>
      </trkpt>
      <trkpt lat="45.65189" lon="6.68829">
        <ele>2905</ele>
        <time>2020-01-15T11:55:08.000Z</time>
      </trkpt>
      <trkpt lat="45.65189" lon="6.68829">
        <ele>2905.1999511719</ele>
        <time>2020-01-15T11:55:09.000Z</time>
      </trkpt>
      <trkpt lat="45.65187" lon="6.68831">
        <ele>2905.6000976562</ele>
        <time>2020-01-15T11:55:15.000Z</time>
      </trkpt>
      <trkpt lat="45.65187" lon="6.68831">
        <ele>2906</ele>
        <time>2020-01-15T11:55:17.000Z</time>
      </trkpt>
      <trkpt lat="45.65187" lon="6.68831">
        <ele>2906.8000488281</ele>
        <time>2020-01-15T11:55:21.000Z</time>
      </trkpt>
      <trkpt lat="45.65187" lon="6.68831">
        <ele>2907.1999511719</ele>
        <time>2020-01-15T11:55:24.000Z</time>
      </trkpt>
      <trkpt lat="45.65185" lon="6.68831">
        <ele>2907.3999023438</ele>
        <time>2020-01-15T11:55:29.000Z</time>
      </trkpt>
      <trkpt lat="45.65185" lon="6.68832">
        <ele>2907.6000976562</ele>
        <time>2020-01-15T11:55:36.000Z</time>
      </trkpt>
      <trkpt lat="45.65185" lon="6.68832">
        <ele>2908.3999023438</ele>
        <time>2020-01-15T11:55:41.000Z</time>
      </trkpt>
      <trkpt lat="45.65185" lon="6.68832">
        <ele>2908.3999023438</ele>
        <time>2020-01-15T11:55:49.000Z</time>
      </trkpt>
      <trkpt lat="45.65183" lon="6.68832">
        <ele>2907.8000488281</ele>
        <time>2020-01-15T11:55:55.000Z</time>
      </trkpt>
      <trkpt lat="45.65183" lon="6.68833">
        <ele>2908.1999511719</ele>
        <time>2020-01-15T11:56:00.000Z</time>
      </trkpt>
      <trkpt lat="45.65181" lon="6.68835">
        <ele>2909</ele>
        <time>2020-01-15T11:56:05.000Z</time>
      </trkpt>
      <trkpt lat="45.65181" lon="6.68835">
        <ele>2909.6000976562</ele>
        <time>2020-01-15T11:56:08.000Z</time>
      </trkpt>
      <trkpt lat="45.65181" lon="6.68835">
        <ele>2910.1999511719</ele>
        <time>2020-01-15T11:56:11.000Z</time>
      </trkpt>
      <trkpt lat="45.65181" lon="6.68835">
        <ele>2910.6000976562</ele>
        <time>2020-01-15T11:56:13.000Z</time>
      </trkpt>
      <trkpt lat="45.6518" lon="6.68836">
        <ele>2910.6000976562</ele>
        <time>2020-01-15T11:56:18.000Z</time>
      </trkpt>
      <trkpt lat="45.65179" lon="6.68836">
        <ele>2911.6000976562</ele>
        <time>2020-01-15T11:56:25.000Z</time>
      </trkpt>
      <trkpt lat="45.65179" lon="6.68836">
        <ele>2911.6000976562</ele>
        <time>2020-01-15T11:56:26.000Z</time>
      </trkpt>
      <trkpt lat="45.65178" lon="6.68837">
        <ele>2912.1999511719</ele>
        <time>2020-01-15T11:56:33.000Z</time>
      </trkpt>
      <trkpt lat="45.65178" lon="6.68837">
        <ele>2912.8000488281</ele>
        <time>2020-01-15T11:56:36.000Z</time>
      </trkpt>
      <trkpt lat="45.65178" lon="6.68837">
        <ele>2913.8000488281</ele>
        <time>2020-01-15T11:56:41.000Z</time>
      </trkpt>
      <trkpt lat="45.65178" lon="6.68837">
        <ele>2914</ele>
        <time>2020-01-15T11:56:45.000Z</time>
      </trkpt>
      <trkpt lat="45.65178" lon="6.68841">
        <ele>2913.8000488281</ele>
        <time>2020-01-15T11:56:52.000Z</time>
      </trkpt>
      <trkpt lat="45.65178" lon="6.68849">
        <ele>2914.6000976562</ele>
        <time>2020-01-15T11:57:01.000Z</time>
      </trkpt>
      <trkpt lat="45.65179" lon="6.6885">
        <ele>2914.8000488281</ele>
        <time>2020-01-15T11:57:04.000Z</time>
      </trkpt>
      <trkpt lat="45.65178" lon="6.6885">
        <ele>2915.8000488281</ele>
        <time>2020-01-15T11:57:09.000Z</time>
      </trkpt>
      <trkpt lat="45.65178" lon="6.6885">
        <ele>2916.1999511719</ele>
        <time>2020-01-15T11:57:12.000Z</time>
      </trkpt>
      <trkpt lat="45.65178" lon="6.6885">
        <ele>2916.6000976562</ele>
        <time>2020-01-15T11:57:23.000Z</time>
      </trkpt>
      <trkpt lat="45.65178" lon="6.6885">
        <ele>2916.8000488281</ele>
        <time>2020-01-15T11:57:25.000Z</time>
      </trkpt>
      <trkpt lat="45.65177" lon="6.68848">
        <ele>2918</ele>
        <time>2020-01-15T11:57:28.000Z</time>
      </trkpt>
      <trkpt lat="45.65177" lon="6.68845">
        <ele>2919.1999511719</ele>
        <time>2020-01-15T11:57:30.000Z</time>
      </trkpt>
      <trkpt lat="45.65177" lon="6.68845">
        <ele>2919.8000488281</ele>
        <time>2020-01-15T11:57:34.000Z</time>
      </trkpt>
      <trkpt lat="45.65177" lon="6.68846">
        <ele>2920.1999511719</ele>
        <time>2020-01-15T11:57:42.000Z</time>
      </trkpt>
      <trkpt lat="45.65177" lon="6.68846">
        <ele>2920.3999023438</ele>
        <time>2020-01-15T11:57:43.000Z</time>
      </trkpt>
      <trkpt lat="45.65177" lon="6.68846">
        <ele>2921.3999023438</ele>
        <time>2020-01-15T11:57:46.000Z</time>
      </trkpt>
      <trkpt lat="45.65177" lon="6.68846">
        <ele>2922</ele>
        <time>2020-01-15T11:57:52.000Z</time>
      </trkpt>
      <trkpt lat="45.65177" lon="6.68846">
        <ele>2922.3999023438</ele>
        <time>2020-01-15T11:57:59.000Z</time>
      </trkpt>
      <trkpt lat="45.65177" lon="6.68846">
        <ele>2922.6000976562</ele>
        <time>2020-01-15T11:58:01.000Z</time>
      </trkpt>
      <trkpt lat="45.65176" lon="6.68846">
        <ele>2923.1999511719</ele>
        <time>2020-01-15T11:58:06.000Z</time>
      </trkpt>
      <trkpt lat="45.65176" lon="6.68846">
        <ele>2923.8000488281</ele>
        <time>2020-01-15T11:58:08.000Z</time>
      </trkpt>
      <trkpt lat="45.65175" lon="6.68846">
        <ele>2924.1999511719</ele>
        <time>2020-01-15T11:58:11.000Z</time>
      </trkpt>
      <trkpt lat="45.65172" lon="6.68847">
        <ele>2924.3999023438</ele>
        <time>2020-01-15T11:58:16.000Z</time>
      </trkpt>
      <trkpt lat="45.65173" lon="6.68847">
        <ele>2924.1999511719</ele>
        <time>2020-01-15T11:58:17.000Z</time>
      </trkpt>
      <trkpt lat="45.65169" lon="6.68848">
        <ele>2923.1999511719</ele>
        <time>2020-01-15T11:58:22.000Z</time>
      </trkpt>
      <trkpt lat="45.65169" lon="6.68848">
        <ele>2924.1999511719</ele>
        <time>2020-01-15T11:58:32.000Z</time>
      </trkpt>
      <trkpt lat="45.65168" lon="6.68848">
        <ele>2923.8000488281</ele>
        <time>2020-01-15T11:58:45.000Z</time>
      </trkpt>
      <trkpt lat="45.65168" lon="6.68848">
        <ele>2924.6000976562</ele>
        <time>2020-01-15T11:58:57.000Z</time>
      </trkpt>
      <trkpt lat="45.65168" lon="6.68848">
        <ele>2924</ele>
        <time>2020-01-15T11:59:12.000Z</time>
      </trkpt>
      <trkpt lat="45.65168" lon="6.68848">
        <ele>2924.8000488281</ele>
        <time>2020-01-15T11:59:23.000Z</time>
      </trkpt>
      <trkpt lat="45.65168" lon="6.68849">
        <ele>2924.8000488281</ele>
        <time>2020-01-15T11:59:30.000Z</time>
      </trkpt>
      <trkpt lat="45.65168" lon="6.68849">
        <ele>2925.8000488281</ele>
        <time>2020-01-15T11:59:39.000Z</time>
      </trkpt>
      <trkpt lat="45.65168" lon="6.68849">
        <ele>2924.8000488281</ele>
        <time>2020-01-15T11:59:51.000Z</time>
      </trkpt>
      <trkpt lat="45.65168" lon="6.68849">
        <ele>2924.8000488281</ele>
        <time>2020-01-15T11:59:52.000Z</time>
      </trkpt>
      <trkpt lat="45.65168" lon="6.68849">
        <ele>2925</ele>
        <time>2020-01-15T11:59:57.000Z</time>
      </trkpt>
      <trkpt lat="45.65167" lon="6.68849">
        <ele>2925</ele>
        <time>2020-01-15T12:00:03.000Z</time>
      </trkpt>
      <trkpt lat="45.65163" lon="6.68849">
        <ele>2924.3999023438</ele>
        <time>2020-01-15T12:00:08.000Z</time>
      </trkpt>
      <trkpt lat="45.65159" lon="6.68848">
        <ele>2924.3999023438</ele>
        <time>2020-01-15T12:00:13.000Z</time>
      </trkpt>
      <trkpt lat="45.65154" lon="6.6885">
        <ele>2924.6000976562</ele>
        <time>2020-01-15T12:00:18.000Z</time>
      </trkpt>
      <trkpt lat="45.65151" lon="6.68851">
        <ele>2924.8000488281</ele>
        <time>2020-01-15T12:00:25.000Z</time>
      </trkpt>
      <trkpt lat="45.6515" lon="6.68851">
        <ele>2924.1999511719</ele>
        <time>2020-01-15T12:00:30.000Z</time>
      </trkpt>
      <trkpt lat="45.65148" lon="6.68852">
        <ele>2923.6000976562</ele>
        <time>2020-01-15T12:00:33.000Z</time>
      </trkpt>
      <trkpt lat="45.65144" lon="6.68853">
        <ele>2922.8000488281</ele>
        <time>2020-01-15T12:00:38.000Z</time>
      </trkpt>
      <trkpt lat="45.65141" lon="6.68854">
        <ele>2922.6000976562</ele>
        <time>2020-01-15T12:00:41.000Z</time>
      </trkpt>
      <trkpt lat="45.65141" lon="6.68854">
        <ele>2922.3999023438</ele>
        <time>2020-01-15T12:00:42.000Z</time>
      </trkpt>
      <trkpt lat="45.65141" lon="6.68854">
        <ele>2921.6000976562</ele>
        <time>2020-01-15T12:00:46.000Z</time>
      </trkpt>
      <trkpt lat="45.65139" lon="6.68854">
        <ele>2921.1999511719</ele>
        <time>2020-01-15T12:00:51.000Z</time>
      </trkpt>
      <trkpt lat="45.65135" lon="6.68854">
        <ele>2921.3999023438</ele>
        <time>2020-01-15T12:00:57.000Z</time>
      </trkpt>
      <trkpt lat="45.65132" lon="6.68853">
        <ele>2921.6000976562</ele>
        <time>2020-01-15T12:01:01.000Z</time>
      </trkpt>
      <trkpt lat="45.65129" lon="6.68853">
        <ele>2922.3999023438</ele>
        <time>2020-01-15T12:01:06.000Z</time>
      </trkpt>
      <trkpt lat="45.65129" lon="6.68853">
        <ele>2922.6000976562</ele>
        <time>2020-01-15T12:01:08.000Z</time>
      </trkpt>
      <trkpt lat="45.65127" lon="6.68854">
        <ele>2922.8000488281</ele>
        <time>2020-01-15T12:01:10.000Z</time>
      </trkpt>
      <trkpt lat="45.65126" lon="6.68854">
        <ele>2922.6000976562</ele>
        <time>2020-01-15T12:01:15.000Z</time>
      </trkpt>
      <trkpt lat="45.65126" lon="6.68854">
        <ele>2921.8000488281</ele>
        <time>2020-01-15T12:01:32.000Z</time>
      </trkpt>
      <trkpt lat="45.65126" lon="6.68854">
        <ele>2922.1999511719</ele>
        <time>2020-01-15T12:01:46.000Z</time>
      </trkpt>
      <trkpt lat="45.65125" lon="6.68854">
        <ele>2922.8000488281</ele>
        <time>2020-01-15T12:01:56.000Z</time>
      </trkpt>
      <trkpt lat="45.65125" lon="6.68854">
        <ele>2922.8000488281</ele>
        <time>2020-01-15T12:02:15.000Z</time>
      </trkpt>
      <trkpt lat="45.65125" lon="6.68854">
        <ele>2922.1999511719</ele>
        <time>2020-01-15T12:02:25.000Z</time>
      </trkpt>
      <trkpt lat="45.65125" lon="6.68854">
        <ele>2922.6000976562</ele>
        <time>2020-01-15T12:02:37.000Z</time>
      </trkpt>
      <trkpt lat="45.65125" lon="6.68854">
        <ele>2922.6000976562</ele>
        <time>2020-01-15T12:02:50.000Z</time>
      </trkpt>
      <trkpt lat="45.65125" lon="6.68854">
        <ele>2922.6000976562</ele>
        <time>2020-01-15T12:03:03.000Z</time>
      </trkpt>
      <trkpt lat="45.65125" lon="6.68855">
        <ele>2922.6000976562</ele>
        <time>2020-01-15T12:03:16.000Z</time>
      </trkpt>
      <trkpt lat="45.65125" lon="6.68855">
        <ele>2922.1999511719</ele>
        <time>2020-01-15T12:03:30.000Z</time>
      </trkpt>
      <trkpt lat="45.65125" lon="6.68855">
        <ele>2921.8000488281</ele>
        <time>2020-01-15T12:03:41.000Z</time>
      </trkpt>
      <trkpt lat="45.65125" lon="6.68855">
        <ele>2922.1999511719</ele>
        <time>2020-01-15T12:03:48.000Z</time>
      </trkpt>
      <trkpt lat="45.65125" lon="6.68855">
        <ele>2922.8000488281</ele>
        <time>2020-01-15T12:04:02.000Z</time>
      </trkpt>
      <trkpt lat="45.65125" lon="6.68855">
        <ele>2923</ele>
        <time>2020-01-15T12:04:14.000Z</time>
      </trkpt>
      <trkpt lat="45.65125" lon="6.68855">
        <ele>2923.3999023438</ele>
        <time>2020-01-15T12:04:29.000Z</time>
      </trkpt>
      <trkpt lat="45.65125" lon="6.68855">
        <ele>2923.6000976562</ele>
        <time>2020-01-15T12:04:45.000Z</time>
      </trkpt>
      <trkpt lat="45.65125" lon="6.68855">
        <ele>2923</ele>
        <time>2020-01-15T12:05:05.000Z</time>
      </trkpt>
      <trkpt lat="45.65125" lon="6.68855">
        <ele>2923.3999023438</ele>
        <time>2020-01-15T12:05:20.000Z</time>
      </trkpt>
      <trkpt lat="45.65125" lon="6.68855">
        <ele>2923.6000976562</ele>
        <time>2020-01-15T12:05:23.000Z</time>
      </trkpt>
      <trkpt lat="45.65125" lon="6.68855">
        <ele>2924</ele>
        <time>2020-01-15T12:05:35.000Z</time>
      </trkpt>
      <trkpt lat="45.65125" lon="6.68855">
        <ele>2924.6000976562</ele>
        <time>2020-01-15T12:05:43.000Z</time>
      </trkpt>
      <trkpt lat="45.65125" lon="6.68855">
        <ele>2923.8000488281</ele>
        <time>2020-01-15T12:05:50.000Z</time>
      </trkpt>
      <trkpt lat="45.65125" lon="6.68855">
        <ele>2923.6000976562</ele>
        <time>2020-01-15T12:05:51.000Z</time>
      </trkpt>
      <trkpt lat="45.65125" lon="6.68855">
        <ele>2923</ele>
        <time>2020-01-15T12:06:09.000Z</time>
      </trkpt>
      <trkpt lat="45.65125" lon="6.68855">
        <ele>2923.1999511719</ele>
        <time>2020-01-15T12:06:29.000Z</time>
      </trkpt>
      <trkpt lat="45.65125" lon="6.68855">
        <ele>2923</ele>
        <time>2020-01-15T12:06:44.000Z</time>
      </trkpt>
      <trkpt lat="45.65125" lon="6.68855">
        <ele>2923.1999511719</ele>
        <time>2020-01-15T12:06:58.000Z</time>
      </trkpt>
      <trkpt lat="45.65125" lon="6.68855">
        <ele>2923.3999023438</ele>
        <time>2020-01-15T12:07:10.000Z</time>
      </trkpt>
      <trkpt lat="45.65125" lon="6.68855">
        <ele>2923.6000976562</ele>
        <time>2020-01-15T12:07:31.000Z</time>
      </trkpt>
      <trkpt lat="45.65125" lon="6.68855">
        <ele>2923.8000488281</ele>
        <time>2020-01-15T12:07:45.000Z</time>
      </trkpt>
      <trkpt lat="45.65125" lon="6.68855">
        <ele>2923.3999023438</ele>
        <time>2020-01-15T12:07:56.000Z</time>
      </trkpt>
      <trkpt lat="45.65125" lon="6.68855">
        <ele>2922.3999023438</ele>
        <time>2020-01-15T12:07:58.000Z</time>
      </trkpt>
      <trkpt lat="45.65125" lon="6.68855">
        <ele>2922.6000976562</ele>
        <time>2020-01-15T12:08:10.000Z</time>
      </trkpt>
      <trkpt lat="45.65125" lon="6.68855">
        <ele>2923.6000976562</ele>
        <time>2020-01-15T12:08:16.000Z</time>
      </trkpt>
      <trkpt lat="45.65125" lon="6.68855">
        <ele>2923.6000976562</ele>
        <time>2020-01-15T12:08:17.000Z</time>
      </trkpt>
      <trkpt lat="45.65125" lon="6.68855">
        <ele>2922.3999023438</ele>
        <time>2020-01-15T12:08:23.000Z</time>
      </trkpt>
      <trkpt lat="45.65125" lon="6.68855">
        <ele>2922.8000488281</ele>
        <time>2020-01-15T12:08:32.000Z</time>
      </trkpt>
      <trkpt lat="45.65125" lon="6.68855">
        <ele>2923.6000976562</ele>
        <time>2020-01-15T12:08:42.000Z</time>
      </trkpt>
      <trkpt lat="45.65125" lon="6.68855">
        <ele>2924</ele>
        <time>2020-01-15T12:08:46.000Z</time>
      </trkpt>
      <trkpt lat="45.65125" lon="6.68855">
        <ele>2923.3999023438</ele>
        <time>2020-01-15T12:08:58.000Z</time>
      </trkpt>
      <trkpt lat="45.65125" lon="6.68855">
        <ele>2923.6000976562</ele>
        <time>2020-01-15T12:08:59.000Z</time>
      </trkpt>
      <trkpt lat="45.65125" lon="6.68855">
        <ele>2922.6000976562</ele>
        <time>2020-01-15T12:09:06.000Z</time>
      </trkpt>
      <trkpt lat="45.65125" lon="6.68855">
        <ele>2921.3999023438</ele>
        <time>2020-01-15T12:09:09.000Z</time>
      </trkpt>
      <trkpt lat="45.65125" lon="6.68855">
        <ele>2922</ele>
        <time>2020-01-15T12:09:11.000Z</time>
      </trkpt>
      <trkpt lat="45.65125" lon="6.68855">
        <ele>2922.6000976562</ele>
        <time>2020-01-15T12:09:13.000Z</time>
      </trkpt>
      <trkpt lat="45.65125" lon="6.68855">
        <ele>2922.8000488281</ele>
        <time>2020-01-15T12:09:22.000Z</time>
      </trkpt>
      <trkpt lat="45.65125" lon="6.68855">
        <ele>2922.6000976562</ele>
        <time>2020-01-15T12:09:37.000Z</time>
      </trkpt>
      <trkpt lat="45.65125" lon="6.68855">
        <ele>2923.6000976562</ele>
        <time>2020-01-15T12:09:49.000Z</time>
      </trkpt>
      <trkpt lat="45.65125" lon="6.68855">
        <ele>2923.6000976562</ele>
        <time>2020-01-15T12:09:52.000Z</time>
      </trkpt>
      <trkpt lat="45.65125" lon="6.68855">
        <ele>2923.6000976562</ele>
        <time>2020-01-15T12:10:07.000Z</time>
      </trkpt>
      <trkpt lat="45.65125" lon="6.68855">
        <ele>2923.3999023438</ele>
        <time>2020-01-15T12:10:20.000Z</time>
      </trkpt>
      <trkpt lat="45.65125" lon="6.68855">
        <ele>2922.3999023438</ele>
        <time>2020-01-15T12:10:26.000Z</time>
      </trkpt>
      <trkpt lat="45.65125" lon="6.68855">
        <ele>2921.8000488281</ele>
        <time>2020-01-15T12:10:36.000Z</time>
      </trkpt>
      <trkpt lat="45.65125" lon="6.68855">
        <ele>2922.3999023438</ele>
        <time>2020-01-15T12:10:52.000Z</time>
      </trkpt>
      <trkpt lat="45.65125" lon="6.68855">
        <ele>2922.1999511719</ele>
        <time>2020-01-15T12:11:01.000Z</time>
      </trkpt>
      <trkpt lat="45.65125" lon="6.68855">
        <ele>2922.1999511719</ele>
        <time>2020-01-15T12:11:12.000Z</time>
      </trkpt>
      <trkpt lat="45.65125" lon="6.68855">
        <ele>2921.6000976562</ele>
        <time>2020-01-15T12:11:23.000Z</time>
      </trkpt>
      <trkpt lat="45.65125" lon="6.68855">
        <ele>2922.6000976562</ele>
        <time>2020-01-15T12:11:36.000Z</time>
      </trkpt>
      <trkpt lat="45.65125" lon="6.68855">
        <ele>2923.1999511719</ele>
        <time>2020-01-15T12:11:50.000Z</time>
      </trkpt>
      <trkpt lat="45.65125" lon="6.68855">
        <ele>2922.8000488281</ele>
        <time>2020-01-15T12:12:04.000Z</time>
      </trkpt>
      <trkpt lat="45.65125" lon="6.68855">
        <ele>2922.6000976562</ele>
        <time>2020-01-15T12:12:23.000Z</time>
      </trkpt>
      <trkpt lat="45.65124" lon="6.68855">
        <ele>2922.1999511719</ele>
        <time>2020-01-15T12:12:38.000Z</time>
      </trkpt>
      <trkpt lat="45.65124" lon="6.68855">
        <ele>2922.8000488281</ele>
        <time>2020-01-15T12:12:52.000Z</time>
      </trkpt>
      <trkpt lat="45.65124" lon="6.68855">
        <ele>2922.6000976562</ele>
        <time>2020-01-15T12:13:08.000Z</time>
      </trkpt>
      <trkpt lat="45.65125" lon="6.68855">
        <ele>2922.6000976562</ele>
        <time>2020-01-15T12:13:28.000Z</time>
      </trkpt>
      <trkpt lat="45.65123" lon="6.68856">
        <ele>2922.3999023438</ele>
        <time>2020-01-15T12:13:35.000Z</time>
      </trkpt>
      <trkpt lat="45.65119" lon="6.68859">
        <ele>2923.1999511719</ele>
        <time>2020-01-15T12:13:41.000Z</time>
      </trkpt>
      <trkpt lat="45.65118" lon="6.68859">
        <ele>2922.6000976562</ele>
        <time>2020-01-15T12:13:46.000Z</time>
      </trkpt>
      <trkpt lat="45.65118" lon="6.68859">
        <ele>2923.1999511719</ele>
        <time>2020-01-15T12:14:01.000Z</time>
      </trkpt>
      <trkpt lat="45.65118" lon="6.68859">
        <ele>2922</ele>
        <time>2020-01-15T12:14:16.000Z</time>
      </trkpt>
      <trkpt lat="45.65118" lon="6.68859">
        <ele>2922.1999511719</ele>
        <time>2020-01-15T12:14:24.000Z</time>
      </trkpt>
      <trkpt lat="45.65118" lon="6.68859">
        <ele>2922.3999023438</ele>
        <time>2020-01-15T12:14:38.000Z</time>
      </trkpt>
      <trkpt lat="45.65118" lon="6.68859">
        <ele>2923.3999023438</ele>
        <time>2020-01-15T12:14:44.000Z</time>
      </trkpt>
      <trkpt lat="45.65118" lon="6.68859">
        <ele>2923.6000976562</ele>
        <time>2020-01-15T12:14:47.000Z</time>
      </trkpt>
      <trkpt lat="45.65118" lon="6.68859">
        <ele>2922.8000488281</ele>
        <time>2020-01-15T12:15:04.000Z</time>
      </trkpt>
      <trkpt lat="45.65118" lon="6.68859">
        <ele>2923</ele>
        <time>2020-01-15T12:15:24.000Z</time>
      </trkpt>
      <trkpt lat="45.6512" lon="6.68858">
        <ele>2922.8000488281</ele>
        <time>2020-01-15T12:15:32.000Z</time>
      </trkpt>
      <trkpt lat="45.65121" lon="6.68857">
        <ele>2923</ele>
        <time>2020-01-15T12:15:38.000Z</time>
      </trkpt>
      <trkpt lat="45.65123" lon="6.68858">
        <ele>2923</ele>
        <time>2020-01-15T12:15:44.000Z</time>
      </trkpt>
      <trkpt lat="45.65124" lon="6.68857">
        <ele>2922.8000488281</ele>
        <time>2020-01-15T12:15:49.000Z</time>
      </trkpt>
      <trkpt lat="45.65124" lon="6.68857">
        <ele>2922.6000976562</ele>
        <time>2020-01-15T12:15:53.000Z</time>
      </trkpt>
      <trkpt lat="45.65124" lon="6.68857">
        <ele>2923.6000976562</ele>
        <time>2020-01-15T12:16:08.000Z</time>
      </trkpt>
      <trkpt lat="45.65124" lon="6.68857">
        <ele>2923.8000488281</ele>
        <time>2020-01-15T12:16:22.000Z</time>
      </trkpt>
      <trkpt lat="45.65124" lon="6.68857">
        <ele>2923.3999023438</ele>
        <time>2020-01-15T12:16:38.000Z</time>
      </trkpt>
      <trkpt lat="45.65124" lon="6.68857">
        <ele>2923.1999511719</ele>
        <time>2020-01-15T12:16:53.000Z</time>
      </trkpt>
      <trkpt lat="45.65124" lon="6.68857">
        <ele>2923</ele>
        <time>2020-01-15T12:17:06.000Z</time>
      </trkpt>
      <trkpt lat="45.65124" lon="6.68857">
        <ele>2923</ele>
        <time>2020-01-15T12:17:20.000Z</time>
      </trkpt>
      <trkpt lat="45.65124" lon="6.68857">
        <ele>2923.3999023438</ele>
        <time>2020-01-15T12:17:30.000Z</time>
      </trkpt>
      <trkpt lat="45.65124" lon="6.68857">
        <ele>2922.6000976562</ele>
        <time>2020-01-15T12:17:40.000Z</time>
      </trkpt>
      <trkpt lat="45.65124" lon="6.68857">
        <ele>2923</ele>
        <time>2020-01-15T12:17:56.000Z</time>
      </trkpt>
      <trkpt lat="45.65124" lon="6.68857">
        <ele>2922.6000976562</ele>
        <time>2020-01-15T12:18:12.000Z</time>
      </trkpt>
      <trkpt lat="45.65124" lon="6.68857">
        <ele>2923</ele>
        <time>2020-01-15T12:18:31.000Z</time>
      </trkpt>
      <trkpt lat="45.65124" lon="6.68857">
        <ele>2923.1999511719</ele>
        <time>2020-01-15T12:18:46.000Z</time>
      </trkpt>
      <trkpt lat="45.65124" lon="6.68857">
        <ele>2923.3999023438</ele>
        <time>2020-01-15T12:19:06.000Z</time>
      </trkpt>
      <trkpt lat="45.65124" lon="6.68857">
        <ele>2923.6000976562</ele>
        <time>2020-01-15T12:19:22.000Z</time>
      </trkpt>
      <trkpt lat="45.65124" lon="6.68857">
        <ele>2923.3999023438</ele>
        <time>2020-01-15T12:19:33.000Z</time>
      </trkpt>
      <trkpt lat="45.65124" lon="6.68857">
        <ele>2922.6000976562</ele>
        <time>2020-01-15T12:19:49.000Z</time>
      </trkpt>
      <trkpt lat="45.65124" lon="6.68857">
        <ele>2922.3999023438</ele>
        <time>2020-01-15T12:19:51.000Z</time>
      </trkpt>
      <trkpt lat="45.65124" lon="6.68857">
        <ele>2923.3999023438</ele>
        <time>2020-01-15T12:19:56.000Z</time>
      </trkpt>
      <trkpt lat="45.65124" lon="6.68857">
        <ele>2923.1999511719</ele>
        <time>2020-01-15T12:20:06.000Z</time>
      </trkpt>
      <trkpt lat="45.65124" lon="6.68857">
        <ele>2923</ele>
        <time>2020-01-15T12:20:20.000Z</time>
      </trkpt>
      <trkpt lat="45.65124" lon="6.68857">
        <ele>2922.3999023438</ele>
        <time>2020-01-15T12:20:34.000Z</time>
      </trkpt>
      <trkpt lat="45.65124" lon="6.68857">
        <ele>2922.3999023438</ele>
        <time>2020-01-15T12:20:39.000Z</time>
      </trkpt>
      <trkpt lat="45.65124" lon="6.68857">
        <ele>2922.3999023438</ele>
        <time>2020-01-15T12:20:47.000Z</time>
      </trkpt>
      <trkpt lat="45.65124" lon="6.68857">
        <ele>2923.1999511719</ele>
        <time>2020-01-15T12:21:01.000Z</time>
      </trkpt>
      <trkpt lat="45.65124" lon="6.68857">
        <ele>2922.8000488281</ele>
        <time>2020-01-15T12:21:15.000Z</time>
      </trkpt>
      <trkpt lat="45.65124" lon="6.68857">
        <ele>2923.1999511719</ele>
        <time>2020-01-15T12:21:29.000Z</time>
      </trkpt>
      <trkpt lat="45.65124" lon="6.68857">
        <ele>2923</ele>
        <time>2020-01-15T12:21:41.000Z</time>
      </trkpt>
      <trkpt lat="45.65124" lon="6.68857">
        <ele>2923.3999023438</ele>
        <time>2020-01-15T12:21:44.000Z</time>
      </trkpt>
      <trkpt lat="45.65124" lon="6.68857">
        <ele>2923.8000488281</ele>
        <time>2020-01-15T12:21:53.000Z</time>
      </trkpt>
      <trkpt lat="45.65124" lon="6.68857">
        <ele>2923</ele>
        <time>2020-01-15T12:22:07.000Z</time>
      </trkpt>
      <trkpt lat="45.65124" lon="6.68857">
        <ele>2922.3999023438</ele>
        <time>2020-01-15T12:22:22.000Z</time>
      </trkpt>
      <trkpt lat="45.65124" lon="6.68857">
        <ele>2922.1999511719</ele>
        <time>2020-01-15T12:22:27.000Z</time>
      </trkpt>
      <trkpt lat="45.65124" lon="6.68857">
        <ele>2922.3999023438</ele>
        <time>2020-01-15T12:22:40.000Z</time>
      </trkpt>
      <trkpt lat="45.65124" lon="6.68857">
        <ele>2922.1999511719</ele>
        <time>2020-01-15T12:22:51.000Z</time>
      </trkpt>
      <trkpt lat="45.65124" lon="6.68857">
        <ele>2922.8000488281</ele>
        <time>2020-01-15T12:23:04.000Z</time>
      </trkpt>
      <trkpt lat="45.65124" lon="6.68857">
        <ele>2922.1999511719</ele>
        <time>2020-01-15T12:23:22.000Z</time>
      </trkpt>
      <trkpt lat="45.65124" lon="6.68857">
        <ele>2922.6000976562</ele>
        <time>2020-01-15T12:23:42.000Z</time>
      </trkpt>
      <trkpt lat="45.65124" lon="6.68857">
        <ele>2922.6000976562</ele>
        <time>2020-01-15T12:23:55.000Z</time>
      </trkpt>
      <trkpt lat="45.65124" lon="6.68857">
        <ele>2922.6000976562</ele>
        <time>2020-01-15T12:24:11.000Z</time>
      </trkpt>
      <trkpt lat="45.65124" lon="6.68857">
        <ele>2923</ele>
        <time>2020-01-15T12:24:27.000Z</time>
      </trkpt>
      <trkpt lat="45.65124" lon="6.68857">
        <ele>2922.8000488281</ele>
        <time>2020-01-15T12:24:38.000Z</time>
      </trkpt>
      <trkpt lat="45.65124" lon="6.68857">
        <ele>2922.8000488281</ele>
        <time>2020-01-15T12:24:55.000Z</time>
      </trkpt>
      <trkpt lat="45.65124" lon="6.68857">
        <ele>2923</ele>
        <time>2020-01-15T12:25:11.000Z</time>
      </trkpt>
      <trkpt lat="45.65124" lon="6.68857">
        <ele>2922.6000976562</ele>
        <time>2020-01-15T12:25:26.000Z</time>
      </trkpt>
      <trkpt lat="45.65124" lon="6.68857">
        <ele>2923</ele>
        <time>2020-01-15T12:25:41.000Z</time>
      </trkpt>
      <trkpt lat="45.65124" lon="6.68857">
        <ele>2922.6000976562</ele>
        <time>2020-01-15T12:25:54.000Z</time>
      </trkpt>
      <trkpt lat="45.65124" lon="6.68857">
        <ele>2923</ele>
        <time>2020-01-15T12:26:10.000Z</time>
      </trkpt>
      <trkpt lat="45.65124" lon="6.68857">
        <ele>2923.6000976562</ele>
        <time>2020-01-15T12:26:22.000Z</time>
      </trkpt>
      <trkpt lat="45.65124" lon="6.68857">
        <ele>2922.6000976562</ele>
        <time>2020-01-15T12:26:28.000Z</time>
      </trkpt>
      <trkpt lat="45.65124" lon="6.68857">
        <ele>2923.6000976562</ele>
        <time>2020-01-15T12:26:33.000Z</time>
      </trkpt>
      <trkpt lat="45.65124" lon="6.68857">
        <ele>2923.3999023438</ele>
        <time>2020-01-15T12:26:44.000Z</time>
      </trkpt>
      <trkpt lat="45.65124" lon="6.68857">
        <ele>2923</ele>
        <time>2020-01-15T12:26:56.000Z</time>
      </trkpt>
      <trkpt lat="45.65123" lon="6.6886">
        <ele>2923</ele>
        <time>2020-01-15T12:27:04.000Z</time>
      </trkpt>
      <trkpt lat="45.65113" lon="6.68872">
        <ele>2922.6000976562</ele>
        <time>2020-01-15T12:27:08.000Z</time>
      </trkpt>
      <trkpt lat="45.65112" lon="6.68873">
        <ele>2922.1999511719</ele>
        <time>2020-01-15T12:27:09.000Z</time>
      </trkpt>
      <trkpt lat="45.65112" lon="6.68873">
        <ele>2921.1999511719</ele>
        <time>2020-01-15T12:27:11.000Z</time>
      </trkpt>
      <trkpt lat="45.65112" lon="6.68873">
        <ele>2920.1999511719</ele>
        <time>2020-01-15T12:27:13.000Z</time>
      </trkpt>
      <trkpt lat="45.65112" lon="6.68873">
        <ele>2920</ele>
        <time>2020-01-15T12:27:14.000Z</time>
      </trkpt>
      <trkpt lat="45.65112" lon="6.68873">
        <ele>2919</ele>
        <time>2020-01-15T12:27:19.000Z</time>
      </trkpt>
      <trkpt lat="45.65112" lon="6.68873">
        <ele>2918.8000488281</ele>
        <time>2020-01-15T12:27:23.000Z</time>
      </trkpt>
      <trkpt lat="45.65112" lon="6.68873">
        <ele>2919</ele>
        <time>2020-01-15T12:27:35.000Z</time>
      </trkpt>
      <trkpt lat="45.65108" lon="6.68878">
        <ele>2919</ele>
        <time>2020-01-15T12:27:39.000Z</time>
      </trkpt>
      <trkpt lat="45.65108" lon="6.68879">
        <ele>2919.1999511719</ele>
        <time>2020-01-15T12:27:40.000Z</time>
      </trkpt>
      <trkpt lat="45.65106" lon="6.68879">
        <ele>2919.3999023438</ele>
        <time>2020-01-15T12:27:42.000Z</time>
      </trkpt>
      <trkpt lat="45.65105" lon="6.68875">
        <ele>2918.6000976562</ele>
        <time>2020-01-15T12:27:44.000Z</time>
      </trkpt>
      <trkpt lat="45.65104" lon="6.68876">
        <ele>2917.3999023438</ele>
        <time>2020-01-15T12:27:45.000Z</time>
      </trkpt>
      <trkpt lat="45.65103" lon="6.68875">
        <ele>2916</ele>
        <time>2020-01-15T12:27:47.000Z</time>
      </trkpt>
      <trkpt lat="45.65103" lon="6.68875">
        <ele>2915.6000976562</ele>
        <time>2020-01-15T12:27:48.000Z</time>
      </trkpt>
      <trkpt lat="45.65103" lon="6.68874">
        <ele>2915</ele>
        <time>2020-01-15T12:27:52.000Z</time>
      </trkpt>
      <trkpt lat="45.65103" lon="6.68874">
        <ele>2914.1999511719</ele>
        <time>2020-01-15T12:27:57.000Z</time>
      </trkpt>
      <trkpt lat="45.65103" lon="6.68872">
        <ele>2914.1999511719</ele>
        <time>2020-01-15T12:28:03.000Z</time>
      </trkpt>
      <trkpt lat="45.65102" lon="6.68868">
        <ele>2913.8000488281</ele>
        <time>2020-01-15T12:28:05.000Z</time>
      </trkpt>
      <trkpt lat="45.65102" lon="6.68868">
        <ele>2912.8000488281</ele>
        <time>2020-01-15T12:28:07.000Z</time>
      </trkpt>
      <trkpt lat="45.65101" lon="6.68868">
        <ele>2912</ele>
        <time>2020-01-15T12:28:08.000Z</time>
      </trkpt>
      <trkpt lat="45.651" lon="6.68868">
        <ele>2910.6000976562</ele>
        <time>2020-01-15T12:28:10.000Z</time>
      </trkpt>
      <trkpt lat="45.651" lon="6.68868">
        <ele>2909.3999023438</ele>
        <time>2020-01-15T12:28:13.000Z</time>
      </trkpt>
      <trkpt lat="45.651" lon="6.68868">
        <ele>2909.1999511719</ele>
        <time>2020-01-15T12:28:14.000Z</time>
      </trkpt>
      <trkpt lat="45.651" lon="6.68867">
        <ele>2908.1999511719</ele>
        <time>2020-01-15T12:28:16.000Z</time>
      </trkpt>
      <trkpt lat="45.65099" lon="6.68864">
        <ele>2907.6000976562</ele>
        <time>2020-01-15T12:28:17.000Z</time>
      </trkpt>
      <trkpt lat="45.65098" lon="6.68856">
        <ele>2907</ele>
        <time>2020-01-15T12:28:19.000Z</time>
      </trkpt>
      <trkpt lat="45.65097" lon="6.68854">
        <ele>2905.8000488281</ele>
        <time>2020-01-15T12:28:22.000Z</time>
      </trkpt>
      <trkpt lat="45.65097" lon="6.68854">
        <ele>2904.6000976562</ele>
        <time>2020-01-15T12:28:24.000Z</time>
      </trkpt>
      <trkpt lat="45.65096" lon="6.68844">
        <ele>2903.6000976562</ele>
        <time>2020-01-15T12:28:27.000Z</time>
      </trkpt>
      <trkpt lat="45.65096" lon="6.68843">
        <ele>2902</ele>
        <time>2020-01-15T12:28:30.000Z</time>
      </trkpt>
      <trkpt lat="45.65096" lon="6.68843">
        <ele>2901.1999511719</ele>
        <time>2020-01-15T12:28:31.000Z</time>
      </trkpt>
      <trkpt lat="45.65096" lon="6.68843">
        <ele>2900</ele>
        <time>2020-01-15T12:28:32.000Z</time>
      </trkpt>
      <trkpt lat="45.65094" lon="6.68843">
        <ele>2899.1999511719</ele>
        <time>2020-01-15T12:28:35.000Z</time>
      </trkpt>
      <trkpt lat="45.65093" lon="6.68846">
        <ele>2899.1999511719</ele>
        <time>2020-01-15T12:28:36.000Z</time>
      </trkpt>
      <trkpt lat="45.65093" lon="6.68845">
        <ele>2899</ele>
        <time>2020-01-15T12:28:38.000Z</time>
      </trkpt>
      <trkpt lat="45.65092" lon="6.68845">
        <ele>2898.6000976562</ele>
        <time>2020-01-15T12:28:39.000Z</time>
      </trkpt>
      <trkpt lat="45.6509" lon="6.68843">
        <ele>2898</ele>
        <time>2020-01-15T12:28:40.000Z</time>
      </trkpt>
      <trkpt lat="45.65087" lon="6.68839">
        <ele>2897</ele>
        <time>2020-01-15T12:28:41.000Z</time>
      </trkpt>
      <trkpt lat="45.65085" lon="6.68834">
        <ele>2896</ele>
        <time>2020-01-15T12:28:42.000Z</time>
      </trkpt>
      <trkpt lat="45.65084" lon="6.6883">
        <ele>2894.6000976562</ele>
        <time>2020-01-15T12:28:44.000Z</time>
      </trkpt>
      <trkpt lat="45.65084" lon="6.6883">
        <ele>2894.1999511719</ele>
        <time>2020-01-15T12:28:45.000Z</time>
      </trkpt>
      <trkpt lat="45.65084" lon="6.6883">
        <ele>2893.1999511719</ele>
        <time>2020-01-15T12:28:47.000Z</time>
      </trkpt>
      <trkpt lat="45.65084" lon="6.6883">
        <ele>2892.1999511719</ele>
        <time>2020-01-15T12:28:50.000Z</time>
      </trkpt>
      <trkpt lat="45.65085" lon="6.6883">
        <ele>2892.1999511719</ele>
        <time>2020-01-15T12:28:56.000Z</time>
      </trkpt>
      <trkpt lat="45.65085" lon="6.68832">
        <ele>2892.1999511719</ele>
        <time>2020-01-15T12:29:08.000Z</time>
      </trkpt>
      <trkpt lat="45.65085" lon="6.68834">
        <ele>2892.8000488281</ele>
        <time>2020-01-15T12:29:21.000Z</time>
      </trkpt>
      <trkpt lat="45.65082" lon="6.68836">
        <ele>2892.8000488281</ele>
        <time>2020-01-15T12:29:23.000Z</time>
      </trkpt>
      <trkpt lat="45.65082" lon="6.68845">
        <ele>2892.6000976562</ele>
        <time>2020-01-15T12:29:25.000Z</time>
      </trkpt>
      <trkpt lat="45.65081" lon="6.68851">
        <ele>2892.1999511719</ele>
        <time>2020-01-15T12:29:27.000Z</time>
      </trkpt>
      <trkpt lat="45.65078" lon="6.6885">
        <ele>2891.8000488281</ele>
        <time>2020-01-15T12:29:28.000Z</time>
      </trkpt>
      <trkpt lat="45.65075" lon="6.68847">
        <ele>2891</ele>
        <time>2020-01-15T12:29:29.000Z</time>
      </trkpt>
      <trkpt lat="45.65073" lon="6.68846">
        <ele>2889.3999023438</ele>
        <time>2020-01-15T12:29:30.000Z</time>
      </trkpt>
      <trkpt lat="45.6507" lon="6.68849">
        <ele>2887.8000488281</ele>
        <time>2020-01-15T12:29:31.000Z</time>
      </trkpt>
      <trkpt lat="45.65068" lon="6.68852">
        <ele>2886.8000488281</ele>
        <time>2020-01-15T12:29:32.000Z</time>
      </trkpt>
      <trkpt lat="45.65065" lon="6.68854">
        <ele>2885.1999511719</ele>
        <time>2020-01-15T12:29:34.000Z</time>
      </trkpt>
      <trkpt lat="45.65061" lon="6.68852">
        <ele>2883.1999511719</ele>
        <time>2020-01-15T12:29:35.000Z</time>
      </trkpt>
      <trkpt lat="45.65057" lon="6.68853">
        <ele>2880.8000488281</ele>
        <time>2020-01-15T12:29:36.000Z</time>
      </trkpt>
      <trkpt lat="45.65054" lon="6.68854">
        <ele>2878.8000488281</ele>
        <time>2020-01-15T12:29:37.000Z</time>
      </trkpt>
      <trkpt lat="45.65053" lon="6.68856">
        <ele>2877.3999023438</ele>
        <time>2020-01-15T12:29:38.000Z</time>
      </trkpt>
      <trkpt lat="45.65049" lon="6.68856">
        <ele>2875.8000488281</ele>
        <time>2020-01-15T12:29:39.000Z</time>
      </trkpt>
      <trkpt lat="45.65044" lon="6.68856">
        <ele>2873.8000488281</ele>
        <time>2020-01-15T12:29:40.000Z</time>
      </trkpt>
      <trkpt lat="45.6504" lon="6.68857">
        <ele>2871.3999023438</ele>
        <time>2020-01-15T12:29:41.000Z</time>
      </trkpt>
      <trkpt lat="45.65035" lon="6.68858">
        <ele>2869.3999023438</ele>
        <time>2020-01-15T12:29:42.000Z</time>
      </trkpt>
      <trkpt lat="45.65032" lon="6.68858">
        <ele>2867.8000488281</ele>
        <time>2020-01-15T12:29:43.000Z</time>
      </trkpt>
      <trkpt lat="45.65027" lon="6.68858">
        <ele>2864.1999511719</ele>
        <time>2020-01-15T12:29:44.000Z</time>
      </trkpt>
      <trkpt lat="45.65022" lon="6.68863">
        <ele>2861.8000488281</ele>
        <time>2020-01-15T12:29:45.000Z</time>
      </trkpt>
      <trkpt lat="45.65016" lon="6.68865">
        <ele>2859.6000976562</ele>
        <time>2020-01-15T12:29:46.000Z</time>
      </trkpt>
      <trkpt lat="45.65019" lon="6.68872">
        <ele>2857.8000488281</ele>
        <time>2020-01-15T12:29:47.000Z</time>
      </trkpt>
      <trkpt lat="45.65021" lon="6.68879">
        <ele>2856</ele>
        <time>2020-01-15T12:29:48.000Z</time>
      </trkpt>
      <trkpt lat="45.65023" lon="6.68882">
        <ele>2854</ele>
        <time>2020-01-15T12:29:49.000Z</time>
      </trkpt>
      <trkpt lat="45.65025" lon="6.68883">
        <ele>2852</ele>
        <time>2020-01-15T12:29:50.000Z</time>
      </trkpt>
      <trkpt lat="45.65025" lon="6.68883">
        <ele>2850.6000976562</ele>
        <time>2020-01-15T12:29:51.000Z</time>
      </trkpt>
      <trkpt lat="45.65025" lon="6.68883">
        <ele>2849.3999023438</ele>
        <time>2020-01-15T12:29:53.000Z</time>
      </trkpt>
      <trkpt lat="45.65025" lon="6.68883">
        <ele>2849.6000976562</ele>
        <time>2020-01-15T12:30:07.000Z</time>
      </trkpt>
      <trkpt lat="45.65025" lon="6.68883">
        <ele>2849.8000488281</ele>
        <time>2020-01-15T12:30:28.000Z</time>
      </trkpt>
      <trkpt lat="45.65026" lon="6.68885">
        <ele>2850.3999023438</ele>
        <time>2020-01-15T12:30:38.000Z</time>
      </trkpt>
      <trkpt lat="45.6503" lon="6.68892">
        <ele>2850.6000976562</ele>
        <time>2020-01-15T12:30:41.000Z</time>
      </trkpt>
      <trkpt lat="45.65031" lon="6.68894">
        <ele>2849.3999023438</ele>
        <time>2020-01-15T12:30:50.000Z</time>
      </trkpt>
      <trkpt lat="45.65031" lon="6.68894">
        <ele>2849.1999511719</ele>
        <time>2020-01-15T12:30:51.000Z</time>
      </trkpt>
      <trkpt lat="45.65032" lon="6.68895">
        <ele>2848.1999511719</ele>
        <time>2020-01-15T12:31:01.000Z</time>
      </trkpt>
      <trkpt lat="45.65032" lon="6.68895">
        <ele>2848.1999511719</ele>
        <time>2020-01-15T12:31:02.000Z</time>
      </trkpt>
      <trkpt lat="45.65032" lon="6.68895">
        <ele>2848.1999511719</ele>
        <time>2020-01-15T12:31:16.000Z</time>
      </trkpt>
      <trkpt lat="45.65032" lon="6.68895">
        <ele>2849</ele>
        <time>2020-01-15T12:31:37.000Z</time>
      </trkpt>
      <trkpt lat="45.65032" lon="6.68896">
        <ele>2849.3999023438</ele>
        <time>2020-01-15T12:31:43.000Z</time>
      </trkpt>
      <trkpt lat="45.65032" lon="6.68896">
        <ele>2848.6000976562</ele>
        <time>2020-01-15T12:31:50.000Z</time>
      </trkpt>
      <trkpt lat="45.65032" lon="6.68896">
        <ele>2848.1999511719</ele>
        <time>2020-01-15T12:31:53.000Z</time>
      </trkpt>
      <trkpt lat="45.65033" lon="6.68904">
        <ele>2847.6000976562</ele>
        <time>2020-01-15T12:32:04.000Z</time>
      </trkpt>
      <trkpt lat="45.65036" lon="6.68919">
        <ele>2847</ele>
        <time>2020-01-15T12:32:08.000Z</time>
      </trkpt>
      <trkpt lat="45.65035" lon="6.6892">
        <ele>2846.6000976562</ele>
        <time>2020-01-15T12:32:09.000Z</time>
      </trkpt>
      <trkpt lat="45.65033" lon="6.68911">
        <ele>2845.1999511719</ele>
        <time>2020-01-15T12:32:11.000Z</time>
      </trkpt>
      <trkpt lat="45.65032" lon="6.68911">
        <ele>2844.6000976562</ele>
        <time>2020-01-15T12:32:12.000Z</time>
      </trkpt>
      <trkpt lat="45.65031" lon="6.68917">
        <ele>2843.8000488281</ele>
        <time>2020-01-15T12:32:13.000Z</time>
      </trkpt>
      <trkpt lat="45.6503" lon="6.68923">
        <ele>2842.8000488281</ele>
        <time>2020-01-15T12:32:15.000Z</time>
      </trkpt>
      <trkpt lat="45.6503" lon="6.68923">
        <ele>2842</ele>
        <time>2020-01-15T12:32:16.000Z</time>
      </trkpt>
      <trkpt lat="45.65028" lon="6.68925">
        <ele>2840.1999511719</ele>
        <time>2020-01-15T12:32:17.000Z</time>
      </trkpt>
      <trkpt lat="45.65027" lon="6.68928">
        <ele>2837.8000488281</ele>
        <time>2020-01-15T12:32:18.000Z</time>
      </trkpt>
      <trkpt lat="45.65026" lon="6.68934">
        <ele>2835.8000488281</ele>
        <time>2020-01-15T12:32:19.000Z</time>
      </trkpt>
      <trkpt lat="45.65025" lon="6.68939">
        <ele>2834.1999511719</ele>
        <time>2020-01-15T12:32:20.000Z</time>
      </trkpt>
      <trkpt lat="45.65025" lon="6.68942">
        <ele>2832.8000488281</ele>
        <time>2020-01-15T12:32:21.000Z</time>
      </trkpt>
      <trkpt lat="45.65024" lon="6.68945">
        <ele>2831</ele>
        <time>2020-01-15T12:32:22.000Z</time>
      </trkpt>
      <trkpt lat="45.65023" lon="6.68947">
        <ele>2828.6000976562</ele>
        <time>2020-01-15T12:32:23.000Z</time>
      </trkpt>
      <trkpt lat="45.65022" lon="6.6895">
        <ele>2826.3999023438</ele>
        <time>2020-01-15T12:32:24.000Z</time>
      </trkpt>
      <trkpt lat="45.65022" lon="6.68953">
        <ele>2824.6000976562</ele>
        <time>2020-01-15T12:32:25.000Z</time>
      </trkpt>
      <trkpt lat="45.65023" lon="6.68953">
        <ele>2823.3999023438</ele>
        <time>2020-01-15T12:32:26.000Z</time>
      </trkpt>
      <trkpt lat="45.65021" lon="6.68949">
        <ele>2822</ele>
        <time>2020-01-15T12:32:27.000Z</time>
      </trkpt>
      <trkpt lat="45.65022" lon="6.68948">
        <ele>2819.6000976562</ele>
        <time>2020-01-15T12:32:28.000Z</time>
      </trkpt>
      <trkpt lat="45.65022" lon="6.68948">
        <ele>2817.1999511719</ele>
        <time>2020-01-15T12:32:29.000Z</time>
      </trkpt>
      <trkpt lat="45.65021" lon="6.6895">
        <ele>2815.1999511719</ele>
        <time>2020-01-15T12:32:30.000Z</time>
      </trkpt>
      <trkpt lat="45.65019" lon="6.68953">
        <ele>2813.3999023438</ele>
        <time>2020-01-15T12:32:31.000Z</time>
      </trkpt>
      <trkpt lat="45.65019" lon="6.68953">
        <ele>2808.8000488281</ele>
        <time>2020-01-15T12:32:32.000Z</time>
      </trkpt>
      <trkpt lat="45.65018" lon="6.68953">
        <ele>2806.3999023438</ele>
        <time>2020-01-15T12:32:33.000Z</time>
      </trkpt>
      <trkpt lat="45.65018" lon="6.68958">
        <ele>2804.3999023438</ele>
        <time>2020-01-15T12:32:34.000Z</time>
      </trkpt>
      <trkpt lat="45.65017" lon="6.68964">
        <ele>2803</ele>
        <time>2020-01-15T12:32:35.000Z</time>
      </trkpt>
      <trkpt lat="45.65013" lon="6.68968">
        <ele>2801.6000976562</ele>
        <time>2020-01-15T12:32:36.000Z</time>
      </trkpt>
      <trkpt lat="45.6501" lon="6.68971">
        <ele>2799.3999023438</ele>
        <time>2020-01-15T12:32:37.000Z</time>
      </trkpt>
      <trkpt lat="45.65007" lon="6.68978">
        <ele>2796.8000488281</ele>
        <time>2020-01-15T12:32:38.000Z</time>
      </trkpt>
      <trkpt lat="45.65004" lon="6.68981">
        <ele>2794</ele>
        <time>2020-01-15T12:32:39.000Z</time>
      </trkpt>
      <trkpt lat="45.65002" lon="6.6898">
        <ele>2791.6000976562</ele>
        <time>2020-01-15T12:32:40.000Z</time>
      </trkpt>
      <trkpt lat="45.65001" lon="6.68978">
        <ele>2789.8000488281</ele>
        <time>2020-01-15T12:32:41.000Z</time>
      </trkpt>
      <trkpt lat="45.65001" lon="6.68978">
        <ele>2788.1999511719</ele>
        <time>2020-01-15T12:32:42.000Z</time>
      </trkpt>
      <trkpt lat="45.65001" lon="6.68978">
        <ele>2786.3999023438</ele>
        <time>2020-01-15T12:32:43.000Z</time>
      </trkpt>
      <trkpt lat="45.65001" lon="6.68978">
        <ele>2784.8000488281</ele>
        <time>2020-01-15T12:32:44.000Z</time>
      </trkpt>
      <trkpt lat="45.65001" lon="6.68978">
        <ele>2783.6000976562</ele>
        <time>2020-01-15T12:32:45.000Z</time>
      </trkpt>
      <trkpt lat="45.65001" lon="6.68978">
        <ele>2782.3999023438</ele>
        <time>2020-01-15T12:32:47.000Z</time>
      </trkpt>
      <trkpt lat="45.65001" lon="6.68978">
        <ele>2782</ele>
        <time>2020-01-15T12:32:56.000Z</time>
      </trkpt>
      <trkpt lat="45.65" lon="6.68979">
        <ele>2782</ele>
        <time>2020-01-15T12:33:03.000Z</time>
      </trkpt>
      <trkpt lat="45.64997" lon="6.68976">
        <ele>2782</ele>
        <time>2020-01-15T12:33:04.000Z</time>
      </trkpt>
      <trkpt lat="45.64997" lon="6.68975">
        <ele>2781.6000976562</ele>
        <time>2020-01-15T12:33:10.000Z</time>
      </trkpt>
      <trkpt lat="45.64997" lon="6.68975">
        <ele>2781.3999023438</ele>
        <time>2020-01-15T12:33:11.000Z</time>
      </trkpt>
      <trkpt lat="45.64996" lon="6.68976">
        <ele>2781.1999511719</ele>
        <time>2020-01-15T12:33:16.000Z</time>
      </trkpt>
      <trkpt lat="45.64993" lon="6.68975">
        <ele>2781.1999511719</ele>
        <time>2020-01-15T12:33:17.000Z</time>
      </trkpt>
      <trkpt lat="45.64988" lon="6.68975">
        <ele>2779.1999511719</ele>
        <time>2020-01-15T12:33:20.000Z</time>
      </trkpt>
      <trkpt lat="45.64988" lon="6.68975">
        <ele>2778.8000488281</ele>
        <time>2020-01-15T12:33:21.000Z</time>
      </trkpt>
      <trkpt lat="45.64988" lon="6.68975">
        <ele>2778.1999511719</ele>
        <time>2020-01-15T12:33:25.000Z</time>
      </trkpt>
      <trkpt lat="45.64988" lon="6.68975">
        <ele>2778</ele>
        <time>2020-01-15T12:33:35.000Z</time>
      </trkpt>
      <trkpt lat="45.64988" lon="6.68975">
        <ele>2778</ele>
        <time>2020-01-15T12:33:47.000Z</time>
      </trkpt>
      <trkpt lat="45.64986" lon="6.68975">
        <ele>2778.3999023438</ele>
        <time>2020-01-15T12:34:03.000Z</time>
      </trkpt>
      <trkpt lat="45.64986" lon="6.68975">
        <ele>2778.6000976562</ele>
        <time>2020-01-15T12:34:17.000Z</time>
      </trkpt>
      <trkpt lat="45.64986" lon="6.68975">
        <ele>2778.1999511719</ele>
        <time>2020-01-15T12:34:30.000Z</time>
      </trkpt>
      <trkpt lat="45.64984" lon="6.68976">
        <ele>2778.1999511719</ele>
        <time>2020-01-15T12:34:44.000Z</time>
      </trkpt>
      <trkpt lat="45.64978" lon="6.68976">
        <ele>2778.1999511719</ele>
        <time>2020-01-15T12:34:53.000Z</time>
      </trkpt>
      <trkpt lat="45.64975" lon="6.68976">
        <ele>2778.1999511719</ele>
        <time>2020-01-15T12:34:54.000Z</time>
      </trkpt>
      <trkpt lat="45.64964" lon="6.68976">
        <ele>2777.1999511719</ele>
        <time>2020-01-15T12:34:57.000Z</time>
      </trkpt>
      <trkpt lat="45.6496" lon="6.68974">
        <ele>2775.8000488281</ele>
        <time>2020-01-15T12:34:58.000Z</time>
      </trkpt>
      <trkpt lat="45.64957" lon="6.68968">
        <ele>2774.3999023438</ele>
        <time>2020-01-15T12:34:59.000Z</time>
      </trkpt>
      <trkpt lat="45.64954" lon="6.68962">
        <ele>2773.3999023438</ele>
        <time>2020-01-15T12:35:00.000Z</time>
      </trkpt>
      <trkpt lat="45.64951" lon="6.68955">
        <ele>2772.6000976562</ele>
        <time>2020-01-15T12:35:01.000Z</time>
      </trkpt>
      <trkpt lat="45.64948" lon="6.68955">
        <ele>2771.6000976562</ele>
        <time>2020-01-15T12:35:02.000Z</time>
      </trkpt>
      <trkpt lat="45.64945" lon="6.68955">
        <ele>2770.1999511719</ele>
        <time>2020-01-15T12:35:03.000Z</time>
      </trkpt>
      <trkpt lat="45.64944" lon="6.68959">
        <ele>2769</ele>
        <time>2020-01-15T12:35:04.000Z</time>
      </trkpt>
      <trkpt lat="45.64942" lon="6.68962">
        <ele>2768.1999511719</ele>
        <time>2020-01-15T12:35:05.000Z</time>
      </trkpt>
      <trkpt lat="45.64938" lon="6.68961">
        <ele>2767.3999023438</ele>
        <time>2020-01-15T12:35:06.000Z</time>
      </trkpt>
      <trkpt lat="45.64933" lon="6.68962">
        <ele>2766.3999023438</ele>
        <time>2020-01-15T12:35:07.000Z</time>
      </trkpt>
      <trkpt lat="45.64928" lon="6.68963">
        <ele>2764.6000976562</ele>
        <time>2020-01-15T12:35:08.000Z</time>
      </trkpt>
      <trkpt lat="45.64925" lon="6.68969">
        <ele>2762.8000488281</ele>
        <time>2020-01-15T12:35:09.000Z</time>
      </trkpt>
      <trkpt lat="45.64924" lon="6.68975">
        <ele>2761</ele>
        <time>2020-01-15T12:35:10.000Z</time>
      </trkpt>
      <trkpt lat="45.64925" lon="6.68982">
        <ele>2759.1999511719</ele>
        <time>2020-01-15T12:35:11.000Z</time>
      </trkpt>
      <trkpt lat="45.64927" lon="6.68988">
        <ele>2757</ele>
        <time>2020-01-15T12:35:12.000Z</time>
      </trkpt>
      <trkpt lat="45.64928" lon="6.68995">
        <ele>2754.8000488281</ele>
        <time>2020-01-15T12:35:13.000Z</time>
      </trkpt>
      <trkpt lat="45.64927" lon="6.69002">
        <ele>2752.3999023438</ele>
        <time>2020-01-15T12:35:14.000Z</time>
      </trkpt>
      <trkpt lat="45.64928" lon="6.69006">
        <ele>2750.3999023438</ele>
        <time>2020-01-15T12:35:15.000Z</time>
      </trkpt>
      <trkpt lat="45.64925" lon="6.69008">
        <ele>2748.8000488281</ele>
        <time>2020-01-15T12:35:16.000Z</time>
      </trkpt>
      <trkpt lat="45.64925" lon="6.69013">
        <ele>2747.1999511719</ele>
        <time>2020-01-15T12:35:17.000Z</time>
      </trkpt>
      <trkpt lat="45.64925" lon="6.69021">
        <ele>2745.8000488281</ele>
        <time>2020-01-15T12:35:18.000Z</time>
      </trkpt>
      <trkpt lat="45.64925" lon="6.69028">
        <ele>2744.8000488281</ele>
        <time>2020-01-15T12:35:19.000Z</time>
      </trkpt>
      <trkpt lat="45.64925" lon="6.69034">
        <ele>2741.6000976562</ele>
        <time>2020-01-15T12:35:20.000Z</time>
      </trkpt>
      <trkpt lat="45.64926" lon="6.69039">
        <ele>2738.8000488281</ele>
        <time>2020-01-15T12:35:21.000Z</time>
      </trkpt>
      <trkpt lat="45.64923" lon="6.69041">
        <ele>2736.1999511719</ele>
        <time>2020-01-15T12:35:22.000Z</time>
      </trkpt>
      <trkpt lat="45.64922" lon="6.69049">
        <ele>2734</ele>
        <time>2020-01-15T12:35:23.000Z</time>
      </trkpt>
      <trkpt lat="45.64918" lon="6.69054">
        <ele>2732.8000488281</ele>
        <time>2020-01-15T12:35:24.000Z</time>
      </trkpt>
      <trkpt lat="45.64917" lon="6.69057">
        <ele>2731.8000488281</ele>
        <time>2020-01-15T12:35:25.000Z</time>
      </trkpt>
      <trkpt lat="45.64912" lon="6.69058">
        <ele>2730.1999511719</ele>
        <time>2020-01-15T12:35:26.000Z</time>
      </trkpt>
      <trkpt lat="45.64906" lon="6.69062">
        <ele>2728</ele>
        <time>2020-01-15T12:35:27.000Z</time>
      </trkpt>
      <trkpt lat="45.64902" lon="6.69067">
        <ele>2725.8000488281</ele>
        <time>2020-01-15T12:35:28.000Z</time>
      </trkpt>
      <trkpt lat="45.64896" lon="6.69071">
        <ele>2724</ele>
        <time>2020-01-15T12:35:29.000Z</time>
      </trkpt>
      <trkpt lat="45.64892" lon="6.6907">
        <ele>2721.8000488281</ele>
        <time>2020-01-15T12:35:30.000Z</time>
      </trkpt>
      <trkpt lat="45.64884" lon="6.69073">
        <ele>2719.1999511719</ele>
        <time>2020-01-15T12:35:31.000Z</time>
      </trkpt>
      <trkpt lat="45.64877" lon="6.69077">
        <ele>2716.3999023438</ele>
        <time>2020-01-15T12:35:32.000Z</time>
      </trkpt>
      <trkpt lat="45.64872" lon="6.69081">
        <ele>2714.1999511719</ele>
        <time>2020-01-15T12:35:33.000Z</time>
      </trkpt>
      <trkpt lat="45.64867" lon="6.6908">
        <ele>2712.3999023438</ele>
        <time>2020-01-15T12:35:34.000Z</time>
      </trkpt>
      <trkpt lat="45.64862" lon="6.69083">
        <ele>2710.1999511719</ele>
        <time>2020-01-15T12:35:35.000Z</time>
      </trkpt>
      <trkpt lat="45.64856" lon="6.69091">
        <ele>2707.8000488281</ele>
        <time>2020-01-15T12:35:36.000Z</time>
      </trkpt>
      <trkpt lat="45.64849" lon="6.69099">
        <ele>2705.6000976562</ele>
        <time>2020-01-15T12:35:37.000Z</time>
      </trkpt>
      <trkpt lat="45.64843" lon="6.69101">
        <ele>2703.6000976562</ele>
        <time>2020-01-15T12:35:38.000Z</time>
      </trkpt>
      <trkpt lat="45.64836" lon="6.69105">
        <ele>2701.1999511719</ele>
        <time>2020-01-15T12:35:39.000Z</time>
      </trkpt>
      <trkpt lat="45.64829" lon="6.69108">
        <ele>2698.1999511719</ele>
        <time>2020-01-15T12:35:40.000Z</time>
      </trkpt>
      <trkpt lat="45.64821" lon="6.69113">
        <ele>2695.6000976562</ele>
        <time>2020-01-15T12:35:41.000Z</time>
      </trkpt>
      <trkpt lat="45.64813" lon="6.69118">
        <ele>2693.3999023438</ele>
        <time>2020-01-15T12:35:42.000Z</time>
      </trkpt>
      <trkpt lat="45.64805" lon="6.6912">
        <ele>2691</ele>
        <time>2020-01-15T12:35:43.000Z</time>
      </trkpt>
      <trkpt lat="45.64799" lon="6.69121">
        <ele>2684.3999023438</ele>
        <time>2020-01-15T12:35:44.000Z</time>
      </trkpt>
      <trkpt lat="45.64794" lon="6.69121">
        <ele>2681.3999023438</ele>
        <time>2020-01-15T12:35:45.000Z</time>
      </trkpt>
      <trkpt lat="45.6479" lon="6.69122">
        <ele>2679.1999511719</ele>
        <time>2020-01-15T12:35:46.000Z</time>
      </trkpt>
      <trkpt lat="45.6479" lon="6.69118">
        <ele>2677.8000488281</ele>
        <time>2020-01-15T12:35:47.000Z</time>
      </trkpt>
      <trkpt lat="45.64791" lon="6.69114">
        <ele>2676.6000976562</ele>
        <time>2020-01-15T12:35:48.000Z</time>
      </trkpt>
      <trkpt lat="45.64793" lon="6.69111">
        <ele>2675.3999023438</ele>
        <time>2020-01-15T12:35:49.000Z</time>
      </trkpt>
      <trkpt lat="45.64794" lon="6.6911">
        <ele>2674.1999511719</ele>
        <time>2020-01-15T12:35:50.000Z</time>
      </trkpt>
      <trkpt lat="45.64794" lon="6.6911">
        <ele>2673</ele>
        <time>2020-01-15T12:35:52.000Z</time>
      </trkpt>
      <trkpt lat="45.64793" lon="6.69115">
        <ele>2672.3999023438</ele>
        <time>2020-01-15T12:35:55.000Z</time>
      </trkpt>
      <trkpt lat="45.6479" lon="6.69133">
        <ele>2672</ele>
        <time>2020-01-15T12:35:58.000Z</time>
      </trkpt>
      <trkpt lat="45.64789" lon="6.69139">
        <ele>2671.1999511719</ele>
        <time>2020-01-15T12:35:59.000Z</time>
      </trkpt>
      <trkpt lat="45.64788" lon="6.69144">
        <ele>2670</ele>
        <time>2020-01-15T12:36:00.000Z</time>
      </trkpt>
      <trkpt lat="45.64786" lon="6.6915">
        <ele>2668.8000488281</ele>
        <time>2020-01-15T12:36:01.000Z</time>
      </trkpt>
      <trkpt lat="45.64784" lon="6.69152">
        <ele>2668</ele>
        <time>2020-01-15T12:36:02.000Z</time>
      </trkpt>
      <trkpt lat="45.64782" lon="6.69153">
        <ele>2667.6000976562</ele>
        <time>2020-01-15T12:36:03.000Z</time>
      </trkpt>
      <trkpt lat="45.64774" lon="6.69167">
        <ele>2666.3999023438</ele>
        <time>2020-01-15T12:36:06.000Z</time>
      </trkpt>
      <trkpt lat="45.64765" lon="6.69171">
        <ele>2663.6000976562</ele>
        <time>2020-01-15T12:36:08.000Z</time>
      </trkpt>
      <trkpt lat="45.64762" lon="6.69177">
        <ele>2661.6000976562</ele>
        <time>2020-01-15T12:36:09.000Z</time>
      </trkpt>
      <trkpt lat="45.64756" lon="6.69182">
        <ele>2659.8000488281</ele>
        <time>2020-01-15T12:36:10.000Z</time>
      </trkpt>
      <trkpt lat="45.64753" lon="6.69187">
        <ele>2658</ele>
        <time>2020-01-15T12:36:11.000Z</time>
      </trkpt>
      <trkpt lat="45.64749" lon="6.69191">
        <ele>2655.6000976562</ele>
        <time>2020-01-15T12:36:12.000Z</time>
      </trkpt>
      <trkpt lat="45.64743" lon="6.69194">
        <ele>2652.8000488281</ele>
        <time>2020-01-15T12:36:13.000Z</time>
      </trkpt>
      <trkpt lat="45.64737" lon="6.69199">
        <ele>2650.1999511719</ele>
        <time>2020-01-15T12:36:14.000Z</time>
      </trkpt>
      <trkpt lat="45.64732" lon="6.69204">
        <ele>2648.1999511719</ele>
        <time>2020-01-15T12:36:15.000Z</time>
      </trkpt>
      <trkpt lat="45.64733" lon="6.69215">
        <ele>2646.3999023438</ele>
        <time>2020-01-15T12:36:16.000Z</time>
      </trkpt>
      <trkpt lat="45.64733" lon="6.69224">
        <ele>2644.1999511719</ele>
        <time>2020-01-15T12:36:17.000Z</time>
      </trkpt>
      <trkpt lat="45.64732" lon="6.69231">
        <ele>2642</ele>
        <time>2020-01-15T12:36:18.000Z</time>
      </trkpt>
      <trkpt lat="45.64732" lon="6.69236">
        <ele>2640</ele>
        <time>2020-01-15T12:36:19.000Z</time>
      </trkpt>
      <trkpt lat="45.64729" lon="6.69244">
        <ele>2638.1999511719</ele>
        <time>2020-01-15T12:36:20.000Z</time>
      </trkpt>
      <trkpt lat="45.64728" lon="6.69252">
        <ele>2636.8000488281</ele>
        <time>2020-01-15T12:36:21.000Z</time>
      </trkpt>
      <trkpt lat="45.64725" lon="6.69258">
        <ele>2635.8000488281</ele>
        <time>2020-01-15T12:36:22.000Z</time>
      </trkpt>
      <trkpt lat="45.64721" lon="6.69261">
        <ele>2634.8000488281</ele>
        <time>2020-01-15T12:36:23.000Z</time>
      </trkpt>
      <trkpt lat="45.64719" lon="6.6927">
        <ele>2633.6000976562</ele>
        <time>2020-01-15T12:36:24.000Z</time>
      </trkpt>
      <trkpt lat="45.64716" lon="6.69279">
        <ele>2632</ele>
        <time>2020-01-15T12:36:25.000Z</time>
      </trkpt>
      <trkpt lat="45.64715" lon="6.69288">
        <ele>2630.1999511719</ele>
        <time>2020-01-15T12:36:26.000Z</time>
      </trkpt>
      <trkpt lat="45.64713" lon="6.69293">
        <ele>2628.3999023438</ele>
        <time>2020-01-15T12:36:27.000Z</time>
      </trkpt>
      <trkpt lat="45.6471" lon="6.69296">
        <ele>2626.3999023438</ele>
        <time>2020-01-15T12:36:28.000Z</time>
      </trkpt>
      <trkpt lat="45.64705" lon="6.693">
        <ele>2624.3999023438</ele>
        <time>2020-01-15T12:36:29.000Z</time>
      </trkpt>
      <trkpt lat="45.64702" lon="6.69312">
        <ele>2622.3999023438</ele>
        <time>2020-01-15T12:36:30.000Z</time>
      </trkpt>
      <trkpt lat="45.64699" lon="6.69321">
        <ele>2621</ele>
        <time>2020-01-15T12:36:31.000Z</time>
      </trkpt>
      <trkpt lat="45.64697" lon="6.69328">
        <ele>2617</ele>
        <time>2020-01-15T12:36:32.000Z</time>
      </trkpt>
      <trkpt lat="45.64697" lon="6.69331">
        <ele>2614.3999023438</ele>
        <time>2020-01-15T12:36:33.000Z</time>
      </trkpt>
      <trkpt lat="45.64696" lon="6.69335">
        <ele>2612</ele>
        <time>2020-01-15T12:36:34.000Z</time>
      </trkpt>
      <trkpt lat="45.6469" lon="6.69338">
        <ele>2609.8000488281</ele>
        <time>2020-01-15T12:36:35.000Z</time>
      </trkpt>
      <trkpt lat="45.64689" lon="6.69343">
        <ele>2608.1999511719</ele>
        <time>2020-01-15T12:36:36.000Z</time>
      </trkpt>
      <trkpt lat="45.64683" lon="6.69349">
        <ele>2605</ele>
        <time>2020-01-15T12:36:38.000Z</time>
      </trkpt>
      <trkpt lat="45.64681" lon="6.69347">
        <ele>2603</ele>
        <time>2020-01-15T12:36:39.000Z</time>
      </trkpt>
      <trkpt lat="45.64679" lon="6.69347">
        <ele>2601.6000976562</ele>
        <time>2020-01-15T12:36:40.000Z</time>
      </trkpt>
      <trkpt lat="45.64679" lon="6.69347">
        <ele>2600.6000976562</ele>
        <time>2020-01-15T12:36:41.000Z</time>
      </trkpt>
      <trkpt lat="45.64679" lon="6.69347">
        <ele>2599.3999023438</ele>
        <time>2020-01-15T12:36:44.000Z</time>
      </trkpt>
      <trkpt lat="45.64679" lon="6.69347">
        <ele>2599.1999511719</ele>
        <time>2020-01-15T12:36:52.000Z</time>
      </trkpt>
      <trkpt lat="45.64679" lon="6.69347">
        <ele>2599</ele>
        <time>2020-01-15T12:37:03.000Z</time>
      </trkpt>
      <trkpt lat="45.64679" lon="6.69347">
        <ele>2598.8000488281</ele>
        <time>2020-01-15T12:37:18.000Z</time>
      </trkpt>
      <trkpt lat="45.64679" lon="6.69347">
        <ele>2598.8000488281</ele>
        <time>2020-01-15T12:37:33.000Z</time>
      </trkpt>
      <trkpt lat="45.64679" lon="6.69347">
        <ele>2598.8000488281</ele>
        <time>2020-01-15T12:37:54.000Z</time>
      </trkpt>
      <trkpt lat="45.64671" lon="6.69346">
        <ele>2598.8000488281</ele>
        <time>2020-01-15T12:38:03.000Z</time>
      </trkpt>
      <trkpt lat="45.64662" lon="6.69363">
        <ele>2598.3999023438</ele>
        <time>2020-01-15T12:38:09.000Z</time>
      </trkpt>
      <trkpt lat="45.64661" lon="6.69368">
        <ele>2598.1999511719</ele>
        <time>2020-01-15T12:38:10.000Z</time>
      </trkpt>
      <trkpt lat="45.64649" lon="6.69386">
        <ele>2597.1999511719</ele>
        <time>2020-01-15T12:38:14.000Z</time>
      </trkpt>
      <trkpt lat="45.64647" lon="6.69391">
        <ele>2597</ele>
        <time>2020-01-15T12:38:15.000Z</time>
      </trkpt>
      <trkpt lat="45.64646" lon="6.69397">
        <ele>2596</ele>
        <time>2020-01-15T12:38:17.000Z</time>
      </trkpt>
      <trkpt lat="45.64641" lon="6.69407">
        <ele>2594.3999023438</ele>
        <time>2020-01-15T12:38:19.000Z</time>
      </trkpt>
      <trkpt lat="45.64637" lon="6.69414">
        <ele>2593.6000976562</ele>
        <time>2020-01-15T12:38:20.000Z</time>
      </trkpt>
      <trkpt lat="45.64636" lon="6.69417">
        <ele>2592.8000488281</ele>
        <time>2020-01-15T12:38:21.000Z</time>
      </trkpt>
      <trkpt lat="45.64634" lon="6.69423">
        <ele>2591.3999023438</ele>
        <time>2020-01-15T12:38:22.000Z</time>
      </trkpt>
      <trkpt lat="45.64629" lon="6.69426">
        <ele>2589.6000976562</ele>
        <time>2020-01-15T12:38:23.000Z</time>
      </trkpt>
      <trkpt lat="45.64624" lon="6.69436">
        <ele>2588</ele>
        <time>2020-01-15T12:38:24.000Z</time>
      </trkpt>
      <trkpt lat="45.64621" lon="6.69447">
        <ele>2586.6000976562</ele>
        <time>2020-01-15T12:38:25.000Z</time>
      </trkpt>
      <trkpt lat="45.64617" lon="6.69455">
        <ele>2585.3999023438</ele>
        <time>2020-01-15T12:38:26.000Z</time>
      </trkpt>
      <trkpt lat="45.64614" lon="6.69462">
        <ele>2583.6000976562</ele>
        <time>2020-01-15T12:38:27.000Z</time>
      </trkpt>
      <trkpt lat="45.64611" lon="6.69465">
        <ele>2581.8000488281</ele>
        <time>2020-01-15T12:38:28.000Z</time>
      </trkpt>
      <trkpt lat="45.64606" lon="6.69468">
        <ele>2580</ele>
        <time>2020-01-15T12:38:29.000Z</time>
      </trkpt>
      <trkpt lat="45.64599" lon="6.69469">
        <ele>2578.3999023438</ele>
        <time>2020-01-15T12:38:30.000Z</time>
      </trkpt>
      <trkpt lat="45.64593" lon="6.69474">
        <ele>2577.1999511719</ele>
        <time>2020-01-15T12:38:31.000Z</time>
      </trkpt>
      <trkpt lat="45.64587" lon="6.6948">
        <ele>2576.1999511719</ele>
        <time>2020-01-15T12:38:32.000Z</time>
      </trkpt>
      <trkpt lat="45.64582" lon="6.69488">
        <ele>2573.3999023438</ele>
        <time>2020-01-15T12:38:33.000Z</time>
      </trkpt>
      <trkpt lat="45.64578" lon="6.69495">
        <ele>2571.3999023438</ele>
        <time>2020-01-15T12:38:34.000Z</time>
      </trkpt>
      <trkpt lat="45.64572" lon="6.69498">
        <ele>2569.6000976562</ele>
        <time>2020-01-15T12:38:35.000Z</time>
      </trkpt>
      <trkpt lat="45.64565" lon="6.69505">
        <ele>2567.8000488281</ele>
        <time>2020-01-15T12:38:36.000Z</time>
      </trkpt>
      <trkpt lat="45.64558" lon="6.69511">
        <ele>2566</ele>
        <time>2020-01-15T12:38:37.000Z</time>
      </trkpt>
      <trkpt lat="45.64552" lon="6.69518">
        <ele>2564.3999023438</ele>
        <time>2020-01-15T12:38:38.000Z</time>
      </trkpt>
      <trkpt lat="45.6455" lon="6.69527">
        <ele>2563</ele>
        <time>2020-01-15T12:38:39.000Z</time>
      </trkpt>
      <trkpt lat="45.64551" lon="6.69539">
        <ele>2561.3999023438</ele>
        <time>2020-01-15T12:38:40.000Z</time>
      </trkpt>
      <trkpt lat="45.64551" lon="6.69548">
        <ele>2559.8000488281</ele>
        <time>2020-01-15T12:38:41.000Z</time>
      </trkpt>
      <trkpt lat="45.64551" lon="6.69555">
        <ele>2558.3999023438</ele>
        <time>2020-01-15T12:38:42.000Z</time>
      </trkpt>
      <trkpt lat="45.6455" lon="6.69561">
        <ele>2557.1999511719</ele>
        <time>2020-01-15T12:38:43.000Z</time>
      </trkpt>
      <trkpt lat="45.64549" lon="6.69568">
        <ele>2556.1999511719</ele>
        <time>2020-01-15T12:38:44.000Z</time>
      </trkpt>
      <trkpt lat="45.64549" lon="6.69575">
        <ele>2555.6000976562</ele>
        <time>2020-01-15T12:38:45.000Z</time>
      </trkpt>
      <trkpt lat="45.64547" lon="6.69603">
        <ele>2554.6000976562</ele>
        <time>2020-01-15T12:38:49.000Z</time>
      </trkpt>
      <trkpt lat="45.64546" lon="6.6961">
        <ele>2554.1999511719</ele>
        <time>2020-01-15T12:38:50.000Z</time>
      </trkpt>
      <trkpt lat="45.64544" lon="6.69624">
        <ele>2553.3999023438</ele>
        <time>2020-01-15T12:38:52.000Z</time>
      </trkpt>
      <trkpt lat="45.64543" lon="6.69647">
        <ele>2552.3999023438</ele>
        <time>2020-01-15T12:38:55.000Z</time>
      </trkpt>
      <trkpt lat="45.64542" lon="6.69653">
        <ele>2552</ele>
        <time>2020-01-15T12:38:56.000Z</time>
      </trkpt>
      <trkpt lat="45.6454" lon="6.69661">
        <ele>2550.8000488281</ele>
        <time>2020-01-15T12:38:57.000Z</time>
      </trkpt>
      <trkpt lat="45.64538" lon="6.69663">
        <ele>2550.1999511719</ele>
        <time>2020-01-15T12:38:58.000Z</time>
      </trkpt>
      <trkpt lat="45.64536" lon="6.69663">
        <ele>2549.3999023438</ele>
        <time>2020-01-15T12:38:59.000Z</time>
      </trkpt>
      <trkpt lat="45.64535" lon="6.69662">
        <ele>2547.6000976562</ele>
        <time>2020-01-15T12:39:01.000Z</time>
      </trkpt>
      <trkpt lat="45.64534" lon="6.6967">
        <ele>2545.6000976562</ele>
        <time>2020-01-15T12:39:03.000Z</time>
      </trkpt>
      <trkpt lat="45.64534" lon="6.69673">
        <ele>2544.1999511719</ele>
        <time>2020-01-15T12:39:04.000Z</time>
      </trkpt>
      <trkpt lat="45.6453" lon="6.69674">
        <ele>2542.1999511719</ele>
        <time>2020-01-15T12:39:05.000Z</time>
      </trkpt>
      <trkpt lat="45.64527" lon="6.69677">
        <ele>2540.1999511719</ele>
        <time>2020-01-15T12:39:06.000Z</time>
      </trkpt>
      <trkpt lat="45.64524" lon="6.69686">
        <ele>2538.3999023438</ele>
        <time>2020-01-15T12:39:07.000Z</time>
      </trkpt>
      <trkpt lat="45.64521" lon="6.69693">
        <ele>2537</ele>
        <time>2020-01-15T12:39:08.000Z</time>
      </trkpt>
      <trkpt lat="45.64519" lon="6.69698">
        <ele>2535.3999023438</ele>
        <time>2020-01-15T12:39:09.000Z</time>
      </trkpt>
      <trkpt lat="45.64516" lon="6.697">
        <ele>2533.3999023438</ele>
        <time>2020-01-15T12:39:10.000Z</time>
      </trkpt>
      <trkpt lat="45.64516" lon="6.69698">
        <ele>2531.3999023438</ele>
        <time>2020-01-15T12:39:11.000Z</time>
      </trkpt>
      <trkpt lat="45.64515" lon="6.69698">
        <ele>2529.8000488281</ele>
        <time>2020-01-15T12:39:12.000Z</time>
      </trkpt>
      <trkpt lat="45.64515" lon="6.69698">
        <ele>2528.3999023438</ele>
        <time>2020-01-15T12:39:14.000Z</time>
      </trkpt>
      <trkpt lat="45.64515" lon="6.69698">
        <ele>2527.6000976562</ele>
        <time>2020-01-15T12:39:18.000Z</time>
      </trkpt>
      <trkpt lat="45.64512" lon="6.6969">
        <ele>2527.6000976562</ele>
        <time>2020-01-15T12:39:31.000Z</time>
      </trkpt>
      <trkpt lat="45.64512" lon="6.6969">
        <ele>2527.3999023438</ele>
        <time>2020-01-15T12:39:39.000Z</time>
      </trkpt>
      <trkpt lat="45.64512" lon="6.6969">
        <ele>2527.1999511719</ele>
        <time>2020-01-15T12:39:45.000Z</time>
      </trkpt>
      <trkpt lat="45.64512" lon="6.6969">
        <ele>2527.1999511719</ele>
        <time>2020-01-15T12:40:05.000Z</time>
      </trkpt>
      <trkpt lat="45.64509" lon="6.69691">
        <ele>2527.1999511719</ele>
        <time>2020-01-15T12:40:15.000Z</time>
      </trkpt>
      <trkpt lat="45.64504" lon="6.69679">
        <ele>2526</ele>
        <time>2020-01-15T12:40:18.000Z</time>
      </trkpt>
      <trkpt lat="45.64503" lon="6.6968">
        <ele>2525.3999023438</ele>
        <time>2020-01-15T12:40:19.000Z</time>
      </trkpt>
      <trkpt lat="45.64499" lon="6.69684">
        <ele>2525</ele>
        <time>2020-01-15T12:40:20.000Z</time>
      </trkpt>
      <trkpt lat="45.64496" lon="6.69683">
        <ele>2524.6000976562</ele>
        <time>2020-01-15T12:40:21.000Z</time>
      </trkpt>
      <trkpt lat="45.64493" lon="6.6968">
        <ele>2523.3999023438</ele>
        <time>2020-01-15T12:40:22.000Z</time>
      </trkpt>
      <trkpt lat="45.64491" lon="6.6968">
        <ele>2521.6000976562</ele>
        <time>2020-01-15T12:40:23.000Z</time>
      </trkpt>
      <trkpt lat="45.6449" lon="6.69684">
        <ele>2519.6000976562</ele>
        <time>2020-01-15T12:40:24.000Z</time>
      </trkpt>
      <trkpt lat="45.64486" lon="6.69688">
        <ele>2518</ele>
        <time>2020-01-15T12:40:25.000Z</time>
      </trkpt>
      <trkpt lat="45.64485" lon="6.69688">
        <ele>2517</ele>
        <time>2020-01-15T12:40:26.000Z</time>
      </trkpt>
      <trkpt lat="45.64484" lon="6.69684">
        <ele>2515.6000976562</ele>
        <time>2020-01-15T12:40:27.000Z</time>
      </trkpt>
      <trkpt lat="45.64484" lon="6.69681">
        <ele>2513.6000976562</ele>
        <time>2020-01-15T12:40:28.000Z</time>
      </trkpt>
      <trkpt lat="45.64483" lon="6.6968">
        <ele>2511.1999511719</ele>
        <time>2020-01-15T12:40:29.000Z</time>
      </trkpt>
      <trkpt lat="45.64483" lon="6.69683">
        <ele>2509.1999511719</ele>
        <time>2020-01-15T12:40:30.000Z</time>
      </trkpt>
      <trkpt lat="45.64481" lon="6.69689">
        <ele>2507.8000488281</ele>
        <time>2020-01-15T12:40:31.000Z</time>
      </trkpt>
      <trkpt lat="45.64478" lon="6.69689">
        <ele>2506.3999023438</ele>
        <time>2020-01-15T12:40:32.000Z</time>
      </trkpt>
      <trkpt lat="45.64476" lon="6.69686">
        <ele>2502.3999023438</ele>
        <time>2020-01-15T12:40:33.000Z</time>
      </trkpt>
      <trkpt lat="45.64475" lon="6.69681">
        <ele>2500</ele>
        <time>2020-01-15T12:40:34.000Z</time>
      </trkpt>
      <trkpt lat="45.64474" lon="6.69677">
        <ele>2498</ele>
        <time>2020-01-15T12:40:35.000Z</time>
      </trkpt>
      <trkpt lat="45.64472" lon="6.69673">
        <ele>2496.3999023438</ele>
        <time>2020-01-15T12:40:36.000Z</time>
      </trkpt>
      <trkpt lat="45.6447" lon="6.6967">
        <ele>2495.1999511719</ele>
        <time>2020-01-15T12:40:37.000Z</time>
      </trkpt>
      <trkpt lat="45.64468" lon="6.69667">
        <ele>2494.1999511719</ele>
        <time>2020-01-15T12:40:38.000Z</time>
      </trkpt>
      <trkpt lat="45.64467" lon="6.69655">
        <ele>2492.1999511719</ele>
        <time>2020-01-15T12:40:40.000Z</time>
      </trkpt>
      <trkpt lat="45.64467" lon="6.6965">
        <ele>2491.6000976562</ele>
        <time>2020-01-15T12:40:41.000Z</time>
      </trkpt>
      <trkpt lat="45.64474" lon="6.69651">
        <ele>2491</ele>
        <time>2020-01-15T12:40:43.000Z</time>
      </trkpt>
      <trkpt lat="45.64473" lon="6.69651">
        <ele>2490.8000488281</ele>
        <time>2020-01-15T12:40:44.000Z</time>
      </trkpt>
      <trkpt lat="45.64472" lon="6.69656">
        <ele>2490.8000488281</ele>
        <time>2020-01-15T12:40:45.000Z</time>
      </trkpt>
      <trkpt lat="45.64471" lon="6.69659">
        <ele>2490.6000976562</ele>
        <time>2020-01-15T12:40:47.000Z</time>
      </trkpt>
      <trkpt lat="45.6447" lon="6.69665">
        <ele>2490</ele>
        <time>2020-01-15T12:40:48.000Z</time>
      </trkpt>
      <trkpt lat="45.64466" lon="6.69671">
        <ele>2489.1999511719</ele>
        <time>2020-01-15T12:40:49.000Z</time>
      </trkpt>
      <trkpt lat="45.64464" lon="6.69675">
        <ele>2488.1999511719</ele>
        <time>2020-01-15T12:40:50.000Z</time>
      </trkpt>
      <trkpt lat="45.64463" lon="6.69679">
        <ele>2487.1999511719</ele>
        <time>2020-01-15T12:40:51.000Z</time>
      </trkpt>
      <trkpt lat="45.64459" lon="6.69677">
        <ele>2485.8000488281</ele>
        <time>2020-01-15T12:40:52.000Z</time>
      </trkpt>
      <trkpt lat="45.64457" lon="6.69678">
        <ele>2484.3999023438</ele>
        <time>2020-01-15T12:40:53.000Z</time>
      </trkpt>
      <trkpt lat="45.64457" lon="6.69679">
        <ele>2483</ele>
        <time>2020-01-15T12:40:54.000Z</time>
      </trkpt>
      <trkpt lat="45.64456" lon="6.6968">
        <ele>2481.6000976562</ele>
        <time>2020-01-15T12:40:55.000Z</time>
      </trkpt>
      <trkpt lat="45.64456" lon="6.69682">
        <ele>2480.6000976562</ele>
        <time>2020-01-15T12:40:56.000Z</time>
      </trkpt>
      <trkpt lat="45.64455" lon="6.69683">
        <ele>2479</ele>
        <time>2020-01-15T12:40:57.000Z</time>
      </trkpt>
      <trkpt lat="45.64455" lon="6.69683">
        <ele>2478.6000976562</ele>
        <time>2020-01-15T12:40:58.000Z</time>
      </trkpt>
      <trkpt lat="45.64456" lon="6.69682">
        <ele>2477.8000488281</ele>
        <time>2020-01-15T12:41:00.000Z</time>
      </trkpt>
      <trkpt lat="45.64456" lon="6.69682">
        <ele>2477.6000976562</ele>
        <time>2020-01-15T12:41:04.000Z</time>
      </trkpt>
      <trkpt lat="45.6445" lon="6.69689">
        <ele>2478</ele>
        <time>2020-01-15T12:41:15.000Z</time>
      </trkpt>
      <trkpt lat="45.64446" lon="6.69693">
        <ele>2477.8000488281</ele>
        <time>2020-01-15T12:41:17.000Z</time>
      </trkpt>
      <trkpt lat="45.64438" lon="6.69702">
        <ele>2477</ele>
        <time>2020-01-15T12:41:19.000Z</time>
      </trkpt>
      <trkpt lat="45.64437" lon="6.69707">
        <ele>2476.1999511719</ele>
        <time>2020-01-15T12:41:20.000Z</time>
      </trkpt>
      <trkpt lat="45.64434" lon="6.69711">
        <ele>2474</ele>
        <time>2020-01-15T12:41:21.000Z</time>
      </trkpt>
      <trkpt lat="45.64431" lon="6.69706">
        <ele>2473</ele>
        <time>2020-01-15T12:41:22.000Z</time>
      </trkpt>
      <trkpt lat="45.64428" lon="6.69702">
        <ele>2472</ele>
        <time>2020-01-15T12:41:23.000Z</time>
      </trkpt>
      <trkpt lat="45.64426" lon="6.697">
        <ele>2470.6000976562</ele>
        <time>2020-01-15T12:41:24.000Z</time>
      </trkpt>
      <trkpt lat="45.64427" lon="6.69701">
        <ele>2469.6000976562</ele>
        <time>2020-01-15T12:41:25.000Z</time>
      </trkpt>
      <trkpt lat="45.64426" lon="6.69705">
        <ele>2468.8000488281</ele>
        <time>2020-01-15T12:41:26.000Z</time>
      </trkpt>
      <trkpt lat="45.64425" lon="6.69709">
        <ele>2468</ele>
        <time>2020-01-15T12:41:27.000Z</time>
      </trkpt>
      <trkpt lat="45.64425" lon="6.69711">
        <ele>2466.3999023438</ele>
        <time>2020-01-15T12:41:28.000Z</time>
      </trkpt>
      <trkpt lat="45.64424" lon="6.69706">
        <ele>2464.3999023438</ele>
        <time>2020-01-15T12:41:29.000Z</time>
      </trkpt>
      <trkpt lat="45.64423" lon="6.69701">
        <ele>2462.1999511719</ele>
        <time>2020-01-15T12:41:30.000Z</time>
      </trkpt>
      <trkpt lat="45.64423" lon="6.69696">
        <ele>2460.1999511719</ele>
        <time>2020-01-15T12:41:31.000Z</time>
      </trkpt>
      <trkpt lat="45.64426" lon="6.69685">
        <ele>2458.8000488281</ele>
        <time>2020-01-15T12:41:32.000Z</time>
      </trkpt>
      <trkpt lat="45.64429" lon="6.69677">
        <ele>2457.3999023438</ele>
        <time>2020-01-15T12:41:33.000Z</time>
      </trkpt>
      <trkpt lat="45.64431" lon="6.69673">
        <ele>2456.1999511719</ele>
        <time>2020-01-15T12:41:34.000Z</time>
      </trkpt>
      <trkpt lat="45.64431" lon="6.69671">
        <ele>2455.3999023438</ele>
        <time>2020-01-15T12:41:35.000Z</time>
      </trkpt>
      <trkpt lat="45.64432" lon="6.69669">
        <ele>2454.8000488281</ele>
        <time>2020-01-15T12:41:36.000Z</time>
      </trkpt>
      <trkpt lat="45.64432" lon="6.69664">
        <ele>2454</ele>
        <time>2020-01-15T12:41:45.000Z</time>
      </trkpt>
      <trkpt lat="45.64432" lon="6.69664">
        <ele>2454</ele>
        <time>2020-01-15T12:41:58.000Z</time>
      </trkpt>
      <trkpt lat="45.64433" lon="6.69662">
        <ele>2453.8000488281</ele>
        <time>2020-01-15T12:42:18.000Z</time>
      </trkpt>
      <trkpt lat="45.64432" lon="6.69668">
        <ele>2453.8000488281</ele>
        <time>2020-01-15T12:42:20.000Z</time>
      </trkpt>
      <trkpt lat="45.64432" lon="6.69686">
        <ele>2453.8000488281</ele>
        <time>2020-01-15T12:42:22.000Z</time>
      </trkpt>
      <trkpt lat="45.6443" lon="6.69685">
        <ele>2453.6000976562</ele>
        <time>2020-01-15T12:42:24.000Z</time>
      </trkpt>
      <trkpt lat="45.64426" lon="6.69681">
        <ele>2453.1999511719</ele>
        <time>2020-01-15T12:42:25.000Z</time>
      </trkpt>
      <trkpt lat="45.64424" lon="6.69683">
        <ele>2452.3999023438</ele>
        <time>2020-01-15T12:42:26.000Z</time>
      </trkpt>
      <trkpt lat="45.64422" lon="6.69689">
        <ele>2451.3999023438</ele>
        <time>2020-01-15T12:42:28.000Z</time>
      </trkpt>
      <trkpt lat="45.64418" lon="6.6969">
        <ele>2450.1999511719</ele>
        <time>2020-01-15T12:42:31.000Z</time>
      </trkpt>
      <trkpt lat="45.64416" lon="6.69688">
        <ele>2449.6000976562</ele>
        <time>2020-01-15T12:42:32.000Z</time>
      </trkpt>
      <trkpt lat="45.64414" lon="6.69687">
        <ele>2448.3999023438</ele>
        <time>2020-01-15T12:42:33.000Z</time>
      </trkpt>
      <trkpt lat="45.64413" lon="6.69688">
        <ele>2447.3999023438</ele>
        <time>2020-01-15T12:42:34.000Z</time>
      </trkpt>
      <trkpt lat="45.64412" lon="6.69697">
        <ele>2446.6000976562</ele>
        <time>2020-01-15T12:42:35.000Z</time>
      </trkpt>
      <trkpt lat="45.64408" lon="6.69702">
        <ele>2446</ele>
        <time>2020-01-15T12:42:36.000Z</time>
      </trkpt>
      <trkpt lat="45.64404" lon="6.69699">
        <ele>2445.1999511719</ele>
        <time>2020-01-15T12:42:37.000Z</time>
      </trkpt>
      <trkpt lat="45.644" lon="6.69703">
        <ele>2443.6000976562</ele>
        <time>2020-01-15T12:42:38.000Z</time>
      </trkpt>
      <trkpt lat="45.64396" lon="6.6971">
        <ele>2441.6000976562</ele>
        <time>2020-01-15T12:42:39.000Z</time>
      </trkpt>
      <trkpt lat="45.64393" lon="6.69715">
        <ele>2439.8000488281</ele>
        <time>2020-01-15T12:42:40.000Z</time>
      </trkpt>
      <trkpt lat="45.64389" lon="6.69716">
        <ele>2438.6000976562</ele>
        <time>2020-01-15T12:42:41.000Z</time>
      </trkpt>
      <trkpt lat="45.64384" lon="6.69715">
        <ele>2436.8000488281</ele>
        <time>2020-01-15T12:42:42.000Z</time>
      </trkpt>
      <trkpt lat="45.64377" lon="6.6972">
        <ele>2434.3999023438</ele>
        <time>2020-01-15T12:42:43.000Z</time>
      </trkpt>
      <trkpt lat="45.64372" lon="6.69722">
        <ele>2432</ele>
        <time>2020-01-15T12:42:44.000Z</time>
      </trkpt>
      <trkpt lat="45.64365" lon="6.69725">
        <ele>2430</ele>
        <time>2020-01-15T12:42:45.000Z</time>
      </trkpt>
      <trkpt lat="45.64359" lon="6.69726">
        <ele>2428.3999023438</ele>
        <time>2020-01-15T12:42:46.000Z</time>
      </trkpt>
      <trkpt lat="45.64352" lon="6.69731">
        <ele>2426.6000976562</ele>
        <time>2020-01-15T12:42:47.000Z</time>
      </trkpt>
      <trkpt lat="45.64346" lon="6.69735">
        <ele>2424.3999023438</ele>
        <time>2020-01-15T12:42:48.000Z</time>
      </trkpt>
      <trkpt lat="45.6434" lon="6.69735">
        <ele>2422</ele>
        <time>2020-01-15T12:42:49.000Z</time>
      </trkpt>
      <trkpt lat="45.64334" lon="6.69735">
        <ele>2420</ele>
        <time>2020-01-15T12:42:50.000Z</time>
      </trkpt>
      <trkpt lat="45.64328" lon="6.69735">
        <ele>2418</ele>
        <time>2020-01-15T12:42:51.000Z</time>
      </trkpt>
      <trkpt lat="45.64322" lon="6.69733">
        <ele>2415.8000488281</ele>
        <time>2020-01-15T12:42:52.000Z</time>
      </trkpt>
      <trkpt lat="45.64316" lon="6.69732">
        <ele>2413.6000976562</ele>
        <time>2020-01-15T12:42:53.000Z</time>
      </trkpt>
      <trkpt lat="45.6431" lon="6.6973">
        <ele>2411.6000976562</ele>
        <time>2020-01-15T12:42:54.000Z</time>
      </trkpt>
      <trkpt lat="45.64302" lon="6.6973">
        <ele>2409.8000488281</ele>
        <time>2020-01-15T12:42:55.000Z</time>
      </trkpt>
      <trkpt lat="45.64297" lon="6.69732">
        <ele>2408</ele>
        <time>2020-01-15T12:42:56.000Z</time>
      </trkpt>
      <trkpt lat="45.64294" lon="6.69734">
        <ele>2404.3999023438</ele>
        <time>2020-01-15T12:42:57.000Z</time>
      </trkpt>
      <trkpt lat="45.6429" lon="6.69736">
        <ele>2402.6000976562</ele>
        <time>2020-01-15T12:42:58.000Z</time>
      </trkpt>
      <trkpt lat="45.64285" lon="6.69739">
        <ele>2401</ele>
        <time>2020-01-15T12:42:59.000Z</time>
      </trkpt>
      <trkpt lat="45.64282" lon="6.69744">
        <ele>2399.1999511719</ele>
        <time>2020-01-15T12:43:00.000Z</time>
      </trkpt>
      <trkpt lat="45.64279" lon="6.69743">
        <ele>2397.3999023438</ele>
        <time>2020-01-15T12:43:01.000Z</time>
      </trkpt>
      <trkpt lat="45.64273" lon="6.69744">
        <ele>2395.6000976562</ele>
        <time>2020-01-15T12:43:02.000Z</time>
      </trkpt>
      <trkpt lat="45.64267" lon="6.69747">
        <ele>2393.3999023438</ele>
        <time>2020-01-15T12:43:03.000Z</time>
      </trkpt>
      <trkpt lat="45.6426" lon="6.69749">
        <ele>2391.6000976562</ele>
        <time>2020-01-15T12:43:04.000Z</time>
      </trkpt>
      <trkpt lat="45.64259" lon="6.69754">
        <ele>2389.8000488281</ele>
        <time>2020-01-15T12:43:05.000Z</time>
      </trkpt>
      <trkpt lat="45.64256" lon="6.69756">
        <ele>2388.1999511719</ele>
        <time>2020-01-15T12:43:06.000Z</time>
      </trkpt>
      <trkpt lat="45.64249" lon="6.6976">
        <ele>2386.1999511719</ele>
        <time>2020-01-15T12:43:07.000Z</time>
      </trkpt>
      <trkpt lat="45.64243" lon="6.69761">
        <ele>2384.3999023438</ele>
        <time>2020-01-15T12:43:08.000Z</time>
      </trkpt>
      <trkpt lat="45.64237" lon="6.69764">
        <ele>2383</ele>
        <time>2020-01-15T12:43:09.000Z</time>
      </trkpt>
      <trkpt lat="45.64236" lon="6.69771">
        <ele>2381.6000976562</ele>
        <time>2020-01-15T12:43:10.000Z</time>
      </trkpt>
      <trkpt lat="45.64234" lon="6.6977">
        <ele>2379.8000488281</ele>
        <time>2020-01-15T12:43:11.000Z</time>
      </trkpt>
      <trkpt lat="45.64227" lon="6.69772">
        <ele>2377.8000488281</ele>
        <time>2020-01-15T12:43:12.000Z</time>
      </trkpt>
      <trkpt lat="45.64221" lon="6.69773">
        <ele>2376</ele>
        <time>2020-01-15T12:43:13.000Z</time>
      </trkpt>
      <trkpt lat="45.64215" lon="6.69773">
        <ele>2374.6000976562</ele>
        <time>2020-01-15T12:43:14.000Z</time>
      </trkpt>
      <trkpt lat="45.64209" lon="6.69774">
        <ele>2373.1999511719</ele>
        <time>2020-01-15T12:43:15.000Z</time>
      </trkpt>
      <trkpt lat="45.64211" lon="6.6978">
        <ele>2371.6000976562</ele>
        <time>2020-01-15T12:43:16.000Z</time>
      </trkpt>
      <trkpt lat="45.64212" lon="6.69791">
        <ele>2369.3999023438</ele>
        <time>2020-01-15T12:43:17.000Z</time>
      </trkpt>
      <trkpt lat="45.64208" lon="6.69795">
        <ele>2367.3999023438</ele>
        <time>2020-01-15T12:43:18.000Z</time>
      </trkpt>
      <trkpt lat="45.64208" lon="6.69804">
        <ele>2365.8000488281</ele>
        <time>2020-01-15T12:43:19.000Z</time>
      </trkpt>
      <trkpt lat="45.64206" lon="6.69808">
        <ele>2364.8000488281</ele>
        <time>2020-01-15T12:43:20.000Z</time>
      </trkpt>
      <trkpt lat="45.64202" lon="6.69811">
        <ele>2362</ele>
        <time>2020-01-15T12:43:21.000Z</time>
      </trkpt>
      <trkpt lat="45.64198" lon="6.69812">
        <ele>2360.3999023438</ele>
        <time>2020-01-15T12:43:22.000Z</time>
      </trkpt>
      <trkpt lat="45.64195" lon="6.69812">
        <ele>2359.1999511719</ele>
        <time>2020-01-15T12:43:23.000Z</time>
      </trkpt>
      <trkpt lat="45.64193" lon="6.69813">
        <ele>2358</ele>
        <time>2020-01-15T12:43:24.000Z</time>
      </trkpt>
      <trkpt lat="45.64201" lon="6.69828">
        <ele>2356.6000976562</ele>
        <time>2020-01-15T12:43:25.000Z</time>
      </trkpt>
      <trkpt lat="45.642" lon="6.69833">
        <ele>2355.1999511719</ele>
        <time>2020-01-15T12:43:26.000Z</time>
      </trkpt>
      <trkpt lat="45.64198" lon="6.69834">
        <ele>2353.6000976562</ele>
        <time>2020-01-15T12:43:27.000Z</time>
      </trkpt>
      <trkpt lat="45.64197" lon="6.69841">
        <ele>2352.1999511719</ele>
        <time>2020-01-15T12:43:28.000Z</time>
      </trkpt>
      <trkpt lat="45.64193" lon="6.69844">
        <ele>2351</ele>
        <time>2020-01-15T12:43:29.000Z</time>
      </trkpt>
      <trkpt lat="45.64188" lon="6.69854">
        <ele>2349.1999511719</ele>
        <time>2020-01-15T12:43:31.000Z</time>
      </trkpt>
      <trkpt lat="45.64186" lon="6.69862">
        <ele>2347.8000488281</ele>
        <time>2020-01-15T12:43:32.000Z</time>
      </trkpt>
      <trkpt lat="45.64182" lon="6.69869">
        <ele>2346</ele>
        <time>2020-01-15T12:43:33.000Z</time>
      </trkpt>
      <trkpt lat="45.64183" lon="6.69873">
        <ele>2344.1999511719</ele>
        <time>2020-01-15T12:43:34.000Z</time>
      </trkpt>
      <trkpt lat="45.64182" lon="6.69878">
        <ele>2343</ele>
        <time>2020-01-15T12:43:35.000Z</time>
      </trkpt>
      <trkpt lat="45.64178" lon="6.69881">
        <ele>2341.8000488281</ele>
        <time>2020-01-15T12:43:36.000Z</time>
      </trkpt>
      <trkpt lat="45.64174" lon="6.69886">
        <ele>2340</ele>
        <time>2020-01-15T12:43:37.000Z</time>
      </trkpt>
      <trkpt lat="45.64173" lon="6.69895">
        <ele>2337.6000976562</ele>
        <time>2020-01-15T12:43:38.000Z</time>
      </trkpt>
      <trkpt lat="45.64169" lon="6.69897">
        <ele>2335.6000976562</ele>
        <time>2020-01-15T12:43:39.000Z</time>
      </trkpt>
      <trkpt lat="45.64164" lon="6.69902">
        <ele>2333.8000488281</ele>
        <time>2020-01-15T12:43:40.000Z</time>
      </trkpt>
      <trkpt lat="45.64161" lon="6.69903">
        <ele>2332</ele>
        <time>2020-01-15T12:43:41.000Z</time>
      </trkpt>
      <trkpt lat="45.64165" lon="6.69906">
        <ele>2330.3999023438</ele>
        <time>2020-01-15T12:43:42.000Z</time>
      </trkpt>
      <trkpt lat="45.64165" lon="6.69906">
        <ele>2329</ele>
        <time>2020-01-15T12:43:43.000Z</time>
      </trkpt>
      <trkpt lat="45.64166" lon="6.69907">
        <ele>2328</ele>
        <time>2020-01-15T12:43:44.000Z</time>
      </trkpt>
      <trkpt lat="45.64166" lon="6.69907">
        <ele>2325.1999511719</ele>
        <time>2020-01-15T12:43:45.000Z</time>
      </trkpt>
      <trkpt lat="45.64166" lon="6.69907">
        <ele>2324</ele>
        <time>2020-01-15T12:43:46.000Z</time>
      </trkpt>
      <trkpt lat="45.64166" lon="6.69907">
        <ele>2322.6000976562</ele>
        <time>2020-01-15T12:43:48.000Z</time>
      </trkpt>
      <trkpt lat="45.64167" lon="6.69907">
        <ele>2322</ele>
        <time>2020-01-15T12:43:53.000Z</time>
      </trkpt>
      <trkpt lat="45.64167" lon="6.69907">
        <ele>2322.1999511719</ele>
        <time>2020-01-15T12:44:02.000Z</time>
      </trkpt>
      <trkpt lat="45.64167" lon="6.69907">
        <ele>2322</ele>
        <time>2020-01-15T12:44:11.000Z</time>
      </trkpt>
      <trkpt lat="45.64167" lon="6.69907">
        <ele>2322</ele>
        <time>2020-01-15T12:44:31.000Z</time>
      </trkpt>
      <trkpt lat="45.64168" lon="6.69908">
        <ele>2322</ele>
        <time>2020-01-15T12:44:43.000Z</time>
      </trkpt>
      <trkpt lat="45.64168" lon="6.69908">
        <ele>2321.8000488281</ele>
        <time>2020-01-15T12:44:59.000Z</time>
      </trkpt>
      <trkpt lat="45.64168" lon="6.69908">
        <ele>2321.8000488281</ele>
        <time>2020-01-15T12:45:00.000Z</time>
      </trkpt>
      <trkpt lat="45.64168" lon="6.69908">
        <ele>2321.8000488281</ele>
        <time>2020-01-15T12:45:19.000Z</time>
      </trkpt>
      <trkpt lat="45.64169" lon="6.69907">
        <ele>2321.8000488281</ele>
        <time>2020-01-15T12:45:39.000Z</time>
      </trkpt>
      <trkpt lat="45.6417" lon="6.69911">
        <ele>2321.8000488281</ele>
        <time>2020-01-15T12:45:57.000Z</time>
      </trkpt>
      <trkpt lat="45.64171" lon="6.69917">
        <ele>2321.8000488281</ele>
        <time>2020-01-15T12:45:58.000Z</time>
      </trkpt>
      <trkpt lat="45.6417" lon="6.6993">
        <ele>2321.6000976562</ele>
        <time>2020-01-15T12:46:00.000Z</time>
      </trkpt>
      <trkpt lat="45.64168" lon="6.69931">
        <ele>2321.3999023438</ele>
        <time>2020-01-15T12:46:01.000Z</time>
      </trkpt>
      <trkpt lat="45.64164" lon="6.69932">
        <ele>2320.1999511719</ele>
        <time>2020-01-15T12:46:03.000Z</time>
      </trkpt>
      <trkpt lat="45.6416" lon="6.69934">
        <ele>2319.3999023438</ele>
        <time>2020-01-15T12:46:04.000Z</time>
      </trkpt>
      <trkpt lat="45.64157" lon="6.69933">
        <ele>2318.8000488281</ele>
        <time>2020-01-15T12:46:05.000Z</time>
      </trkpt>
      <trkpt lat="45.6415" lon="6.69939">
        <ele>2316.8000488281</ele>
        <time>2020-01-15T12:46:07.000Z</time>
      </trkpt>
      <trkpt lat="45.64146" lon="6.6994">
        <ele>2315.6000976562</ele>
        <time>2020-01-15T12:46:08.000Z</time>
      </trkpt>
      <trkpt lat="45.64141" lon="6.69942">
        <ele>2312.3999023438</ele>
        <time>2020-01-15T12:46:09.000Z</time>
      </trkpt>
      <trkpt lat="45.64138" lon="6.69945">
        <ele>2310.6000976562</ele>
        <time>2020-01-15T12:46:10.000Z</time>
      </trkpt>
      <trkpt lat="45.64134" lon="6.69949">
        <ele>2308.8000488281</ele>
        <time>2020-01-15T12:46:11.000Z</time>
      </trkpt>
      <trkpt lat="45.64129" lon="6.69953">
        <ele>2307.1999511719</ele>
        <time>2020-01-15T12:46:12.000Z</time>
      </trkpt>
      <trkpt lat="45.64125" lon="6.69955">
        <ele>2305.3999023438</ele>
        <time>2020-01-15T12:46:13.000Z</time>
      </trkpt>
      <trkpt lat="45.64122" lon="6.69957">
        <ele>2303.8000488281</ele>
        <time>2020-01-15T12:46:14.000Z</time>
      </trkpt>
      <trkpt lat="45.64124" lon="6.69963">
        <ele>2302.3999023438</ele>
        <time>2020-01-15T12:46:15.000Z</time>
      </trkpt>
      <trkpt lat="45.64125" lon="6.69968">
        <ele>2300.8000488281</ele>
        <time>2020-01-15T12:46:16.000Z</time>
      </trkpt>
      <trkpt lat="45.64125" lon="6.69974">
        <ele>2299.1999511719</ele>
        <time>2020-01-15T12:46:17.000Z</time>
      </trkpt>
      <trkpt lat="45.64125" lon="6.69978">
        <ele>2297.3999023438</ele>
        <time>2020-01-15T12:46:18.000Z</time>
      </trkpt>
      <trkpt lat="45.64126" lon="6.69981">
        <ele>2296.1999511719</ele>
        <time>2020-01-15T12:46:19.000Z</time>
      </trkpt>
      <trkpt lat="45.64128" lon="6.69987">
        <ele>2294.6000976562</ele>
        <time>2020-01-15T12:46:21.000Z</time>
      </trkpt>
      <trkpt lat="45.64128" lon="6.69988">
        <ele>2293.3999023438</ele>
        <time>2020-01-15T12:46:24.000Z</time>
      </trkpt>
      <trkpt lat="45.64128" lon="6.69988">
        <ele>2293.1999511719</ele>
        <time>2020-01-15T12:46:27.000Z</time>
      </trkpt>
      <trkpt lat="45.6413" lon="6.69994">
        <ele>2293.1999511719</ele>
        <time>2020-01-15T12:46:36.000Z</time>
      </trkpt>
      <trkpt lat="45.6413" lon="6.69999">
        <ele>2292.3999023438</ele>
        <time>2020-01-15T12:46:40.000Z</time>
      </trkpt>
      <trkpt lat="45.6413" lon="6.70002">
        <ele>2291.6000976562</ele>
        <time>2020-01-15T12:46:42.000Z</time>
      </trkpt>
      <trkpt lat="45.6413" lon="6.70002">
        <ele>2291</ele>
        <time>2020-01-15T12:46:43.000Z</time>
      </trkpt>
      <trkpt lat="45.64131" lon="6.70006">
        <ele>2290.6000976562</ele>
        <time>2020-01-15T12:46:44.000Z</time>
      </trkpt>
      <trkpt lat="45.64131" lon="6.70014">
        <ele>2290</ele>
        <time>2020-01-15T12:46:46.000Z</time>
      </trkpt>
      <trkpt lat="45.64132" lon="6.7002">
        <ele>2289.8000488281</ele>
        <time>2020-01-15T12:46:48.000Z</time>
      </trkpt>
      <trkpt lat="45.64135" lon="6.70039">
        <ele>2289</ele>
        <time>2020-01-15T12:46:53.000Z</time>
      </trkpt>
      <trkpt lat="45.64135" lon="6.70045">
        <ele>2288</ele>
        <time>2020-01-15T12:46:56.000Z</time>
      </trkpt>
      <trkpt lat="45.64135" lon="6.70048">
        <ele>2287.1999511719</ele>
        <time>2020-01-15T12:46:57.000Z</time>
      </trkpt>
      <trkpt lat="45.64136" lon="6.70051">
        <ele>2286.8000488281</ele>
        <time>2020-01-15T12:46:59.000Z</time>
      </trkpt>
      <trkpt lat="45.64136" lon="6.70057">
        <ele>2286.6000976562</ele>
        <time>2020-01-15T12:47:03.000Z</time>
      </trkpt>
      <trkpt lat="45.64137" lon="6.70057">
        <ele>2285.8000488281</ele>
        <time>2020-01-15T12:47:07.000Z</time>
      </trkpt>
      <trkpt lat="45.64137" lon="6.70057">
        <ele>2285.8000488281</ele>
        <time>2020-01-15T12:47:08.000Z</time>
      </trkpt>
      <trkpt lat="45.64138" lon="6.7006">
        <ele>2285.8000488281</ele>
        <time>2020-01-15T12:47:14.000Z</time>
      </trkpt>
      <trkpt lat="45.64138" lon="6.70062">
        <ele>2285.8000488281</ele>
        <time>2020-01-15T12:47:15.000Z</time>
      </trkpt>
      <trkpt lat="45.64138" lon="6.70073">
        <ele>2285.3999023438</ele>
        <time>2020-01-15T12:47:20.000Z</time>
      </trkpt>
      <trkpt lat="45.64139" lon="6.70078">
        <ele>2284.6000976562</ele>
        <time>2020-01-15T12:47:21.000Z</time>
      </trkpt>
      <trkpt lat="45.64137" lon="6.7009">
        <ele>2283.1999511719</ele>
        <time>2020-01-15T12:47:23.000Z</time>
      </trkpt>
      <trkpt lat="45.64133" lon="6.70102">
        <ele>2282</ele>
        <time>2020-01-15T12:47:26.000Z</time>
      </trkpt>
      <trkpt lat="45.64133" lon="6.70105">
        <ele>2281.6000976562</ele>
        <time>2020-01-15T12:47:27.000Z</time>
      </trkpt>
      <trkpt lat="45.64132" lon="6.70109">
        <ele>2281</ele>
        <time>2020-01-15T12:47:28.000Z</time>
      </trkpt>
      <trkpt lat="45.64133" lon="6.7011">
        <ele>2279.8000488281</ele>
        <time>2020-01-15T12:47:32.000Z</time>
      </trkpt>
      <trkpt lat="45.64133" lon="6.7011">
        <ele>2279.8000488281</ele>
        <time>2020-01-15T12:47:48.000Z</time>
      </trkpt>
      <trkpt lat="45.64133" lon="6.7011">
        <ele>2279.6000976562</ele>
        <time>2020-01-15T12:48:05.000Z</time>
      </trkpt>
      <trkpt lat="45.64132" lon="6.7011">
        <ele>2279.6000976562</ele>
        <time>2020-01-15T12:48:20.000Z</time>
      </trkpt>
      <trkpt lat="45.6413" lon="6.70114">
        <ele>2278.8000488281</ele>
        <time>2020-01-15T12:48:24.000Z</time>
      </trkpt>
      <trkpt lat="45.64129" lon="6.70112">
        <ele>2278.1999511719</ele>
        <time>2020-01-15T12:48:25.000Z</time>
      </trkpt>
      <trkpt lat="45.64129" lon="6.70108">
        <ele>2277.3999023438</ele>
        <time>2020-01-15T12:48:26.000Z</time>
      </trkpt>
      <trkpt lat="45.64129" lon="6.701">
        <ele>2276</ele>
        <time>2020-01-15T12:48:28.000Z</time>
      </trkpt>
      <trkpt lat="45.64129" lon="6.70094">
        <ele>2274.6000976562</ele>
        <time>2020-01-15T12:48:30.000Z</time>
      </trkpt>
      <trkpt lat="45.64129" lon="6.70089">
        <ele>2273.8000488281</ele>
        <time>2020-01-15T12:48:31.000Z</time>
      </trkpt>
      <trkpt lat="45.64129" lon="6.70085">
        <ele>2273.1999511719</ele>
        <time>2020-01-15T12:48:32.000Z</time>
      </trkpt>
      <trkpt lat="45.64128" lon="6.70085">
        <ele>2272</ele>
        <time>2020-01-15T12:48:33.000Z</time>
      </trkpt>
      <trkpt lat="45.64127" lon="6.70085">
        <ele>2271.3999023438</ele>
        <time>2020-01-15T12:48:34.000Z</time>
      </trkpt>
      <trkpt lat="45.64126" lon="6.70082">
        <ele>2270.8000488281</ele>
        <time>2020-01-15T12:48:35.000Z</time>
      </trkpt>
      <trkpt lat="45.64126" lon="6.70074">
        <ele>2268.6000976562</ele>
        <time>2020-01-15T12:48:37.000Z</time>
      </trkpt>
      <trkpt lat="45.64126" lon="6.70072">
        <ele>2266.6000976562</ele>
        <time>2020-01-15T12:48:38.000Z</time>
      </trkpt>
      <trkpt lat="45.64124" lon="6.7007">
        <ele>2264.6000976562</ele>
        <time>2020-01-15T12:48:39.000Z</time>
      </trkpt>
      <trkpt lat="45.64122" lon="6.70071">
        <ele>2263.1999511719</ele>
        <time>2020-01-15T12:48:40.000Z</time>
      </trkpt>
      <trkpt lat="45.64121" lon="6.70071">
        <ele>2262.3999023438</ele>
        <time>2020-01-15T12:48:41.000Z</time>
      </trkpt>
      <trkpt lat="45.64121" lon="6.70071">
        <ele>2261.8000488281</ele>
        <time>2020-01-15T12:48:42.000Z</time>
      </trkpt>
      <trkpt lat="45.64121" lon="6.70071">
        <ele>2260.8000488281</ele>
        <time>2020-01-15T12:48:43.000Z</time>
      </trkpt>
      <trkpt lat="45.64121" lon="6.70071">
        <ele>2259.1999511719</ele>
        <time>2020-01-15T12:48:44.000Z</time>
      </trkpt>
      <trkpt lat="45.64121" lon="6.7007">
        <ele>2257.8000488281</ele>
        <time>2020-01-15T12:48:45.000Z</time>
      </trkpt>
      <trkpt lat="45.64122" lon="6.70068">
        <ele>2256.6000976562</ele>
        <time>2020-01-15T12:48:46.000Z</time>
      </trkpt>
      <trkpt lat="45.64124" lon="6.70063">
        <ele>2255.8000488281</ele>
        <time>2020-01-15T12:48:47.000Z</time>
      </trkpt>
      <trkpt lat="45.64124" lon="6.7006">
        <ele>2255.1999511719</ele>
        <time>2020-01-15T12:48:48.000Z</time>
      </trkpt>
      <trkpt lat="45.64122" lon="6.70061">
        <ele>2254</ele>
        <time>2020-01-15T12:48:50.000Z</time>
      </trkpt>
      <trkpt lat="45.64121" lon="6.70061">
        <ele>2252.8000488281</ele>
        <time>2020-01-15T12:48:53.000Z</time>
      </trkpt>
      <trkpt lat="45.64121" lon="6.70061">
        <ele>2251</ele>
        <time>2020-01-15T12:48:55.000Z</time>
      </trkpt>
      <trkpt lat="45.64121" lon="6.70061">
        <ele>2249.1999511719</ele>
        <time>2020-01-15T12:48:57.000Z</time>
      </trkpt>
      <trkpt lat="45.64121" lon="6.70061">
        <ele>2249.1999511719</ele>
        <time>2020-01-15T12:49:13.000Z</time>
      </trkpt>
      <trkpt lat="45.64121" lon="6.70061">
        <ele>2249.1999511719</ele>
        <time>2020-01-15T12:49:29.000Z</time>
      </trkpt>
      <trkpt lat="45.64121" lon="6.70061">
        <ele>2249</ele>
        <time>2020-01-15T12:49:38.000Z</time>
      </trkpt>
      <trkpt lat="45.64121" lon="6.70062">
        <ele>2249</ele>
        <time>2020-01-15T12:49:39.000Z</time>
      </trkpt>
      <trkpt lat="45.64116" lon="6.70074">
        <ele>2248</ele>
        <time>2020-01-15T12:49:44.000Z</time>
      </trkpt>
      <trkpt lat="45.64112" lon="6.70081">
        <ele>2246.6000976562</ele>
        <time>2020-01-15T12:49:46.000Z</time>
      </trkpt>
      <trkpt lat="45.64103" lon="6.70089">
        <ele>2244.6000976562</ele>
        <time>2020-01-15T12:49:48.000Z</time>
      </trkpt>
      <trkpt lat="45.64099" lon="6.70093">
        <ele>2243.6000976562</ele>
        <time>2020-01-15T12:49:49.000Z</time>
      </trkpt>
      <trkpt lat="45.64095" lon="6.70096">
        <ele>2242.6000976562</ele>
        <time>2020-01-15T12:49:50.000Z</time>
      </trkpt>
      <trkpt lat="45.64091" lon="6.70098">
        <ele>2241.3999023438</ele>
        <time>2020-01-15T12:49:51.000Z</time>
      </trkpt>
      <trkpt lat="45.64086" lon="6.70098">
        <ele>2239.8000488281</ele>
        <time>2020-01-15T12:49:52.000Z</time>
      </trkpt>
      <trkpt lat="45.64081" lon="6.70097">
        <ele>2238.3999023438</ele>
        <time>2020-01-15T12:49:53.000Z</time>
      </trkpt>
      <trkpt lat="45.64077" lon="6.70095">
        <ele>2237.3999023438</ele>
        <time>2020-01-15T12:49:54.000Z</time>
      </trkpt>
      <trkpt lat="45.64077" lon="6.70089">
        <ele>2236.1999511719</ele>
        <time>2020-01-15T12:49:55.000Z</time>
      </trkpt>
      <trkpt lat="45.64076" lon="6.70082">
        <ele>2234.3999023438</ele>
        <time>2020-01-15T12:49:56.000Z</time>
      </trkpt>
      <trkpt lat="45.64073" lon="6.70077">
        <ele>2231.3999023438</ele>
        <time>2020-01-15T12:49:57.000Z</time>
      </trkpt>
      <trkpt lat="45.64067" lon="6.70074">
        <ele>2228.6000976562</ele>
        <time>2020-01-15T12:49:58.000Z</time>
      </trkpt>
      <trkpt lat="45.64061" lon="6.70072">
        <ele>2226.1999511719</ele>
        <time>2020-01-15T12:49:59.000Z</time>
      </trkpt>
      <trkpt lat="45.6406" lon="6.70066">
        <ele>2224.6000976562</ele>
        <time>2020-01-15T12:50:00.000Z</time>
      </trkpt>
      <trkpt lat="45.64057" lon="6.70061">
        <ele>2222.6000976562</ele>
        <time>2020-01-15T12:50:01.000Z</time>
      </trkpt>
      <trkpt lat="45.64053" lon="6.70057">
        <ele>2220.1999511719</ele>
        <time>2020-01-15T12:50:02.000Z</time>
      </trkpt>
      <trkpt lat="45.64049" lon="6.70054">
        <ele>2217.8000488281</ele>
        <time>2020-01-15T12:50:03.000Z</time>
      </trkpt>
      <trkpt lat="45.64044" lon="6.70052">
        <ele>2216.1999511719</ele>
        <time>2020-01-15T12:50:04.000Z</time>
      </trkpt>
      <trkpt lat="45.64041" lon="6.70051">
        <ele>2215</ele>
        <time>2020-01-15T12:50:05.000Z</time>
      </trkpt>
      <trkpt lat="45.64039" lon="6.70051">
        <ele>2213.6000976562</ele>
        <time>2020-01-15T12:50:06.000Z</time>
      </trkpt>
      <trkpt lat="45.6404" lon="6.70049">
        <ele>2211.8000488281</ele>
        <time>2020-01-15T12:50:07.000Z</time>
      </trkpt>
      <trkpt lat="45.6404" lon="6.70049">
        <ele>2210.1999511719</ele>
        <time>2020-01-15T12:50:08.000Z</time>
      </trkpt>
      <trkpt lat="45.6404" lon="6.70049">
        <ele>2208.8000488281</ele>
        <time>2020-01-15T12:50:09.000Z</time>
      </trkpt>
      <trkpt lat="45.6404" lon="6.70049">
        <ele>2207</ele>
        <time>2020-01-15T12:50:10.000Z</time>
      </trkpt>
      <trkpt lat="45.6404" lon="6.70049">
        <ele>2206</ele>
        <time>2020-01-15T12:50:13.000Z</time>
      </trkpt>
      <trkpt lat="45.64042" lon="6.70036">
        <ele>2205.8000488281</ele>
        <time>2020-01-15T12:50:20.000Z</time>
      </trkpt>
      <trkpt lat="45.64044" lon="6.70029">
        <ele>2205.3999023438</ele>
        <time>2020-01-15T12:50:24.000Z</time>
      </trkpt>
      <trkpt lat="45.64044" lon="6.70029">
        <ele>2205</ele>
        <time>2020-01-15T12:50:27.000Z</time>
      </trkpt>
      <trkpt lat="45.64043" lon="6.70028">
        <ele>2205.1999511719</ele>
        <time>2020-01-15T12:50:33.000Z</time>
      </trkpt>
      <trkpt lat="45.64037" lon="6.70035">
        <ele>2205.1999511719</ele>
        <time>2020-01-15T12:50:36.000Z</time>
      </trkpt>
      <trkpt lat="45.64028" lon="6.70049">
        <ele>2203.3999023438</ele>
        <time>2020-01-15T12:50:40.000Z</time>
      </trkpt>
      <trkpt lat="45.64027" lon="6.70046">
        <ele>2201.8000488281</ele>
        <time>2020-01-15T12:50:42.000Z</time>
      </trkpt>
      <trkpt lat="45.64028" lon="6.7004">
        <ele>2201.1999511719</ele>
        <time>2020-01-15T12:50:43.000Z</time>
      </trkpt>
      <trkpt lat="45.64025" lon="6.70037">
        <ele>2200.6000976562</ele>
        <time>2020-01-15T12:50:44.000Z</time>
      </trkpt>
      <trkpt lat="45.64022" lon="6.70035">
        <ele>2199.3999023438</ele>
        <time>2020-01-15T12:50:46.000Z</time>
      </trkpt>
      <trkpt lat="45.64019" lon="6.70034">
        <ele>2199</ele>
        <time>2020-01-15T12:50:47.000Z</time>
      </trkpt>
      <trkpt lat="45.64016" lon="6.70036">
        <ele>2198.1999511719</ele>
        <time>2020-01-15T12:50:48.000Z</time>
      </trkpt>
      <trkpt lat="45.64014" lon="6.70041">
        <ele>2197.1999511719</ele>
        <time>2020-01-15T12:50:49.000Z</time>
      </trkpt>
      <trkpt lat="45.64012" lon="6.70046">
        <ele>2195.6000976562</ele>
        <time>2020-01-15T12:50:50.000Z</time>
      </trkpt>
      <trkpt lat="45.6401" lon="6.70048">
        <ele>2194.1999511719</ele>
        <time>2020-01-15T12:50:51.000Z</time>
      </trkpt>
      <trkpt lat="45.64007" lon="6.7005">
        <ele>2193</ele>
        <time>2020-01-15T12:50:52.000Z</time>
      </trkpt>
      <trkpt lat="45.64005" lon="6.70053">
        <ele>2191.1999511719</ele>
        <time>2020-01-15T12:50:53.000Z</time>
      </trkpt>
      <trkpt lat="45.64002" lon="6.70058">
        <ele>2189.1999511719</ele>
        <time>2020-01-15T12:50:54.000Z</time>
      </trkpt>
      <trkpt lat="45.63999" lon="6.70061">
        <ele>2187.3999023438</ele>
        <time>2020-01-15T12:50:55.000Z</time>
      </trkpt>
      <trkpt lat="45.63993" lon="6.70065">
        <ele>2184.1999511719</ele>
        <time>2020-01-15T12:50:57.000Z</time>
      </trkpt>
      <trkpt lat="45.63991" lon="6.7007">
        <ele>2179.6000976562</ele>
        <time>2020-01-15T12:50:58.000Z</time>
      </trkpt>
      <trkpt lat="45.63984" lon="6.70072">
        <ele>2177.6000976562</ele>
        <time>2020-01-15T12:50:59.000Z</time>
      </trkpt>
      <trkpt lat="45.63973" lon="6.70084">
        <ele>2172.3999023438</ele>
        <time>2020-01-15T12:51:01.000Z</time>
      </trkpt>
      <trkpt lat="45.63969" lon="6.70089">
        <ele>2170.1999511719</ele>
        <time>2020-01-15T12:51:02.000Z</time>
      </trkpt>
      <trkpt lat="45.63963" lon="6.70092">
        <ele>2168.3999023438</ele>
        <time>2020-01-15T12:51:03.000Z</time>
      </trkpt>
      <trkpt lat="45.63956" lon="6.70097">
        <ele>2166.3999023438</ele>
        <time>2020-01-15T12:51:04.000Z</time>
      </trkpt>
      <trkpt lat="45.6395" lon="6.70103">
        <ele>2164.1999511719</ele>
        <time>2020-01-15T12:51:05.000Z</time>
      </trkpt>
      <trkpt lat="45.63944" lon="6.70108">
        <ele>2162</ele>
        <time>2020-01-15T12:51:06.000Z</time>
      </trkpt>
      <trkpt lat="45.6394" lon="6.70112">
        <ele>2160.1999511719</ele>
        <time>2020-01-15T12:51:07.000Z</time>
      </trkpt>
      <trkpt lat="45.63937" lon="6.70116">
        <ele>2158.3999023438</ele>
        <time>2020-01-15T12:51:08.000Z</time>
      </trkpt>
      <trkpt lat="45.63935" lon="6.70119">
        <ele>2156.3999023438</ele>
        <time>2020-01-15T12:51:09.000Z</time>
      </trkpt>
      <trkpt lat="45.63933" lon="6.70122">
        <ele>2154.8000488281</ele>
        <time>2020-01-15T12:51:10.000Z</time>
      </trkpt>
      <trkpt lat="45.63929" lon="6.70122">
        <ele>2153.6000976562</ele>
        <time>2020-01-15T12:51:11.000Z</time>
      </trkpt>
      <trkpt lat="45.63919" lon="6.70115">
        <ele>2151.6000976562</ele>
        <time>2020-01-15T12:51:13.000Z</time>
      </trkpt>
      <trkpt lat="45.63913" lon="6.70111">
        <ele>2150.3999023438</ele>
        <time>2020-01-15T12:51:14.000Z</time>
      </trkpt>
      <trkpt lat="45.63906" lon="6.70111">
        <ele>2149</ele>
        <time>2020-01-15T12:51:15.000Z</time>
      </trkpt>
      <trkpt lat="45.63899" lon="6.70112">
        <ele>2147.8000488281</ele>
        <time>2020-01-15T12:51:16.000Z</time>
      </trkpt>
      <trkpt lat="45.63885" lon="6.70115">
        <ele>2146.6000976562</ele>
        <time>2020-01-15T12:51:18.000Z</time>
      </trkpt>
      <trkpt lat="45.63872" lon="6.7012">
        <ele>2144.1999511719</ele>
        <time>2020-01-15T12:51:20.000Z</time>
      </trkpt>
      <trkpt lat="45.63867" lon="6.70123">
        <ele>2143</ele>
        <time>2020-01-15T12:51:21.000Z</time>
      </trkpt>
      <trkpt lat="45.63861" lon="6.70125">
        <ele>2140.1999511719</ele>
        <time>2020-01-15T12:51:22.000Z</time>
      </trkpt>
      <trkpt lat="45.6386" lon="6.7013">
        <ele>2138.1999511719</ele>
        <time>2020-01-15T12:51:23.000Z</time>
      </trkpt>
      <trkpt lat="45.6386" lon="6.70134">
        <ele>2136.6000976562</ele>
        <time>2020-01-15T12:51:24.000Z</time>
      </trkpt>
      <trkpt lat="45.63862" lon="6.70136">
        <ele>2135.3999023438</ele>
        <time>2020-01-15T12:51:25.000Z</time>
      </trkpt>
      <trkpt lat="45.63862" lon="6.70136">
        <ele>2134.1999511719</ele>
        <time>2020-01-15T12:51:26.000Z</time>
      </trkpt>
      <trkpt lat="45.63862" lon="6.70136">
        <ele>2132.8000488281</ele>
        <time>2020-01-15T12:51:27.000Z</time>
      </trkpt>
      <trkpt lat="45.63862" lon="6.70136">
        <ele>2131.6000976562</ele>
        <time>2020-01-15T12:51:28.000Z</time>
      </trkpt>
      <trkpt lat="45.63862" lon="6.70136">
        <ele>2130</ele>
        <time>2020-01-15T12:51:30.000Z</time>
      </trkpt>
      <trkpt lat="45.63862" lon="6.70136">
        <ele>2129.1999511719</ele>
        <time>2020-01-15T12:51:44.000Z</time>
      </trkpt>
      <trkpt lat="45.63862" lon="6.70136">
        <ele>2129.1999511719</ele>
        <time>2020-01-15T12:51:59.000Z</time>
      </trkpt>
      <trkpt lat="45.63864" lon="6.70137">
        <ele>2129.1999511719</ele>
        <time>2020-01-15T12:52:15.000Z</time>
      </trkpt>
      <trkpt lat="45.63864" lon="6.70137">
        <ele>2129.1999511719</ele>
        <time>2020-01-15T12:52:33.000Z</time>
      </trkpt>
      <trkpt lat="45.63864" lon="6.70137">
        <ele>2129</ele>
        <time>2020-01-15T12:52:34.000Z</time>
      </trkpt>
      <trkpt lat="45.63866" lon="6.7014">
        <ele>2129</ele>
        <time>2020-01-15T12:52:52.000Z</time>
      </trkpt>
      <trkpt lat="45.63869" lon="6.70146">
        <ele>2129</ele>
        <time>2020-01-15T12:52:53.000Z</time>
      </trkpt>
      <trkpt lat="45.63871" lon="6.70161">
        <ele>2129</ele>
        <time>2020-01-15T12:52:56.000Z</time>
      </trkpt>
      <trkpt lat="45.63864" lon="6.70175">
        <ele>2127.6000976562</ele>
        <time>2020-01-15T12:52:59.000Z</time>
      </trkpt>
      <trkpt lat="45.63858" lon="6.70187">
        <ele>2125.3999023438</ele>
        <time>2020-01-15T12:53:01.000Z</time>
      </trkpt>
      <trkpt lat="45.63855" lon="6.70191">
        <ele>2123.6000976562</ele>
        <time>2020-01-15T12:53:02.000Z</time>
      </trkpt>
      <trkpt lat="45.63851" lon="6.70193">
        <ele>2122</ele>
        <time>2020-01-15T12:53:03.000Z</time>
      </trkpt>
      <trkpt lat="45.63847" lon="6.70197">
        <ele>2120.3999023438</ele>
        <time>2020-01-15T12:53:04.000Z</time>
      </trkpt>
      <trkpt lat="45.63845" lon="6.70202">
        <ele>2118.6000976562</ele>
        <time>2020-01-15T12:53:05.000Z</time>
      </trkpt>
      <trkpt lat="45.63841" lon="6.70205">
        <ele>2117</ele>
        <time>2020-01-15T12:53:06.000Z</time>
      </trkpt>
      <trkpt lat="45.63837" lon="6.70208">
        <ele>2115.6000976562</ele>
        <time>2020-01-15T12:53:07.000Z</time>
      </trkpt>
      <trkpt lat="45.63833" lon="6.70213">
        <ele>2114</ele>
        <time>2020-01-15T12:53:08.000Z</time>
      </trkpt>
      <trkpt lat="45.6383" lon="6.70217">
        <ele>2111.8000488281</ele>
        <time>2020-01-15T12:53:09.000Z</time>
      </trkpt>
      <trkpt lat="45.63825" lon="6.7022">
        <ele>2110.1999511719</ele>
        <time>2020-01-15T12:53:10.000Z</time>
      </trkpt>
      <trkpt lat="45.63819" lon="6.70223">
        <ele>2108.6000976562</ele>
        <time>2020-01-15T12:53:11.000Z</time>
      </trkpt>
      <trkpt lat="45.63816" lon="6.7023">
        <ele>2106.8000488281</ele>
        <time>2020-01-15T12:53:12.000Z</time>
      </trkpt>
      <trkpt lat="45.63812" lon="6.70235">
        <ele>2105</ele>
        <time>2020-01-15T12:53:13.000Z</time>
      </trkpt>
      <trkpt lat="45.63808" lon="6.70238">
        <ele>2103.1999511719</ele>
        <time>2020-01-15T12:53:14.000Z</time>
      </trkpt>
      <trkpt lat="45.63806" lon="6.70245">
        <ele>2101.1999511719</ele>
        <time>2020-01-15T12:53:15.000Z</time>
      </trkpt>
      <trkpt lat="45.63804" lon="6.7025">
        <ele>2098.8000488281</ele>
        <time>2020-01-15T12:53:16.000Z</time>
      </trkpt>
      <trkpt lat="45.63802" lon="6.70257">
        <ele>2096.6000976562</ele>
        <time>2020-01-15T12:53:17.000Z</time>
      </trkpt>
      <trkpt lat="45.638" lon="6.70264">
        <ele>2094.8000488281</ele>
        <time>2020-01-15T12:53:18.000Z</time>
      </trkpt>
      <trkpt lat="45.63795" lon="6.70269">
        <ele>2093.1999511719</ele>
        <time>2020-01-15T12:53:19.000Z</time>
      </trkpt>
      <trkpt lat="45.63791" lon="6.70274">
        <ele>2091.1999511719</ele>
        <time>2020-01-15T12:53:20.000Z</time>
      </trkpt>
      <trkpt lat="45.63786" lon="6.70279">
        <ele>2089</ele>
        <time>2020-01-15T12:53:21.000Z</time>
      </trkpt>
      <trkpt lat="45.63782" lon="6.70285">
        <ele>2086.1999511719</ele>
        <time>2020-01-15T12:53:22.000Z</time>
      </trkpt>
      <trkpt lat="45.63776" lon="6.70291">
        <ele>2084.6000976562</ele>
        <time>2020-01-15T12:53:23.000Z</time>
      </trkpt>
      <trkpt lat="45.63772" lon="6.70298">
        <ele>2082.6000976562</ele>
        <time>2020-01-15T12:53:24.000Z</time>
      </trkpt>
      <trkpt lat="45.63766" lon="6.70305">
        <ele>2080.8000488281</ele>
        <time>2020-01-15T12:53:25.000Z</time>
      </trkpt>
      <trkpt lat="45.63759" lon="6.70311">
        <ele>2079.3999023438</ele>
        <time>2020-01-15T12:53:26.000Z</time>
      </trkpt>
      <trkpt lat="45.63753" lon="6.70315">
        <ele>2078</ele>
        <time>2020-01-15T12:53:27.000Z</time>
      </trkpt>
      <trkpt lat="45.63747" lon="6.70319">
        <ele>2076.6000976562</ele>
        <time>2020-01-15T12:53:28.000Z</time>
      </trkpt>
      <trkpt lat="45.63744" lon="6.70327">
        <ele>2075.1999511719</ele>
        <time>2020-01-15T12:53:29.000Z</time>
      </trkpt>
      <trkpt lat="45.6374" lon="6.70334">
        <ele>2073.3999023438</ele>
        <time>2020-01-15T12:53:30.000Z</time>
      </trkpt>
      <trkpt lat="45.63736" lon="6.70339">
        <ele>2071.3999023438</ele>
        <time>2020-01-15T12:53:31.000Z</time>
      </trkpt>
      <trkpt lat="45.63733" lon="6.70348">
        <ele>2069.1999511719</ele>
        <time>2020-01-15T12:53:32.000Z</time>
      </trkpt>
      <trkpt lat="45.63729" lon="6.70356">
        <ele>2067.3999023438</ele>
        <time>2020-01-15T12:53:33.000Z</time>
      </trkpt>
      <trkpt lat="45.63724" lon="6.70362">
        <ele>2065.8000488281</ele>
        <time>2020-01-15T12:53:34.000Z</time>
      </trkpt>
      <trkpt lat="45.63719" lon="6.70369">
        <ele>2064.3999023438</ele>
        <time>2020-01-15T12:53:35.000Z</time>
      </trkpt>
      <trkpt lat="45.63714" lon="6.70375">
        <ele>2062.8000488281</ele>
        <time>2020-01-15T12:53:36.000Z</time>
      </trkpt>
      <trkpt lat="45.63711" lon="6.70378">
        <ele>2061.1999511719</ele>
        <time>2020-01-15T12:53:37.000Z</time>
      </trkpt>
      <trkpt lat="45.63706" lon="6.70381">
        <ele>2059.6000976562</ele>
        <time>2020-01-15T12:53:38.000Z</time>
      </trkpt>
      <trkpt lat="45.63701" lon="6.70385">
        <ele>2057.8000488281</ele>
        <time>2020-01-15T12:53:39.000Z</time>
      </trkpt>
      <trkpt lat="45.63698" lon="6.70391">
        <ele>2056.1999511719</ele>
        <time>2020-01-15T12:53:40.000Z</time>
      </trkpt>
      <trkpt lat="45.63695" lon="6.70395">
        <ele>2054.8000488281</ele>
        <time>2020-01-15T12:53:41.000Z</time>
      </trkpt>
      <trkpt lat="45.63689" lon="6.70398">
        <ele>2053.1999511719</ele>
        <time>2020-01-15T12:53:42.000Z</time>
      </trkpt>
      <trkpt lat="45.63684" lon="6.70403">
        <ele>2051.1999511719</ele>
        <time>2020-01-15T12:53:43.000Z</time>
      </trkpt>
      <trkpt lat="45.63681" lon="6.70409">
        <ele>2049.1999511719</ele>
        <time>2020-01-15T12:53:44.000Z</time>
      </trkpt>
      <trkpt lat="45.63676" lon="6.70414">
        <ele>2047.8000488281</ele>
        <time>2020-01-15T12:53:45.000Z</time>
      </trkpt>
      <trkpt lat="45.6367" lon="6.70418">
        <ele>2045.1999511719</ele>
        <time>2020-01-15T12:53:46.000Z</time>
      </trkpt>
      <trkpt lat="45.63664" lon="6.70422">
        <ele>2043.8000488281</ele>
        <time>2020-01-15T12:53:47.000Z</time>
      </trkpt>
      <trkpt lat="45.63658" lon="6.70426">
        <ele>2042.4000244141</ele>
        <time>2020-01-15T12:53:48.000Z</time>
      </trkpt>
      <trkpt lat="45.63653" lon="6.70432">
        <ele>2041.1999511719</ele>
        <time>2020-01-15T12:53:49.000Z</time>
      </trkpt>
      <trkpt lat="45.63648" lon="6.70436">
        <ele>2039.5999755859</ele>
        <time>2020-01-15T12:53:50.000Z</time>
      </trkpt>
      <trkpt lat="45.63643" lon="6.70441">
        <ele>2037.5999755859</ele>
        <time>2020-01-15T12:53:51.000Z</time>
      </trkpt>
      <trkpt lat="45.63637" lon="6.70446">
        <ele>2035.8000488281</ele>
        <time>2020-01-15T12:53:52.000Z</time>
      </trkpt>
      <trkpt lat="45.6363" lon="6.70451">
        <ele>2034.1999511719</ele>
        <time>2020-01-15T12:53:53.000Z</time>
      </trkpt>
      <trkpt lat="45.63625" lon="6.70456">
        <ele>2032.5999755859</ele>
        <time>2020-01-15T12:53:54.000Z</time>
      </trkpt>
      <trkpt lat="45.63623" lon="6.70466">
        <ele>2030.8000488281</ele>
        <time>2020-01-15T12:53:55.000Z</time>
      </trkpt>
      <trkpt lat="45.63619" lon="6.70472">
        <ele>2029.1999511719</ele>
        <time>2020-01-15T12:53:56.000Z</time>
      </trkpt>
      <trkpt lat="45.63616" lon="6.70475">
        <ele>2027.5999755859</ele>
        <time>2020-01-15T12:53:57.000Z</time>
      </trkpt>
      <trkpt lat="45.6361" lon="6.70475">
        <ele>2025.8000488281</ele>
        <time>2020-01-15T12:53:58.000Z</time>
      </trkpt>
      <trkpt lat="45.63603" lon="6.70473">
        <ele>2024.1999511719</ele>
        <time>2020-01-15T12:53:59.000Z</time>
      </trkpt>
      <trkpt lat="45.63596" lon="6.70473">
        <ele>2023</ele>
        <time>2020-01-15T12:54:00.000Z</time>
      </trkpt>
      <trkpt lat="45.63585" lon="6.70473">
        <ele>2021</ele>
        <time>2020-01-15T12:54:02.000Z</time>
      </trkpt>
      <trkpt lat="45.63581" lon="6.70473">
        <ele>2020</ele>
        <time>2020-01-15T12:54:03.000Z</time>
      </trkpt>
      <trkpt lat="45.63582" lon="6.70477">
        <ele>2018.8000488281</ele>
        <time>2020-01-15T12:54:04.000Z</time>
      </trkpt>
      <trkpt lat="45.63586" lon="6.70483">
        <ele>2017.5999755859</ele>
        <time>2020-01-15T12:54:05.000Z</time>
      </trkpt>
      <trkpt lat="45.6359" lon="6.70487">
        <ele>2016.5999755859</ele>
        <time>2020-01-15T12:54:06.000Z</time>
      </trkpt>
      <trkpt lat="45.63594" lon="6.70491">
        <ele>2015</ele>
        <time>2020-01-15T12:54:08.000Z</time>
      </trkpt>
      <trkpt lat="45.63597" lon="6.70488">
        <ele>2014</ele>
        <time>2020-01-15T12:54:11.000Z</time>
      </trkpt>
      <trkpt lat="45.63597" lon="6.70488">
        <ele>2014</ele>
        <time>2020-01-15T12:54:26.000Z</time>
      </trkpt>
      <trkpt lat="45.63597" lon="6.70488">
        <ele>2014</ele>
        <time>2020-01-15T12:54:41.000Z</time>
      </trkpt>
      <trkpt lat="45.63598" lon="6.70489">
        <ele>2013.8000488281</ele>
        <time>2020-01-15T12:54:54.000Z</time>
      </trkpt>
      <trkpt lat="45.63598" lon="6.70489">
        <ele>2013.8000488281</ele>
        <time>2020-01-15T12:55:12.000Z</time>
      </trkpt>
      <trkpt lat="45.636" lon="6.70492">
        <ele>2013.8000488281</ele>
        <time>2020-01-15T12:55:16.000Z</time>
      </trkpt>
      <trkpt lat="45.636" lon="6.70495">
        <ele>2013.8000488281</ele>
        <time>2020-01-15T12:55:17.000Z</time>
      </trkpt>
      <trkpt lat="45.63599" lon="6.70483">
        <ele>2013.8000488281</ele>
        <time>2020-01-15T12:55:20.000Z</time>
      </trkpt>
      <trkpt lat="45.63592" lon="6.70475">
        <ele>2012.4000244141</ele>
        <time>2020-01-15T12:55:22.000Z</time>
      </trkpt>
      <trkpt lat="45.63589" lon="6.70473">
        <ele>2012.1999511719</ele>
        <time>2020-01-15T12:55:23.000Z</time>
      </trkpt>
      <trkpt lat="45.63582" lon="6.7047">
        <ele>2011.1999511719</ele>
        <time>2020-01-15T12:55:25.000Z</time>
      </trkpt>
      <trkpt lat="45.63579" lon="6.7047">
        <ele>2010.4000244141</ele>
        <time>2020-01-15T12:55:26.000Z</time>
      </trkpt>
      <trkpt lat="45.63576" lon="6.70471">
        <ele>2009.8000488281</ele>
        <time>2020-01-15T12:55:27.000Z</time>
      </trkpt>
      <trkpt lat="45.63565" lon="6.70473">
        <ele>2008.5999755859</ele>
        <time>2020-01-15T12:55:29.000Z</time>
      </trkpt>
      <trkpt lat="45.6355" lon="6.70477">
        <ele>2007.1999511719</ele>
        <time>2020-01-15T12:55:32.000Z</time>
      </trkpt>
      <trkpt lat="45.63545" lon="6.70482">
        <ele>2006.1999511719</ele>
        <time>2020-01-15T12:55:33.000Z</time>
      </trkpt>
      <trkpt lat="45.6354" lon="6.70488">
        <ele>2005.1999511719</ele>
        <time>2020-01-15T12:55:34.000Z</time>
      </trkpt>
      <trkpt lat="45.63538" lon="6.70496">
        <ele>2004</ele>
        <time>2020-01-15T12:55:35.000Z</time>
      </trkpt>
      <trkpt lat="45.63535" lon="6.70503">
        <ele>2002.5999755859</ele>
        <time>2020-01-15T12:55:36.000Z</time>
      </trkpt>
      <trkpt lat="45.63532" lon="6.70509">
        <ele>2001.1999511719</ele>
        <time>2020-01-15T12:55:37.000Z</time>
      </trkpt>
      <trkpt lat="45.63527" lon="6.70514">
        <ele>2000</ele>
        <time>2020-01-15T12:55:38.000Z</time>
      </trkpt>
      <trkpt lat="45.63522" lon="6.70518">
        <ele>1998.5999755859</ele>
        <time>2020-01-15T12:55:39.000Z</time>
      </trkpt>
      <trkpt lat="45.63516" lon="6.70523">
        <ele>1997.1999511719</ele>
        <time>2020-01-15T12:55:40.000Z</time>
      </trkpt>
      <trkpt lat="45.63509" lon="6.70528">
        <ele>1996</ele>
        <time>2020-01-15T12:55:41.000Z</time>
      </trkpt>
      <trkpt lat="45.63504" lon="6.70535">
        <ele>1995</ele>
        <time>2020-01-15T12:55:42.000Z</time>
      </trkpt>
      <trkpt lat="45.63497" lon="6.7054">
        <ele>1993.4000244141</ele>
        <time>2020-01-15T12:55:43.000Z</time>
      </trkpt>
      <trkpt lat="45.6349" lon="6.70543">
        <ele>1991.5999755859</ele>
        <time>2020-01-15T12:55:44.000Z</time>
      </trkpt>
      <trkpt lat="45.63484" lon="6.70547">
        <ele>1989.5999755859</ele>
        <time>2020-01-15T12:55:45.000Z</time>
      </trkpt>
      <trkpt lat="45.6348" lon="6.70551">
        <ele>1985.5999755859</ele>
        <time>2020-01-15T12:55:46.000Z</time>
      </trkpt>
      <trkpt lat="45.63478" lon="6.70554">
        <ele>1984</ele>
        <time>2020-01-15T12:55:47.000Z</time>
      </trkpt>
      <trkpt lat="45.63478" lon="6.70554">
        <ele>1982.1999511719</ele>
        <time>2020-01-15T12:55:48.000Z</time>
      </trkpt>
      <trkpt lat="45.63478" lon="6.70553">
        <ele>1980.4000244141</ele>
        <time>2020-01-15T12:55:49.000Z</time>
      </trkpt>
      <trkpt lat="45.63477" lon="6.70554">
        <ele>1979.4000244141</ele>
        <time>2020-01-15T12:55:50.000Z</time>
      </trkpt>
      <trkpt lat="45.63474" lon="6.70556">
        <ele>1978.1999511719</ele>
        <time>2020-01-15T12:55:52.000Z</time>
      </trkpt>
      <trkpt lat="45.63471" lon="6.70558">
        <ele>1977.5999755859</ele>
        <time>2020-01-15T12:55:53.000Z</time>
      </trkpt>
      <trkpt lat="45.63461" lon="6.7056">
        <ele>1977.1999511719</ele>
        <time>2020-01-15T12:55:55.000Z</time>
      </trkpt>
      <trkpt lat="45.63455" lon="6.70559">
        <ele>1976.5999755859</ele>
        <time>2020-01-15T12:55:56.000Z</time>
      </trkpt>
      <trkpt lat="45.6345" lon="6.70558">
        <ele>1976.1999511719</ele>
        <time>2020-01-15T12:55:57.000Z</time>
      </trkpt>
      <trkpt lat="45.63436" lon="6.70557">
        <ele>1974.8000488281</ele>
        <time>2020-01-15T12:55:59.000Z</time>
      </trkpt>
      <trkpt lat="45.63421" lon="6.70556">
        <ele>1973</ele>
        <time>2020-01-15T12:56:01.000Z</time>
      </trkpt>
      <trkpt lat="45.6341" lon="6.70555">
        <ele>1971.4000244141</ele>
        <time>2020-01-15T12:56:03.000Z</time>
      </trkpt>
      <trkpt lat="45.63407" lon="6.70554">
        <ele>1970.4000244141</ele>
        <time>2020-01-15T12:56:04.000Z</time>
      </trkpt>
      <trkpt lat="45.63403" lon="6.70553">
        <ele>1969.4000244141</ele>
        <time>2020-01-15T12:56:05.000Z</time>
      </trkpt>
      <trkpt lat="45.63399" lon="6.70554">
        <ele>1968.5999755859</ele>
        <time>2020-01-15T12:56:06.000Z</time>
      </trkpt>
      <trkpt lat="45.63393" lon="6.70554">
        <ele>1967.8000488281</ele>
        <time>2020-01-15T12:56:07.000Z</time>
      </trkpt>
      <trkpt lat="45.63375" lon="6.70561">
        <ele>1966</ele>
        <time>2020-01-15T12:56:10.000Z</time>
      </trkpt>
      <trkpt lat="45.6337" lon="6.70566">
        <ele>1965</ele>
        <time>2020-01-15T12:56:11.000Z</time>
      </trkpt>
      <trkpt lat="45.63366" lon="6.70573">
        <ele>1964</ele>
        <time>2020-01-15T12:56:12.000Z</time>
      </trkpt>
      <trkpt lat="45.63361" lon="6.70581">
        <ele>1962.8000488281</ele>
        <time>2020-01-15T12:56:13.000Z</time>
      </trkpt>
      <trkpt lat="45.63356" lon="6.70587">
        <ele>1961.8000488281</ele>
        <time>2020-01-15T12:56:14.000Z</time>
      </trkpt>
      <trkpt lat="45.6335" lon="6.70593">
        <ele>1960.5999755859</ele>
        <time>2020-01-15T12:56:15.000Z</time>
      </trkpt>
      <trkpt lat="45.63346" lon="6.70598">
        <ele>1959.4000244141</ele>
        <time>2020-01-15T12:56:16.000Z</time>
      </trkpt>
      <trkpt lat="45.63342" lon="6.70602">
        <ele>1958.4000244141</ele>
        <time>2020-01-15T12:56:17.000Z</time>
      </trkpt>
      <trkpt lat="45.63339" lon="6.70605">
        <ele>1957.5999755859</ele>
        <time>2020-01-15T12:56:18.000Z</time>
      </trkpt>
      <trkpt lat="45.63337" lon="6.70608">
        <ele>1956.8000488281</ele>
        <time>2020-01-15T12:56:19.000Z</time>
      </trkpt>
      <trkpt lat="45.63334" lon="6.70611">
        <ele>1955.4000244141</ele>
        <time>2020-01-15T12:56:21.000Z</time>
      </trkpt>
      <trkpt lat="45.63333" lon="6.70611">
        <ele>1955</ele>
        <time>2020-01-15T12:56:22.000Z</time>
      </trkpt>
      <trkpt lat="45.63333" lon="6.70608">
        <ele>1954.4000244141</ele>
        <time>2020-01-15T12:56:25.000Z</time>
      </trkpt>
      <trkpt lat="45.63333" lon="6.70608">
        <ele>1954</ele>
        <time>2020-01-15T12:56:28.000Z</time>
      </trkpt>
      <trkpt lat="45.63333" lon="6.70608">
        <ele>1954.1999511719</ele>
        <time>2020-01-15T12:56:43.000Z</time>
      </trkpt>
      <trkpt lat="45.63333" lon="6.70608">
        <ele>1954</ele>
        <time>2020-01-15T12:56:54.000Z</time>
      </trkpt>
      <trkpt lat="45.63333" lon="6.70608">
        <ele>1953.4000244141</ele>
        <time>2020-01-15T12:57:02.000Z</time>
      </trkpt>
      <trkpt lat="45.63334" lon="6.70607">
        <ele>1953.5999755859</ele>
        <time>2020-01-15T12:57:05.000Z</time>
      </trkpt>
      <trkpt lat="45.63334" lon="6.70607">
        <ele>1954.4000244141</ele>
        <time>2020-01-15T12:57:10.000Z</time>
      </trkpt>
      <trkpt lat="45.63336" lon="6.70604">
        <ele>1954.1999511719</ele>
        <time>2020-01-15T12:57:14.000Z</time>
      </trkpt>
      <trkpt lat="45.63338" lon="6.70601">
        <ele>1953.1999511719</ele>
        <time>2020-01-15T12:57:16.000Z</time>
      </trkpt>
      <trkpt lat="45.63338" lon="6.70601">
        <ele>1952.1999511719</ele>
        <time>2020-01-15T12:57:19.000Z</time>
      </trkpt>
      <trkpt lat="45.63338" lon="6.70601">
        <ele>1954.5999755859</ele>
        <time>2020-01-15T12:57:22.000Z</time>
      </trkpt>
      <trkpt lat="45.63338" lon="6.70601">
        <ele>1955</ele>
        <time>2020-01-15T12:57:23.000Z</time>
      </trkpt>
      <trkpt lat="45.63338" lon="6.70601">
        <ele>1954</ele>
        <time>2020-01-15T12:57:35.000Z</time>
      </trkpt>
      <trkpt lat="45.63338" lon="6.70601">
        <ele>1953.5999755859</ele>
        <time>2020-01-15T12:57:47.000Z</time>
      </trkpt>
      <trkpt lat="45.63338" lon="6.70601">
        <ele>1953.4000244141</ele>
        <time>2020-01-15T12:57:48.000Z</time>
      </trkpt>
      <trkpt lat="45.63338" lon="6.70603">
        <ele>1954.1999511719</ele>
        <time>2020-01-15T12:58:01.000Z</time>
      </trkpt>
      <trkpt lat="45.63338" lon="6.70603">
        <ele>1953.5999755859</ele>
        <time>2020-01-15T12:58:14.000Z</time>
      </trkpt>
      <trkpt lat="45.63338" lon="6.70603">
        <ele>1953.5999755859</ele>
        <time>2020-01-15T12:58:26.000Z</time>
      </trkpt>
      <trkpt lat="45.63339" lon="6.70603">
        <ele>1953.5999755859</ele>
        <time>2020-01-15T12:58:41.000Z</time>
      </trkpt>
      <trkpt lat="45.63339" lon="6.70603">
        <ele>1953.8000488281</ele>
        <time>2020-01-15T12:58:55.000Z</time>
      </trkpt>
      <trkpt lat="45.63339" lon="6.70603">
        <ele>1953.8000488281</ele>
        <time>2020-01-15T12:59:11.000Z</time>
      </trkpt>
      <trkpt lat="45.63339" lon="6.70603">
        <ele>1953.5999755859</ele>
        <time>2020-01-15T12:59:28.000Z</time>
      </trkpt>
      <trkpt lat="45.63339" lon="6.70603">
        <ele>1953.5999755859</ele>
        <time>2020-01-15T12:59:43.000Z</time>
      </trkpt>
      <trkpt lat="45.63339" lon="6.70603">
        <ele>1953.5999755859</ele>
        <time>2020-01-15T13:00:00.000Z</time>
      </trkpt>
      <trkpt lat="45.63339" lon="6.70603">
        <ele>1953.5999755859</ele>
        <time>2020-01-15T13:00:15.000Z</time>
      </trkpt>
      <trkpt lat="45.63339" lon="6.70603">
        <ele>1953.5999755859</ele>
        <time>2020-01-15T13:00:30.000Z</time>
      </trkpt>
      <trkpt lat="45.6334" lon="6.70602">
        <ele>1953.5999755859</ele>
        <time>2020-01-15T13:00:45.000Z</time>
      </trkpt>
      <trkpt lat="45.6334" lon="6.70602">
        <ele>1953.4000244141</ele>
        <time>2020-01-15T13:01:00.000Z</time>
      </trkpt>
      <trkpt lat="45.6334" lon="6.70602">
        <ele>1953.5999755859</ele>
        <time>2020-01-15T13:01:12.000Z</time>
      </trkpt>
      <trkpt lat="45.6334" lon="6.70603">
        <ele>1953.4000244141</ele>
        <time>2020-01-15T13:01:29.000Z</time>
      </trkpt>
      <trkpt lat="45.6334" lon="6.70603">
        <ele>1953.4000244141</ele>
        <time>2020-01-15T13:01:46.000Z</time>
      </trkpt>
      <trkpt lat="45.63342" lon="6.70603">
        <ele>1953.8000488281</ele>
        <time>2020-01-15T13:01:59.000Z</time>
      </trkpt>
      <trkpt lat="45.63342" lon="6.70603">
        <ele>1953.4000244141</ele>
        <time>2020-01-15T13:02:09.000Z</time>
      </trkpt>
      <trkpt lat="45.63342" lon="6.70603">
        <ele>1953.1999511719</ele>
        <time>2020-01-15T13:02:28.000Z</time>
      </trkpt>
      <trkpt lat="45.63344" lon="6.706">
        <ele>1953.1999511719</ele>
        <time>2020-01-15T13:02:42.000Z</time>
      </trkpt>
      <trkpt lat="45.63344" lon="6.706">
        <ele>1953</ele>
        <time>2020-01-15T13:03:00.000Z</time>
      </trkpt>
      <trkpt lat="45.63344" lon="6.706">
        <ele>1953.1999511719</ele>
        <time>2020-01-15T13:03:11.000Z</time>
      </trkpt>
      <trkpt lat="45.63344" lon="6.70599">
        <ele>1953</ele>
        <time>2020-01-15T13:03:24.000Z</time>
      </trkpt>
      <trkpt lat="45.63344" lon="6.70599">
        <ele>1952.5999755859</ele>
        <time>2020-01-15T13:03:26.000Z</time>
      </trkpt>
      <trkpt lat="45.63344" lon="6.70599">
        <ele>1953.4000244141</ele>
        <time>2020-01-15T13:03:38.000Z</time>
      </trkpt>
      <trkpt lat="45.63344" lon="6.70599">
        <ele>1953.5999755859</ele>
        <time>2020-01-15T13:03:39.000Z</time>
      </trkpt>
      <trkpt lat="45.63344" lon="6.70599">
        <ele>1953.1999511719</ele>
        <time>2020-01-15T13:03:51.000Z</time>
      </trkpt>
      <trkpt lat="45.63344" lon="6.70598">
        <ele>1953.1999511719</ele>
        <time>2020-01-15T13:04:07.000Z</time>
      </trkpt>
      <trkpt lat="45.63344" lon="6.70598">
        <ele>1953.1999511719</ele>
        <time>2020-01-15T13:04:29.000Z</time>
      </trkpt>
      <trkpt lat="45.63344" lon="6.70598">
        <ele>1953</ele>
        <time>2020-01-15T13:04:44.000Z</time>
      </trkpt>
      <trkpt lat="45.63344" lon="6.70597">
        <ele>1953</ele>
        <time>2020-01-15T13:04:52.000Z</time>
      </trkpt>
      <trkpt lat="45.63345" lon="6.70598">
        <ele>1953</ele>
        <time>2020-01-15T13:04:57.000Z</time>
      </trkpt>
      <trkpt lat="45.63344" lon="6.70599">
        <ele>1953</ele>
        <time>2020-01-15T13:05:02.000Z</time>
      </trkpt>
      <trkpt lat="45.63344" lon="6.70598">
        <ele>1953.1999511719</ele>
        <time>2020-01-15T13:05:06.000Z</time>
      </trkpt>
      <trkpt lat="45.63345" lon="6.70597">
        <ele>1953.4000244141</ele>
        <time>2020-01-15T13:05:13.000Z</time>
      </trkpt>
      <trkpt lat="45.63356" lon="6.70594">
        <ele>1953.4000244141</ele>
        <time>2020-01-15T13:05:19.000Z</time>
      </trkpt>
      <trkpt lat="45.6336" lon="6.7059">
        <ele>1953.1999511719</ele>
        <time>2020-01-15T13:05:25.000Z</time>
      </trkpt>
      <trkpt lat="45.63358" lon="6.70585">
        <ele>1953</ele>
        <time>2020-01-15T13:05:31.000Z</time>
      </trkpt>
      <trkpt lat="45.63357" lon="6.70584">
        <ele>1953.1999511719</ele>
        <time>2020-01-15T13:05:37.000Z</time>
      </trkpt>
      <trkpt lat="45.63356" lon="6.70583">
        <ele>1953.1999511719</ele>
        <time>2020-01-15T13:05:43.000Z</time>
      </trkpt>
      <trkpt lat="45.63355" lon="6.70585">
        <ele>1953.4000244141</ele>
        <time>2020-01-15T13:05:48.000Z</time>
      </trkpt>
      <trkpt lat="45.63356" lon="6.70584">
        <ele>1953.5999755859</ele>
        <time>2020-01-15T13:05:53.000Z</time>
      </trkpt>
      <trkpt lat="45.63356" lon="6.70583">
        <ele>1953.8000488281</ele>
        <time>2020-01-15T13:05:58.000Z</time>
      </trkpt>
      <trkpt lat="45.63356" lon="6.70584">
        <ele>1953.8000488281</ele>
        <time>2020-01-15T13:05:59.000Z</time>
      </trkpt>
      <trkpt lat="45.63355" lon="6.70584">
        <ele>1953.8000488281</ele>
        <time>2020-01-15T13:06:03.000Z</time>
      </trkpt>
      <trkpt lat="45.63355" lon="6.70582">
        <ele>1954</ele>
        <time>2020-01-15T13:06:08.000Z</time>
      </trkpt>
      <trkpt lat="45.63351" lon="6.70581">
        <ele>1954</ele>
        <time>2020-01-15T13:06:13.000Z</time>
      </trkpt>
      <trkpt lat="45.63349" lon="6.70577">
        <ele>1954.4000244141</ele>
        <time>2020-01-15T13:06:19.000Z</time>
      </trkpt>
      <trkpt lat="45.63348" lon="6.70574">
        <ele>1954.4000244141</ele>
        <time>2020-01-15T13:06:25.000Z</time>
      </trkpt>
      <trkpt lat="45.63348" lon="6.70574">
        <ele>1953.1999511719</ele>
        <time>2020-01-15T13:06:32.000Z</time>
      </trkpt>
      <trkpt lat="45.63347" lon="6.70574">
        <ele>1954.4000244141</ele>
        <time>2020-01-15T13:06:42.000Z</time>
      </trkpt>
      <trkpt lat="45.63346" lon="6.70574">
        <ele>1954.8000488281</ele>
        <time>2020-01-15T13:06:44.000Z</time>
      </trkpt>
      <trkpt lat="45.63344" lon="6.70574">
        <ele>1955.4000244141</ele>
        <time>2020-01-15T13:06:47.000Z</time>
      </trkpt>
      <trkpt lat="45.63342" lon="6.70576">
        <ele>1954.8000488281</ele>
        <time>2020-01-15T13:06:51.000Z</time>
      </trkpt>
      <trkpt lat="45.63338" lon="6.70579">
        <ele>1954.5999755859</ele>
        <time>2020-01-15T13:06:55.000Z</time>
      </trkpt>
      <trkpt lat="45.63336" lon="6.70579">
        <ele>1954.8000488281</ele>
        <time>2020-01-15T13:07:00.000Z</time>
      </trkpt>
      <trkpt lat="45.63334" lon="6.70578">
        <ele>1954.5999755859</ele>
        <time>2020-01-15T13:07:05.000Z</time>
      </trkpt>
      <trkpt lat="45.6333" lon="6.70575">
        <ele>1955.4000244141</ele>
        <time>2020-01-15T13:07:10.000Z</time>
      </trkpt>
      <trkpt lat="45.63327" lon="6.70576">
        <ele>1955.8000488281</ele>
        <time>2020-01-15T13:07:16.000Z</time>
      </trkpt>
      <trkpt lat="45.63326" lon="6.70575">
        <ele>1955.8000488281</ele>
        <time>2020-01-15T13:07:22.000Z</time>
      </trkpt>
      <trkpt lat="45.63323" lon="6.70577">
        <ele>1955.8000488281</ele>
        <time>2020-01-15T13:07:30.000Z</time>
      </trkpt>
      <trkpt lat="45.63318" lon="6.70582">
        <ele>1955.5999755859</ele>
        <time>2020-01-15T13:07:35.000Z</time>
      </trkpt>
      <trkpt lat="45.63314" lon="6.70588">
        <ele>1955.5999755859</ele>
        <time>2020-01-15T13:07:40.000Z</time>
      </trkpt>
      <trkpt lat="45.63309" lon="6.70591">
        <ele>1955.5999755859</ele>
        <time>2020-01-15T13:07:45.000Z</time>
      </trkpt>
      <trkpt lat="45.63304" lon="6.7059">
        <ele>1955.8000488281</ele>
        <time>2020-01-15T13:07:51.000Z</time>
      </trkpt>
      <trkpt lat="45.63304" lon="6.7059">
        <ele>1956</ele>
        <time>2020-01-15T13:07:59.000Z</time>
      </trkpt>
      <trkpt lat="45.63304" lon="6.7059">
        <ele>1956.5999755859</ele>
        <time>2020-01-15T13:08:03.000Z</time>
      </trkpt>
      <trkpt lat="45.63303" lon="6.70592">
        <ele>1956.4000244141</ele>
        <time>2020-01-15T13:08:14.000Z</time>
      </trkpt>
      <trkpt lat="45.63302" lon="6.70594">
        <ele>1956.1999511719</ele>
        <time>2020-01-15T13:08:20.000Z</time>
      </trkpt>
      <trkpt lat="45.63299" lon="6.70596">
        <ele>1956.8000488281</ele>
        <time>2020-01-15T13:08:25.000Z</time>
      </trkpt>
      <trkpt lat="45.63293" lon="6.70598">
        <ele>1957</ele>
        <time>2020-01-15T13:08:30.000Z</time>
      </trkpt>
      <trkpt lat="45.63291" lon="6.70599">
        <ele>1957</ele>
        <time>2020-01-15T13:08:33.000Z</time>
      </trkpt>
      <trkpt lat="45.63288" lon="6.70602">
        <ele>1957.4000244141</ele>
        <time>2020-01-15T13:08:36.000Z</time>
      </trkpt>
      <trkpt lat="45.63283" lon="6.70604">
        <ele>1958</ele>
        <time>2020-01-15T13:08:41.000Z</time>
      </trkpt>
      <trkpt lat="45.63281" lon="6.70604">
        <ele>1958.1999511719</ele>
        <time>2020-01-15T13:08:42.000Z</time>
      </trkpt>
      <trkpt lat="45.63275" lon="6.70608">
        <ele>1959</ele>
        <time>2020-01-15T13:08:49.000Z</time>
      </trkpt>
      <trkpt lat="45.63273" lon="6.70609">
        <ele>1959</ele>
        <time>2020-01-15T13:08:51.000Z</time>
      </trkpt>
      <trkpt lat="45.63269" lon="6.70609">
        <ele>1959.1999511719</ele>
        <time>2020-01-15T13:08:56.000Z</time>
      </trkpt>
      <trkpt lat="45.63263" lon="6.70612">
        <ele>1960.1999511719</ele>
        <time>2020-01-15T13:09:02.000Z</time>
      </trkpt>
      <trkpt lat="45.63261" lon="6.70612">
        <ele>1960.1999511719</ele>
        <time>2020-01-15T13:09:03.000Z</time>
      </trkpt>
      <trkpt lat="45.63254" lon="6.70614">
        <ele>1960.8000488281</ele>
        <time>2020-01-15T13:09:10.000Z</time>
      </trkpt>
      <trkpt lat="45.63249" lon="6.70617">
        <ele>1961</ele>
        <time>2020-01-15T13:09:16.000Z</time>
      </trkpt>
      <trkpt lat="45.6325" lon="6.70618">
        <ele>1960.8000488281</ele>
        <time>2020-01-15T13:09:21.000Z</time>
      </trkpt>
      <trkpt lat="45.6325" lon="6.70618">
        <ele>1961.4000244141</ele>
        <time>2020-01-15T13:09:24.000Z</time>
      </trkpt>
      <trkpt lat="45.63248" lon="6.70621">
        <ele>1961.4000244141</ele>
        <time>2020-01-15T13:09:30.000Z</time>
      </trkpt>
      <trkpt lat="45.63242" lon="6.70625">
        <ele>1962</ele>
        <time>2020-01-15T13:09:36.000Z</time>
      </trkpt>
      <trkpt lat="45.63238" lon="6.70626">
        <ele>1962.4000244141</ele>
        <time>2020-01-15T13:09:39.000Z</time>
      </trkpt>
      <trkpt lat="45.63234" lon="6.70625">
        <ele>1962.5999755859</ele>
        <time>2020-01-15T13:09:43.000Z</time>
      </trkpt>
      <trkpt lat="45.63226" lon="6.70625">
        <ele>1963</ele>
        <time>2020-01-15T13:09:49.000Z</time>
      </trkpt>
      <trkpt lat="45.6322" lon="6.70625">
        <ele>1963.1999511719</ele>
        <time>2020-01-15T13:09:56.000Z</time>
      </trkpt>
      <trkpt lat="45.63218" lon="6.70626">
        <ele>1963.5999755859</ele>
        <time>2020-01-15T13:10:00.000Z</time>
      </trkpt>
      <trkpt lat="45.63214" lon="6.70626">
        <ele>1963.8000488281</ele>
        <time>2020-01-15T13:10:04.000Z</time>
      </trkpt>
      <trkpt lat="45.63207" lon="6.70626">
        <ele>1964.4000244141</ele>
        <time>2020-01-15T13:10:11.000Z</time>
      </trkpt>
      <trkpt lat="45.632" lon="6.70628">
        <ele>1964.5999755859</ele>
        <time>2020-01-15T13:10:18.000Z</time>
      </trkpt>
      <trkpt lat="45.63199" lon="6.70629">
        <ele>1964.5999755859</ele>
        <time>2020-01-15T13:10:19.000Z</time>
      </trkpt>
      <trkpt lat="45.63192" lon="6.70634">
        <ele>1965.1999511719</ele>
        <time>2020-01-15T13:10:27.000Z</time>
      </trkpt>
      <trkpt lat="45.63188" lon="6.70639">
        <ele>1965.5999755859</ele>
        <time>2020-01-15T13:10:33.000Z</time>
      </trkpt>
      <trkpt lat="45.63179" lon="6.70642">
        <ele>1965.8000488281</ele>
        <time>2020-01-15T13:10:40.000Z</time>
      </trkpt>
      <trkpt lat="45.63174" lon="6.70642">
        <ele>1966</ele>
        <time>2020-01-15T13:10:48.000Z</time>
      </trkpt>
      <trkpt lat="45.63173" lon="6.7064">
        <ele>1966.5999755859</ele>
        <time>2020-01-15T13:10:55.000Z</time>
      </trkpt>
      <trkpt lat="45.63175" lon="6.7064">
        <ele>1967.5999755859</ele>
        <time>2020-01-15T13:11:01.000Z</time>
      </trkpt>
      <trkpt lat="45.63176" lon="6.70639">
        <ele>1967.5999755859</ele>
        <time>2020-01-15T13:11:03.000Z</time>
      </trkpt>
      <trkpt lat="45.63178" lon="6.70638">
        <ele>1968.1999511719</ele>
        <time>2020-01-15T13:11:06.000Z</time>
      </trkpt>
      <trkpt lat="45.63178" lon="6.70638">
        <ele>1968.8000488281</ele>
        <time>2020-01-15T13:11:09.000Z</time>
      </trkpt>
      <trkpt lat="45.63178" lon="6.70638">
        <ele>1969.1999511719</ele>
        <time>2020-01-15T13:11:13.000Z</time>
      </trkpt>
      <trkpt lat="45.63178" lon="6.70638">
        <ele>1969.8000488281</ele>
        <time>2020-01-15T13:11:15.000Z</time>
      </trkpt>
      <trkpt lat="45.6318" lon="6.70639">
        <ele>1969.5999755859</ele>
        <time>2020-01-15T13:11:21.000Z</time>
      </trkpt>
      <trkpt lat="45.63183" lon="6.70633">
        <ele>1970.4000244141</ele>
        <time>2020-01-15T13:11:28.000Z</time>
      </trkpt>
      <trkpt lat="45.63185" lon="6.70631">
        <ele>1971</ele>
        <time>2020-01-15T13:11:30.000Z</time>
      </trkpt>
      <trkpt lat="45.63186" lon="6.70625">
        <ele>1972</ele>
        <time>2020-01-15T13:11:35.000Z</time>
      </trkpt>
      <trkpt lat="45.63189" lon="6.70621">
        <ele>1973</ele>
        <time>2020-01-15T13:11:40.000Z</time>
      </trkpt>
      <trkpt lat="45.6319" lon="6.70619">
        <ele>1973.1999511719</ele>
        <time>2020-01-15T13:11:41.000Z</time>
      </trkpt>
      <trkpt lat="45.63191" lon="6.70615">
        <ele>1974.1999511719</ele>
        <time>2020-01-15T13:11:46.000Z</time>
      </trkpt>
      <trkpt lat="45.63191" lon="6.70614">
        <ele>1975.4000244141</ele>
        <time>2020-01-15T13:11:51.000Z</time>
      </trkpt>
      <trkpt lat="45.63191" lon="6.70614">
        <ele>1975.4000244141</ele>
        <time>2020-01-15T13:11:52.000Z</time>
      </trkpt>
      <trkpt lat="45.63188" lon="6.70611">
        <ele>1976</ele>
        <time>2020-01-15T13:11:58.000Z</time>
      </trkpt>
      <trkpt lat="45.63186" lon="6.7061">
        <ele>1976.5999755859</ele>
        <time>2020-01-15T13:12:00.000Z</time>
      </trkpt>
      <trkpt lat="45.63183" lon="6.70609">
        <ele>1977.1999511719</ele>
        <time>2020-01-15T13:12:04.000Z</time>
      </trkpt>
      <trkpt lat="45.63182" lon="6.70608">
        <ele>1977.5999755859</ele>
        <time>2020-01-15T13:12:07.000Z</time>
      </trkpt>
      <trkpt lat="45.6318" lon="6.70608">
        <ele>1978.4000244141</ele>
        <time>2020-01-15T13:12:11.000Z</time>
      </trkpt>
      <trkpt lat="45.63179" lon="6.70607">
        <ele>1978.8000488281</ele>
        <time>2020-01-15T13:12:12.000Z</time>
      </trkpt>
      <trkpt lat="45.63178" lon="6.70607">
        <ele>1979</ele>
        <time>2020-01-15T13:12:13.000Z</time>
      </trkpt>
      <trkpt lat="45.63176" lon="6.70604">
        <ele>1979.5999755859</ele>
        <time>2020-01-15T13:12:18.000Z</time>
      </trkpt>
      <trkpt lat="45.63175" lon="6.70604">
        <ele>1979.8000488281</ele>
        <time>2020-01-15T13:12:19.000Z</time>
      </trkpt>
      <trkpt lat="45.63172" lon="6.70601">
        <ele>1980.8000488281</ele>
        <time>2020-01-15T13:12:24.000Z</time>
      </trkpt>
      <trkpt lat="45.63171" lon="6.706">
        <ele>1980.8000488281</ele>
        <time>2020-01-15T13:12:25.000Z</time>
      </trkpt>
      <trkpt lat="45.63168" lon="6.70598">
        <ele>1981.8000488281</ele>
        <time>2020-01-15T13:12:31.000Z</time>
      </trkpt>
      <trkpt lat="45.63168" lon="6.70598">
        <ele>1981.8000488281</ele>
        <time>2020-01-15T13:12:32.000Z</time>
      </trkpt>
      <trkpt lat="45.63168" lon="6.70596">
        <ele>1983</ele>
        <time>2020-01-15T13:12:37.000Z</time>
      </trkpt>
      <trkpt lat="45.63169" lon="6.70596">
        <ele>1983.1999511719</ele>
        <time>2020-01-15T13:12:38.000Z</time>
      </trkpt>
      <trkpt lat="45.6317" lon="6.70595">
        <ele>1983.5999755859</ele>
        <time>2020-01-15T13:12:41.000Z</time>
      </trkpt>
      <trkpt lat="45.63173" lon="6.70594">
        <ele>1984</ele>
        <time>2020-01-15T13:12:45.000Z</time>
      </trkpt>
      <trkpt lat="45.63177" lon="6.70594">
        <ele>1984.8000488281</ele>
        <time>2020-01-15T13:12:50.000Z</time>
      </trkpt>
      <trkpt lat="45.63177" lon="6.70594">
        <ele>1985</ele>
        <time>2020-01-15T13:12:51.000Z</time>
      </trkpt>
      <trkpt lat="45.6318" lon="6.70591">
        <ele>1985.4000244141</ele>
        <time>2020-01-15T13:12:56.000Z</time>
      </trkpt>
      <trkpt lat="45.63182" lon="6.70588">
        <ele>1986.1999511719</ele>
        <time>2020-01-15T13:13:00.000Z</time>
      </trkpt>
      <trkpt lat="45.63182" lon="6.70588">
        <ele>1986.4000244141</ele>
        <time>2020-01-15T13:13:01.000Z</time>
      </trkpt>
      <trkpt lat="45.63184" lon="6.70585">
        <ele>1987</ele>
        <time>2020-01-15T13:13:06.000Z</time>
      </trkpt>
      <trkpt lat="45.63184" lon="6.70585">
        <ele>1987.4000244141</ele>
        <time>2020-01-15T13:13:09.000Z</time>
      </trkpt>
      <trkpt lat="45.63182" lon="6.70584">
        <ele>1987.8000488281</ele>
        <time>2020-01-15T13:13:14.000Z</time>
      </trkpt>
      <trkpt lat="45.63179" lon="6.70583">
        <ele>1988.4000244141</ele>
        <time>2020-01-15T13:13:19.000Z</time>
      </trkpt>
      <trkpt lat="45.63178" lon="6.70583">
        <ele>1988.5999755859</ele>
        <time>2020-01-15T13:13:20.000Z</time>
      </trkpt>
      <trkpt lat="45.63175" lon="6.70579">
        <ele>1989.5999755859</ele>
        <time>2020-01-15T13:13:26.000Z</time>
      </trkpt>
      <trkpt lat="45.6317" lon="6.70576">
        <ele>1990.5999755859</ele>
        <time>2020-01-15T13:13:31.000Z</time>
      </trkpt>
      <trkpt lat="45.63167" lon="6.70576">
        <ele>1990.8000488281</ele>
        <time>2020-01-15T13:13:33.000Z</time>
      </trkpt>
      <trkpt lat="45.63164" lon="6.70574">
        <ele>1991.5999755859</ele>
        <time>2020-01-15T13:13:38.000Z</time>
      </trkpt>
      <trkpt lat="45.63161" lon="6.70573">
        <ele>1992.1999511719</ele>
        <time>2020-01-15T13:13:40.000Z</time>
      </trkpt>
      <trkpt lat="45.63158" lon="6.70572">
        <ele>1992.8000488281</ele>
        <time>2020-01-15T13:13:44.000Z</time>
      </trkpt>
      <trkpt lat="45.63155" lon="6.70571">
        <ele>1993.1999511719</ele>
        <time>2020-01-15T13:13:47.000Z</time>
      </trkpt>
      <trkpt lat="45.63154" lon="6.70571">
        <ele>1993.8000488281</ele>
        <time>2020-01-15T13:13:49.000Z</time>
      </trkpt>
      <trkpt lat="45.63151" lon="6.7057">
        <ele>1995.1999511719</ele>
        <time>2020-01-15T13:13:56.000Z</time>
      </trkpt>
      <trkpt lat="45.63147" lon="6.70572">
        <ele>1996.1999511719</ele>
        <time>2020-01-15T13:14:02.000Z</time>
      </trkpt>
      <trkpt lat="45.63143" lon="6.70575">
        <ele>1997</ele>
        <time>2020-01-15T13:14:09.000Z</time>
      </trkpt>
      <trkpt lat="45.63142" lon="6.70576">
        <ele>1997.1999511719</ele>
        <time>2020-01-15T13:14:11.000Z</time>
      </trkpt>
      <trkpt lat="45.6314" lon="6.70577">
        <ele>1997.8000488281</ele>
        <time>2020-01-15T13:14:14.000Z</time>
      </trkpt>
      <trkpt lat="45.63138" lon="6.70579">
        <ele>1998.4000244141</ele>
        <time>2020-01-15T13:14:18.000Z</time>
      </trkpt>
      <trkpt lat="45.63135" lon="6.7058">
        <ele>1999</ele>
        <time>2020-01-15T13:14:21.000Z</time>
      </trkpt>
      <trkpt lat="45.63134" lon="6.7058">
        <ele>1999.5999755859</ele>
        <time>2020-01-15T13:14:24.000Z</time>
      </trkpt>
      <trkpt lat="45.63132" lon="6.7058">
        <ele>1999.8000488281</ele>
        <time>2020-01-15T13:14:27.000Z</time>
      </trkpt>
      <trkpt lat="45.63128" lon="6.70581">
        <ele>2000.5999755859</ele>
        <time>2020-01-15T13:14:32.000Z</time>
      </trkpt>
      <trkpt lat="45.63126" lon="6.70581">
        <ele>2001.4000244141</ele>
        <time>2020-01-15T13:14:36.000Z</time>
      </trkpt>
      <trkpt lat="45.63127" lon="6.70578">
        <ele>2001.8000488281</ele>
        <time>2020-01-15T13:14:40.000Z</time>
      </trkpt>
      <trkpt lat="45.63129" lon="6.70576">
        <ele>2002.5999755859</ele>
        <time>2020-01-15T13:14:42.000Z</time>
      </trkpt>
      <trkpt lat="45.63129" lon="6.70575">
        <ele>2003</ele>
        <time>2020-01-15T13:14:44.000Z</time>
      </trkpt>
      <trkpt lat="45.63127" lon="6.70569">
        <ele>2003.4000244141</ele>
        <time>2020-01-15T13:14:48.000Z</time>
      </trkpt>
      <trkpt lat="45.6313" lon="6.70566">
        <ele>2004</ele>
        <time>2020-01-15T13:14:53.000Z</time>
      </trkpt>
      <trkpt lat="45.63133" lon="6.70562">
        <ele>2005</ele>
        <time>2020-01-15T13:14:58.000Z</time>
      </trkpt>
      <trkpt lat="45.63133" lon="6.70561">
        <ele>2005</ele>
        <time>2020-01-15T13:14:59.000Z</time>
      </trkpt>
      <trkpt lat="45.63137" lon="6.70558">
        <ele>2005.8000488281</ele>
        <time>2020-01-15T13:15:05.000Z</time>
      </trkpt>
      <trkpt lat="45.63139" lon="6.70556">
        <ele>2006.1999511719</ele>
        <time>2020-01-15T13:15:07.000Z</time>
      </trkpt>
      <trkpt lat="45.63141" lon="6.70552">
        <ele>2007</ele>
        <time>2020-01-15T13:15:11.000Z</time>
      </trkpt>
      <trkpt lat="45.6314" lon="6.7055">
        <ele>2007.4000244141</ele>
        <time>2020-01-15T13:15:14.000Z</time>
      </trkpt>
      <trkpt lat="45.6314" lon="6.7055">
        <ele>2007.5999755859</ele>
        <time>2020-01-15T13:15:16.000Z</time>
      </trkpt>
      <trkpt lat="45.63134" lon="6.70549">
        <ele>2008.4000244141</ele>
        <time>2020-01-15T13:15:23.000Z</time>
      </trkpt>
      <trkpt lat="45.6313" lon="6.70548">
        <ele>2009.4000244141</ele>
        <time>2020-01-15T13:15:30.000Z</time>
      </trkpt>
      <trkpt lat="45.63127" lon="6.70549">
        <ele>2010.8000488281</ele>
        <time>2020-01-15T13:15:35.000Z</time>
      </trkpt>
      <trkpt lat="45.63124" lon="6.70548">
        <ele>2011.4000244141</ele>
        <time>2020-01-15T13:15:39.000Z</time>
      </trkpt>
      <trkpt lat="45.63122" lon="6.70547">
        <ele>2011.8000488281</ele>
        <time>2020-01-15T13:15:41.000Z</time>
      </trkpt>
      <trkpt lat="45.63117" lon="6.70546">
        <ele>2013</ele>
        <time>2020-01-15T13:15:48.000Z</time>
      </trkpt>
      <trkpt lat="45.63118" lon="6.7054">
        <ele>2013.5999755859</ele>
        <time>2020-01-15T13:15:53.000Z</time>
      </trkpt>
      <trkpt lat="45.6312" lon="6.70541">
        <ele>2014.1999511719</ele>
        <time>2020-01-15T13:15:55.000Z</time>
      </trkpt>
      <trkpt lat="45.63122" lon="6.70538">
        <ele>2014.8000488281</ele>
        <time>2020-01-15T13:15:58.000Z</time>
      </trkpt>
      <trkpt lat="45.63123" lon="6.70536">
        <ele>2015.1999511719</ele>
        <time>2020-01-15T13:16:00.000Z</time>
      </trkpt>
      <trkpt lat="45.63124" lon="6.70531">
        <ele>2015.5999755859</ele>
        <time>2020-01-15T13:16:04.000Z</time>
      </trkpt>
      <trkpt lat="45.63125" lon="6.70529">
        <ele>2016.1999511719</ele>
        <time>2020-01-15T13:16:07.000Z</time>
      </trkpt>
      <trkpt lat="45.63125" lon="6.70523">
        <ele>2017</ele>
        <time>2020-01-15T13:16:11.000Z</time>
      </trkpt>
      <trkpt lat="45.63126" lon="6.70521">
        <ele>2017.4000244141</ele>
        <time>2020-01-15T13:16:13.000Z</time>
      </trkpt>
      <trkpt lat="45.63127" lon="6.70516">
        <ele>2017.8000488281</ele>
        <time>2020-01-15T13:16:18.000Z</time>
      </trkpt>
      <trkpt lat="45.63129" lon="6.70512">
        <ele>2018.4000244141</ele>
        <time>2020-01-15T13:16:22.000Z</time>
      </trkpt>
      <trkpt lat="45.63129" lon="6.70512">
        <ele>2018.5999755859</ele>
        <time>2020-01-15T13:16:23.000Z</time>
      </trkpt>
      <trkpt lat="45.63132" lon="6.70509">
        <ele>2019.4000244141</ele>
        <time>2020-01-15T13:16:28.000Z</time>
      </trkpt>
      <trkpt lat="45.63133" lon="6.70508">
        <ele>2019.5999755859</ele>
        <time>2020-01-15T13:16:29.000Z</time>
      </trkpt>
      <trkpt lat="45.63134" lon="6.70503">
        <ele>2020</ele>
        <time>2020-01-15T13:16:34.000Z</time>
      </trkpt>
      <trkpt lat="45.63134" lon="6.70501">
        <ele>2020.5999755859</ele>
        <time>2020-01-15T13:16:36.000Z</time>
      </trkpt>
      <trkpt lat="45.63136" lon="6.70498">
        <ele>2021</ele>
        <time>2020-01-15T13:16:39.000Z</time>
      </trkpt>
      <trkpt lat="45.63139" lon="6.70494">
        <ele>2021.5999755859</ele>
        <time>2020-01-15T13:16:43.000Z</time>
      </trkpt>
      <trkpt lat="45.63139" lon="6.70492">
        <ele>2022</ele>
        <time>2020-01-15T13:16:45.000Z</time>
      </trkpt>
      <trkpt lat="45.63138" lon="6.70486">
        <ele>2022.5999755859</ele>
        <time>2020-01-15T13:16:50.000Z</time>
      </trkpt>
      <trkpt lat="45.63138" lon="6.70486">
        <ele>2022.8000488281</ele>
        <time>2020-01-15T13:16:51.000Z</time>
      </trkpt>
      <trkpt lat="45.63139" lon="6.70483">
        <ele>2023.4000244141</ele>
        <time>2020-01-15T13:16:55.000Z</time>
      </trkpt>
      <trkpt lat="45.6314" lon="6.70483">
        <ele>2024</ele>
        <time>2020-01-15T13:16:58.000Z</time>
      </trkpt>
      <trkpt lat="45.63142" lon="6.70481">
        <ele>2024.5999755859</ele>
        <time>2020-01-15T13:17:01.000Z</time>
      </trkpt>
      <trkpt lat="45.63143" lon="6.70476">
        <ele>2025</ele>
        <time>2020-01-15T13:17:04.000Z</time>
      </trkpt>
      <trkpt lat="45.63143" lon="6.70474">
        <ele>2025.1999511719</ele>
        <time>2020-01-15T13:17:06.000Z</time>
      </trkpt>
      <trkpt lat="45.63146" lon="6.70472">
        <ele>2025.8000488281</ele>
        <time>2020-01-15T13:17:11.000Z</time>
      </trkpt>
      <trkpt lat="45.63147" lon="6.7047">
        <ele>2026</ele>
        <time>2020-01-15T13:17:12.000Z</time>
      </trkpt>
      <trkpt lat="45.63148" lon="6.70466">
        <ele>2026.5999755859</ele>
        <time>2020-01-15T13:17:16.000Z</time>
      </trkpt>
      <trkpt lat="45.6315" lon="6.70463">
        <ele>2027.1999511719</ele>
        <time>2020-01-15T13:17:19.000Z</time>
      </trkpt>
      <trkpt lat="45.63151" lon="6.70462">
        <ele>2027.4000244141</ele>
        <time>2020-01-15T13:17:21.000Z</time>
      </trkpt>
      <trkpt lat="45.63153" lon="6.70458">
        <ele>2028.5999755859</ele>
        <time>2020-01-15T13:17:24.000Z</time>
      </trkpt>
      <trkpt lat="45.63153" lon="6.70454">
        <ele>2029</ele>
        <time>2020-01-15T13:17:27.000Z</time>
      </trkpt>
      <trkpt lat="45.63153" lon="6.70449">
        <ele>2029.5999755859</ele>
        <time>2020-01-15T13:17:30.000Z</time>
      </trkpt>
      <trkpt lat="45.63153" lon="6.70448">
        <ele>2029.8000488281</ele>
        <time>2020-01-15T13:17:31.000Z</time>
      </trkpt>
      <trkpt lat="45.63153" lon="6.70446">
        <ele>2030</ele>
        <time>2020-01-15T13:17:33.000Z</time>
      </trkpt>
      <trkpt lat="45.63152" lon="6.70443">
        <ele>2030.5999755859</ele>
        <time>2020-01-15T13:17:36.000Z</time>
      </trkpt>
      <trkpt lat="45.63152" lon="6.7044">
        <ele>2031</ele>
        <time>2020-01-15T13:17:39.000Z</time>
      </trkpt>
      <trkpt lat="45.63153" lon="6.70435">
        <ele>2031.5999755859</ele>
        <time>2020-01-15T13:17:44.000Z</time>
      </trkpt>
      <trkpt lat="45.63153" lon="6.70434">
        <ele>2031.5999755859</ele>
        <time>2020-01-15T13:17:45.000Z</time>
      </trkpt>
      <trkpt lat="45.63154" lon="6.70431">
        <ele>2032.8000488281</ele>
        <time>2020-01-15T13:17:50.000Z</time>
      </trkpt>
      <trkpt lat="45.63155" lon="6.7043">
        <ele>2032.8000488281</ele>
        <time>2020-01-15T13:17:51.000Z</time>
      </trkpt>
      <trkpt lat="45.63156" lon="6.70427">
        <ele>2033.5999755859</ele>
        <time>2020-01-15T13:17:55.000Z</time>
      </trkpt>
      <trkpt lat="45.63157" lon="6.70425">
        <ele>2033.8000488281</ele>
        <time>2020-01-15T13:17:57.000Z</time>
      </trkpt>
      <trkpt lat="45.63159" lon="6.70419">
        <ele>2034.8000488281</ele>
        <time>2020-01-15T13:18:03.000Z</time>
      </trkpt>
      <trkpt lat="45.63161" lon="6.70414">
        <ele>2036</ele>
        <time>2020-01-15T13:18:08.000Z</time>
      </trkpt>
      <trkpt lat="45.63162" lon="6.70412">
        <ele>2036.1999511719</ele>
        <time>2020-01-15T13:18:09.000Z</time>
      </trkpt>
      <trkpt lat="45.63163" lon="6.70409">
        <ele>2037</ele>
        <time>2020-01-15T13:18:13.000Z</time>
      </trkpt>
      <trkpt lat="45.63163" lon="6.70407">
        <ele>2037.1999511719</ele>
        <time>2020-01-15T13:18:15.000Z</time>
      </trkpt>
      <trkpt lat="45.63163" lon="6.70403">
        <ele>2038</ele>
        <time>2020-01-15T13:18:19.000Z</time>
      </trkpt>
      <trkpt lat="45.63164" lon="6.70402">
        <ele>2038.1999511719</ele>
        <time>2020-01-15T13:18:21.000Z</time>
      </trkpt>
      <trkpt lat="45.63162" lon="6.70396">
        <ele>2039</ele>
        <time>2020-01-15T13:18:26.000Z</time>
      </trkpt>
      <trkpt lat="45.63156" lon="6.7039">
        <ele>2040.1999511719</ele>
        <time>2020-01-15T13:18:33.000Z</time>
      </trkpt>
      <trkpt lat="45.63153" lon="6.70387">
        <ele>2041.4000244141</ele>
        <time>2020-01-15T13:18:38.000Z</time>
      </trkpt>
      <trkpt lat="45.63152" lon="6.70386">
        <ele>2041.8000488281</ele>
        <time>2020-01-15T13:18:42.000Z</time>
      </trkpt>
      <trkpt lat="45.63152" lon="6.70386">
        <ele>2041.5999755859</ele>
        <time>2020-01-15T13:18:57.000Z</time>
      </trkpt>
      <trkpt lat="45.63151" lon="6.70386">
        <ele>2041.5999755859</ele>
        <time>2020-01-15T13:19:11.000Z</time>
      </trkpt>
      <trkpt lat="45.63149" lon="6.70384">
        <ele>2041.8000488281</ele>
        <time>2020-01-15T13:19:16.000Z</time>
      </trkpt>
      <trkpt lat="45.63147" lon="6.70383">
        <ele>2042.4000244141</ele>
        <time>2020-01-15T13:19:21.000Z</time>
      </trkpt>
      <trkpt lat="45.63146" lon="6.70383">
        <ele>2042.4000244141</ele>
        <time>2020-01-15T13:19:22.000Z</time>
      </trkpt>
      <trkpt lat="45.63143" lon="6.70382">
        <ele>2043.4000244141</ele>
        <time>2020-01-15T13:19:28.000Z</time>
      </trkpt>
      <trkpt lat="45.63142" lon="6.70381">
        <ele>2043.8000488281</ele>
        <time>2020-01-15T13:19:29.000Z</time>
      </trkpt>
      <trkpt lat="45.6314" lon="6.70379">
        <ele>2044.5999755859</ele>
        <time>2020-01-15T13:19:32.000Z</time>
      </trkpt>
      <trkpt lat="45.63139" lon="6.70377">
        <ele>2045</ele>
        <time>2020-01-15T13:19:35.000Z</time>
      </trkpt>
      <trkpt lat="45.63139" lon="6.70377">
        <ele>2045.5999755859</ele>
        <time>2020-01-15T13:19:40.000Z</time>
      </trkpt>
      <trkpt lat="45.63138" lon="6.70373">
        <ele>2046.8000488281</ele>
        <time>2020-01-15T13:19:44.000Z</time>
      </trkpt>
      <trkpt lat="45.63141" lon="6.70369">
        <ele>2048</ele>
        <time>2020-01-15T13:19:49.000Z</time>
      </trkpt>
      <trkpt lat="45.63142" lon="6.70367">
        <ele>2048.1999511719</ele>
        <time>2020-01-15T13:19:50.000Z</time>
      </trkpt>
      <trkpt lat="45.63144" lon="6.70364">
        <ele>2049</ele>
        <time>2020-01-15T13:19:55.000Z</time>
      </trkpt>
      <trkpt lat="45.63145" lon="6.70364">
        <ele>2049.1999511719</ele>
        <time>2020-01-15T13:19:56.000Z</time>
      </trkpt>
      <trkpt lat="45.63149" lon="6.70359">
        <ele>2050.1999511719</ele>
        <time>2020-01-15T13:20:02.000Z</time>
      </trkpt>
      <trkpt lat="45.63153" lon="6.70357">
        <ele>2051</ele>
        <time>2020-01-15T13:20:07.000Z</time>
      </trkpt>
      <trkpt lat="45.63153" lon="6.70357">
        <ele>2051.1999511719</ele>
        <time>2020-01-15T13:20:08.000Z</time>
      </trkpt>
      <trkpt lat="45.63154" lon="6.70353">
        <ele>2052</ele>
        <time>2020-01-15T13:20:12.000Z</time>
      </trkpt>
      <trkpt lat="45.63154" lon="6.70353">
        <ele>2052.6000976562</ele>
        <time>2020-01-15T13:20:13.000Z</time>
      </trkpt>
      <trkpt lat="45.63156" lon="6.7035">
        <ele>2053.1999511719</ele>
        <time>2020-01-15T13:20:18.000Z</time>
      </trkpt>
      <trkpt lat="45.63156" lon="6.70347">
        <ele>2053.6000976562</ele>
        <time>2020-01-15T13:20:21.000Z</time>
      </trkpt>
      <trkpt lat="45.63155" lon="6.70344">
        <ele>2053.8000488281</ele>
        <time>2020-01-15T13:20:23.000Z</time>
      </trkpt>
      <trkpt lat="45.63155" lon="6.70341">
        <ele>2054.6000976562</ele>
        <time>2020-01-15T13:20:28.000Z</time>
      </trkpt>
      <trkpt lat="45.63154" lon="6.7034">
        <ele>2055</ele>
        <time>2020-01-15T13:20:29.000Z</time>
      </trkpt>
      <trkpt lat="45.63151" lon="6.70338">
        <ele>2055.8000488281</ele>
        <time>2020-01-15T13:20:32.000Z</time>
      </trkpt>
      <trkpt lat="45.63149" lon="6.70337">
        <ele>2056.3999023438</ele>
        <time>2020-01-15T13:20:35.000Z</time>
      </trkpt>
      <trkpt lat="45.63147" lon="6.70336">
        <ele>2057</ele>
        <time>2020-01-15T13:20:37.000Z</time>
      </trkpt>
      <trkpt lat="45.63144" lon="6.70334">
        <ele>2058</ele>
        <time>2020-01-15T13:20:42.000Z</time>
      </trkpt>
      <trkpt lat="45.63137" lon="6.70332">
        <ele>2059.1999511719</ele>
        <time>2020-01-15T13:20:49.000Z</time>
      </trkpt>
      <trkpt lat="45.63136" lon="6.70331">
        <ele>2059.3999023438</ele>
        <time>2020-01-15T13:20:50.000Z</time>
      </trkpt>
      <trkpt lat="45.6313" lon="6.70329">
        <ele>2060.1999511719</ele>
        <time>2020-01-15T13:20:56.000Z</time>
      </trkpt>
      <trkpt lat="45.6313" lon="6.70328">
        <ele>2060.3999023438</ele>
        <time>2020-01-15T13:20:57.000Z</time>
      </trkpt>
      <trkpt lat="45.63127" lon="6.70325">
        <ele>2061.3999023438</ele>
        <time>2020-01-15T13:21:02.000Z</time>
      </trkpt>
      <trkpt lat="45.63127" lon="6.70325">
        <ele>2061.3999023438</ele>
        <time>2020-01-15T13:21:03.000Z</time>
      </trkpt>
      <trkpt lat="45.6313" lon="6.70324">
        <ele>2062.3999023438</ele>
        <time>2020-01-15T13:21:08.000Z</time>
      </trkpt>
      <trkpt lat="45.6313" lon="6.70324">
        <ele>2062.3999023438</ele>
        <time>2020-01-15T13:21:09.000Z</time>
      </trkpt>
      <trkpt lat="45.63131" lon="6.70324">
        <ele>2063.1999511719</ele>
        <time>2020-01-15T13:21:13.000Z</time>
      </trkpt>
      <trkpt lat="45.63133" lon="6.70324">
        <ele>2063.6000976562</ele>
        <time>2020-01-15T13:21:15.000Z</time>
      </trkpt>
      <trkpt lat="45.63135" lon="6.70323">
        <ele>2064</ele>
        <time>2020-01-15T13:21:18.000Z</time>
      </trkpt>
      <trkpt lat="45.63138" lon="6.70321">
        <ele>2064.6000976562</ele>
        <time>2020-01-15T13:21:21.000Z</time>
      </trkpt>
      <trkpt lat="45.63139" lon="6.7032">
        <ele>2064.8000488281</ele>
        <time>2020-01-15T13:21:23.000Z</time>
      </trkpt>
      <trkpt lat="45.63141" lon="6.70317">
        <ele>2065.8000488281</ele>
        <time>2020-01-15T13:21:28.000Z</time>
      </trkpt>
      <trkpt lat="45.63143" lon="6.70315">
        <ele>2066.6000976562</ele>
        <time>2020-01-15T13:21:33.000Z</time>
      </trkpt>
      <trkpt lat="45.63144" lon="6.70313">
        <ele>2066.8000488281</ele>
        <time>2020-01-15T13:21:34.000Z</time>
      </trkpt>
      <trkpt lat="45.63146" lon="6.70312">
        <ele>2067.3999023438</ele>
        <time>2020-01-15T13:21:37.000Z</time>
      </trkpt>
      <trkpt lat="45.63148" lon="6.7031">
        <ele>2068</ele>
        <time>2020-01-15T13:21:40.000Z</time>
      </trkpt>
      <trkpt lat="45.63148" lon="6.7031">
        <ele>2068.1999511719</ele>
        <time>2020-01-15T13:21:42.000Z</time>
      </trkpt>
      <trkpt lat="45.63149" lon="6.70309">
        <ele>2069</ele>
        <time>2020-01-15T13:21:48.000Z</time>
      </trkpt>
      <trkpt lat="45.6315" lon="6.7031">
        <ele>2069.1999511719</ele>
        <time>2020-01-15T13:21:49.000Z</time>
      </trkpt>
      <trkpt lat="45.63153" lon="6.70307">
        <ele>2069.8000488281</ele>
        <time>2020-01-15T13:21:54.000Z</time>
      </trkpt>
      <trkpt lat="45.63154" lon="6.70307">
        <ele>2070</ele>
        <time>2020-01-15T13:21:55.000Z</time>
      </trkpt>
      <trkpt lat="45.63156" lon="6.70306">
        <ele>2070.8000488281</ele>
        <time>2020-01-15T13:21:59.000Z</time>
      </trkpt>
      <trkpt lat="45.63156" lon="6.70305">
        <ele>2071</ele>
        <time>2020-01-15T13:22:01.000Z</time>
      </trkpt>
      <trkpt lat="45.63155" lon="6.70304">
        <ele>2071.6000976562</ele>
        <time>2020-01-15T13:22:06.000Z</time>
      </trkpt>
      <trkpt lat="45.63152" lon="6.70298">
        <ele>2071.8000488281</ele>
        <time>2020-01-15T13:22:12.000Z</time>
      </trkpt>
      <trkpt lat="45.63151" lon="6.70296">
        <ele>2072.3999023438</ele>
        <time>2020-01-15T13:22:13.000Z</time>
      </trkpt>
      <trkpt lat="45.63147" lon="6.70292">
        <ele>2073.3999023438</ele>
        <time>2020-01-15T13:22:18.000Z</time>
      </trkpt>
      <trkpt lat="45.63142" lon="6.70288">
        <ele>2074.6000976562</ele>
        <time>2020-01-15T13:22:23.000Z</time>
      </trkpt>
      <trkpt lat="45.63141" lon="6.70288">
        <ele>2074.8000488281</ele>
        <time>2020-01-15T13:22:24.000Z</time>
      </trkpt>
      <trkpt lat="45.63138" lon="6.70286">
        <ele>2075.6000976562</ele>
        <time>2020-01-15T13:22:29.000Z</time>
      </trkpt>
      <trkpt lat="45.63137" lon="6.70286">
        <ele>2076.1999511719</ele>
        <time>2020-01-15T13:22:32.000Z</time>
      </trkpt>
      <trkpt lat="45.63136" lon="6.70283">
        <ele>2076.6000976562</ele>
        <time>2020-01-15T13:22:35.000Z</time>
      </trkpt>
      <trkpt lat="45.63135" lon="6.70282">
        <ele>2077.3999023438</ele>
        <time>2020-01-15T13:22:39.000Z</time>
      </trkpt>
      <trkpt lat="45.63135" lon="6.70281">
        <ele>2077.6000976562</ele>
        <time>2020-01-15T13:22:41.000Z</time>
      </trkpt>
      <trkpt lat="45.63133" lon="6.70279">
        <ele>2078.1999511719</ele>
        <time>2020-01-15T13:22:46.000Z</time>
      </trkpt>
      <trkpt lat="45.63131" lon="6.70277">
        <ele>2078.8000488281</ele>
        <time>2020-01-15T13:22:48.000Z</time>
      </trkpt>
      <trkpt lat="45.6313" lon="6.70275">
        <ele>2079.1999511719</ele>
        <time>2020-01-15T13:22:51.000Z</time>
      </trkpt>
      <trkpt lat="45.6313" lon="6.70275">
        <ele>2079.6000976562</ele>
        <time>2020-01-15T13:22:58.000Z</time>
      </trkpt>
      <trkpt lat="45.63131" lon="6.70274">
        <ele>2080</ele>
        <time>2020-01-15T13:22:59.000Z</time>
      </trkpt>
      <trkpt lat="45.63132" lon="6.70276">
        <ele>2080.3999023438</ele>
        <time>2020-01-15T13:23:02.000Z</time>
      </trkpt>
      <trkpt lat="45.63137" lon="6.70276">
        <ele>2080.8000488281</ele>
        <time>2020-01-15T13:23:07.000Z</time>
      </trkpt>
      <trkpt lat="45.63137" lon="6.70275">
        <ele>2081</ele>
        <time>2020-01-15T13:23:09.000Z</time>
      </trkpt>
      <trkpt lat="45.63139" lon="6.70275">
        <ele>2081.3999023438</ele>
        <time>2020-01-15T13:23:11.000Z</time>
      </trkpt>
      <trkpt lat="45.63143" lon="6.70273">
        <ele>2082.1999511719</ele>
        <time>2020-01-15T13:23:15.000Z</time>
      </trkpt>
      <trkpt lat="45.63142" lon="6.70273">
        <ele>2082.1999511719</ele>
        <time>2020-01-15T13:23:16.000Z</time>
      </trkpt>
      <trkpt lat="45.63144" lon="6.70272">
        <ele>2083</ele>
        <time>2020-01-15T13:23:20.000Z</time>
      </trkpt>
      <trkpt lat="45.63145" lon="6.70272">
        <ele>2083.1999511719</ele>
        <time>2020-01-15T13:23:21.000Z</time>
      </trkpt>
      <trkpt lat="45.63146" lon="6.70271">
        <ele>2084</ele>
        <time>2020-01-15T13:23:25.000Z</time>
      </trkpt>
      <trkpt lat="45.63147" lon="6.7027">
        <ele>2084.3999023438</ele>
        <time>2020-01-15T13:23:27.000Z</time>
      </trkpt>
      <trkpt lat="45.63149" lon="6.7027">
        <ele>2085</ele>
        <time>2020-01-15T13:23:30.000Z</time>
      </trkpt>
      <trkpt lat="45.63153" lon="6.70269">
        <ele>2085.3999023438</ele>
        <time>2020-01-15T13:23:34.000Z</time>
      </trkpt>
      <trkpt lat="45.63157" lon="6.70268">
        <ele>2086.1999511719</ele>
        <time>2020-01-15T13:23:39.000Z</time>
      </trkpt>
      <trkpt lat="45.63159" lon="6.70268">
        <ele>2086.6000976562</ele>
        <time>2020-01-15T13:23:41.000Z</time>
      </trkpt>
      <trkpt lat="45.6316" lon="6.70267">
        <ele>2086.8000488281</ele>
        <time>2020-01-15T13:23:43.000Z</time>
      </trkpt>
      <trkpt lat="45.63163" lon="6.70267">
        <ele>2087.3999023438</ele>
        <time>2020-01-15T13:23:47.000Z</time>
      </trkpt>
      <trkpt lat="45.63163" lon="6.70267">
        <ele>2087.8000488281</ele>
        <time>2020-01-15T13:23:49.000Z</time>
      </trkpt>
      <trkpt lat="45.63165" lon="6.70268">
        <ele>2088.1999511719</ele>
        <time>2020-01-15T13:23:52.000Z</time>
      </trkpt>
      <trkpt lat="45.63168" lon="6.70269">
        <ele>2088.8000488281</ele>
        <time>2020-01-15T13:23:56.000Z</time>
      </trkpt>
      <trkpt lat="45.63168" lon="6.70269">
        <ele>2089.1999511719</ele>
        <time>2020-01-15T13:23:58.000Z</time>
      </trkpt>
      <trkpt lat="45.6317" lon="6.70269">
        <ele>2089.6000976562</ele>
        <time>2020-01-15T13:24:09.000Z</time>
      </trkpt>
      <trkpt lat="45.63173" lon="6.70271">
        <ele>2089.3999023438</ele>
        <time>2020-01-15T13:24:13.000Z</time>
      </trkpt>
      <trkpt lat="45.63176" lon="6.70274">
        <ele>2090</ele>
        <time>2020-01-15T13:24:17.000Z</time>
      </trkpt>
      <trkpt lat="45.63177" lon="6.70274">
        <ele>2090.1999511719</ele>
        <time>2020-01-15T13:24:18.000Z</time>
      </trkpt>
      <trkpt lat="45.63181" lon="6.70275">
        <ele>2090.6000976562</ele>
        <time>2020-01-15T13:24:23.000Z</time>
      </trkpt>
      <trkpt lat="45.63182" lon="6.70275">
        <ele>2091</ele>
        <time>2020-01-15T13:24:25.000Z</time>
      </trkpt>
      <trkpt lat="45.63184" lon="6.70275">
        <ele>2091.6000976562</ele>
        <time>2020-01-15T13:24:27.000Z</time>
      </trkpt>
      <trkpt lat="45.63187" lon="6.70279">
        <ele>2092.1999511719</ele>
        <time>2020-01-15T13:24:33.000Z</time>
      </trkpt>
      <trkpt lat="45.63191" lon="6.70281">
        <ele>2093.3999023438</ele>
        <time>2020-01-15T13:24:38.000Z</time>
      </trkpt>
      <trkpt lat="45.63193" lon="6.70281">
        <ele>2093.3999023438</ele>
        <time>2020-01-15T13:24:39.000Z</time>
      </trkpt>
      <trkpt lat="45.63193" lon="6.7028">
        <ele>2093.8000488281</ele>
        <time>2020-01-15T13:24:43.000Z</time>
      </trkpt>
      <trkpt lat="45.63195" lon="6.70279">
        <ele>2094.3999023438</ele>
        <time>2020-01-15T13:24:46.000Z</time>
      </trkpt>
      <trkpt lat="45.63195" lon="6.7028">
        <ele>2094.3999023438</ele>
        <time>2020-01-15T13:24:47.000Z</time>
      </trkpt>
      <trkpt lat="45.63196" lon="6.70278">
        <ele>2094.8000488281</ele>
        <time>2020-01-15T13:24:48.000Z</time>
      </trkpt>
      <trkpt lat="45.63196" lon="6.70274">
        <ele>2095.3999023438</ele>
        <time>2020-01-15T13:24:53.000Z</time>
      </trkpt>
      <trkpt lat="45.63195" lon="6.70273">
        <ele>2095.3999023438</ele>
        <time>2020-01-15T13:24:54.000Z</time>
      </trkpt>
      <trkpt lat="45.63195" lon="6.70273">
        <ele>2095.6000976562</ele>
        <time>2020-01-15T13:24:55.000Z</time>
      </trkpt>
      <trkpt lat="45.63191" lon="6.7027">
        <ele>2096.6000976562</ele>
        <time>2020-01-15T13:24:59.000Z</time>
      </trkpt>
      <trkpt lat="45.6319" lon="6.70269">
        <ele>2096.8000488281</ele>
        <time>2020-01-15T13:25:00.000Z</time>
      </trkpt>
      <trkpt lat="45.63189" lon="6.70265">
        <ele>2097.3999023438</ele>
        <time>2020-01-15T13:25:03.000Z</time>
      </trkpt>
      <trkpt lat="45.63189" lon="6.70265">
        <ele>2097.8000488281</ele>
        <time>2020-01-15T13:25:04.000Z</time>
      </trkpt>
      <trkpt lat="45.63188" lon="6.70263">
        <ele>2098</ele>
        <time>2020-01-15T13:25:05.000Z</time>
      </trkpt>
      <trkpt lat="45.63187" lon="6.70261">
        <ele>2099</ele>
        <time>2020-01-15T13:25:10.000Z</time>
      </trkpt>
      <trkpt lat="45.63186" lon="6.7026">
        <ele>2099.1999511719</ele>
        <time>2020-01-15T13:25:11.000Z</time>
      </trkpt>
      <trkpt lat="45.63185" lon="6.70258">
        <ele>2100</ele>
        <time>2020-01-15T13:25:16.000Z</time>
      </trkpt>
      <trkpt lat="45.63184" lon="6.70257">
        <ele>2100.1999511719</ele>
        <time>2020-01-15T13:25:18.000Z</time>
      </trkpt>
      <trkpt lat="45.63183" lon="6.70256">
        <ele>2101.1999511719</ele>
        <time>2020-01-15T13:25:26.000Z</time>
      </trkpt>
      <trkpt lat="45.63183" lon="6.70255">
        <ele>2101.1999511719</ele>
        <time>2020-01-15T13:25:27.000Z</time>
      </trkpt>
      <trkpt lat="45.63181" lon="6.70251">
        <ele>2101.8000488281</ele>
        <time>2020-01-15T13:25:32.000Z</time>
      </trkpt>
      <trkpt lat="45.6318" lon="6.70247">
        <ele>2102.3999023438</ele>
        <time>2020-01-15T13:25:36.000Z</time>
      </trkpt>
      <trkpt lat="45.6318" lon="6.70246">
        <ele>2102.6000976562</ele>
        <time>2020-01-15T13:25:38.000Z</time>
      </trkpt>
      <trkpt lat="45.63178" lon="6.70244">
        <ele>2103</ele>
        <time>2020-01-15T13:25:43.000Z</time>
      </trkpt>
      <trkpt lat="45.63179" lon="6.70244">
        <ele>2103.3999023438</ele>
        <time>2020-01-15T13:25:46.000Z</time>
      </trkpt>
      <trkpt lat="45.63179" lon="6.70243">
        <ele>2104.1999511719</ele>
        <time>2020-01-15T13:25:49.000Z</time>
      </trkpt>
      <trkpt lat="45.63182" lon="6.70244">
        <ele>2104.1999511719</ele>
        <time>2020-01-15T13:25:52.000Z</time>
      </trkpt>
      <trkpt lat="45.63182" lon="6.70245">
        <ele>2104.3999023438</ele>
        <time>2020-01-15T13:25:54.000Z</time>
      </trkpt>
      <trkpt lat="45.63184" lon="6.70244">
        <ele>2104.6000976562</ele>
        <time>2020-01-15T13:25:55.000Z</time>
      </trkpt>
      <trkpt lat="45.63184" lon="6.7024">
        <ele>2105.6000976562</ele>
        <time>2020-01-15T13:25:59.000Z</time>
      </trkpt>
      <trkpt lat="45.63184" lon="6.70239">
        <ele>2105.8000488281</ele>
        <time>2020-01-15T13:26:00.000Z</time>
      </trkpt>
      <trkpt lat="45.63183" lon="6.70236">
        <ele>2106.3999023438</ele>
        <time>2020-01-15T13:26:05.000Z</time>
      </trkpt>
      <trkpt lat="45.63182" lon="6.70235">
        <ele>2106.8000488281</ele>
        <time>2020-01-15T13:26:07.000Z</time>
      </trkpt>
      <trkpt lat="45.63179" lon="6.70231">
        <ele>2107.8000488281</ele>
        <time>2020-01-15T13:26:12.000Z</time>
      </trkpt>
      <trkpt lat="45.63179" lon="6.7023">
        <ele>2108.1999511719</ele>
        <time>2020-01-15T13:26:13.000Z</time>
      </trkpt>
      <trkpt lat="45.63178" lon="6.70228">
        <ele>2109.1999511719</ele>
        <time>2020-01-15T13:26:17.000Z</time>
      </trkpt>
      <trkpt lat="45.63177" lon="6.70226">
        <ele>2109.1999511719</ele>
        <time>2020-01-15T13:26:18.000Z</time>
      </trkpt>
      <trkpt lat="45.63176" lon="6.70224">
        <ele>2109.8000488281</ele>
        <time>2020-01-15T13:26:22.000Z</time>
      </trkpt>
      <trkpt lat="45.63173" lon="6.7022">
        <ele>2110.3999023438</ele>
        <time>2020-01-15T13:26:25.000Z</time>
      </trkpt>
      <trkpt lat="45.63173" lon="6.7022">
        <ele>2110.6000976562</ele>
        <time>2020-01-15T13:26:27.000Z</time>
      </trkpt>
      <trkpt lat="45.63171" lon="6.70218">
        <ele>2111.3999023438</ele>
        <time>2020-01-15T13:26:31.000Z</time>
      </trkpt>
      <trkpt lat="45.6317" lon="6.70218">
        <ele>2111.6000976562</ele>
        <time>2020-01-15T13:26:32.000Z</time>
      </trkpt>
      <trkpt lat="45.63168" lon="6.70218">
        <ele>2112.8000488281</ele>
        <time>2020-01-15T13:26:37.000Z</time>
      </trkpt>
      <trkpt lat="45.63168" lon="6.70218">
        <ele>2113.1999511719</ele>
        <time>2020-01-15T13:26:51.000Z</time>
      </trkpt>
      <trkpt lat="45.63168" lon="6.70218">
        <ele>2113.1999511719</ele>
        <time>2020-01-15T13:27:02.000Z</time>
      </trkpt>
      <trkpt lat="45.63168" lon="6.70216">
        <ele>2113.1999511719</ele>
        <time>2020-01-15T13:27:07.000Z</time>
      </trkpt>
      <trkpt lat="45.63168" lon="6.70216">
        <ele>2114</ele>
        <time>2020-01-15T13:27:09.000Z</time>
      </trkpt>
      <trkpt lat="45.6317" lon="6.70218">
        <ele>2114</ele>
        <time>2020-01-15T13:27:13.000Z</time>
      </trkpt>
      <trkpt lat="45.63175" lon="6.70216">
        <ele>2114.3999023438</ele>
        <time>2020-01-15T13:27:18.000Z</time>
      </trkpt>
      <trkpt lat="45.63177" lon="6.70215">
        <ele>2115.1999511719</ele>
        <time>2020-01-15T13:27:22.000Z</time>
      </trkpt>
      <trkpt lat="45.63178" lon="6.70213">
        <ele>2116.1999511719</ele>
        <time>2020-01-15T13:27:25.000Z</time>
      </trkpt>
      <trkpt lat="45.63179" lon="6.70211">
        <ele>2116.6000976562</ele>
        <time>2020-01-15T13:27:27.000Z</time>
      </trkpt>
      <trkpt lat="45.63179" lon="6.7021">
        <ele>2117.3999023438</ele>
        <time>2020-01-15T13:27:30.000Z</time>
      </trkpt>
      <trkpt lat="45.63178" lon="6.7021">
        <ele>2117.6000976562</ele>
        <time>2020-01-15T13:27:33.000Z</time>
      </trkpt>
      <trkpt lat="45.63175" lon="6.70209">
        <ele>2118.3999023438</ele>
        <time>2020-01-15T13:27:37.000Z</time>
      </trkpt>
      <trkpt lat="45.63173" lon="6.70207">
        <ele>2118.8000488281</ele>
        <time>2020-01-15T13:27:39.000Z</time>
      </trkpt>
      <trkpt lat="45.63173" lon="6.70207">
        <ele>2119.3999023438</ele>
        <time>2020-01-15T13:27:43.000Z</time>
      </trkpt>
      <trkpt lat="45.63173" lon="6.70207">
        <ele>2119.6000976562</ele>
        <time>2020-01-15T13:27:44.000Z</time>
      </trkpt>
      <trkpt lat="45.63172" lon="6.70206">
        <ele>2119.6000976562</ele>
        <time>2020-01-15T13:27:50.000Z</time>
      </trkpt>
      <trkpt lat="45.63172" lon="6.70206">
        <ele>2121</ele>
        <time>2020-01-15T13:27:56.000Z</time>
      </trkpt>
      <trkpt lat="45.63172" lon="6.70206">
        <ele>2121.8000488281</ele>
        <time>2020-01-15T13:27:58.000Z</time>
      </trkpt>
      <trkpt lat="45.63175" lon="6.70203">
        <ele>2121</ele>
        <time>2020-01-15T13:28:05.000Z</time>
      </trkpt>
      <trkpt lat="45.63176" lon="6.702">
        <ele>2121.6000976562</ele>
        <time>2020-01-15T13:28:10.000Z</time>
      </trkpt>
      <trkpt lat="45.63177" lon="6.702">
        <ele>2122.1999511719</ele>
        <time>2020-01-15T13:28:12.000Z</time>
      </trkpt>
      <trkpt lat="45.63177" lon="6.702">
        <ele>2123.1999511719</ele>
        <time>2020-01-15T13:28:15.000Z</time>
      </trkpt>
      <trkpt lat="45.63178" lon="6.70199">
        <ele>2123.3999023438</ele>
        <time>2020-01-15T13:28:16.000Z</time>
      </trkpt>
      <trkpt lat="45.6318" lon="6.70198">
        <ele>2124.3999023438</ele>
        <time>2020-01-15T13:28:21.000Z</time>
      </trkpt>
      <trkpt lat="45.63181" lon="6.70196">
        <ele>2124.8000488281</ele>
        <time>2020-01-15T13:28:26.000Z</time>
      </trkpt>
      <trkpt lat="45.6318" lon="6.70193">
        <ele>2125.1999511719</ele>
        <time>2020-01-15T13:28:35.000Z</time>
      </trkpt>
      <trkpt lat="45.63179" lon="6.70193">
        <ele>2125.6000976562</ele>
        <time>2020-01-15T13:28:41.000Z</time>
      </trkpt>
      <trkpt lat="45.63179" lon="6.70193">
        <ele>2125.6000976562</ele>
        <time>2020-01-15T13:28:47.000Z</time>
      </trkpt>
      <trkpt lat="45.63175" lon="6.70191">
        <ele>2126.1999511719</ele>
        <time>2020-01-15T13:28:54.000Z</time>
      </trkpt>
      <trkpt lat="45.63172" lon="6.7019">
        <ele>2126.6000976562</ele>
        <time>2020-01-15T13:28:57.000Z</time>
      </trkpt>
      <trkpt lat="45.6317" lon="6.70189">
        <ele>2127.1999511719</ele>
        <time>2020-01-15T13:29:00.000Z</time>
      </trkpt>
      <trkpt lat="45.63168" lon="6.70187">
        <ele>2127.6000976562</ele>
        <time>2020-01-15T13:29:01.000Z</time>
      </trkpt>
      <trkpt lat="45.63168" lon="6.70188">
        <ele>2128.3999023438</ele>
        <time>2020-01-15T13:29:05.000Z</time>
      </trkpt>
      <trkpt lat="45.63168" lon="6.70188">
        <ele>2128.6000976562</ele>
        <time>2020-01-15T13:29:06.000Z</time>
      </trkpt>
      <trkpt lat="45.63167" lon="6.70186">
        <ele>2129</ele>
        <time>2020-01-15T13:29:12.000Z</time>
      </trkpt>
      <trkpt lat="45.63167" lon="6.70186">
        <ele>2129.8000488281</ele>
        <time>2020-01-15T13:29:19.000Z</time>
      </trkpt>
      <trkpt lat="45.63167" lon="6.70186">
        <ele>2130</ele>
        <time>2020-01-15T13:29:20.000Z</time>
      </trkpt>
      <trkpt lat="45.63171" lon="6.70187">
        <ele>2130.3999023438</ele>
        <time>2020-01-15T13:29:25.000Z</time>
      </trkpt>
      <trkpt lat="45.63173" lon="6.70184">
        <ele>2131</ele>
        <time>2020-01-15T13:29:30.000Z</time>
      </trkpt>
      <trkpt lat="45.63176" lon="6.70181">
        <ele>2131.8000488281</ele>
        <time>2020-01-15T13:29:35.000Z</time>
      </trkpt>
      <trkpt lat="45.63177" lon="6.70179">
        <ele>2132</ele>
        <time>2020-01-15T13:29:37.000Z</time>
      </trkpt>
      <trkpt lat="45.63178" lon="6.70178">
        <ele>2132.8000488281</ele>
        <time>2020-01-15T13:29:40.000Z</time>
      </trkpt>
      <trkpt lat="45.63179" lon="6.70177">
        <ele>2133.1999511719</ele>
        <time>2020-01-15T13:29:42.000Z</time>
      </trkpt>
      <trkpt lat="45.6318" lon="6.70177">
        <ele>2133.6000976562</ele>
        <time>2020-01-15T13:29:45.000Z</time>
      </trkpt>
      <trkpt lat="45.63181" lon="6.70177">
        <ele>2134.6000976562</ele>
        <time>2020-01-15T13:29:49.000Z</time>
      </trkpt>
      <trkpt lat="45.63181" lon="6.70177">
        <ele>2134.8000488281</ele>
        <time>2020-01-15T13:29:53.000Z</time>
      </trkpt>
      <trkpt lat="45.63181" lon="6.70177">
        <ele>2134.8000488281</ele>
        <time>2020-01-15T13:30:06.000Z</time>
      </trkpt>
      <trkpt lat="45.63181" lon="6.70177">
        <ele>2134.8000488281</ele>
        <time>2020-01-15T13:30:18.000Z</time>
      </trkpt>
      <trkpt lat="45.63181" lon="6.70177">
        <ele>2134.8000488281</ele>
        <time>2020-01-15T13:30:25.000Z</time>
      </trkpt>
      <trkpt lat="45.63181" lon="6.70177">
        <ele>2134.6000976562</ele>
        <time>2020-01-15T13:30:45.000Z</time>
      </trkpt>
      <trkpt lat="45.63181" lon="6.70177">
        <ele>2134.8000488281</ele>
        <time>2020-01-15T13:30:58.000Z</time>
      </trkpt>
      <trkpt lat="45.63182" lon="6.70173">
        <ele>2134.6000976562</ele>
        <time>2020-01-15T13:31:05.000Z</time>
      </trkpt>
      <trkpt lat="45.63179" lon="6.70172">
        <ele>2135.1999511719</ele>
        <time>2020-01-15T13:31:14.000Z</time>
      </trkpt>
      <trkpt lat="45.63176" lon="6.70171">
        <ele>2135.6000976562</ele>
        <time>2020-01-15T13:31:18.000Z</time>
      </trkpt>
      <trkpt lat="45.63175" lon="6.7017">
        <ele>2136.8000488281</ele>
        <time>2020-01-15T13:31:22.000Z</time>
      </trkpt>
      <trkpt lat="45.63175" lon="6.7017">
        <ele>2137</ele>
        <time>2020-01-15T13:31:24.000Z</time>
      </trkpt>
      <trkpt lat="45.63173" lon="6.70171">
        <ele>2136.8000488281</ele>
        <time>2020-01-15T13:31:37.000Z</time>
      </trkpt>
      <trkpt lat="45.6317" lon="6.70169">
        <ele>2137.6000976562</ele>
        <time>2020-01-15T13:31:43.000Z</time>
      </trkpt>
      <trkpt lat="45.63169" lon="6.70169">
        <ele>2137.8000488281</ele>
        <time>2020-01-15T13:31:44.000Z</time>
      </trkpt>
      <trkpt lat="45.63167" lon="6.70167">
        <ele>2138.3999023438</ele>
        <time>2020-01-15T13:31:48.000Z</time>
      </trkpt>
      <trkpt lat="45.63166" lon="6.70166">
        <ele>2138.8000488281</ele>
        <time>2020-01-15T13:31:49.000Z</time>
      </trkpt>
      <trkpt lat="45.63166" lon="6.70163">
        <ele>2139.6000976562</ele>
        <time>2020-01-15T13:31:53.000Z</time>
      </trkpt>
      <trkpt lat="45.63165" lon="6.70161">
        <ele>2140</ele>
        <time>2020-01-15T13:31:55.000Z</time>
      </trkpt>
      <trkpt lat="45.63164" lon="6.70159">
        <ele>2140.6000976562</ele>
        <time>2020-01-15T13:31:59.000Z</time>
      </trkpt>
      <trkpt lat="45.63163" lon="6.70157">
        <ele>2141</ele>
        <time>2020-01-15T13:32:01.000Z</time>
      </trkpt>
      <trkpt lat="45.63162" lon="6.70156">
        <ele>2141.8000488281</ele>
        <time>2020-01-15T13:32:04.000Z</time>
      </trkpt>
      <trkpt lat="45.6316" lon="6.70154">
        <ele>2142.1999511719</ele>
        <time>2020-01-15T13:32:06.000Z</time>
      </trkpt>
      <trkpt lat="45.6316" lon="6.70151">
        <ele>2142.6000976562</ele>
        <time>2020-01-15T13:32:10.000Z</time>
      </trkpt>
      <trkpt lat="45.63161" lon="6.70153">
        <ele>2142.8000488281</ele>
        <time>2020-01-15T13:32:14.000Z</time>
      </trkpt>
      <trkpt lat="45.63162" lon="6.70154">
        <ele>2143.1999511719</ele>
        <time>2020-01-15T13:32:16.000Z</time>
      </trkpt>
      <trkpt lat="45.63164" lon="6.70156">
        <ele>2143.8000488281</ele>
        <time>2020-01-15T13:32:18.000Z</time>
      </trkpt>
      <trkpt lat="45.63168" lon="6.70158">
        <ele>2144.3999023438</ele>
        <time>2020-01-15T13:32:23.000Z</time>
      </trkpt>
      <trkpt lat="45.6317" lon="6.70158">
        <ele>2145.1999511719</ele>
        <time>2020-01-15T13:32:28.000Z</time>
      </trkpt>
      <trkpt lat="45.63172" lon="6.70156">
        <ele>2145.3999023438</ele>
        <time>2020-01-15T13:32:29.000Z</time>
      </trkpt>
      <trkpt lat="45.63173" lon="6.70155">
        <ele>2146</ele>
        <time>2020-01-15T13:32:33.000Z</time>
      </trkpt>
      <trkpt lat="45.63173" lon="6.70154">
        <ele>2146.6000976562</ele>
        <time>2020-01-15T13:32:35.000Z</time>
      </trkpt>
      <trkpt lat="45.63173" lon="6.70153">
        <ele>2147</ele>
        <time>2020-01-15T13:32:37.000Z</time>
      </trkpt>
      <trkpt lat="45.63173" lon="6.70153">
        <ele>2147.6000976562</ele>
        <time>2020-01-15T13:32:42.000Z</time>
      </trkpt>
      <trkpt lat="45.63174" lon="6.70151">
        <ele>2147.6000976562</ele>
        <time>2020-01-15T13:32:43.000Z</time>
      </trkpt>
      <trkpt lat="45.63175" lon="6.7015">
        <ele>2148</ele>
        <time>2020-01-15T13:32:49.000Z</time>
      </trkpt>
      <trkpt lat="45.63171" lon="6.7015">
        <ele>2148.8000488281</ele>
        <time>2020-01-15T13:32:57.000Z</time>
      </trkpt>
      <trkpt lat="45.63168" lon="6.70149">
        <ele>2149.3999023438</ele>
        <time>2020-01-15T13:33:03.000Z</time>
      </trkpt>
      <trkpt lat="45.6317" lon="6.70149">
        <ele>2150</ele>
        <time>2020-01-15T13:33:08.000Z</time>
      </trkpt>
      <trkpt lat="45.63171" lon="6.70149">
        <ele>2150.6000976562</ele>
        <time>2020-01-15T13:33:09.000Z</time>
      </trkpt>
      <trkpt lat="45.63173" lon="6.70146">
        <ele>2151.1999511719</ele>
        <time>2020-01-15T13:33:12.000Z</time>
      </trkpt>
      <trkpt lat="45.63174" lon="6.70145">
        <ele>2151.1999511719</ele>
        <time>2020-01-15T13:33:15.000Z</time>
      </trkpt>
      <trkpt lat="45.63175" lon="6.70141">
        <ele>2151.8000488281</ele>
        <time>2020-01-15T13:33:19.000Z</time>
      </trkpt>
      <trkpt lat="45.63176" lon="6.7014">
        <ele>2152.3999023438</ele>
        <time>2020-01-15T13:33:22.000Z</time>
      </trkpt>
      <trkpt lat="45.63176" lon="6.7014">
        <ele>2152.8000488281</ele>
        <time>2020-01-15T13:33:24.000Z</time>
      </trkpt>
      <trkpt lat="45.63178" lon="6.70138">
        <ele>2153.3999023438</ele>
        <time>2020-01-15T13:33:29.000Z</time>
      </trkpt>
      <trkpt lat="45.63178" lon="6.70138">
        <ele>2153.6000976562</ele>
        <time>2020-01-15T13:33:30.000Z</time>
      </trkpt>
      <trkpt lat="45.63178" lon="6.70138">
        <ele>2154.3999023438</ele>
        <time>2020-01-15T13:33:35.000Z</time>
      </trkpt>
      <trkpt lat="45.63178" lon="6.70138">
        <ele>2154.6000976562</ele>
        <time>2020-01-15T13:33:39.000Z</time>
      </trkpt>
      <trkpt lat="45.63178" lon="6.70138">
        <ele>2154.3999023438</ele>
        <time>2020-01-15T13:33:48.000Z</time>
      </trkpt>
      <trkpt lat="45.63175" lon="6.70138">
        <ele>2155</ele>
        <time>2020-01-15T13:33:59.000Z</time>
      </trkpt>
      <trkpt lat="45.63173" lon="6.70138">
        <ele>2155.6000976562</ele>
        <time>2020-01-15T13:34:02.000Z</time>
      </trkpt>
      <trkpt lat="45.6317" lon="6.70137">
        <ele>2155.8000488281</ele>
        <time>2020-01-15T13:34:06.000Z</time>
      </trkpt>
      <trkpt lat="45.63166" lon="6.70136">
        <ele>2156.6000976562</ele>
        <time>2020-01-15T13:34:11.000Z</time>
      </trkpt>
      <trkpt lat="45.63166" lon="6.70135">
        <ele>2156.8000488281</ele>
        <time>2020-01-15T13:34:12.000Z</time>
      </trkpt>
      <trkpt lat="45.63165" lon="6.70135">
        <ele>2157.8000488281</ele>
        <time>2020-01-15T13:34:16.000Z</time>
      </trkpt>
      <trkpt lat="45.63164" lon="6.70133">
        <ele>2157.8000488281</ele>
        <time>2020-01-15T13:34:19.000Z</time>
      </trkpt>
      <trkpt lat="45.63164" lon="6.70132">
        <ele>2158.1999511719</ele>
        <time>2020-01-15T13:34:23.000Z</time>
      </trkpt>
      <trkpt lat="45.63166" lon="6.70132">
        <ele>2159</ele>
        <time>2020-01-15T13:34:25.000Z</time>
      </trkpt>
      <trkpt lat="45.63169" lon="6.7013">
        <ele>2159.3999023438</ele>
        <time>2020-01-15T13:34:29.000Z</time>
      </trkpt>
      <trkpt lat="45.63169" lon="6.7013">
        <ele>2160.1999511719</ele>
        <time>2020-01-15T13:34:34.000Z</time>
      </trkpt>
      <trkpt lat="45.63169" lon="6.7013">
        <ele>2160.3999023438</ele>
        <time>2020-01-15T13:34:38.000Z</time>
      </trkpt>
      <trkpt lat="45.6317" lon="6.70126">
        <ele>2160.3999023438</ele>
        <time>2020-01-15T13:34:42.000Z</time>
      </trkpt>
      <trkpt lat="45.63172" lon="6.70125">
        <ele>2161.3999023438</ele>
        <time>2020-01-15T13:34:47.000Z</time>
      </trkpt>
      <trkpt lat="45.63173" lon="6.70123">
        <ele>2162.1999511719</ele>
        <time>2020-01-15T13:34:52.000Z</time>
      </trkpt>
      <trkpt lat="45.6317" lon="6.7012">
        <ele>2162.3999023438</ele>
        <time>2020-01-15T13:34:59.000Z</time>
      </trkpt>
      <trkpt lat="45.63168" lon="6.7012">
        <ele>2162.6000976562</ele>
        <time>2020-01-15T13:35:00.000Z</time>
      </trkpt>
      <trkpt lat="45.63165" lon="6.70119">
        <ele>2163.6000976562</ele>
        <time>2020-01-15T13:35:03.000Z</time>
      </trkpt>
      <trkpt lat="45.63165" lon="6.70118">
        <ele>2163.8000488281</ele>
        <time>2020-01-15T13:35:05.000Z</time>
      </trkpt>
      <trkpt lat="45.63162" lon="6.70112">
        <ele>2164.6000976562</ele>
        <time>2020-01-15T13:35:11.000Z</time>
      </trkpt>
      <trkpt lat="45.63162" lon="6.70108">
        <ele>2165.1999511719</ele>
        <time>2020-01-15T13:35:16.000Z</time>
      </trkpt>
      <trkpt lat="45.63162" lon="6.70105">
        <ele>2165.6000976562</ele>
        <time>2020-01-15T13:35:19.000Z</time>
      </trkpt>
      <trkpt lat="45.63162" lon="6.70102">
        <ele>2165.8000488281</ele>
        <time>2020-01-15T13:35:21.000Z</time>
      </trkpt>
      <trkpt lat="45.6316" lon="6.70098">
        <ele>2166.6000976562</ele>
        <time>2020-01-15T13:35:25.000Z</time>
      </trkpt>
      <trkpt lat="45.63158" lon="6.70097">
        <ele>2167</ele>
        <time>2020-01-15T13:35:27.000Z</time>
      </trkpt>
      <trkpt lat="45.63158" lon="6.70097">
        <ele>2167.8000488281</ele>
        <time>2020-01-15T13:35:30.000Z</time>
      </trkpt>
      <trkpt lat="45.63157" lon="6.70095">
        <ele>2168</ele>
        <time>2020-01-15T13:35:34.000Z</time>
      </trkpt>
      <trkpt lat="45.63161" lon="6.70095">
        <ele>2168.8000488281</ele>
        <time>2020-01-15T13:35:39.000Z</time>
      </trkpt>
      <trkpt lat="45.63161" lon="6.70094">
        <ele>2169</ele>
        <time>2020-01-15T13:35:40.000Z</time>
      </trkpt>
      <trkpt lat="45.63163" lon="6.70093">
        <ele>2169.3999023438</ele>
        <time>2020-01-15T13:35:42.000Z</time>
      </trkpt>
      <trkpt lat="45.63165" lon="6.70091">
        <ele>2169.6000976562</ele>
        <time>2020-01-15T13:35:45.000Z</time>
      </trkpt>
      <trkpt lat="45.63165" lon="6.70091">
        <ele>2169.8000488281</ele>
        <time>2020-01-15T13:35:46.000Z</time>
      </trkpt>
      <trkpt lat="45.63167" lon="6.70087">
        <ele>2170.8000488281</ele>
        <time>2020-01-15T13:35:50.000Z</time>
      </trkpt>
      <trkpt lat="45.63168" lon="6.70087">
        <ele>2171.1999511719</ele>
        <time>2020-01-15T13:35:51.000Z</time>
      </trkpt>
      <trkpt lat="45.63169" lon="6.70085">
        <ele>2172</ele>
        <time>2020-01-15T13:35:56.000Z</time>
      </trkpt>
      <trkpt lat="45.63169" lon="6.70084">
        <ele>2172.6000976562</ele>
        <time>2020-01-15T13:36:00.000Z</time>
      </trkpt>
      <trkpt lat="45.63167" lon="6.70081">
        <ele>2173</ele>
        <time>2020-01-15T13:36:07.000Z</time>
      </trkpt>
      <trkpt lat="45.63165" lon="6.70079">
        <ele>2174.1999511719</ele>
        <time>2020-01-15T13:36:11.000Z</time>
      </trkpt>
      <trkpt lat="45.63162" lon="6.70077">
        <ele>2174.8000488281</ele>
        <time>2020-01-15T13:36:15.000Z</time>
      </trkpt>
      <trkpt lat="45.63161" lon="6.70077">
        <ele>2175.1999511719</ele>
        <time>2020-01-15T13:36:18.000Z</time>
      </trkpt>
      <trkpt lat="45.63159" lon="6.70075">
        <ele>2175.6000976562</ele>
        <time>2020-01-15T13:36:21.000Z</time>
      </trkpt>
      <trkpt lat="45.63155" lon="6.70072">
        <ele>2176.3999023438</ele>
        <time>2020-01-15T13:36:25.000Z</time>
      </trkpt>
      <trkpt lat="45.63154" lon="6.70072">
        <ele>2176.8000488281</ele>
        <time>2020-01-15T13:36:27.000Z</time>
      </trkpt>
      <trkpt lat="45.63153" lon="6.70071">
        <ele>2177.1999511719</ele>
        <time>2020-01-15T13:36:34.000Z</time>
      </trkpt>
      <trkpt lat="45.63153" lon="6.70071">
        <ele>2177.6000976562</ele>
        <time>2020-01-15T13:36:36.000Z</time>
      </trkpt>
      <trkpt lat="45.63155" lon="6.70071">
        <ele>2178</ele>
        <time>2020-01-15T13:36:39.000Z</time>
      </trkpt>
      <trkpt lat="45.63158" lon="6.70069">
        <ele>2178.3999023438</ele>
        <time>2020-01-15T13:36:44.000Z</time>
      </trkpt>
      <trkpt lat="45.6316" lon="6.70068">
        <ele>2178.8000488281</ele>
        <time>2020-01-15T13:36:46.000Z</time>
      </trkpt>
      <trkpt lat="45.63162" lon="6.70067">
        <ele>2179.6000976562</ele>
        <time>2020-01-15T13:36:49.000Z</time>
      </trkpt>
      <trkpt lat="45.63164" lon="6.70066">
        <ele>2179.8000488281</ele>
        <time>2020-01-15T13:36:51.000Z</time>
      </trkpt>
      <trkpt lat="45.63165" lon="6.70065">
        <ele>2180.3999023438</ele>
        <time>2020-01-15T13:36:54.000Z</time>
      </trkpt>
      <trkpt lat="45.63168" lon="6.70063">
        <ele>2181</ele>
        <time>2020-01-15T13:36:59.000Z</time>
      </trkpt>
      <trkpt lat="45.63169" lon="6.70063">
        <ele>2181.8000488281</ele>
        <time>2020-01-15T13:37:03.000Z</time>
      </trkpt>
      <trkpt lat="45.63169" lon="6.70063">
        <ele>2182</ele>
        <time>2020-01-15T13:37:04.000Z</time>
      </trkpt>
      <trkpt lat="45.63168" lon="6.70062">
        <ele>2182.3999023438</ele>
        <time>2020-01-15T13:37:08.000Z</time>
      </trkpt>
      <trkpt lat="45.63167" lon="6.70061">
        <ele>2182.3999023438</ele>
        <time>2020-01-15T13:37:09.000Z</time>
      </trkpt>
      <trkpt lat="45.63164" lon="6.70057">
        <ele>2182.6000976562</ele>
        <time>2020-01-15T13:37:14.000Z</time>
      </trkpt>
      <trkpt lat="45.63163" lon="6.70056">
        <ele>2182.3999023438</ele>
        <time>2020-01-15T13:37:20.000Z</time>
      </trkpt>
      <trkpt lat="45.63163" lon="6.70056">
        <ele>2183.1999511719</ele>
        <time>2020-01-15T13:37:24.000Z</time>
      </trkpt>
      <trkpt lat="45.63163" lon="6.70056">
        <ele>2184.6000976562</ele>
        <time>2020-01-15T13:37:26.000Z</time>
      </trkpt>
      <trkpt lat="45.63162" lon="6.70055">
        <ele>2185</ele>
        <time>2020-01-15T13:37:29.000Z</time>
      </trkpt>
      <trkpt lat="45.6316" lon="6.70052">
        <ele>2185</ele>
        <time>2020-01-15T13:37:36.000Z</time>
      </trkpt>
      <trkpt lat="45.63157" lon="6.70051">
        <ele>2185.8000488281</ele>
        <time>2020-01-15T13:37:40.000Z</time>
      </trkpt>
      <trkpt lat="45.63155" lon="6.7005">
        <ele>2186.1999511719</ele>
        <time>2020-01-15T13:37:44.000Z</time>
      </trkpt>
      <trkpt lat="45.63157" lon="6.70049">
        <ele>2187</ele>
        <time>2020-01-15T13:37:49.000Z</time>
      </trkpt>
      <trkpt lat="45.63158" lon="6.70048">
        <ele>2187.8000488281</ele>
        <time>2020-01-15T13:37:50.000Z</time>
      </trkpt>
      <trkpt lat="45.63158" lon="6.70048">
        <ele>2188</ele>
        <time>2020-01-15T13:37:51.000Z</time>
      </trkpt>
      <trkpt lat="45.63159" lon="6.70045">
        <ele>2188.3999023438</ele>
        <time>2020-01-15T13:37:55.000Z</time>
      </trkpt>
      <trkpt lat="45.63161" lon="6.70041">
        <ele>2189.1999511719</ele>
        <time>2020-01-15T13:37:59.000Z</time>
      </trkpt>
      <trkpt lat="45.63162" lon="6.7004">
        <ele>2189.1999511719</ele>
        <time>2020-01-15T13:38:00.000Z</time>
      </trkpt>
      <trkpt lat="45.63164" lon="6.70036">
        <ele>2190</ele>
        <time>2020-01-15T13:38:05.000Z</time>
      </trkpt>
      <trkpt lat="45.63164" lon="6.70035">
        <ele>2190.1999511719</ele>
        <time>2020-01-15T13:38:06.000Z</time>
      </trkpt>
      <trkpt lat="45.63164" lon="6.70033">
        <ele>2191.1999511719</ele>
        <time>2020-01-15T13:38:10.000Z</time>
      </trkpt>
      <trkpt lat="45.63164" lon="6.70032">
        <ele>2191.3999023438</ele>
        <time>2020-01-15T13:38:11.000Z</time>
      </trkpt>
      <trkpt lat="45.63164" lon="6.70032">
        <ele>2192</ele>
        <time>2020-01-15T13:38:18.000Z</time>
      </trkpt>
      <trkpt lat="45.63165" lon="6.70031">
        <ele>2192.6000976562</ele>
        <time>2020-01-15T13:38:22.000Z</time>
      </trkpt>
      <trkpt lat="45.63165" lon="6.7003">
        <ele>2192.6000976562</ele>
        <time>2020-01-15T13:38:23.000Z</time>
      </trkpt>
      <trkpt lat="45.63165" lon="6.70028">
        <ele>2192.6000976562</ele>
        <time>2020-01-15T13:38:28.000Z</time>
      </trkpt>
      <trkpt lat="45.63166" lon="6.70025">
        <ele>2193.8000488281</ele>
        <time>2020-01-15T13:38:35.000Z</time>
      </trkpt>
      <trkpt lat="45.63168" lon="6.70018">
        <ele>2193.8000488281</ele>
        <time>2020-01-15T13:38:40.000Z</time>
      </trkpt>
      <trkpt lat="45.63171" lon="6.70009">
        <ele>2194.6000976562</ele>
        <time>2020-01-15T13:38:46.000Z</time>
      </trkpt>
      <trkpt lat="45.63173" lon="6.70005">
        <ele>2194.8000488281</ele>
        <time>2020-01-15T13:38:49.000Z</time>
      </trkpt>
      <trkpt lat="45.63174" lon="6.70003">
        <ele>2195</ele>
        <time>2020-01-15T13:38:51.000Z</time>
      </trkpt>
      <trkpt lat="45.63176" lon="6.69996">
        <ele>2195.3999023438</ele>
        <time>2020-01-15T13:38:56.000Z</time>
      </trkpt>
      <trkpt lat="45.63178" lon="6.6999">
        <ele>2195.6000976562</ele>
        <time>2020-01-15T13:39:01.000Z</time>
      </trkpt>
      <trkpt lat="45.63178" lon="6.69988">
        <ele>2195.8000488281</ele>
        <time>2020-01-15T13:39:03.000Z</time>
      </trkpt>
      <trkpt lat="45.6318" lon="6.69983">
        <ele>2196.3999023438</ele>
        <time>2020-01-15T13:39:07.000Z</time>
      </trkpt>
      <trkpt lat="45.63181" lon="6.69979">
        <ele>2197</ele>
        <time>2020-01-15T13:39:10.000Z</time>
      </trkpt>
      <trkpt lat="45.6318" lon="6.69975">
        <ele>2197.6000976562</ele>
        <time>2020-01-15T13:39:13.000Z</time>
      </trkpt>
      <trkpt lat="45.6318" lon="6.69971">
        <ele>2198</ele>
        <time>2020-01-15T13:39:16.000Z</time>
      </trkpt>
      <trkpt lat="45.6318" lon="6.69967">
        <ele>2198.1999511719</ele>
        <time>2020-01-15T13:39:18.000Z</time>
      </trkpt>
      <trkpt lat="45.63181" lon="6.6996">
        <ele>2198.6000976562</ele>
        <time>2020-01-15T13:39:24.000Z</time>
      </trkpt>
      <trkpt lat="45.63182" lon="6.69956">
        <ele>2199.1999511719</ele>
        <time>2020-01-15T13:39:26.000Z</time>
      </trkpt>
      <trkpt lat="45.63183" lon="6.69951">
        <ele>2199.6000976562</ele>
        <time>2020-01-15T13:39:29.000Z</time>
      </trkpt>
      <trkpt lat="45.63182" lon="6.69944">
        <ele>2200.3999023438</ele>
        <time>2020-01-15T13:39:34.000Z</time>
      </trkpt>
      <trkpt lat="45.63182" lon="6.69937">
        <ele>2201</ele>
        <time>2020-01-15T13:39:40.000Z</time>
      </trkpt>
      <trkpt lat="45.63182" lon="6.69935">
        <ele>2201.3999023438</ele>
        <time>2020-01-15T13:39:42.000Z</time>
      </trkpt>
      <trkpt lat="45.63185" lon="6.69929">
        <ele>2202</ele>
        <time>2020-01-15T13:39:47.000Z</time>
      </trkpt>
      <trkpt lat="45.63186" lon="6.69923">
        <ele>2202.3999023438</ele>
        <time>2020-01-15T13:39:52.000Z</time>
      </trkpt>
      <trkpt lat="45.63186" lon="6.69921">
        <ele>2202.6000976562</ele>
        <time>2020-01-15T13:39:54.000Z</time>
      </trkpt>
      <trkpt lat="45.63187" lon="6.69915">
        <ele>2203.3999023438</ele>
        <time>2020-01-15T13:39:58.000Z</time>
      </trkpt>
      <trkpt lat="45.63187" lon="6.69913">
        <ele>2203.8000488281</ele>
        <time>2020-01-15T13:40:00.000Z</time>
      </trkpt>
      <trkpt lat="45.63187" lon="6.69907">
        <ele>2204</ele>
        <time>2020-01-15T13:40:05.000Z</time>
      </trkpt>
      <trkpt lat="45.63188" lon="6.69901">
        <ele>2204.6000976562</ele>
        <time>2020-01-15T13:40:09.000Z</time>
      </trkpt>
      <trkpt lat="45.63187" lon="6.69899">
        <ele>2204.6000976562</ele>
        <time>2020-01-15T13:40:11.000Z</time>
      </trkpt>
      <trkpt lat="45.63186" lon="6.69894">
        <ele>2205.1999511719</ele>
        <time>2020-01-15T13:40:16.000Z</time>
      </trkpt>
      <trkpt lat="45.63187" lon="6.69891">
        <ele>2205.6000976562</ele>
        <time>2020-01-15T13:40:19.000Z</time>
      </trkpt>
      <trkpt lat="45.63186" lon="6.69887">
        <ele>2206.1999511719</ele>
        <time>2020-01-15T13:40:23.000Z</time>
      </trkpt>
      <trkpt lat="45.63187" lon="6.69881">
        <ele>2206.8000488281</ele>
        <time>2020-01-15T13:40:28.000Z</time>
      </trkpt>
      <trkpt lat="45.63187" lon="6.6988">
        <ele>2206.8000488281</ele>
        <time>2020-01-15T13:40:29.000Z</time>
      </trkpt>
      <trkpt lat="45.63187" lon="6.69875">
        <ele>2207.8000488281</ele>
        <time>2020-01-15T13:40:34.000Z</time>
      </trkpt>
      <trkpt lat="45.63188" lon="6.69869">
        <ele>2208.6000976562</ele>
        <time>2020-01-15T13:40:39.000Z</time>
      </trkpt>
      <trkpt lat="45.63189" lon="6.69867">
        <ele>2208.8000488281</ele>
        <time>2020-01-15T13:40:41.000Z</time>
      </trkpt>
      <trkpt lat="45.6319" lon="6.69863">
        <ele>2209.1999511719</ele>
        <time>2020-01-15T13:40:44.000Z</time>
      </trkpt>
      <trkpt lat="45.63191" lon="6.69857">
        <ele>2209.3999023438</ele>
        <time>2020-01-15T13:40:49.000Z</time>
      </trkpt>
      <trkpt lat="45.63192" lon="6.69851">
        <ele>2209.8000488281</ele>
        <time>2020-01-15T13:40:54.000Z</time>
      </trkpt>
      <trkpt lat="45.63192" lon="6.69849">
        <ele>2210</ele>
        <time>2020-01-15T13:40:55.000Z</time>
      </trkpt>
      <trkpt lat="45.63191" lon="6.69844">
        <ele>2210.6000976562</ele>
        <time>2020-01-15T13:41:00.000Z</time>
      </trkpt>
      <trkpt lat="45.63192" lon="6.69842">
        <ele>2211</ele>
        <time>2020-01-15T13:41:02.000Z</time>
      </trkpt>
      <trkpt lat="45.63193" lon="6.69838">
        <ele>2211.3999023438</ele>
        <time>2020-01-15T13:41:06.000Z</time>
      </trkpt>
      <trkpt lat="45.63193" lon="6.69831">
        <ele>2211.8000488281</ele>
        <time>2020-01-15T13:41:11.000Z</time>
      </trkpt>
      <trkpt lat="45.63193" lon="6.6983">
        <ele>2212</ele>
        <time>2020-01-15T13:41:12.000Z</time>
      </trkpt>
      <trkpt lat="45.63195" lon="6.69825">
        <ele>2212.8000488281</ele>
        <time>2020-01-15T13:41:17.000Z</time>
      </trkpt>
      <trkpt lat="45.63195" lon="6.6982">
        <ele>2213</ele>
        <time>2020-01-15T13:41:21.000Z</time>
      </trkpt>
      <trkpt lat="45.63194" lon="6.69818">
        <ele>2213.1999511719</ele>
        <time>2020-01-15T13:41:23.000Z</time>
      </trkpt>
      <trkpt lat="45.63196" lon="6.69813">
        <ele>2213.8000488281</ele>
        <time>2020-01-15T13:41:28.000Z</time>
      </trkpt>
      <trkpt lat="45.63196" lon="6.69811">
        <ele>2214.1999511719</ele>
        <time>2020-01-15T13:41:30.000Z</time>
      </trkpt>
      <trkpt lat="45.63197" lon="6.69806">
        <ele>2214.8000488281</ele>
        <time>2020-01-15T13:41:35.000Z</time>
      </trkpt>
      <trkpt lat="45.63197" lon="6.69803">
        <ele>2215.1999511719</ele>
        <time>2020-01-15T13:41:39.000Z</time>
      </trkpt>
      <trkpt lat="45.63198" lon="6.69799">
        <ele>2215.3999023438</ele>
        <time>2020-01-15T13:41:42.000Z</time>
      </trkpt>
      <trkpt lat="45.63198" lon="6.69794">
        <ele>2216.1999511719</ele>
        <time>2020-01-15T13:41:48.000Z</time>
      </trkpt>
      <trkpt lat="45.63198" lon="6.69793">
        <ele>2216.1999511719</ele>
        <time>2020-01-15T13:41:49.000Z</time>
      </trkpt>
      <trkpt lat="45.63199" lon="6.69785">
        <ele>2217.1999511719</ele>
        <time>2020-01-15T13:41:54.000Z</time>
      </trkpt>
      <trkpt lat="45.63199" lon="6.69784">
        <ele>2217.3999023438</ele>
        <time>2020-01-15T13:41:55.000Z</time>
      </trkpt>
      <trkpt lat="45.632" lon="6.6978">
        <ele>2218.1999511719</ele>
        <time>2020-01-15T13:42:00.000Z</time>
      </trkpt>
      <trkpt lat="45.63201" lon="6.69776">
        <ele>2218.3999023438</ele>
        <time>2020-01-15T13:42:04.000Z</time>
      </trkpt>
      <trkpt lat="45.63201" lon="6.69773">
        <ele>2218.6000976562</ele>
        <time>2020-01-15T13:42:06.000Z</time>
      </trkpt>
      <trkpt lat="45.63202" lon="6.69767">
        <ele>2219.6000976562</ele>
        <time>2020-01-15T13:42:12.000Z</time>
      </trkpt>
      <trkpt lat="45.63203" lon="6.69761">
        <ele>2220.3999023438</ele>
        <time>2020-01-15T13:42:18.000Z</time>
      </trkpt>
      <trkpt lat="45.63204" lon="6.69759">
        <ele>2220.6000976562</ele>
        <time>2020-01-15T13:42:20.000Z</time>
      </trkpt>
      <trkpt lat="45.63205" lon="6.69755">
        <ele>2220.8000488281</ele>
        <time>2020-01-15T13:42:24.000Z</time>
      </trkpt>
      <trkpt lat="45.63205" lon="6.69749">
        <ele>2221.6000976562</ele>
        <time>2020-01-15T13:42:30.000Z</time>
      </trkpt>
      <trkpt lat="45.63207" lon="6.69743">
        <ele>2222.1999511719</ele>
        <time>2020-01-15T13:42:35.000Z</time>
      </trkpt>
      <trkpt lat="45.63207" lon="6.6974">
        <ele>2223</ele>
        <time>2020-01-15T13:42:38.000Z</time>
      </trkpt>
      <trkpt lat="45.63208" lon="6.69737">
        <ele>2223.1999511719</ele>
        <time>2020-01-15T13:42:40.000Z</time>
      </trkpt>
      <trkpt lat="45.63209" lon="6.69734">
        <ele>2223.3999023438</ele>
        <time>2020-01-15T13:42:43.000Z</time>
      </trkpt>
      <trkpt lat="45.63209" lon="6.69733">
        <ele>2223.6000976562</ele>
        <time>2020-01-15T13:42:45.000Z</time>
      </trkpt>
      <trkpt lat="45.6321" lon="6.69731">
        <ele>2224</ele>
        <time>2020-01-15T13:42:47.000Z</time>
      </trkpt>
      <trkpt lat="45.63211" lon="6.69728">
        <ele>2224.6000976562</ele>
        <time>2020-01-15T13:42:50.000Z</time>
      </trkpt>
      <trkpt lat="45.63213" lon="6.69725">
        <ele>2225.1999511719</ele>
        <time>2020-01-15T13:42:54.000Z</time>
      </trkpt>
      <trkpt lat="45.63214" lon="6.69724">
        <ele>2225.3999023438</ele>
        <time>2020-01-15T13:42:55.000Z</time>
      </trkpt>
      <trkpt lat="45.63217" lon="6.69719">
        <ele>2226.3999023438</ele>
        <time>2020-01-15T13:43:00.000Z</time>
      </trkpt>
      <trkpt lat="45.63218" lon="6.69714">
        <ele>2227.1999511719</ele>
        <time>2020-01-15T13:43:05.000Z</time>
      </trkpt>
      <trkpt lat="45.63219" lon="6.69712">
        <ele>2227.3999023438</ele>
        <time>2020-01-15T13:43:08.000Z</time>
      </trkpt>
      <trkpt lat="45.63219" lon="6.69711">
        <ele>2227.6000976562</ele>
        <time>2020-01-15T13:43:09.000Z</time>
      </trkpt>
      <trkpt lat="45.6322" lon="6.6971">
        <ele>2227.8000488281</ele>
        <time>2020-01-15T13:43:10.000Z</time>
      </trkpt>
      <trkpt lat="45.63222" lon="6.69705">
        <ele>2228.6000976562</ele>
        <time>2020-01-15T13:43:15.000Z</time>
      </trkpt>
      <trkpt lat="45.63223" lon="6.69701">
        <ele>2229.6000976562</ele>
        <time>2020-01-15T13:43:20.000Z</time>
      </trkpt>
      <trkpt lat="45.63223" lon="6.69701">
        <ele>2229.8000488281</ele>
        <time>2020-01-15T13:43:21.000Z</time>
      </trkpt>
      <trkpt lat="45.63223" lon="6.69701">
        <ele>2230.6000976562</ele>
        <time>2020-01-15T13:43:32.000Z</time>
      </trkpt>
      <trkpt lat="45.63223" lon="6.69701">
        <ele>2230.3999023438</ele>
        <time>2020-01-15T13:43:45.000Z</time>
      </trkpt>
      <trkpt lat="45.63224" lon="6.69698">
        <ele>2230.6000976562</ele>
        <time>2020-01-15T13:43:53.000Z</time>
      </trkpt>
      <trkpt lat="45.63225" lon="6.69692">
        <ele>2230.8000488281</ele>
        <time>2020-01-15T13:43:58.000Z</time>
      </trkpt>
      <trkpt lat="45.63225" lon="6.6969">
        <ele>2230.8000488281</ele>
        <time>2020-01-15T13:43:59.000Z</time>
      </trkpt>
      <trkpt lat="45.63226" lon="6.69683">
        <ele>2231.3999023438</ele>
        <time>2020-01-15T13:44:04.000Z</time>
      </trkpt>
      <trkpt lat="45.63226" lon="6.69681">
        <ele>2231.8000488281</ele>
        <time>2020-01-15T13:44:06.000Z</time>
      </trkpt>
      <trkpt lat="45.63226" lon="6.69678">
        <ele>2232.3999023438</ele>
        <time>2020-01-15T13:44:09.000Z</time>
      </trkpt>
      <trkpt lat="45.63227" lon="6.69674">
        <ele>2232.8000488281</ele>
        <time>2020-01-15T13:44:13.000Z</time>
      </trkpt>
      <trkpt lat="45.63227" lon="6.69672">
        <ele>2233.1999511719</ele>
        <time>2020-01-15T13:44:15.000Z</time>
      </trkpt>
      <trkpt lat="45.63228" lon="6.69669">
        <ele>2234</ele>
        <time>2020-01-15T13:44:19.000Z</time>
      </trkpt>
      <trkpt lat="45.63229" lon="6.69666">
        <ele>2234.3999023438</ele>
        <time>2020-01-15T13:44:22.000Z</time>
      </trkpt>
      <trkpt lat="45.6323" lon="6.69662">
        <ele>2235</ele>
        <time>2020-01-15T13:44:25.000Z</time>
      </trkpt>
      <trkpt lat="45.6323" lon="6.69659">
        <ele>2235.6000976562</ele>
        <time>2020-01-15T13:44:29.000Z</time>
      </trkpt>
      <trkpt lat="45.63231" lon="6.69655">
        <ele>2236</ele>
        <time>2020-01-15T13:44:33.000Z</time>
      </trkpt>
      <trkpt lat="45.63232" lon="6.69653">
        <ele>2236.1999511719</ele>
        <time>2020-01-15T13:44:35.000Z</time>
      </trkpt>
      <trkpt lat="45.63233" lon="6.69648">
        <ele>2237.1999511719</ele>
        <time>2020-01-15T13:44:39.000Z</time>
      </trkpt>
      <trkpt lat="45.63234" lon="6.69645">
        <ele>2237.3999023438</ele>
        <time>2020-01-15T13:44:42.000Z</time>
      </trkpt>
      <trkpt lat="45.63235" lon="6.69641">
        <ele>2238.1999511719</ele>
        <time>2020-01-15T13:44:47.000Z</time>
      </trkpt>
      <trkpt lat="45.63235" lon="6.69639">
        <ele>2238.3999023438</ele>
        <time>2020-01-15T13:44:48.000Z</time>
      </trkpt>
      <trkpt lat="45.63236" lon="6.69635">
        <ele>2239.1999511719</ele>
        <time>2020-01-15T13:44:52.000Z</time>
      </trkpt>
      <trkpt lat="45.63236" lon="6.69634">
        <ele>2239.6000976562</ele>
        <time>2020-01-15T13:44:54.000Z</time>
      </trkpt>
      <trkpt lat="45.63238" lon="6.69629">
        <ele>2240.3999023438</ele>
        <time>2020-01-15T13:44:59.000Z</time>
      </trkpt>
      <trkpt lat="45.63239" lon="6.69625">
        <ele>2241.3999023438</ele>
        <time>2020-01-15T13:45:04.000Z</time>
      </trkpt>
      <trkpt lat="45.63241" lon="6.69621">
        <ele>2242.3999023438</ele>
        <time>2020-01-15T13:45:09.000Z</time>
      </trkpt>
      <trkpt lat="45.63241" lon="6.6962">
        <ele>2242.3999023438</ele>
        <time>2020-01-15T13:45:10.000Z</time>
      </trkpt>
      <trkpt lat="45.63243" lon="6.69615">
        <ele>2243.3999023438</ele>
        <time>2020-01-15T13:45:16.000Z</time>
      </trkpt>
      <trkpt lat="45.63243" lon="6.69614">
        <ele>2243.6000976562</ele>
        <time>2020-01-15T13:45:17.000Z</time>
      </trkpt>
      <trkpt lat="45.63244" lon="6.69611">
        <ele>2244.1999511719</ele>
        <time>2020-01-15T13:45:21.000Z</time>
      </trkpt>
      <trkpt lat="45.63244" lon="6.69609">
        <ele>2244.6000976562</ele>
        <time>2020-01-15T13:45:24.000Z</time>
      </trkpt>
      <trkpt lat="45.63246" lon="6.69606">
        <ele>2245.1999511719</ele>
        <time>2020-01-15T13:45:27.000Z</time>
      </trkpt>
      <trkpt lat="45.63246" lon="6.69603">
        <ele>2245.8000488281</ele>
        <time>2020-01-15T13:45:30.000Z</time>
      </trkpt>
      <trkpt lat="45.63246" lon="6.69603">
        <ele>2245.8000488281</ele>
        <time>2020-01-15T13:45:31.000Z</time>
      </trkpt>
      <trkpt lat="45.63247" lon="6.69599">
        <ele>2246.3999023438</ele>
        <time>2020-01-15T13:45:36.000Z</time>
      </trkpt>
      <trkpt lat="45.63248" lon="6.69598">
        <ele>2246.8000488281</ele>
        <time>2020-01-15T13:45:38.000Z</time>
      </trkpt>
      <trkpt lat="45.63248" lon="6.69596">
        <ele>2247.3999023438</ele>
        <time>2020-01-15T13:45:42.000Z</time>
      </trkpt>
      <trkpt lat="45.63246" lon="6.69595">
        <ele>2247.8000488281</ele>
        <time>2020-01-15T13:45:46.000Z</time>
      </trkpt>
      <trkpt lat="45.63245" lon="6.69593">
        <ele>2248.6000976562</ele>
        <time>2020-01-15T13:45:49.000Z</time>
      </trkpt>
      <trkpt lat="45.63245" lon="6.69593">
        <ele>2249</ele>
        <time>2020-01-15T13:45:50.000Z</time>
      </trkpt>
      <trkpt lat="45.63245" lon="6.69593">
        <ele>2249.3999023438</ele>
        <time>2020-01-15T13:46:05.000Z</time>
      </trkpt>
      <trkpt lat="45.63245" lon="6.69593">
        <ele>2249.3999023438</ele>
        <time>2020-01-15T13:46:19.000Z</time>
      </trkpt>
      <trkpt lat="45.63239" lon="6.69593">
        <ele>2250.1999511719</ele>
        <time>2020-01-15T13:46:25.000Z</time>
      </trkpt>
      <trkpt lat="45.63231" lon="6.69593">
        <ele>2251.1999511719</ele>
        <time>2020-01-15T13:46:32.000Z</time>
      </trkpt>
      <trkpt lat="45.63226" lon="6.69593">
        <ele>2252.1999511719</ele>
        <time>2020-01-15T13:46:39.000Z</time>
      </trkpt>
      <trkpt lat="45.63224" lon="6.69593">
        <ele>2252.6000976562</ele>
        <time>2020-01-15T13:46:41.000Z</time>
      </trkpt>
      <trkpt lat="45.6322" lon="6.69594">
        <ele>2253.3999023438</ele>
        <time>2020-01-15T13:46:46.000Z</time>
      </trkpt>
      <trkpt lat="45.63218" lon="6.69595">
        <ele>2254.1999511719</ele>
        <time>2020-01-15T13:46:50.000Z</time>
      </trkpt>
      <trkpt lat="45.63217" lon="6.69595">
        <ele>2254.3999023438</ele>
        <time>2020-01-15T13:46:52.000Z</time>
      </trkpt>
      <trkpt lat="45.63212" lon="6.69595">
        <ele>2255.1999511719</ele>
        <time>2020-01-15T13:46:58.000Z</time>
      </trkpt>
      <trkpt lat="45.63212" lon="6.69595">
        <ele>2255.6000976562</ele>
        <time>2020-01-15T13:47:02.000Z</time>
      </trkpt>
      <trkpt lat="45.63212" lon="6.69595">
        <ele>2256</ele>
        <time>2020-01-15T13:47:14.000Z</time>
      </trkpt>
      <trkpt lat="45.63212" lon="6.69595">
        <ele>2256.1999511719</ele>
        <time>2020-01-15T13:47:19.000Z</time>
      </trkpt>
      <trkpt lat="45.63213" lon="6.69595">
        <ele>2255.8000488281</ele>
        <time>2020-01-15T13:47:31.000Z</time>
      </trkpt>
      <trkpt lat="45.63213" lon="6.69595">
        <ele>2256.6000976562</ele>
        <time>2020-01-15T13:47:34.000Z</time>
      </trkpt>
      <trkpt lat="45.63213" lon="6.69595">
        <ele>2256.6000976562</ele>
        <time>2020-01-15T13:47:39.000Z</time>
      </trkpt>
      <trkpt lat="45.63216" lon="6.69593">
        <ele>2256.6000976562</ele>
        <time>2020-01-15T13:47:45.000Z</time>
      </trkpt>
      <trkpt lat="45.63218" lon="6.69589">
        <ele>2257.3999023438</ele>
        <time>2020-01-15T13:47:50.000Z</time>
      </trkpt>
      <trkpt lat="45.63218" lon="6.69587">
        <ele>2257.6000976562</ele>
        <time>2020-01-15T13:47:51.000Z</time>
      </trkpt>
      <trkpt lat="45.6322" lon="6.69584">
        <ele>2258.6000976562</ele>
        <time>2020-01-15T13:47:55.000Z</time>
      </trkpt>
      <trkpt lat="45.6322" lon="6.69584">
        <ele>2258.8000488281</ele>
        <time>2020-01-15T13:47:56.000Z</time>
      </trkpt>
      <trkpt lat="45.63222" lon="6.6958">
        <ele>2259.6000976562</ele>
        <time>2020-01-15T13:48:00.000Z</time>
      </trkpt>
      <trkpt lat="45.63225" lon="6.69577">
        <ele>2259.8000488281</ele>
        <time>2020-01-15T13:48:03.000Z</time>
      </trkpt>
      <trkpt lat="45.63226" lon="6.69574">
        <ele>2260.3999023438</ele>
        <time>2020-01-15T13:48:06.000Z</time>
      </trkpt>
      <trkpt lat="45.63228" lon="6.6957">
        <ele>2261</ele>
        <time>2020-01-15T13:48:10.000Z</time>
      </trkpt>
      <trkpt lat="45.63229" lon="6.69567">
        <ele>2261.3999023438</ele>
        <time>2020-01-15T13:48:12.000Z</time>
      </trkpt>
      <trkpt lat="45.6323" lon="6.69563">
        <ele>2262.1999511719</ele>
        <time>2020-01-15T13:48:17.000Z</time>
      </trkpt>
      <trkpt lat="45.63232" lon="6.69558">
        <ele>2263.1999511719</ele>
        <time>2020-01-15T13:48:22.000Z</time>
      </trkpt>
      <trkpt lat="45.63233" lon="6.69554">
        <ele>2263.8000488281</ele>
        <time>2020-01-15T13:48:27.000Z</time>
      </trkpt>
      <trkpt lat="45.63236" lon="6.69552">
        <ele>2264.3999023438</ele>
        <time>2020-01-15T13:48:30.000Z</time>
      </trkpt>
      <trkpt lat="45.63236" lon="6.69548">
        <ele>2265.1999511719</ele>
        <time>2020-01-15T13:48:34.000Z</time>
      </trkpt>
      <trkpt lat="45.63236" lon="6.69546">
        <ele>2265.3999023438</ele>
        <time>2020-01-15T13:48:35.000Z</time>
      </trkpt>
      <trkpt lat="45.63239" lon="6.69541">
        <ele>2266.3999023438</ele>
        <time>2020-01-15T13:48:40.000Z</time>
      </trkpt>
      <trkpt lat="45.63239" lon="6.6954">
        <ele>2266.3999023438</ele>
        <time>2020-01-15T13:48:41.000Z</time>
      </trkpt>
      <trkpt lat="45.6324" lon="6.69535">
        <ele>2267</ele>
        <time>2020-01-15T13:48:46.000Z</time>
      </trkpt>
      <trkpt lat="45.6324" lon="6.69533">
        <ele>2267.3999023438</ele>
        <time>2020-01-15T13:48:49.000Z</time>
      </trkpt>
      <trkpt lat="45.6324" lon="6.69531">
        <ele>2268</ele>
        <time>2020-01-15T13:48:51.000Z</time>
      </trkpt>
      <trkpt lat="45.63241" lon="6.69528">
        <ele>2268.6000976562</ele>
        <time>2020-01-15T13:48:54.000Z</time>
      </trkpt>
      <trkpt lat="45.63242" lon="6.69525">
        <ele>2269</ele>
        <time>2020-01-15T13:48:57.000Z</time>
      </trkpt>
      <trkpt lat="45.63242" lon="6.69521">
        <ele>2269.6000976562</ele>
        <time>2020-01-15T13:49:01.000Z</time>
      </trkpt>
      <trkpt lat="45.63242" lon="6.6952">
        <ele>2270</ele>
        <time>2020-01-15T13:49:02.000Z</time>
      </trkpt>
      <trkpt lat="45.63242" lon="6.69515">
        <ele>2270.8000488281</ele>
        <time>2020-01-15T13:49:07.000Z</time>
      </trkpt>
      <trkpt lat="45.63242" lon="6.69514">
        <ele>2271</ele>
        <time>2020-01-15T13:49:08.000Z</time>
      </trkpt>
      <trkpt lat="45.63244" lon="6.6951">
        <ele>2271.8000488281</ele>
        <time>2020-01-15T13:49:14.000Z</time>
      </trkpt>
      <trkpt lat="45.63243" lon="6.69507">
        <ele>2272.8000488281</ele>
        <time>2020-01-15T13:49:19.000Z</time>
      </trkpt>
      <trkpt lat="45.63243" lon="6.69507">
        <ele>2273</ele>
        <time>2020-01-15T13:49:20.000Z</time>
      </trkpt>
      <trkpt lat="45.63239" lon="6.69508">
        <ele>2273.1999511719</ele>
        <time>2020-01-15T13:49:26.000Z</time>
      </trkpt>
      <trkpt lat="45.63234" lon="6.69509">
        <ele>2274</ele>
        <time>2020-01-15T13:49:31.000Z</time>
      </trkpt>
      <trkpt lat="45.63232" lon="6.6951">
        <ele>2274.3999023438</ele>
        <time>2020-01-15T13:49:33.000Z</time>
      </trkpt>
      <trkpt lat="45.63228" lon="6.69513">
        <ele>2275.1999511719</ele>
        <time>2020-01-15T13:49:39.000Z</time>
      </trkpt>
      <trkpt lat="45.63224" lon="6.69515">
        <ele>2276</ele>
        <time>2020-01-15T13:49:45.000Z</time>
      </trkpt>
      <trkpt lat="45.63222" lon="6.69515">
        <ele>2276.3999023438</ele>
        <time>2020-01-15T13:49:47.000Z</time>
      </trkpt>
      <trkpt lat="45.6322" lon="6.69517">
        <ele>2277.3999023438</ele>
        <time>2020-01-15T13:49:52.000Z</time>
      </trkpt>
      <trkpt lat="45.63219" lon="6.69518">
        <ele>2278</ele>
        <time>2020-01-15T13:49:56.000Z</time>
      </trkpt>
      <trkpt lat="45.63217" lon="6.69519">
        <ele>2278.1999511719</ele>
        <time>2020-01-15T13:50:03.000Z</time>
      </trkpt>
      <trkpt lat="45.63213" lon="6.69521">
        <ele>2278.6000976562</ele>
        <time>2020-01-15T13:50:07.000Z</time>
      </trkpt>
      <trkpt lat="45.63212" lon="6.69522">
        <ele>2278.8000488281</ele>
        <time>2020-01-15T13:50:09.000Z</time>
      </trkpt>
      <trkpt lat="45.6321" lon="6.69527">
        <ele>2279.6000976562</ele>
        <time>2020-01-15T13:50:14.000Z</time>
      </trkpt>
      <trkpt lat="45.63209" lon="6.69527">
        <ele>2279.8000488281</ele>
        <time>2020-01-15T13:50:15.000Z</time>
      </trkpt>
      <trkpt lat="45.63204" lon="6.6953">
        <ele>2280.3999023438</ele>
        <time>2020-01-15T13:50:21.000Z</time>
      </trkpt>
      <trkpt lat="45.63202" lon="6.69532">
        <ele>2280.8000488281</ele>
        <time>2020-01-15T13:50:23.000Z</time>
      </trkpt>
      <trkpt lat="45.63201" lon="6.69534">
        <ele>2281.3999023438</ele>
        <time>2020-01-15T13:50:26.000Z</time>
      </trkpt>
      <trkpt lat="45.63198" lon="6.69535">
        <ele>2282</ele>
        <time>2020-01-15T13:50:30.000Z</time>
      </trkpt>
      <trkpt lat="45.63197" lon="6.69535">
        <ele>2282</ele>
        <time>2020-01-15T13:50:31.000Z</time>
      </trkpt>
      <trkpt lat="45.63196" lon="6.69538">
        <ele>2283</ele>
        <time>2020-01-15T13:50:36.000Z</time>
      </trkpt>
      <trkpt lat="45.63196" lon="6.69539">
        <ele>2284</ele>
        <time>2020-01-15T13:50:42.000Z</time>
      </trkpt>
      <trkpt lat="45.63196" lon="6.69539">
        <ele>2284.1999511719</ele>
        <time>2020-01-15T13:50:44.000Z</time>
      </trkpt>
      <trkpt lat="45.63195" lon="6.69539">
        <ele>2284</ele>
        <time>2020-01-15T13:50:53.000Z</time>
      </trkpt>
      <trkpt lat="45.63192" lon="6.69541">
        <ele>2284.6000976562</ele>
        <time>2020-01-15T13:50:59.000Z</time>
      </trkpt>
      <trkpt lat="45.6319" lon="6.69542">
        <ele>2285.1999511719</ele>
        <time>2020-01-15T13:51:02.000Z</time>
      </trkpt>
      <trkpt lat="45.6319" lon="6.69542">
        <ele>2284.8000488281</ele>
        <time>2020-01-15T13:51:05.000Z</time>
      </trkpt>
      <trkpt lat="45.63192" lon="6.69539">
        <ele>2286</ele>
        <time>2020-01-15T13:51:11.000Z</time>
      </trkpt>
      <trkpt lat="45.63193" lon="6.69539">
        <ele>2286.1999511719</ele>
        <time>2020-01-15T13:51:12.000Z</time>
      </trkpt>
      <trkpt lat="45.63197" lon="6.69536">
        <ele>2286.3999023438</ele>
        <time>2020-01-15T13:51:17.000Z</time>
      </trkpt>
      <trkpt lat="45.63199" lon="6.69531">
        <ele>2287.1999511719</ele>
        <time>2020-01-15T13:51:22.000Z</time>
      </trkpt>
      <trkpt lat="45.63199" lon="6.69527">
        <ele>2288.3999023438</ele>
        <time>2020-01-15T13:51:27.000Z</time>
      </trkpt>
      <trkpt lat="45.63201" lon="6.69521">
        <ele>2289.1999511719</ele>
        <time>2020-01-15T13:51:32.000Z</time>
      </trkpt>
      <trkpt lat="45.63201" lon="6.6952">
        <ele>2289.3999023438</ele>
        <time>2020-01-15T13:51:33.000Z</time>
      </trkpt>
      <trkpt lat="45.63203" lon="6.69517">
        <ele>2290</ele>
        <time>2020-01-15T13:51:38.000Z</time>
      </trkpt>
      <trkpt lat="45.63204" lon="6.69516">
        <ele>2290.3999023438</ele>
        <time>2020-01-15T13:51:40.000Z</time>
      </trkpt>
      <trkpt lat="45.63204" lon="6.69516">
        <ele>2291</ele>
        <time>2020-01-15T13:51:47.000Z</time>
      </trkpt>
      <trkpt lat="45.63205" lon="6.6951">
        <ele>2291.1999511719</ele>
        <time>2020-01-15T13:51:53.000Z</time>
      </trkpt>
      <trkpt lat="45.63205" lon="6.69506">
        <ele>2291.6000976562</ele>
        <time>2020-01-15T13:51:55.000Z</time>
      </trkpt>
      <trkpt lat="45.63207" lon="6.69503">
        <ele>2292.1999511719</ele>
        <time>2020-01-15T13:51:59.000Z</time>
      </trkpt>
      <trkpt lat="45.63208" lon="6.695">
        <ele>2292.6000976562</ele>
        <time>2020-01-15T13:52:03.000Z</time>
      </trkpt>
      <trkpt lat="45.63206" lon="6.69495">
        <ele>2293.1999511719</ele>
        <time>2020-01-15T13:52:07.000Z</time>
      </trkpt>
      <trkpt lat="45.63205" lon="6.69492">
        <ele>2293.8000488281</ele>
        <time>2020-01-15T13:52:12.000Z</time>
      </trkpt>
      <trkpt lat="45.63207" lon="6.6949">
        <ele>2294.1999511719</ele>
        <time>2020-01-15T13:52:14.000Z</time>
      </trkpt>
      <trkpt lat="45.63208" lon="6.69486">
        <ele>2295</ele>
        <time>2020-01-15T13:52:17.000Z</time>
      </trkpt>
      <trkpt lat="45.63207" lon="6.69483">
        <ele>2295.3999023438</ele>
        <time>2020-01-15T13:52:20.000Z</time>
      </trkpt>
      <trkpt lat="45.63209" lon="6.69481">
        <ele>2296</ele>
        <time>2020-01-15T13:52:26.000Z</time>
      </trkpt>
      <trkpt lat="45.63209" lon="6.69481">
        <ele>2296.1999511719</ele>
        <time>2020-01-15T13:52:27.000Z</time>
      </trkpt>
      <trkpt lat="45.63209" lon="6.69481">
        <ele>2296.3999023438</ele>
        <time>2020-01-15T13:52:43.000Z</time>
      </trkpt>
      <trkpt lat="45.63209" lon="6.69481">
        <ele>2296.3999023438</ele>
        <time>2020-01-15T13:52:55.000Z</time>
      </trkpt>
      <trkpt lat="45.6321" lon="6.69477">
        <ele>2296.8000488281</ele>
        <time>2020-01-15T13:53:00.000Z</time>
      </trkpt>
      <trkpt lat="45.6321" lon="6.69474">
        <ele>2297.6000976562</ele>
        <time>2020-01-15T13:53:02.000Z</time>
      </trkpt>
      <trkpt lat="45.63212" lon="6.69467">
        <ele>2298.1999511719</ele>
        <time>2020-01-15T13:53:06.000Z</time>
      </trkpt>
      <trkpt lat="45.63211" lon="6.69465">
        <ele>2298.6000976562</ele>
        <time>2020-01-15T13:53:08.000Z</time>
      </trkpt>
      <trkpt lat="45.63212" lon="6.69463">
        <ele>2299</ele>
        <time>2020-01-15T13:53:11.000Z</time>
      </trkpt>
      <trkpt lat="45.63212" lon="6.69459">
        <ele>2299.8000488281</ele>
        <time>2020-01-15T13:53:15.000Z</time>
      </trkpt>
      <trkpt lat="45.63212" lon="6.69459">
        <ele>2300</ele>
        <time>2020-01-15T13:53:17.000Z</time>
      </trkpt>
      <trkpt lat="45.63212" lon="6.69459">
        <ele>2300.3999023438</ele>
        <time>2020-01-15T13:53:25.000Z</time>
      </trkpt>
      <trkpt lat="45.63212" lon="6.69459">
        <ele>2300.8000488281</ele>
        <time>2020-01-15T13:53:28.000Z</time>
      </trkpt>
      <trkpt lat="45.6321" lon="6.69459">
        <ele>2301</ele>
        <time>2020-01-15T13:53:34.000Z</time>
      </trkpt>
      <trkpt lat="45.63203" lon="6.6946">
        <ele>2301.3999023438</ele>
        <time>2020-01-15T13:53:40.000Z</time>
      </trkpt>
      <trkpt lat="45.63201" lon="6.69461">
        <ele>2301.8000488281</ele>
        <time>2020-01-15T13:53:43.000Z</time>
      </trkpt>
      <trkpt lat="45.63198" lon="6.69463">
        <ele>2302.1999511719</ele>
        <time>2020-01-15T13:53:46.000Z</time>
      </trkpt>
      <trkpt lat="45.63195" lon="6.69465">
        <ele>2303</ele>
        <time>2020-01-15T13:53:50.000Z</time>
      </trkpt>
      <trkpt lat="45.63195" lon="6.69466">
        <ele>2303</ele>
        <time>2020-01-15T13:53:51.000Z</time>
      </trkpt>
      <trkpt lat="45.63192" lon="6.69469">
        <ele>2303.8000488281</ele>
        <time>2020-01-15T13:53:56.000Z</time>
      </trkpt>
      <trkpt lat="45.63192" lon="6.69469">
        <ele>2304</ele>
        <time>2020-01-15T13:53:58.000Z</time>
      </trkpt>
      <trkpt lat="45.63191" lon="6.69469">
        <ele>2304.3999023438</ele>
        <time>2020-01-15T13:54:02.000Z</time>
      </trkpt>
      <trkpt lat="45.63195" lon="6.69468">
        <ele>2304.8000488281</ele>
        <time>2020-01-15T13:54:09.000Z</time>
      </trkpt>
      <trkpt lat="45.63196" lon="6.69467">
        <ele>2305.1999511719</ele>
        <time>2020-01-15T13:54:11.000Z</time>
      </trkpt>
      <trkpt lat="45.63196" lon="6.69463">
        <ele>2305.8000488281</ele>
        <time>2020-01-15T13:54:15.000Z</time>
      </trkpt>
      <trkpt lat="45.63197" lon="6.6946">
        <ele>2306.3999023438</ele>
        <time>2020-01-15T13:54:18.000Z</time>
      </trkpt>
      <trkpt lat="45.63199" lon="6.69458">
        <ele>2307</ele>
        <time>2020-01-15T13:54:22.000Z</time>
      </trkpt>
      <trkpt lat="45.63199" lon="6.69456">
        <ele>2307.3999023438</ele>
        <time>2020-01-15T13:54:24.000Z</time>
      </trkpt>
      <trkpt lat="45.632" lon="6.69454">
        <ele>2307.8000488281</ele>
        <time>2020-01-15T13:54:27.000Z</time>
      </trkpt>
      <trkpt lat="45.632" lon="6.69452">
        <ele>2308.3999023438</ele>
        <time>2020-01-15T13:54:32.000Z</time>
      </trkpt>
      <trkpt lat="45.632" lon="6.69451">
        <ele>2308.6000976562</ele>
        <time>2020-01-15T13:54:33.000Z</time>
      </trkpt>
      <trkpt lat="45.632" lon="6.69448">
        <ele>2309.1999511719</ele>
        <time>2020-01-15T13:54:38.000Z</time>
      </trkpt>
      <trkpt lat="45.632" lon="6.69448">
        <ele>2309.3999023438</ele>
        <time>2020-01-15T13:54:41.000Z</time>
      </trkpt>
      <trkpt lat="45.632" lon="6.69448">
        <ele>2309.3999023438</ele>
        <time>2020-01-15T13:54:49.000Z</time>
      </trkpt>
      <trkpt lat="45.632" lon="6.69448">
        <ele>2309.8000488281</ele>
        <time>2020-01-15T13:54:57.000Z</time>
      </trkpt>
      <trkpt lat="45.632" lon="6.69448">
        <ele>2309.8000488281</ele>
        <time>2020-01-15T13:55:08.000Z</time>
      </trkpt>
      <trkpt lat="45.632" lon="6.69448">
        <ele>2309.8000488281</ele>
        <time>2020-01-15T13:55:21.000Z</time>
      </trkpt>
      <trkpt lat="45.632" lon="6.69447">
        <ele>2309.8000488281</ele>
        <time>2020-01-15T13:55:38.000Z</time>
      </trkpt>
      <trkpt lat="45.632" lon="6.69447">
        <ele>2310.3999023438</ele>
        <time>2020-01-15T13:55:54.000Z</time>
      </trkpt>
      <trkpt lat="45.632" lon="6.69447">
        <ele>2309.3999023438</ele>
        <time>2020-01-15T13:56:09.000Z</time>
      </trkpt>
      <trkpt lat="45.632" lon="6.69447">
        <ele>2309.3999023438</ele>
        <time>2020-01-15T13:56:27.000Z</time>
      </trkpt>
      <trkpt lat="45.632" lon="6.69447">
        <ele>2309.6000976562</ele>
        <time>2020-01-15T13:56:39.000Z</time>
      </trkpt>
      <trkpt lat="45.632" lon="6.69447">
        <ele>2309.3999023438</ele>
        <time>2020-01-15T13:56:54.000Z</time>
      </trkpt>
      <trkpt lat="45.632" lon="6.69447">
        <ele>2309.8000488281</ele>
        <time>2020-01-15T13:57:06.000Z</time>
      </trkpt>
      <trkpt lat="45.632" lon="6.69447">
        <ele>2309.8000488281</ele>
        <time>2020-01-15T13:57:24.000Z</time>
      </trkpt>
      <trkpt lat="45.632" lon="6.69447">
        <ele>2309.8000488281</ele>
        <time>2020-01-15T13:57:34.000Z</time>
      </trkpt>
      <trkpt lat="45.63199" lon="6.69444">
        <ele>2310.6000976562</ele>
        <time>2020-01-15T13:57:39.000Z</time>
      </trkpt>
      <trkpt lat="45.63198" lon="6.69442">
        <ele>2310.8000488281</ele>
        <time>2020-01-15T13:57:40.000Z</time>
      </trkpt>
      <trkpt lat="45.63198" lon="6.69441">
        <ele>2311.6000976562</ele>
        <time>2020-01-15T13:57:43.000Z</time>
      </trkpt>
      <trkpt lat="45.63198" lon="6.6944">
        <ele>2312.1999511719</ele>
        <time>2020-01-15T13:57:46.000Z</time>
      </trkpt>
      <trkpt lat="45.63197" lon="6.69439">
        <ele>2312.8000488281</ele>
        <time>2020-01-15T13:57:49.000Z</time>
      </trkpt>
      <trkpt lat="45.63196" lon="6.69437">
        <ele>2314</ele>
        <time>2020-01-15T13:57:53.000Z</time>
      </trkpt>
      <trkpt lat="45.63196" lon="6.69436">
        <ele>2315</ele>
        <time>2020-01-15T13:57:59.000Z</time>
      </trkpt>
      <trkpt lat="45.63194" lon="6.69433">
        <ele>2316</ele>
        <time>2020-01-15T13:58:03.000Z</time>
      </trkpt>
      <trkpt lat="45.63195" lon="6.69433">
        <ele>2316.8000488281</ele>
        <time>2020-01-15T13:58:06.000Z</time>
      </trkpt>
      <trkpt lat="45.63195" lon="6.69433">
        <ele>2317</ele>
        <time>2020-01-15T13:58:08.000Z</time>
      </trkpt>
      <trkpt lat="45.63195" lon="6.69432">
        <ele>2318</ele>
        <time>2020-01-15T13:58:12.000Z</time>
      </trkpt>
      <trkpt lat="45.63195" lon="6.69432">
        <ele>2318.1999511719</ele>
        <time>2020-01-15T13:58:13.000Z</time>
      </trkpt>
      <trkpt lat="45.63195" lon="6.6943">
        <ele>2319.1999511719</ele>
        <time>2020-01-15T13:58:17.000Z</time>
      </trkpt>
      <trkpt lat="45.63195" lon="6.69429">
        <ele>2320</ele>
        <time>2020-01-15T13:58:23.000Z</time>
      </trkpt>
      <trkpt lat="45.63195" lon="6.69429">
        <ele>2320.3999023438</ele>
        <time>2020-01-15T13:58:25.000Z</time>
      </trkpt>
      <trkpt lat="45.63195" lon="6.69428">
        <ele>2321.1999511719</ele>
        <time>2020-01-15T13:58:31.000Z</time>
      </trkpt>
      <trkpt lat="45.63195" lon="6.69428">
        <ele>2321.6000976562</ele>
        <time>2020-01-15T13:58:33.000Z</time>
      </trkpt>
      <trkpt lat="45.63194" lon="6.69427">
        <ele>2322</ele>
        <time>2020-01-15T13:58:36.000Z</time>
      </trkpt>
      <trkpt lat="45.63194" lon="6.69426">
        <ele>2322.6000976562</ele>
        <time>2020-01-15T13:58:39.000Z</time>
      </trkpt>
      <trkpt lat="45.63194" lon="6.69426">
        <ele>2323.1999511719</ele>
        <time>2020-01-15T13:58:42.000Z</time>
      </trkpt>
      <trkpt lat="45.63193" lon="6.69426">
        <ele>2323.6000976562</ele>
        <time>2020-01-15T13:58:44.000Z</time>
      </trkpt>
      <trkpt lat="45.63192" lon="6.69423">
        <ele>2324.1999511719</ele>
        <time>2020-01-15T13:58:47.000Z</time>
      </trkpt>
      <trkpt lat="45.63192" lon="6.69423">
        <ele>2324.8000488281</ele>
        <time>2020-01-15T13:58:50.000Z</time>
      </trkpt>
      <trkpt lat="45.63192" lon="6.69422">
        <ele>2325.1999511719</ele>
        <time>2020-01-15T13:58:53.000Z</time>
      </trkpt>
      <trkpt lat="45.63192" lon="6.69422">
        <ele>2325.8000488281</ele>
        <time>2020-01-15T13:58:56.000Z</time>
      </trkpt>
      <trkpt lat="45.6319" lon="6.69421">
        <ele>2326.6000976562</ele>
        <time>2020-01-15T13:59:00.000Z</time>
      </trkpt>
      <trkpt lat="45.63189" lon="6.69421">
        <ele>2326.8000488281</ele>
        <time>2020-01-15T13:59:02.000Z</time>
      </trkpt>
      <trkpt lat="45.63189" lon="6.6942">
        <ele>2327.8000488281</ele>
        <time>2020-01-15T13:59:07.000Z</time>
      </trkpt>
      <trkpt lat="45.6319" lon="6.69419">
        <ele>2328</ele>
        <time>2020-01-15T13:59:08.000Z</time>
      </trkpt>
      <trkpt lat="45.63188" lon="6.69417">
        <ele>2329.1999511719</ele>
        <time>2020-01-15T13:59:13.000Z</time>
      </trkpt>
      <trkpt lat="45.63186" lon="6.69416">
        <ele>2330.1999511719</ele>
        <time>2020-01-15T13:59:19.000Z</time>
      </trkpt>
      <trkpt lat="45.63186" lon="6.69416">
        <ele>2330.6000976562</ele>
        <time>2020-01-15T13:59:21.000Z</time>
      </trkpt>
      <trkpt lat="45.63186" lon="6.69415">
        <ele>2331.3999023438</ele>
        <time>2020-01-15T13:59:24.000Z</time>
      </trkpt>
      <trkpt lat="45.63186" lon="6.69415">
        <ele>2332.3999023438</ele>
        <time>2020-01-15T13:59:29.000Z</time>
      </trkpt>
      <trkpt lat="45.63186" lon="6.69415">
        <ele>2332.6000976562</ele>
        <time>2020-01-15T13:59:30.000Z</time>
      </trkpt>
      <trkpt lat="45.63184" lon="6.69413">
        <ele>2333.6000976562</ele>
        <time>2020-01-15T13:59:36.000Z</time>
      </trkpt>
      <trkpt lat="45.63184" lon="6.69413">
        <ele>2334.6000976562</ele>
        <time>2020-01-15T13:59:40.000Z</time>
      </trkpt>
      <trkpt lat="45.63183" lon="6.69411">
        <ele>2335.3999023438</ele>
        <time>2020-01-15T13:59:44.000Z</time>
      </trkpt>
      <trkpt lat="45.63183" lon="6.69411">
        <ele>2335.6000976562</ele>
        <time>2020-01-15T13:59:47.000Z</time>
      </trkpt>
      <trkpt lat="45.63183" lon="6.69411">
        <ele>2336.6000976562</ele>
        <time>2020-01-15T13:59:58.000Z</time>
      </trkpt>
      <trkpt lat="45.63183" lon="6.69411">
        <ele>2336.8000488281</ele>
        <time>2020-01-15T14:00:00.000Z</time>
      </trkpt>
      <trkpt lat="45.63182" lon="6.69409">
        <ele>2337.1999511719</ele>
        <time>2020-01-15T14:00:09.000Z</time>
      </trkpt>
      <trkpt lat="45.63182" lon="6.69409">
        <ele>2337.8000488281</ele>
        <time>2020-01-15T14:00:12.000Z</time>
      </trkpt>
      <trkpt lat="45.63179" lon="6.69406">
        <ele>2339</ele>
        <time>2020-01-15T14:00:17.000Z</time>
      </trkpt>
      <trkpt lat="45.63179" lon="6.69405">
        <ele>2339.1999511719</ele>
        <time>2020-01-15T14:00:18.000Z</time>
      </trkpt>
      <trkpt lat="45.63178" lon="6.69404">
        <ele>2340</ele>
        <time>2020-01-15T14:00:21.000Z</time>
      </trkpt>
      <trkpt lat="45.63178" lon="6.69404">
        <ele>2341</ele>
        <time>2020-01-15T14:00:26.000Z</time>
      </trkpt>
      <trkpt lat="45.63178" lon="6.694">
        <ele>2342</ele>
        <time>2020-01-15T14:00:33.000Z</time>
      </trkpt>
      <trkpt lat="45.63178" lon="6.694">
        <ele>2343.1999511719</ele>
        <time>2020-01-15T14:00:41.000Z</time>
      </trkpt>
      <trkpt lat="45.63177" lon="6.69398">
        <ele>2343.6000976562</ele>
        <time>2020-01-15T14:00:43.000Z</time>
      </trkpt>
      <trkpt lat="45.63175" lon="6.69397">
        <ele>2344.1999511719</ele>
        <time>2020-01-15T14:00:48.000Z</time>
      </trkpt>
      <trkpt lat="45.63175" lon="6.69397">
        <ele>2344.6000976562</ele>
        <time>2020-01-15T14:00:51.000Z</time>
      </trkpt>
      <trkpt lat="45.63173" lon="6.69395">
        <ele>2345.1999511719</ele>
        <time>2020-01-15T14:00:55.000Z</time>
      </trkpt>
      <trkpt lat="45.63173" lon="6.69395">
        <ele>2345.3999023438</ele>
        <time>2020-01-15T14:00:56.000Z</time>
      </trkpt>
      <trkpt lat="45.63171" lon="6.69396">
        <ele>2346.3999023438</ele>
        <time>2020-01-15T14:01:02.000Z</time>
      </trkpt>
      <trkpt lat="45.63171" lon="6.69396">
        <ele>2346.3999023438</ele>
        <time>2020-01-15T14:01:03.000Z</time>
      </trkpt>
      <trkpt lat="45.63169" lon="6.69396">
        <ele>2347</ele>
        <time>2020-01-15T14:01:10.000Z</time>
      </trkpt>
      <trkpt lat="45.63169" lon="6.69396">
        <ele>2347.3999023438</ele>
        <time>2020-01-15T14:01:14.000Z</time>
      </trkpt>
      <trkpt lat="45.6317" lon="6.69396">
        <ele>2347.8000488281</ele>
        <time>2020-01-15T14:01:16.000Z</time>
      </trkpt>
      <trkpt lat="45.6317" lon="6.69395">
        <ele>2348.6000976562</ele>
        <time>2020-01-15T14:01:21.000Z</time>
      </trkpt>
      <trkpt lat="45.6317" lon="6.69395">
        <ele>2349.6000976562</ele>
        <time>2020-01-15T14:01:28.000Z</time>
      </trkpt>
      <trkpt lat="45.63171" lon="6.69395">
        <ele>2350.1999511719</ele>
        <time>2020-01-15T14:01:30.000Z</time>
      </trkpt>
      <trkpt lat="45.6317" lon="6.69393">
        <ele>2350.6000976562</ele>
        <time>2020-01-15T14:01:35.000Z</time>
      </trkpt>
      <trkpt lat="45.6317" lon="6.69392">
        <ele>2350.6000976562</ele>
        <time>2020-01-15T14:01:36.000Z</time>
      </trkpt>
      <trkpt lat="45.63168" lon="6.6939">
        <ele>2351.1999511719</ele>
        <time>2020-01-15T14:01:40.000Z</time>
      </trkpt>
      <trkpt lat="45.63168" lon="6.6939">
        <ele>2351.8000488281</ele>
        <time>2020-01-15T14:01:45.000Z</time>
      </trkpt>
      <trkpt lat="45.63168" lon="6.69389">
        <ele>2353</ele>
        <time>2020-01-15T14:01:49.000Z</time>
      </trkpt>
      <trkpt lat="45.63168" lon="6.69388">
        <ele>2353.1999511719</ele>
        <time>2020-01-15T14:01:50.000Z</time>
      </trkpt>
      <trkpt lat="45.63168" lon="6.69387">
        <ele>2353.8000488281</ele>
        <time>2020-01-15T14:01:57.000Z</time>
      </trkpt>
      <trkpt lat="45.63168" lon="6.69387">
        <ele>2354</ele>
        <time>2020-01-15T14:01:58.000Z</time>
      </trkpt>
      <trkpt lat="45.63168" lon="6.69387">
        <ele>2355.1999511719</ele>
        <time>2020-01-15T14:02:03.000Z</time>
      </trkpt>
      <trkpt lat="45.63168" lon="6.69387">
        <ele>2355.3999023438</ele>
        <time>2020-01-15T14:02:10.000Z</time>
      </trkpt>
      <trkpt lat="45.63167" lon="6.69383">
        <ele>2355.3999023438</ele>
        <time>2020-01-15T14:02:18.000Z</time>
      </trkpt>
      <trkpt lat="45.63166" lon="6.69383">
        <ele>2356.3999023438</ele>
        <time>2020-01-15T14:02:23.000Z</time>
      </trkpt>
      <trkpt lat="45.63166" lon="6.69383">
        <ele>2356.6000976562</ele>
        <time>2020-01-15T14:02:24.000Z</time>
      </trkpt>
      <trkpt lat="45.63165" lon="6.69381">
        <ele>2357.3999023438</ele>
        <time>2020-01-15T14:02:30.000Z</time>
      </trkpt>
      <trkpt lat="45.63165" lon="6.69381">
        <ele>2357.3999023438</ele>
        <time>2020-01-15T14:02:31.000Z</time>
      </trkpt>
      <trkpt lat="45.63164" lon="6.69379">
        <ele>2358.3999023438</ele>
        <time>2020-01-15T14:02:36.000Z</time>
      </trkpt>
      <trkpt lat="45.63163" lon="6.69378">
        <ele>2358.6000976562</ele>
        <time>2020-01-15T14:02:37.000Z</time>
      </trkpt>
      <trkpt lat="45.63163" lon="6.69378">
        <ele>2359.6000976562</ele>
        <time>2020-01-15T14:02:41.000Z</time>
      </trkpt>
      <trkpt lat="45.63163" lon="6.69378">
        <ele>2360</ele>
        <time>2020-01-15T14:02:43.000Z</time>
      </trkpt>
      <trkpt lat="45.63163" lon="6.69378">
        <ele>2360.8000488281</ele>
        <time>2020-01-15T14:02:47.000Z</time>
      </trkpt>
      <trkpt lat="45.63163" lon="6.69378">
        <ele>2361.6000976562</ele>
        <time>2020-01-15T14:02:52.000Z</time>
      </trkpt>
      <trkpt lat="45.63163" lon="6.69378">
        <ele>2362</ele>
        <time>2020-01-15T14:02:55.000Z</time>
      </trkpt>
      <trkpt lat="45.63163" lon="6.69377">
        <ele>2362.6000976562</ele>
        <time>2020-01-15T14:03:02.000Z</time>
      </trkpt>
      <trkpt lat="45.63163" lon="6.69377">
        <ele>2363</ele>
        <time>2020-01-15T14:03:04.000Z</time>
      </trkpt>
      <trkpt lat="45.63161" lon="6.69373">
        <ele>2363.6000976562</ele>
        <time>2020-01-15T14:03:08.000Z</time>
      </trkpt>
      <trkpt lat="45.6316" lon="6.69371">
        <ele>2364</ele>
        <time>2020-01-15T14:03:11.000Z</time>
      </trkpt>
      <trkpt lat="45.63159" lon="6.69369">
        <ele>2365</ele>
        <time>2020-01-15T14:03:14.000Z</time>
      </trkpt>
      <trkpt lat="45.63159" lon="6.69369">
        <ele>2365.1999511719</ele>
        <time>2020-01-15T14:03:15.000Z</time>
      </trkpt>
      <trkpt lat="45.63159" lon="6.69369">
        <ele>2366</ele>
        <time>2020-01-15T14:03:26.000Z</time>
      </trkpt>
      <trkpt lat="45.63159" lon="6.69369">
        <ele>2366.1999511719</ele>
        <time>2020-01-15T14:03:28.000Z</time>
      </trkpt>
      <trkpt lat="45.6316" lon="6.69368">
        <ele>2366.6000976562</ele>
        <time>2020-01-15T14:03:33.000Z</time>
      </trkpt>
      <trkpt lat="45.63159" lon="6.69367">
        <ele>2367.3999023438</ele>
        <time>2020-01-15T14:03:37.000Z</time>
      </trkpt>
      <trkpt lat="45.63159" lon="6.69366">
        <ele>2367.8000488281</ele>
        <time>2020-01-15T14:03:40.000Z</time>
      </trkpt>
      <trkpt lat="45.63157" lon="6.69364">
        <ele>2368.6000976562</ele>
        <time>2020-01-15T14:03:44.000Z</time>
      </trkpt>
      <trkpt lat="45.63157" lon="6.69363">
        <ele>2369.6000976562</ele>
        <time>2020-01-15T14:03:50.000Z</time>
      </trkpt>
      <trkpt lat="45.63156" lon="6.69362">
        <ele>2369.8000488281</ele>
        <time>2020-01-15T14:03:51.000Z</time>
      </trkpt>
      <trkpt lat="45.63156" lon="6.69362">
        <ele>2370.8000488281</ele>
        <time>2020-01-15T14:03:57.000Z</time>
      </trkpt>
      <trkpt lat="45.63156" lon="6.69361">
        <ele>2371.3999023438</ele>
        <time>2020-01-15T14:04:00.000Z</time>
      </trkpt>
      <trkpt lat="45.63156" lon="6.69361">
        <ele>2371.8000488281</ele>
        <time>2020-01-15T14:04:04.000Z</time>
      </trkpt>
      <trkpt lat="45.63156" lon="6.69361">
        <ele>2372.6000976562</ele>
        <time>2020-01-15T14:04:08.000Z</time>
      </trkpt>
      <trkpt lat="45.63156" lon="6.69361">
        <ele>2373</ele>
        <time>2020-01-15T14:04:11.000Z</time>
      </trkpt>
      <trkpt lat="45.63156" lon="6.69361">
        <ele>2374.1999511719</ele>
        <time>2020-01-15T14:04:18.000Z</time>
      </trkpt>
      <trkpt lat="45.63154" lon="6.69358">
        <ele>2374.6000976562</ele>
        <time>2020-01-15T14:04:23.000Z</time>
      </trkpt>
      <trkpt lat="45.63153" lon="6.69357">
        <ele>2375.1999511719</ele>
        <time>2020-01-15T14:04:28.000Z</time>
      </trkpt>
      <trkpt lat="45.63153" lon="6.69357">
        <ele>2376</ele>
        <time>2020-01-15T14:04:31.000Z</time>
      </trkpt>
      <trkpt lat="45.63152" lon="6.69356">
        <ele>2376.1999511719</ele>
        <time>2020-01-15T14:04:34.000Z</time>
      </trkpt>
      <trkpt lat="45.6315" lon="6.69352">
        <ele>2377.1999511719</ele>
        <time>2020-01-15T14:04:39.000Z</time>
      </trkpt>
      <trkpt lat="45.6315" lon="6.69352">
        <ele>2377.8000488281</ele>
        <time>2020-01-15T14:04:40.000Z</time>
      </trkpt>
      <trkpt lat="45.63151" lon="6.69351">
        <ele>2379</ele>
        <time>2020-01-15T14:04:46.000Z</time>
      </trkpt>
      <trkpt lat="45.63151" lon="6.69351">
        <ele>2379.1999511719</ele>
        <time>2020-01-15T14:04:47.000Z</time>
      </trkpt>
      <trkpt lat="45.63151" lon="6.69351">
        <ele>2380.1999511719</ele>
        <time>2020-01-15T14:04:53.000Z</time>
      </trkpt>
      <trkpt lat="45.63151" lon="6.69351">
        <ele>2380.6000976562</ele>
        <time>2020-01-15T14:04:56.000Z</time>
      </trkpt>
      <trkpt lat="45.6315" lon="6.6935">
        <ele>2380.1999511719</ele>
        <time>2020-01-15T14:05:09.000Z</time>
      </trkpt>
      <trkpt lat="45.63148" lon="6.69347">
        <ele>2381.1999511719</ele>
        <time>2020-01-15T14:05:16.000Z</time>
      </trkpt>
      <trkpt lat="45.63149" lon="6.69346">
        <ele>2382.3999023438</ele>
        <time>2020-01-15T14:05:22.000Z</time>
      </trkpt>
      <trkpt lat="45.63148" lon="6.69343">
        <ele>2383.3999023438</ele>
        <time>2020-01-15T14:05:27.000Z</time>
      </trkpt>
      <trkpt lat="45.63148" lon="6.69343">
        <ele>2383.6000976562</ele>
        <time>2020-01-15T14:05:42.000Z</time>
      </trkpt>
      <trkpt lat="45.63148" lon="6.69343">
        <ele>2384.1999511719</ele>
        <time>2020-01-15T14:06:00.000Z</time>
      </trkpt>
      <trkpt lat="45.63148" lon="6.69343">
        <ele>2384.3999023438</ele>
        <time>2020-01-15T14:06:12.000Z</time>
      </trkpt>
      <trkpt lat="45.63148" lon="6.69343">
        <ele>2384.6000976562</ele>
        <time>2020-01-15T14:06:13.000Z</time>
      </trkpt>
      <trkpt lat="45.6315" lon="6.6934">
        <ele>2384.8000488281</ele>
        <time>2020-01-15T14:06:19.000Z</time>
      </trkpt>
      <trkpt lat="45.6315" lon="6.69337">
        <ele>2385.3999023438</ele>
        <time>2020-01-15T14:06:23.000Z</time>
      </trkpt>
      <trkpt lat="45.6315" lon="6.69337">
        <ele>2385.8000488281</ele>
        <time>2020-01-15T14:06:25.000Z</time>
      </trkpt>
      <trkpt lat="45.63151" lon="6.69336">
        <ele>2386.6000976562</ele>
        <time>2020-01-15T14:06:29.000Z</time>
      </trkpt>
      <trkpt lat="45.63151" lon="6.69335">
        <ele>2386.8000488281</ele>
        <time>2020-01-15T14:06:31.000Z</time>
      </trkpt>
      <trkpt lat="45.63149" lon="6.69334">
        <ele>2387.6000976562</ele>
        <time>2020-01-15T14:06:36.000Z</time>
      </trkpt>
      <trkpt lat="45.63147" lon="6.69333">
        <ele>2388</ele>
        <time>2020-01-15T14:06:38.000Z</time>
      </trkpt>
      <trkpt lat="45.63147" lon="6.69333">
        <ele>2388.6000976562</ele>
        <time>2020-01-15T14:06:41.000Z</time>
      </trkpt>
      <trkpt lat="45.63146" lon="6.69333">
        <ele>2389.3999023438</ele>
        <time>2020-01-15T14:06:44.000Z</time>
      </trkpt>
      <trkpt lat="45.63144" lon="6.69331">
        <ele>2389.8000488281</ele>
        <time>2020-01-15T14:06:47.000Z</time>
      </trkpt>
      <trkpt lat="45.63143" lon="6.69331">
        <ele>2390.3999023438</ele>
        <time>2020-01-15T14:06:51.000Z</time>
      </trkpt>
      <trkpt lat="45.63143" lon="6.69331">
        <ele>2390.8000488281</ele>
        <time>2020-01-15T14:06:53.000Z</time>
      </trkpt>
      <trkpt lat="45.63142" lon="6.69329">
        <ele>2391.3999023438</ele>
        <time>2020-01-15T14:06:57.000Z</time>
      </trkpt>
      <trkpt lat="45.63142" lon="6.69329">
        <ele>2391.8000488281</ele>
        <time>2020-01-15T14:07:00.000Z</time>
      </trkpt>
      <trkpt lat="45.63143" lon="6.69328">
        <ele>2392.8000488281</ele>
        <time>2020-01-15T14:07:06.000Z</time>
      </trkpt>
      <trkpt lat="45.63143" lon="6.69328">
        <ele>2393</ele>
        <time>2020-01-15T14:07:07.000Z</time>
      </trkpt>
      <trkpt lat="45.63143" lon="6.69328">
        <ele>2393.6000976562</ele>
        <time>2020-01-15T14:07:18.000Z</time>
      </trkpt>
      <trkpt lat="45.63143" lon="6.69328">
        <ele>2393.6000976562</ele>
        <time>2020-01-15T14:07:32.000Z</time>
      </trkpt>
      <trkpt lat="45.63142" lon="6.69327">
        <ele>2393.8000488281</ele>
        <time>2020-01-15T14:07:45.000Z</time>
      </trkpt>
      <trkpt lat="45.63142" lon="6.69325">
        <ele>2393.8000488281</ele>
        <time>2020-01-15T14:07:52.000Z</time>
      </trkpt>
      <trkpt lat="45.63142" lon="6.69324">
        <ele>2394</ele>
        <time>2020-01-15T14:07:54.000Z</time>
      </trkpt>
      <trkpt lat="45.63143" lon="6.69323">
        <ele>2394.8000488281</ele>
        <time>2020-01-15T14:07:57.000Z</time>
      </trkpt>
      <trkpt lat="45.63143" lon="6.69323">
        <ele>2395.1999511719</ele>
        <time>2020-01-15T14:07:59.000Z</time>
      </trkpt>
      <trkpt lat="45.63143" lon="6.69323">
        <ele>2396.1999511719</ele>
        <time>2020-01-15T14:08:05.000Z</time>
      </trkpt>
      <trkpt lat="45.63143" lon="6.69323">
        <ele>2396.3999023438</ele>
        <time>2020-01-15T14:08:07.000Z</time>
      </trkpt>
      <trkpt lat="45.63141" lon="6.69322">
        <ele>2397.3999023438</ele>
        <time>2020-01-15T14:08:13.000Z</time>
      </trkpt>
      <trkpt lat="45.6314" lon="6.69322">
        <ele>2397.6000976562</ele>
        <time>2020-01-15T14:08:14.000Z</time>
      </trkpt>
      <trkpt lat="45.63138" lon="6.69322">
        <ele>2398.3999023438</ele>
        <time>2020-01-15T14:08:18.000Z</time>
      </trkpt>
      <trkpt lat="45.63137" lon="6.69321">
        <ele>2399.6000976562</ele>
        <time>2020-01-15T14:08:22.000Z</time>
      </trkpt>
      <trkpt lat="45.63136" lon="6.69319">
        <ele>2400.6000976562</ele>
        <time>2020-01-15T14:08:26.000Z</time>
      </trkpt>
      <trkpt lat="45.63137" lon="6.69318">
        <ele>2401.3999023438</ele>
        <time>2020-01-15T14:08:34.000Z</time>
      </trkpt>
      <trkpt lat="45.63137" lon="6.69318">
        <ele>2401.6000976562</ele>
        <time>2020-01-15T14:08:35.000Z</time>
      </trkpt>
      <trkpt lat="45.63135" lon="6.69316">
        <ele>2402.3999023438</ele>
        <time>2020-01-15T14:08:41.000Z</time>
      </trkpt>
      <trkpt lat="45.63134" lon="6.69315">
        <ele>2402.6000976562</ele>
        <time>2020-01-15T14:08:43.000Z</time>
      </trkpt>
      <trkpt lat="45.63136" lon="6.69313">
        <ele>2403.3999023438</ele>
        <time>2020-01-15T14:08:47.000Z</time>
      </trkpt>
      <trkpt lat="45.63136" lon="6.69313">
        <ele>2403.8000488281</ele>
        <time>2020-01-15T14:08:48.000Z</time>
      </trkpt>
      <trkpt lat="45.63135" lon="6.69311">
        <ele>2404</ele>
        <time>2020-01-15T14:08:56.000Z</time>
      </trkpt>
      <trkpt lat="45.63136" lon="6.6931">
        <ele>2405</ele>
        <time>2020-01-15T14:09:02.000Z</time>
      </trkpt>
      <trkpt lat="45.63137" lon="6.69309">
        <ele>2406</ele>
        <time>2020-01-15T14:09:06.000Z</time>
      </trkpt>
      <trkpt lat="45.63137" lon="6.69309">
        <ele>2406</ele>
        <time>2020-01-15T14:09:07.000Z</time>
      </trkpt>
      <trkpt lat="45.63137" lon="6.69306">
        <ele>2406.8000488281</ele>
        <time>2020-01-15T14:09:17.000Z</time>
      </trkpt>
      <trkpt lat="45.63137" lon="6.69304">
        <ele>2407</ele>
        <time>2020-01-15T14:09:21.000Z</time>
      </trkpt>
      <trkpt lat="45.63137" lon="6.69304">
        <ele>2407.1999511719</ele>
        <time>2020-01-15T14:09:22.000Z</time>
      </trkpt>
      <trkpt lat="45.63137" lon="6.69303">
        <ele>2408.1999511719</ele>
        <time>2020-01-15T14:09:26.000Z</time>
      </trkpt>
      <trkpt lat="45.63137" lon="6.69303">
        <ele>2408.6000976562</ele>
        <time>2020-01-15T14:09:28.000Z</time>
      </trkpt>
      <trkpt lat="45.63137" lon="6.69301">
        <ele>2409</ele>
        <time>2020-01-15T14:09:32.000Z</time>
      </trkpt>
      <trkpt lat="45.63137" lon="6.69301">
        <ele>2409.1999511719</ele>
        <time>2020-01-15T14:09:34.000Z</time>
      </trkpt>
      <trkpt lat="45.63137" lon="6.69301">
        <ele>2409.8000488281</ele>
        <time>2020-01-15T14:09:37.000Z</time>
      </trkpt>
      <trkpt lat="45.63137" lon="6.69301">
        <ele>2410.3999023438</ele>
        <time>2020-01-15T14:09:39.000Z</time>
      </trkpt>
      <trkpt lat="45.63136" lon="6.693">
        <ele>2411.3999023438</ele>
        <time>2020-01-15T14:09:44.000Z</time>
      </trkpt>
      <trkpt lat="45.63135" lon="6.69297">
        <ele>2412.3999023438</ele>
        <time>2020-01-15T14:09:51.000Z</time>
      </trkpt>
      <trkpt lat="45.63134" lon="6.69296">
        <ele>2413.3999023438</ele>
        <time>2020-01-15T14:09:58.000Z</time>
      </trkpt>
      <trkpt lat="45.63134" lon="6.69296">
        <ele>2413.8000488281</ele>
        <time>2020-01-15T14:10:00.000Z</time>
      </trkpt>
      <trkpt lat="45.63134" lon="6.69296">
        <ele>2414.6000976562</ele>
        <time>2020-01-15T14:10:05.000Z</time>
      </trkpt>
      <trkpt lat="45.63134" lon="6.69296">
        <ele>2415.6000976562</ele>
        <time>2020-01-15T14:10:13.000Z</time>
      </trkpt>
      <trkpt lat="45.63134" lon="6.69296">
        <ele>2416</ele>
        <time>2020-01-15T14:10:16.000Z</time>
      </trkpt>
      <trkpt lat="45.63134" lon="6.69296">
        <ele>2416.6000976562</ele>
        <time>2020-01-15T14:10:26.000Z</time>
      </trkpt>
      <trkpt lat="45.63134" lon="6.69296">
        <ele>2416.6000976562</ele>
        <time>2020-01-15T14:10:27.000Z</time>
      </trkpt>
      <trkpt lat="45.63134" lon="6.69296">
        <ele>2417.3999023438</ele>
        <time>2020-01-15T14:10:34.000Z</time>
      </trkpt>
      <trkpt lat="45.63134" lon="6.69296">
        <ele>2417.8000488281</ele>
        <time>2020-01-15T14:10:36.000Z</time>
      </trkpt>
      <trkpt lat="45.63134" lon="6.69296">
        <ele>2418.8000488281</ele>
        <time>2020-01-15T14:10:40.000Z</time>
      </trkpt>
      <trkpt lat="45.63134" lon="6.69296">
        <ele>2419.1999511719</ele>
        <time>2020-01-15T14:10:41.000Z</time>
      </trkpt>
      <trkpt lat="45.63134" lon="6.69296">
        <ele>2419.8000488281</ele>
        <time>2020-01-15T14:10:43.000Z</time>
      </trkpt>
      <trkpt lat="45.63134" lon="6.69296">
        <ele>2420.6000976562</ele>
        <time>2020-01-15T14:10:48.000Z</time>
      </trkpt>
      <trkpt lat="45.63134" lon="6.69296">
        <ele>2421</ele>
        <time>2020-01-15T14:10:51.000Z</time>
      </trkpt>
      <trkpt lat="45.63134" lon="6.69296">
        <ele>2422.1999511719</ele>
        <time>2020-01-15T14:10:56.000Z</time>
      </trkpt>
      <trkpt lat="45.63134" lon="6.69296">
        <ele>2423</ele>
        <time>2020-01-15T14:11:01.000Z</time>
      </trkpt>
      <trkpt lat="45.63134" lon="6.69296">
        <ele>2423.1999511719</ele>
        <time>2020-01-15T14:11:02.000Z</time>
      </trkpt>
      <trkpt lat="45.63134" lon="6.69296">
        <ele>2423.8000488281</ele>
        <time>2020-01-15T14:11:10.000Z</time>
      </trkpt>
      <trkpt lat="45.63134" lon="6.69295">
        <ele>2424.1999511719</ele>
        <time>2020-01-15T14:11:18.000Z</time>
      </trkpt>
      <trkpt lat="45.63134" lon="6.69295">
        <ele>2425</ele>
        <time>2020-01-15T14:11:22.000Z</time>
      </trkpt>
      <trkpt lat="45.63132" lon="6.69292">
        <ele>2425.3999023438</ele>
        <time>2020-01-15T14:11:25.000Z</time>
      </trkpt>
      <trkpt lat="45.6313" lon="6.69289">
        <ele>2425.6000976562</ele>
        <time>2020-01-15T14:11:28.000Z</time>
      </trkpt>
      <trkpt lat="45.63126" lon="6.69283">
        <ele>2426.6000976562</ele>
        <time>2020-01-15T14:11:32.000Z</time>
      </trkpt>
      <trkpt lat="45.63126" lon="6.69283">
        <ele>2426.8000488281</ele>
        <time>2020-01-15T14:11:33.000Z</time>
      </trkpt>
      <trkpt lat="45.63122" lon="6.69278">
        <ele>2427.6000976562</ele>
        <time>2020-01-15T14:11:37.000Z</time>
      </trkpt>
      <trkpt lat="45.63122" lon="6.69278">
        <ele>2428.1999511719</ele>
        <time>2020-01-15T14:11:40.000Z</time>
      </trkpt>
      <trkpt lat="45.63122" lon="6.69278">
        <ele>2428.8000488281</ele>
        <time>2020-01-15T14:11:43.000Z</time>
      </trkpt>
      <trkpt lat="45.63119" lon="6.69275">
        <ele>2429.1999511719</ele>
        <time>2020-01-15T14:11:46.000Z</time>
      </trkpt>
      <trkpt lat="45.63116" lon="6.69272">
        <ele>2430</ele>
        <time>2020-01-15T14:11:49.000Z</time>
      </trkpt>
      <trkpt lat="45.63115" lon="6.69271">
        <ele>2430.3999023438</ele>
        <time>2020-01-15T14:11:51.000Z</time>
      </trkpt>
      <trkpt lat="45.63115" lon="6.69271">
        <ele>2431</ele>
        <time>2020-01-15T14:11:54.000Z</time>
      </trkpt>
      <trkpt lat="45.63115" lon="6.69271">
        <ele>2431.8000488281</ele>
        <time>2020-01-15T14:11:59.000Z</time>
      </trkpt>
      <trkpt lat="45.63115" lon="6.69271">
        <ele>2432.3999023438</ele>
        <time>2020-01-15T14:12:04.000Z</time>
      </trkpt>
      <trkpt lat="45.63115" lon="6.69271">
        <ele>2433.1999511719</ele>
        <time>2020-01-15T14:12:09.000Z</time>
      </trkpt>
      <trkpt lat="45.63115" lon="6.69271">
        <ele>2433.3999023438</ele>
        <time>2020-01-15T14:12:10.000Z</time>
      </trkpt>
      <trkpt lat="45.63115" lon="6.69271">
        <ele>2434.6000976562</ele>
        <time>2020-01-15T14:12:17.000Z</time>
      </trkpt>
      <trkpt lat="45.63115" lon="6.69271">
        <ele>2435</ele>
        <time>2020-01-15T14:12:18.000Z</time>
      </trkpt>
      <trkpt lat="45.63115" lon="6.69271">
        <ele>2435.8000488281</ele>
        <time>2020-01-15T14:12:21.000Z</time>
      </trkpt>
      <trkpt lat="45.63115" lon="6.69271">
        <ele>2436.6000976562</ele>
        <time>2020-01-15T14:12:26.000Z</time>
      </trkpt>
      <trkpt lat="45.63115" lon="6.69271">
        <ele>2437</ele>
        <time>2020-01-15T14:12:28.000Z</time>
      </trkpt>
      <trkpt lat="45.63115" lon="6.6927">
        <ele>2438</ele>
        <time>2020-01-15T14:12:34.000Z</time>
      </trkpt>
      <trkpt lat="45.63115" lon="6.6927">
        <ele>2439</ele>
        <time>2020-01-15T14:12:46.000Z</time>
      </trkpt>
      <trkpt lat="45.63115" lon="6.6927">
        <ele>2439.3999023438</ele>
        <time>2020-01-15T14:12:48.000Z</time>
      </trkpt>
      <trkpt lat="45.63115" lon="6.6927">
        <ele>2439.6000976562</ele>
        <time>2020-01-15T14:12:53.000Z</time>
      </trkpt>
      <trkpt lat="45.63115" lon="6.6927">
        <ele>2440.1999511719</ele>
        <time>2020-01-15T14:12:58.000Z</time>
      </trkpt>
      <trkpt lat="45.63109" lon="6.69263">
        <ele>2441.6000976562</ele>
        <time>2020-01-15T14:13:05.000Z</time>
      </trkpt>
      <trkpt lat="45.63109" lon="6.69263">
        <ele>2442.8000488281</ele>
        <time>2020-01-15T14:13:10.000Z</time>
      </trkpt>
      <trkpt lat="45.63106" lon="6.69261">
        <ele>2443.6000976562</ele>
        <time>2020-01-15T14:13:15.000Z</time>
      </trkpt>
      <trkpt lat="45.63106" lon="6.69261">
        <ele>2443.8000488281</ele>
        <time>2020-01-15T14:13:16.000Z</time>
      </trkpt>
      <trkpt lat="45.63106" lon="6.69261">
        <ele>2444.6000976562</ele>
        <time>2020-01-15T14:13:21.000Z</time>
      </trkpt>
      <trkpt lat="45.63106" lon="6.69261">
        <ele>2444.8000488281</ele>
        <time>2020-01-15T14:13:22.000Z</time>
      </trkpt>
      <trkpt lat="45.63106" lon="6.69261">
        <ele>2445.8000488281</ele>
        <time>2020-01-15T14:13:27.000Z</time>
      </trkpt>
      <trkpt lat="45.63106" lon="6.69261">
        <ele>2446.3999023438</ele>
        <time>2020-01-15T14:13:29.000Z</time>
      </trkpt>
      <trkpt lat="45.63106" lon="6.69261">
        <ele>2446.8000488281</ele>
        <time>2020-01-15T14:13:33.000Z</time>
      </trkpt>
      <trkpt lat="45.63106" lon="6.69261">
        <ele>2447.6000976562</ele>
        <time>2020-01-15T14:13:42.000Z</time>
      </trkpt>
      <trkpt lat="45.63106" lon="6.69261">
        <ele>2448</ele>
        <time>2020-01-15T14:13:46.000Z</time>
      </trkpt>
      <trkpt lat="45.63101" lon="6.69254">
        <ele>2448.3999023438</ele>
        <time>2020-01-15T14:13:49.000Z</time>
      </trkpt>
      <trkpt lat="45.63098" lon="6.69251">
        <ele>2449.3999023438</ele>
        <time>2020-01-15T14:13:53.000Z</time>
      </trkpt>
      <trkpt lat="45.63098" lon="6.69251">
        <ele>2449.6000976562</ele>
        <time>2020-01-15T14:13:54.000Z</time>
      </trkpt>
      <trkpt lat="45.63096" lon="6.69249">
        <ele>2450.6000976562</ele>
        <time>2020-01-15T14:13:58.000Z</time>
      </trkpt>
      <trkpt lat="45.63095" lon="6.69248">
        <ele>2450.8000488281</ele>
        <time>2020-01-15T14:14:00.000Z</time>
      </trkpt>
      <trkpt lat="45.6309" lon="6.69244">
        <ele>2451.6000976562</ele>
        <time>2020-01-15T14:14:05.000Z</time>
      </trkpt>
      <trkpt lat="45.63088" lon="6.69242">
        <ele>2451.6000976562</ele>
        <time>2020-01-15T14:14:06.000Z</time>
      </trkpt>
      <trkpt lat="45.63085" lon="6.6924">
        <ele>2452.8000488281</ele>
        <time>2020-01-15T14:14:11.000Z</time>
      </trkpt>
      <trkpt lat="45.63084" lon="6.69239">
        <ele>2453.8000488281</ele>
        <time>2020-01-15T14:14:16.000Z</time>
      </trkpt>
      <trkpt lat="45.63084" lon="6.69239">
        <ele>2454.6000976562</ele>
        <time>2020-01-15T14:14:19.000Z</time>
      </trkpt>
      <trkpt lat="45.63084" lon="6.69239">
        <ele>2455</ele>
        <time>2020-01-15T14:14:21.000Z</time>
      </trkpt>
      <trkpt lat="45.63084" lon="6.69239">
        <ele>2456</ele>
        <time>2020-01-15T14:14:27.000Z</time>
      </trkpt>
      <trkpt lat="45.63084" lon="6.69239">
        <ele>2456</ele>
        <time>2020-01-15T14:14:28.000Z</time>
      </trkpt>
      <trkpt lat="45.63084" lon="6.69239">
        <ele>2456.8000488281</ele>
        <time>2020-01-15T14:14:36.000Z</time>
      </trkpt>
      <trkpt lat="45.63084" lon="6.69239">
        <ele>2457.1999511719</ele>
        <time>2020-01-15T14:14:38.000Z</time>
      </trkpt>
      <trkpt lat="45.63083" lon="6.69238">
        <ele>2457.8000488281</ele>
        <time>2020-01-15T14:14:43.000Z</time>
      </trkpt>
      <trkpt lat="45.6308" lon="6.69236">
        <ele>2458.1999511719</ele>
        <time>2020-01-15T14:14:46.000Z</time>
      </trkpt>
      <trkpt lat="45.63079" lon="6.69235">
        <ele>2458.6000976562</ele>
        <time>2020-01-15T14:14:48.000Z</time>
      </trkpt>
      <trkpt lat="45.63078" lon="6.69235">
        <ele>2459.1999511719</ele>
        <time>2020-01-15T14:14:51.000Z</time>
      </trkpt>
      <trkpt lat="45.63078" lon="6.69233">
        <ele>2460</ele>
        <time>2020-01-15T14:14:55.000Z</time>
      </trkpt>
      <trkpt lat="45.63078" lon="6.69233">
        <ele>2460.6000976562</ele>
        <time>2020-01-15T14:14:57.000Z</time>
      </trkpt>
      <trkpt lat="45.63078" lon="6.69233">
        <ele>2461.6000976562</ele>
        <time>2020-01-15T14:15:03.000Z</time>
      </trkpt>
      <trkpt lat="45.63076" lon="6.69231">
        <ele>2462.8000488281</ele>
        <time>2020-01-15T14:15:07.000Z</time>
      </trkpt>
      <trkpt lat="45.63075" lon="6.6923">
        <ele>2463.1999511719</ele>
        <time>2020-01-15T14:15:09.000Z</time>
      </trkpt>
      <trkpt lat="45.63074" lon="6.69228">
        <ele>2463.8000488281</ele>
        <time>2020-01-15T14:15:13.000Z</time>
      </trkpt>
      <trkpt lat="45.63074" lon="6.69228">
        <ele>2464</ele>
        <time>2020-01-15T14:15:14.000Z</time>
      </trkpt>
      <trkpt lat="45.63073" lon="6.69225">
        <ele>2465</ele>
        <time>2020-01-15T14:15:19.000Z</time>
      </trkpt>
      <trkpt lat="45.63073" lon="6.69224">
        <ele>2466.3999023438</ele>
        <time>2020-01-15T14:15:23.000Z</time>
      </trkpt>
      <trkpt lat="45.63074" lon="6.69223">
        <ele>2466.8000488281</ele>
        <time>2020-01-15T14:15:25.000Z</time>
      </trkpt>
      <trkpt lat="45.63074" lon="6.69223">
        <ele>2467.3999023438</ele>
        <time>2020-01-15T14:15:31.000Z</time>
      </trkpt>
      <trkpt lat="45.63073" lon="6.69223">
        <ele>2467.3999023438</ele>
        <time>2020-01-15T14:15:34.000Z</time>
      </trkpt>
      <trkpt lat="45.63074" lon="6.69222">
        <ele>2468.3999023438</ele>
        <time>2020-01-15T14:15:50.000Z</time>
      </trkpt>
      <trkpt lat="45.63075" lon="6.69221">
        <ele>2468.8000488281</ele>
        <time>2020-01-15T14:15:52.000Z</time>
      </trkpt>
      <trkpt lat="45.63076" lon="6.6922">
        <ele>2468.8000488281</ele>
        <time>2020-01-15T14:15:55.000Z</time>
      </trkpt>
      <trkpt lat="45.63076" lon="6.6922">
        <ele>2468.6000976562</ele>
        <time>2020-01-15T14:15:57.000Z</time>
      </trkpt>
      <trkpt lat="45.63077" lon="6.69218">
        <ele>2468.6000976562</ele>
        <time>2020-01-15T14:16:01.000Z</time>
      </trkpt>
      <trkpt lat="45.63078" lon="6.69215">
        <ele>2469</ele>
        <time>2020-01-15T14:16:06.000Z</time>
      </trkpt>
      <trkpt lat="45.63078" lon="6.69215">
        <ele>2469.1999511719</ele>
        <time>2020-01-15T14:16:13.000Z</time>
      </trkpt>
      <trkpt lat="45.63078" lon="6.69214">
        <ele>2469.3999023438</ele>
        <time>2020-01-15T14:16:19.000Z</time>
      </trkpt>
      <trkpt lat="45.63078" lon="6.69214">
        <ele>2469.3999023438</ele>
        <time>2020-01-15T14:16:20.000Z</time>
      </trkpt>
      <trkpt lat="45.63078" lon="6.69214">
        <ele>2469.6000976562</ele>
        <time>2020-01-15T14:16:35.000Z</time>
      </trkpt>
      <trkpt lat="45.63082" lon="6.69212">
        <ele>2470.1999511719</ele>
        <time>2020-01-15T14:16:40.000Z</time>
      </trkpt>
      <trkpt lat="45.63085" lon="6.69211">
        <ele>2470.6000976562</ele>
        <time>2020-01-15T14:16:46.000Z</time>
      </trkpt>
      <trkpt lat="45.63087" lon="6.6921">
        <ele>2471.6000976562</ele>
        <time>2020-01-15T14:16:53.000Z</time>
      </trkpt>
      <trkpt lat="45.63087" lon="6.69209">
        <ele>2471.8000488281</ele>
        <time>2020-01-15T14:16:54.000Z</time>
      </trkpt>
      <trkpt lat="45.63089" lon="6.69207">
        <ele>2472.1999511719</ele>
        <time>2020-01-15T14:17:00.000Z</time>
      </trkpt>
      <trkpt lat="45.6309" lon="6.69206">
        <ele>2472.3999023438</ele>
        <time>2020-01-15T14:17:04.000Z</time>
      </trkpt>
      <trkpt lat="45.6309" lon="6.69206">
        <ele>2472.8000488281</ele>
        <time>2020-01-15T14:17:05.000Z</time>
      </trkpt>
      <trkpt lat="45.6309" lon="6.69206">
        <ele>2472.8000488281</ele>
        <time>2020-01-15T14:17:18.000Z</time>
      </trkpt>
      <trkpt lat="45.6309" lon="6.69205">
        <ele>2472.8000488281</ele>
        <time>2020-01-15T14:17:23.000Z</time>
      </trkpt>
      <trkpt lat="45.63091" lon="6.69204">
        <ele>2473.1999511719</ele>
        <time>2020-01-15T14:17:28.000Z</time>
      </trkpt>
      <trkpt lat="45.63091" lon="6.69204">
        <ele>2473.8000488281</ele>
        <time>2020-01-15T14:17:31.000Z</time>
      </trkpt>
      <trkpt lat="45.63091" lon="6.69204">
        <ele>2474</ele>
        <time>2020-01-15T14:17:35.000Z</time>
      </trkpt>
      <trkpt lat="45.63091" lon="6.69203">
        <ele>2474.6000976562</ele>
        <time>2020-01-15T14:17:43.000Z</time>
      </trkpt>
      <trkpt lat="45.63091" lon="6.69203">
        <ele>2475</ele>
        <time>2020-01-15T14:17:48.000Z</time>
      </trkpt>
      <trkpt lat="45.63091" lon="6.69203">
        <ele>2475.1999511719</ele>
        <time>2020-01-15T14:18:00.000Z</time>
      </trkpt>
      <trkpt lat="45.63091" lon="6.69202">
        <ele>2475.6000976562</ele>
        <time>2020-01-15T14:18:11.000Z</time>
      </trkpt>
      <trkpt lat="45.63091" lon="6.69204">
        <ele>2474.8000488281</ele>
        <time>2020-01-15T14:18:22.000Z</time>
      </trkpt>
      <trkpt lat="45.63091" lon="6.69207">
        <ele>2474</ele>
        <time>2020-01-15T14:18:29.000Z</time>
      </trkpt>
      <trkpt lat="45.63091" lon="6.69208">
        <ele>2473.8000488281</ele>
        <time>2020-01-15T14:18:31.000Z</time>
      </trkpt>
      <trkpt lat="45.6309" lon="6.69208">
        <ele>2473</ele>
        <time>2020-01-15T14:18:38.000Z</time>
      </trkpt>
      <trkpt lat="45.6309" lon="6.69208">
        <ele>2472.6000976562</ele>
        <time>2020-01-15T14:18:40.000Z</time>
      </trkpt>
      <trkpt lat="45.6309" lon="6.69209">
        <ele>2472.3999023438</ele>
        <time>2020-01-15T14:18:44.000Z</time>
      </trkpt>
      <trkpt lat="45.6309" lon="6.69209">
        <ele>2472</ele>
        <time>2020-01-15T14:18:54.000Z</time>
      </trkpt>
      <trkpt lat="45.6309" lon="6.69209">
        <ele>2472</ele>
        <time>2020-01-15T14:19:06.000Z</time>
      </trkpt>
      <trkpt lat="45.6309" lon="6.69209">
        <ele>2472.1999511719</ele>
        <time>2020-01-15T14:19:17.000Z</time>
      </trkpt>
      <trkpt lat="45.6309" lon="6.69209">
        <ele>2472.1999511719</ele>
        <time>2020-01-15T14:19:30.000Z</time>
      </trkpt>
      <trkpt lat="45.6309" lon="6.69209">
        <ele>2472</ele>
        <time>2020-01-15T14:19:39.000Z</time>
      </trkpt>
      <trkpt lat="45.6309" lon="6.69209">
        <ele>2472</ele>
        <time>2020-01-15T14:19:50.000Z</time>
      </trkpt>
      <trkpt lat="45.6309" lon="6.69209">
        <ele>2472.1999511719</ele>
        <time>2020-01-15T14:20:04.000Z</time>
      </trkpt>
      <trkpt lat="45.6309" lon="6.69209">
        <ele>2472.1999511719</ele>
        <time>2020-01-15T14:20:14.000Z</time>
      </trkpt>
      <trkpt lat="45.6309" lon="6.69209">
        <ele>2472.1999511719</ele>
        <time>2020-01-15T14:20:24.000Z</time>
      </trkpt>
      <trkpt lat="45.6309" lon="6.69209">
        <ele>2472.1999511719</ele>
        <time>2020-01-15T14:20:43.000Z</time>
      </trkpt>
      <trkpt lat="45.6309" lon="6.69209">
        <ele>2471.8000488281</ele>
        <time>2020-01-15T14:20:58.000Z</time>
      </trkpt>
      <trkpt lat="45.6309" lon="6.6921">
        <ele>2472.1999511719</ele>
        <time>2020-01-15T14:21:08.000Z</time>
      </trkpt>
      <trkpt lat="45.6309" lon="6.6921">
        <ele>2472.1999511719</ele>
        <time>2020-01-15T14:21:22.000Z</time>
      </trkpt>
      <trkpt lat="45.6309" lon="6.6921">
        <ele>2472</ele>
        <time>2020-01-15T14:21:39.000Z</time>
      </trkpt>
      <trkpt lat="45.6309" lon="6.6921">
        <ele>2472</ele>
        <time>2020-01-15T14:21:52.000Z</time>
      </trkpt>
      <trkpt lat="45.6309" lon="6.6921">
        <ele>2471.8000488281</ele>
        <time>2020-01-15T14:22:06.000Z</time>
      </trkpt>
      <trkpt lat="45.6309" lon="6.6921">
        <ele>2471.6000976562</ele>
        <time>2020-01-15T14:22:08.000Z</time>
      </trkpt>
      <trkpt lat="45.6309" lon="6.6921">
        <ele>2471.3999023438</ele>
        <time>2020-01-15T14:22:21.000Z</time>
      </trkpt>
      <trkpt lat="45.6309" lon="6.6921">
        <ele>2471.6000976562</ele>
        <time>2020-01-15T14:22:35.000Z</time>
      </trkpt>
      <trkpt lat="45.6309" lon="6.6921">
        <ele>2471.6000976562</ele>
        <time>2020-01-15T14:22:50.000Z</time>
      </trkpt>
      <trkpt lat="45.6309" lon="6.6921">
        <ele>2471.6000976562</ele>
        <time>2020-01-15T14:23:03.000Z</time>
      </trkpt>
      <trkpt lat="45.6309" lon="6.6921">
        <ele>2470.8000488281</ele>
        <time>2020-01-15T14:23:19.000Z</time>
      </trkpt>
      <trkpt lat="45.6309" lon="6.6921">
        <ele>2471</ele>
        <time>2020-01-15T14:23:29.000Z</time>
      </trkpt>
      <trkpt lat="45.6309" lon="6.6921">
        <ele>2471.1999511719</ele>
        <time>2020-01-15T14:23:35.000Z</time>
      </trkpt>
      <trkpt lat="45.6309" lon="6.6921">
        <ele>2471</ele>
        <time>2020-01-15T14:23:48.000Z</time>
      </trkpt>
      <trkpt lat="45.6309" lon="6.6921">
        <ele>2471.1999511719</ele>
        <time>2020-01-15T14:23:59.000Z</time>
      </trkpt>
      <trkpt lat="45.6309" lon="6.6921">
        <ele>2471.1999511719</ele>
        <time>2020-01-15T14:24:10.000Z</time>
      </trkpt>
      <trkpt lat="45.6309" lon="6.6921">
        <ele>2471.1999511719</ele>
        <time>2020-01-15T14:24:27.000Z</time>
      </trkpt>
      <trkpt lat="45.6309" lon="6.6921">
        <ele>2471.3999023438</ele>
        <time>2020-01-15T14:24:41.000Z</time>
      </trkpt>
      <trkpt lat="45.6309" lon="6.6921">
        <ele>2471.3999023438</ele>
        <time>2020-01-15T14:24:49.000Z</time>
      </trkpt>
      <trkpt lat="45.6309" lon="6.6921">
        <ele>2470.3999023438</ele>
        <time>2020-01-15T14:24:52.000Z</time>
      </trkpt>
      <trkpt lat="45.6309" lon="6.6921">
        <ele>2471.3999023438</ele>
        <time>2020-01-15T14:24:58.000Z</time>
      </trkpt>
      <trkpt lat="45.6309" lon="6.6921">
        <ele>2471.6000976562</ele>
        <time>2020-01-15T14:24:59.000Z</time>
      </trkpt>
      <trkpt lat="45.6309" lon="6.6921">
        <ele>2471</ele>
        <time>2020-01-15T14:25:10.000Z</time>
      </trkpt>
      <trkpt lat="45.6309" lon="6.6921">
        <ele>2470.8000488281</ele>
        <time>2020-01-15T14:25:22.000Z</time>
      </trkpt>
      <trkpt lat="45.6309" lon="6.6921">
        <ele>2471</ele>
        <time>2020-01-15T14:25:34.000Z</time>
      </trkpt>
      <trkpt lat="45.6309" lon="6.6921">
        <ele>2471</ele>
        <time>2020-01-15T14:25:46.000Z</time>
      </trkpt>
      <trkpt lat="45.6309" lon="6.6921">
        <ele>2471.1999511719</ele>
        <time>2020-01-15T14:25:57.000Z</time>
      </trkpt>
      <trkpt lat="45.6309" lon="6.6921">
        <ele>2470.8000488281</ele>
        <time>2020-01-15T14:26:10.000Z</time>
      </trkpt>
      <trkpt lat="45.6309" lon="6.6921">
        <ele>2471.1999511719</ele>
        <time>2020-01-15T14:26:22.000Z</time>
      </trkpt>
      <trkpt lat="45.6309" lon="6.6921">
        <ele>2471</ele>
        <time>2020-01-15T14:26:36.000Z</time>
      </trkpt>
      <trkpt lat="45.6309" lon="6.6921">
        <ele>2471</ele>
        <time>2020-01-15T14:26:51.000Z</time>
      </trkpt>
      <trkpt lat="45.6309" lon="6.6921">
        <ele>2471</ele>
        <time>2020-01-15T14:26:54.000Z</time>
      </trkpt>
      <trkpt lat="45.6309" lon="6.69209">
        <ele>2470.8000488281</ele>
        <time>2020-01-15T14:27:08.000Z</time>
      </trkpt>
      <trkpt lat="45.6309" lon="6.69209">
        <ele>2470.8000488281</ele>
        <time>2020-01-15T14:27:24.000Z</time>
      </trkpt>
      <trkpt lat="45.6309" lon="6.69209">
        <ele>2470.6000976562</ele>
        <time>2020-01-15T14:27:27.000Z</time>
      </trkpt>
      <trkpt lat="45.6309" lon="6.69209">
        <ele>2470.1999511719</ele>
        <time>2020-01-15T14:27:43.000Z</time>
      </trkpt>
      <trkpt lat="45.6309" lon="6.69209">
        <ele>2470.3999023438</ele>
        <time>2020-01-15T14:27:57.000Z</time>
      </trkpt>
      <trkpt lat="45.6309" lon="6.69209">
        <ele>2470.3999023438</ele>
        <time>2020-01-15T14:28:13.000Z</time>
      </trkpt>
      <trkpt lat="45.6309" lon="6.6921">
        <ele>2470.6000976562</ele>
        <time>2020-01-15T14:28:32.000Z</time>
      </trkpt>
      <trkpt lat="45.6309" lon="6.6921">
        <ele>2470.8000488281</ele>
        <time>2020-01-15T14:28:37.000Z</time>
      </trkpt>
      <trkpt lat="45.6309" lon="6.6921">
        <ele>2470.6000976562</ele>
        <time>2020-01-15T14:28:47.000Z</time>
      </trkpt>
      <trkpt lat="45.63091" lon="6.69209">
        <ele>2470.8000488281</ele>
        <time>2020-01-15T14:29:04.000Z</time>
      </trkpt>
      <trkpt lat="45.63091" lon="6.69209">
        <ele>2470.6000976562</ele>
        <time>2020-01-15T14:29:19.000Z</time>
      </trkpt>
      <trkpt lat="45.63091" lon="6.69209">
        <ele>2470.6000976562</ele>
        <time>2020-01-15T14:29:34.000Z</time>
      </trkpt>
      <trkpt lat="45.63091" lon="6.69209">
        <ele>2470.3999023438</ele>
        <time>2020-01-15T14:29:45.000Z</time>
      </trkpt>
      <trkpt lat="45.63091" lon="6.69209">
        <ele>2470.3999023438</ele>
        <time>2020-01-15T14:29:57.000Z</time>
      </trkpt>
      <trkpt lat="45.63091" lon="6.69209">
        <ele>2470.6000976562</ele>
        <time>2020-01-15T14:30:11.000Z</time>
      </trkpt>
      <trkpt lat="45.63091" lon="6.69209">
        <ele>2470.3999023438</ele>
        <time>2020-01-15T14:30:19.000Z</time>
      </trkpt>
      <trkpt lat="45.63091" lon="6.69209">
        <ele>2470.3999023438</ele>
        <time>2020-01-15T14:30:24.000Z</time>
      </trkpt>
      <trkpt lat="45.63091" lon="6.69209">
        <ele>2471.1999511719</ele>
        <time>2020-01-15T14:30:33.000Z</time>
      </trkpt>
      <trkpt lat="45.63091" lon="6.69209">
        <ele>2470.3999023438</ele>
        <time>2020-01-15T14:30:46.000Z</time>
      </trkpt>
      <trkpt lat="45.63091" lon="6.69209">
        <ele>2470.3999023438</ele>
        <time>2020-01-15T14:30:59.000Z</time>
      </trkpt>
      <trkpt lat="45.63091" lon="6.6921">
        <ele>2470.6000976562</ele>
        <time>2020-01-15T14:31:09.000Z</time>
      </trkpt>
      <trkpt lat="45.63091" lon="6.6921">
        <ele>2470.3999023438</ele>
        <time>2020-01-15T14:31:25.000Z</time>
      </trkpt>
      <trkpt lat="45.63091" lon="6.6921">
        <ele>2470.3999023438</ele>
        <time>2020-01-15T14:31:45.000Z</time>
      </trkpt>
      <trkpt lat="45.63091" lon="6.6921">
        <ele>2470.3999023438</ele>
        <time>2020-01-15T14:31:57.000Z</time>
      </trkpt>
      <trkpt lat="45.63091" lon="6.6921">
        <ele>2470.3999023438</ele>
        <time>2020-01-15T14:32:19.000Z</time>
      </trkpt>
      <trkpt lat="45.63091" lon="6.6921">
        <ele>2470.3999023438</ele>
        <time>2020-01-15T14:32:32.000Z</time>
      </trkpt>
      <trkpt lat="45.63091" lon="6.6921">
        <ele>2470.6000976562</ele>
        <time>2020-01-15T14:32:39.000Z</time>
      </trkpt>
      <trkpt lat="45.63091" lon="6.6921">
        <ele>2470.6000976562</ele>
        <time>2020-01-15T14:32:47.000Z</time>
      </trkpt>
      <trkpt lat="45.63091" lon="6.6921">
        <ele>2470.1999511719</ele>
        <time>2020-01-15T14:33:01.000Z</time>
      </trkpt>
      <trkpt lat="45.63091" lon="6.6921">
        <ele>2471</ele>
        <time>2020-01-15T14:33:19.000Z</time>
      </trkpt>
      <trkpt lat="45.63091" lon="6.6921">
        <ele>2471.6000976562</ele>
        <time>2020-01-15T14:33:28.000Z</time>
      </trkpt>
      <trkpt lat="45.63091" lon="6.6921">
        <ele>2471.8000488281</ele>
        <time>2020-01-15T14:33:29.000Z</time>
      </trkpt>
      <trkpt lat="45.63091" lon="6.6921">
        <ele>2471.3999023438</ele>
        <time>2020-01-15T14:33:42.000Z</time>
      </trkpt>
      <trkpt lat="45.63091" lon="6.6921">
        <ele>2471.3999023438</ele>
        <time>2020-01-15T14:33:58.000Z</time>
      </trkpt>
      <trkpt lat="45.63091" lon="6.6921">
        <ele>2471.1999511719</ele>
        <time>2020-01-15T14:34:12.000Z</time>
      </trkpt>
      <trkpt lat="45.63091" lon="6.6921">
        <ele>2471.1999511719</ele>
        <time>2020-01-15T14:34:29.000Z</time>
      </trkpt>
      <trkpt lat="45.63091" lon="6.6921">
        <ele>2471.1999511719</ele>
        <time>2020-01-15T14:34:45.000Z</time>
      </trkpt>
      <trkpt lat="45.63091" lon="6.6921">
        <ele>2471.1999511719</ele>
        <time>2020-01-15T14:35:02.000Z</time>
      </trkpt>
      <trkpt lat="45.63091" lon="6.6921">
        <ele>2471.1999511719</ele>
        <time>2020-01-15T14:35:15.000Z</time>
      </trkpt>
      <trkpt lat="45.63091" lon="6.69211">
        <ele>2471.1999511719</ele>
        <time>2020-01-15T14:35:28.000Z</time>
      </trkpt>
      <trkpt lat="45.63091" lon="6.69211">
        <ele>2471.3999023438</ele>
        <time>2020-01-15T14:35:42.000Z</time>
      </trkpt>
      <trkpt lat="45.63091" lon="6.69211">
        <ele>2471.3999023438</ele>
        <time>2020-01-15T14:35:58.000Z</time>
      </trkpt>
      <trkpt lat="45.63091" lon="6.69211">
        <ele>2471.3999023438</ele>
        <time>2020-01-15T14:36:12.000Z</time>
      </trkpt>
      <trkpt lat="45.63091" lon="6.69211">
        <ele>2471.3999023438</ele>
        <time>2020-01-15T14:36:22.000Z</time>
      </trkpt>
      <trkpt lat="45.63091" lon="6.69211">
        <ele>2470.6000976562</ele>
        <time>2020-01-15T14:36:29.000Z</time>
      </trkpt>
      <trkpt lat="45.63091" lon="6.69211">
        <ele>2470.6000976562</ele>
        <time>2020-01-15T14:36:30.000Z</time>
      </trkpt>
      <trkpt lat="45.63091" lon="6.69211">
        <ele>2471.3999023438</ele>
        <time>2020-01-15T14:36:42.000Z</time>
      </trkpt>
      <trkpt lat="45.63091" lon="6.69211">
        <ele>2471.3999023438</ele>
        <time>2020-01-15T14:36:50.000Z</time>
      </trkpt>
      <trkpt lat="45.63091" lon="6.69211">
        <ele>2471.6000976562</ele>
        <time>2020-01-15T14:37:03.000Z</time>
      </trkpt>
      <trkpt lat="45.63091" lon="6.69211">
        <ele>2471.6000976562</ele>
        <time>2020-01-15T14:37:04.000Z</time>
      </trkpt>
      <trkpt lat="45.63091" lon="6.69211">
        <ele>2471.1999511719</ele>
        <time>2020-01-15T14:37:18.000Z</time>
      </trkpt>
      <trkpt lat="45.63091" lon="6.69211">
        <ele>2471.3999023438</ele>
        <time>2020-01-15T14:37:32.000Z</time>
      </trkpt>
      <trkpt lat="45.63091" lon="6.69211">
        <ele>2471.6000976562</ele>
        <time>2020-01-15T14:37:43.000Z</time>
      </trkpt>
      <trkpt lat="45.63091" lon="6.69211">
        <ele>2471.6000976562</ele>
        <time>2020-01-15T14:38:01.000Z</time>
      </trkpt>
      <trkpt lat="45.63091" lon="6.69211">
        <ele>2471.3999023438</ele>
        <time>2020-01-15T14:38:13.000Z</time>
      </trkpt>
      <trkpt lat="45.63091" lon="6.69211">
        <ele>2471.3999023438</ele>
        <time>2020-01-15T14:38:24.000Z</time>
      </trkpt>
      <trkpt lat="45.63091" lon="6.69211">
        <ele>2471.6000976562</ele>
        <time>2020-01-15T14:38:38.000Z</time>
      </trkpt>
      <trkpt lat="45.63091" lon="6.69211">
        <ele>2471.6000976562</ele>
        <time>2020-01-15T14:38:51.000Z</time>
      </trkpt>
      <trkpt lat="45.63091" lon="6.69211">
        <ele>2471.6000976562</ele>
        <time>2020-01-15T14:39:09.000Z</time>
      </trkpt>
      <trkpt lat="45.6309" lon="6.69211">
        <ele>2471.1999511719</ele>
        <time>2020-01-15T14:39:20.000Z</time>
      </trkpt>
      <trkpt lat="45.63089" lon="6.69214">
        <ele>2471</ele>
        <time>2020-01-15T14:39:25.000Z</time>
      </trkpt>
      <trkpt lat="45.63088" lon="6.69215">
        <ele>2470.3999023438</ele>
        <time>2020-01-15T14:39:29.000Z</time>
      </trkpt>
      <trkpt lat="45.63088" lon="6.69215">
        <ele>2470.1999511719</ele>
        <time>2020-01-15T14:39:30.000Z</time>
      </trkpt>
      <trkpt lat="45.63085" lon="6.69219">
        <ele>2469.6000976562</ele>
        <time>2020-01-15T14:39:35.000Z</time>
      </trkpt>
      <trkpt lat="45.63085" lon="6.69219">
        <ele>2469.3999023438</ele>
        <time>2020-01-15T14:39:37.000Z</time>
      </trkpt>
      <trkpt lat="45.63085" lon="6.69219">
        <ele>2468.6000976562</ele>
        <time>2020-01-15T14:39:41.000Z</time>
      </trkpt>
      <trkpt lat="45.63084" lon="6.69218">
        <ele>2468.1999511719</ele>
        <time>2020-01-15T14:39:46.000Z</time>
      </trkpt>
      <trkpt lat="45.63084" lon="6.69217">
        <ele>2467</ele>
        <time>2020-01-15T14:39:49.000Z</time>
      </trkpt>
      <trkpt lat="45.63081" lon="6.69216">
        <ele>2466.8000488281</ele>
        <time>2020-01-15T14:39:50.000Z</time>
      </trkpt>
      <trkpt lat="45.63072" lon="6.69221">
        <ele>2466.3999023438</ele>
        <time>2020-01-15T14:39:53.000Z</time>
      </trkpt>
      <trkpt lat="45.63071" lon="6.69222">
        <ele>2464.6000976562</ele>
        <time>2020-01-15T14:39:55.000Z</time>
      </trkpt>
      <trkpt lat="45.6307" lon="6.69222">
        <ele>2463.3999023438</ele>
        <time>2020-01-15T14:39:56.000Z</time>
      </trkpt>
      <trkpt lat="45.6307" lon="6.69222">
        <ele>2462.3999023438</ele>
        <time>2020-01-15T14:39:57.000Z</time>
      </trkpt>
      <trkpt lat="45.6307" lon="6.69222">
        <ele>2461</ele>
        <time>2020-01-15T14:39:59.000Z</time>
      </trkpt>
      <trkpt lat="45.6307" lon="6.69222">
        <ele>2460.1999511719</ele>
        <time>2020-01-15T14:40:03.000Z</time>
      </trkpt>
      <trkpt lat="45.63065" lon="6.69223">
        <ele>2460</ele>
        <time>2020-01-15T14:40:05.000Z</time>
      </trkpt>
      <trkpt lat="45.63062" lon="6.69224">
        <ele>2460</ele>
        <time>2020-01-15T14:40:06.000Z</time>
      </trkpt>
      <trkpt lat="45.6306" lon="6.69224">
        <ele>2458.8000488281</ele>
        <time>2020-01-15T14:40:09.000Z</time>
      </trkpt>
      <trkpt lat="45.63059" lon="6.69224">
        <ele>2457.3999023438</ele>
        <time>2020-01-15T14:40:11.000Z</time>
      </trkpt>
      <trkpt lat="45.63054" lon="6.69226">
        <ele>2456.1999511719</ele>
        <time>2020-01-15T14:40:13.000Z</time>
      </trkpt>
      <trkpt lat="45.63052" lon="6.69226">
        <ele>2454.6000976562</ele>
        <time>2020-01-15T14:40:16.000Z</time>
      </trkpt>
      <trkpt lat="45.63052" lon="6.69226">
        <ele>2454.1999511719</ele>
        <time>2020-01-15T14:40:17.000Z</time>
      </trkpt>
      <trkpt lat="45.63052" lon="6.69226">
        <ele>2453.1999511719</ele>
        <time>2020-01-15T14:40:19.000Z</time>
      </trkpt>
      <trkpt lat="45.63051" lon="6.69226">
        <ele>2452.6000976562</ele>
        <time>2020-01-15T14:40:22.000Z</time>
      </trkpt>
      <trkpt lat="45.63052" lon="6.69224">
        <ele>2452.3999023438</ele>
        <time>2020-01-15T14:40:23.000Z</time>
      </trkpt>
      <trkpt lat="45.63052" lon="6.69224">
        <ele>2452.1999511719</ele>
        <time>2020-01-15T14:40:24.000Z</time>
      </trkpt>
      <trkpt lat="45.63052" lon="6.69223">
        <ele>2451.1999511719</ele>
        <time>2020-01-15T14:40:26.000Z</time>
      </trkpt>
      <trkpt lat="45.63052" lon="6.69223">
        <ele>2450.6000976562</ele>
        <time>2020-01-15T14:40:27.000Z</time>
      </trkpt>
      <trkpt lat="45.63052" lon="6.69222">
        <ele>2450.1999511719</ele>
        <time>2020-01-15T14:40:28.000Z</time>
      </trkpt>
      <trkpt lat="45.63046" lon="6.69221">
        <ele>2449.6000976562</ele>
        <time>2020-01-15T14:40:30.000Z</time>
      </trkpt>
      <trkpt lat="45.63043" lon="6.6922">
        <ele>2449.1999511719</ele>
        <time>2020-01-15T14:40:32.000Z</time>
      </trkpt>
      <trkpt lat="45.63043" lon="6.69218">
        <ele>2449</ele>
        <time>2020-01-15T14:40:33.000Z</time>
      </trkpt>
      <trkpt lat="45.63043" lon="6.69217">
        <ele>2448.6000976562</ele>
        <time>2020-01-15T14:40:34.000Z</time>
      </trkpt>
      <trkpt lat="45.63042" lon="6.69217">
        <ele>2447</ele>
        <time>2020-01-15T14:40:36.000Z</time>
      </trkpt>
      <trkpt lat="45.63042" lon="6.69217">
        <ele>2445.6000976562</ele>
        <time>2020-01-15T14:40:38.000Z</time>
      </trkpt>
      <trkpt lat="45.63041" lon="6.69217">
        <ele>2444.8000488281</ele>
        <time>2020-01-15T14:40:39.000Z</time>
      </trkpt>
      <trkpt lat="45.63038" lon="6.69216">
        <ele>2444.3999023438</ele>
        <time>2020-01-15T14:40:40.000Z</time>
      </trkpt>
      <trkpt lat="45.63031" lon="6.69217">
        <ele>2443.3999023438</ele>
        <time>2020-01-15T14:40:42.000Z</time>
      </trkpt>
      <trkpt lat="45.63029" lon="6.69217">
        <ele>2442.1999511719</ele>
        <time>2020-01-15T14:40:43.000Z</time>
      </trkpt>
      <trkpt lat="45.63028" lon="6.69217">
        <ele>2440.3999023438</ele>
        <time>2020-01-15T14:40:45.000Z</time>
      </trkpt>
      <trkpt lat="45.63028" lon="6.69217">
        <ele>2439</ele>
        <time>2020-01-15T14:40:47.000Z</time>
      </trkpt>
      <trkpt lat="45.63028" lon="6.69217">
        <ele>2437.8000488281</ele>
        <time>2020-01-15T14:40:50.000Z</time>
      </trkpt>
      <trkpt lat="45.63028" lon="6.69216">
        <ele>2437.3999023438</ele>
        <time>2020-01-15T14:40:56.000Z</time>
      </trkpt>
      <trkpt lat="45.63025" lon="6.69216">
        <ele>2437.3999023438</ele>
        <time>2020-01-15T14:40:57.000Z</time>
      </trkpt>
      <trkpt lat="45.63014" lon="6.69217">
        <ele>2436.8000488281</ele>
        <time>2020-01-15T14:41:02.000Z</time>
      </trkpt>
      <trkpt lat="45.63014" lon="6.69217">
        <ele>2435.6000976562</ele>
        <time>2020-01-15T14:41:04.000Z</time>
      </trkpt>
      <trkpt lat="45.63014" lon="6.69216">
        <ele>2434.6000976562</ele>
        <time>2020-01-15T14:41:06.000Z</time>
      </trkpt>
      <trkpt lat="45.63016" lon="6.69213">
        <ele>2434</ele>
        <time>2020-01-15T14:41:07.000Z</time>
      </trkpt>
      <trkpt lat="45.63018" lon="6.69209">
        <ele>2432.8000488281</ele>
        <time>2020-01-15T14:41:09.000Z</time>
      </trkpt>
      <trkpt lat="45.63018" lon="6.69209">
        <ele>2431.6000976562</ele>
        <time>2020-01-15T14:41:12.000Z</time>
      </trkpt>
      <trkpt lat="45.63017" lon="6.69207">
        <ele>2431</ele>
        <time>2020-01-15T14:41:14.000Z</time>
      </trkpt>
      <trkpt lat="45.63008" lon="6.69204">
        <ele>2430.3999023438</ele>
        <time>2020-01-15T14:41:16.000Z</time>
      </trkpt>
      <trkpt lat="45.63003" lon="6.69204">
        <ele>2430.1999511719</ele>
        <time>2020-01-15T14:41:17.000Z</time>
      </trkpt>
      <trkpt lat="45.62994" lon="6.69203">
        <ele>2428.3999023438</ele>
        <time>2020-01-15T14:41:20.000Z</time>
      </trkpt>
      <trkpt lat="45.62994" lon="6.69203">
        <ele>2427.3999023438</ele>
        <time>2020-01-15T14:41:21.000Z</time>
      </trkpt>
      <trkpt lat="45.62994" lon="6.69203">
        <ele>2426.3999023438</ele>
        <time>2020-01-15T14:41:22.000Z</time>
      </trkpt>
      <trkpt lat="45.62994" lon="6.69203">
        <ele>2424.8000488281</ele>
        <time>2020-01-15T14:41:24.000Z</time>
      </trkpt>
      <trkpt lat="45.62994" lon="6.69203">
        <ele>2424</ele>
        <time>2020-01-15T14:41:26.000Z</time>
      </trkpt>
      <trkpt lat="45.62994" lon="6.69203">
        <ele>2423.8000488281</ele>
        <time>2020-01-15T14:41:29.000Z</time>
      </trkpt>
      <trkpt lat="45.62994" lon="6.69203">
        <ele>2423.8000488281</ele>
        <time>2020-01-15T14:41:40.000Z</time>
      </trkpt>
      <trkpt lat="45.62993" lon="6.69202">
        <ele>2423.8000488281</ele>
        <time>2020-01-15T14:41:54.000Z</time>
      </trkpt>
      <trkpt lat="45.62995" lon="6.69193">
        <ele>2423.1999511719</ele>
        <time>2020-01-15T14:41:58.000Z</time>
      </trkpt>
      <trkpt lat="45.62992" lon="6.69189">
        <ele>2422.3999023438</ele>
        <time>2020-01-15T14:41:59.000Z</time>
      </trkpt>
      <trkpt lat="45.62988" lon="6.69187">
        <ele>2421.8000488281</ele>
        <time>2020-01-15T14:42:00.000Z</time>
      </trkpt>
      <trkpt lat="45.62985" lon="6.69187">
        <ele>2421.1999511719</ele>
        <time>2020-01-15T14:42:01.000Z</time>
      </trkpt>
      <trkpt lat="45.62979" lon="6.69188">
        <ele>2420</ele>
        <time>2020-01-15T14:42:03.000Z</time>
      </trkpt>
      <trkpt lat="45.62978" lon="6.69187">
        <ele>2418.8000488281</ele>
        <time>2020-01-15T14:42:04.000Z</time>
      </trkpt>
      <trkpt lat="45.62979" lon="6.69184">
        <ele>2417.3999023438</ele>
        <time>2020-01-15T14:42:05.000Z</time>
      </trkpt>
      <trkpt lat="45.62979" lon="6.6918">
        <ele>2416</ele>
        <time>2020-01-15T14:42:06.000Z</time>
      </trkpt>
      <trkpt lat="45.62976" lon="6.69176">
        <ele>2414.6000976562</ele>
        <time>2020-01-15T14:42:07.000Z</time>
      </trkpt>
      <trkpt lat="45.62976" lon="6.69172">
        <ele>2413.3999023438</ele>
        <time>2020-01-15T14:42:08.000Z</time>
      </trkpt>
      <trkpt lat="45.62978" lon="6.69167">
        <ele>2412.6000976562</ele>
        <time>2020-01-15T14:42:09.000Z</time>
      </trkpt>
      <trkpt lat="45.62977" lon="6.69158">
        <ele>2411.6000976562</ele>
        <time>2020-01-15T14:42:10.000Z</time>
      </trkpt>
      <trkpt lat="45.62974" lon="6.69151">
        <ele>2409.8000488281</ele>
        <time>2020-01-15T14:42:11.000Z</time>
      </trkpt>
      <trkpt lat="45.62972" lon="6.69144">
        <ele>2407.8000488281</ele>
        <time>2020-01-15T14:42:12.000Z</time>
      </trkpt>
      <trkpt lat="45.62972" lon="6.69136">
        <ele>2406</ele>
        <time>2020-01-15T14:42:13.000Z</time>
      </trkpt>
      <trkpt lat="45.62973" lon="6.69128">
        <ele>2404.3999023438</ele>
        <time>2020-01-15T14:42:14.000Z</time>
      </trkpt>
      <trkpt lat="45.62976" lon="6.69121">
        <ele>2402.3999023438</ele>
        <time>2020-01-15T14:42:15.000Z</time>
      </trkpt>
      <trkpt lat="45.62975" lon="6.69115">
        <ele>2400</ele>
        <time>2020-01-15T14:42:16.000Z</time>
      </trkpt>
      <trkpt lat="45.62973" lon="6.6911">
        <ele>2397.8000488281</ele>
        <time>2020-01-15T14:42:17.000Z</time>
      </trkpt>
      <trkpt lat="45.62973" lon="6.69105">
        <ele>2396.1999511719</ele>
        <time>2020-01-15T14:42:18.000Z</time>
      </trkpt>
      <trkpt lat="45.62974" lon="6.69099">
        <ele>2393.1999511719</ele>
        <time>2020-01-15T14:42:19.000Z</time>
      </trkpt>
      <trkpt lat="45.62975" lon="6.69089">
        <ele>2391.3999023438</ele>
        <time>2020-01-15T14:42:20.000Z</time>
      </trkpt>
      <trkpt lat="45.62973" lon="6.6908">
        <ele>2389.6000976562</ele>
        <time>2020-01-15T14:42:21.000Z</time>
      </trkpt>
      <trkpt lat="45.62971" lon="6.69074">
        <ele>2388.1999511719</ele>
        <time>2020-01-15T14:42:22.000Z</time>
      </trkpt>
      <trkpt lat="45.62969" lon="6.69069">
        <ele>2386.8000488281</ele>
        <time>2020-01-15T14:42:23.000Z</time>
      </trkpt>
      <trkpt lat="45.62968" lon="6.69075">
        <ele>2385.1999511719</ele>
        <time>2020-01-15T14:42:24.000Z</time>
      </trkpt>
      <trkpt lat="45.62969" lon="6.69075">
        <ele>2383.3999023438</ele>
        <time>2020-01-15T14:42:25.000Z</time>
      </trkpt>
      <trkpt lat="45.62969" lon="6.69075">
        <ele>2381.6000976562</ele>
        <time>2020-01-15T14:42:26.000Z</time>
      </trkpt>
      <trkpt lat="45.62969" lon="6.69075">
        <ele>2380</ele>
        <time>2020-01-15T14:42:27.000Z</time>
      </trkpt>
      <trkpt lat="45.62968" lon="6.69075">
        <ele>2379</ele>
        <time>2020-01-15T14:42:28.000Z</time>
      </trkpt>
      <trkpt lat="45.62968" lon="6.69084">
        <ele>2378</ele>
        <time>2020-01-15T14:42:30.000Z</time>
      </trkpt>
      <trkpt lat="45.62967" lon="6.69086">
        <ele>2377.8000488281</ele>
        <time>2020-01-15T14:42:32.000Z</time>
      </trkpt>
      <trkpt lat="45.62963" lon="6.69079">
        <ele>2377.8000488281</ele>
        <time>2020-01-15T14:42:34.000Z</time>
      </trkpt>
      <trkpt lat="45.62965" lon="6.69066">
        <ele>2377.6000976562</ele>
        <time>2020-01-15T14:42:36.000Z</time>
      </trkpt>
      <trkpt lat="45.62965" lon="6.69059">
        <ele>2377.3999023438</ele>
        <time>2020-01-15T14:42:37.000Z</time>
      </trkpt>
      <trkpt lat="45.62964" lon="6.69051">
        <ele>2376.6000976562</ele>
        <time>2020-01-15T14:42:38.000Z</time>
      </trkpt>
      <trkpt lat="45.62966" lon="6.69044">
        <ele>2375.8000488281</ele>
        <time>2020-01-15T14:42:39.000Z</time>
      </trkpt>
      <trkpt lat="45.62964" lon="6.69037">
        <ele>2375</ele>
        <time>2020-01-15T14:42:40.000Z</time>
      </trkpt>
      <trkpt lat="45.62962" lon="6.69029">
        <ele>2374</ele>
        <time>2020-01-15T14:42:41.000Z</time>
      </trkpt>
      <trkpt lat="45.62961" lon="6.69021">
        <ele>2372.6000976562</ele>
        <time>2020-01-15T14:42:42.000Z</time>
      </trkpt>
      <trkpt lat="45.62959" lon="6.69014">
        <ele>2371</ele>
        <time>2020-01-15T14:42:43.000Z</time>
      </trkpt>
      <trkpt lat="45.62957" lon="6.69006">
        <ele>2368.3999023438</ele>
        <time>2020-01-15T14:42:44.000Z</time>
      </trkpt>
      <trkpt lat="45.62956" lon="6.69">
        <ele>2367</ele>
        <time>2020-01-15T14:42:45.000Z</time>
      </trkpt>
      <trkpt lat="45.62954" lon="6.68993">
        <ele>2365.8000488281</ele>
        <time>2020-01-15T14:42:46.000Z</time>
      </trkpt>
      <trkpt lat="45.62954" lon="6.68989">
        <ele>2364.3999023438</ele>
        <time>2020-01-15T14:42:47.000Z</time>
      </trkpt>
      <trkpt lat="45.62956" lon="6.68984">
        <ele>2363</ele>
        <time>2020-01-15T14:42:48.000Z</time>
      </trkpt>
      <trkpt lat="45.62958" lon="6.68978">
        <ele>2361.6000976562</ele>
        <time>2020-01-15T14:42:49.000Z</time>
      </trkpt>
      <trkpt lat="45.62959" lon="6.6897">
        <ele>2360.1999511719</ele>
        <time>2020-01-15T14:42:50.000Z</time>
      </trkpt>
      <trkpt lat="45.62957" lon="6.68966">
        <ele>2359.1999511719</ele>
        <time>2020-01-15T14:42:51.000Z</time>
      </trkpt>
      <trkpt lat="45.62955" lon="6.68962">
        <ele>2357.8000488281</ele>
        <time>2020-01-15T14:42:52.000Z</time>
      </trkpt>
      <trkpt lat="45.62953" lon="6.68957">
        <ele>2356.1999511719</ele>
        <time>2020-01-15T14:42:53.000Z</time>
      </trkpt>
      <trkpt lat="45.62952" lon="6.68948">
        <ele>2354.6000976562</ele>
        <time>2020-01-15T14:42:54.000Z</time>
      </trkpt>
      <trkpt lat="45.6295" lon="6.68941">
        <ele>2353.3999023438</ele>
        <time>2020-01-15T14:42:55.000Z</time>
      </trkpt>
      <trkpt lat="45.62951" lon="6.68931">
        <ele>2352.3999023438</ele>
        <time>2020-01-15T14:42:56.000Z</time>
      </trkpt>
      <trkpt lat="45.62951" lon="6.68924">
        <ele>2351.1999511719</ele>
        <time>2020-01-15T14:42:57.000Z</time>
      </trkpt>
      <trkpt lat="45.62952" lon="6.6892">
        <ele>2349.8000488281</ele>
        <time>2020-01-15T14:42:58.000Z</time>
      </trkpt>
      <trkpt lat="45.62951" lon="6.68916">
        <ele>2348.6000976562</ele>
        <time>2020-01-15T14:42:59.000Z</time>
      </trkpt>
      <trkpt lat="45.62952" lon="6.68914">
        <ele>2347.1999511719</ele>
        <time>2020-01-15T14:43:01.000Z</time>
      </trkpt>
      <trkpt lat="45.62952" lon="6.68914">
        <ele>2346.6000976562</ele>
        <time>2020-01-15T14:43:02.000Z</time>
      </trkpt>
      <trkpt lat="45.62952" lon="6.68914">
        <ele>2346</ele>
        <time>2020-01-15T14:43:03.000Z</time>
      </trkpt>
      <trkpt lat="45.62952" lon="6.68914">
        <ele>2345.6000976562</ele>
        <time>2020-01-15T14:43:12.000Z</time>
      </trkpt>
      <trkpt lat="45.62951" lon="6.68914">
        <ele>2345.3999023438</ele>
        <time>2020-01-15T14:43:14.000Z</time>
      </trkpt>
      <trkpt lat="45.62947" lon="6.6891">
        <ele>2345.1999511719</ele>
        <time>2020-01-15T14:43:16.000Z</time>
      </trkpt>
      <trkpt lat="45.6294" lon="6.68925">
        <ele>2345</ele>
        <time>2020-01-15T14:43:18.000Z</time>
      </trkpt>
      <trkpt lat="45.62933" lon="6.6893">
        <ele>2343.3999023438</ele>
        <time>2020-01-15T14:43:21.000Z</time>
      </trkpt>
      <trkpt lat="45.62932" lon="6.68923">
        <ele>2342.1999511719</ele>
        <time>2020-01-15T14:43:22.000Z</time>
      </trkpt>
      <trkpt lat="45.62931" lon="6.68916">
        <ele>2340.6000976562</ele>
        <time>2020-01-15T14:43:23.000Z</time>
      </trkpt>
      <trkpt lat="45.6293" lon="6.68911">
        <ele>2339.1999511719</ele>
        <time>2020-01-15T14:43:24.000Z</time>
      </trkpt>
      <trkpt lat="45.62927" lon="6.68911">
        <ele>2337.8000488281</ele>
        <time>2020-01-15T14:43:26.000Z</time>
      </trkpt>
      <trkpt lat="45.62921" lon="6.68922">
        <ele>2336</ele>
        <time>2020-01-15T14:43:28.000Z</time>
      </trkpt>
      <trkpt lat="45.62919" lon="6.68924">
        <ele>2334.8000488281</ele>
        <time>2020-01-15T14:43:29.000Z</time>
      </trkpt>
      <trkpt lat="45.62917" lon="6.68925">
        <ele>2333.6000976562</ele>
        <time>2020-01-15T14:43:30.000Z</time>
      </trkpt>
      <trkpt lat="45.62912" lon="6.68926">
        <ele>2332</ele>
        <time>2020-01-15T14:43:31.000Z</time>
      </trkpt>
      <trkpt lat="45.62908" lon="6.68926">
        <ele>2328.6000976562</ele>
        <time>2020-01-15T14:43:32.000Z</time>
      </trkpt>
      <trkpt lat="45.62905" lon="6.68921">
        <ele>2327.3999023438</ele>
        <time>2020-01-15T14:43:33.000Z</time>
      </trkpt>
      <trkpt lat="45.62902" lon="6.68914">
        <ele>2326</ele>
        <time>2020-01-15T14:43:34.000Z</time>
      </trkpt>
      <trkpt lat="45.62898" lon="6.68905">
        <ele>2324.3999023438</ele>
        <time>2020-01-15T14:43:35.000Z</time>
      </trkpt>
      <trkpt lat="45.62898" lon="6.68894">
        <ele>2322.6000976562</ele>
        <time>2020-01-15T14:43:36.000Z</time>
      </trkpt>
      <trkpt lat="45.62896" lon="6.68884">
        <ele>2321</ele>
        <time>2020-01-15T14:43:37.000Z</time>
      </trkpt>
      <trkpt lat="45.62893" lon="6.68877">
        <ele>2319.6000976562</ele>
        <time>2020-01-15T14:43:38.000Z</time>
      </trkpt>
      <trkpt lat="45.62891" lon="6.68871">
        <ele>2318</ele>
        <time>2020-01-15T14:43:39.000Z</time>
      </trkpt>
      <trkpt lat="45.6289" lon="6.68866">
        <ele>2316.8000488281</ele>
        <time>2020-01-15T14:43:40.000Z</time>
      </trkpt>
      <trkpt lat="45.6289" lon="6.68864">
        <ele>2315.6000976562</ele>
        <time>2020-01-15T14:43:41.000Z</time>
      </trkpt>
      <trkpt lat="45.62887" lon="6.68865">
        <ele>2314.8000488281</ele>
        <time>2020-01-15T14:43:42.000Z</time>
      </trkpt>
      <trkpt lat="45.62883" lon="6.68864">
        <ele>2313.8000488281</ele>
        <time>2020-01-15T14:43:43.000Z</time>
      </trkpt>
      <trkpt lat="45.6288" lon="6.68862">
        <ele>2312.8000488281</ele>
        <time>2020-01-15T14:43:44.000Z</time>
      </trkpt>
      <trkpt lat="45.62877" lon="6.68868">
        <ele>2311.6000976562</ele>
        <time>2020-01-15T14:43:45.000Z</time>
      </trkpt>
      <trkpt lat="45.62872" lon="6.68875">
        <ele>2310.3999023438</ele>
        <time>2020-01-15T14:43:46.000Z</time>
      </trkpt>
      <trkpt lat="45.62867" lon="6.68877">
        <ele>2309.1999511719</ele>
        <time>2020-01-15T14:43:47.000Z</time>
      </trkpt>
      <trkpt lat="45.62861" lon="6.68873">
        <ele>2307.6000976562</ele>
        <time>2020-01-15T14:43:48.000Z</time>
      </trkpt>
      <trkpt lat="45.62854" lon="6.68868">
        <ele>2305.6000976562</ele>
        <time>2020-01-15T14:43:49.000Z</time>
      </trkpt>
      <trkpt lat="45.62846" lon="6.68862">
        <ele>2303.6000976562</ele>
        <time>2020-01-15T14:43:50.000Z</time>
      </trkpt>
      <trkpt lat="45.6284" lon="6.68854">
        <ele>2302</ele>
        <time>2020-01-15T14:43:51.000Z</time>
      </trkpt>
      <trkpt lat="45.62833" lon="6.68848">
        <ele>2300.3999023438</ele>
        <time>2020-01-15T14:43:52.000Z</time>
      </trkpt>
      <trkpt lat="45.62826" lon="6.68839">
        <ele>2298.8000488281</ele>
        <time>2020-01-15T14:43:53.000Z</time>
      </trkpt>
      <trkpt lat="45.6282" lon="6.6883">
        <ele>2296.6000976562</ele>
        <time>2020-01-15T14:43:54.000Z</time>
      </trkpt>
      <trkpt lat="45.62813" lon="6.68821">
        <ele>2294.3999023438</ele>
        <time>2020-01-15T14:43:55.000Z</time>
      </trkpt>
      <trkpt lat="45.62808" lon="6.6881">
        <ele>2290.3999023438</ele>
        <time>2020-01-15T14:43:56.000Z</time>
      </trkpt>
      <trkpt lat="45.62805" lon="6.68802">
        <ele>2288.8000488281</ele>
        <time>2020-01-15T14:43:57.000Z</time>
      </trkpt>
      <trkpt lat="45.62802" lon="6.68793">
        <ele>2287.6000976562</ele>
        <time>2020-01-15T14:43:58.000Z</time>
      </trkpt>
      <trkpt lat="45.62799" lon="6.68786">
        <ele>2286.6000976562</ele>
        <time>2020-01-15T14:43:59.000Z</time>
      </trkpt>
      <trkpt lat="45.62797" lon="6.68778">
        <ele>2285.6000976562</ele>
        <time>2020-01-15T14:44:00.000Z</time>
      </trkpt>
      <trkpt lat="45.62795" lon="6.68771">
        <ele>2284.8000488281</ele>
        <time>2020-01-15T14:44:01.000Z</time>
      </trkpt>
      <trkpt lat="45.62792" lon="6.68765">
        <ele>2283.6000976562</ele>
        <time>2020-01-15T14:44:02.000Z</time>
      </trkpt>
      <trkpt lat="45.62792" lon="6.68763">
        <ele>2282.3999023438</ele>
        <time>2020-01-15T14:44:03.000Z</time>
      </trkpt>
      <trkpt lat="45.62791" lon="6.6876">
        <ele>2281</ele>
        <time>2020-01-15T14:44:05.000Z</time>
      </trkpt>
      <trkpt lat="45.62789" lon="6.68764">
        <ele>2280.3999023438</ele>
        <time>2020-01-15T14:44:07.000Z</time>
      </trkpt>
      <trkpt lat="45.62791" lon="6.68786">
        <ele>2280</ele>
        <time>2020-01-15T14:44:09.000Z</time>
      </trkpt>
      <trkpt lat="45.62791" lon="6.68797">
        <ele>2279.8000488281</ele>
        <time>2020-01-15T14:44:10.000Z</time>
      </trkpt>
      <trkpt lat="45.62787" lon="6.68814">
        <ele>2278</ele>
        <time>2020-01-15T14:44:12.000Z</time>
      </trkpt>
      <trkpt lat="45.62783" lon="6.68822">
        <ele>2277</ele>
        <time>2020-01-15T14:44:13.000Z</time>
      </trkpt>
      <trkpt lat="45.62778" lon="6.68836">
        <ele>2275.1999511719</ele>
        <time>2020-01-15T14:44:15.000Z</time>
      </trkpt>
      <trkpt lat="45.62773" lon="6.68848">
        <ele>2273.1999511719</ele>
        <time>2020-01-15T14:44:17.000Z</time>
      </trkpt>
      <trkpt lat="45.6277" lon="6.68853">
        <ele>2272.1999511719</ele>
        <time>2020-01-15T14:44:18.000Z</time>
      </trkpt>
      <trkpt lat="45.62765" lon="6.68862">
        <ele>2269.8000488281</ele>
        <time>2020-01-15T14:44:20.000Z</time>
      </trkpt>
      <trkpt lat="45.62763" lon="6.68862">
        <ele>2269.1999511719</ele>
        <time>2020-01-15T14:44:21.000Z</time>
      </trkpt>
      <trkpt lat="45.62761" lon="6.6886">
        <ele>2268.6000976562</ele>
        <time>2020-01-15T14:44:22.000Z</time>
      </trkpt>
      <trkpt lat="45.62756" lon="6.68853">
        <ele>2266.3999023438</ele>
        <time>2020-01-15T14:44:24.000Z</time>
      </trkpt>
      <trkpt lat="45.62754" lon="6.68851">
        <ele>2265.3999023438</ele>
        <time>2020-01-15T14:44:25.000Z</time>
      </trkpt>
      <trkpt lat="45.62751" lon="6.68851">
        <ele>2264.6000976562</ele>
        <time>2020-01-15T14:44:26.000Z</time>
      </trkpt>
      <trkpt lat="45.62748" lon="6.68852">
        <ele>2264</ele>
        <time>2020-01-15T14:44:27.000Z</time>
      </trkpt>
      <trkpt lat="45.62746" lon="6.68849">
        <ele>2263.3999023438</ele>
        <time>2020-01-15T14:44:28.000Z</time>
      </trkpt>
      <trkpt lat="45.62743" lon="6.68846">
        <ele>2262</ele>
        <time>2020-01-15T14:44:29.000Z</time>
      </trkpt>
      <trkpt lat="45.62741" lon="6.68843">
        <ele>2260.1999511719</ele>
        <time>2020-01-15T14:44:30.000Z</time>
      </trkpt>
      <trkpt lat="45.62737" lon="6.68837">
        <ele>2258.3999023438</ele>
        <time>2020-01-15T14:44:31.000Z</time>
      </trkpt>
      <trkpt lat="45.62732" lon="6.68838">
        <ele>2257</ele>
        <time>2020-01-15T14:44:32.000Z</time>
      </trkpt>
      <trkpt lat="45.62729" lon="6.68841">
        <ele>2255.6000976562</ele>
        <time>2020-01-15T14:44:33.000Z</time>
      </trkpt>
      <trkpt lat="45.62725" lon="6.68846">
        <ele>2254.6000976562</ele>
        <time>2020-01-15T14:44:34.000Z</time>
      </trkpt>
      <trkpt lat="45.62722" lon="6.68851">
        <ele>2253.6000976562</ele>
        <time>2020-01-15T14:44:35.000Z</time>
      </trkpt>
      <trkpt lat="45.62721" lon="6.68855">
        <ele>2252.8000488281</ele>
        <time>2020-01-15T14:44:36.000Z</time>
      </trkpt>
      <trkpt lat="45.62719" lon="6.68854">
        <ele>2251.6000976562</ele>
        <time>2020-01-15T14:44:37.000Z</time>
      </trkpt>
      <trkpt lat="45.62716" lon="6.68849">
        <ele>2250.3999023438</ele>
        <time>2020-01-15T14:44:38.000Z</time>
      </trkpt>
      <trkpt lat="45.62714" lon="6.68844">
        <ele>2249</ele>
        <time>2020-01-15T14:44:39.000Z</time>
      </trkpt>
      <trkpt lat="45.62711" lon="6.68838">
        <ele>2247.8000488281</ele>
        <time>2020-01-15T14:44:40.000Z</time>
      </trkpt>
      <trkpt lat="45.62709" lon="6.68834">
        <ele>2246.3999023438</ele>
        <time>2020-01-15T14:44:41.000Z</time>
      </trkpt>
      <trkpt lat="45.62705" lon="6.68833">
        <ele>2245.1999511719</ele>
        <time>2020-01-15T14:44:42.000Z</time>
      </trkpt>
      <trkpt lat="45.62701" lon="6.68833">
        <ele>2244</ele>
        <time>2020-01-15T14:44:43.000Z</time>
      </trkpt>
      <trkpt lat="45.62696" lon="6.6883">
        <ele>2241.8000488281</ele>
        <time>2020-01-15T14:44:44.000Z</time>
      </trkpt>
      <trkpt lat="45.62695" lon="6.68823">
        <ele>2240.3999023438</ele>
        <time>2020-01-15T14:44:45.000Z</time>
      </trkpt>
      <trkpt lat="45.62693" lon="6.68815">
        <ele>2239</ele>
        <time>2020-01-15T14:44:46.000Z</time>
      </trkpt>
      <trkpt lat="45.62691" lon="6.68807">
        <ele>2237.3999023438</ele>
        <time>2020-01-15T14:44:47.000Z</time>
      </trkpt>
      <trkpt lat="45.62689" lon="6.688">
        <ele>2236</ele>
        <time>2020-01-15T14:44:48.000Z</time>
      </trkpt>
      <trkpt lat="45.62688" lon="6.68798">
        <ele>2234.8000488281</ele>
        <time>2020-01-15T14:44:49.000Z</time>
      </trkpt>
      <trkpt lat="45.62686" lon="6.68799">
        <ele>2233.6000976562</ele>
        <time>2020-01-15T14:44:50.000Z</time>
      </trkpt>
      <trkpt lat="45.62685" lon="6.68803">
        <ele>2232.3999023438</ele>
        <time>2020-01-15T14:44:51.000Z</time>
      </trkpt>
      <trkpt lat="45.62684" lon="6.68804">
        <ele>2231.1999511719</ele>
        <time>2020-01-15T14:44:52.000Z</time>
      </trkpt>
      <trkpt lat="45.62682" lon="6.688">
        <ele>2229.8000488281</ele>
        <time>2020-01-15T14:44:53.000Z</time>
      </trkpt>
      <trkpt lat="45.6268" lon="6.68794">
        <ele>2228.1999511719</ele>
        <time>2020-01-15T14:44:54.000Z</time>
      </trkpt>
      <trkpt lat="45.62678" lon="6.68787">
        <ele>2226.3999023438</ele>
        <time>2020-01-15T14:44:55.000Z</time>
      </trkpt>
      <trkpt lat="45.62677" lon="6.68779">
        <ele>2225.1999511719</ele>
        <time>2020-01-15T14:44:56.000Z</time>
      </trkpt>
      <trkpt lat="45.62675" lon="6.68767">
        <ele>2223.6000976562</ele>
        <time>2020-01-15T14:44:58.000Z</time>
      </trkpt>
      <trkpt lat="45.62675" lon="6.68768">
        <ele>2222.6000976562</ele>
        <time>2020-01-15T14:44:59.000Z</time>
      </trkpt>
      <trkpt lat="45.62675" lon="6.68768">
        <ele>2221.6000976562</ele>
        <time>2020-01-15T14:45:00.000Z</time>
      </trkpt>
      <trkpt lat="45.62675" lon="6.68768">
        <ele>2220</ele>
        <time>2020-01-15T14:45:02.000Z</time>
      </trkpt>
      <trkpt lat="45.62675" lon="6.68768">
        <ele>2219</ele>
        <time>2020-01-15T14:45:05.000Z</time>
      </trkpt>
      <trkpt lat="45.62674" lon="6.68767">
        <ele>2218.8000488281</ele>
        <time>2020-01-15T14:45:08.000Z</time>
      </trkpt>
      <trkpt lat="45.62672" lon="6.68764">
        <ele>2218.6000976562</ele>
        <time>2020-01-15T14:45:09.000Z</time>
      </trkpt>
      <trkpt lat="45.6266" lon="6.68759">
        <ele>2218.3999023438</ele>
        <time>2020-01-15T14:45:12.000Z</time>
      </trkpt>
      <trkpt lat="45.62651" lon="6.68769">
        <ele>2217.8000488281</ele>
        <time>2020-01-15T14:45:14.000Z</time>
      </trkpt>
      <trkpt lat="45.62644" lon="6.68772">
        <ele>2217</ele>
        <time>2020-01-15T14:45:15.000Z</time>
      </trkpt>
      <trkpt lat="45.62638" lon="6.68772">
        <ele>2216.1999511719</ele>
        <time>2020-01-15T14:45:16.000Z</time>
      </trkpt>
      <trkpt lat="45.62635" lon="6.68766">
        <ele>2215</ele>
        <time>2020-01-15T14:45:17.000Z</time>
      </trkpt>
      <trkpt lat="45.62629" lon="6.68759">
        <ele>2213.6000976562</ele>
        <time>2020-01-15T14:45:18.000Z</time>
      </trkpt>
      <trkpt lat="45.62623" lon="6.68755">
        <ele>2212.1999511719</ele>
        <time>2020-01-15T14:45:19.000Z</time>
      </trkpt>
      <trkpt lat="45.62617" lon="6.68757">
        <ele>2210.8000488281</ele>
        <time>2020-01-15T14:45:20.000Z</time>
      </trkpt>
      <trkpt lat="45.62612" lon="6.6876">
        <ele>2209.3999023438</ele>
        <time>2020-01-15T14:45:21.000Z</time>
      </trkpt>
      <trkpt lat="45.62608" lon="6.68765">
        <ele>2207.6000976562</ele>
        <time>2020-01-15T14:45:22.000Z</time>
      </trkpt>
      <trkpt lat="45.62604" lon="6.68772">
        <ele>2206</ele>
        <time>2020-01-15T14:45:23.000Z</time>
      </trkpt>
      <trkpt lat="45.626" lon="6.68777">
        <ele>2204.3999023438</ele>
        <time>2020-01-15T14:45:24.000Z</time>
      </trkpt>
      <trkpt lat="45.62596" lon="6.68779">
        <ele>2203</ele>
        <time>2020-01-15T14:45:25.000Z</time>
      </trkpt>
      <trkpt lat="45.62591" lon="6.68778">
        <ele>2201.8000488281</ele>
        <time>2020-01-15T14:45:26.000Z</time>
      </trkpt>
      <trkpt lat="45.62587" lon="6.68775">
        <ele>2200.8000488281</ele>
        <time>2020-01-15T14:45:27.000Z</time>
      </trkpt>
      <trkpt lat="45.62576" lon="6.68769">
        <ele>2199</ele>
        <time>2020-01-15T14:45:29.000Z</time>
      </trkpt>
      <trkpt lat="45.62567" lon="6.68772">
        <ele>2197.1999511719</ele>
        <time>2020-01-15T14:45:31.000Z</time>
      </trkpt>
      <trkpt lat="45.62563" lon="6.68775">
        <ele>2195.1999511719</ele>
        <time>2020-01-15T14:45:32.000Z</time>
      </trkpt>
      <trkpt lat="45.62558" lon="6.68776">
        <ele>2194</ele>
        <time>2020-01-15T14:45:33.000Z</time>
      </trkpt>
      <trkpt lat="45.62555" lon="6.68772">
        <ele>2192.8000488281</ele>
        <time>2020-01-15T14:45:34.000Z</time>
      </trkpt>
      <trkpt lat="45.62551" lon="6.68767">
        <ele>2191.8000488281</ele>
        <time>2020-01-15T14:45:35.000Z</time>
      </trkpt>
      <trkpt lat="45.62547" lon="6.68767">
        <ele>2190.8000488281</ele>
        <time>2020-01-15T14:45:36.000Z</time>
      </trkpt>
      <trkpt lat="45.62543" lon="6.6877">
        <ele>2189.8000488281</ele>
        <time>2020-01-15T14:45:37.000Z</time>
      </trkpt>
      <trkpt lat="45.62536" lon="6.68776">
        <ele>2188.1999511719</ele>
        <time>2020-01-15T14:45:39.000Z</time>
      </trkpt>
      <trkpt lat="45.62529" lon="6.68774">
        <ele>2186.6000976562</ele>
        <time>2020-01-15T14:45:41.000Z</time>
      </trkpt>
      <trkpt lat="45.62527" lon="6.68769">
        <ele>2185.3999023438</ele>
        <time>2020-01-15T14:45:42.000Z</time>
      </trkpt>
      <trkpt lat="45.62524" lon="6.68763">
        <ele>2184</ele>
        <time>2020-01-15T14:45:43.000Z</time>
      </trkpt>
      <trkpt lat="45.6252" lon="6.6876">
        <ele>2182.8000488281</ele>
        <time>2020-01-15T14:45:44.000Z</time>
      </trkpt>
      <trkpt lat="45.62517" lon="6.68761">
        <ele>2181.3999023438</ele>
        <time>2020-01-15T14:45:46.000Z</time>
      </trkpt>
      <trkpt lat="45.62517" lon="6.68763">
        <ele>2180.8000488281</ele>
        <time>2020-01-15T14:45:47.000Z</time>
      </trkpt>
      <trkpt lat="45.62517" lon="6.68764">
        <ele>2180</ele>
        <time>2020-01-15T14:45:48.000Z</time>
      </trkpt>
      <trkpt lat="45.62517" lon="6.68764">
        <ele>2178.3999023438</ele>
        <time>2020-01-15T14:45:50.000Z</time>
      </trkpt>
      <trkpt lat="45.62517" lon="6.68764">
        <ele>2177.3999023438</ele>
        <time>2020-01-15T14:45:52.000Z</time>
      </trkpt>
      <trkpt lat="45.62517" lon="6.68764">
        <ele>2177.1999511719</ele>
        <time>2020-01-15T14:45:53.000Z</time>
      </trkpt>
      <trkpt lat="45.62517" lon="6.68764">
        <ele>2177.1999511719</ele>
        <time>2020-01-15T14:46:04.000Z</time>
      </trkpt>
      <trkpt lat="45.62517" lon="6.68764">
        <ele>2177.1999511719</ele>
        <time>2020-01-15T14:46:23.000Z</time>
      </trkpt>
      <trkpt lat="45.62516" lon="6.68767">
        <ele>2177.1999511719</ele>
        <time>2020-01-15T14:46:38.000Z</time>
      </trkpt>
      <trkpt lat="45.62511" lon="6.68764">
        <ele>2177.1999511719</ele>
        <time>2020-01-15T14:46:40.000Z</time>
      </trkpt>
      <trkpt lat="45.62509" lon="6.6876">
        <ele>2177.1999511719</ele>
        <time>2020-01-15T14:46:41.000Z</time>
      </trkpt>
      <trkpt lat="45.62496" lon="6.68756">
        <ele>2176</ele>
        <time>2020-01-15T14:46:44.000Z</time>
      </trkpt>
      <trkpt lat="45.6249" lon="6.68757">
        <ele>2175.6000976562</ele>
        <time>2020-01-15T14:46:45.000Z</time>
      </trkpt>
      <trkpt lat="45.62482" lon="6.68757">
        <ele>2174.8000488281</ele>
        <time>2020-01-15T14:46:46.000Z</time>
      </trkpt>
      <trkpt lat="45.62475" lon="6.68756">
        <ele>2173.6000976562</ele>
        <time>2020-01-15T14:46:47.000Z</time>
      </trkpt>
      <trkpt lat="45.62466" lon="6.68755">
        <ele>2172.1999511719</ele>
        <time>2020-01-15T14:46:48.000Z</time>
      </trkpt>
      <trkpt lat="45.62459" lon="6.68753">
        <ele>2170.8000488281</ele>
        <time>2020-01-15T14:46:49.000Z</time>
      </trkpt>
      <trkpt lat="45.62451" lon="6.68752">
        <ele>2169.3999023438</ele>
        <time>2020-01-15T14:46:50.000Z</time>
      </trkpt>
      <trkpt lat="45.62444" lon="6.68751">
        <ele>2168</ele>
        <time>2020-01-15T14:46:51.000Z</time>
      </trkpt>
      <trkpt lat="45.62437" lon="6.6875">
        <ele>2167</ele>
        <time>2020-01-15T14:46:52.000Z</time>
      </trkpt>
      <trkpt lat="45.6243" lon="6.68747">
        <ele>2165.8000488281</ele>
        <time>2020-01-15T14:46:53.000Z</time>
      </trkpt>
      <trkpt lat="45.62423" lon="6.68743">
        <ele>2165</ele>
        <time>2020-01-15T14:46:54.000Z</time>
      </trkpt>
      <trkpt lat="45.62415" lon="6.6874">
        <ele>2164</ele>
        <time>2020-01-15T14:46:55.000Z</time>
      </trkpt>
      <trkpt lat="45.6241" lon="6.68735">
        <ele>2163</ele>
        <time>2020-01-15T14:46:56.000Z</time>
      </trkpt>
      <trkpt lat="45.62405" lon="6.68731">
        <ele>2161.8000488281</ele>
        <time>2020-01-15T14:46:57.000Z</time>
      </trkpt>
      <trkpt lat="45.62403" lon="6.68728">
        <ele>2160.8000488281</ele>
        <time>2020-01-15T14:46:58.000Z</time>
      </trkpt>
      <trkpt lat="45.62399" lon="6.68727">
        <ele>2159.8000488281</ele>
        <time>2020-01-15T14:46:59.000Z</time>
      </trkpt>
      <trkpt lat="45.62396" lon="6.68726">
        <ele>2158.8000488281</ele>
        <time>2020-01-15T14:47:00.000Z</time>
      </trkpt>
      <trkpt lat="45.62392" lon="6.68724">
        <ele>2157</ele>
        <time>2020-01-15T14:47:02.000Z</time>
      </trkpt>
      <trkpt lat="45.6239" lon="6.68722">
        <ele>2156.3999023438</ele>
        <time>2020-01-15T14:47:03.000Z</time>
      </trkpt>
      <trkpt lat="45.62389" lon="6.6872">
        <ele>2156</ele>
        <time>2020-01-15T14:47:04.000Z</time>
      </trkpt>
      <trkpt lat="45.62379" lon="6.68714">
        <ele>2154.3999023438</ele>
        <time>2020-01-15T14:47:08.000Z</time>
      </trkpt>
      <trkpt lat="45.62368" lon="6.68709">
        <ele>2153</ele>
        <time>2020-01-15T14:47:11.000Z</time>
      </trkpt>
      <trkpt lat="45.62363" lon="6.68707">
        <ele>2152</ele>
        <time>2020-01-15T14:47:13.000Z</time>
      </trkpt>
      <trkpt lat="45.62356" lon="6.68703">
        <ele>2150.6000976562</ele>
        <time>2020-01-15T14:47:16.000Z</time>
      </trkpt>
      <trkpt lat="45.6235" lon="6.68696">
        <ele>2149.3999023438</ele>
        <time>2020-01-15T14:47:19.000Z</time>
      </trkpt>
      <trkpt lat="45.6235" lon="6.68686">
        <ele>2148</ele>
        <time>2020-01-15T14:47:21.000Z</time>
      </trkpt>
      <trkpt lat="45.62352" lon="6.68683">
        <ele>2147.3999023438</ele>
        <time>2020-01-15T14:47:22.000Z</time>
      </trkpt>
      <trkpt lat="45.62355" lon="6.68679">
        <ele>2146.3999023438</ele>
        <time>2020-01-15T14:47:23.000Z</time>
      </trkpt>
      <trkpt lat="45.62356" lon="6.68674">
        <ele>2145</ele>
        <time>2020-01-15T14:47:24.000Z</time>
      </trkpt>
      <trkpt lat="45.62357" lon="6.68668">
        <ele>2143.6000976562</ele>
        <time>2020-01-15T14:47:25.000Z</time>
      </trkpt>
      <trkpt lat="45.6236" lon="6.68661">
        <ele>2142.1999511719</ele>
        <time>2020-01-15T14:47:26.000Z</time>
      </trkpt>
      <trkpt lat="45.62363" lon="6.68654">
        <ele>2141.1999511719</ele>
        <time>2020-01-15T14:47:27.000Z</time>
      </trkpt>
      <trkpt lat="45.62367" lon="6.6865">
        <ele>2139.8000488281</ele>
        <time>2020-01-15T14:47:28.000Z</time>
      </trkpt>
      <trkpt lat="45.62368" lon="6.68646">
        <ele>2138.1999511719</ele>
        <time>2020-01-15T14:47:29.000Z</time>
      </trkpt>
      <trkpt lat="45.62368" lon="6.68639">
        <ele>2136</ele>
        <time>2020-01-15T14:47:30.000Z</time>
      </trkpt>
      <trkpt lat="45.62365" lon="6.6863">
        <ele>2134.1999511719</ele>
        <time>2020-01-15T14:47:31.000Z</time>
      </trkpt>
      <trkpt lat="45.62361" lon="6.68623">
        <ele>2131</ele>
        <time>2020-01-15T14:47:32.000Z</time>
      </trkpt>
      <trkpt lat="45.62361" lon="6.68615">
        <ele>2129.6000976562</ele>
        <time>2020-01-15T14:47:33.000Z</time>
      </trkpt>
      <trkpt lat="45.62357" lon="6.68607">
        <ele>2127.8000488281</ele>
        <time>2020-01-15T14:47:34.000Z</time>
      </trkpt>
      <trkpt lat="45.62352" lon="6.68604">
        <ele>2126</ele>
        <time>2020-01-15T14:47:35.000Z</time>
      </trkpt>
      <trkpt lat="45.62348" lon="6.68602">
        <ele>2124</ele>
        <time>2020-01-15T14:47:36.000Z</time>
      </trkpt>
      <trkpt lat="45.62343" lon="6.686">
        <ele>2122.3999023438</ele>
        <time>2020-01-15T14:47:37.000Z</time>
      </trkpt>
      <trkpt lat="45.62337" lon="6.68599">
        <ele>2120.6000976562</ele>
        <time>2020-01-15T14:47:38.000Z</time>
      </trkpt>
      <trkpt lat="45.62332" lon="6.68597">
        <ele>2119.1999511719</ele>
        <time>2020-01-15T14:47:39.000Z</time>
      </trkpt>
      <trkpt lat="45.62327" lon="6.68597">
        <ele>2117.8000488281</ele>
        <time>2020-01-15T14:47:40.000Z</time>
      </trkpt>
      <trkpt lat="45.62321" lon="6.68596">
        <ele>2116.3999023438</ele>
        <time>2020-01-15T14:47:41.000Z</time>
      </trkpt>
      <trkpt lat="45.62315" lon="6.68594">
        <ele>2115.3999023438</ele>
        <time>2020-01-15T14:47:42.000Z</time>
      </trkpt>
      <trkpt lat="45.62309" lon="6.68592">
        <ele>2114.1999511719</ele>
        <time>2020-01-15T14:47:43.000Z</time>
      </trkpt>
      <trkpt lat="45.62303" lon="6.68592">
        <ele>2113.1999511719</ele>
        <time>2020-01-15T14:47:44.000Z</time>
      </trkpt>
      <trkpt lat="45.62298" lon="6.68591">
        <ele>2112</ele>
        <time>2020-01-15T14:47:45.000Z</time>
      </trkpt>
      <trkpt lat="45.62293" lon="6.68592">
        <ele>2110.8000488281</ele>
        <time>2020-01-15T14:47:46.000Z</time>
      </trkpt>
      <trkpt lat="45.62289" lon="6.68593">
        <ele>2109.6000976562</ele>
        <time>2020-01-15T14:47:47.000Z</time>
      </trkpt>
      <trkpt lat="45.62285" lon="6.68594">
        <ele>2108.1999511719</ele>
        <time>2020-01-15T14:47:48.000Z</time>
      </trkpt>
      <trkpt lat="45.62282" lon="6.68594">
        <ele>2107</ele>
        <time>2020-01-15T14:47:49.000Z</time>
      </trkpt>
      <trkpt lat="45.62278" lon="6.68595">
        <ele>2106</ele>
        <time>2020-01-15T14:47:50.000Z</time>
      </trkpt>
      <trkpt lat="45.62272" lon="6.68597">
        <ele>2104.3999023438</ele>
        <time>2020-01-15T14:47:52.000Z</time>
      </trkpt>
      <trkpt lat="45.62265" lon="6.68599">
        <ele>2103.1999511719</ele>
        <time>2020-01-15T14:47:54.000Z</time>
      </trkpt>
      <trkpt lat="45.6226" lon="6.68601">
        <ele>2101.8000488281</ele>
        <time>2020-01-15T14:47:56.000Z</time>
      </trkpt>
      <trkpt lat="45.62256" lon="6.68603">
        <ele>2100.6000976562</ele>
        <time>2020-01-15T14:47:58.000Z</time>
      </trkpt>
      <trkpt lat="45.6225" lon="6.68608">
        <ele>2099.3999023438</ele>
        <time>2020-01-15T14:48:01.000Z</time>
      </trkpt>
      <trkpt lat="45.62249" lon="6.68611">
        <ele>2098.6000976562</ele>
        <time>2020-01-15T14:48:03.000Z</time>
      </trkpt>
      <trkpt lat="45.62249" lon="6.68611">
        <ele>2098.1999511719</ele>
        <time>2020-01-15T14:48:04.000Z</time>
      </trkpt>
      <trkpt lat="45.62249" lon="6.68611">
        <ele>2097.3999023438</ele>
        <time>2020-01-15T14:48:10.000Z</time>
      </trkpt>
      <trkpt lat="45.62249" lon="6.68611">
        <ele>2097.1999511719</ele>
        <time>2020-01-15T14:48:22.000Z</time>
      </trkpt>
      <trkpt lat="45.62247" lon="6.68614">
        <ele>2097.1999511719</ele>
        <time>2020-01-15T14:48:24.000Z</time>
      </trkpt>
      <trkpt lat="45.62248" lon="6.68614">
        <ele>2096.8000488281</ele>
        <time>2020-01-15T14:48:32.000Z</time>
      </trkpt>
      <trkpt lat="45.62246" lon="6.68614">
        <ele>2096.8000488281</ele>
        <time>2020-01-15T14:48:37.000Z</time>
      </trkpt>
      <trkpt lat="45.62244" lon="6.68617">
        <ele>2096.6000976562</ele>
        <time>2020-01-15T14:48:38.000Z</time>
      </trkpt>
      <trkpt lat="45.6224" lon="6.68623">
        <ele>2096</ele>
        <time>2020-01-15T14:48:42.000Z</time>
      </trkpt>
      <trkpt lat="45.6224" lon="6.68623">
        <ele>2095.6000976562</ele>
        <time>2020-01-15T14:48:43.000Z</time>
      </trkpt>
      <trkpt lat="45.6224" lon="6.68623">
        <ele>2094.6000976562</ele>
        <time>2020-01-15T14:48:44.000Z</time>
      </trkpt>
      <trkpt lat="45.62239" lon="6.68622">
        <ele>2094</ele>
        <time>2020-01-15T14:48:46.000Z</time>
      </trkpt>
      <trkpt lat="45.62238" lon="6.68617">
        <ele>2093.6000976562</ele>
        <time>2020-01-15T14:48:47.000Z</time>
      </trkpt>
      <trkpt lat="45.62238" lon="6.68608">
        <ele>2092</ele>
        <time>2020-01-15T14:48:50.000Z</time>
      </trkpt>
      <trkpt lat="45.62236" lon="6.68604">
        <ele>2091.1999511719</ele>
        <time>2020-01-15T14:48:51.000Z</time>
      </trkpt>
      <trkpt lat="45.62234" lon="6.68605">
        <ele>2090.6000976562</ele>
        <time>2020-01-15T14:48:52.000Z</time>
      </trkpt>
      <trkpt lat="45.62229" lon="6.68604">
        <ele>2089.3999023438</ele>
        <time>2020-01-15T14:48:54.000Z</time>
      </trkpt>
      <trkpt lat="45.62229" lon="6.68601">
        <ele>2088.8000488281</ele>
        <time>2020-01-15T14:48:55.000Z</time>
      </trkpt>
      <trkpt lat="45.62229" lon="6.68599">
        <ele>2087.8000488281</ele>
        <time>2020-01-15T14:48:56.000Z</time>
      </trkpt>
      <trkpt lat="45.62227" lon="6.686">
        <ele>2086.6000976562</ele>
        <time>2020-01-15T14:48:57.000Z</time>
      </trkpt>
      <trkpt lat="45.62226" lon="6.68602">
        <ele>2085.1999511719</ele>
        <time>2020-01-15T14:48:58.000Z</time>
      </trkpt>
      <trkpt lat="45.62225" lon="6.68602">
        <ele>2084.1999511719</ele>
        <time>2020-01-15T14:48:59.000Z</time>
      </trkpt>
      <trkpt lat="45.62224" lon="6.68599">
        <ele>2083</ele>
        <time>2020-01-15T14:49:00.000Z</time>
      </trkpt>
      <trkpt lat="45.62223" lon="6.68598">
        <ele>2082</ele>
        <time>2020-01-15T14:49:01.000Z</time>
      </trkpt>
      <trkpt lat="45.62223" lon="6.68596">
        <ele>2080.6000976562</ele>
        <time>2020-01-15T14:49:02.000Z</time>
      </trkpt>
      <trkpt lat="45.62223" lon="6.68596">
        <ele>2079</ele>
        <time>2020-01-15T14:49:03.000Z</time>
      </trkpt>
      <trkpt lat="45.62223" lon="6.68594">
        <ele>2077.8000488281</ele>
        <time>2020-01-15T14:49:04.000Z</time>
      </trkpt>
      <trkpt lat="45.62223" lon="6.68595">
        <ele>2076.6000976562</ele>
        <time>2020-01-15T14:49:06.000Z</time>
      </trkpt>
      <trkpt lat="45.62223" lon="6.68594">
        <ele>2076</ele>
        <time>2020-01-15T14:49:07.000Z</time>
      </trkpt>
      <trkpt lat="45.62223" lon="6.68591">
        <ele>2074.8000488281</ele>
        <time>2020-01-15T14:49:08.000Z</time>
      </trkpt>
      <trkpt lat="45.62224" lon="6.68588">
        <ele>2074.3999023438</ele>
        <time>2020-01-15T14:49:09.000Z</time>
      </trkpt>
      <trkpt lat="45.62225" lon="6.68584">
        <ele>2074</ele>
        <time>2020-01-15T14:49:10.000Z</time>
      </trkpt>
      <trkpt lat="45.62226" lon="6.68578">
        <ele>2073.3999023438</ele>
        <time>2020-01-15T14:49:11.000Z</time>
      </trkpt>
      <trkpt lat="45.62229" lon="6.68566">
        <ele>2072</ele>
        <time>2020-01-15T14:49:13.000Z</time>
      </trkpt>
      <trkpt lat="45.62231" lon="6.68556">
        <ele>2070.3999023438</ele>
        <time>2020-01-15T14:49:15.000Z</time>
      </trkpt>
      <trkpt lat="45.62232" lon="6.68552">
        <ele>2069.3999023438</ele>
        <time>2020-01-15T14:49:16.000Z</time>
      </trkpt>
      <trkpt lat="45.62233" lon="6.68546">
        <ele>2068.1999511719</ele>
        <time>2020-01-15T14:49:17.000Z</time>
      </trkpt>
      <trkpt lat="45.62235" lon="6.68541">
        <ele>2066.6000976562</ele>
        <time>2020-01-15T14:49:19.000Z</time>
      </trkpt>
      <trkpt lat="45.62235" lon="6.68541">
        <ele>2066.1999511719</ele>
        <time>2020-01-15T14:49:20.000Z</time>
      </trkpt>
      <trkpt lat="45.62235" lon="6.68541">
        <ele>2065.6000976562</ele>
        <time>2020-01-15T14:49:21.000Z</time>
      </trkpt>
      <trkpt lat="45.62232" lon="6.68538">
        <ele>2064.1999511719</ele>
        <time>2020-01-15T14:49:24.000Z</time>
      </trkpt>
      <trkpt lat="45.62227" lon="6.68539">
        <ele>2064</ele>
        <time>2020-01-15T14:49:25.000Z</time>
      </trkpt>
      <trkpt lat="45.62219" lon="6.6855">
        <ele>2063.3999023438</ele>
        <time>2020-01-15T14:49:28.000Z</time>
      </trkpt>
      <trkpt lat="45.6222" lon="6.6855">
        <ele>2062.8000488281</ele>
        <time>2020-01-15T14:49:29.000Z</time>
      </trkpt>
      <trkpt lat="45.6222" lon="6.6855">
        <ele>2061.1999511719</ele>
        <time>2020-01-15T14:49:31.000Z</time>
      </trkpt>
      <trkpt lat="45.6222" lon="6.6855">
        <ele>2059.6000976562</ele>
        <time>2020-01-15T14:49:32.000Z</time>
      </trkpt>
      <trkpt lat="45.6222" lon="6.6855">
        <ele>2058.6000976562</ele>
        <time>2020-01-15T14:49:36.000Z</time>
      </trkpt>
      <trkpt lat="45.62219" lon="6.68549">
        <ele>2058.3999023438</ele>
        <time>2020-01-15T14:49:39.000Z</time>
      </trkpt>
      <trkpt lat="45.62219" lon="6.6854">
        <ele>2057.8000488281</ele>
        <time>2020-01-15T14:49:42.000Z</time>
      </trkpt>
      <trkpt lat="45.62219" lon="6.68539">
        <ele>2057.1999511719</ele>
        <time>2020-01-15T14:49:43.000Z</time>
      </trkpt>
      <trkpt lat="45.62219" lon="6.68539">
        <ele>2056.1999511719</ele>
        <time>2020-01-15T14:49:45.000Z</time>
      </trkpt>
      <trkpt lat="45.62219" lon="6.68539">
        <ele>2055.1999511719</ele>
        <time>2020-01-15T14:49:48.000Z</time>
      </trkpt>
      <trkpt lat="45.62218" lon="6.68536">
        <ele>2055.6000976562</ele>
        <time>2020-01-15T14:49:52.000Z</time>
      </trkpt>
      <trkpt lat="45.62217" lon="6.68531">
        <ele>2055.6000976562</ele>
        <time>2020-01-15T14:49:53.000Z</time>
      </trkpt>
      <trkpt lat="45.62215" lon="6.68515">
        <ele>2055</ele>
        <time>2020-01-15T14:49:56.000Z</time>
      </trkpt>
      <trkpt lat="45.62215" lon="6.68512">
        <ele>2054.6000976562</ele>
        <time>2020-01-15T14:49:57.000Z</time>
      </trkpt>
      <trkpt lat="45.62215" lon="6.68511">
        <ele>2053.8000488281</ele>
        <time>2020-01-15T14:49:58.000Z</time>
      </trkpt>
      <trkpt lat="45.62214" lon="6.68509">
        <ele>2052.1999511719</ele>
        <time>2020-01-15T14:50:00.000Z</time>
      </trkpt>
      <trkpt lat="45.62214" lon="6.68508">
        <ele>2051.6000976562</ele>
        <time>2020-01-15T14:50:01.000Z</time>
      </trkpt>
      <trkpt lat="45.62213" lon="6.68506">
        <ele>2051</ele>
        <time>2020-01-15T14:50:02.000Z</time>
      </trkpt>
      <trkpt lat="45.62212" lon="6.68508">
        <ele>2050.6000976562</ele>
        <time>2020-01-15T14:50:03.000Z</time>
      </trkpt>
      <trkpt lat="45.62211" lon="6.68511">
        <ele>2050.1999511719</ele>
        <time>2020-01-15T14:50:04.000Z</time>
      </trkpt>
      <trkpt lat="45.62209" lon="6.68513">
        <ele>2049.8000488281</ele>
        <time>2020-01-15T14:50:05.000Z</time>
      </trkpt>
      <trkpt lat="45.62205" lon="6.68509">
        <ele>2049</ele>
        <time>2020-01-15T14:50:07.000Z</time>
      </trkpt>
      <trkpt lat="45.62205" lon="6.68506">
        <ele>2048</ele>
        <time>2020-01-15T14:50:08.000Z</time>
      </trkpt>
      <trkpt lat="45.62204" lon="6.68503">
        <ele>2046.5999755859</ele>
        <time>2020-01-15T14:50:09.000Z</time>
      </trkpt>
      <trkpt lat="45.62202" lon="6.68501">
        <ele>2045.4000244141</ele>
        <time>2020-01-15T14:50:10.000Z</time>
      </trkpt>
      <trkpt lat="45.62199" lon="6.68503">
        <ele>2043.5999755859</ele>
        <time>2020-01-15T14:50:12.000Z</time>
      </trkpt>
      <trkpt lat="45.62198" lon="6.68506">
        <ele>2042.8000488281</ele>
        <time>2020-01-15T14:50:13.000Z</time>
      </trkpt>
      <trkpt lat="45.62195" lon="6.68507">
        <ele>2041.8000488281</ele>
        <time>2020-01-15T14:50:14.000Z</time>
      </trkpt>
      <trkpt lat="45.62193" lon="6.68505">
        <ele>2040.8000488281</ele>
        <time>2020-01-15T14:50:15.000Z</time>
      </trkpt>
      <trkpt lat="45.62193" lon="6.68501">
        <ele>2039.5999755859</ele>
        <time>2020-01-15T14:50:16.000Z</time>
      </trkpt>
      <trkpt lat="45.62192" lon="6.68495">
        <ele>2038.1999511719</ele>
        <time>2020-01-15T14:50:17.000Z</time>
      </trkpt>
      <trkpt lat="45.62191" lon="6.6849">
        <ele>2036.8000488281</ele>
        <time>2020-01-15T14:50:18.000Z</time>
      </trkpt>
      <trkpt lat="45.6219" lon="6.68485">
        <ele>2035.4000244141</ele>
        <time>2020-01-15T14:50:19.000Z</time>
      </trkpt>
      <trkpt lat="45.62188" lon="6.68484">
        <ele>2033.4000244141</ele>
        <time>2020-01-15T14:50:20.000Z</time>
      </trkpt>
      <trkpt lat="45.62186" lon="6.68487">
        <ele>2032.1999511719</ele>
        <time>2020-01-15T14:50:21.000Z</time>
      </trkpt>
      <trkpt lat="45.62183" lon="6.6849">
        <ele>2031.1999511719</ele>
        <time>2020-01-15T14:50:22.000Z</time>
      </trkpt>
      <trkpt lat="45.62178" lon="6.68487">
        <ele>2028.8000488281</ele>
        <time>2020-01-15T14:50:24.000Z</time>
      </trkpt>
      <trkpt lat="45.62176" lon="6.68489">
        <ele>2027</ele>
        <time>2020-01-15T14:50:25.000Z</time>
      </trkpt>
      <trkpt lat="45.62174" lon="6.68489">
        <ele>2025</ele>
        <time>2020-01-15T14:50:26.000Z</time>
      </trkpt>
      <trkpt lat="45.62172" lon="6.68486">
        <ele>2023.4000244141</ele>
        <time>2020-01-15T14:50:27.000Z</time>
      </trkpt>
      <trkpt lat="45.62171" lon="6.68483">
        <ele>2022</ele>
        <time>2020-01-15T14:50:28.000Z</time>
      </trkpt>
      <trkpt lat="45.62169" lon="6.68481">
        <ele>2020.1999511719</ele>
        <time>2020-01-15T14:50:29.000Z</time>
      </trkpt>
      <trkpt lat="45.62167" lon="6.68482">
        <ele>2018.4000244141</ele>
        <time>2020-01-15T14:50:30.000Z</time>
      </trkpt>
      <trkpt lat="45.62166" lon="6.68484">
        <ele>2016.8000488281</ele>
        <time>2020-01-15T14:50:31.000Z</time>
      </trkpt>
      <trkpt lat="45.62165" lon="6.68487">
        <ele>2015.5999755859</ele>
        <time>2020-01-15T14:50:32.000Z</time>
      </trkpt>
      <trkpt lat="45.62164" lon="6.68489">
        <ele>2014.5999755859</ele>
        <time>2020-01-15T14:50:33.000Z</time>
      </trkpt>
      <trkpt lat="45.62164" lon="6.68489">
        <ele>2013.4000244141</ele>
        <time>2020-01-15T14:50:34.000Z</time>
      </trkpt>
      <trkpt lat="45.62163" lon="6.68491">
        <ele>2012.4000244141</ele>
        <time>2020-01-15T14:50:35.000Z</time>
      </trkpt>
      <trkpt lat="45.6216" lon="6.68489">
        <ele>2011.4000244141</ele>
        <time>2020-01-15T14:50:36.000Z</time>
      </trkpt>
      <trkpt lat="45.62157" lon="6.68489">
        <ele>2010.4000244141</ele>
        <time>2020-01-15T14:50:37.000Z</time>
      </trkpt>
      <trkpt lat="45.62155" lon="6.68493">
        <ele>2009.1999511719</ele>
        <time>2020-01-15T14:50:38.000Z</time>
      </trkpt>
      <trkpt lat="45.62153" lon="6.68497">
        <ele>2008</ele>
        <time>2020-01-15T14:50:39.000Z</time>
      </trkpt>
      <trkpt lat="45.62152" lon="6.68497">
        <ele>2007</ele>
        <time>2020-01-15T14:50:40.000Z</time>
      </trkpt>
      <trkpt lat="45.62153" lon="6.68497">
        <ele>2006</ele>
        <time>2020-01-15T14:50:41.000Z</time>
      </trkpt>
      <trkpt lat="45.62152" lon="6.68496">
        <ele>2004.8000488281</ele>
        <time>2020-01-15T14:50:42.000Z</time>
      </trkpt>
      <trkpt lat="45.62151" lon="6.68497">
        <ele>2003.5999755859</ele>
        <time>2020-01-15T14:50:43.000Z</time>
      </trkpt>
      <trkpt lat="45.6215" lon="6.68496">
        <ele>2001.1999511719</ele>
        <time>2020-01-15T14:50:44.000Z</time>
      </trkpt>
      <trkpt lat="45.6215" lon="6.68494">
        <ele>2000.5999755859</ele>
        <time>2020-01-15T14:50:45.000Z</time>
      </trkpt>
      <trkpt lat="45.62147" lon="6.68493">
        <ele>1999.8000488281</ele>
        <time>2020-01-15T14:50:46.000Z</time>
      </trkpt>
      <trkpt lat="45.62141" lon="6.68499">
        <ele>1998</ele>
        <time>2020-01-15T14:50:48.000Z</time>
      </trkpt>
      <trkpt lat="45.62139" lon="6.685">
        <ele>1996.5999755859</ele>
        <time>2020-01-15T14:50:49.000Z</time>
      </trkpt>
      <trkpt lat="45.62136" lon="6.68497">
        <ele>1995.1999511719</ele>
        <time>2020-01-15T14:50:50.000Z</time>
      </trkpt>
      <trkpt lat="45.62135" lon="6.68493">
        <ele>1993.5999755859</ele>
        <time>2020-01-15T14:50:51.000Z</time>
      </trkpt>
      <trkpt lat="45.62134" lon="6.68487">
        <ele>1991.8000488281</ele>
        <time>2020-01-15T14:50:52.000Z</time>
      </trkpt>
      <trkpt lat="45.62133" lon="6.68481">
        <ele>1990.1999511719</ele>
        <time>2020-01-15T14:50:53.000Z</time>
      </trkpt>
      <trkpt lat="45.62131" lon="6.68479">
        <ele>1988.8000488281</ele>
        <time>2020-01-15T14:50:54.000Z</time>
      </trkpt>
      <trkpt lat="45.62127" lon="6.6848">
        <ele>1987.5999755859</ele>
        <time>2020-01-15T14:50:55.000Z</time>
      </trkpt>
      <trkpt lat="45.62123" lon="6.68479">
        <ele>1986.4000244141</ele>
        <time>2020-01-15T14:50:56.000Z</time>
      </trkpt>
      <trkpt lat="45.62122" lon="6.68479">
        <ele>1985</ele>
        <time>2020-01-15T14:50:57.000Z</time>
      </trkpt>
      <trkpt lat="45.62122" lon="6.68479">
        <ele>1983</ele>
        <time>2020-01-15T14:50:58.000Z</time>
      </trkpt>
      <trkpt lat="45.62122" lon="6.68479">
        <ele>1981</ele>
        <time>2020-01-15T14:50:59.000Z</time>
      </trkpt>
      <trkpt lat="45.6212" lon="6.68478">
        <ele>1979.1999511719</ele>
        <time>2020-01-15T14:51:00.000Z</time>
      </trkpt>
      <trkpt lat="45.62119" lon="6.68478">
        <ele>1977.8000488281</ele>
        <time>2020-01-15T14:51:01.000Z</time>
      </trkpt>
      <trkpt lat="45.62119" lon="6.68479">
        <ele>1976.1999511719</ele>
        <time>2020-01-15T14:51:03.000Z</time>
      </trkpt>
      <trkpt lat="45.62118" lon="6.68478">
        <ele>1975</ele>
        <time>2020-01-15T14:51:06.000Z</time>
      </trkpt>
      <trkpt lat="45.62118" lon="6.68478">
        <ele>1974.4000244141</ele>
        <time>2020-01-15T14:51:11.000Z</time>
      </trkpt>
      <trkpt lat="45.62114" lon="6.6848">
        <ele>1974.4000244141</ele>
        <time>2020-01-15T14:51:14.000Z</time>
      </trkpt>
      <trkpt lat="45.6211" lon="6.68486">
        <ele>1974.5999755859</ele>
        <time>2020-01-15T14:51:17.000Z</time>
      </trkpt>
      <trkpt lat="45.62109" lon="6.68487">
        <ele>1974.1999511719</ele>
        <time>2020-01-15T14:51:20.000Z</time>
      </trkpt>
      <trkpt lat="45.62106" lon="6.68485">
        <ele>1973.8000488281</ele>
        <time>2020-01-15T14:51:21.000Z</time>
      </trkpt>
      <trkpt lat="45.62099" lon="6.68469">
        <ele>1972.4000244141</ele>
        <time>2020-01-15T14:51:24.000Z</time>
      </trkpt>
      <trkpt lat="45.62094" lon="6.68467">
        <ele>1971.5999755859</ele>
        <time>2020-01-15T14:51:25.000Z</time>
      </trkpt>
      <trkpt lat="45.62089" lon="6.6846">
        <ele>1970.8000488281</ele>
        <time>2020-01-15T14:51:26.000Z</time>
      </trkpt>
      <trkpt lat="45.62084" lon="6.68448">
        <ele>1969</ele>
        <time>2020-01-15T14:51:28.000Z</time>
      </trkpt>
      <trkpt lat="45.6208" lon="6.68449">
        <ele>1967.5999755859</ele>
        <time>2020-01-15T14:51:29.000Z</time>
      </trkpt>
      <trkpt lat="45.62076" lon="6.68453">
        <ele>1966</ele>
        <time>2020-01-15T14:51:30.000Z</time>
      </trkpt>
      <trkpt lat="45.62072" lon="6.68456">
        <ele>1964.5999755859</ele>
        <time>2020-01-15T14:51:31.000Z</time>
      </trkpt>
      <trkpt lat="45.62067" lon="6.68459">
        <ele>1961.5999755859</ele>
        <time>2020-01-15T14:51:32.000Z</time>
      </trkpt>
      <trkpt lat="45.62066" lon="6.68462">
        <ele>1960.1999511719</ele>
        <time>2020-01-15T14:51:33.000Z</time>
      </trkpt>
      <trkpt lat="45.62066" lon="6.68462">
        <ele>1958.8000488281</ele>
        <time>2020-01-15T14:51:34.000Z</time>
      </trkpt>
      <trkpt lat="45.62066" lon="6.68461">
        <ele>1957.5999755859</ele>
        <time>2020-01-15T14:51:35.000Z</time>
      </trkpt>
      <trkpt lat="45.62067" lon="6.68461">
        <ele>1956.1999511719</ele>
        <time>2020-01-15T14:51:37.000Z</time>
      </trkpt>
      <trkpt lat="45.62067" lon="6.68461">
        <ele>1955.4000244141</ele>
        <time>2020-01-15T14:51:40.000Z</time>
      </trkpt>
      <trkpt lat="45.62067" lon="6.68461">
        <ele>1955.1999511719</ele>
        <time>2020-01-15T14:51:42.000Z</time>
      </trkpt>
      <trkpt lat="45.62066" lon="6.68461">
        <ele>1955.1999511719</ele>
        <time>2020-01-15T14:51:48.000Z</time>
      </trkpt>
      <trkpt lat="45.62064" lon="6.68461">
        <ele>1955.1999511719</ele>
        <time>2020-01-15T14:51:49.000Z</time>
      </trkpt>
      <trkpt lat="45.62062" lon="6.68451">
        <ele>1955</ele>
        <time>2020-01-15T14:51:52.000Z</time>
      </trkpt>
      <trkpt lat="45.62062" lon="6.68448">
        <ele>1953.5999755859</ele>
        <time>2020-01-15T14:51:55.000Z</time>
      </trkpt>
      <trkpt lat="45.62062" lon="6.68444">
        <ele>1953</ele>
        <time>2020-01-15T14:51:56.000Z</time>
      </trkpt>
      <trkpt lat="45.62061" lon="6.68439">
        <ele>1952.5999755859</ele>
        <time>2020-01-15T14:51:57.000Z</time>
      </trkpt>
      <trkpt lat="45.62057" lon="6.68436">
        <ele>1952.1999511719</ele>
        <time>2020-01-15T14:51:58.000Z</time>
      </trkpt>
      <trkpt lat="45.62047" lon="6.68443">
        <ele>1951</ele>
        <time>2020-01-15T14:52:00.000Z</time>
      </trkpt>
      <trkpt lat="45.62045" lon="6.68445">
        <ele>1949</ele>
        <time>2020-01-15T14:52:02.000Z</time>
      </trkpt>
      <trkpt lat="45.62043" lon="6.68446">
        <ele>1947.8000488281</ele>
        <time>2020-01-15T14:52:03.000Z</time>
      </trkpt>
      <trkpt lat="45.62041" lon="6.68449">
        <ele>1946.5999755859</ele>
        <time>2020-01-15T14:52:04.000Z</time>
      </trkpt>
      <trkpt lat="45.62039" lon="6.68449">
        <ele>1945.8000488281</ele>
        <time>2020-01-15T14:52:05.000Z</time>
      </trkpt>
      <trkpt lat="45.62038" lon="6.68448">
        <ele>1945.1999511719</ele>
        <time>2020-01-15T14:52:06.000Z</time>
      </trkpt>
      <trkpt lat="45.62039" lon="6.68438">
        <ele>1944.1999511719</ele>
        <time>2020-01-15T14:52:08.000Z</time>
      </trkpt>
      <trkpt lat="45.62044" lon="6.68429">
        <ele>1942.8000488281</ele>
        <time>2020-01-15T14:52:10.000Z</time>
      </trkpt>
      <trkpt lat="45.62048" lon="6.68422">
        <ele>1941.4000244141</ele>
        <time>2020-01-15T14:52:12.000Z</time>
      </trkpt>
      <trkpt lat="45.62049" lon="6.6842">
        <ele>1939.4000244141</ele>
        <time>2020-01-15T14:52:14.000Z</time>
      </trkpt>
      <trkpt lat="45.62047" lon="6.68417">
        <ele>1938</ele>
        <time>2020-01-15T14:52:16.000Z</time>
      </trkpt>
      <trkpt lat="45.62045" lon="6.68416">
        <ele>1937.4000244141</ele>
        <time>2020-01-15T14:52:17.000Z</time>
      </trkpt>
      <trkpt lat="45.62044" lon="6.68411">
        <ele>1937</ele>
        <time>2020-01-15T14:52:18.000Z</time>
      </trkpt>
      <trkpt lat="45.62042" lon="6.68404">
        <ele>1935.8000488281</ele>
        <time>2020-01-15T14:52:20.000Z</time>
      </trkpt>
      <trkpt lat="45.62038" lon="6.68405">
        <ele>1933.5999755859</ele>
        <time>2020-01-15T14:52:21.000Z</time>
      </trkpt>
      <trkpt lat="45.62035" lon="6.68404">
        <ele>1932.4000244141</ele>
        <time>2020-01-15T14:52:22.000Z</time>
      </trkpt>
      <trkpt lat="45.62034" lon="6.68399">
        <ele>1931.1999511719</ele>
        <time>2020-01-15T14:52:23.000Z</time>
      </trkpt>
      <trkpt lat="45.62031" lon="6.68396">
        <ele>1929.5999755859</ele>
        <time>2020-01-15T14:52:24.000Z</time>
      </trkpt>
      <trkpt lat="45.62027" lon="6.68396">
        <ele>1927.8000488281</ele>
        <time>2020-01-15T14:52:25.000Z</time>
      </trkpt>
      <trkpt lat="45.62025" lon="6.68395">
        <ele>1926.1999511719</ele>
        <time>2020-01-15T14:52:26.000Z</time>
      </trkpt>
      <trkpt lat="45.62025" lon="6.68389">
        <ele>1925</ele>
        <time>2020-01-15T14:52:27.000Z</time>
      </trkpt>
      <trkpt lat="45.62027" lon="6.68384">
        <ele>1923.4000244141</ele>
        <time>2020-01-15T14:52:28.000Z</time>
      </trkpt>
      <trkpt lat="45.62028" lon="6.68378">
        <ele>1921.5999755859</ele>
        <time>2020-01-15T14:52:29.000Z</time>
      </trkpt>
      <trkpt lat="45.62026" lon="6.68374">
        <ele>1919.8000488281</ele>
        <time>2020-01-15T14:52:30.000Z</time>
      </trkpt>
      <trkpt lat="45.62022" lon="6.68376">
        <ele>1918.4000244141</ele>
        <time>2020-01-15T14:52:31.000Z</time>
      </trkpt>
      <trkpt lat="45.62019" lon="6.68377">
        <ele>1917.1999511719</ele>
        <time>2020-01-15T14:52:32.000Z</time>
      </trkpt>
      <trkpt lat="45.62017" lon="6.68375">
        <ele>1916</ele>
        <time>2020-01-15T14:52:33.000Z</time>
      </trkpt>
      <trkpt lat="45.62017" lon="6.68372">
        <ele>1914.5999755859</ele>
        <time>2020-01-15T14:52:34.000Z</time>
      </trkpt>
      <trkpt lat="45.62018" lon="6.68369">
        <ele>1913</ele>
        <time>2020-01-15T14:52:35.000Z</time>
      </trkpt>
      <trkpt lat="45.62018" lon="6.68367">
        <ele>1911.1999511719</ele>
        <time>2020-01-15T14:52:36.000Z</time>
      </trkpt>
      <trkpt lat="45.62016" lon="6.68364">
        <ele>1909.8000488281</ele>
        <time>2020-01-15T14:52:37.000Z</time>
      </trkpt>
      <trkpt lat="45.62012" lon="6.68366">
        <ele>1908.5999755859</ele>
        <time>2020-01-15T14:52:38.000Z</time>
      </trkpt>
      <trkpt lat="45.62005" lon="6.68368">
        <ele>1907.1999511719</ele>
        <time>2020-01-15T14:52:40.000Z</time>
      </trkpt>
      <trkpt lat="45.62002" lon="6.68366">
        <ele>1905.5999755859</ele>
        <time>2020-01-15T14:52:42.000Z</time>
      </trkpt>
      <trkpt lat="45.62002" lon="6.68365">
        <ele>1904.4000244141</ele>
        <time>2020-01-15T14:52:43.000Z</time>
      </trkpt>
      <trkpt lat="45.62003" lon="6.68364">
        <ele>1902.8000488281</ele>
        <time>2020-01-15T14:52:44.000Z</time>
      </trkpt>
      <trkpt lat="45.62003" lon="6.68363">
        <ele>1900.1999511719</ele>
        <time>2020-01-15T14:52:45.000Z</time>
      </trkpt>
      <trkpt lat="45.62003" lon="6.68363">
        <ele>1899.1999511719</ele>
        <time>2020-01-15T14:52:46.000Z</time>
      </trkpt>
      <trkpt lat="45.62003" lon="6.68363">
        <ele>1897.5999755859</ele>
        <time>2020-01-15T14:52:48.000Z</time>
      </trkpt>
      <trkpt lat="45.62003" lon="6.68362">
        <ele>1896.5999755859</ele>
        <time>2020-01-15T14:52:59.000Z</time>
      </trkpt>
      <trkpt lat="45.62005" lon="6.68356">
        <ele>1896.5999755859</ele>
        <time>2020-01-15T14:53:00.000Z</time>
      </trkpt>
      <trkpt lat="45.62008" lon="6.68342">
        <ele>1896.1999511719</ele>
        <time>2020-01-15T14:53:04.000Z</time>
      </trkpt>
      <trkpt lat="45.62007" lon="6.68337">
        <ele>1896</ele>
        <time>2020-01-15T14:53:05.000Z</time>
      </trkpt>
      <trkpt lat="45.62005" lon="6.68337">
        <ele>1895.4000244141</ele>
        <time>2020-01-15T14:53:06.000Z</time>
      </trkpt>
      <trkpt lat="45.62003" lon="6.68337">
        <ele>1894.8000488281</ele>
        <time>2020-01-15T14:53:07.000Z</time>
      </trkpt>
      <trkpt lat="45.62001" lon="6.68332">
        <ele>1894.1999511719</ele>
        <time>2020-01-15T14:53:08.000Z</time>
      </trkpt>
      <trkpt lat="45.61999" lon="6.68327">
        <ele>1892.5999755859</ele>
        <time>2020-01-15T14:53:09.000Z</time>
      </trkpt>
      <trkpt lat="45.61995" lon="6.68329">
        <ele>1891.4000244141</ele>
        <time>2020-01-15T14:53:10.000Z</time>
      </trkpt>
      <trkpt lat="45.61992" lon="6.68326">
        <ele>1890</ele>
        <time>2020-01-15T14:53:11.000Z</time>
      </trkpt>
      <trkpt lat="45.61991" lon="6.68321">
        <ele>1888.4000244141</ele>
        <time>2020-01-15T14:53:12.000Z</time>
      </trkpt>
      <trkpt lat="45.61989" lon="6.68318">
        <ele>1886.8000488281</ele>
        <time>2020-01-15T14:53:13.000Z</time>
      </trkpt>
      <trkpt lat="45.61987" lon="6.6832">
        <ele>1885</ele>
        <time>2020-01-15T14:53:14.000Z</time>
      </trkpt>
      <trkpt lat="45.61985" lon="6.68322">
        <ele>1883.1999511719</ele>
        <time>2020-01-15T14:53:15.000Z</time>
      </trkpt>
      <trkpt lat="45.61982" lon="6.68319">
        <ele>1881.5999755859</ele>
        <time>2020-01-15T14:53:16.000Z</time>
      </trkpt>
      <trkpt lat="45.61983" lon="6.68313">
        <ele>1879.8000488281</ele>
        <time>2020-01-15T14:53:17.000Z</time>
      </trkpt>
      <trkpt lat="45.61983" lon="6.68306">
        <ele>1877.8000488281</ele>
        <time>2020-01-15T14:53:18.000Z</time>
      </trkpt>
      <trkpt lat="45.61983" lon="6.68299">
        <ele>1875.8000488281</ele>
        <time>2020-01-15T14:53:19.000Z</time>
      </trkpt>
      <trkpt lat="45.61981" lon="6.68301">
        <ele>1874</ele>
        <time>2020-01-15T14:53:20.000Z</time>
      </trkpt>
      <trkpt lat="45.61979" lon="6.68304">
        <ele>1872.5999755859</ele>
        <time>2020-01-15T14:53:21.000Z</time>
      </trkpt>
      <trkpt lat="45.61978" lon="6.68304">
        <ele>1871.1999511719</ele>
        <time>2020-01-15T14:53:22.000Z</time>
      </trkpt>
      <trkpt lat="45.61978" lon="6.68304">
        <ele>1870</ele>
        <time>2020-01-15T14:53:23.000Z</time>
      </trkpt>
      <trkpt lat="45.61978" lon="6.68304">
        <ele>1869</ele>
        <time>2020-01-15T14:53:24.000Z</time>
      </trkpt>
      <trkpt lat="45.61978" lon="6.68304">
        <ele>1867.8000488281</ele>
        <time>2020-01-15T14:53:25.000Z</time>
      </trkpt>
      <trkpt lat="45.61978" lon="6.68304">
        <ele>1866.8000488281</ele>
        <time>2020-01-15T14:53:26.000Z</time>
      </trkpt>
      <trkpt lat="45.61978" lon="6.68304">
        <ele>1865.4000244141</ele>
        <time>2020-01-15T14:53:28.000Z</time>
      </trkpt>
      <trkpt lat="45.61978" lon="6.68304">
        <ele>1864.8000488281</ele>
        <time>2020-01-15T14:53:32.000Z</time>
      </trkpt>
      <trkpt lat="45.61978" lon="6.68305">
        <ele>1864.8000488281</ele>
        <time>2020-01-15T14:53:45.000Z</time>
      </trkpt>
      <trkpt lat="45.61973" lon="6.68307">
        <ele>1864.8000488281</ele>
        <time>2020-01-15T14:53:49.000Z</time>
      </trkpt>
      <trkpt lat="45.61966" lon="6.68299">
        <ele>1864</ele>
        <time>2020-01-15T14:53:52.000Z</time>
      </trkpt>
      <trkpt lat="45.61962" lon="6.68296">
        <ele>1862.1999511719</ele>
        <time>2020-01-15T14:53:54.000Z</time>
      </trkpt>
      <trkpt lat="45.61958" lon="6.68295">
        <ele>1861.1999511719</ele>
        <time>2020-01-15T14:53:55.000Z</time>
      </trkpt>
      <trkpt lat="45.61956" lon="6.68297">
        <ele>1860</ele>
        <time>2020-01-15T14:53:56.000Z</time>
      </trkpt>
      <trkpt lat="45.61954" lon="6.68297">
        <ele>1857.1999511719</ele>
        <time>2020-01-15T14:53:57.000Z</time>
      </trkpt>
      <trkpt lat="45.61951" lon="6.68298">
        <ele>1856</ele>
        <time>2020-01-15T14:53:58.000Z</time>
      </trkpt>
      <trkpt lat="45.6195" lon="6.68298">
        <ele>1854.8000488281</ele>
        <time>2020-01-15T14:53:59.000Z</time>
      </trkpt>
      <trkpt lat="45.61949" lon="6.68297">
        <ele>1853.4000244141</ele>
        <time>2020-01-15T14:54:00.000Z</time>
      </trkpt>
      <trkpt lat="45.61948" lon="6.68298">
        <ele>1852.1999511719</ele>
        <time>2020-01-15T14:54:01.000Z</time>
      </trkpt>
      <trkpt lat="45.61946" lon="6.68299">
        <ele>1851.1999511719</ele>
        <time>2020-01-15T14:54:02.000Z</time>
      </trkpt>
      <trkpt lat="45.61943" lon="6.68299">
        <ele>1849.4000244141</ele>
        <time>2020-01-15T14:54:04.000Z</time>
      </trkpt>
      <trkpt lat="45.61942" lon="6.68299">
        <ele>1848.5999755859</ele>
        <time>2020-01-15T14:54:05.000Z</time>
      </trkpt>
      <trkpt lat="45.61941" lon="6.68295">
        <ele>1847.8000488281</ele>
        <time>2020-01-15T14:54:06.000Z</time>
      </trkpt>
      <trkpt lat="45.6194" lon="6.68286">
        <ele>1846</ele>
        <time>2020-01-15T14:54:08.000Z</time>
      </trkpt>
      <trkpt lat="45.61941" lon="6.68282">
        <ele>1843.8000488281</ele>
        <time>2020-01-15T14:54:10.000Z</time>
      </trkpt>
      <trkpt lat="45.61939" lon="6.68281">
        <ele>1842.8000488281</ele>
        <time>2020-01-15T14:54:11.000Z</time>
      </trkpt>
      <trkpt lat="45.61934" lon="6.68285">
        <ele>1841.1999511719</ele>
        <time>2020-01-15T14:54:13.000Z</time>
      </trkpt>
      <trkpt lat="45.61933" lon="6.68286">
        <ele>1840.1999511719</ele>
        <time>2020-01-15T14:54:15.000Z</time>
      </trkpt>
      <trkpt lat="45.61932" lon="6.68285">
        <ele>1838.4000244141</ele>
        <time>2020-01-15T14:54:17.000Z</time>
      </trkpt>
      <trkpt lat="45.61931" lon="6.68284">
        <ele>1836.5999755859</ele>
        <time>2020-01-15T14:54:19.000Z</time>
      </trkpt>
      <trkpt lat="45.6193" lon="6.68282">
        <ele>1835.8000488281</ele>
        <time>2020-01-15T14:54:20.000Z</time>
      </trkpt>
      <trkpt lat="45.61928" lon="6.68281">
        <ele>1834.4000244141</ele>
        <time>2020-01-15T14:54:21.000Z</time>
      </trkpt>
      <trkpt lat="45.61926" lon="6.6828">
        <ele>1833.8000488281</ele>
        <time>2020-01-15T14:54:22.000Z</time>
      </trkpt>
      <trkpt lat="45.61927" lon="6.68271">
        <ele>1832.5999755859</ele>
        <time>2020-01-15T14:54:24.000Z</time>
      </trkpt>
      <trkpt lat="45.61926" lon="6.68268">
        <ele>1831.5999755859</ele>
        <time>2020-01-15T14:54:25.000Z</time>
      </trkpt>
      <trkpt lat="45.61924" lon="6.68263">
        <ele>1830.4000244141</ele>
        <time>2020-01-15T14:54:26.000Z</time>
      </trkpt>
      <trkpt lat="45.61923" lon="6.68258">
        <ele>1829.4000244141</ele>
        <time>2020-01-15T14:54:27.000Z</time>
      </trkpt>
      <trkpt lat="45.61923" lon="6.68253">
        <ele>1828.5999755859</ele>
        <time>2020-01-15T14:54:28.000Z</time>
      </trkpt>
      <trkpt lat="45.61922" lon="6.68248">
        <ele>1827.5999755859</ele>
        <time>2020-01-15T14:54:29.000Z</time>
      </trkpt>
      <trkpt lat="45.61923" lon="6.68246">
        <ele>1826.4000244141</ele>
        <time>2020-01-15T14:54:30.000Z</time>
      </trkpt>
      <trkpt lat="45.61923" lon="6.68246">
        <ele>1824.8000488281</ele>
        <time>2020-01-15T14:54:31.000Z</time>
      </trkpt>
      <trkpt lat="45.61922" lon="6.68243">
        <ele>1823</ele>
        <time>2020-01-15T14:54:32.000Z</time>
      </trkpt>
      <trkpt lat="45.61921" lon="6.68241">
        <ele>1821.5999755859</ele>
        <time>2020-01-15T14:54:33.000Z</time>
      </trkpt>
      <trkpt lat="45.61919" lon="6.68241">
        <ele>1820.5999755859</ele>
        <time>2020-01-15T14:54:34.000Z</time>
      </trkpt>
      <trkpt lat="45.61916" lon="6.68237">
        <ele>1819.4000244141</ele>
        <time>2020-01-15T14:54:36.000Z</time>
      </trkpt>
      <trkpt lat="45.61917" lon="6.68229">
        <ele>1817.5999755859</ele>
        <time>2020-01-15T14:54:38.000Z</time>
      </trkpt>
      <trkpt lat="45.61918" lon="6.68227">
        <ele>1816.4000244141</ele>
        <time>2020-01-15T14:54:39.000Z</time>
      </trkpt>
      <trkpt lat="45.61918" lon="6.68227">
        <ele>1815.4000244141</ele>
        <time>2020-01-15T14:54:40.000Z</time>
      </trkpt>
      <trkpt lat="45.61918" lon="6.68227">
        <ele>1813.1999511719</ele>
        <time>2020-01-15T14:54:42.000Z</time>
      </trkpt>
      <trkpt lat="45.61918" lon="6.68226">
        <ele>1812.4000244141</ele>
        <time>2020-01-15T14:54:43.000Z</time>
      </trkpt>
      <trkpt lat="45.61916" lon="6.68223">
        <ele>1811.8000488281</ele>
        <time>2020-01-15T14:54:44.000Z</time>
      </trkpt>
      <trkpt lat="45.61911" lon="6.68226">
        <ele>1811</ele>
        <time>2020-01-15T14:54:46.000Z</time>
      </trkpt>
      <trkpt lat="45.61909" lon="6.68226">
        <ele>1810.5999755859</ele>
        <time>2020-01-15T14:54:47.000Z</time>
      </trkpt>
      <trkpt lat="45.61905" lon="6.68224">
        <ele>1809.1999511719</ele>
        <time>2020-01-15T14:54:49.000Z</time>
      </trkpt>
      <trkpt lat="45.61906" lon="6.68216">
        <ele>1807</ele>
        <time>2020-01-15T14:54:51.000Z</time>
      </trkpt>
      <trkpt lat="45.61908" lon="6.68212">
        <ele>1805.8000488281</ele>
        <time>2020-01-15T14:54:52.000Z</time>
      </trkpt>
      <trkpt lat="45.61909" lon="6.68208">
        <ele>1804.5999755859</ele>
        <time>2020-01-15T14:54:53.000Z</time>
      </trkpt>
      <trkpt lat="45.6191" lon="6.68204">
        <ele>1803.5999755859</ele>
        <time>2020-01-15T14:54:54.000Z</time>
      </trkpt>
      <trkpt lat="45.61911" lon="6.68202">
        <ele>1801.8000488281</ele>
        <time>2020-01-15T14:54:56.000Z</time>
      </trkpt>
      <trkpt lat="45.61911" lon="6.68202">
        <ele>1799.8000488281</ele>
        <time>2020-01-15T14:54:58.000Z</time>
      </trkpt>
      <trkpt lat="45.6191" lon="6.68198">
        <ele>1799.1999511719</ele>
        <time>2020-01-15T14:54:59.000Z</time>
      </trkpt>
      <trkpt lat="45.61911" lon="6.68195">
        <ele>1798.8000488281</ele>
        <time>2020-01-15T14:55:00.000Z</time>
      </trkpt>
      <trkpt lat="45.61909" lon="6.68193">
        <ele>1798</ele>
        <time>2020-01-15T14:55:03.000Z</time>
      </trkpt>
      <trkpt lat="45.61906" lon="6.68194">
        <ele>1797.4000244141</ele>
        <time>2020-01-15T14:55:04.000Z</time>
      </trkpt>
      <trkpt lat="45.61903" lon="6.68194">
        <ele>1796</ele>
        <time>2020-01-15T14:55:06.000Z</time>
      </trkpt>
      <trkpt lat="45.61904" lon="6.68194">
        <ele>1795</ele>
        <time>2020-01-15T14:55:08.000Z</time>
      </trkpt>
      <trkpt lat="45.61904" lon="6.68194">
        <ele>1793.4000244141</ele>
        <time>2020-01-15T14:55:09.000Z</time>
      </trkpt>
      <trkpt lat="45.61904" lon="6.68194">
        <ele>1792.1999511719</ele>
        <time>2020-01-15T14:55:11.000Z</time>
      </trkpt>
      <trkpt lat="45.61904" lon="6.68194">
        <ele>1791.5999755859</ele>
        <time>2020-01-15T14:55:14.000Z</time>
      </trkpt>
      <trkpt lat="45.61904" lon="6.68194">
        <ele>1791.4000244141</ele>
        <time>2020-01-15T14:55:27.000Z</time>
      </trkpt>
      <trkpt lat="45.61904" lon="6.68193">
        <ele>1791.4000244141</ele>
        <time>2020-01-15T14:55:28.000Z</time>
      </trkpt>
      <trkpt lat="45.61898" lon="6.6819">
        <ele>1791</ele>
        <time>2020-01-15T14:55:30.000Z</time>
      </trkpt>
      <trkpt lat="45.61888" lon="6.68193">
        <ele>1789.5999755859</ele>
        <time>2020-01-15T14:55:33.000Z</time>
      </trkpt>
      <trkpt lat="45.61886" lon="6.68192">
        <ele>1788.5999755859</ele>
        <time>2020-01-15T14:55:34.000Z</time>
      </trkpt>
      <trkpt lat="45.61885" lon="6.68192">
        <ele>1787.4000244141</ele>
        <time>2020-01-15T14:55:35.000Z</time>
      </trkpt>
      <trkpt lat="45.61882" lon="6.68192">
        <ele>1786</ele>
        <time>2020-01-15T14:55:36.000Z</time>
      </trkpt>
      <trkpt lat="45.61881" lon="6.68191">
        <ele>1784.8000488281</ele>
        <time>2020-01-15T14:55:37.000Z</time>
      </trkpt>
      <trkpt lat="45.61883" lon="6.68185">
        <ele>1783.8000488281</ele>
        <time>2020-01-15T14:55:38.000Z</time>
      </trkpt>
      <trkpt lat="45.61885" lon="6.68181">
        <ele>1782.8000488281</ele>
        <time>2020-01-15T14:55:39.000Z</time>
      </trkpt>
      <trkpt lat="45.61884" lon="6.68175">
        <ele>1781.8000488281</ele>
        <time>2020-01-15T14:55:40.000Z</time>
      </trkpt>
      <trkpt lat="45.61882" lon="6.6817">
        <ele>1780.8000488281</ele>
        <time>2020-01-15T14:55:41.000Z</time>
      </trkpt>
      <trkpt lat="45.61878" lon="6.6817">
        <ele>1780</ele>
        <time>2020-01-15T14:55:42.000Z</time>
      </trkpt>
      <trkpt lat="45.61876" lon="6.68169">
        <ele>1779</ele>
        <time>2020-01-15T14:55:43.000Z</time>
      </trkpt>
      <trkpt lat="45.61874" lon="6.68167">
        <ele>1777.5999755859</ele>
        <time>2020-01-15T14:55:44.000Z</time>
      </trkpt>
      <trkpt lat="45.61874" lon="6.68165">
        <ele>1775.8000488281</ele>
        <time>2020-01-15T14:55:45.000Z</time>
      </trkpt>
      <trkpt lat="45.61874" lon="6.68163">
        <ele>1773.4000244141</ele>
        <time>2020-01-15T14:55:46.000Z</time>
      </trkpt>
      <trkpt lat="45.61873" lon="6.68162">
        <ele>1771.5999755859</ele>
        <time>2020-01-15T14:55:47.000Z</time>
      </trkpt>
      <trkpt lat="45.61873" lon="6.68163">
        <ele>1770.1999511719</ele>
        <time>2020-01-15T14:55:48.000Z</time>
      </trkpt>
      <trkpt lat="45.61873" lon="6.68163">
        <ele>1768.8000488281</ele>
        <time>2020-01-15T14:55:50.000Z</time>
      </trkpt>
      <trkpt lat="45.61873" lon="6.68163">
        <ele>1768.4000244141</ele>
        <time>2020-01-15T14:55:51.000Z</time>
      </trkpt>
      <trkpt lat="45.61874" lon="6.68163">
        <ele>1767.5999755859</ele>
        <time>2020-01-15T14:55:53.000Z</time>
      </trkpt>
      <trkpt lat="45.61874" lon="6.68163">
        <ele>1767</ele>
        <time>2020-01-15T14:55:56.000Z</time>
      </trkpt>
      <trkpt lat="45.61871" lon="6.68163">
        <ele>1766.5999755859</ele>
        <time>2020-01-15T14:56:00.000Z</time>
      </trkpt>
      <trkpt lat="45.61867" lon="6.68163">
        <ele>1766.4000244141</ele>
        <time>2020-01-15T14:56:01.000Z</time>
      </trkpt>
      <trkpt lat="45.61857" lon="6.68163">
        <ele>1766</ele>
        <time>2020-01-15T14:56:04.000Z</time>
      </trkpt>
      <trkpt lat="45.61856" lon="6.68163">
        <ele>1765</ele>
        <time>2020-01-15T14:56:06.000Z</time>
      </trkpt>
      <trkpt lat="45.61856" lon="6.68164">
        <ele>1763.8000488281</ele>
        <time>2020-01-15T14:56:08.000Z</time>
      </trkpt>
      <trkpt lat="45.61856" lon="6.6816">
        <ele>1762.8000488281</ele>
        <time>2020-01-15T14:56:14.000Z</time>
      </trkpt>
      <trkpt lat="45.61852" lon="6.68156">
        <ele>1762.5999755859</ele>
        <time>2020-01-15T14:56:15.000Z</time>
      </trkpt>
      <trkpt lat="45.6184" lon="6.68156">
        <ele>1761.4000244141</ele>
        <time>2020-01-15T14:56:18.000Z</time>
      </trkpt>
      <trkpt lat="45.61835" lon="6.68154">
        <ele>1761</ele>
        <time>2020-01-15T14:56:19.000Z</time>
      </trkpt>
      <trkpt lat="45.61832" lon="6.68154">
        <ele>1760.1999511719</ele>
        <time>2020-01-15T14:56:20.000Z</time>
      </trkpt>
      <trkpt lat="45.61829" lon="6.68153">
        <ele>1758</ele>
        <time>2020-01-15T14:56:21.000Z</time>
      </trkpt>
      <trkpt lat="45.61826" lon="6.68152">
        <ele>1757.1999511719</ele>
        <time>2020-01-15T14:56:22.000Z</time>
      </trkpt>
      <trkpt lat="45.61822" lon="6.68151">
        <ele>1756.4000244141</ele>
        <time>2020-01-15T14:56:23.000Z</time>
      </trkpt>
      <trkpt lat="45.61818" lon="6.68149">
        <ele>1756</ele>
        <time>2020-01-15T14:56:24.000Z</time>
      </trkpt>
      <trkpt lat="45.61814" lon="6.68148">
        <ele>1755.4000244141</ele>
        <time>2020-01-15T14:56:25.000Z</time>
      </trkpt>
      <trkpt lat="45.61811" lon="6.68146">
        <ele>1755</ele>
        <time>2020-01-15T14:56:26.000Z</time>
      </trkpt>
      <trkpt lat="45.6181" lon="6.68142">
        <ele>1753.8000488281</ele>
        <time>2020-01-15T14:56:28.000Z</time>
      </trkpt>
      <trkpt lat="45.61813" lon="6.68142">
        <ele>1752.8000488281</ele>
        <time>2020-01-15T14:56:29.000Z</time>
      </trkpt>
      <trkpt lat="45.61816" lon="6.68143">
        <ele>1751.8000488281</ele>
        <time>2020-01-15T14:56:30.000Z</time>
      </trkpt>
      <trkpt lat="45.61817" lon="6.68142">
        <ele>1750.5999755859</ele>
        <time>2020-01-15T14:56:31.000Z</time>
      </trkpt>
      <trkpt lat="45.61817" lon="6.68141">
        <ele>1749.1999511719</ele>
        <time>2020-01-15T14:56:33.000Z</time>
      </trkpt>
      <trkpt lat="45.61816" lon="6.68141">
        <ele>1748.8000488281</ele>
        <time>2020-01-15T14:56:34.000Z</time>
      </trkpt>
      <trkpt lat="45.61815" lon="6.68138">
        <ele>1748.1999511719</ele>
        <time>2020-01-15T14:56:35.000Z</time>
      </trkpt>
      <trkpt lat="45.61814" lon="6.68134">
        <ele>1747.5999755859</ele>
        <time>2020-01-15T14:56:36.000Z</time>
      </trkpt>
      <trkpt lat="45.61815" lon="6.68132">
        <ele>1747.1999511719</ele>
        <time>2020-01-15T14:56:37.000Z</time>
      </trkpt>
      <trkpt lat="45.6182" lon="6.68127">
        <ele>1745.4000244141</ele>
        <time>2020-01-15T14:56:39.000Z</time>
      </trkpt>
      <trkpt lat="45.61818" lon="6.68123">
        <ele>1744</ele>
        <time>2020-01-15T14:56:40.000Z</time>
      </trkpt>
      <trkpt lat="45.61815" lon="6.68121">
        <ele>1742.8000488281</ele>
        <time>2020-01-15T14:56:41.000Z</time>
      </trkpt>
      <trkpt lat="45.61813" lon="6.68119">
        <ele>1741.4000244141</ele>
        <time>2020-01-15T14:56:42.000Z</time>
      </trkpt>
      <trkpt lat="45.61813" lon="6.68115">
        <ele>1740.4000244141</ele>
        <time>2020-01-15T14:56:43.000Z</time>
      </trkpt>
      <trkpt lat="45.61815" lon="6.68114">
        <ele>1739.5999755859</ele>
        <time>2020-01-15T14:56:44.000Z</time>
      </trkpt>
      <trkpt lat="45.61815" lon="6.68113">
        <ele>1737.4000244141</ele>
        <time>2020-01-15T14:56:45.000Z</time>
      </trkpt>
      <trkpt lat="45.61815" lon="6.68111">
        <ele>1736.1999511719</ele>
        <time>2020-01-15T14:56:46.000Z</time>
      </trkpt>
      <trkpt lat="45.61818" lon="6.68107">
        <ele>1735.1999511719</ele>
        <time>2020-01-15T14:56:47.000Z</time>
      </trkpt>
      <trkpt lat="45.61819" lon="6.68101">
        <ele>1734.4000244141</ele>
        <time>2020-01-15T14:56:48.000Z</time>
      </trkpt>
      <trkpt lat="45.61817" lon="6.68093">
        <ele>1733.4000244141</ele>
        <time>2020-01-15T14:56:49.000Z</time>
      </trkpt>
      <trkpt lat="45.61811" lon="6.68086">
        <ele>1732.4000244141</ele>
        <time>2020-01-15T14:56:50.000Z</time>
      </trkpt>
      <trkpt lat="45.61806" lon="6.68085">
        <ele>1731.1999511719</ele>
        <time>2020-01-15T14:56:51.000Z</time>
      </trkpt>
      <trkpt lat="45.61804" lon="6.68086">
        <ele>1730</ele>
        <time>2020-01-15T14:56:52.000Z</time>
      </trkpt>
      <trkpt lat="45.61802" lon="6.68088">
        <ele>1728.5999755859</ele>
        <time>2020-01-15T14:56:53.000Z</time>
      </trkpt>
      <trkpt lat="45.618" lon="6.68088">
        <ele>1727.4000244141</ele>
        <time>2020-01-15T14:56:54.000Z</time>
      </trkpt>
      <trkpt lat="45.61797" lon="6.68087">
        <ele>1726</ele>
        <time>2020-01-15T14:56:55.000Z</time>
      </trkpt>
      <trkpt lat="45.61794" lon="6.68088">
        <ele>1725</ele>
        <time>2020-01-15T14:56:56.000Z</time>
      </trkpt>
      <trkpt lat="45.61792" lon="6.68089">
        <ele>1724.1999511719</ele>
        <time>2020-01-15T14:56:57.000Z</time>
      </trkpt>
      <trkpt lat="45.6179" lon="6.68087">
        <ele>1723.5999755859</ele>
        <time>2020-01-15T14:56:58.000Z</time>
      </trkpt>
      <trkpt lat="45.61788" lon="6.68082">
        <ele>1722.4000244141</ele>
        <time>2020-01-15T14:57:00.000Z</time>
      </trkpt>
      <trkpt lat="45.6179" lon="6.68071">
        <ele>1720.5999755859</ele>
        <time>2020-01-15T14:57:02.000Z</time>
      </trkpt>
      <trkpt lat="45.61786" lon="6.68066">
        <ele>1719.4000244141</ele>
        <time>2020-01-15T14:57:03.000Z</time>
      </trkpt>
      <trkpt lat="45.61783" lon="6.68067">
        <ele>1718.4000244141</ele>
        <time>2020-01-15T14:57:04.000Z</time>
      </trkpt>
      <trkpt lat="45.61781" lon="6.68065">
        <ele>1717.5999755859</ele>
        <time>2020-01-15T14:57:05.000Z</time>
      </trkpt>
      <trkpt lat="45.61779" lon="6.68061">
        <ele>1716.8000488281</ele>
        <time>2020-01-15T14:57:06.000Z</time>
      </trkpt>
      <trkpt lat="45.61777" lon="6.68056">
        <ele>1715.8000488281</ele>
        <time>2020-01-15T14:57:07.000Z</time>
      </trkpt>
      <trkpt lat="45.61774" lon="6.68057">
        <ele>1714.4000244141</ele>
        <time>2020-01-15T14:57:08.000Z</time>
      </trkpt>
      <trkpt lat="45.61771" lon="6.68056">
        <ele>1711.5999755859</ele>
        <time>2020-01-15T14:57:09.000Z</time>
      </trkpt>
      <trkpt lat="45.61768" lon="6.68054">
        <ele>1710.1999511719</ele>
        <time>2020-01-15T14:57:10.000Z</time>
      </trkpt>
      <trkpt lat="45.61767" lon="6.68048">
        <ele>1708.8000488281</ele>
        <time>2020-01-15T14:57:11.000Z</time>
      </trkpt>
      <trkpt lat="45.61767" lon="6.68042">
        <ele>1707</ele>
        <time>2020-01-15T14:57:12.000Z</time>
      </trkpt>
      <trkpt lat="45.61766" lon="6.68037">
        <ele>1705.4000244141</ele>
        <time>2020-01-15T14:57:13.000Z</time>
      </trkpt>
      <trkpt lat="45.61765" lon="6.68036">
        <ele>1704</ele>
        <time>2020-01-15T14:57:14.000Z</time>
      </trkpt>
      <trkpt lat="45.61761" lon="6.68038">
        <ele>1702.8000488281</ele>
        <time>2020-01-15T14:57:15.000Z</time>
      </trkpt>
      <trkpt lat="45.61756" lon="6.68039">
        <ele>1701.4000244141</ele>
        <time>2020-01-15T14:57:16.000Z</time>
      </trkpt>
      <trkpt lat="45.61752" lon="6.68038">
        <ele>1700</ele>
        <time>2020-01-15T14:57:17.000Z</time>
      </trkpt>
      <trkpt lat="45.61748" lon="6.68038">
        <ele>1698.1999511719</ele>
        <time>2020-01-15T14:57:18.000Z</time>
      </trkpt>
      <trkpt lat="45.61749" lon="6.68034">
        <ele>1696.4000244141</ele>
        <time>2020-01-15T14:57:19.000Z</time>
      </trkpt>
      <trkpt lat="45.61748" lon="6.68031">
        <ele>1694.5999755859</ele>
        <time>2020-01-15T14:57:20.000Z</time>
      </trkpt>
      <trkpt lat="45.61749" lon="6.68024">
        <ele>1693.4000244141</ele>
        <time>2020-01-15T14:57:21.000Z</time>
      </trkpt>
      <trkpt lat="45.6175" lon="6.68015">
        <ele>1692.1999511719</ele>
        <time>2020-01-15T14:57:22.000Z</time>
      </trkpt>
      <trkpt lat="45.61749" lon="6.68012">
        <ele>1691.1999511719</ele>
        <time>2020-01-15T14:57:23.000Z</time>
      </trkpt>
      <trkpt lat="45.61748" lon="6.6801">
        <ele>1690</ele>
        <time>2020-01-15T14:57:24.000Z</time>
      </trkpt>
      <trkpt lat="45.61746" lon="6.68008">
        <ele>1688.8000488281</ele>
        <time>2020-01-15T14:57:25.000Z</time>
      </trkpt>
      <trkpt lat="45.61745" lon="6.68007">
        <ele>1687.4000244141</ele>
        <time>2020-01-15T14:57:26.000Z</time>
      </trkpt>
      <trkpt lat="45.61743" lon="6.68006">
        <ele>1686.1999511719</ele>
        <time>2020-01-15T14:57:27.000Z</time>
      </trkpt>
      <trkpt lat="45.61742" lon="6.68002">
        <ele>1684.8000488281</ele>
        <time>2020-01-15T14:57:28.000Z</time>
      </trkpt>
      <trkpt lat="45.6174" lon="6.67998">
        <ele>1683.5999755859</ele>
        <time>2020-01-15T14:57:29.000Z</time>
      </trkpt>
      <trkpt lat="45.61737" lon="6.67997">
        <ele>1682.4000244141</ele>
        <time>2020-01-15T14:57:30.000Z</time>
      </trkpt>
      <trkpt lat="45.6173" lon="6.67996">
        <ele>1680.8000488281</ele>
        <time>2020-01-15T14:57:32.000Z</time>
      </trkpt>
      <trkpt lat="45.6173" lon="6.67996">
        <ele>1678.4000244141</ele>
        <time>2020-01-15T14:57:33.000Z</time>
      </trkpt>
      <trkpt lat="45.61732" lon="6.67994">
        <ele>1676.5999755859</ele>
        <time>2020-01-15T14:57:34.000Z</time>
      </trkpt>
      <trkpt lat="45.61732" lon="6.67994">
        <ele>1675</ele>
        <time>2020-01-15T14:57:35.000Z</time>
      </trkpt>
      <trkpt lat="45.61732" lon="6.67994">
        <ele>1673.4000244141</ele>
        <time>2020-01-15T14:57:36.000Z</time>
      </trkpt>
      <trkpt lat="45.61732" lon="6.67994">
        <ele>1672.1999511719</ele>
        <time>2020-01-15T14:57:37.000Z</time>
      </trkpt>
      <trkpt lat="45.61732" lon="6.67994">
        <ele>1670.8000488281</ele>
        <time>2020-01-15T14:57:39.000Z</time>
      </trkpt>
      <trkpt lat="45.61732" lon="6.67994">
        <ele>1670.1999511719</ele>
        <time>2020-01-15T14:57:43.000Z</time>
      </trkpt>
      <trkpt lat="45.61728" lon="6.67994">
        <ele>1670.1999511719</ele>
        <time>2020-01-15T14:57:48.000Z</time>
      </trkpt>
      <trkpt lat="45.61728" lon="6.67995">
        <ele>1669.5999755859</ele>
        <time>2020-01-15T14:57:52.000Z</time>
      </trkpt>
      <trkpt lat="45.61728" lon="6.67995">
        <ele>1669</ele>
        <time>2020-01-15T14:57:54.000Z</time>
      </trkpt>
      <trkpt lat="45.61728" lon="6.67995">
        <ele>1668.5999755859</ele>
        <time>2020-01-15T14:58:08.000Z</time>
      </trkpt>
      <trkpt lat="45.61728" lon="6.67995">
        <ele>1668.5999755859</ele>
        <time>2020-01-15T14:58:13.000Z</time>
      </trkpt>
      <trkpt lat="45.61728" lon="6.67995">
        <ele>1668.4000244141</ele>
        <time>2020-01-15T14:58:16.000Z</time>
      </trkpt>
      <trkpt lat="45.61728" lon="6.67994">
        <ele>1668.4000244141</ele>
        <time>2020-01-15T14:58:29.000Z</time>
      </trkpt>
      <trkpt lat="45.61727" lon="6.67996">
        <ele>1668.4000244141</ele>
        <time>2020-01-15T14:58:45.000Z</time>
      </trkpt>
      <trkpt lat="45.6172" lon="6.67996">
        <ele>1667.4000244141</ele>
        <time>2020-01-15T14:58:48.000Z</time>
      </trkpt>
      <trkpt lat="45.61715" lon="6.67993">
        <ele>1666.4000244141</ele>
        <time>2020-01-15T14:58:49.000Z</time>
      </trkpt>
      <trkpt lat="45.61712" lon="6.67986">
        <ele>1665.1999511719</ele>
        <time>2020-01-15T14:58:50.000Z</time>
      </trkpt>
      <trkpt lat="45.61713" lon="6.67979">
        <ele>1664.1999511719</ele>
        <time>2020-01-15T14:58:51.000Z</time>
      </trkpt>
      <trkpt lat="45.61714" lon="6.67973">
        <ele>1663</ele>
        <time>2020-01-15T14:58:52.000Z</time>
      </trkpt>
      <trkpt lat="45.61711" lon="6.67967">
        <ele>1661.1999511719</ele>
        <time>2020-01-15T14:58:53.000Z</time>
      </trkpt>
      <trkpt lat="45.61707" lon="6.67965">
        <ele>1659.1999511719</ele>
        <time>2020-01-15T14:58:54.000Z</time>
      </trkpt>
      <trkpt lat="45.61703" lon="6.67966">
        <ele>1657.8000488281</ele>
        <time>2020-01-15T14:58:55.000Z</time>
      </trkpt>
      <trkpt lat="45.61699" lon="6.67967">
        <ele>1656.5999755859</ele>
        <time>2020-01-15T14:58:56.000Z</time>
      </trkpt>
      <trkpt lat="45.61696" lon="6.67969">
        <ele>1655.4000244141</ele>
        <time>2020-01-15T14:58:57.000Z</time>
      </trkpt>
      <trkpt lat="45.61696" lon="6.6797">
        <ele>1654.4000244141</ele>
        <time>2020-01-15T14:58:58.000Z</time>
      </trkpt>
      <trkpt lat="45.61695" lon="6.6797">
        <ele>1653.1999511719</ele>
        <time>2020-01-15T14:58:59.000Z</time>
      </trkpt>
      <trkpt lat="45.61694" lon="6.67969">
        <ele>1652.1999511719</ele>
        <time>2020-01-15T14:59:00.000Z</time>
      </trkpt>
      <trkpt lat="45.61694" lon="6.67964">
        <ele>1651.1999511719</ele>
        <time>2020-01-15T14:59:01.000Z</time>
      </trkpt>
      <trkpt lat="45.61693" lon="6.6796">
        <ele>1650.1999511719</ele>
        <time>2020-01-15T14:59:02.000Z</time>
      </trkpt>
      <trkpt lat="45.61691" lon="6.67953">
        <ele>1649.4000244141</ele>
        <time>2020-01-15T14:59:03.000Z</time>
      </trkpt>
      <trkpt lat="45.61687" lon="6.67952">
        <ele>1648.4000244141</ele>
        <time>2020-01-15T14:59:04.000Z</time>
      </trkpt>
      <trkpt lat="45.61683" lon="6.67953">
        <ele>1647.5999755859</ele>
        <time>2020-01-15T14:59:05.000Z</time>
      </trkpt>
      <trkpt lat="45.61679" lon="6.67958">
        <ele>1647</ele>
        <time>2020-01-15T14:59:06.000Z</time>
      </trkpt>
      <trkpt lat="45.61678" lon="6.67959">
        <ele>1646.1999511719</ele>
        <time>2020-01-15T14:59:07.000Z</time>
      </trkpt>
      <trkpt lat="45.61677" lon="6.67963">
        <ele>1645.1999511719</ele>
        <time>2020-01-15T14:59:08.000Z</time>
      </trkpt>
      <trkpt lat="45.61676" lon="6.67964">
        <ele>1643</ele>
        <time>2020-01-15T14:59:09.000Z</time>
      </trkpt>
      <trkpt lat="45.61677" lon="6.67963">
        <ele>1641.8000488281</ele>
        <time>2020-01-15T14:59:10.000Z</time>
      </trkpt>
      <trkpt lat="45.61676" lon="6.67963">
        <ele>1640.5999755859</ele>
        <time>2020-01-15T14:59:11.000Z</time>
      </trkpt>
      <trkpt lat="45.61671" lon="6.67966">
        <ele>1639</ele>
        <time>2020-01-15T14:59:13.000Z</time>
      </trkpt>
      <trkpt lat="45.61659" lon="6.67973">
        <ele>1638.1999511719</ele>
        <time>2020-01-15T14:59:15.000Z</time>
      </trkpt>
      <trkpt lat="45.6165" lon="6.67975">
        <ele>1637.5999755859</ele>
        <time>2020-01-15T14:59:16.000Z</time>
      </trkpt>
      <trkpt lat="45.61637" lon="6.67972">
        <ele>1635.8000488281</ele>
        <time>2020-01-15T14:59:18.000Z</time>
      </trkpt>
      <trkpt lat="45.61631" lon="6.6797">
        <ele>1634.5999755859</ele>
        <time>2020-01-15T14:59:19.000Z</time>
      </trkpt>
      <trkpt lat="45.61625" lon="6.67968">
        <ele>1633.4000244141</ele>
        <time>2020-01-15T14:59:20.000Z</time>
      </trkpt>
      <trkpt lat="45.61618" lon="6.67965">
        <ele>1632.1999511719</ele>
        <time>2020-01-15T14:59:21.000Z</time>
      </trkpt>
      <trkpt lat="45.61611" lon="6.67963">
        <ele>1631.1999511719</ele>
        <time>2020-01-15T14:59:22.000Z</time>
      </trkpt>
      <trkpt lat="45.61604" lon="6.67961">
        <ele>1630.1999511719</ele>
        <time>2020-01-15T14:59:23.000Z</time>
      </trkpt>
      <trkpt lat="45.61596" lon="6.67961">
        <ele>1629.1999511719</ele>
        <time>2020-01-15T14:59:24.000Z</time>
      </trkpt>
      <trkpt lat="45.61588" lon="6.67959">
        <ele>1628</ele>
        <time>2020-01-15T14:59:25.000Z</time>
      </trkpt>
      <trkpt lat="45.61579" lon="6.67959">
        <ele>1626.8000488281</ele>
        <time>2020-01-15T14:59:26.000Z</time>
      </trkpt>
      <trkpt lat="45.61571" lon="6.6796">
        <ele>1625.8000488281</ele>
        <time>2020-01-15T14:59:27.000Z</time>
      </trkpt>
      <trkpt lat="45.61554" lon="6.67962">
        <ele>1624</ele>
        <time>2020-01-15T14:59:29.000Z</time>
      </trkpt>
      <trkpt lat="45.61537" lon="6.67966">
        <ele>1622</ele>
        <time>2020-01-15T14:59:31.000Z</time>
      </trkpt>
      <trkpt lat="45.61529" lon="6.67968">
        <ele>1621</ele>
        <time>2020-01-15T14:59:32.000Z</time>
      </trkpt>
      <trkpt lat="45.61521" lon="6.6797">
        <ele>1618.8000488281</ele>
        <time>2020-01-15T14:59:33.000Z</time>
      </trkpt>
      <trkpt lat="45.61506" lon="6.67975">
        <ele>1617.1999511719</ele>
        <time>2020-01-15T14:59:35.000Z</time>
      </trkpt>
      <trkpt lat="45.61494" lon="6.67979">
        <ele>1615.8000488281</ele>
        <time>2020-01-15T14:59:37.000Z</time>
      </trkpt>
      <trkpt lat="45.61483" lon="6.67981">
        <ele>1614.4000244141</ele>
        <time>2020-01-15T14:59:39.000Z</time>
      </trkpt>
      <trkpt lat="45.61475" lon="6.6798">
        <ele>1613.1999511719</ele>
        <time>2020-01-15T14:59:41.000Z</time>
      </trkpt>
      <trkpt lat="45.61472" lon="6.67978">
        <ele>1612.5999755859</ele>
        <time>2020-01-15T14:59:42.000Z</time>
      </trkpt>
      <trkpt lat="45.61467" lon="6.67976">
        <ele>1612</ele>
        <time>2020-01-15T14:59:44.000Z</time>
      </trkpt>
      <trkpt lat="45.61457" lon="6.67971">
        <ele>1611.8000488281</ele>
        <time>2020-01-15T14:59:47.000Z</time>
      </trkpt>
      <trkpt lat="45.61444" lon="6.67969">
        <ele>1611.4000244141</ele>
        <time>2020-01-15T14:59:50.000Z</time>
      </trkpt>
      <trkpt lat="45.61437" lon="6.67968">
        <ele>1611</ele>
        <time>2020-01-15T14:59:52.000Z</time>
      </trkpt>
      <trkpt lat="45.61422" lon="6.67965">
        <ele>1609.8000488281</ele>
        <time>2020-01-15T14:59:56.000Z</time>
      </trkpt>
      <trkpt lat="45.61419" lon="6.67964">
        <ele>1609.5999755859</ele>
        <time>2020-01-15T14:59:57.000Z</time>
      </trkpt>
      <trkpt lat="45.61401" lon="6.67958">
        <ele>1608.5999755859</ele>
        <time>2020-01-15T15:00:01.000Z</time>
      </trkpt>
      <trkpt lat="45.61394" lon="6.67956">
        <ele>1608.4000244141</ele>
        <time>2020-01-15T15:00:02.000Z</time>
      </trkpt>
      <trkpt lat="45.61382" lon="6.67951">
        <ele>1607.4000244141</ele>
        <time>2020-01-15T15:00:04.000Z</time>
      </trkpt>
      <trkpt lat="45.6137" lon="6.67946">
        <ele>1606.4000244141</ele>
        <time>2020-01-15T15:00:06.000Z</time>
      </trkpt>
      <trkpt lat="45.61359" lon="6.67942">
        <ele>1605.4000244141</ele>
        <time>2020-01-15T15:00:08.000Z</time>
      </trkpt>
      <trkpt lat="45.61347" lon="6.6794">
        <ele>1604.1999511719</ele>
        <time>2020-01-15T15:00:10.000Z</time>
      </trkpt>
      <trkpt lat="45.61336" lon="6.67938">
        <ele>1602.8000488281</ele>
        <time>2020-01-15T15:00:12.000Z</time>
      </trkpt>
      <trkpt lat="45.61329" lon="6.67936">
        <ele>1602.1999511719</ele>
        <time>2020-01-15T15:00:13.000Z</time>
      </trkpt>
      <trkpt lat="45.61322" lon="6.67935">
        <ele>1601.5999755859</ele>
        <time>2020-01-15T15:00:14.000Z</time>
      </trkpt>
      <trkpt lat="45.61311" lon="6.67933">
        <ele>1600.5999755859</ele>
        <time>2020-01-15T15:00:16.000Z</time>
      </trkpt>
      <trkpt lat="45.61303" lon="6.67935">
        <ele>1599.5999755859</ele>
        <time>2020-01-15T15:00:18.000Z</time>
      </trkpt>
      <trkpt lat="45.61296" lon="6.67939">
        <ele>1598.4000244141</ele>
        <time>2020-01-15T15:00:20.000Z</time>
      </trkpt>
      <trkpt lat="45.61289" lon="6.67941">
        <ele>1597.1999511719</ele>
        <time>2020-01-15T15:00:22.000Z</time>
      </trkpt>
      <trkpt lat="45.61285" lon="6.67942">
        <ele>1597.1999511719</ele>
        <time>2020-01-15T15:00:23.000Z</time>
      </trkpt>
      <trkpt lat="45.61269" lon="6.67946">
        <ele>1596.1999511719</ele>
        <time>2020-01-15T15:00:27.000Z</time>
      </trkpt>
      <trkpt lat="45.61264" lon="6.67948">
        <ele>1596</ele>
        <time>2020-01-15T15:00:28.000Z</time>
      </trkpt>
      <trkpt lat="45.61251" lon="6.67954">
        <ele>1595</ele>
        <time>2020-01-15T15:00:31.000Z</time>
      </trkpt>
      <trkpt lat="45.61246" lon="6.67957">
        <ele>1594.5999755859</ele>
        <time>2020-01-15T15:00:32.000Z</time>
      </trkpt>
      <trkpt lat="45.61236" lon="6.67961">
        <ele>1594</ele>
        <time>2020-01-15T15:00:34.000Z</time>
      </trkpt>
      <trkpt lat="45.61232" lon="6.67964">
        <ele>1593.8000488281</ele>
        <time>2020-01-15T15:00:35.000Z</time>
      </trkpt>
      <trkpt lat="45.61211" lon="6.6797">
        <ele>1592.8000488281</ele>
        <time>2020-01-15T15:00:39.000Z</time>
      </trkpt>
      <trkpt lat="45.61206" lon="6.6797">
        <ele>1592.5999755859</ele>
        <time>2020-01-15T15:00:40.000Z</time>
      </trkpt>
      <trkpt lat="45.6119" lon="6.67967">
        <ele>1591.5999755859</ele>
        <time>2020-01-15T15:00:43.000Z</time>
      </trkpt>
      <trkpt lat="45.61174" lon="6.67964">
        <ele>1590.5999755859</ele>
        <time>2020-01-15T15:00:46.000Z</time>
      </trkpt>
      <trkpt lat="45.61156" lon="6.67957">
        <ele>1589.4000244141</ele>
        <time>2020-01-15T15:00:49.000Z</time>
      </trkpt>
      <trkpt lat="45.6114" lon="6.67949">
        <ele>1588.8000488281</ele>
        <time>2020-01-15T15:00:52.000Z</time>
      </trkpt>
      <trkpt lat="45.61134" lon="6.67946">
        <ele>1588.4000244141</ele>
        <time>2020-01-15T15:00:53.000Z</time>
      </trkpt>
      <trkpt lat="45.61119" lon="6.67937">
        <ele>1587.1999511719</ele>
        <time>2020-01-15T15:00:56.000Z</time>
      </trkpt>
      <trkpt lat="45.61104" lon="6.67929">
        <ele>1585.8000488281</ele>
        <time>2020-01-15T15:00:59.000Z</time>
      </trkpt>
      <trkpt lat="45.61082" lon="6.67917">
        <ele>1584.5999755859</ele>
        <time>2020-01-15T15:01:03.000Z</time>
      </trkpt>
      <trkpt lat="45.61076" lon="6.67913">
        <ele>1584.1999511719</ele>
        <time>2020-01-15T15:01:04.000Z</time>
      </trkpt>
      <trkpt lat="45.6107" lon="6.67909">
        <ele>1583.8000488281</ele>
        <time>2020-01-15T15:01:05.000Z</time>
      </trkpt>
      <trkpt lat="45.61065" lon="6.67905">
        <ele>1583.4000244141</ele>
        <time>2020-01-15T15:01:06.000Z</time>
      </trkpt>
      <trkpt lat="45.61049" lon="6.67894">
        <ele>1581.8000488281</ele>
        <time>2020-01-15T15:01:09.000Z</time>
      </trkpt>
      <trkpt lat="45.61038" lon="6.67887">
        <ele>1580.8000488281</ele>
        <time>2020-01-15T15:01:11.000Z</time>
      </trkpt>
      <trkpt lat="45.61033" lon="6.67884">
        <ele>1580.5999755859</ele>
        <time>2020-01-15T15:01:12.000Z</time>
      </trkpt>
      <trkpt lat="45.61015" lon="6.67875">
        <ele>1579.4000244141</ele>
        <time>2020-01-15T15:01:15.000Z</time>
      </trkpt>
      <trkpt lat="45.60998" lon="6.67868">
        <ele>1578.1999511719</ele>
        <time>2020-01-15T15:01:18.000Z</time>
      </trkpt>
      <trkpt lat="45.60985" lon="6.67859">
        <ele>1577</ele>
        <time>2020-01-15T15:01:21.000Z</time>
      </trkpt>
      <trkpt lat="45.60976" lon="6.67855">
        <ele>1576.5999755859</ele>
        <time>2020-01-15T15:01:23.000Z</time>
      </trkpt>
      <trkpt lat="45.60964" lon="6.67843">
        <ele>1576</ele>
        <time>2020-01-15T15:01:27.000Z</time>
      </trkpt>
      <trkpt lat="45.60961" lon="6.6784">
        <ele>1575.5999755859</ele>
        <time>2020-01-15T15:01:29.000Z</time>
      </trkpt>
      <trkpt lat="45.60956" lon="6.67834">
        <ele>1575.4000244141</ele>
        <time>2020-01-15T15:01:32.000Z</time>
      </trkpt>
      <trkpt lat="45.60944" lon="6.67817">
        <ele>1575.5999755859</ele>
        <time>2020-01-15T15:01:38.000Z</time>
      </trkpt>
      <trkpt lat="45.6094" lon="6.67807">
        <ele>1575.8000488281</ele>
        <time>2020-01-15T15:01:42.000Z</time>
      </trkpt>
      <trkpt lat="45.60933" lon="6.67795">
        <ele>1576</ele>
        <time>2020-01-15T15:01:47.000Z</time>
      </trkpt>
      <trkpt lat="45.60924" lon="6.67773">
        <ele>1576.5999755859</ele>
        <time>2020-01-15T15:01:53.000Z</time>
      </trkpt>
      <trkpt lat="45.60915" lon="6.67754">
        <ele>1576.1999511719</ele>
        <time>2020-01-15T15:01:59.000Z</time>
      </trkpt>
      <trkpt lat="45.60905" lon="6.67733">
        <ele>1576.1999511719</ele>
        <time>2020-01-15T15:02:06.000Z</time>
      </trkpt>
      <trkpt lat="45.60898" lon="6.67711">
        <ele>1575.8000488281</ele>
        <time>2020-01-15T15:02:14.000Z</time>
      </trkpt>
      <trkpt lat="45.60891" lon="6.67704">
        <ele>1575.5999755859</ele>
        <time>2020-01-15T15:02:19.000Z</time>
      </trkpt>
      <trkpt lat="45.60878" lon="6.67692">
        <ele>1575.4000244141</ele>
        <time>2020-01-15T15:02:23.000Z</time>
      </trkpt>
      <trkpt lat="45.60871" lon="6.67686">
        <ele>1574.8000488281</ele>
        <time>2020-01-15T15:02:25.000Z</time>
      </trkpt>
      <trkpt lat="45.60864" lon="6.67679">
        <ele>1574.1999511719</ele>
        <time>2020-01-15T15:02:27.000Z</time>
      </trkpt>
      <trkpt lat="45.6086" lon="6.67676">
        <ele>1574</ele>
        <time>2020-01-15T15:02:28.000Z</time>
      </trkpt>
      <trkpt lat="45.60858" lon="6.67673">
        <ele>1573.8000488281</ele>
        <time>2020-01-15T15:02:29.000Z</time>
      </trkpt>
      <trkpt lat="45.6084" lon="6.67658">
        <ele>1573</ele>
        <time>2020-01-15T15:02:34.000Z</time>
      </trkpt>
      <trkpt lat="45.60833" lon="6.6765">
        <ele>1572.5999755859</ele>
        <time>2020-01-15T15:02:36.000Z</time>
      </trkpt>
      <trkpt lat="45.60814" lon="6.6763">
        <ele>1571.1999511719</ele>
        <time>2020-01-15T15:02:40.000Z</time>
      </trkpt>
      <trkpt lat="45.60805" lon="6.67617">
        <ele>1570.4000244141</ele>
        <time>2020-01-15T15:02:42.000Z</time>
      </trkpt>
      <trkpt lat="45.608" lon="6.6761">
        <ele>1569.8000488281</ele>
        <time>2020-01-15T15:02:43.000Z</time>
      </trkpt>
      <trkpt lat="45.60796" lon="6.67609">
        <ele>1569.4000244141</ele>
        <time>2020-01-15T15:02:44.000Z</time>
      </trkpt>
      <trkpt lat="45.60791" lon="6.67605">
        <ele>1568.1999511719</ele>
        <time>2020-01-15T15:02:45.000Z</time>
      </trkpt>
      <trkpt lat="45.60782" lon="6.67596">
        <ele>1566.5999755859</ele>
        <time>2020-01-15T15:02:47.000Z</time>
      </trkpt>
      <trkpt lat="45.60775" lon="6.67585">
        <ele>1565.4000244141</ele>
        <time>2020-01-15T15:02:49.000Z</time>
      </trkpt>
      <trkpt lat="45.60765" lon="6.67578">
        <ele>1564</ele>
        <time>2020-01-15T15:02:51.000Z</time>
      </trkpt>
      <trkpt lat="45.60759" lon="6.67578">
        <ele>1563.1999511719</ele>
        <time>2020-01-15T15:02:52.000Z</time>
      </trkpt>
      <trkpt lat="45.60753" lon="6.6758">
        <ele>1562.4000244141</ele>
        <time>2020-01-15T15:02:53.000Z</time>
      </trkpt>
      <trkpt lat="45.60742" lon="6.67578">
        <ele>1561.4000244141</ele>
        <time>2020-01-15T15:02:55.000Z</time>
      </trkpt>
      <trkpt lat="45.60731" lon="6.67569">
        <ele>1560.4000244141</ele>
        <time>2020-01-15T15:02:57.000Z</time>
      </trkpt>
      <trkpt lat="45.60725" lon="6.67566">
        <ele>1559.8000488281</ele>
        <time>2020-01-15T15:02:58.000Z</time>
      </trkpt>
      <trkpt lat="45.60719" lon="6.67565">
        <ele>1559.1999511719</ele>
        <time>2020-01-15T15:02:59.000Z</time>
      </trkpt>
      <trkpt lat="45.60706" lon="6.67566">
        <ele>1558.1999511719</ele>
        <time>2020-01-15T15:03:01.000Z</time>
      </trkpt>
      <trkpt lat="45.60697" lon="6.67552">
        <ele>1556.4000244141</ele>
        <time>2020-01-15T15:03:03.000Z</time>
      </trkpt>
      <trkpt lat="45.60691" lon="6.67532">
        <ele>1554.8000488281</ele>
        <time>2020-01-15T15:03:05.000Z</time>
      </trkpt>
      <trkpt lat="45.60689" lon="6.67523">
        <ele>1553.8000488281</ele>
        <time>2020-01-15T15:03:06.000Z</time>
      </trkpt>
      <trkpt lat="45.60685" lon="6.67519">
        <ele>1552.5999755859</ele>
        <time>2020-01-15T15:03:07.000Z</time>
      </trkpt>
      <trkpt lat="45.60678" lon="6.67513">
        <ele>1550.5999755859</ele>
        <time>2020-01-15T15:03:09.000Z</time>
      </trkpt>
      <trkpt lat="45.60658" lon="6.67495">
        <ele>1550.1999511719</ele>
        <time>2020-01-15T15:03:15.000Z</time>
      </trkpt>
      <trkpt lat="45.60639" lon="6.67487">
        <ele>1549.4000244141</ele>
        <time>2020-01-15T15:03:20.000Z</time>
      </trkpt>
      <trkpt lat="45.60627" lon="6.6749">
        <ele>1548.5999755859</ele>
        <time>2020-01-15T15:03:24.000Z</time>
      </trkpt>
      <trkpt lat="45.60611" lon="6.6749">
        <ele>1548.1999511719</ele>
        <time>2020-01-15T15:03:28.000Z</time>
      </trkpt>
      <trkpt lat="45.60601" lon="6.67488">
        <ele>1547.8000488281</ele>
        <time>2020-01-15T15:03:31.000Z</time>
      </trkpt>
      <trkpt lat="45.60593" lon="6.67486">
        <ele>1547</ele>
        <time>2020-01-15T15:03:34.000Z</time>
      </trkpt>
      <trkpt lat="45.60591" lon="6.67485">
        <ele>1546.8000488281</ele>
        <time>2020-01-15T15:03:35.000Z</time>
      </trkpt>
      <trkpt lat="45.60578" lon="6.67477">
        <ele>1546.4000244141</ele>
        <time>2020-01-15T15:03:40.000Z</time>
      </trkpt>
      <trkpt lat="45.60567" lon="6.67471">
        <ele>1546.1999511719</ele>
        <time>2020-01-15T15:03:45.000Z</time>
      </trkpt>
      <trkpt lat="45.60566" lon="6.67471">
        <ele>1546</ele>
        <time>2020-01-15T15:03:46.000Z</time>
      </trkpt>
      <trkpt lat="45.60567" lon="6.67471">
        <ele>1546</ele>
        <time>2020-01-15T15:03:50.000Z</time>
      </trkpt>
      <trkpt lat="45.60567" lon="6.6747">
        <ele>1545.8000488281</ele>
        <time>2020-01-15T15:03:59.000Z</time>
      </trkpt>
      <trkpt lat="45.60563" lon="6.67467">
        <ele>1545.4000244141</ele>
        <time>2020-01-15T15:04:05.000Z</time>
      </trkpt>
      <trkpt lat="45.60563" lon="6.67468">
        <ele>1545.5999755859</ele>
        <time>2020-01-15T15:04:11.000Z</time>
      </trkpt>
      <trkpt lat="45.6056" lon="6.67465">
        <ele>1545.8000488281</ele>
        <time>2020-01-15T15:04:16.000Z</time>
      </trkpt>
      <trkpt lat="45.60554" lon="6.67465">
        <ele>1546</ele>
        <time>2020-01-15T15:04:20.000Z</time>
      </trkpt>
      <trkpt lat="45.60548" lon="6.67462">
        <ele>1546</ele>
        <time>2020-01-15T15:04:25.000Z</time>
      </trkpt>
      <trkpt lat="45.60542" lon="6.6745">
        <ele>1546.5999755859</ele>
        <time>2020-01-15T15:04:31.000Z</time>
      </trkpt>
      <trkpt lat="45.60527" lon="6.67434">
        <ele>1546.4000244141</ele>
        <time>2020-01-15T15:04:37.000Z</time>
      </trkpt>
      <trkpt lat="45.60502" lon="6.67409">
        <ele>1544.8000488281</ele>
        <time>2020-01-15T15:04:43.000Z</time>
      </trkpt>
      <trkpt lat="45.6049" lon="6.67394">
        <ele>1542.8000488281</ele>
        <time>2020-01-15T15:04:46.000Z</time>
      </trkpt>
      <trkpt lat="45.60471" lon="6.67375">
        <ele>1541.5999755859</ele>
        <time>2020-01-15T15:04:50.000Z</time>
      </trkpt>
      <trkpt lat="45.60454" lon="6.67359">
        <ele>1540.4000244141</ele>
        <time>2020-01-15T15:04:53.000Z</time>
      </trkpt>
      <trkpt lat="45.60445" lon="6.6735">
        <ele>1539</ele>
        <time>2020-01-15T15:04:55.000Z</time>
      </trkpt>
      <trkpt lat="45.60439" lon="6.67346">
        <ele>1538.5999755859</ele>
        <time>2020-01-15T15:04:56.000Z</time>
      </trkpt>
      <trkpt lat="45.60428" lon="6.67339">
        <ele>1538</ele>
        <time>2020-01-15T15:04:58.000Z</time>
      </trkpt>
      <trkpt lat="45.6041" lon="6.67331">
        <ele>1536.8000488281</ele>
        <time>2020-01-15T15:05:01.000Z</time>
      </trkpt>
      <trkpt lat="45.60391" lon="6.67323">
        <ele>1535.4000244141</ele>
        <time>2020-01-15T15:05:04.000Z</time>
      </trkpt>
      <trkpt lat="45.60379" lon="6.67317">
        <ele>1534.1999511719</ele>
        <time>2020-01-15T15:05:06.000Z</time>
      </trkpt>
      <trkpt lat="45.60374" lon="6.67316">
        <ele>1533.5999755859</ele>
        <time>2020-01-15T15:05:07.000Z</time>
      </trkpt>
      <trkpt lat="45.60369" lon="6.67314">
        <ele>1533</ele>
        <time>2020-01-15T15:05:08.000Z</time>
      </trkpt>
      <trkpt lat="45.60359" lon="6.67308">
        <ele>1531.8000488281</ele>
        <time>2020-01-15T15:05:10.000Z</time>
      </trkpt>
      <trkpt lat="45.60348" lon="6.67301">
        <ele>1531.1999511719</ele>
        <time>2020-01-15T15:05:12.000Z</time>
      </trkpt>
      <trkpt lat="45.60336" lon="6.67293">
        <ele>1530.5999755859</ele>
        <time>2020-01-15T15:05:14.000Z</time>
      </trkpt>
      <trkpt lat="45.6032" lon="6.67281">
        <ele>1529.1999511719</ele>
        <time>2020-01-15T15:05:17.000Z</time>
      </trkpt>
      <trkpt lat="45.60316" lon="6.67278">
        <ele>1528.8000488281</ele>
        <time>2020-01-15T15:05:18.000Z</time>
      </trkpt>
      <trkpt lat="45.60307" lon="6.67274">
        <ele>1528</ele>
        <time>2020-01-15T15:05:20.000Z</time>
      </trkpt>
      <trkpt lat="45.60293" lon="6.67262">
        <ele>1526.8000488281</ele>
        <time>2020-01-15T15:05:24.000Z</time>
      </trkpt>
      <trkpt lat="45.60281" lon="6.67252">
        <ele>1525.5999755859</ele>
        <time>2020-01-15T15:05:29.000Z</time>
      </trkpt>
      <trkpt lat="45.60279" lon="6.67254">
        <ele>1525.1999511719</ele>
        <time>2020-01-15T15:05:30.000Z</time>
      </trkpt>
      <trkpt lat="45.60268" lon="6.67263">
        <ele>1524.5999755859</ele>
        <time>2020-01-15T15:05:33.000Z</time>
      </trkpt>
      <trkpt lat="45.60262" lon="6.67262">
        <ele>1523.5999755859</ele>
        <time>2020-01-15T15:05:34.000Z</time>
      </trkpt>
      <trkpt lat="45.60248" lon="6.67259">
        <ele>1522.1999511719</ele>
        <time>2020-01-15T15:05:36.000Z</time>
      </trkpt>
      <trkpt lat="45.60233" lon="6.67256">
        <ele>1520.1999511719</ele>
        <time>2020-01-15T15:05:38.000Z</time>
      </trkpt>
      <trkpt lat="45.60226" lon="6.67254">
        <ele>1519</ele>
        <time>2020-01-15T15:05:39.000Z</time>
      </trkpt>
      <trkpt lat="45.60219" lon="6.67254">
        <ele>1517.8000488281</ele>
        <time>2020-01-15T15:05:40.000Z</time>
      </trkpt>
      <trkpt lat="45.60213" lon="6.67254">
        <ele>1516.5999755859</ele>
        <time>2020-01-15T15:05:41.000Z</time>
      </trkpt>
      <trkpt lat="45.60202" lon="6.67252">
        <ele>1515.4000244141</ele>
        <time>2020-01-15T15:05:43.000Z</time>
      </trkpt>
      <trkpt lat="45.60193" lon="6.67245">
        <ele>1514.4000244141</ele>
        <time>2020-01-15T15:05:45.000Z</time>
      </trkpt>
      <trkpt lat="45.60189" lon="6.67243">
        <ele>1514</ele>
        <time>2020-01-15T15:05:46.000Z</time>
      </trkpt>
      <trkpt lat="45.60184" lon="6.6724">
        <ele>1513.5999755859</ele>
        <time>2020-01-15T15:05:47.000Z</time>
      </trkpt>
      <trkpt lat="45.60175" lon="6.67237">
        <ele>1512.8000488281</ele>
        <time>2020-01-15T15:05:49.000Z</time>
      </trkpt>
      <trkpt lat="45.6017" lon="6.67234">
        <ele>1512.1999511719</ele>
        <time>2020-01-15T15:05:50.000Z</time>
      </trkpt>
      <trkpt lat="45.60166" lon="6.67233">
        <ele>1511.5999755859</ele>
        <time>2020-01-15T15:05:51.000Z</time>
      </trkpt>
      <trkpt lat="45.6016" lon="6.67224">
        <ele>1510.1999511719</ele>
        <time>2020-01-15T15:05:54.000Z</time>
      </trkpt>
      <trkpt lat="45.60159" lon="6.67217">
        <ele>1509.5999755859</ele>
        <time>2020-01-15T15:05:55.000Z</time>
      </trkpt>
      <trkpt lat="45.60158" lon="6.67203">
        <ele>1509</ele>
        <time>2020-01-15T15:05:57.000Z</time>
      </trkpt>
      <trkpt lat="45.60163" lon="6.67189">
        <ele>1508</ele>
        <time>2020-01-15T15:05:59.000Z</time>
      </trkpt>
      <trkpt lat="45.60165" lon="6.67182">
        <ele>1507.5999755859</ele>
        <time>2020-01-15T15:06:00.000Z</time>
      </trkpt>
      <trkpt lat="45.60169" lon="6.67172">
        <ele>1506.5999755859</ele>
        <time>2020-01-15T15:06:02.000Z</time>
      </trkpt>
      <trkpt lat="45.60173" lon="6.67167">
        <ele>1506</ele>
        <time>2020-01-15T15:06:03.000Z</time>
      </trkpt>
      <trkpt lat="45.60176" lon="6.67162">
        <ele>1505.4000244141</ele>
        <time>2020-01-15T15:06:04.000Z</time>
      </trkpt>
      <trkpt lat="45.60179" lon="6.67156">
        <ele>1505.1999511719</ele>
        <time>2020-01-15T15:06:05.000Z</time>
      </trkpt>
      <trkpt lat="45.60182" lon="6.67138">
        <ele>1504</ele>
        <time>2020-01-15T15:06:08.000Z</time>
      </trkpt>
      <trkpt lat="45.60178" lon="6.67127">
        <ele>1502.5999755859</ele>
        <time>2020-01-15T15:06:10.000Z</time>
      </trkpt>
      <trkpt lat="45.60176" lon="6.67122">
        <ele>1502.1999511719</ele>
        <time>2020-01-15T15:06:11.000Z</time>
      </trkpt>
      <trkpt lat="45.60173" lon="6.67111">
        <ele>1501.4000244141</ele>
        <time>2020-01-15T15:06:13.000Z</time>
      </trkpt>
      <trkpt lat="45.60167" lon="6.67104">
        <ele>1500.4000244141</ele>
        <time>2020-01-15T15:06:15.000Z</time>
      </trkpt>
      <trkpt lat="45.60164" lon="6.67106">
        <ele>1499.8000488281</ele>
        <time>2020-01-15T15:06:16.000Z</time>
      </trkpt>
      <trkpt lat="45.60161" lon="6.6711">
        <ele>1499.1999511719</ele>
        <time>2020-01-15T15:06:17.000Z</time>
      </trkpt>
      <trkpt lat="45.60153" lon="6.67114">
        <ele>1498.4000244141</ele>
        <time>2020-01-15T15:06:19.000Z</time>
      </trkpt>
      <trkpt lat="45.6015" lon="6.67107">
        <ele>1498</ele>
        <time>2020-01-15T15:06:20.000Z</time>
      </trkpt>
      <trkpt lat="45.60148" lon="6.67102">
        <ele>1497.4000244141</ele>
        <time>2020-01-15T15:06:21.000Z</time>
      </trkpt>
      <trkpt lat="45.60147" lon="6.67097">
        <ele>1495.4000244141</ele>
        <time>2020-01-15T15:06:22.000Z</time>
      </trkpt>
      <trkpt lat="45.60147" lon="6.67096">
        <ele>1494.1999511719</ele>
        <time>2020-01-15T15:06:24.000Z</time>
      </trkpt>
      <trkpt lat="45.60145" lon="6.67096">
        <ele>1493.5999755859</ele>
        <time>2020-01-15T15:06:25.000Z</time>
      </trkpt>
      <trkpt lat="45.60141" lon="6.671">
        <ele>1493</ele>
        <time>2020-01-15T15:06:27.000Z</time>
      </trkpt>
      <trkpt lat="45.60139" lon="6.67104">
        <ele>1492.8000488281</ele>
        <time>2020-01-15T15:06:28.000Z</time>
      </trkpt>
      <trkpt lat="45.60136" lon="6.67108">
        <ele>1492.4000244141</ele>
        <time>2020-01-15T15:06:29.000Z</time>
      </trkpt>
      <trkpt lat="45.60133" lon="6.67111">
        <ele>1491.8000488281</ele>
        <time>2020-01-15T15:06:30.000Z</time>
      </trkpt>
      <trkpt lat="45.60128" lon="6.6712">
        <ele>1490.8000488281</ele>
        <time>2020-01-15T15:06:32.000Z</time>
      </trkpt>
      <trkpt lat="45.60125" lon="6.67122">
        <ele>1490.1999511719</ele>
        <time>2020-01-15T15:06:33.000Z</time>
      </trkpt>
      <trkpt lat="45.60122" lon="6.67123">
        <ele>1489.8000488281</ele>
        <time>2020-01-15T15:06:34.000Z</time>
      </trkpt>
      <trkpt lat="45.60117" lon="6.6712">
        <ele>1488.4000244141</ele>
        <time>2020-01-15T15:06:36.000Z</time>
      </trkpt>
      <trkpt lat="45.60115" lon="6.67117">
        <ele>1487.8000488281</ele>
        <time>2020-01-15T15:06:37.000Z</time>
      </trkpt>
      <trkpt lat="45.60112" lon="6.67119">
        <ele>1487</ele>
        <time>2020-01-15T15:06:38.000Z</time>
      </trkpt>
      <trkpt lat="45.60106" lon="6.67126">
        <ele>1485</ele>
        <time>2020-01-15T15:06:40.000Z</time>
      </trkpt>
      <trkpt lat="45.60101" lon="6.67119">
        <ele>1483.4000244141</ele>
        <time>2020-01-15T15:06:42.000Z</time>
      </trkpt>
      <trkpt lat="45.60099" lon="6.67118">
        <ele>1482.4000244141</ele>
        <time>2020-01-15T15:06:43.000Z</time>
      </trkpt>
      <trkpt lat="45.60098" lon="6.67118">
        <ele>1481.5999755859</ele>
        <time>2020-01-15T15:06:44.000Z</time>
      </trkpt>
      <trkpt lat="45.60093" lon="6.67122">
        <ele>1480</ele>
        <time>2020-01-15T15:06:46.000Z</time>
      </trkpt>
      <trkpt lat="45.60091" lon="6.67122">
        <ele>1478.8000488281</ele>
        <time>2020-01-15T15:06:49.000Z</time>
      </trkpt>
      <trkpt lat="45.60091" lon="6.67121">
        <ele>1478.1999511719</ele>
        <time>2020-01-15T15:06:50.000Z</time>
      </trkpt>
      <trkpt lat="45.60091" lon="6.67121">
        <ele>1477.4000244141</ele>
        <time>2020-01-15T15:06:52.000Z</time>
      </trkpt>
      <trkpt lat="45.60091" lon="6.67121">
        <ele>1477</ele>
        <time>2020-01-15T15:07:05.000Z</time>
      </trkpt>
      <trkpt lat="45.60091" lon="6.67121">
        <ele>1477</ele>
        <time>2020-01-15T15:07:17.000Z</time>
      </trkpt>
      <trkpt lat="45.6009" lon="6.67117">
        <ele>1477</ele>
        <time>2020-01-15T15:07:22.000Z</time>
      </trkpt>
      <trkpt lat="45.60089" lon="6.67111">
        <ele>1476.8000488281</ele>
        <time>2020-01-15T15:07:24.000Z</time>
      </trkpt>
      <trkpt lat="45.60087" lon="6.6711">
        <ele>1476.5999755859</ele>
        <time>2020-01-15T15:07:25.000Z</time>
      </trkpt>
      <trkpt lat="45.60085" lon="6.67111">
        <ele>1476.4000244141</ele>
        <time>2020-01-15T15:07:26.000Z</time>
      </trkpt>
      <trkpt lat="45.60082" lon="6.67121">
        <ele>1476</ele>
        <time>2020-01-15T15:07:29.000Z</time>
      </trkpt>
      <trkpt lat="45.60081" lon="6.67127">
        <ele>1475.5999755859</ele>
        <time>2020-01-15T15:07:31.000Z</time>
      </trkpt>
      <trkpt lat="45.60081" lon="6.6713">
        <ele>1475.1999511719</ele>
        <time>2020-01-15T15:07:32.000Z</time>
      </trkpt>
      <trkpt lat="45.60076" lon="6.6714">
        <ele>1474.1999511719</ele>
        <time>2020-01-15T15:07:36.000Z</time>
      </trkpt>
      <trkpt lat="45.60073" lon="6.67145">
        <ele>1474</ele>
        <time>2020-01-15T15:07:38.000Z</time>
      </trkpt>
      <trkpt lat="45.60064" lon="6.67155">
        <ele>1473.4000244141</ele>
        <time>2020-01-15T15:07:43.000Z</time>
      </trkpt>
      <trkpt lat="45.60062" lon="6.67155">
        <ele>1473.1999511719</ele>
        <time>2020-01-15T15:07:44.000Z</time>
      </trkpt>
      <trkpt lat="45.60057" lon="6.67142">
        <ele>1472</ele>
        <time>2020-01-15T15:07:47.000Z</time>
      </trkpt>
      <trkpt lat="45.60054" lon="6.67129">
        <ele>1471.5999755859</ele>
        <time>2020-01-15T15:07:49.000Z</time>
      </trkpt>
      <trkpt lat="45.60051" lon="6.67114">
        <ele>1470.5999755859</ele>
        <time>2020-01-15T15:07:51.000Z</time>
      </trkpt>
      <trkpt lat="45.60047" lon="6.67097">
        <ele>1469.4000244141</ele>
        <time>2020-01-15T15:07:53.000Z</time>
      </trkpt>
      <trkpt lat="45.60045" lon="6.67088">
        <ele>1469</ele>
        <time>2020-01-15T15:07:54.000Z</time>
      </trkpt>
      <trkpt lat="45.6004" lon="6.6707">
        <ele>1468.1999511719</ele>
        <time>2020-01-15T15:07:56.000Z</time>
      </trkpt>
      <trkpt lat="45.60031" lon="6.67054">
        <ele>1466.4000244141</ele>
        <time>2020-01-15T15:07:58.000Z</time>
      </trkpt>
      <trkpt lat="45.60026" lon="6.67046">
        <ele>1465.5999755859</ele>
        <time>2020-01-15T15:07:59.000Z</time>
      </trkpt>
      <trkpt lat="45.60021" lon="6.67039">
        <ele>1464.8000488281</ele>
        <time>2020-01-15T15:08:00.000Z</time>
      </trkpt>
      <trkpt lat="45.60008" lon="6.67028">
        <ele>1463.5999755859</ele>
        <time>2020-01-15T15:08:02.000Z</time>
      </trkpt>
      <trkpt lat="45.59995" lon="6.67018">
        <ele>1462.1999511719</ele>
        <time>2020-01-15T15:08:04.000Z</time>
      </trkpt>
      <trkpt lat="45.59989" lon="6.67015">
        <ele>1461.1999511719</ele>
        <time>2020-01-15T15:08:05.000Z</time>
      </trkpt>
      <trkpt lat="45.59983" lon="6.67018">
        <ele>1460.4000244141</ele>
        <time>2020-01-15T15:08:06.000Z</time>
      </trkpt>
      <trkpt lat="45.59977" lon="6.67017">
        <ele>1459.8000488281</ele>
        <time>2020-01-15T15:08:07.000Z</time>
      </trkpt>
      <trkpt lat="45.5997" lon="6.67016">
        <ele>1459.1999511719</ele>
        <time>2020-01-15T15:08:08.000Z</time>
      </trkpt>
      <trkpt lat="45.59958" lon="6.67013">
        <ele>1458.1999511719</ele>
        <time>2020-01-15T15:08:10.000Z</time>
      </trkpt>
      <trkpt lat="45.59938" lon="6.6701">
        <ele>1456.5999755859</ele>
        <time>2020-01-15T15:08:13.000Z</time>
      </trkpt>
      <trkpt lat="45.59926" lon="6.67007">
        <ele>1455.1999511719</ele>
        <time>2020-01-15T15:08:15.000Z</time>
      </trkpt>
      <trkpt lat="45.59916" lon="6.67003">
        <ele>1454</ele>
        <time>2020-01-15T15:08:17.000Z</time>
      </trkpt>
      <trkpt lat="45.59912" lon="6.67002">
        <ele>1453.4000244141</ele>
        <time>2020-01-15T15:08:18.000Z</time>
      </trkpt>
      <trkpt lat="45.59909" lon="6.67">
        <ele>1452.5999755859</ele>
        <time>2020-01-15T15:08:19.000Z</time>
      </trkpt>
      <trkpt lat="45.59906" lon="6.66996">
        <ele>1451.5999755859</ele>
        <time>2020-01-15T15:08:21.000Z</time>
      </trkpt>
      <trkpt lat="45.59904" lon="6.66992">
        <ele>1449.4000244141</ele>
        <time>2020-01-15T15:08:23.000Z</time>
      </trkpt>
      <trkpt lat="45.59901" lon="6.66988">
        <ele>1448.4000244141</ele>
        <time>2020-01-15T15:08:26.000Z</time>
      </trkpt>
      <trkpt lat="45.59899" lon="6.66987">
        <ele>1447.8000488281</ele>
        <time>2020-01-15T15:08:28.000Z</time>
      </trkpt>
      <trkpt lat="45.59899" lon="6.66986">
        <ele>1447.4000244141</ele>
        <time>2020-01-15T15:08:30.000Z</time>
      </trkpt>
      <trkpt lat="45.59899" lon="6.66986">
        <ele>1446.8000488281</ele>
        <time>2020-01-15T15:08:37.000Z</time>
      </trkpt>
      <trkpt lat="45.59899" lon="6.66986">
        <ele>1446.5999755859</ele>
        <time>2020-01-15T15:08:46.000Z</time>
      </trkpt>
      <trkpt lat="45.59897" lon="6.66983">
        <ele>1446.4000244141</ele>
        <time>2020-01-15T15:08:53.000Z</time>
      </trkpt>
      <trkpt lat="45.59896" lon="6.66981">
        <ele>1446.4000244141</ele>
        <time>2020-01-15T15:08:55.000Z</time>
      </trkpt>
      <trkpt lat="45.59895" lon="6.66978">
        <ele>1446.4000244141</ele>
        <time>2020-01-15T15:08:56.000Z</time>
      </trkpt>
      <trkpt lat="45.59892" lon="6.66972">
        <ele>1446.1999511719</ele>
        <time>2020-01-15T15:08:58.000Z</time>
      </trkpt>
      <trkpt lat="45.59878" lon="6.66956">
        <ele>1445.8000488281</ele>
        <time>2020-01-15T15:09:03.000Z</time>
      </trkpt>
      <trkpt lat="45.59874" lon="6.66953">
        <ele>1445.5999755859</ele>
        <time>2020-01-15T15:09:04.000Z</time>
      </trkpt>
      <trkpt lat="45.5987" lon="6.6695">
        <ele>1445.1999511719</ele>
        <time>2020-01-15T15:09:05.000Z</time>
      </trkpt>
      <trkpt lat="45.59859" lon="6.66947">
        <ele>1444.5999755859</ele>
        <time>2020-01-15T15:09:07.000Z</time>
      </trkpt>
      <trkpt lat="45.59849" lon="6.66947">
        <ele>1443.8000488281</ele>
        <time>2020-01-15T15:09:09.000Z</time>
      </trkpt>
      <trkpt lat="45.59838" lon="6.66948">
        <ele>1442.4000244141</ele>
        <time>2020-01-15T15:09:11.000Z</time>
      </trkpt>
      <trkpt lat="45.59832" lon="6.66949">
        <ele>1442</ele>
        <time>2020-01-15T15:09:12.000Z</time>
      </trkpt>
      <trkpt lat="45.59826" lon="6.6695">
        <ele>1441.5999755859</ele>
        <time>2020-01-15T15:09:13.000Z</time>
      </trkpt>
      <trkpt lat="45.5982" lon="6.6695">
        <ele>1441.1999511719</ele>
        <time>2020-01-15T15:09:14.000Z</time>
      </trkpt>
      <trkpt lat="45.59809" lon="6.66952">
        <ele>1440.1999511719</ele>
        <time>2020-01-15T15:09:16.000Z</time>
      </trkpt>
      <trkpt lat="45.59803" lon="6.66953">
        <ele>1439.5999755859</ele>
        <time>2020-01-15T15:09:17.000Z</time>
      </trkpt>
      <trkpt lat="45.59796" lon="6.66955">
        <ele>1439.1999511719</ele>
        <time>2020-01-15T15:09:18.000Z</time>
      </trkpt>
      <trkpt lat="45.59784" lon="6.66958">
        <ele>1438.1999511719</ele>
        <time>2020-01-15T15:09:20.000Z</time>
      </trkpt>
      <trkpt lat="45.59771" lon="6.66959">
        <ele>1437.1999511719</ele>
        <time>2020-01-15T15:09:22.000Z</time>
      </trkpt>
      <trkpt lat="45.59765" lon="6.6696">
        <ele>1436.5999755859</ele>
        <time>2020-01-15T15:09:23.000Z</time>
      </trkpt>
      <trkpt lat="45.59759" lon="6.66962">
        <ele>1436.1999511719</ele>
        <time>2020-01-15T15:09:24.000Z</time>
      </trkpt>
      <trkpt lat="45.59753" lon="6.66963">
        <ele>1435.8000488281</ele>
        <time>2020-01-15T15:09:25.000Z</time>
      </trkpt>
      <trkpt lat="45.59742" lon="6.66957">
        <ele>1434.5999755859</ele>
        <time>2020-01-15T15:09:27.000Z</time>
      </trkpt>
      <trkpt lat="45.59733" lon="6.66947">
        <ele>1433.4000244141</ele>
        <time>2020-01-15T15:09:29.000Z</time>
      </trkpt>
      <trkpt lat="45.59725" lon="6.66937">
        <ele>1432.1999511719</ele>
        <time>2020-01-15T15:09:31.000Z</time>
      </trkpt>
      <trkpt lat="45.59721" lon="6.66932">
        <ele>1431.5999755859</ele>
        <time>2020-01-15T15:09:32.000Z</time>
      </trkpt>
      <trkpt lat="45.59716" lon="6.66919">
        <ele>1431</ele>
        <time>2020-01-15T15:09:34.000Z</time>
      </trkpt>
      <trkpt lat="45.59713" lon="6.66904">
        <ele>1429.8000488281</ele>
        <time>2020-01-15T15:09:36.000Z</time>
      </trkpt>
      <trkpt lat="45.59711" lon="6.66887">
        <ele>1428.8000488281</ele>
        <time>2020-01-15T15:09:38.000Z</time>
      </trkpt>
      <trkpt lat="45.59709" lon="6.66865">
        <ele>1427.4000244141</ele>
        <time>2020-01-15T15:09:40.000Z</time>
      </trkpt>
      <trkpt lat="45.59706" lon="6.66856">
        <ele>1426.8000488281</ele>
        <time>2020-01-15T15:09:41.000Z</time>
      </trkpt>
      <trkpt lat="45.59704" lon="6.66846">
        <ele>1426</ele>
        <time>2020-01-15T15:09:42.000Z</time>
      </trkpt>
      <trkpt lat="45.59697" lon="6.66829">
        <ele>1424</ele>
        <time>2020-01-15T15:09:44.000Z</time>
      </trkpt>
      <trkpt lat="45.59694" lon="6.66821">
        <ele>1423</ele>
        <time>2020-01-15T15:09:45.000Z</time>
      </trkpt>
      <trkpt lat="45.59685" lon="6.66809">
        <ele>1421.4000244141</ele>
        <time>2020-01-15T15:09:47.000Z</time>
      </trkpt>
      <trkpt lat="45.59676" lon="6.66799">
        <ele>1420.1999511719</ele>
        <time>2020-01-15T15:09:49.000Z</time>
      </trkpt>
      <trkpt lat="45.59664" lon="6.66788">
        <ele>1418.8000488281</ele>
        <time>2020-01-15T15:09:51.000Z</time>
      </trkpt>
      <trkpt lat="45.59659" lon="6.66784">
        <ele>1418</ele>
        <time>2020-01-15T15:09:52.000Z</time>
      </trkpt>
      <trkpt lat="45.59654" lon="6.66782">
        <ele>1417.1999511719</ele>
        <time>2020-01-15T15:09:53.000Z</time>
      </trkpt>
      <trkpt lat="45.59648" lon="6.66782">
        <ele>1416.5999755859</ele>
        <time>2020-01-15T15:09:54.000Z</time>
      </trkpt>
      <trkpt lat="45.59643" lon="6.66782">
        <ele>1415.8000488281</ele>
        <time>2020-01-15T15:09:55.000Z</time>
      </trkpt>
      <trkpt lat="45.59637" lon="6.66781">
        <ele>1415</ele>
        <time>2020-01-15T15:09:56.000Z</time>
      </trkpt>
      <trkpt lat="45.59631" lon="6.66781">
        <ele>1414.4000244141</ele>
        <time>2020-01-15T15:09:57.000Z</time>
      </trkpt>
      <trkpt lat="45.59619" lon="6.66783">
        <ele>1412.8000488281</ele>
        <time>2020-01-15T15:09:59.000Z</time>
      </trkpt>
      <trkpt lat="45.59605" lon="6.66785">
        <ele>1411.5999755859</ele>
        <time>2020-01-15T15:10:01.000Z</time>
      </trkpt>
      <trkpt lat="45.59592" lon="6.66786">
        <ele>1410.8000488281</ele>
        <time>2020-01-15T15:10:03.000Z</time>
      </trkpt>
      <trkpt lat="45.59588" lon="6.66791">
        <ele>1410.1999511719</ele>
        <time>2020-01-15T15:10:04.000Z</time>
      </trkpt>
      <trkpt lat="45.59585" lon="6.66798">
        <ele>1409.5999755859</ele>
        <time>2020-01-15T15:10:05.000Z</time>
      </trkpt>
      <trkpt lat="45.59586" lon="6.66805">
        <ele>1409</ele>
        <time>2020-01-15T15:10:06.000Z</time>
      </trkpt>
      <trkpt lat="45.59591" lon="6.66811">
        <ele>1408</ele>
        <time>2020-01-15T15:10:07.000Z</time>
      </trkpt>
      <trkpt lat="45.59597" lon="6.66816">
        <ele>1407</ele>
        <time>2020-01-15T15:10:08.000Z</time>
      </trkpt>
      <trkpt lat="45.59609" lon="6.66826">
        <ele>1405.4000244141</ele>
        <time>2020-01-15T15:10:10.000Z</time>
      </trkpt>
      <trkpt lat="45.59619" lon="6.66837">
        <ele>1404.4000244141</ele>
        <time>2020-01-15T15:10:12.000Z</time>
      </trkpt>
      <trkpt lat="45.59624" lon="6.66843">
        <ele>1404</ele>
        <time>2020-01-15T15:10:13.000Z</time>
      </trkpt>
      <trkpt lat="45.59631" lon="6.66868">
        <ele>1402.8000488281</ele>
        <time>2020-01-15T15:10:16.000Z</time>
      </trkpt>
      <trkpt lat="45.59631" lon="6.66886">
        <ele>1401.8000488281</ele>
        <time>2020-01-15T15:10:18.000Z</time>
      </trkpt>
      <trkpt lat="45.59631" lon="6.66896">
        <ele>1401.1999511719</ele>
        <time>2020-01-15T15:10:19.000Z</time>
      </trkpt>
      <trkpt lat="45.5963" lon="6.66906">
        <ele>1400.5999755859</ele>
        <time>2020-01-15T15:10:20.000Z</time>
      </trkpt>
      <trkpt lat="45.59628" lon="6.66926">
        <ele>1399.1999511719</ele>
        <time>2020-01-15T15:10:22.000Z</time>
      </trkpt>
      <trkpt lat="45.59627" lon="6.66936">
        <ele>1397.8000488281</ele>
        <time>2020-01-15T15:10:23.000Z</time>
      </trkpt>
      <trkpt lat="45.59627" lon="6.66946">
        <ele>1397</ele>
        <time>2020-01-15T15:10:24.000Z</time>
      </trkpt>
      <trkpt lat="45.59628" lon="6.66956">
        <ele>1396.4000244141</ele>
        <time>2020-01-15T15:10:25.000Z</time>
      </trkpt>
      <trkpt lat="45.5963" lon="6.66965">
        <ele>1395.5999755859</ele>
        <time>2020-01-15T15:10:26.000Z</time>
      </trkpt>
      <trkpt lat="45.59633" lon="6.66975">
        <ele>1394.8000488281</ele>
        <time>2020-01-15T15:10:27.000Z</time>
      </trkpt>
      <trkpt lat="45.59638" lon="6.66994">
        <ele>1393</ele>
        <time>2020-01-15T15:10:29.000Z</time>
      </trkpt>
      <trkpt lat="45.59639" lon="6.67003">
        <ele>1392.1999511719</ele>
        <time>2020-01-15T15:10:30.000Z</time>
      </trkpt>
      <trkpt lat="45.59639" lon="6.67011">
        <ele>1391.5999755859</ele>
        <time>2020-01-15T15:10:31.000Z</time>
      </trkpt>
      <trkpt lat="45.59634" lon="6.67028">
        <ele>1390.1999511719</ele>
        <time>2020-01-15T15:10:34.000Z</time>
      </trkpt>
      <trkpt lat="45.59626" lon="6.67041">
        <ele>1389</ele>
        <time>2020-01-15T15:10:37.000Z</time>
      </trkpt>
      <trkpt lat="45.59617" lon="6.67053">
        <ele>1387.8000488281</ele>
        <time>2020-01-15T15:10:40.000Z</time>
      </trkpt>
      <trkpt lat="45.5961" lon="6.67062">
        <ele>1386.8000488281</ele>
        <time>2020-01-15T15:10:42.000Z</time>
      </trkpt>
      <trkpt lat="45.59603" lon="6.6707">
        <ele>1385.5999755859</ele>
        <time>2020-01-15T15:10:44.000Z</time>
      </trkpt>
      <trkpt lat="45.59596" lon="6.67077">
        <ele>1384.5999755859</ele>
        <time>2020-01-15T15:10:46.000Z</time>
      </trkpt>
      <trkpt lat="45.59592" lon="6.67079">
        <ele>1383.8000488281</ele>
        <time>2020-01-15T15:10:47.000Z</time>
      </trkpt>
      <trkpt lat="45.59587" lon="6.67081">
        <ele>1383.4000244141</ele>
        <time>2020-01-15T15:10:48.000Z</time>
      </trkpt>
      <trkpt lat="45.59514" lon="6.66999">
        <ele>1382</ele>
        <time>2020-01-15T15:10:51.000Z</time>
      </trkpt>
      <trkpt lat="45.59502" lon="6.67004">
        <ele>1380.8000488281</ele>
        <time>2020-01-15T15:10:53.000Z</time>
      </trkpt>
      <trkpt lat="45.5949" lon="6.67008">
        <ele>1379.8000488281</ele>
        <time>2020-01-15T15:10:55.000Z</time>
      </trkpt>
      <trkpt lat="45.59477" lon="6.67017">
        <ele>1378.8000488281</ele>
        <time>2020-01-15T15:10:57.000Z</time>
      </trkpt>
      <trkpt lat="45.59472" lon="6.67022">
        <ele>1378.4000244141</ele>
        <time>2020-01-15T15:10:58.000Z</time>
      </trkpt>
      <trkpt lat="45.59461" lon="6.67033">
        <ele>1377.8000488281</ele>
        <time>2020-01-15T15:11:00.000Z</time>
      </trkpt>
      <trkpt lat="45.59455" lon="6.67036">
        <ele>1377.5999755859</ele>
        <time>2020-01-15T15:11:01.000Z</time>
      </trkpt>
      <trkpt lat="45.59449" lon="6.67038">
        <ele>1377.1999511719</ele>
        <time>2020-01-15T15:11:02.000Z</time>
      </trkpt>
      <trkpt lat="45.59424" lon="6.67048">
        <ele>1376</ele>
        <time>2020-01-15T15:11:06.000Z</time>
      </trkpt>
      <trkpt lat="45.59418" lon="6.67052">
        <ele>1375.5999755859</ele>
        <time>2020-01-15T15:11:07.000Z</time>
      </trkpt>
      <trkpt lat="45.59406" lon="6.67061">
        <ele>1374.5999755859</ele>
        <time>2020-01-15T15:11:09.000Z</time>
      </trkpt>
      <trkpt lat="45.59395" lon="6.6707">
        <ele>1373</ele>
        <time>2020-01-15T15:11:11.000Z</time>
      </trkpt>
      <trkpt lat="45.59383" lon="6.67075">
        <ele>1372.1999511719</ele>
        <time>2020-01-15T15:11:13.000Z</time>
      </trkpt>
      <trkpt lat="45.59377" lon="6.67077">
        <ele>1371.8000488281</ele>
        <time>2020-01-15T15:11:14.000Z</time>
      </trkpt>
      <trkpt lat="45.59357" lon="6.67082">
        <ele>1370.4000244141</ele>
        <time>2020-01-15T15:11:18.000Z</time>
      </trkpt>
      <trkpt lat="45.59352" lon="6.67082">
        <ele>1370</ele>
        <time>2020-01-15T15:11:19.000Z</time>
      </trkpt>
      <trkpt lat="45.59341" lon="6.6708">
        <ele>1369.1999511719</ele>
        <time>2020-01-15T15:11:22.000Z</time>
      </trkpt>
      <trkpt lat="45.59337" lon="6.67079">
        <ele>1369</ele>
        <time>2020-01-15T15:11:23.000Z</time>
      </trkpt>
      <trkpt lat="45.5932" lon="6.67077">
        <ele>1368.1999511719</ele>
        <time>2020-01-15T15:11:28.000Z</time>
      </trkpt>
      <trkpt lat="45.59303" lon="6.67074">
        <ele>1367.5999755859</ele>
        <time>2020-01-15T15:11:35.000Z</time>
      </trkpt>
      <trkpt lat="45.59294" lon="6.67072">
        <ele>1367.1999511719</ele>
        <time>2020-01-15T15:11:41.000Z</time>
      </trkpt>
      <trkpt lat="45.59294" lon="6.67071">
        <ele>1367.1999511719</ele>
        <time>2020-01-15T15:11:42.000Z</time>
      </trkpt>
      <trkpt lat="45.59288" lon="6.6707">
        <ele>1367</ele>
        <time>2020-01-15T15:11:49.000Z</time>
      </trkpt>
      <trkpt lat="45.59279" lon="6.67071">
        <ele>1366.8000488281</ele>
        <time>2020-01-15T15:11:56.000Z</time>
      </trkpt>
      <trkpt lat="45.59268" lon="6.67073">
        <ele>1367</ele>
        <time>2020-01-15T15:12:03.000Z</time>
      </trkpt>
      <trkpt lat="45.59258" lon="6.67075">
        <ele>1366.8000488281</ele>
        <time>2020-01-15T15:12:10.000Z</time>
      </trkpt>
      <trkpt lat="45.59247" lon="6.67078">
        <ele>1366.8000488281</ele>
        <time>2020-01-15T15:12:15.000Z</time>
      </trkpt>
      <trkpt lat="45.59233" lon="6.67081">
        <ele>1366.4000244141</ele>
        <time>2020-01-15T15:12:22.000Z</time>
      </trkpt>
      <trkpt lat="45.59221" lon="6.6708">
        <ele>1366.4000244141</ele>
        <time>2020-01-15T15:12:29.000Z</time>
      </trkpt>
      <trkpt lat="45.59205" lon="6.67084">
        <ele>1366.1999511719</ele>
        <time>2020-01-15T15:12:36.000Z</time>
      </trkpt>
      <trkpt lat="45.59204" lon="6.67084">
        <ele>1366.1999511719</ele>
        <time>2020-01-15T15:12:37.000Z</time>
      </trkpt>
      <trkpt lat="45.59201" lon="6.67085">
        <ele>1365.8000488281</ele>
        <time>2020-01-15T15:12:41.000Z</time>
      </trkpt>
      <trkpt lat="45.59201" lon="6.67085">
        <ele>1365.8000488281</ele>
        <time>2020-01-15T15:12:50.000Z</time>
      </trkpt>
      <trkpt lat="45.59201" lon="6.67085">
        <ele>1365.5999755859</ele>
        <time>2020-01-15T15:13:00.000Z</time>
      </trkpt>
      <trkpt lat="45.59201" lon="6.67085">
        <ele>1365.5999755859</ele>
        <time>2020-01-15T15:13:13.000Z</time>
      </trkpt>
      <trkpt lat="45.592" lon="6.67085">
        <ele>1365.5999755859</ele>
        <time>2020-01-15T15:13:24.000Z</time>
      </trkpt>
      <trkpt lat="45.592" lon="6.67085">
        <ele>1365</ele>
        <time>2020-01-15T15:13:27.000Z</time>
      </trkpt>
      <trkpt lat="45.592" lon="6.67085">
        <ele>1365.4000244141</ele>
        <time>2020-01-15T15:13:35.000Z</time>
      </trkpt>
      <trkpt lat="45.592" lon="6.67085">
        <ele>1366</ele>
        <time>2020-01-15T15:13:45.000Z</time>
      </trkpt>
      <trkpt lat="45.592" lon="6.67085">
        <ele>1365.8000488281</ele>
        <time>2020-01-15T15:13:46.000Z</time>
      </trkpt>
      <trkpt lat="45.59194" lon="6.67088">
        <ele>1365.4000244141</ele>
        <time>2020-01-15T15:13:51.000Z</time>
      </trkpt>
      <trkpt lat="45.59193" lon="6.6709">
        <ele>1365.5999755859</ele>
        <time>2020-01-15T15:13:57.000Z</time>
      </trkpt>
      <trkpt lat="45.59193" lon="6.6709">
        <ele>1365.5999755859</ele>
        <time>2020-01-15T15:14:05.000Z</time>
      </trkpt>
      <trkpt lat="45.59192" lon="6.67092">
        <ele>1365.4000244141</ele>
        <time>2020-01-15T15:14:11.000Z</time>
      </trkpt>
      <trkpt lat="45.59192" lon="6.67092">
        <ele>1365.5999755859</ele>
        <time>2020-01-15T15:14:20.000Z</time>
      </trkpt>
      <trkpt lat="45.59192" lon="6.67092">
        <ele>1365.4000244141</ele>
        <time>2020-01-15T15:14:28.000Z</time>
      </trkpt>
      <trkpt lat="45.59192" lon="6.67092">
        <ele>1365</ele>
        <time>2020-01-15T15:14:34.000Z</time>
      </trkpt>
      <trkpt lat="45.59192" lon="6.67092">
        <ele>1365</ele>
        <time>2020-01-15T15:14:38.000Z</time>
      </trkpt>
      <trkpt lat="45.59192" lon="6.67092">
        <ele>1365.4000244141</ele>
        <time>2020-01-15T15:14:50.000Z</time>
      </trkpt>
      <trkpt lat="45.59192" lon="6.67092">
        <ele>1365.1999511719</ele>
        <time>2020-01-15T15:15:01.000Z</time>
      </trkpt>
      <trkpt lat="45.59192" lon="6.67092">
        <ele>1365.1999511719</ele>
        <time>2020-01-15T15:15:09.000Z</time>
      </trkpt>
      <trkpt lat="45.59192" lon="6.67092">
        <ele>1364.8000488281</ele>
        <time>2020-01-15T15:15:20.000Z</time>
      </trkpt>
      <trkpt lat="45.59192" lon="6.67092">
        <ele>1365</ele>
        <time>2020-01-15T15:15:35.000Z</time>
      </trkpt>
      <trkpt lat="45.59192" lon="6.67092">
        <ele>1364.5999755859</ele>
        <time>2020-01-15T15:15:43.000Z</time>
      </trkpt>
      <trkpt lat="45.59192" lon="6.67092">
        <ele>1365.5999755859</ele>
        <time>2020-01-15T15:15:54.000Z</time>
      </trkpt>
      <trkpt lat="45.59192" lon="6.67092">
        <ele>1364.8000488281</ele>
        <time>2020-01-15T15:16:01.000Z</time>
      </trkpt>
      <trkpt lat="45.59192" lon="6.67092">
        <ele>1365.4000244141</ele>
        <time>2020-01-15T15:16:14.000Z</time>
      </trkpt>
      <trkpt lat="45.59193" lon="6.67093">
        <ele>1365.4000244141</ele>
        <time>2020-01-15T15:16:22.000Z</time>
      </trkpt>
      <trkpt lat="45.59194" lon="6.67093">
        <ele>1365.4000244141</ele>
        <time>2020-01-15T15:16:30.000Z</time>
      </trkpt>
      <trkpt lat="45.59194" lon="6.67093">
        <ele>1365.1999511719</ele>
        <time>2020-01-15T15:16:37.000Z</time>
      </trkpt>
      <trkpt lat="45.59194" lon="6.67093">
        <ele>1365.1999511719</ele>
        <time>2020-01-15T15:16:44.000Z</time>
      </trkpt>
      <trkpt lat="45.59194" lon="6.67093">
        <ele>1365.1999511719</ele>
        <time>2020-01-15T15:16:52.000Z</time>
      </trkpt>
      <trkpt lat="45.59194" lon="6.67093">
        <ele>1365</ele>
        <time>2020-01-15T15:17:01.000Z</time>
      </trkpt>
      <trkpt lat="45.59194" lon="6.67093">
        <ele>1365.5999755859</ele>
        <time>2020-01-15T15:17:12.000Z</time>
      </trkpt>
      <trkpt lat="45.59194" lon="6.67093">
        <ele>1364.5999755859</ele>
        <time>2020-01-15T15:17:25.000Z</time>
      </trkpt>
      <trkpt lat="45.59194" lon="6.67093">
        <ele>1365</ele>
        <time>2020-01-15T15:17:38.000Z</time>
      </trkpt>
      <trkpt lat="45.59194" lon="6.67093">
        <ele>1365.4000244141</ele>
        <time>2020-01-15T15:17:50.000Z</time>
      </trkpt>
      <trkpt lat="45.59194" lon="6.67093">
        <ele>1364.1999511719</ele>
        <time>2020-01-15T15:17:59.000Z</time>
      </trkpt>
      <trkpt lat="45.59194" lon="6.67093">
        <ele>1366.4000244141</ele>
        <time>2020-01-15T15:18:01.000Z</time>
      </trkpt>
      <trkpt lat="45.59193" lon="6.67092">
        <ele>1365.1999511719</ele>
        <time>2020-01-15T15:18:09.000Z</time>
      </trkpt>
      <trkpt lat="45.59193" lon="6.67091">
        <ele>1364.1999511719</ele>
        <time>2020-01-15T15:18:15.000Z</time>
      </trkpt>
      <trkpt lat="45.59193" lon="6.67091">
        <ele>1364.5999755859</ele>
        <time>2020-01-15T15:18:17.000Z</time>
      </trkpt>
      <trkpt lat="45.59193" lon="6.67091">
        <ele>1365.1999511719</ele>
        <time>2020-01-15T15:18:20.000Z</time>
      </trkpt>
      <trkpt lat="45.59192" lon="6.67092">
        <ele>1364.5999755859</ele>
        <time>2020-01-15T15:18:28.000Z</time>
      </trkpt>
      <trkpt lat="45.59192" lon="6.67092">
        <ele>1364.5999755859</ele>
        <time>2020-01-15T15:18:39.000Z</time>
      </trkpt>
      <trkpt lat="45.59192" lon="6.67092">
        <ele>1365.4000244141</ele>
        <time>2020-01-15T15:18:49.000Z</time>
      </trkpt>
    </trkseg>
  </trk>
</gpx>